<?xml version="1.0" encoding="UTF-8" standalone="no" ?>
<gpx xmlns="http://www.topografix.com/GPX/1/1" xmlns:xsi="http://www.w3.org/2001/XMLSchema-instance" xsi:schemaLocation="http://www.topografix.com/GPX/1/1 http://www.topografix.com/GPX/1/1/gpx.xsd" version="1.1" creator="VisuGPX - https://www.visugpx.com">
  <metadata>
    <name>Enregistrement du 29/11/2024</name>
  </metadata>
  <trk>
    <name><![CDATA[Enregistrement du 29/11/2024_1]]></name>
    <trkseg>
      <trkpt lat="45.87779" lon="1.24428">
        <ele>359.8</ele>
        <time>2024-11-29T12:38:45Z</time>
      </trkpt>
      <trkpt lat="45.87781" lon="1.2443">
        <ele>360</ele>
        <time>2024-11-29T12:39:14Z</time>
      </trkpt>
      <trkpt lat="45.87786" lon="1.24432">
        <ele>360.4</ele>
        <time>2024-11-29T12:39:16Z</time>
      </trkpt>
      <trkpt lat="45.87789" lon="1.24435">
        <ele>360.7</ele>
        <time>2024-11-29T12:39:17Z</time>
      </trkpt>
      <trkpt lat="45.87793" lon="1.24437">
        <ele>361.1</ele>
        <time>2024-11-29T12:39:18Z</time>
      </trkpt>
      <trkpt lat="45.87796" lon="1.24438">
        <ele>361.3</ele>
        <time>2024-11-29T12:39:19Z</time>
      </trkpt>
      <trkpt lat="45.87799" lon="1.2444">
        <ele>361.6</ele>
        <time>2024-11-29T12:39:20Z</time>
      </trkpt>
      <trkpt lat="45.87802" lon="1.24441">
        <ele>361.8</ele>
        <time>2024-11-29T12:39:21Z</time>
      </trkpt>
      <trkpt lat="45.87805" lon="1.24443">
        <ele>362.1</ele>
        <time>2024-11-29T12:39:22Z</time>
      </trkpt>
      <trkpt lat="45.87808" lon="1.24445">
        <ele>362.3</ele>
        <time>2024-11-29T12:39:23Z</time>
      </trkpt>
      <trkpt lat="45.87811" lon="1.24447">
        <ele>362.6</ele>
        <time>2024-11-29T12:39:24Z</time>
      </trkpt>
      <trkpt lat="45.87814" lon="1.24449">
        <ele>362.9</ele>
        <time>2024-11-29T12:39:25Z</time>
      </trkpt>
      <trkpt lat="45.87818" lon="1.2445">
        <ele>363.2</ele>
        <time>2024-11-29T12:39:27Z</time>
      </trkpt>
      <trkpt lat="45.87821" lon="1.2445">
        <ele>363.5</ele>
        <time>2024-11-29T12:39:28Z</time>
      </trkpt>
      <trkpt lat="45.87824" lon="1.24449">
        <ele>363.4</ele>
        <time>2024-11-29T12:39:29Z</time>
      </trkpt>
      <trkpt lat="45.87828" lon="1.24448">
        <ele>363.3</ele>
        <time>2024-11-29T12:39:30Z</time>
      </trkpt>
      <trkpt lat="45.87831" lon="1.24446">
        <ele>363.3</ele>
        <time>2024-11-29T12:39:31Z</time>
      </trkpt>
      <trkpt lat="45.87836" lon="1.24443">
        <ele>363.2</ele>
        <time>2024-11-29T12:39:32Z</time>
      </trkpt>
      <trkpt lat="45.8784" lon="1.24441">
        <ele>363.1</ele>
        <time>2024-11-29T12:39:33Z</time>
      </trkpt>
      <trkpt lat="45.87845" lon="1.24438">
        <ele>362.9</ele>
        <time>2024-11-29T12:39:34Z</time>
      </trkpt>
      <trkpt lat="45.8785" lon="1.24436">
        <ele>362.9</ele>
        <time>2024-11-29T12:39:35Z</time>
      </trkpt>
      <trkpt lat="45.87854" lon="1.24435">
        <ele>362.8</ele>
        <time>2024-11-29T12:39:36Z</time>
      </trkpt>
      <trkpt lat="45.87859" lon="1.24434">
        <ele>362.8</ele>
        <time>2024-11-29T12:39:37Z</time>
      </trkpt>
      <trkpt lat="45.87864" lon="1.24434">
        <ele>362.8</ele>
        <time>2024-11-29T12:39:38Z</time>
      </trkpt>
      <trkpt lat="45.87868" lon="1.24435">
        <ele>362.9</ele>
        <time>2024-11-29T12:39:39Z</time>
      </trkpt>
      <trkpt lat="45.87871" lon="1.24438">
        <ele>362.9</ele>
        <time>2024-11-29T12:39:40Z</time>
      </trkpt>
      <trkpt lat="45.87875" lon="1.24442">
        <ele>362.9</ele>
        <time>2024-11-29T12:39:41Z</time>
      </trkpt>
      <trkpt lat="45.87878" lon="1.24446">
        <ele>363</ele>
        <time>2024-11-29T12:39:42Z</time>
      </trkpt>
      <trkpt lat="45.87882" lon="1.24451">
        <ele>363.1</ele>
        <time>2024-11-29T12:39:43Z</time>
      </trkpt>
      <trkpt lat="45.87887" lon="1.24456">
        <ele>363.1</ele>
        <time>2024-11-29T12:39:44Z</time>
      </trkpt>
      <trkpt lat="45.87891" lon="1.2446">
        <ele>363.3</ele>
        <time>2024-11-29T12:39:45Z</time>
      </trkpt>
      <trkpt lat="45.87896" lon="1.24463">
        <ele>363.4</ele>
        <time>2024-11-29T12:39:46Z</time>
      </trkpt>
      <trkpt lat="45.87901" lon="1.24465">
        <ele>363.6</ele>
        <time>2024-11-29T12:39:47Z</time>
      </trkpt>
      <trkpt lat="45.87906" lon="1.24466">
        <ele>363.7</ele>
        <time>2024-11-29T12:39:48Z</time>
      </trkpt>
      <trkpt lat="45.87911" lon="1.24467">
        <ele>363.9</ele>
        <time>2024-11-29T12:39:49Z</time>
      </trkpt>
      <trkpt lat="45.87917" lon="1.24466">
        <ele>364.1</ele>
        <time>2024-11-29T12:39:50Z</time>
      </trkpt>
      <trkpt lat="45.87922" lon="1.24465">
        <ele>364.3</ele>
        <time>2024-11-29T12:39:51Z</time>
      </trkpt>
      <trkpt lat="45.87927" lon="1.24463">
        <ele>364.6</ele>
        <time>2024-11-29T12:39:52Z</time>
      </trkpt>
      <trkpt lat="45.87932" lon="1.24461">
        <ele>364.8</ele>
        <time>2024-11-29T12:39:53Z</time>
      </trkpt>
      <trkpt lat="45.87936" lon="1.24458">
        <ele>365.1</ele>
        <time>2024-11-29T12:39:54Z</time>
      </trkpt>
      <trkpt lat="45.87941" lon="1.24455">
        <ele>365.4</ele>
        <time>2024-11-29T12:39:55Z</time>
      </trkpt>
      <trkpt lat="45.87945" lon="1.24452">
        <ele>365.7</ele>
        <time>2024-11-29T12:39:56Z</time>
      </trkpt>
      <trkpt lat="45.87949" lon="1.24449">
        <ele>366.1</ele>
        <time>2024-11-29T12:39:57Z</time>
      </trkpt>
      <trkpt lat="45.87954" lon="1.24446">
        <ele>366.5</ele>
        <time>2024-11-29T12:39:58Z</time>
      </trkpt>
      <trkpt lat="45.87957" lon="1.24442">
        <ele>366.8</ele>
        <time>2024-11-29T12:39:59Z</time>
      </trkpt>
      <trkpt lat="45.87961" lon="1.24439">
        <ele>367.1</ele>
        <time>2024-11-29T12:40:00Z</time>
      </trkpt>
      <trkpt lat="45.87965" lon="1.24436">
        <ele>367.5</ele>
        <time>2024-11-29T12:40:01Z</time>
      </trkpt>
      <trkpt lat="45.87969" lon="1.24433">
        <ele>367.9</ele>
        <time>2024-11-29T12:40:02Z</time>
      </trkpt>
      <trkpt lat="45.87973" lon="1.2443">
        <ele>368.2</ele>
        <time>2024-11-29T12:40:03Z</time>
      </trkpt>
      <trkpt lat="45.87977" lon="1.24427">
        <ele>368.6</ele>
        <time>2024-11-29T12:40:04Z</time>
      </trkpt>
      <trkpt lat="45.87981" lon="1.24425">
        <ele>368.9</ele>
        <time>2024-11-29T12:40:05Z</time>
      </trkpt>
      <trkpt lat="45.87984" lon="1.24422">
        <ele>369.2</ele>
        <time>2024-11-29T12:40:06Z</time>
      </trkpt>
      <trkpt lat="45.87988" lon="1.24419">
        <ele>369.5</ele>
        <time>2024-11-29T12:40:07Z</time>
      </trkpt>
      <trkpt lat="45.87991" lon="1.24416">
        <ele>369.8</ele>
        <time>2024-11-29T12:40:08Z</time>
      </trkpt>
      <trkpt lat="45.87995" lon="1.24413">
        <ele>370.2</ele>
        <time>2024-11-29T12:40:09Z</time>
      </trkpt>
      <trkpt lat="45.87998" lon="1.2441">
        <ele>370.5</ele>
        <time>2024-11-29T12:40:10Z</time>
      </trkpt>
      <trkpt lat="45.88002" lon="1.24408">
        <ele>370.8</ele>
        <time>2024-11-29T12:40:11Z</time>
      </trkpt>
      <trkpt lat="45.88006" lon="1.24409">
        <ele>371.2</ele>
        <time>2024-11-29T12:40:12Z</time>
      </trkpt>
      <trkpt lat="45.88009" lon="1.24411">
        <ele>371.5</ele>
        <time>2024-11-29T12:40:13Z</time>
      </trkpt>
      <trkpt lat="45.88012" lon="1.24414">
        <ele>371.8</ele>
        <time>2024-11-29T12:40:14Z</time>
      </trkpt>
      <trkpt lat="45.88014" lon="1.24419">
        <ele>372.2</ele>
        <time>2024-11-29T12:40:15Z</time>
      </trkpt>
      <trkpt lat="45.88017" lon="1.24424">
        <ele>372.5</ele>
        <time>2024-11-29T12:40:16Z</time>
      </trkpt>
      <trkpt lat="45.88019" lon="1.24429">
        <ele>372.8</ele>
        <time>2024-11-29T12:40:17Z</time>
      </trkpt>
      <trkpt lat="45.88022" lon="1.24435">
        <ele>373.2</ele>
        <time>2024-11-29T12:40:18Z</time>
      </trkpt>
      <trkpt lat="45.88024" lon="1.24441">
        <ele>373.4</ele>
        <time>2024-11-29T12:40:19Z</time>
      </trkpt>
      <trkpt lat="45.88027" lon="1.24447">
        <ele>373.7</ele>
        <time>2024-11-29T12:40:20Z</time>
      </trkpt>
      <trkpt lat="45.88029" lon="1.24452">
        <ele>374</ele>
        <time>2024-11-29T12:40:21Z</time>
      </trkpt>
      <trkpt lat="45.88032" lon="1.24458">
        <ele>374.2</ele>
        <time>2024-11-29T12:40:22Z</time>
      </trkpt>
      <trkpt lat="45.88035" lon="1.24462">
        <ele>374.4</ele>
        <time>2024-11-29T12:40:23Z</time>
      </trkpt>
      <trkpt lat="45.88039" lon="1.24467">
        <ele>374.6</ele>
        <time>2024-11-29T12:40:24Z</time>
      </trkpt>
      <trkpt lat="45.88042" lon="1.24472">
        <ele>374.7</ele>
        <time>2024-11-29T12:40:25Z</time>
      </trkpt>
      <trkpt lat="45.88046" lon="1.24478">
        <ele>374.8</ele>
        <time>2024-11-29T12:40:26Z</time>
      </trkpt>
      <trkpt lat="45.88049" lon="1.24483">
        <ele>374.8</ele>
        <time>2024-11-29T12:40:27Z</time>
      </trkpt>
      <trkpt lat="45.88052" lon="1.24488">
        <ele>374.7</ele>
        <time>2024-11-29T12:40:28Z</time>
      </trkpt>
      <trkpt lat="45.88055" lon="1.24492">
        <ele>374.6</ele>
        <time>2024-11-29T12:40:29Z</time>
      </trkpt>
      <trkpt lat="45.88059" lon="1.24494">
        <ele>374.5</ele>
        <time>2024-11-29T12:40:30Z</time>
      </trkpt>
      <trkpt lat="45.88063" lon="1.24494">
        <ele>374.9</ele>
        <time>2024-11-29T12:40:31Z</time>
      </trkpt>
      <trkpt lat="45.88067" lon="1.24493">
        <ele>375</ele>
        <time>2024-11-29T12:40:33Z</time>
      </trkpt>
      <trkpt lat="45.88072" lon="1.24491">
        <ele>375.3</ele>
        <time>2024-11-29T12:40:35Z</time>
      </trkpt>
      <trkpt lat="45.88076" lon="1.24488">
        <ele>375.4</ele>
        <time>2024-11-29T12:40:36Z</time>
      </trkpt>
      <trkpt lat="45.88079" lon="1.24485">
        <ele>375.5</ele>
        <time>2024-11-29T12:40:37Z</time>
      </trkpt>
      <trkpt lat="45.88082" lon="1.24482">
        <ele>375.7</ele>
        <time>2024-11-29T12:40:38Z</time>
      </trkpt>
      <trkpt lat="45.88086" lon="1.24478">
        <ele>375.8</ele>
        <time>2024-11-29T12:40:39Z</time>
      </trkpt>
      <trkpt lat="45.88089" lon="1.24475">
        <ele>375.9</ele>
        <time>2024-11-29T12:40:40Z</time>
      </trkpt>
      <trkpt lat="45.88092" lon="1.24471">
        <ele>376</ele>
        <time>2024-11-29T12:40:41Z</time>
      </trkpt>
      <trkpt lat="45.88095" lon="1.24467">
        <ele>376</ele>
        <time>2024-11-29T12:40:42Z</time>
      </trkpt>
      <trkpt lat="45.88098" lon="1.24464">
        <ele>376.1</ele>
        <time>2024-11-29T12:40:43Z</time>
      </trkpt>
      <trkpt lat="45.88101" lon="1.2446">
        <ele>376.2</ele>
        <time>2024-11-29T12:40:44Z</time>
      </trkpt>
      <trkpt lat="45.88104" lon="1.24456">
        <ele>376.3</ele>
        <time>2024-11-29T12:40:45Z</time>
      </trkpt>
      <trkpt lat="45.88107" lon="1.24453">
        <ele>376.5</ele>
        <time>2024-11-29T12:40:46Z</time>
      </trkpt>
      <trkpt lat="45.8811" lon="1.2445">
        <ele>376.6</ele>
        <time>2024-11-29T12:40:47Z</time>
      </trkpt>
      <trkpt lat="45.88113" lon="1.24447">
        <ele>376.7</ele>
        <time>2024-11-29T12:40:48Z</time>
      </trkpt>
      <trkpt lat="45.88116" lon="1.24445">
        <ele>376.9</ele>
        <time>2024-11-29T12:40:49Z</time>
      </trkpt>
      <trkpt lat="45.8812" lon="1.24444">
        <ele>377.2</ele>
        <time>2024-11-29T12:40:50Z</time>
      </trkpt>
      <trkpt lat="45.88123" lon="1.24443">
        <ele>377.3</ele>
        <time>2024-11-29T12:40:51Z</time>
      </trkpt>
      <trkpt lat="45.88127" lon="1.24441">
        <ele>377.4</ele>
        <time>2024-11-29T12:40:52Z</time>
      </trkpt>
      <trkpt lat="45.88131" lon="1.24439">
        <ele>377.6</ele>
        <time>2024-11-29T12:40:53Z</time>
      </trkpt>
      <trkpt lat="45.88134" lon="1.24436">
        <ele>377.7</ele>
        <time>2024-11-29T12:40:54Z</time>
      </trkpt>
      <trkpt lat="45.88137" lon="1.24432">
        <ele>377.8</ele>
        <time>2024-11-29T12:40:55Z</time>
      </trkpt>
      <trkpt lat="45.8814" lon="1.24428">
        <ele>378</ele>
        <time>2024-11-29T12:40:56Z</time>
      </trkpt>
      <trkpt lat="45.88143" lon="1.24424">
        <ele>378.1</ele>
        <time>2024-11-29T12:40:57Z</time>
      </trkpt>
      <trkpt lat="45.88145" lon="1.2442">
        <ele>378.3</ele>
        <time>2024-11-29T12:40:58Z</time>
      </trkpt>
      <trkpt lat="45.88148" lon="1.24416">
        <ele>378.4</ele>
        <time>2024-11-29T12:40:59Z</time>
      </trkpt>
      <trkpt lat="45.88152" lon="1.24413">
        <ele>378.5</ele>
        <time>2024-11-29T12:41:00Z</time>
      </trkpt>
      <trkpt lat="45.88156" lon="1.24411">
        <ele>378.8</ele>
        <time>2024-11-29T12:41:01Z</time>
      </trkpt>
      <trkpt lat="45.88159" lon="1.24408">
        <ele>378.9</ele>
        <time>2024-11-29T12:41:02Z</time>
      </trkpt>
      <trkpt lat="45.88163" lon="1.24406">
        <ele>379</ele>
        <time>2024-11-29T12:41:03Z</time>
      </trkpt>
      <trkpt lat="45.88167" lon="1.24404">
        <ele>379.1</ele>
        <time>2024-11-29T12:41:04Z</time>
      </trkpt>
      <trkpt lat="45.88171" lon="1.24402">
        <ele>379.3</ele>
        <time>2024-11-29T12:41:05Z</time>
      </trkpt>
      <trkpt lat="45.88175" lon="1.24401">
        <ele>379.4</ele>
        <time>2024-11-29T12:41:06Z</time>
      </trkpt>
      <trkpt lat="45.88179" lon="1.24399">
        <ele>379.5</ele>
        <time>2024-11-29T12:41:07Z</time>
      </trkpt>
      <trkpt lat="45.88183" lon="1.24398">
        <ele>379.6</ele>
        <time>2024-11-29T12:41:08Z</time>
      </trkpt>
      <trkpt lat="45.88188" lon="1.24396">
        <ele>379.7</ele>
        <time>2024-11-29T12:41:09Z</time>
      </trkpt>
      <trkpt lat="45.88192" lon="1.24396">
        <ele>379.9</ele>
        <time>2024-11-29T12:41:10Z</time>
      </trkpt>
      <trkpt lat="45.88196" lon="1.24396">
        <ele>380</ele>
        <time>2024-11-29T12:41:11Z</time>
      </trkpt>
      <trkpt lat="45.88201" lon="1.24396">
        <ele>380.2</ele>
        <time>2024-11-29T12:41:12Z</time>
      </trkpt>
      <trkpt lat="45.88205" lon="1.24397">
        <ele>380.3</ele>
        <time>2024-11-29T12:41:13Z</time>
      </trkpt>
      <trkpt lat="45.88209" lon="1.24399">
        <ele>380.5</ele>
        <time>2024-11-29T12:41:14Z</time>
      </trkpt>
      <trkpt lat="45.88213" lon="1.244">
        <ele>380.7</ele>
        <time>2024-11-29T12:41:15Z</time>
      </trkpt>
      <trkpt lat="45.88217" lon="1.24403">
        <ele>380.9</ele>
        <time>2024-11-29T12:41:16Z</time>
      </trkpt>
      <trkpt lat="45.8822" lon="1.24406">
        <ele>381</ele>
        <time>2024-11-29T12:41:17Z</time>
      </trkpt>
      <trkpt lat="45.88223" lon="1.24409">
        <ele>381.2</ele>
        <time>2024-11-29T12:41:18Z</time>
      </trkpt>
      <trkpt lat="45.88227" lon="1.24413">
        <ele>381.3</ele>
        <time>2024-11-29T12:41:19Z</time>
      </trkpt>
      <trkpt lat="45.88231" lon="1.24417">
        <ele>381.6</ele>
        <time>2024-11-29T12:41:20Z</time>
      </trkpt>
      <trkpt lat="45.88235" lon="1.24421">
        <ele>381.7</ele>
        <time>2024-11-29T12:41:21Z</time>
      </trkpt>
      <trkpt lat="45.88239" lon="1.24425">
        <ele>381.8</ele>
        <time>2024-11-29T12:41:22Z</time>
      </trkpt>
      <trkpt lat="45.88242" lon="1.24428">
        <ele>381.9</ele>
        <time>2024-11-29T12:41:23Z</time>
      </trkpt>
      <trkpt lat="45.88245" lon="1.24431">
        <ele>382</ele>
        <time>2024-11-29T12:41:24Z</time>
      </trkpt>
      <trkpt lat="45.88248" lon="1.24432">
        <ele>382.1</ele>
        <time>2024-11-29T12:41:25Z</time>
      </trkpt>
      <trkpt lat="45.88252" lon="1.2443">
        <ele>382.3</ele>
        <time>2024-11-29T12:41:26Z</time>
      </trkpt>
      <trkpt lat="45.88255" lon="1.24427">
        <ele>382.4</ele>
        <time>2024-11-29T12:41:27Z</time>
      </trkpt>
      <trkpt lat="45.88259" lon="1.24423">
        <ele>382.5</ele>
        <time>2024-11-29T12:41:28Z</time>
      </trkpt>
      <trkpt lat="45.88262" lon="1.24418">
        <ele>382.7</ele>
        <time>2024-11-29T12:41:29Z</time>
      </trkpt>
      <trkpt lat="45.88265" lon="1.24412">
        <ele>382.8</ele>
        <time>2024-11-29T12:41:30Z</time>
      </trkpt>
      <trkpt lat="45.88268" lon="1.24407">
        <ele>382.9</ele>
        <time>2024-11-29T12:41:31Z</time>
      </trkpt>
      <trkpt lat="45.88271" lon="1.24401">
        <ele>383</ele>
        <time>2024-11-29T12:41:32Z</time>
      </trkpt>
      <trkpt lat="45.88274" lon="1.24396">
        <ele>383.1</ele>
        <time>2024-11-29T12:41:33Z</time>
      </trkpt>
      <trkpt lat="45.88277" lon="1.24391">
        <ele>383.2</ele>
        <time>2024-11-29T12:41:34Z</time>
      </trkpt>
      <trkpt lat="45.8828" lon="1.24385">
        <ele>383.2</ele>
        <time>2024-11-29T12:41:35Z</time>
      </trkpt>
      <trkpt lat="45.88284" lon="1.2438">
        <ele>383.3</ele>
        <time>2024-11-29T12:41:36Z</time>
      </trkpt>
      <trkpt lat="45.88287" lon="1.24374">
        <ele>383.3</ele>
        <time>2024-11-29T12:41:37Z</time>
      </trkpt>
      <trkpt lat="45.8829" lon="1.24369">
        <ele>383.4</ele>
        <time>2024-11-29T12:41:38Z</time>
      </trkpt>
      <trkpt lat="45.88293" lon="1.24364">
        <ele>383.4</ele>
        <time>2024-11-29T12:41:39Z</time>
      </trkpt>
      <trkpt lat="45.88297" lon="1.24359">
        <ele>383.5</ele>
        <time>2024-11-29T12:41:40Z</time>
      </trkpt>
      <trkpt lat="45.883" lon="1.24353">
        <ele>383.5</ele>
        <time>2024-11-29T12:41:41Z</time>
      </trkpt>
      <trkpt lat="45.88303" lon="1.24348">
        <ele>383.6</ele>
        <time>2024-11-29T12:41:42Z</time>
      </trkpt>
      <trkpt lat="45.88306" lon="1.24343">
        <ele>383.6</ele>
        <time>2024-11-29T12:41:43Z</time>
      </trkpt>
      <trkpt lat="45.8831" lon="1.24339">
        <ele>383.7</ele>
        <time>2024-11-29T12:41:44Z</time>
      </trkpt>
      <trkpt lat="45.88315" lon="1.24336">
        <ele>383.7</ele>
        <time>2024-11-29T12:41:45Z</time>
      </trkpt>
      <trkpt lat="45.88319" lon="1.24333">
        <ele>383.8</ele>
        <time>2024-11-29T12:41:46Z</time>
      </trkpt>
      <trkpt lat="45.88322" lon="1.2433">
        <ele>383.8</ele>
        <time>2024-11-29T12:41:47Z</time>
      </trkpt>
      <trkpt lat="45.88326" lon="1.24328">
        <ele>383.9</ele>
        <time>2024-11-29T12:41:48Z</time>
      </trkpt>
      <trkpt lat="45.88329" lon="1.24328">
        <ele>384</ele>
        <time>2024-11-29T12:41:49Z</time>
      </trkpt>
      <trkpt lat="45.88333" lon="1.24328">
        <ele>384.1</ele>
        <time>2024-11-29T12:41:51Z</time>
      </trkpt>
      <trkpt lat="45.88336" lon="1.24328">
        <ele>384.1</ele>
        <time>2024-11-29T12:41:55Z</time>
      </trkpt>
      <trkpt lat="45.8834" lon="1.2433">
        <ele>384.2</ele>
        <time>2024-11-29T12:41:57Z</time>
      </trkpt>
      <trkpt lat="45.88343" lon="1.24333">
        <ele>384.3</ele>
        <time>2024-11-29T12:41:59Z</time>
      </trkpt>
      <trkpt lat="45.88348" lon="1.24333">
        <ele>384.4</ele>
        <time>2024-11-29T12:42:01Z</time>
      </trkpt>
      <trkpt lat="45.88351" lon="1.24331">
        <ele>384.6</ele>
        <time>2024-11-29T12:42:02Z</time>
      </trkpt>
      <trkpt lat="45.88354" lon="1.24328">
        <ele>384.7</ele>
        <time>2024-11-29T12:42:03Z</time>
      </trkpt>
      <trkpt lat="45.88357" lon="1.24324">
        <ele>384.9</ele>
        <time>2024-11-29T12:42:04Z</time>
      </trkpt>
      <trkpt lat="45.8836" lon="1.24321">
        <ele>385.1</ele>
        <time>2024-11-29T12:42:05Z</time>
      </trkpt>
      <trkpt lat="45.88363" lon="1.24317">
        <ele>385.3</ele>
        <time>2024-11-29T12:42:06Z</time>
      </trkpt>
      <trkpt lat="45.88367" lon="1.24313">
        <ele>385.5</ele>
        <time>2024-11-29T12:42:07Z</time>
      </trkpt>
      <trkpt lat="45.88371" lon="1.24309">
        <ele>385.8</ele>
        <time>2024-11-29T12:42:08Z</time>
      </trkpt>
      <trkpt lat="45.88375" lon="1.24305">
        <ele>386</ele>
        <time>2024-11-29T12:42:09Z</time>
      </trkpt>
      <trkpt lat="45.88379" lon="1.24301">
        <ele>386.3</ele>
        <time>2024-11-29T12:42:10Z</time>
      </trkpt>
      <trkpt lat="45.88383" lon="1.24296">
        <ele>386.5</ele>
        <time>2024-11-29T12:42:11Z</time>
      </trkpt>
      <trkpt lat="45.88387" lon="1.24292">
        <ele>386.8</ele>
        <time>2024-11-29T12:42:12Z</time>
      </trkpt>
      <trkpt lat="45.88391" lon="1.24287">
        <ele>387.1</ele>
        <time>2024-11-29T12:42:13Z</time>
      </trkpt>
      <trkpt lat="45.88395" lon="1.24283">
        <ele>387.4</ele>
        <time>2024-11-29T12:42:14Z</time>
      </trkpt>
      <trkpt lat="45.88398" lon="1.24278">
        <ele>387.7</ele>
        <time>2024-11-29T12:42:15Z</time>
      </trkpt>
      <trkpt lat="45.88403" lon="1.24274">
        <ele>388</ele>
        <time>2024-11-29T12:42:16Z</time>
      </trkpt>
      <trkpt lat="45.88407" lon="1.24269">
        <ele>388.2</ele>
        <time>2024-11-29T12:42:17Z</time>
      </trkpt>
      <trkpt lat="45.88411" lon="1.24264">
        <ele>388.4</ele>
        <time>2024-11-29T12:42:18Z</time>
      </trkpt>
      <trkpt lat="45.88414" lon="1.24259">
        <ele>388.6</ele>
        <time>2024-11-29T12:42:19Z</time>
      </trkpt>
      <trkpt lat="45.88418" lon="1.24255">
        <ele>388.9</ele>
        <time>2024-11-29T12:42:20Z</time>
      </trkpt>
      <trkpt lat="45.88422" lon="1.2425">
        <ele>389.1</ele>
        <time>2024-11-29T12:42:21Z</time>
      </trkpt>
      <trkpt lat="45.88425" lon="1.24246">
        <ele>389.3</ele>
        <time>2024-11-29T12:42:22Z</time>
      </trkpt>
      <trkpt lat="45.88429" lon="1.24242">
        <ele>389.5</ele>
        <time>2024-11-29T12:42:23Z</time>
      </trkpt>
      <trkpt lat="45.88433" lon="1.24238">
        <ele>389.7</ele>
        <time>2024-11-29T12:42:24Z</time>
      </trkpt>
      <trkpt lat="45.88437" lon="1.24233">
        <ele>390</ele>
        <time>2024-11-29T12:42:25Z</time>
      </trkpt>
      <trkpt lat="45.88441" lon="1.24229">
        <ele>390.2</ele>
        <time>2024-11-29T12:42:26Z</time>
      </trkpt>
      <trkpt lat="45.88444" lon="1.24224">
        <ele>390.4</ele>
        <time>2024-11-29T12:42:27Z</time>
      </trkpt>
      <trkpt lat="45.88448" lon="1.24219">
        <ele>390.6</ele>
        <time>2024-11-29T12:42:28Z</time>
      </trkpt>
      <trkpt lat="45.88452" lon="1.24214">
        <ele>390.8</ele>
        <time>2024-11-29T12:42:29Z</time>
      </trkpt>
      <trkpt lat="45.88455" lon="1.2421">
        <ele>390.9</ele>
        <time>2024-11-29T12:42:30Z</time>
      </trkpt>
      <trkpt lat="45.88459" lon="1.24206">
        <ele>391</ele>
        <time>2024-11-29T12:42:31Z</time>
      </trkpt>
      <trkpt lat="45.88463" lon="1.24202">
        <ele>391.2</ele>
        <time>2024-11-29T12:42:32Z</time>
      </trkpt>
      <trkpt lat="45.88466" lon="1.24198">
        <ele>391.3</ele>
        <time>2024-11-29T12:42:33Z</time>
      </trkpt>
      <trkpt lat="45.8847" lon="1.24194">
        <ele>391.5</ele>
        <time>2024-11-29T12:42:34Z</time>
      </trkpt>
      <trkpt lat="45.88473" lon="1.24189">
        <ele>391.7</ele>
        <time>2024-11-29T12:42:35Z</time>
      </trkpt>
      <trkpt lat="45.88477" lon="1.24185">
        <ele>392</ele>
        <time>2024-11-29T12:42:36Z</time>
      </trkpt>
      <trkpt lat="45.88481" lon="1.24181">
        <ele>392.2</ele>
        <time>2024-11-29T12:42:37Z</time>
      </trkpt>
      <trkpt lat="45.88485" lon="1.24177">
        <ele>392.4</ele>
        <time>2024-11-29T12:42:38Z</time>
      </trkpt>
      <trkpt lat="45.88489" lon="1.24172">
        <ele>392.7</ele>
        <time>2024-11-29T12:42:39Z</time>
      </trkpt>
      <trkpt lat="45.88493" lon="1.24168">
        <ele>392.9</ele>
        <time>2024-11-29T12:42:40Z</time>
      </trkpt>
      <trkpt lat="45.88496" lon="1.24164">
        <ele>393.1</ele>
        <time>2024-11-29T12:42:41Z</time>
      </trkpt>
      <trkpt lat="45.885" lon="1.2416">
        <ele>393.4</ele>
        <time>2024-11-29T12:42:42Z</time>
      </trkpt>
      <trkpt lat="45.88504" lon="1.24156">
        <ele>393.6</ele>
        <time>2024-11-29T12:42:43Z</time>
      </trkpt>
      <trkpt lat="45.88508" lon="1.24151">
        <ele>393.8</ele>
        <time>2024-11-29T12:42:44Z</time>
      </trkpt>
      <trkpt lat="45.88511" lon="1.24147">
        <ele>394</ele>
        <time>2024-11-29T12:42:45Z</time>
      </trkpt>
      <trkpt lat="45.88515" lon="1.24142">
        <ele>394.2</ele>
        <time>2024-11-29T12:42:46Z</time>
      </trkpt>
      <trkpt lat="45.88518" lon="1.24138">
        <ele>394.4</ele>
        <time>2024-11-29T12:42:47Z</time>
      </trkpt>
      <trkpt lat="45.88522" lon="1.24133">
        <ele>394.6</ele>
        <time>2024-11-29T12:42:48Z</time>
      </trkpt>
      <trkpt lat="45.88525" lon="1.24129">
        <ele>394.8</ele>
        <time>2024-11-29T12:42:49Z</time>
      </trkpt>
      <trkpt lat="45.88528" lon="1.24124">
        <ele>394.9</ele>
        <time>2024-11-29T12:42:50Z</time>
      </trkpt>
      <trkpt lat="45.88532" lon="1.24119">
        <ele>395.1</ele>
        <time>2024-11-29T12:42:51Z</time>
      </trkpt>
      <trkpt lat="45.88535" lon="1.24114">
        <ele>395.3</ele>
        <time>2024-11-29T12:42:52Z</time>
      </trkpt>
      <trkpt lat="45.88539" lon="1.2411">
        <ele>395.5</ele>
        <time>2024-11-29T12:42:53Z</time>
      </trkpt>
      <trkpt lat="45.88543" lon="1.24105">
        <ele>395.6</ele>
        <time>2024-11-29T12:42:54Z</time>
      </trkpt>
      <trkpt lat="45.88547" lon="1.24102">
        <ele>395.8</ele>
        <time>2024-11-29T12:42:55Z</time>
      </trkpt>
      <trkpt lat="45.88551" lon="1.24098">
        <ele>395.9</ele>
        <time>2024-11-29T12:42:56Z</time>
      </trkpt>
      <trkpt lat="45.88554" lon="1.24093">
        <ele>396.1</ele>
        <time>2024-11-29T12:42:57Z</time>
      </trkpt>
      <trkpt lat="45.88558" lon="1.24089">
        <ele>396.2</ele>
        <time>2024-11-29T12:42:58Z</time>
      </trkpt>
      <trkpt lat="45.88563" lon="1.24084">
        <ele>396.3</ele>
        <time>2024-11-29T12:42:59Z</time>
      </trkpt>
      <trkpt lat="45.88567" lon="1.2408">
        <ele>396.5</ele>
        <time>2024-11-29T12:43:00Z</time>
      </trkpt>
      <trkpt lat="45.88571" lon="1.24076">
        <ele>396.6</ele>
        <time>2024-11-29T12:43:01Z</time>
      </trkpt>
      <trkpt lat="45.88576" lon="1.24071">
        <ele>396.7</ele>
        <time>2024-11-29T12:43:02Z</time>
      </trkpt>
      <trkpt lat="45.8858" lon="1.24067">
        <ele>396.8</ele>
        <time>2024-11-29T12:43:03Z</time>
      </trkpt>
      <trkpt lat="45.88584" lon="1.24062">
        <ele>396.9</ele>
        <time>2024-11-29T12:43:04Z</time>
      </trkpt>
      <trkpt lat="45.88589" lon="1.24057">
        <ele>396.9</ele>
        <time>2024-11-29T12:43:05Z</time>
      </trkpt>
      <trkpt lat="45.88593" lon="1.24052">
        <ele>396.9</ele>
        <time>2024-11-29T12:43:06Z</time>
      </trkpt>
      <trkpt lat="45.88596" lon="1.24047">
        <ele>396.9</ele>
        <time>2024-11-29T12:43:07Z</time>
      </trkpt>
      <trkpt lat="45.886" lon="1.24042">
        <ele>396.9</ele>
        <time>2024-11-29T12:43:08Z</time>
      </trkpt>
      <trkpt lat="45.88604" lon="1.24037">
        <ele>396.9</ele>
        <time>2024-11-29T12:43:09Z</time>
      </trkpt>
      <trkpt lat="45.88608" lon="1.24032">
        <ele>396.8</ele>
        <time>2024-11-29T12:43:10Z</time>
      </trkpt>
      <trkpt lat="45.88613" lon="1.24026">
        <ele>396.7</ele>
        <time>2024-11-29T12:43:11Z</time>
      </trkpt>
      <trkpt lat="45.88617" lon="1.2402">
        <ele>396.6</ele>
        <time>2024-11-29T12:43:12Z</time>
      </trkpt>
      <trkpt lat="45.88621" lon="1.24014">
        <ele>396.5</ele>
        <time>2024-11-29T12:43:13Z</time>
      </trkpt>
      <trkpt lat="45.88625" lon="1.24007">
        <ele>396.3</ele>
        <time>2024-11-29T12:43:14Z</time>
      </trkpt>
      <trkpt lat="45.88628" lon="1.23999">
        <ele>396.1</ele>
        <time>2024-11-29T12:43:15Z</time>
      </trkpt>
      <trkpt lat="45.88631" lon="1.23991">
        <ele>396</ele>
        <time>2024-11-29T12:43:16Z</time>
      </trkpt>
      <trkpt lat="45.88633" lon="1.23983">
        <ele>395.8</ele>
        <time>2024-11-29T12:43:17Z</time>
      </trkpt>
      <trkpt lat="45.88635" lon="1.23974">
        <ele>395.6</ele>
        <time>2024-11-29T12:43:18Z</time>
      </trkpt>
      <trkpt lat="45.88637" lon="1.23965">
        <ele>395.4</ele>
        <time>2024-11-29T12:43:19Z</time>
      </trkpt>
      <trkpt lat="45.88639" lon="1.23956">
        <ele>395.2</ele>
        <time>2024-11-29T12:43:20Z</time>
      </trkpt>
      <trkpt lat="45.8864" lon="1.23947">
        <ele>395.1</ele>
        <time>2024-11-29T12:43:21Z</time>
      </trkpt>
      <trkpt lat="45.88642" lon="1.23938">
        <ele>394.9</ele>
        <time>2024-11-29T12:43:22Z</time>
      </trkpt>
      <trkpt lat="45.88644" lon="1.2393">
        <ele>394.7</ele>
        <time>2024-11-29T12:43:23Z</time>
      </trkpt>
      <trkpt lat="45.88646" lon="1.23922">
        <ele>394.6</ele>
        <time>2024-11-29T12:43:24Z</time>
      </trkpt>
      <trkpt lat="45.88647" lon="1.23914">
        <ele>394.5</ele>
        <time>2024-11-29T12:43:25Z</time>
      </trkpt>
      <trkpt lat="45.88649" lon="1.23906">
        <ele>394.4</ele>
        <time>2024-11-29T12:43:26Z</time>
      </trkpt>
      <trkpt lat="45.88651" lon="1.23898">
        <ele>394.3</ele>
        <time>2024-11-29T12:43:27Z</time>
      </trkpt>
      <trkpt lat="45.88654" lon="1.23891">
        <ele>394.2</ele>
        <time>2024-11-29T12:43:28Z</time>
      </trkpt>
      <trkpt lat="45.88657" lon="1.23885">
        <ele>394.2</ele>
        <time>2024-11-29T12:43:29Z</time>
      </trkpt>
      <trkpt lat="45.88662" lon="1.23881">
        <ele>394.2</ele>
        <time>2024-11-29T12:43:30Z</time>
      </trkpt>
      <trkpt lat="45.88667" lon="1.23878">
        <ele>394.2</ele>
        <time>2024-11-29T12:43:31Z</time>
      </trkpt>
      <trkpt lat="45.88671" lon="1.23875">
        <ele>394.2</ele>
        <time>2024-11-29T12:43:32Z</time>
      </trkpt>
      <trkpt lat="45.88675" lon="1.23871">
        <ele>394.2</ele>
        <time>2024-11-29T12:43:33Z</time>
      </trkpt>
      <trkpt lat="45.88677" lon="1.23864">
        <ele>394.1</ele>
        <time>2024-11-29T12:43:34Z</time>
      </trkpt>
      <trkpt lat="45.88678" lon="1.23857">
        <ele>394</ele>
        <time>2024-11-29T12:43:35Z</time>
      </trkpt>
      <trkpt lat="45.88678" lon="1.23849">
        <ele>394</ele>
        <time>2024-11-29T12:43:36Z</time>
      </trkpt>
      <trkpt lat="45.88678" lon="1.23841">
        <ele>393.9</ele>
        <time>2024-11-29T12:43:37Z</time>
      </trkpt>
      <trkpt lat="45.8868" lon="1.23835">
        <ele>393.9</ele>
        <time>2024-11-29T12:43:38Z</time>
      </trkpt>
      <trkpt lat="45.88682" lon="1.23828">
        <ele>393.9</ele>
        <time>2024-11-29T12:43:39Z</time>
      </trkpt>
      <trkpt lat="45.88686" lon="1.23824">
        <ele>393.9</ele>
        <time>2024-11-29T12:43:40Z</time>
      </trkpt>
      <trkpt lat="45.88691" lon="1.23821">
        <ele>393.9</ele>
        <time>2024-11-29T12:43:41Z</time>
      </trkpt>
      <trkpt lat="45.88696" lon="1.23818">
        <ele>393.9</ele>
        <time>2024-11-29T12:43:42Z</time>
      </trkpt>
      <trkpt lat="45.88702" lon="1.23815">
        <ele>393.9</ele>
        <time>2024-11-29T12:43:43Z</time>
      </trkpt>
      <trkpt lat="45.88707" lon="1.23812">
        <ele>394</ele>
        <time>2024-11-29T12:43:44Z</time>
      </trkpt>
      <trkpt lat="45.88712" lon="1.2381">
        <ele>394</ele>
        <time>2024-11-29T12:43:45Z</time>
      </trkpt>
      <trkpt lat="45.88716" lon="1.23807">
        <ele>394.1</ele>
        <time>2024-11-29T12:43:46Z</time>
      </trkpt>
      <trkpt lat="45.88721" lon="1.23804">
        <ele>394.2</ele>
        <time>2024-11-29T12:43:47Z</time>
      </trkpt>
      <trkpt lat="45.88725" lon="1.23802">
        <ele>394.3</ele>
        <time>2024-11-29T12:43:48Z</time>
      </trkpt>
      <trkpt lat="45.88729" lon="1.23801">
        <ele>394.4</ele>
        <time>2024-11-29T12:43:49Z</time>
      </trkpt>
      <trkpt lat="45.88733" lon="1.23799">
        <ele>394.5</ele>
        <time>2024-11-29T12:43:50Z</time>
      </trkpt>
      <trkpt lat="45.88735" lon="1.23796">
        <ele>394.5</ele>
        <time>2024-11-29T12:43:51Z</time>
      </trkpt>
      <trkpt lat="45.88738" lon="1.23794">
        <ele>394.6</ele>
        <time>2024-11-29T12:43:52Z</time>
      </trkpt>
      <trkpt lat="45.8874" lon="1.23792">
        <ele>394.7</ele>
        <time>2024-11-29T12:43:53Z</time>
      </trkpt>
      <trkpt lat="45.88744" lon="1.2379">
        <ele>394.8</ele>
        <time>2024-11-29T12:43:55Z</time>
      </trkpt>
      <trkpt lat="45.88746" lon="1.23788">
        <ele>394.8</ele>
        <time>2024-11-29T12:43:56Z</time>
      </trkpt>
      <trkpt lat="45.8875" lon="1.23787">
        <ele>394.9</ele>
        <time>2024-11-29T12:43:57Z</time>
      </trkpt>
      <trkpt lat="45.88753" lon="1.23785">
        <ele>394.9</ele>
        <time>2024-11-29T12:43:58Z</time>
      </trkpt>
      <trkpt lat="45.88757" lon="1.23784">
        <ele>395</ele>
        <time>2024-11-29T12:43:59Z</time>
      </trkpt>
      <trkpt lat="45.88763" lon="1.23782">
        <ele>395.1</ele>
        <time>2024-11-29T12:44:00Z</time>
      </trkpt>
      <trkpt lat="45.88768" lon="1.2378">
        <ele>395.2</ele>
        <time>2024-11-29T12:44:01Z</time>
      </trkpt>
      <trkpt lat="45.88773" lon="1.23778">
        <ele>395.4</ele>
        <time>2024-11-29T12:44:02Z</time>
      </trkpt>
      <trkpt lat="45.88778" lon="1.23775">
        <ele>395.5</ele>
        <time>2024-11-29T12:44:03Z</time>
      </trkpt>
      <trkpt lat="45.88783" lon="1.23774">
        <ele>395.7</ele>
        <time>2024-11-29T12:44:04Z</time>
      </trkpt>
      <trkpt lat="45.88788" lon="1.23772">
        <ele>395.8</ele>
        <time>2024-11-29T12:44:05Z</time>
      </trkpt>
      <trkpt lat="45.88793" lon="1.23772">
        <ele>396</ele>
        <time>2024-11-29T12:44:06Z</time>
      </trkpt>
      <trkpt lat="45.88798" lon="1.2377">
        <ele>396.2</ele>
        <time>2024-11-29T12:44:07Z</time>
      </trkpt>
      <trkpt lat="45.88802" lon="1.23769">
        <ele>396.3</ele>
        <time>2024-11-29T12:44:08Z</time>
      </trkpt>
      <trkpt lat="45.88806" lon="1.23768">
        <ele>396.4</ele>
        <time>2024-11-29T12:44:09Z</time>
      </trkpt>
      <trkpt lat="45.88811" lon="1.23766">
        <ele>396.6</ele>
        <time>2024-11-29T12:44:10Z</time>
      </trkpt>
      <trkpt lat="45.88815" lon="1.23764">
        <ele>396.7</ele>
        <time>2024-11-29T12:44:11Z</time>
      </trkpt>
      <trkpt lat="45.8882" lon="1.23761">
        <ele>396.8</ele>
        <time>2024-11-29T12:44:12Z</time>
      </trkpt>
      <trkpt lat="45.88825" lon="1.23758">
        <ele>397</ele>
        <time>2024-11-29T12:44:13Z</time>
      </trkpt>
      <trkpt lat="45.8883" lon="1.23755">
        <ele>397.1</ele>
        <time>2024-11-29T12:44:14Z</time>
      </trkpt>
      <trkpt lat="45.88835" lon="1.23752">
        <ele>397.3</ele>
        <time>2024-11-29T12:44:15Z</time>
      </trkpt>
      <trkpt lat="45.8884" lon="1.23749">
        <ele>397.4</ele>
        <time>2024-11-29T12:44:16Z</time>
      </trkpt>
      <trkpt lat="45.88845" lon="1.23747">
        <ele>397.6</ele>
        <time>2024-11-29T12:44:17Z</time>
      </trkpt>
      <trkpt lat="45.8885" lon="1.23745">
        <ele>397.7</ele>
        <time>2024-11-29T12:44:18Z</time>
      </trkpt>
      <trkpt lat="45.88854" lon="1.23743">
        <ele>397.8</ele>
        <time>2024-11-29T12:44:19Z</time>
      </trkpt>
      <trkpt lat="45.88859" lon="1.23741">
        <ele>398</ele>
        <time>2024-11-29T12:44:20Z</time>
      </trkpt>
      <trkpt lat="45.88863" lon="1.23738">
        <ele>398.1</ele>
        <time>2024-11-29T12:44:21Z</time>
      </trkpt>
      <trkpt lat="45.88868" lon="1.23737">
        <ele>398.2</ele>
        <time>2024-11-29T12:44:22Z</time>
      </trkpt>
      <trkpt lat="45.88873" lon="1.23734">
        <ele>398.3</ele>
        <time>2024-11-29T12:44:23Z</time>
      </trkpt>
      <trkpt lat="45.88877" lon="1.23732">
        <ele>398.4</ele>
        <time>2024-11-29T12:44:24Z</time>
      </trkpt>
      <trkpt lat="45.88882" lon="1.2373">
        <ele>398.5</ele>
        <time>2024-11-29T12:44:25Z</time>
      </trkpt>
      <trkpt lat="45.88887" lon="1.23728">
        <ele>398.6</ele>
        <time>2024-11-29T12:44:26Z</time>
      </trkpt>
      <trkpt lat="45.88891" lon="1.23726">
        <ele>398.7</ele>
        <time>2024-11-29T12:44:27Z</time>
      </trkpt>
      <trkpt lat="45.88896" lon="1.23724">
        <ele>398.7</ele>
        <time>2024-11-29T12:44:28Z</time>
      </trkpt>
      <trkpt lat="45.88901" lon="1.23721">
        <ele>398.8</ele>
        <time>2024-11-29T12:44:29Z</time>
      </trkpt>
      <trkpt lat="45.88907" lon="1.23719">
        <ele>399</ele>
        <time>2024-11-29T12:44:30Z</time>
      </trkpt>
      <trkpt lat="45.88911" lon="1.23716">
        <ele>399</ele>
        <time>2024-11-29T12:44:31Z</time>
      </trkpt>
      <trkpt lat="45.88916" lon="1.23713">
        <ele>399.1</ele>
        <time>2024-11-29T12:44:32Z</time>
      </trkpt>
      <trkpt lat="45.88921" lon="1.2371">
        <ele>399.2</ele>
        <time>2024-11-29T12:44:33Z</time>
      </trkpt>
      <trkpt lat="45.88926" lon="1.23707">
        <ele>399.3</ele>
        <time>2024-11-29T12:44:34Z</time>
      </trkpt>
      <trkpt lat="45.88931" lon="1.23704">
        <ele>399.3</ele>
        <time>2024-11-29T12:44:35Z</time>
      </trkpt>
      <trkpt lat="45.88936" lon="1.23701">
        <ele>399.4</ele>
        <time>2024-11-29T12:44:36Z</time>
      </trkpt>
      <trkpt lat="45.88941" lon="1.23698">
        <ele>399.4</ele>
        <time>2024-11-29T12:44:37Z</time>
      </trkpt>
      <trkpt lat="45.88945" lon="1.23694">
        <ele>399.5</ele>
        <time>2024-11-29T12:44:38Z</time>
      </trkpt>
      <trkpt lat="45.8895" lon="1.23691">
        <ele>399.5</ele>
        <time>2024-11-29T12:44:39Z</time>
      </trkpt>
      <trkpt lat="45.88954" lon="1.23688">
        <ele>399.6</ele>
        <time>2024-11-29T12:44:40Z</time>
      </trkpt>
      <trkpt lat="45.88958" lon="1.23686">
        <ele>399.6</ele>
        <time>2024-11-29T12:44:41Z</time>
      </trkpt>
      <trkpt lat="45.88962" lon="1.23683">
        <ele>399.6</ele>
        <time>2024-11-29T12:44:42Z</time>
      </trkpt>
      <trkpt lat="45.88966" lon="1.23681">
        <ele>399.7</ele>
        <time>2024-11-29T12:44:43Z</time>
      </trkpt>
      <trkpt lat="45.8897" lon="1.23678">
        <ele>399.7</ele>
        <time>2024-11-29T12:44:44Z</time>
      </trkpt>
      <trkpt lat="45.88974" lon="1.23675">
        <ele>399.7</ele>
        <time>2024-11-29T12:44:45Z</time>
      </trkpt>
      <trkpt lat="45.88978" lon="1.23671">
        <ele>399.7</ele>
        <time>2024-11-29T12:44:46Z</time>
      </trkpt>
      <trkpt lat="45.88982" lon="1.23667">
        <ele>399.7</ele>
        <time>2024-11-29T12:44:47Z</time>
      </trkpt>
      <trkpt lat="45.88986" lon="1.23663">
        <ele>399.7</ele>
        <time>2024-11-29T12:44:48Z</time>
      </trkpt>
      <trkpt lat="45.88991" lon="1.23659">
        <ele>399.6</ele>
        <time>2024-11-29T12:44:49Z</time>
      </trkpt>
      <trkpt lat="45.88995" lon="1.23655">
        <ele>399.5</ele>
        <time>2024-11-29T12:44:50Z</time>
      </trkpt>
      <trkpt lat="45.89" lon="1.2365">
        <ele>399.4</ele>
        <time>2024-11-29T12:44:51Z</time>
      </trkpt>
      <trkpt lat="45.89006" lon="1.23646">
        <ele>399.3</ele>
        <time>2024-11-29T12:44:52Z</time>
      </trkpt>
      <trkpt lat="45.89012" lon="1.23643">
        <ele>399.2</ele>
        <time>2024-11-29T12:44:53Z</time>
      </trkpt>
      <trkpt lat="45.89018" lon="1.23639">
        <ele>399.1</ele>
        <time>2024-11-29T12:44:54Z</time>
      </trkpt>
      <trkpt lat="45.89024" lon="1.23636">
        <ele>399</ele>
        <time>2024-11-29T12:44:55Z</time>
      </trkpt>
      <trkpt lat="45.8903" lon="1.23633">
        <ele>398.8</ele>
        <time>2024-11-29T12:44:56Z</time>
      </trkpt>
      <trkpt lat="45.89036" lon="1.23629">
        <ele>398.7</ele>
        <time>2024-11-29T12:44:57Z</time>
      </trkpt>
      <trkpt lat="45.89043" lon="1.23626">
        <ele>398.5</ele>
        <time>2024-11-29T12:44:58Z</time>
      </trkpt>
      <trkpt lat="45.89049" lon="1.23623">
        <ele>398.4</ele>
        <time>2024-11-29T12:44:59Z</time>
      </trkpt>
      <trkpt lat="45.89055" lon="1.2362">
        <ele>398.2</ele>
        <time>2024-11-29T12:45:00Z</time>
      </trkpt>
      <trkpt lat="45.89061" lon="1.23617">
        <ele>398.1</ele>
        <time>2024-11-29T12:45:01Z</time>
      </trkpt>
      <trkpt lat="45.89067" lon="1.23614">
        <ele>398</ele>
        <time>2024-11-29T12:45:02Z</time>
      </trkpt>
      <trkpt lat="45.89073" lon="1.2361">
        <ele>397.8</ele>
        <time>2024-11-29T12:45:03Z</time>
      </trkpt>
      <trkpt lat="45.89078" lon="1.23607">
        <ele>397.7</ele>
        <time>2024-11-29T12:45:04Z</time>
      </trkpt>
      <trkpt lat="45.89084" lon="1.23603">
        <ele>397.6</ele>
        <time>2024-11-29T12:45:05Z</time>
      </trkpt>
      <trkpt lat="45.89089" lon="1.23599">
        <ele>397.5</ele>
        <time>2024-11-29T12:45:06Z</time>
      </trkpt>
      <trkpt lat="45.89095" lon="1.23596">
        <ele>397.4</ele>
        <time>2024-11-29T12:45:07Z</time>
      </trkpt>
      <trkpt lat="45.891" lon="1.23594">
        <ele>397.3</ele>
        <time>2024-11-29T12:45:08Z</time>
      </trkpt>
      <trkpt lat="45.89104" lon="1.23592">
        <ele>397.3</ele>
        <time>2024-11-29T12:45:09Z</time>
      </trkpt>
      <trkpt lat="45.89108" lon="1.23591">
        <ele>397.2</ele>
        <time>2024-11-29T12:45:10Z</time>
      </trkpt>
      <trkpt lat="45.89113" lon="1.2359">
        <ele>397.2</ele>
        <time>2024-11-29T12:45:12Z</time>
      </trkpt>
      <trkpt lat="45.89117" lon="1.23589">
        <ele>397.1</ele>
        <time>2024-11-29T12:45:13Z</time>
      </trkpt>
      <trkpt lat="45.8912" lon="1.23587">
        <ele>397.1</ele>
        <time>2024-11-29T12:45:14Z</time>
      </trkpt>
      <trkpt lat="45.89123" lon="1.23586">
        <ele>397</ele>
        <time>2024-11-29T12:45:15Z</time>
      </trkpt>
      <trkpt lat="45.89126" lon="1.23584">
        <ele>396.9</ele>
        <time>2024-11-29T12:45:16Z</time>
      </trkpt>
      <trkpt lat="45.8913" lon="1.23582">
        <ele>396.8</ele>
        <time>2024-11-29T12:45:17Z</time>
      </trkpt>
      <trkpt lat="45.89134" lon="1.23581">
        <ele>396.7</ele>
        <time>2024-11-29T12:45:18Z</time>
      </trkpt>
      <trkpt lat="45.89137" lon="1.23579">
        <ele>396.7</ele>
        <time>2024-11-29T12:45:19Z</time>
      </trkpt>
      <trkpt lat="45.8914" lon="1.23578">
        <ele>396.6</ele>
        <time>2024-11-29T12:45:20Z</time>
      </trkpt>
      <trkpt lat="45.89144" lon="1.23576">
        <ele>396.5</ele>
        <time>2024-11-29T12:45:21Z</time>
      </trkpt>
      <trkpt lat="45.89147" lon="1.23574">
        <ele>396.5</ele>
        <time>2024-11-29T12:45:22Z</time>
      </trkpt>
      <trkpt lat="45.89151" lon="1.23571">
        <ele>396.4</ele>
        <time>2024-11-29T12:45:23Z</time>
      </trkpt>
      <trkpt lat="45.89155" lon="1.23568">
        <ele>396.3</ele>
        <time>2024-11-29T12:45:24Z</time>
      </trkpt>
      <trkpt lat="45.89159" lon="1.23565">
        <ele>396.2</ele>
        <time>2024-11-29T12:45:25Z</time>
      </trkpt>
      <trkpt lat="45.89164" lon="1.23562">
        <ele>396.1</ele>
        <time>2024-11-29T12:45:26Z</time>
      </trkpt>
      <trkpt lat="45.89168" lon="1.23559">
        <ele>396.1</ele>
        <time>2024-11-29T12:45:27Z</time>
      </trkpt>
      <trkpt lat="45.89172" lon="1.23555">
        <ele>396</ele>
        <time>2024-11-29T12:45:28Z</time>
      </trkpt>
      <trkpt lat="45.89177" lon="1.23554">
        <ele>396</ele>
        <time>2024-11-29T12:45:29Z</time>
      </trkpt>
      <trkpt lat="45.89183" lon="1.23553">
        <ele>395.9</ele>
        <time>2024-11-29T12:45:30Z</time>
      </trkpt>
      <trkpt lat="45.89188" lon="1.23551">
        <ele>395.9</ele>
        <time>2024-11-29T12:45:31Z</time>
      </trkpt>
      <trkpt lat="45.89193" lon="1.23548">
        <ele>395.9</ele>
        <time>2024-11-29T12:45:32Z</time>
      </trkpt>
      <trkpt lat="45.89199" lon="1.23545">
        <ele>395.9</ele>
        <time>2024-11-29T12:45:33Z</time>
      </trkpt>
      <trkpt lat="45.89204" lon="1.23543">
        <ele>395.9</ele>
        <time>2024-11-29T12:45:34Z</time>
      </trkpt>
      <trkpt lat="45.89209" lon="1.23539">
        <ele>395.9</ele>
        <time>2024-11-29T12:45:35Z</time>
      </trkpt>
      <trkpt lat="45.89214" lon="1.23536">
        <ele>395.8</ele>
        <time>2024-11-29T12:45:36Z</time>
      </trkpt>
      <trkpt lat="45.8922" lon="1.23533">
        <ele>395.8</ele>
        <time>2024-11-29T12:45:37Z</time>
      </trkpt>
      <trkpt lat="45.89225" lon="1.2353">
        <ele>395.8</ele>
        <time>2024-11-29T12:45:38Z</time>
      </trkpt>
      <trkpt lat="45.8923" lon="1.23527">
        <ele>395.8</ele>
        <time>2024-11-29T12:45:39Z</time>
      </trkpt>
      <trkpt lat="45.89235" lon="1.23524">
        <ele>395.8</ele>
        <time>2024-11-29T12:45:40Z</time>
      </trkpt>
      <trkpt lat="45.8924" lon="1.23521">
        <ele>395.7</ele>
        <time>2024-11-29T12:45:41Z</time>
      </trkpt>
      <trkpt lat="45.89245" lon="1.23518">
        <ele>395.7</ele>
        <time>2024-11-29T12:45:42Z</time>
      </trkpt>
      <trkpt lat="45.8925" lon="1.23515">
        <ele>395.7</ele>
        <time>2024-11-29T12:45:43Z</time>
      </trkpt>
      <trkpt lat="45.89255" lon="1.23511">
        <ele>395.7</ele>
        <time>2024-11-29T12:45:44Z</time>
      </trkpt>
      <trkpt lat="45.8926" lon="1.23507">
        <ele>395.7</ele>
        <time>2024-11-29T12:45:45Z</time>
      </trkpt>
      <trkpt lat="45.89265" lon="1.23503">
        <ele>395.7</ele>
        <time>2024-11-29T12:45:46Z</time>
      </trkpt>
      <trkpt lat="45.8927" lon="1.235">
        <ele>395.6</ele>
        <time>2024-11-29T12:45:47Z</time>
      </trkpt>
      <trkpt lat="45.89275" lon="1.23496">
        <ele>395.6</ele>
        <time>2024-11-29T12:45:48Z</time>
      </trkpt>
      <trkpt lat="45.8928" lon="1.23494">
        <ele>395.6</ele>
        <time>2024-11-29T12:45:49Z</time>
      </trkpt>
      <trkpt lat="45.89286" lon="1.2349">
        <ele>395.6</ele>
        <time>2024-11-29T12:45:50Z</time>
      </trkpt>
      <trkpt lat="45.89291" lon="1.23486">
        <ele>395.7</ele>
        <time>2024-11-29T12:45:51Z</time>
      </trkpt>
      <trkpt lat="45.89296" lon="1.23482">
        <ele>395.7</ele>
        <time>2024-11-29T12:45:52Z</time>
      </trkpt>
      <trkpt lat="45.89301" lon="1.23477">
        <ele>395.7</ele>
        <time>2024-11-29T12:45:53Z</time>
      </trkpt>
      <trkpt lat="45.89306" lon="1.23474">
        <ele>395.7</ele>
        <time>2024-11-29T12:45:54Z</time>
      </trkpt>
      <trkpt lat="45.89312" lon="1.2347">
        <ele>395.8</ele>
        <time>2024-11-29T12:45:55Z</time>
      </trkpt>
      <trkpt lat="45.89317" lon="1.23467">
        <ele>395.8</ele>
        <time>2024-11-29T12:45:56Z</time>
      </trkpt>
      <trkpt lat="45.89322" lon="1.23465">
        <ele>395.8</ele>
        <time>2024-11-29T12:45:57Z</time>
      </trkpt>
      <trkpt lat="45.89328" lon="1.23462">
        <ele>395.8</ele>
        <time>2024-11-29T12:45:58Z</time>
      </trkpt>
      <trkpt lat="45.89333" lon="1.23459">
        <ele>395.9</ele>
        <time>2024-11-29T12:45:59Z</time>
      </trkpt>
      <trkpt lat="45.89337" lon="1.23455">
        <ele>395.9</ele>
        <time>2024-11-29T12:46:00Z</time>
      </trkpt>
      <trkpt lat="45.89342" lon="1.23452">
        <ele>395.9</ele>
        <time>2024-11-29T12:46:01Z</time>
      </trkpt>
      <trkpt lat="45.89347" lon="1.23448">
        <ele>395.9</ele>
        <time>2024-11-29T12:46:02Z</time>
      </trkpt>
      <trkpt lat="45.89353" lon="1.23445">
        <ele>395.9</ele>
        <time>2024-11-29T12:46:03Z</time>
      </trkpt>
      <trkpt lat="45.89358" lon="1.23441">
        <ele>395.9</ele>
        <time>2024-11-29T12:46:04Z</time>
      </trkpt>
      <trkpt lat="45.89363" lon="1.23438">
        <ele>396</ele>
        <time>2024-11-29T12:46:05Z</time>
      </trkpt>
      <trkpt lat="45.89369" lon="1.23436">
        <ele>396</ele>
        <time>2024-11-29T12:46:06Z</time>
      </trkpt>
      <trkpt lat="45.89375" lon="1.23435">
        <ele>396.1</ele>
        <time>2024-11-29T12:46:07Z</time>
      </trkpt>
      <trkpt lat="45.89381" lon="1.23434">
        <ele>396.1</ele>
        <time>2024-11-29T12:46:08Z</time>
      </trkpt>
      <trkpt lat="45.89386" lon="1.23433">
        <ele>396.1</ele>
        <time>2024-11-29T12:46:09Z</time>
      </trkpt>
      <trkpt lat="45.89392" lon="1.23433">
        <ele>396.1</ele>
        <time>2024-11-29T12:46:10Z</time>
      </trkpt>
      <trkpt lat="45.89397" lon="1.23433">
        <ele>396.1</ele>
        <time>2024-11-29T12:46:11Z</time>
      </trkpt>
      <trkpt lat="45.89404" lon="1.23433">
        <ele>395.9</ele>
        <time>2024-11-29T12:46:12Z</time>
      </trkpt>
      <trkpt lat="45.89409" lon="1.23432">
        <ele>395.8</ele>
        <time>2024-11-29T12:46:13Z</time>
      </trkpt>
      <trkpt lat="45.89415" lon="1.23432">
        <ele>395.7</ele>
        <time>2024-11-29T12:46:14Z</time>
      </trkpt>
      <trkpt lat="45.89422" lon="1.23431">
        <ele>395.4</ele>
        <time>2024-11-29T12:46:15Z</time>
      </trkpt>
      <trkpt lat="45.89428" lon="1.2343">
        <ele>395.2</ele>
        <time>2024-11-29T12:46:16Z</time>
      </trkpt>
      <trkpt lat="45.89434" lon="1.23429">
        <ele>394.9</ele>
        <time>2024-11-29T12:46:17Z</time>
      </trkpt>
      <trkpt lat="45.89439" lon="1.23427">
        <ele>394.7</ele>
        <time>2024-11-29T12:46:18Z</time>
      </trkpt>
      <trkpt lat="45.89444" lon="1.23425">
        <ele>394.5</ele>
        <time>2024-11-29T12:46:19Z</time>
      </trkpt>
      <trkpt lat="45.8945" lon="1.23424">
        <ele>394.2</ele>
        <time>2024-11-29T12:46:20Z</time>
      </trkpt>
      <trkpt lat="45.89455" lon="1.23423">
        <ele>394</ele>
        <time>2024-11-29T12:46:21Z</time>
      </trkpt>
      <trkpt lat="45.89462" lon="1.23422">
        <ele>393.8</ele>
        <time>2024-11-29T12:46:22Z</time>
      </trkpt>
      <trkpt lat="45.89468" lon="1.2342">
        <ele>393.5</ele>
        <time>2024-11-29T12:46:23Z</time>
      </trkpt>
      <trkpt lat="45.89472" lon="1.23418">
        <ele>393.4</ele>
        <time>2024-11-29T12:46:24Z</time>
      </trkpt>
      <trkpt lat="45.89477" lon="1.23416">
        <ele>393.2</ele>
        <time>2024-11-29T12:46:25Z</time>
      </trkpt>
      <trkpt lat="45.89482" lon="1.23415">
        <ele>393</ele>
        <time>2024-11-29T12:46:26Z</time>
      </trkpt>
      <trkpt lat="45.89488" lon="1.23413">
        <ele>392.8</ele>
        <time>2024-11-29T12:46:27Z</time>
      </trkpt>
      <trkpt lat="45.89494" lon="1.23411">
        <ele>392.7</ele>
        <time>2024-11-29T12:46:28Z</time>
      </trkpt>
      <trkpt lat="45.89501" lon="1.23409">
        <ele>392.5</ele>
        <time>2024-11-29T12:46:29Z</time>
      </trkpt>
      <trkpt lat="45.89507" lon="1.23407">
        <ele>392.4</ele>
        <time>2024-11-29T12:46:30Z</time>
      </trkpt>
      <trkpt lat="45.89514" lon="1.23406">
        <ele>392.2</ele>
        <time>2024-11-29T12:46:31Z</time>
      </trkpt>
      <trkpt lat="45.8952" lon="1.23408">
        <ele>392.1</ele>
        <time>2024-11-29T12:46:32Z</time>
      </trkpt>
      <trkpt lat="45.89527" lon="1.23409">
        <ele>392</ele>
        <time>2024-11-29T12:46:33Z</time>
      </trkpt>
      <trkpt lat="45.89533" lon="1.23411">
        <ele>391.9</ele>
        <time>2024-11-29T12:46:34Z</time>
      </trkpt>
      <trkpt lat="45.89539" lon="1.23413">
        <ele>391.8</ele>
        <time>2024-11-29T12:46:35Z</time>
      </trkpt>
      <trkpt lat="45.89546" lon="1.23415">
        <ele>391.6</ele>
        <time>2024-11-29T12:46:36Z</time>
      </trkpt>
      <trkpt lat="45.8955" lon="1.23416">
        <ele>391.6</ele>
        <time>2024-11-29T12:46:37Z</time>
      </trkpt>
      <trkpt lat="45.89556" lon="1.23418">
        <ele>391.5</ele>
        <time>2024-11-29T12:46:38Z</time>
      </trkpt>
      <trkpt lat="45.89561" lon="1.23421">
        <ele>391.4</ele>
        <time>2024-11-29T12:46:39Z</time>
      </trkpt>
      <trkpt lat="45.89567" lon="1.23424">
        <ele>391.3</ele>
        <time>2024-11-29T12:46:40Z</time>
      </trkpt>
      <trkpt lat="45.89575" lon="1.23426">
        <ele>391.1</ele>
        <time>2024-11-29T12:46:41Z</time>
      </trkpt>
      <trkpt lat="45.89582" lon="1.23429">
        <ele>390.9</ele>
        <time>2024-11-29T12:46:42Z</time>
      </trkpt>
      <trkpt lat="45.89589" lon="1.23433">
        <ele>390.8</ele>
        <time>2024-11-29T12:46:43Z</time>
      </trkpt>
      <trkpt lat="45.89594" lon="1.23437">
        <ele>390.7</ele>
        <time>2024-11-29T12:46:44Z</time>
      </trkpt>
      <trkpt lat="45.896" lon="1.2344">
        <ele>390.6</ele>
        <time>2024-11-29T12:46:45Z</time>
      </trkpt>
      <trkpt lat="45.89606" lon="1.23442">
        <ele>390.5</ele>
        <time>2024-11-29T12:46:46Z</time>
      </trkpt>
      <trkpt lat="45.89611" lon="1.23445">
        <ele>390.4</ele>
        <time>2024-11-29T12:46:47Z</time>
      </trkpt>
      <trkpt lat="45.89617" lon="1.23447">
        <ele>390.2</ele>
        <time>2024-11-29T12:46:48Z</time>
      </trkpt>
      <trkpt lat="45.89624" lon="1.23449">
        <ele>390.1</ele>
        <time>2024-11-29T12:46:49Z</time>
      </trkpt>
      <trkpt lat="45.8963" lon="1.23452">
        <ele>389.9</ele>
        <time>2024-11-29T12:46:50Z</time>
      </trkpt>
      <trkpt lat="45.89636" lon="1.23454">
        <ele>389.8</ele>
        <time>2024-11-29T12:46:51Z</time>
      </trkpt>
      <trkpt lat="45.89642" lon="1.23456">
        <ele>389.6</ele>
        <time>2024-11-29T12:46:52Z</time>
      </trkpt>
      <trkpt lat="45.89648" lon="1.23459">
        <ele>389.5</ele>
        <time>2024-11-29T12:46:53Z</time>
      </trkpt>
      <trkpt lat="45.89654" lon="1.23461">
        <ele>389.3</ele>
        <time>2024-11-29T12:46:54Z</time>
      </trkpt>
      <trkpt lat="45.8966" lon="1.23463">
        <ele>389.2</ele>
        <time>2024-11-29T12:46:55Z</time>
      </trkpt>
      <trkpt lat="45.89665" lon="1.23465">
        <ele>389</ele>
        <time>2024-11-29T12:46:56Z</time>
      </trkpt>
      <trkpt lat="45.89671" lon="1.23468">
        <ele>388.8</ele>
        <time>2024-11-29T12:46:57Z</time>
      </trkpt>
      <trkpt lat="45.89676" lon="1.23472">
        <ele>388.7</ele>
        <time>2024-11-29T12:46:58Z</time>
      </trkpt>
      <trkpt lat="45.8968" lon="1.23477">
        <ele>388.5</ele>
        <time>2024-11-29T12:46:59Z</time>
      </trkpt>
      <trkpt lat="45.89683" lon="1.23483">
        <ele>388.3</ele>
        <time>2024-11-29T12:47:00Z</time>
      </trkpt>
      <trkpt lat="45.89686" lon="1.23488">
        <ele>388.1</ele>
        <time>2024-11-29T12:47:01Z</time>
      </trkpt>
      <trkpt lat="45.8969" lon="1.23492">
        <ele>388</ele>
        <time>2024-11-29T12:47:02Z</time>
      </trkpt>
      <trkpt lat="45.89695" lon="1.23493">
        <ele>388.1</ele>
        <time>2024-11-29T12:47:03Z</time>
      </trkpt>
      <trkpt lat="45.89701" lon="1.23493">
        <ele>388.1</ele>
        <time>2024-11-29T12:47:04Z</time>
      </trkpt>
      <trkpt lat="45.89706" lon="1.23491">
        <ele>388.1</ele>
        <time>2024-11-29T12:47:05Z</time>
      </trkpt>
      <trkpt lat="45.89712" lon="1.23487">
        <ele>388.1</ele>
        <time>2024-11-29T12:47:06Z</time>
      </trkpt>
      <trkpt lat="45.89719" lon="1.23485">
        <ele>387.9</ele>
        <time>2024-11-29T12:47:07Z</time>
      </trkpt>
      <trkpt lat="45.89725" lon="1.23484">
        <ele>387.6</ele>
        <time>2024-11-29T12:47:08Z</time>
      </trkpt>
      <trkpt lat="45.89732" lon="1.23483">
        <ele>387.3</ele>
        <time>2024-11-29T12:47:09Z</time>
      </trkpt>
      <trkpt lat="45.89739" lon="1.23484">
        <ele>386.9</ele>
        <time>2024-11-29T12:47:10Z</time>
      </trkpt>
      <trkpt lat="45.89747" lon="1.23485">
        <ele>386.4</ele>
        <time>2024-11-29T12:47:11Z</time>
      </trkpt>
      <trkpt lat="45.89755" lon="1.23486">
        <ele>385.8</ele>
        <time>2024-11-29T12:47:12Z</time>
      </trkpt>
      <trkpt lat="45.89763" lon="1.23487">
        <ele>385.3</ele>
        <time>2024-11-29T12:47:13Z</time>
      </trkpt>
      <trkpt lat="45.89772" lon="1.23488">
        <ele>384.7</ele>
        <time>2024-11-29T12:47:14Z</time>
      </trkpt>
      <trkpt lat="45.8978" lon="1.23489">
        <ele>384.1</ele>
        <time>2024-11-29T12:47:15Z</time>
      </trkpt>
      <trkpt lat="45.89789" lon="1.23491">
        <ele>383.6</ele>
        <time>2024-11-29T12:47:16Z</time>
      </trkpt>
      <trkpt lat="45.89798" lon="1.23492">
        <ele>383</ele>
        <time>2024-11-29T12:47:17Z</time>
      </trkpt>
      <trkpt lat="45.89808" lon="1.23494">
        <ele>382.5</ele>
        <time>2024-11-29T12:47:18Z</time>
      </trkpt>
      <trkpt lat="45.89817" lon="1.23495">
        <ele>382</ele>
        <time>2024-11-29T12:47:19Z</time>
      </trkpt>
      <trkpt lat="45.89826" lon="1.23497">
        <ele>381.5</ele>
        <time>2024-11-29T12:47:20Z</time>
      </trkpt>
      <trkpt lat="45.89835" lon="1.23498">
        <ele>381.1</ele>
        <time>2024-11-29T12:47:21Z</time>
      </trkpt>
      <trkpt lat="45.89844" lon="1.23499">
        <ele>380.7</ele>
        <time>2024-11-29T12:47:22Z</time>
      </trkpt>
      <trkpt lat="45.89853" lon="1.235">
        <ele>380.3</ele>
        <time>2024-11-29T12:47:23Z</time>
      </trkpt>
      <trkpt lat="45.89863" lon="1.23501">
        <ele>379.9</ele>
        <time>2024-11-29T12:47:24Z</time>
      </trkpt>
      <trkpt lat="45.89872" lon="1.23502">
        <ele>379.6</ele>
        <time>2024-11-29T12:47:25Z</time>
      </trkpt>
      <trkpt lat="45.89881" lon="1.23503">
        <ele>379.3</ele>
        <time>2024-11-29T12:47:26Z</time>
      </trkpt>
      <trkpt lat="45.8989" lon="1.23504">
        <ele>379.2</ele>
        <time>2024-11-29T12:47:27Z</time>
      </trkpt>
      <trkpt lat="45.89899" lon="1.23505">
        <ele>379</ele>
        <time>2024-11-29T12:47:28Z</time>
      </trkpt>
      <trkpt lat="45.89909" lon="1.23506">
        <ele>378.9</ele>
        <time>2024-11-29T12:47:29Z</time>
      </trkpt>
      <trkpt lat="45.89917" lon="1.23507">
        <ele>378.9</ele>
        <time>2024-11-29T12:47:30Z</time>
      </trkpt>
      <trkpt lat="45.89926" lon="1.23507">
        <ele>378.9</ele>
        <time>2024-11-29T12:47:31Z</time>
      </trkpt>
      <trkpt lat="45.89935" lon="1.23508">
        <ele>379</ele>
        <time>2024-11-29T12:47:32Z</time>
      </trkpt>
      <trkpt lat="45.89943" lon="1.23508">
        <ele>379</ele>
        <time>2024-11-29T12:47:33Z</time>
      </trkpt>
      <trkpt lat="45.89951" lon="1.23508">
        <ele>379.1</ele>
        <time>2024-11-29T12:47:34Z</time>
      </trkpt>
      <trkpt lat="45.89959" lon="1.23506">
        <ele>379.2</ele>
        <time>2024-11-29T12:47:35Z</time>
      </trkpt>
      <trkpt lat="45.89967" lon="1.23505">
        <ele>379.4</ele>
        <time>2024-11-29T12:47:36Z</time>
      </trkpt>
      <trkpt lat="45.89974" lon="1.23503">
        <ele>379.5</ele>
        <time>2024-11-29T12:47:37Z</time>
      </trkpt>
      <trkpt lat="45.89981" lon="1.23502">
        <ele>379.7</ele>
        <time>2024-11-29T12:47:38Z</time>
      </trkpt>
      <trkpt lat="45.89987" lon="1.23499">
        <ele>380</ele>
        <time>2024-11-29T12:47:39Z</time>
      </trkpt>
      <trkpt lat="45.89994" lon="1.23497">
        <ele>380.2</ele>
        <time>2024-11-29T12:47:40Z</time>
      </trkpt>
      <trkpt lat="45.89999" lon="1.23493">
        <ele>380.4</ele>
        <time>2024-11-29T12:47:41Z</time>
      </trkpt>
      <trkpt lat="45.90005" lon="1.2349">
        <ele>380.7</ele>
        <time>2024-11-29T12:47:42Z</time>
      </trkpt>
      <trkpt lat="45.90011" lon="1.23485">
        <ele>381</ele>
        <time>2024-11-29T12:47:43Z</time>
      </trkpt>
      <trkpt lat="45.90016" lon="1.23481">
        <ele>381.3</ele>
        <time>2024-11-29T12:47:44Z</time>
      </trkpt>
      <trkpt lat="45.9002" lon="1.23476">
        <ele>381.5</ele>
        <time>2024-11-29T12:47:45Z</time>
      </trkpt>
      <trkpt lat="45.90025" lon="1.2347">
        <ele>381.9</ele>
        <time>2024-11-29T12:47:46Z</time>
      </trkpt>
      <trkpt lat="45.90029" lon="1.23465">
        <ele>382.2</ele>
        <time>2024-11-29T12:47:47Z</time>
      </trkpt>
      <trkpt lat="45.90033" lon="1.23459">
        <ele>382.5</ele>
        <time>2024-11-29T12:47:48Z</time>
      </trkpt>
      <trkpt lat="45.90038" lon="1.23453">
        <ele>382.8</ele>
        <time>2024-11-29T12:47:49Z</time>
      </trkpt>
      <trkpt lat="45.90042" lon="1.23447">
        <ele>383.2</ele>
        <time>2024-11-29T12:47:50Z</time>
      </trkpt>
      <trkpt lat="45.90046" lon="1.23441">
        <ele>383.5</ele>
        <time>2024-11-29T12:47:51Z</time>
      </trkpt>
      <trkpt lat="45.90049" lon="1.23434">
        <ele>383.8</ele>
        <time>2024-11-29T12:47:52Z</time>
      </trkpt>
      <trkpt lat="45.90052" lon="1.23427">
        <ele>384.1</ele>
        <time>2024-11-29T12:47:53Z</time>
      </trkpt>
      <trkpt lat="45.90055" lon="1.23419">
        <ele>384.4</ele>
        <time>2024-11-29T12:47:54Z</time>
      </trkpt>
      <trkpt lat="45.90058" lon="1.23412">
        <ele>384.7</ele>
        <time>2024-11-29T12:47:55Z</time>
      </trkpt>
      <trkpt lat="45.9006" lon="1.23404">
        <ele>384.9</ele>
        <time>2024-11-29T12:47:56Z</time>
      </trkpt>
      <trkpt lat="45.90062" lon="1.23395">
        <ele>385.1</ele>
        <time>2024-11-29T12:47:57Z</time>
      </trkpt>
      <trkpt lat="45.90064" lon="1.23387">
        <ele>385.3</ele>
        <time>2024-11-29T12:47:58Z</time>
      </trkpt>
      <trkpt lat="45.90066" lon="1.23379">
        <ele>385.4</ele>
        <time>2024-11-29T12:47:59Z</time>
      </trkpt>
      <trkpt lat="45.90068" lon="1.23371">
        <ele>385.6</ele>
        <time>2024-11-29T12:48:00Z</time>
      </trkpt>
      <trkpt lat="45.9007" lon="1.23363">
        <ele>385.7</ele>
        <time>2024-11-29T12:48:01Z</time>
      </trkpt>
      <trkpt lat="45.90072" lon="1.23354">
        <ele>385.8</ele>
        <time>2024-11-29T12:48:02Z</time>
      </trkpt>
      <trkpt lat="45.90074" lon="1.23346">
        <ele>385.8</ele>
        <time>2024-11-29T12:48:03Z</time>
      </trkpt>
      <trkpt lat="45.90076" lon="1.23337">
        <ele>385.8</ele>
        <time>2024-11-29T12:48:04Z</time>
      </trkpt>
      <trkpt lat="45.90078" lon="1.23329">
        <ele>385.8</ele>
        <time>2024-11-29T12:48:05Z</time>
      </trkpt>
      <trkpt lat="45.9008" lon="1.2332">
        <ele>385.8</ele>
        <time>2024-11-29T12:48:06Z</time>
      </trkpt>
      <trkpt lat="45.90082" lon="1.23311">
        <ele>385.7</ele>
        <time>2024-11-29T12:48:07Z</time>
      </trkpt>
      <trkpt lat="45.90084" lon="1.23302">
        <ele>385.6</ele>
        <time>2024-11-29T12:48:08Z</time>
      </trkpt>
      <trkpt lat="45.90087" lon="1.23293">
        <ele>385.5</ele>
        <time>2024-11-29T12:48:09Z</time>
      </trkpt>
      <trkpt lat="45.90089" lon="1.23283">
        <ele>385.3</ele>
        <time>2024-11-29T12:48:10Z</time>
      </trkpt>
      <trkpt lat="45.90091" lon="1.23274">
        <ele>385.1</ele>
        <time>2024-11-29T12:48:11Z</time>
      </trkpt>
      <trkpt lat="45.90094" lon="1.23265">
        <ele>384.9</ele>
        <time>2024-11-29T12:48:12Z</time>
      </trkpt>
      <trkpt lat="45.90096" lon="1.23255">
        <ele>384.6</ele>
        <time>2024-11-29T12:48:13Z</time>
      </trkpt>
      <trkpt lat="45.90099" lon="1.23245">
        <ele>384.3</ele>
        <time>2024-11-29T12:48:14Z</time>
      </trkpt>
      <trkpt lat="45.90101" lon="1.23234">
        <ele>384</ele>
        <time>2024-11-29T12:48:15Z</time>
      </trkpt>
      <trkpt lat="45.90104" lon="1.23224">
        <ele>383.7</ele>
        <time>2024-11-29T12:48:16Z</time>
      </trkpt>
      <trkpt lat="45.90106" lon="1.23215">
        <ele>383.4</ele>
        <time>2024-11-29T12:48:17Z</time>
      </trkpt>
      <trkpt lat="45.90109" lon="1.23205">
        <ele>383.2</ele>
        <time>2024-11-29T12:48:18Z</time>
      </trkpt>
      <trkpt lat="45.90113" lon="1.23196">
        <ele>383</ele>
        <time>2024-11-29T12:48:19Z</time>
      </trkpt>
      <trkpt lat="45.90118" lon="1.2319">
        <ele>382.8</ele>
        <time>2024-11-29T12:48:20Z</time>
      </trkpt>
      <trkpt lat="45.90124" lon="1.23187">
        <ele>382.7</ele>
        <time>2024-11-29T12:48:21Z</time>
      </trkpt>
      <trkpt lat="45.90131" lon="1.23188">
        <ele>382.4</ele>
        <time>2024-11-29T12:48:22Z</time>
      </trkpt>
      <trkpt lat="45.90137" lon="1.23194">
        <ele>382</ele>
        <time>2024-11-29T12:48:23Z</time>
      </trkpt>
      <trkpt lat="45.90143" lon="1.232">
        <ele>381.7</ele>
        <time>2024-11-29T12:48:24Z</time>
      </trkpt>
      <trkpt lat="45.90149" lon="1.23208">
        <ele>381.5</ele>
        <time>2024-11-29T12:48:25Z</time>
      </trkpt>
      <trkpt lat="45.90154" lon="1.23216">
        <ele>381.4</ele>
        <time>2024-11-29T12:48:26Z</time>
      </trkpt>
      <trkpt lat="45.9016" lon="1.23223">
        <ele>381.3</ele>
        <time>2024-11-29T12:48:27Z</time>
      </trkpt>
      <trkpt lat="45.90166" lon="1.2323">
        <ele>381.3</ele>
        <time>2024-11-29T12:48:28Z</time>
      </trkpt>
      <trkpt lat="45.90172" lon="1.23237">
        <ele>381.3</ele>
        <time>2024-11-29T12:48:29Z</time>
      </trkpt>
      <trkpt lat="45.90178" lon="1.23245">
        <ele>381.3</ele>
        <time>2024-11-29T12:48:30Z</time>
      </trkpt>
      <trkpt lat="45.90182" lon="1.23253">
        <ele>381.3</ele>
        <time>2024-11-29T12:48:31Z</time>
      </trkpt>
      <trkpt lat="45.90187" lon="1.2326">
        <ele>381.3</ele>
        <time>2024-11-29T12:48:32Z</time>
      </trkpt>
      <trkpt lat="45.90192" lon="1.23268">
        <ele>381.3</ele>
        <time>2024-11-29T12:48:33Z</time>
      </trkpt>
      <trkpt lat="45.90196" lon="1.23276">
        <ele>381.3</ele>
        <time>2024-11-29T12:48:34Z</time>
      </trkpt>
      <trkpt lat="45.902" lon="1.23285">
        <ele>381.2</ele>
        <time>2024-11-29T12:48:35Z</time>
      </trkpt>
      <trkpt lat="45.90204" lon="1.23294">
        <ele>381.2</ele>
        <time>2024-11-29T12:48:36Z</time>
      </trkpt>
      <trkpt lat="45.90207" lon="1.23302">
        <ele>381.1</ele>
        <time>2024-11-29T12:48:37Z</time>
      </trkpt>
      <trkpt lat="45.90211" lon="1.2331">
        <ele>381</ele>
        <time>2024-11-29T12:48:38Z</time>
      </trkpt>
      <trkpt lat="45.90214" lon="1.23318">
        <ele>380.8</ele>
        <time>2024-11-29T12:48:39Z</time>
      </trkpt>
      <trkpt lat="45.90217" lon="1.23326">
        <ele>380.7</ele>
        <time>2024-11-29T12:48:40Z</time>
      </trkpt>
      <trkpt lat="45.90221" lon="1.23335">
        <ele>380.4</ele>
        <time>2024-11-29T12:48:41Z</time>
      </trkpt>
      <trkpt lat="45.90225" lon="1.23343">
        <ele>380.2</ele>
        <time>2024-11-29T12:48:42Z</time>
      </trkpt>
      <trkpt lat="45.90228" lon="1.23352">
        <ele>380</ele>
        <time>2024-11-29T12:48:43Z</time>
      </trkpt>
      <trkpt lat="45.90232" lon="1.23361">
        <ele>379.8</ele>
        <time>2024-11-29T12:48:44Z</time>
      </trkpt>
      <trkpt lat="45.90235" lon="1.2337">
        <ele>379.5</ele>
        <time>2024-11-29T12:48:45Z</time>
      </trkpt>
      <trkpt lat="45.90239" lon="1.2338">
        <ele>379.3</ele>
        <time>2024-11-29T12:48:46Z</time>
      </trkpt>
      <trkpt lat="45.90243" lon="1.2339">
        <ele>379.1</ele>
        <time>2024-11-29T12:48:47Z</time>
      </trkpt>
      <trkpt lat="45.90247" lon="1.234">
        <ele>378.9</ele>
        <time>2024-11-29T12:48:48Z</time>
      </trkpt>
      <trkpt lat="45.90251" lon="1.2341">
        <ele>378.8</ele>
        <time>2024-11-29T12:48:49Z</time>
      </trkpt>
      <trkpt lat="45.90256" lon="1.23419">
        <ele>378.6</ele>
        <time>2024-11-29T12:48:50Z</time>
      </trkpt>
      <trkpt lat="45.9026" lon="1.23429">
        <ele>378.5</ele>
        <time>2024-11-29T12:48:51Z</time>
      </trkpt>
      <trkpt lat="45.90265" lon="1.23438">
        <ele>378.4</ele>
        <time>2024-11-29T12:48:52Z</time>
      </trkpt>
      <trkpt lat="45.90269" lon="1.23446">
        <ele>378.4</ele>
        <time>2024-11-29T12:48:53Z</time>
      </trkpt>
      <trkpt lat="45.90274" lon="1.23453">
        <ele>378.3</ele>
        <time>2024-11-29T12:48:54Z</time>
      </trkpt>
      <trkpt lat="45.9028" lon="1.2346">
        <ele>378.1</ele>
        <time>2024-11-29T12:48:55Z</time>
      </trkpt>
      <trkpt lat="45.90286" lon="1.23466">
        <ele>378</ele>
        <time>2024-11-29T12:48:56Z</time>
      </trkpt>
      <trkpt lat="45.90292" lon="1.23472">
        <ele>377.9</ele>
        <time>2024-11-29T12:48:57Z</time>
      </trkpt>
      <trkpt lat="45.90298" lon="1.23478">
        <ele>377.8</ele>
        <time>2024-11-29T12:48:58Z</time>
      </trkpt>
      <trkpt lat="45.90304" lon="1.23484">
        <ele>377.8</ele>
        <time>2024-11-29T12:48:59Z</time>
      </trkpt>
      <trkpt lat="45.9031" lon="1.23489">
        <ele>377.8</ele>
        <time>2024-11-29T12:49:00Z</time>
      </trkpt>
      <trkpt lat="45.90315" lon="1.23495">
        <ele>377.8</ele>
        <time>2024-11-29T12:49:01Z</time>
      </trkpt>
      <trkpt lat="45.90321" lon="1.235">
        <ele>377.9</ele>
        <time>2024-11-29T12:49:02Z</time>
      </trkpt>
      <trkpt lat="45.90326" lon="1.23505">
        <ele>378</ele>
        <time>2024-11-29T12:49:03Z</time>
      </trkpt>
      <trkpt lat="45.90332" lon="1.2351">
        <ele>378.1</ele>
        <time>2024-11-29T12:49:04Z</time>
      </trkpt>
      <trkpt lat="45.90338" lon="1.23515">
        <ele>378.2</ele>
        <time>2024-11-29T12:49:05Z</time>
      </trkpt>
      <trkpt lat="45.90343" lon="1.23519">
        <ele>378.3</ele>
        <time>2024-11-29T12:49:06Z</time>
      </trkpt>
      <trkpt lat="45.90349" lon="1.23523">
        <ele>378.5</ele>
        <time>2024-11-29T12:49:07Z</time>
      </trkpt>
      <trkpt lat="45.90354" lon="1.23527">
        <ele>378.7</ele>
        <time>2024-11-29T12:49:08Z</time>
      </trkpt>
      <trkpt lat="45.90359" lon="1.23531">
        <ele>378.8</ele>
        <time>2024-11-29T12:49:09Z</time>
      </trkpt>
      <trkpt lat="45.90365" lon="1.23535">
        <ele>379</ele>
        <time>2024-11-29T12:49:10Z</time>
      </trkpt>
      <trkpt lat="45.9037" lon="1.23539">
        <ele>379.2</ele>
        <time>2024-11-29T12:49:11Z</time>
      </trkpt>
      <trkpt lat="45.90376" lon="1.23543">
        <ele>379.4</ele>
        <time>2024-11-29T12:49:12Z</time>
      </trkpt>
      <trkpt lat="45.90381" lon="1.23547">
        <ele>379.5</ele>
        <time>2024-11-29T12:49:13Z</time>
      </trkpt>
      <trkpt lat="45.90386" lon="1.23551">
        <ele>379.7</ele>
        <time>2024-11-29T12:49:14Z</time>
      </trkpt>
      <trkpt lat="45.90391" lon="1.23555">
        <ele>379.9</ele>
        <time>2024-11-29T12:49:15Z</time>
      </trkpt>
      <trkpt lat="45.90397" lon="1.23559">
        <ele>380.2</ele>
        <time>2024-11-29T12:49:16Z</time>
      </trkpt>
      <trkpt lat="45.90402" lon="1.23562">
        <ele>380.5</ele>
        <time>2024-11-29T12:49:17Z</time>
      </trkpt>
      <trkpt lat="45.90408" lon="1.23566">
        <ele>380.8</ele>
        <time>2024-11-29T12:49:18Z</time>
      </trkpt>
      <trkpt lat="45.90412" lon="1.2357">
        <ele>381.1</ele>
        <time>2024-11-29T12:49:19Z</time>
      </trkpt>
      <trkpt lat="45.90417" lon="1.23573">
        <ele>381.4</ele>
        <time>2024-11-29T12:49:20Z</time>
      </trkpt>
      <trkpt lat="45.90423" lon="1.23578">
        <ele>381.8</ele>
        <time>2024-11-29T12:49:21Z</time>
      </trkpt>
      <trkpt lat="45.90429" lon="1.23582">
        <ele>382.1</ele>
        <time>2024-11-29T12:49:22Z</time>
      </trkpt>
      <trkpt lat="45.90434" lon="1.23587">
        <ele>382.5</ele>
        <time>2024-11-29T12:49:23Z</time>
      </trkpt>
      <trkpt lat="45.90439" lon="1.2359">
        <ele>382.8</ele>
        <time>2024-11-29T12:49:24Z</time>
      </trkpt>
      <trkpt lat="45.90444" lon="1.23594">
        <ele>383.2</ele>
        <time>2024-11-29T12:49:25Z</time>
      </trkpt>
      <trkpt lat="45.90449" lon="1.23598">
        <ele>383.6</ele>
        <time>2024-11-29T12:49:26Z</time>
      </trkpt>
      <trkpt lat="45.90454" lon="1.23601">
        <ele>384</ele>
        <time>2024-11-29T12:49:27Z</time>
      </trkpt>
      <trkpt lat="45.90459" lon="1.23605">
        <ele>384.4</ele>
        <time>2024-11-29T12:49:28Z</time>
      </trkpt>
      <trkpt lat="45.90464" lon="1.23608">
        <ele>384.7</ele>
        <time>2024-11-29T12:49:29Z</time>
      </trkpt>
      <trkpt lat="45.90469" lon="1.23612">
        <ele>385.1</ele>
        <time>2024-11-29T12:49:30Z</time>
      </trkpt>
      <trkpt lat="45.90474" lon="1.23615">
        <ele>385.5</ele>
        <time>2024-11-29T12:49:31Z</time>
      </trkpt>
      <trkpt lat="45.90479" lon="1.23618">
        <ele>385.8</ele>
        <time>2024-11-29T12:49:32Z</time>
      </trkpt>
      <trkpt lat="45.90484" lon="1.23622">
        <ele>386.2</ele>
        <time>2024-11-29T12:49:33Z</time>
      </trkpt>
      <trkpt lat="45.90488" lon="1.23625">
        <ele>386.5</ele>
        <time>2024-11-29T12:49:34Z</time>
      </trkpt>
      <trkpt lat="45.90492" lon="1.23628">
        <ele>386.7</ele>
        <time>2024-11-29T12:49:35Z</time>
      </trkpt>
      <trkpt lat="45.90497" lon="1.23632">
        <ele>387.1</ele>
        <time>2024-11-29T12:49:36Z</time>
      </trkpt>
      <trkpt lat="45.90502" lon="1.23635">
        <ele>387.4</ele>
        <time>2024-11-29T12:49:37Z</time>
      </trkpt>
      <trkpt lat="45.90506" lon="1.23637">
        <ele>387.6</ele>
        <time>2024-11-29T12:49:38Z</time>
      </trkpt>
      <trkpt lat="45.90511" lon="1.23639">
        <ele>387.9</ele>
        <time>2024-11-29T12:49:39Z</time>
      </trkpt>
      <trkpt lat="45.90516" lon="1.23641">
        <ele>388.1</ele>
        <time>2024-11-29T12:49:40Z</time>
      </trkpt>
      <trkpt lat="45.90521" lon="1.23643">
        <ele>388.2</ele>
        <time>2024-11-29T12:49:41Z</time>
      </trkpt>
      <trkpt lat="45.90526" lon="1.23645">
        <ele>388.4</ele>
        <time>2024-11-29T12:49:42Z</time>
      </trkpt>
      <trkpt lat="45.90531" lon="1.23647">
        <ele>388.5</ele>
        <time>2024-11-29T12:49:43Z</time>
      </trkpt>
      <trkpt lat="45.90534" lon="1.23652">
        <ele>388.7</ele>
        <time>2024-11-29T12:49:44Z</time>
      </trkpt>
      <trkpt lat="45.90536" lon="1.23657">
        <ele>388.9</ele>
        <time>2024-11-29T12:49:45Z</time>
      </trkpt>
      <trkpt lat="45.90539" lon="1.23663">
        <ele>389.1</ele>
        <time>2024-11-29T12:49:46Z</time>
      </trkpt>
      <trkpt lat="45.90541" lon="1.2367">
        <ele>389.4</ele>
        <time>2024-11-29T12:49:47Z</time>
      </trkpt>
      <trkpt lat="45.90544" lon="1.23675">
        <ele>389.6</ele>
        <time>2024-11-29T12:49:48Z</time>
      </trkpt>
      <trkpt lat="45.90547" lon="1.23681">
        <ele>389.9</ele>
        <time>2024-11-29T12:49:49Z</time>
      </trkpt>
      <trkpt lat="45.9055" lon="1.23687">
        <ele>390.1</ele>
        <time>2024-11-29T12:49:50Z</time>
      </trkpt>
      <trkpt lat="45.90553" lon="1.23693">
        <ele>390.3</ele>
        <time>2024-11-29T12:49:51Z</time>
      </trkpt>
      <trkpt lat="45.90555" lon="1.23699">
        <ele>390.4</ele>
        <time>2024-11-29T12:49:52Z</time>
      </trkpt>
      <trkpt lat="45.90558" lon="1.23706">
        <ele>390.5</ele>
        <time>2024-11-29T12:49:53Z</time>
      </trkpt>
      <trkpt lat="45.9056" lon="1.23712">
        <ele>390.6</ele>
        <time>2024-11-29T12:49:54Z</time>
      </trkpt>
      <trkpt lat="45.90563" lon="1.23718">
        <ele>390.6</ele>
        <time>2024-11-29T12:49:55Z</time>
      </trkpt>
      <trkpt lat="45.90565" lon="1.23725">
        <ele>390.6</ele>
        <time>2024-11-29T12:49:56Z</time>
      </trkpt>
      <trkpt lat="45.90567" lon="1.23731">
        <ele>390.4</ele>
        <time>2024-11-29T12:49:57Z</time>
      </trkpt>
      <trkpt lat="45.90569" lon="1.23737">
        <ele>390.3</ele>
        <time>2024-11-29T12:49:58Z</time>
      </trkpt>
      <trkpt lat="45.90571" lon="1.23743">
        <ele>390.2</ele>
        <time>2024-11-29T12:49:59Z</time>
      </trkpt>
      <trkpt lat="45.90574" lon="1.2375">
        <ele>390</ele>
        <time>2024-11-29T12:50:00Z</time>
      </trkpt>
      <trkpt lat="45.90576" lon="1.23756">
        <ele>389.9</ele>
        <time>2024-11-29T12:50:01Z</time>
      </trkpt>
      <trkpt lat="45.90579" lon="1.23763">
        <ele>389.8</ele>
        <time>2024-11-29T12:50:02Z</time>
      </trkpt>
      <trkpt lat="45.90582" lon="1.23769">
        <ele>389.6</ele>
        <time>2024-11-29T12:50:03Z</time>
      </trkpt>
      <trkpt lat="45.90585" lon="1.23775">
        <ele>389.5</ele>
        <time>2024-11-29T12:50:04Z</time>
      </trkpt>
      <trkpt lat="45.90588" lon="1.23782">
        <ele>389.4</ele>
        <time>2024-11-29T12:50:05Z</time>
      </trkpt>
      <trkpt lat="45.90591" lon="1.23788">
        <ele>389.3</ele>
        <time>2024-11-29T12:50:06Z</time>
      </trkpt>
      <trkpt lat="45.90594" lon="1.23794">
        <ele>389.2</ele>
        <time>2024-11-29T12:50:07Z</time>
      </trkpt>
      <trkpt lat="45.90597" lon="1.238">
        <ele>389.2</ele>
        <time>2024-11-29T12:50:08Z</time>
      </trkpt>
      <trkpt lat="45.90599" lon="1.23805">
        <ele>389.1</ele>
        <time>2024-11-29T12:50:09Z</time>
      </trkpt>
      <trkpt lat="45.90601" lon="1.2381">
        <ele>389.1</ele>
        <time>2024-11-29T12:50:10Z</time>
      </trkpt>
      <trkpt lat="45.90602" lon="1.23814">
        <ele>389.1</ele>
        <time>2024-11-29T12:50:11Z</time>
      </trkpt>
      <trkpt lat="45.90603" lon="1.23818">
        <ele>389.1</ele>
        <time>2024-11-29T12:50:12Z</time>
      </trkpt>
      <trkpt lat="45.90605" lon="1.23823">
        <ele>389.2</ele>
        <time>2024-11-29T12:50:13Z</time>
      </trkpt>
      <trkpt lat="45.90606" lon="1.23828">
        <ele>389.2</ele>
        <time>2024-11-29T12:50:14Z</time>
      </trkpt>
      <trkpt lat="45.90607" lon="1.23832">
        <ele>389.2</ele>
        <time>2024-11-29T12:50:15Z</time>
      </trkpt>
      <trkpt lat="45.90609" lon="1.23836">
        <ele>389.3</ele>
        <time>2024-11-29T12:50:16Z</time>
      </trkpt>
      <trkpt lat="45.90611" lon="1.23841">
        <ele>389.3</ele>
        <time>2024-11-29T12:50:17Z</time>
      </trkpt>
      <trkpt lat="45.90613" lon="1.23846">
        <ele>389.3</ele>
        <time>2024-11-29T12:50:18Z</time>
      </trkpt>
      <trkpt lat="45.90615" lon="1.2385">
        <ele>389.4</ele>
        <time>2024-11-29T12:50:19Z</time>
      </trkpt>
      <trkpt lat="45.90618" lon="1.23856">
        <ele>389.4</ele>
        <time>2024-11-29T12:50:20Z</time>
      </trkpt>
      <trkpt lat="45.9062" lon="1.23861">
        <ele>389.5</ele>
        <time>2024-11-29T12:50:21Z</time>
      </trkpt>
      <trkpt lat="45.90623" lon="1.23866">
        <ele>389.6</ele>
        <time>2024-11-29T12:50:22Z</time>
      </trkpt>
      <trkpt lat="45.90625" lon="1.23871">
        <ele>389.6</ele>
        <time>2024-11-29T12:50:23Z</time>
      </trkpt>
      <trkpt lat="45.90628" lon="1.23876">
        <ele>389.6</ele>
        <time>2024-11-29T12:50:24Z</time>
      </trkpt>
      <trkpt lat="45.9063" lon="1.23881">
        <ele>389.7</ele>
        <time>2024-11-29T12:50:25Z</time>
      </trkpt>
      <trkpt lat="45.90633" lon="1.23887">
        <ele>389.7</ele>
        <time>2024-11-29T12:50:26Z</time>
      </trkpt>
      <trkpt lat="45.90636" lon="1.23892">
        <ele>389.8</ele>
        <time>2024-11-29T12:50:27Z</time>
      </trkpt>
      <trkpt lat="45.90639" lon="1.23897">
        <ele>389.8</ele>
        <time>2024-11-29T12:50:28Z</time>
      </trkpt>
      <trkpt lat="45.90642" lon="1.23902">
        <ele>389.8</ele>
        <time>2024-11-29T12:50:29Z</time>
      </trkpt>
      <trkpt lat="45.90644" lon="1.23906">
        <ele>389.9</ele>
        <time>2024-11-29T12:50:30Z</time>
      </trkpt>
      <trkpt lat="45.90647" lon="1.2391">
        <ele>389.9</ele>
        <time>2024-11-29T12:50:31Z</time>
      </trkpt>
      <trkpt lat="45.90649" lon="1.23915">
        <ele>389.9</ele>
        <time>2024-11-29T12:50:32Z</time>
      </trkpt>
      <trkpt lat="45.90652" lon="1.23918">
        <ele>390</ele>
        <time>2024-11-29T12:50:33Z</time>
      </trkpt>
      <trkpt lat="45.90654" lon="1.23923">
        <ele>390</ele>
        <time>2024-11-29T12:50:34Z</time>
      </trkpt>
      <trkpt lat="45.90657" lon="1.23928">
        <ele>390.1</ele>
        <time>2024-11-29T12:50:35Z</time>
      </trkpt>
      <trkpt lat="45.90659" lon="1.23933">
        <ele>390.1</ele>
        <time>2024-11-29T12:50:36Z</time>
      </trkpt>
      <trkpt lat="45.90662" lon="1.23937">
        <ele>390.1</ele>
        <time>2024-11-29T12:50:37Z</time>
      </trkpt>
      <trkpt lat="45.90665" lon="1.23942">
        <ele>390.1</ele>
        <time>2024-11-29T12:50:38Z</time>
      </trkpt>
      <trkpt lat="45.90669" lon="1.23945">
        <ele>390.2</ele>
        <time>2024-11-29T12:50:39Z</time>
      </trkpt>
      <trkpt lat="45.90672" lon="1.23949">
        <ele>390.2</ele>
        <time>2024-11-29T12:50:40Z</time>
      </trkpt>
      <trkpt lat="45.90676" lon="1.23953">
        <ele>390.2</ele>
        <time>2024-11-29T12:50:41Z</time>
      </trkpt>
      <trkpt lat="45.9068" lon="1.23956">
        <ele>390.2</ele>
        <time>2024-11-29T12:50:42Z</time>
      </trkpt>
      <trkpt lat="45.90684" lon="1.2396">
        <ele>390.2</ele>
        <time>2024-11-29T12:50:43Z</time>
      </trkpt>
      <trkpt lat="45.90687" lon="1.23963">
        <ele>390.2</ele>
        <time>2024-11-29T12:50:44Z</time>
      </trkpt>
      <trkpt lat="45.90691" lon="1.23966">
        <ele>390.2</ele>
        <time>2024-11-29T12:50:45Z</time>
      </trkpt>
      <trkpt lat="45.90694" lon="1.23969">
        <ele>390.3</ele>
        <time>2024-11-29T12:50:46Z</time>
      </trkpt>
      <trkpt lat="45.90698" lon="1.23973">
        <ele>390.3</ele>
        <time>2024-11-29T12:50:47Z</time>
      </trkpt>
      <trkpt lat="45.90702" lon="1.23977">
        <ele>390.3</ele>
        <time>2024-11-29T12:50:48Z</time>
      </trkpt>
      <trkpt lat="45.90705" lon="1.23981">
        <ele>390.4</ele>
        <time>2024-11-29T12:50:49Z</time>
      </trkpt>
      <trkpt lat="45.90708" lon="1.23985">
        <ele>390.4</ele>
        <time>2024-11-29T12:50:50Z</time>
      </trkpt>
      <trkpt lat="45.90711" lon="1.23989">
        <ele>390.5</ele>
        <time>2024-11-29T12:50:51Z</time>
      </trkpt>
      <trkpt lat="45.90714" lon="1.23994">
        <ele>390.6</ele>
        <time>2024-11-29T12:50:52Z</time>
      </trkpt>
      <trkpt lat="45.90717" lon="1.23999">
        <ele>390.6</ele>
        <time>2024-11-29T12:50:53Z</time>
      </trkpt>
      <trkpt lat="45.9072" lon="1.24004">
        <ele>390.7</ele>
        <time>2024-11-29T12:50:54Z</time>
      </trkpt>
      <trkpt lat="45.90723" lon="1.24009">
        <ele>390.8</ele>
        <time>2024-11-29T12:50:55Z</time>
      </trkpt>
      <trkpt lat="45.90725" lon="1.24014">
        <ele>390.9</ele>
        <time>2024-11-29T12:50:56Z</time>
      </trkpt>
      <trkpt lat="45.90728" lon="1.24019">
        <ele>391</ele>
        <time>2024-11-29T12:50:57Z</time>
      </trkpt>
      <trkpt lat="45.90731" lon="1.24024">
        <ele>391.1</ele>
        <time>2024-11-29T12:50:58Z</time>
      </trkpt>
      <trkpt lat="45.90735" lon="1.24029">
        <ele>391.3</ele>
        <time>2024-11-29T12:50:59Z</time>
      </trkpt>
      <trkpt lat="45.90737" lon="1.24034">
        <ele>391.5</ele>
        <time>2024-11-29T12:51:00Z</time>
      </trkpt>
      <trkpt lat="45.90739" lon="1.24038">
        <ele>391.6</ele>
        <time>2024-11-29T12:51:01Z</time>
      </trkpt>
      <trkpt lat="45.9074" lon="1.24043">
        <ele>391.7</ele>
        <time>2024-11-29T12:51:02Z</time>
      </trkpt>
      <trkpt lat="45.90742" lon="1.24047">
        <ele>391.9</ele>
        <time>2024-11-29T12:51:03Z</time>
      </trkpt>
      <trkpt lat="45.90745" lon="1.24051">
        <ele>392.1</ele>
        <time>2024-11-29T12:51:04Z</time>
      </trkpt>
      <trkpt lat="45.90747" lon="1.24055">
        <ele>392.3</ele>
        <time>2024-11-29T12:51:05Z</time>
      </trkpt>
      <trkpt lat="45.90749" lon="1.24059">
        <ele>392.4</ele>
        <time>2024-11-29T12:51:06Z</time>
      </trkpt>
      <trkpt lat="45.90752" lon="1.24065">
        <ele>392.7</ele>
        <time>2024-11-29T12:51:08Z</time>
      </trkpt>
      <trkpt lat="45.90753" lon="1.24069">
        <ele>392.8</ele>
        <time>2024-11-29T12:51:09Z</time>
      </trkpt>
      <trkpt lat="45.90755" lon="1.24075">
        <ele>393.1</ele>
        <time>2024-11-29T12:51:10Z</time>
      </trkpt>
      <trkpt lat="45.90757" lon="1.24081">
        <ele>393.3</ele>
        <time>2024-11-29T12:51:11Z</time>
      </trkpt>
      <trkpt lat="45.9076" lon="1.24086">
        <ele>393.5</ele>
        <time>2024-11-29T12:51:12Z</time>
      </trkpt>
      <trkpt lat="45.90763" lon="1.24091">
        <ele>393.7</ele>
        <time>2024-11-29T12:51:13Z</time>
      </trkpt>
      <trkpt lat="45.90767" lon="1.24096">
        <ele>393.9</ele>
        <time>2024-11-29T12:51:14Z</time>
      </trkpt>
      <trkpt lat="45.9077" lon="1.24101">
        <ele>394.1</ele>
        <time>2024-11-29T12:51:15Z</time>
      </trkpt>
      <trkpt lat="45.90773" lon="1.24106">
        <ele>394.3</ele>
        <time>2024-11-29T12:51:16Z</time>
      </trkpt>
      <trkpt lat="45.90776" lon="1.2411">
        <ele>394.5</ele>
        <time>2024-11-29T12:51:17Z</time>
      </trkpt>
      <trkpt lat="45.9078" lon="1.24113">
        <ele>394.8</ele>
        <time>2024-11-29T12:51:19Z</time>
      </trkpt>
      <trkpt lat="45.90784" lon="1.24114">
        <ele>395.4</ele>
        <time>2024-11-29T12:51:21Z</time>
      </trkpt>
      <trkpt lat="45.90789" lon="1.24113">
        <ele>395.6</ele>
        <time>2024-11-29T12:51:23Z</time>
      </trkpt>
      <trkpt lat="45.90792" lon="1.24112">
        <ele>395.7</ele>
        <time>2024-11-29T12:51:24Z</time>
      </trkpt>
      <trkpt lat="45.90796" lon="1.24112">
        <ele>395.8</ele>
        <time>2024-11-29T12:51:25Z</time>
      </trkpt>
      <trkpt lat="45.90799" lon="1.24112">
        <ele>395.9</ele>
        <time>2024-11-29T12:51:26Z</time>
      </trkpt>
      <trkpt lat="45.90804" lon="1.24113">
        <ele>396.1</ele>
        <time>2024-11-29T12:51:28Z</time>
      </trkpt>
      <trkpt lat="45.90808" lon="1.24113">
        <ele>396.2</ele>
        <time>2024-11-29T12:51:29Z</time>
      </trkpt>
      <trkpt lat="45.90812" lon="1.24113">
        <ele>396.3</ele>
        <time>2024-11-29T12:51:30Z</time>
      </trkpt>
      <trkpt lat="45.90816" lon="1.24113">
        <ele>396.4</ele>
        <time>2024-11-29T12:51:31Z</time>
      </trkpt>
      <trkpt lat="45.9082" lon="1.24113">
        <ele>396.4</ele>
        <time>2024-11-29T12:51:32Z</time>
      </trkpt>
      <trkpt lat="45.90823" lon="1.24113">
        <ele>396.5</ele>
        <time>2024-11-29T12:51:33Z</time>
      </trkpt>
      <trkpt lat="45.90827" lon="1.24113">
        <ele>396.5</ele>
        <time>2024-11-29T12:51:34Z</time>
      </trkpt>
      <trkpt lat="45.90831" lon="1.24112">
        <ele>396.5</ele>
        <time>2024-11-29T12:51:35Z</time>
      </trkpt>
      <trkpt lat="45.90835" lon="1.24112">
        <ele>396.6</ele>
        <time>2024-11-29T12:51:36Z</time>
      </trkpt>
      <trkpt lat="45.90839" lon="1.24111">
        <ele>396.6</ele>
        <time>2024-11-29T12:51:37Z</time>
      </trkpt>
      <trkpt lat="45.90843" lon="1.2411">
        <ele>396.6</ele>
        <time>2024-11-29T12:51:38Z</time>
      </trkpt>
      <trkpt lat="45.90847" lon="1.24108">
        <ele>396.6</ele>
        <time>2024-11-29T12:51:39Z</time>
      </trkpt>
      <trkpt lat="45.90852" lon="1.24108">
        <ele>396.6</ele>
        <time>2024-11-29T12:51:40Z</time>
      </trkpt>
      <trkpt lat="45.90857" lon="1.24107">
        <ele>396.7</ele>
        <time>2024-11-29T12:51:41Z</time>
      </trkpt>
      <trkpt lat="45.90861" lon="1.24106">
        <ele>396.7</ele>
        <time>2024-11-29T12:51:42Z</time>
      </trkpt>
      <trkpt lat="45.90866" lon="1.24104">
        <ele>396.8</ele>
        <time>2024-11-29T12:51:43Z</time>
      </trkpt>
      <trkpt lat="45.90871" lon="1.24104">
        <ele>396.8</ele>
        <time>2024-11-29T12:51:44Z</time>
      </trkpt>
      <trkpt lat="45.90875" lon="1.24102">
        <ele>396.9</ele>
        <time>2024-11-29T12:51:45Z</time>
      </trkpt>
      <trkpt lat="45.9088" lon="1.24101">
        <ele>397</ele>
        <time>2024-11-29T12:51:46Z</time>
      </trkpt>
      <trkpt lat="45.90884" lon="1.241">
        <ele>397</ele>
        <time>2024-11-29T12:51:47Z</time>
      </trkpt>
      <trkpt lat="45.90888" lon="1.24099">
        <ele>397</ele>
        <time>2024-11-29T12:51:48Z</time>
      </trkpt>
      <trkpt lat="45.90893" lon="1.24098">
        <ele>397.1</ele>
        <time>2024-11-29T12:51:49Z</time>
      </trkpt>
      <trkpt lat="45.90897" lon="1.24097">
        <ele>397.1</ele>
        <time>2024-11-29T12:51:50Z</time>
      </trkpt>
      <trkpt lat="45.90901" lon="1.24096">
        <ele>397.2</ele>
        <time>2024-11-29T12:51:51Z</time>
      </trkpt>
      <trkpt lat="45.90906" lon="1.24096">
        <ele>397.3</ele>
        <time>2024-11-29T12:51:52Z</time>
      </trkpt>
      <trkpt lat="45.90911" lon="1.24094">
        <ele>397.4</ele>
        <time>2024-11-29T12:51:53Z</time>
      </trkpt>
      <trkpt lat="45.90915" lon="1.24093">
        <ele>397.4</ele>
        <time>2024-11-29T12:51:54Z</time>
      </trkpt>
      <trkpt lat="45.90919" lon="1.24092">
        <ele>397.5</ele>
        <time>2024-11-29T12:51:55Z</time>
      </trkpt>
      <trkpt lat="45.90924" lon="1.2409">
        <ele>397.6</ele>
        <time>2024-11-29T12:51:56Z</time>
      </trkpt>
      <trkpt lat="45.90927" lon="1.24088">
        <ele>397.7</ele>
        <time>2024-11-29T12:51:57Z</time>
      </trkpt>
      <trkpt lat="45.90931" lon="1.24088">
        <ele>397.8</ele>
        <time>2024-11-29T12:51:58Z</time>
      </trkpt>
      <trkpt lat="45.90934" lon="1.24087">
        <ele>397.9</ele>
        <time>2024-11-29T12:51:59Z</time>
      </trkpt>
      <trkpt lat="45.90938" lon="1.24086">
        <ele>398</ele>
        <time>2024-11-29T12:52:00Z</time>
      </trkpt>
      <trkpt lat="45.90942" lon="1.24084">
        <ele>398.2</ele>
        <time>2024-11-29T12:52:01Z</time>
      </trkpt>
      <trkpt lat="45.90945" lon="1.24083">
        <ele>398.3</ele>
        <time>2024-11-29T12:52:02Z</time>
      </trkpt>
      <trkpt lat="45.90949" lon="1.24082">
        <ele>398.5</ele>
        <time>2024-11-29T12:52:03Z</time>
      </trkpt>
      <trkpt lat="45.90953" lon="1.24081">
        <ele>398.7</ele>
        <time>2024-11-29T12:52:04Z</time>
      </trkpt>
      <trkpt lat="45.90956" lon="1.24079">
        <ele>398.9</ele>
        <time>2024-11-29T12:52:05Z</time>
      </trkpt>
      <trkpt lat="45.9096" lon="1.24078">
        <ele>399.1</ele>
        <time>2024-11-29T12:52:06Z</time>
      </trkpt>
      <trkpt lat="45.90963" lon="1.24076">
        <ele>399.3</ele>
        <time>2024-11-29T12:52:07Z</time>
      </trkpt>
      <trkpt lat="45.90967" lon="1.24075">
        <ele>399.5</ele>
        <time>2024-11-29T12:52:08Z</time>
      </trkpt>
      <trkpt lat="45.9097" lon="1.24074">
        <ele>399.7</ele>
        <time>2024-11-29T12:52:09Z</time>
      </trkpt>
      <trkpt lat="45.90973" lon="1.24073">
        <ele>399.9</ele>
        <time>2024-11-29T12:52:10Z</time>
      </trkpt>
      <trkpt lat="45.90977" lon="1.24072">
        <ele>400.1</ele>
        <time>2024-11-29T12:52:11Z</time>
      </trkpt>
      <trkpt lat="45.90979" lon="1.2407">
        <ele>400.3</ele>
        <time>2024-11-29T12:52:12Z</time>
      </trkpt>
      <trkpt lat="45.90982" lon="1.24069">
        <ele>400.5</ele>
        <time>2024-11-29T12:52:13Z</time>
      </trkpt>
      <trkpt lat="45.90985" lon="1.24067">
        <ele>400.8</ele>
        <time>2024-11-29T12:52:14Z</time>
      </trkpt>
      <trkpt lat="45.90989" lon="1.24065">
        <ele>401.2</ele>
        <time>2024-11-29T12:52:16Z</time>
      </trkpt>
      <trkpt lat="45.90993" lon="1.24063">
        <ele>401.6</ele>
        <time>2024-11-29T12:52:17Z</time>
      </trkpt>
      <trkpt lat="45.90996" lon="1.24062">
        <ele>401.9</ele>
        <time>2024-11-29T12:52:18Z</time>
      </trkpt>
      <trkpt lat="45.91" lon="1.2406">
        <ele>402.2</ele>
        <time>2024-11-29T12:52:20Z</time>
      </trkpt>
      <trkpt lat="45.91004" lon="1.24059">
        <ele>402.5</ele>
        <time>2024-11-29T12:52:21Z</time>
      </trkpt>
      <trkpt lat="45.91008" lon="1.24058">
        <ele>402.8</ele>
        <time>2024-11-29T12:52:22Z</time>
      </trkpt>
      <trkpt lat="45.91011" lon="1.24058">
        <ele>402.9</ele>
        <time>2024-11-29T12:52:23Z</time>
      </trkpt>
      <trkpt lat="45.91014" lon="1.24057">
        <ele>403</ele>
        <time>2024-11-29T12:52:24Z</time>
      </trkpt>
      <trkpt lat="45.91017" lon="1.24057">
        <ele>403.1</ele>
        <time>2024-11-29T12:52:25Z</time>
      </trkpt>
      <trkpt lat="45.9102" lon="1.24056">
        <ele>403.2</ele>
        <time>2024-11-29T12:52:26Z</time>
      </trkpt>
      <trkpt lat="45.91023" lon="1.24056">
        <ele>403.3</ele>
        <time>2024-11-29T12:52:27Z</time>
      </trkpt>
      <trkpt lat="45.91026" lon="1.24057">
        <ele>403.4</ele>
        <time>2024-11-29T12:52:28Z</time>
      </trkpt>
      <trkpt lat="45.91029" lon="1.24057">
        <ele>403.4</ele>
        <time>2024-11-29T12:52:29Z</time>
      </trkpt>
      <trkpt lat="45.91032" lon="1.24058">
        <ele>403.4</ele>
        <time>2024-11-29T12:52:30Z</time>
      </trkpt>
      <trkpt lat="45.91035" lon="1.2406">
        <ele>403.4</ele>
        <time>2024-11-29T12:52:31Z</time>
      </trkpt>
      <trkpt lat="45.91038" lon="1.24061">
        <ele>403.4</ele>
        <time>2024-11-29T12:52:32Z</time>
      </trkpt>
      <trkpt lat="45.91041" lon="1.24062">
        <ele>403.4</ele>
        <time>2024-11-29T12:52:33Z</time>
      </trkpt>
      <trkpt lat="45.91045" lon="1.24061">
        <ele>403.3</ele>
        <time>2024-11-29T12:52:35Z</time>
      </trkpt>
      <trkpt lat="45.91049" lon="1.24061">
        <ele>403.1</ele>
        <time>2024-11-29T12:52:36Z</time>
      </trkpt>
      <trkpt lat="45.91053" lon="1.2406">
        <ele>403</ele>
        <time>2024-11-29T12:52:37Z</time>
      </trkpt>
      <trkpt lat="45.91057" lon="1.24058">
        <ele>402.7</ele>
        <time>2024-11-29T12:52:38Z</time>
      </trkpt>
      <trkpt lat="45.9106" lon="1.24056">
        <ele>402.5</ele>
        <time>2024-11-29T12:52:39Z</time>
      </trkpt>
      <trkpt lat="45.91063" lon="1.24054">
        <ele>402.3</ele>
        <time>2024-11-29T12:52:40Z</time>
      </trkpt>
      <trkpt lat="45.91067" lon="1.24052">
        <ele>402</ele>
        <time>2024-11-29T12:52:41Z</time>
      </trkpt>
      <trkpt lat="45.9107" lon="1.2405">
        <ele>401.7</ele>
        <time>2024-11-29T12:52:42Z</time>
      </trkpt>
      <trkpt lat="45.91077" lon="1.24048">
        <ele>401</ele>
        <time>2024-11-29T12:52:43Z</time>
      </trkpt>
      <trkpt lat="45.91083" lon="1.24045">
        <ele>400.4</ele>
        <time>2024-11-29T12:52:44Z</time>
      </trkpt>
      <trkpt lat="45.91088" lon="1.24042">
        <ele>399.9</ele>
        <time>2024-11-29T12:52:45Z</time>
      </trkpt>
      <trkpt lat="45.91092" lon="1.24039">
        <ele>399.5</ele>
        <time>2024-11-29T12:52:46Z</time>
      </trkpt>
      <trkpt lat="45.91096" lon="1.24035">
        <ele>399.1</ele>
        <time>2024-11-29T12:52:47Z</time>
      </trkpt>
      <trkpt lat="45.911" lon="1.24029">
        <ele>398.7</ele>
        <time>2024-11-29T12:52:48Z</time>
      </trkpt>
      <trkpt lat="45.91104" lon="1.24025">
        <ele>398.2</ele>
        <time>2024-11-29T12:52:49Z</time>
      </trkpt>
      <trkpt lat="45.91109" lon="1.24023">
        <ele>397.7</ele>
        <time>2024-11-29T12:52:50Z</time>
      </trkpt>
      <trkpt lat="45.91114" lon="1.24022">
        <ele>397.1</ele>
        <time>2024-11-29T12:52:51Z</time>
      </trkpt>
      <trkpt lat="45.91118" lon="1.24023">
        <ele>396.7</ele>
        <time>2024-11-29T12:52:52Z</time>
      </trkpt>
      <trkpt lat="45.91121" lon="1.24026">
        <ele>396.3</ele>
        <time>2024-11-29T12:52:53Z</time>
      </trkpt>
      <trkpt lat="45.91125" lon="1.24029">
        <ele>395.8</ele>
        <time>2024-11-29T12:52:54Z</time>
      </trkpt>
      <trkpt lat="45.91128" lon="1.24033">
        <ele>395.3</ele>
        <time>2024-11-29T12:52:55Z</time>
      </trkpt>
      <trkpt lat="45.91131" lon="1.24035">
        <ele>395</ele>
        <time>2024-11-29T12:52:56Z</time>
      </trkpt>
      <trkpt lat="45.91134" lon="1.24037">
        <ele>394.6</ele>
        <time>2024-11-29T12:52:57Z</time>
      </trkpt>
      <trkpt lat="45.91137" lon="1.24037">
        <ele>394.3</ele>
        <time>2024-11-29T12:52:58Z</time>
      </trkpt>
      <trkpt lat="45.9114" lon="1.24035">
        <ele>394.1</ele>
        <time>2024-11-29T12:52:59Z</time>
      </trkpt>
      <trkpt lat="45.91143" lon="1.24031">
        <ele>394.2</ele>
        <time>2024-11-29T12:53:00Z</time>
      </trkpt>
      <trkpt lat="45.91144" lon="1.24025">
        <ele>394.2</ele>
        <time>2024-11-29T12:53:01Z</time>
      </trkpt>
      <trkpt lat="45.91145" lon="1.2402">
        <ele>394.2</ele>
        <time>2024-11-29T12:53:02Z</time>
      </trkpt>
      <trkpt lat="45.91146" lon="1.24014">
        <ele>394.2</ele>
        <time>2024-11-29T12:53:03Z</time>
      </trkpt>
      <trkpt lat="45.91147" lon="1.24008">
        <ele>394.2</ele>
        <time>2024-11-29T12:53:04Z</time>
      </trkpt>
      <trkpt lat="45.91149" lon="1.24003">
        <ele>394.2</ele>
        <time>2024-11-29T12:53:05Z</time>
      </trkpt>
      <trkpt lat="45.9115" lon="1.23997">
        <ele>394.2</ele>
        <time>2024-11-29T12:53:06Z</time>
      </trkpt>
      <trkpt lat="45.91152" lon="1.23992">
        <ele>394.1</ele>
        <time>2024-11-29T12:53:07Z</time>
      </trkpt>
      <trkpt lat="45.91154" lon="1.23986">
        <ele>394.1</ele>
        <time>2024-11-29T12:53:08Z</time>
      </trkpt>
      <trkpt lat="45.91158" lon="1.23981">
        <ele>394</ele>
        <time>2024-11-29T12:53:09Z</time>
      </trkpt>
      <trkpt lat="45.91161" lon="1.23975">
        <ele>393.9</ele>
        <time>2024-11-29T12:53:10Z</time>
      </trkpt>
      <trkpt lat="45.91165" lon="1.23969">
        <ele>393.8</ele>
        <time>2024-11-29T12:53:11Z</time>
      </trkpt>
      <trkpt lat="45.91169" lon="1.23963">
        <ele>393.6</ele>
        <time>2024-11-29T12:53:12Z</time>
      </trkpt>
      <trkpt lat="45.91173" lon="1.23958">
        <ele>393.5</ele>
        <time>2024-11-29T12:53:13Z</time>
      </trkpt>
      <trkpt lat="45.91178" lon="1.23953">
        <ele>393.3</ele>
        <time>2024-11-29T12:53:14Z</time>
      </trkpt>
      <trkpt lat="45.91184" lon="1.23948">
        <ele>393.1</ele>
        <time>2024-11-29T12:53:15Z</time>
      </trkpt>
      <trkpt lat="45.91189" lon="1.23944">
        <ele>392.9</ele>
        <time>2024-11-29T12:53:16Z</time>
      </trkpt>
      <trkpt lat="45.91195" lon="1.2394">
        <ele>392.7</ele>
        <time>2024-11-29T12:53:17Z</time>
      </trkpt>
      <trkpt lat="45.91201" lon="1.23936">
        <ele>392.6</ele>
        <time>2024-11-29T12:53:18Z</time>
      </trkpt>
      <trkpt lat="45.91207" lon="1.23932">
        <ele>392.4</ele>
        <time>2024-11-29T12:53:19Z</time>
      </trkpt>
      <trkpt lat="45.91213" lon="1.23928">
        <ele>392.2</ele>
        <time>2024-11-29T12:53:20Z</time>
      </trkpt>
      <trkpt lat="45.91219" lon="1.23925">
        <ele>391.9</ele>
        <time>2024-11-29T12:53:21Z</time>
      </trkpt>
      <trkpt lat="45.91225" lon="1.23921">
        <ele>391.7</ele>
        <time>2024-11-29T12:53:22Z</time>
      </trkpt>
      <trkpt lat="45.91231" lon="1.23917">
        <ele>391.4</ele>
        <time>2024-11-29T12:53:23Z</time>
      </trkpt>
      <trkpt lat="45.91238" lon="1.23913">
        <ele>391.1</ele>
        <time>2024-11-29T12:53:24Z</time>
      </trkpt>
      <trkpt lat="45.91244" lon="1.23909">
        <ele>390.9</ele>
        <time>2024-11-29T12:53:25Z</time>
      </trkpt>
      <trkpt lat="45.91251" lon="1.23906">
        <ele>390.6</ele>
        <time>2024-11-29T12:53:26Z</time>
      </trkpt>
      <trkpt lat="45.91258" lon="1.23901">
        <ele>390.4</ele>
        <time>2024-11-29T12:53:27Z</time>
      </trkpt>
      <trkpt lat="45.91265" lon="1.23896">
        <ele>390.1</ele>
        <time>2024-11-29T12:53:28Z</time>
      </trkpt>
      <trkpt lat="45.91272" lon="1.23892">
        <ele>389.7</ele>
        <time>2024-11-29T12:53:29Z</time>
      </trkpt>
      <trkpt lat="45.91279" lon="1.23887">
        <ele>389.3</ele>
        <time>2024-11-29T12:53:30Z</time>
      </trkpt>
      <trkpt lat="45.91286" lon="1.23883">
        <ele>388.8</ele>
        <time>2024-11-29T12:53:31Z</time>
      </trkpt>
      <trkpt lat="45.91292" lon="1.23879">
        <ele>388.3</ele>
        <time>2024-11-29T12:53:32Z</time>
      </trkpt>
      <trkpt lat="45.91299" lon="1.23874">
        <ele>387.8</ele>
        <time>2024-11-29T12:53:33Z</time>
      </trkpt>
      <trkpt lat="45.91306" lon="1.23869">
        <ele>387.1</ele>
        <time>2024-11-29T12:53:34Z</time>
      </trkpt>
      <trkpt lat="45.91314" lon="1.23865">
        <ele>386.4</ele>
        <time>2024-11-29T12:53:35Z</time>
      </trkpt>
      <trkpt lat="45.91321" lon="1.2386">
        <ele>385.7</ele>
        <time>2024-11-29T12:53:36Z</time>
      </trkpt>
      <trkpt lat="45.91329" lon="1.23855">
        <ele>384.9</ele>
        <time>2024-11-29T12:53:37Z</time>
      </trkpt>
      <trkpt lat="45.91338" lon="1.2385">
        <ele>384</ele>
        <time>2024-11-29T12:53:38Z</time>
      </trkpt>
      <trkpt lat="45.91346" lon="1.23845">
        <ele>383.2</ele>
        <time>2024-11-29T12:53:39Z</time>
      </trkpt>
      <trkpt lat="45.91355" lon="1.23838">
        <ele>382.3</ele>
        <time>2024-11-29T12:53:40Z</time>
      </trkpt>
      <trkpt lat="45.91364" lon="1.23832">
        <ele>381.6</ele>
        <time>2024-11-29T12:53:41Z</time>
      </trkpt>
      <trkpt lat="45.91373" lon="1.23826">
        <ele>380.8</ele>
        <time>2024-11-29T12:53:42Z</time>
      </trkpt>
      <trkpt lat="45.91382" lon="1.23819">
        <ele>380.1</ele>
        <time>2024-11-29T12:53:43Z</time>
      </trkpt>
      <trkpt lat="45.91391" lon="1.23813">
        <ele>379.4</ele>
        <time>2024-11-29T12:53:44Z</time>
      </trkpt>
      <trkpt lat="45.914" lon="1.23806">
        <ele>378.7</ele>
        <time>2024-11-29T12:53:45Z</time>
      </trkpt>
      <trkpt lat="45.91409" lon="1.23798">
        <ele>378.1</ele>
        <time>2024-11-29T12:53:46Z</time>
      </trkpt>
      <trkpt lat="45.91419" lon="1.23791">
        <ele>377.7</ele>
        <time>2024-11-29T12:53:47Z</time>
      </trkpt>
      <trkpt lat="45.91428" lon="1.23784">
        <ele>377.4</ele>
        <time>2024-11-29T12:53:48Z</time>
      </trkpt>
      <trkpt lat="45.91436" lon="1.23777">
        <ele>377.4</ele>
        <time>2024-11-29T12:53:49Z</time>
      </trkpt>
      <trkpt lat="45.91445" lon="1.23771">
        <ele>377.4</ele>
        <time>2024-11-29T12:53:50Z</time>
      </trkpt>
      <trkpt lat="45.91452" lon="1.23765">
        <ele>377.6</ele>
        <time>2024-11-29T12:53:51Z</time>
      </trkpt>
      <trkpt lat="45.91459" lon="1.23759">
        <ele>377.8</ele>
        <time>2024-11-29T12:53:52Z</time>
      </trkpt>
      <trkpt lat="45.91466" lon="1.23754">
        <ele>378</ele>
        <time>2024-11-29T12:53:53Z</time>
      </trkpt>
      <trkpt lat="45.91473" lon="1.2375">
        <ele>378.3</ele>
        <time>2024-11-29T12:53:54Z</time>
      </trkpt>
      <trkpt lat="45.91479" lon="1.23745">
        <ele>378.6</ele>
        <time>2024-11-29T12:53:55Z</time>
      </trkpt>
      <trkpt lat="45.91484" lon="1.23739">
        <ele>378.7</ele>
        <time>2024-11-29T12:53:56Z</time>
      </trkpt>
      <trkpt lat="45.91489" lon="1.23734">
        <ele>378.8</ele>
        <time>2024-11-29T12:53:57Z</time>
      </trkpt>
      <trkpt lat="45.91494" lon="1.23728">
        <ele>378.9</ele>
        <time>2024-11-29T12:53:58Z</time>
      </trkpt>
      <trkpt lat="45.91499" lon="1.23722">
        <ele>379.1</ele>
        <time>2024-11-29T12:53:59Z</time>
      </trkpt>
      <trkpt lat="45.91504" lon="1.23717">
        <ele>379.3</ele>
        <time>2024-11-29T12:54:00Z</time>
      </trkpt>
      <trkpt lat="45.91508" lon="1.2371">
        <ele>379.6</ele>
        <time>2024-11-29T12:54:01Z</time>
      </trkpt>
      <trkpt lat="45.91512" lon="1.23703">
        <ele>379.8</ele>
        <time>2024-11-29T12:54:02Z</time>
      </trkpt>
      <trkpt lat="45.91515" lon="1.23696">
        <ele>380</ele>
        <time>2024-11-29T12:54:03Z</time>
      </trkpt>
      <trkpt lat="45.91518" lon="1.23689">
        <ele>380.1</ele>
        <time>2024-11-29T12:54:04Z</time>
      </trkpt>
      <trkpt lat="45.9152" lon="1.23681">
        <ele>380.3</ele>
        <time>2024-11-29T12:54:05Z</time>
      </trkpt>
      <trkpt lat="45.91523" lon="1.23674">
        <ele>380.5</ele>
        <time>2024-11-29T12:54:06Z</time>
      </trkpt>
      <trkpt lat="45.91525" lon="1.23666">
        <ele>380.7</ele>
        <time>2024-11-29T12:54:07Z</time>
      </trkpt>
      <trkpt lat="45.91528" lon="1.23658">
        <ele>381</ele>
        <time>2024-11-29T12:54:08Z</time>
      </trkpt>
      <trkpt lat="45.9153" lon="1.2365">
        <ele>381.2</ele>
        <time>2024-11-29T12:54:09Z</time>
      </trkpt>
      <trkpt lat="45.91532" lon="1.23643">
        <ele>381.4</ele>
        <time>2024-11-29T12:54:10Z</time>
      </trkpt>
      <trkpt lat="45.91535" lon="1.23635">
        <ele>381.6</ele>
        <time>2024-11-29T12:54:11Z</time>
      </trkpt>
      <trkpt lat="45.91538" lon="1.23628">
        <ele>381.8</ele>
        <time>2024-11-29T12:54:12Z</time>
      </trkpt>
      <trkpt lat="45.91541" lon="1.23622">
        <ele>382</ele>
        <time>2024-11-29T12:54:13Z</time>
      </trkpt>
      <trkpt lat="45.91545" lon="1.23616">
        <ele>382.2</ele>
        <time>2024-11-29T12:54:14Z</time>
      </trkpt>
      <trkpt lat="45.91549" lon="1.2361">
        <ele>382.4</ele>
        <time>2024-11-29T12:54:15Z</time>
      </trkpt>
      <trkpt lat="45.91553" lon="1.23606">
        <ele>382.6</ele>
        <time>2024-11-29T12:54:16Z</time>
      </trkpt>
      <trkpt lat="45.91557" lon="1.23601">
        <ele>383</ele>
        <time>2024-11-29T12:54:17Z</time>
      </trkpt>
      <trkpt lat="45.91562" lon="1.23597">
        <ele>383.4</ele>
        <time>2024-11-29T12:54:18Z</time>
      </trkpt>
      <trkpt lat="45.91566" lon="1.23594">
        <ele>383.8</ele>
        <time>2024-11-29T12:54:19Z</time>
      </trkpt>
      <trkpt lat="45.91571" lon="1.2359">
        <ele>384.2</ele>
        <time>2024-11-29T12:54:20Z</time>
      </trkpt>
      <trkpt lat="45.91576" lon="1.23587">
        <ele>384.6</ele>
        <time>2024-11-29T12:54:21Z</time>
      </trkpt>
      <trkpt lat="45.91581" lon="1.23585">
        <ele>385.1</ele>
        <time>2024-11-29T12:54:22Z</time>
      </trkpt>
      <trkpt lat="45.91586" lon="1.23583">
        <ele>385.5</ele>
        <time>2024-11-29T12:54:23Z</time>
      </trkpt>
      <trkpt lat="45.91591" lon="1.23581">
        <ele>385.9</ele>
        <time>2024-11-29T12:54:24Z</time>
      </trkpt>
      <trkpt lat="45.91596" lon="1.2358">
        <ele>386.4</ele>
        <time>2024-11-29T12:54:25Z</time>
      </trkpt>
      <trkpt lat="45.916" lon="1.23579">
        <ele>386.7</ele>
        <time>2024-11-29T12:54:26Z</time>
      </trkpt>
      <trkpt lat="45.91605" lon="1.23577">
        <ele>387.1</ele>
        <time>2024-11-29T12:54:27Z</time>
      </trkpt>
      <trkpt lat="45.9161" lon="1.23575">
        <ele>387.6</ele>
        <time>2024-11-29T12:54:28Z</time>
      </trkpt>
      <trkpt lat="45.91614" lon="1.23572">
        <ele>387.9</ele>
        <time>2024-11-29T12:54:29Z</time>
      </trkpt>
      <trkpt lat="45.91618" lon="1.23568">
        <ele>388.3</ele>
        <time>2024-11-29T12:54:30Z</time>
      </trkpt>
      <trkpt lat="45.91622" lon="1.23564">
        <ele>388.6</ele>
        <time>2024-11-29T12:54:31Z</time>
      </trkpt>
      <trkpt lat="45.91626" lon="1.2356">
        <ele>388.9</ele>
        <time>2024-11-29T12:54:32Z</time>
      </trkpt>
      <trkpt lat="45.9163" lon="1.23554">
        <ele>389.3</ele>
        <time>2024-11-29T12:54:33Z</time>
      </trkpt>
      <trkpt lat="45.91633" lon="1.23549">
        <ele>389.6</ele>
        <time>2024-11-29T12:54:34Z</time>
      </trkpt>
      <trkpt lat="45.91637" lon="1.23544">
        <ele>389.9</ele>
        <time>2024-11-29T12:54:35Z</time>
      </trkpt>
      <trkpt lat="45.9164" lon="1.23539">
        <ele>390.2</ele>
        <time>2024-11-29T12:54:36Z</time>
      </trkpt>
      <trkpt lat="45.91644" lon="1.23534">
        <ele>390.4</ele>
        <time>2024-11-29T12:54:37Z</time>
      </trkpt>
      <trkpt lat="45.91648" lon="1.23529">
        <ele>390.7</ele>
        <time>2024-11-29T12:54:38Z</time>
      </trkpt>
      <trkpt lat="45.91652" lon="1.23524">
        <ele>390.9</ele>
        <time>2024-11-29T12:54:39Z</time>
      </trkpt>
      <trkpt lat="45.91655" lon="1.23518">
        <ele>391.2</ele>
        <time>2024-11-29T12:54:40Z</time>
      </trkpt>
      <trkpt lat="45.91659" lon="1.23512">
        <ele>391.4</ele>
        <time>2024-11-29T12:54:41Z</time>
      </trkpt>
      <trkpt lat="45.91662" lon="1.23506">
        <ele>391.7</ele>
        <time>2024-11-29T12:54:42Z</time>
      </trkpt>
      <trkpt lat="45.91665" lon="1.23501">
        <ele>391.9</ele>
        <time>2024-11-29T12:54:43Z</time>
      </trkpt>
      <trkpt lat="45.91668" lon="1.23496">
        <ele>392.1</ele>
        <time>2024-11-29T12:54:44Z</time>
      </trkpt>
      <trkpt lat="45.91671" lon="1.2349">
        <ele>392.3</ele>
        <time>2024-11-29T12:54:45Z</time>
      </trkpt>
      <trkpt lat="45.91674" lon="1.23485">
        <ele>392.6</ele>
        <time>2024-11-29T12:54:46Z</time>
      </trkpt>
      <trkpt lat="45.91678" lon="1.23479">
        <ele>392.8</ele>
        <time>2024-11-29T12:54:47Z</time>
      </trkpt>
      <trkpt lat="45.91681" lon="1.23474">
        <ele>393.1</ele>
        <time>2024-11-29T12:54:48Z</time>
      </trkpt>
      <trkpt lat="45.91684" lon="1.23468">
        <ele>393.3</ele>
        <time>2024-11-29T12:54:49Z</time>
      </trkpt>
      <trkpt lat="45.91686" lon="1.23462">
        <ele>393.5</ele>
        <time>2024-11-29T12:54:50Z</time>
      </trkpt>
      <trkpt lat="45.91689" lon="1.23456">
        <ele>393.8</ele>
        <time>2024-11-29T12:54:51Z</time>
      </trkpt>
      <trkpt lat="45.91691" lon="1.2345">
        <ele>394</ele>
        <time>2024-11-29T12:54:52Z</time>
      </trkpt>
      <trkpt lat="45.91694" lon="1.23444">
        <ele>394.2</ele>
        <time>2024-11-29T12:54:53Z</time>
      </trkpt>
      <trkpt lat="45.91696" lon="1.23438">
        <ele>394.4</ele>
        <time>2024-11-29T12:54:54Z</time>
      </trkpt>
      <trkpt lat="45.91699" lon="1.23432">
        <ele>394.7</ele>
        <time>2024-11-29T12:54:55Z</time>
      </trkpt>
      <trkpt lat="45.91702" lon="1.23425">
        <ele>394.9</ele>
        <time>2024-11-29T12:54:56Z</time>
      </trkpt>
      <trkpt lat="45.91704" lon="1.23419">
        <ele>395</ele>
        <time>2024-11-29T12:54:57Z</time>
      </trkpt>
      <trkpt lat="45.91707" lon="1.23413">
        <ele>395.2</ele>
        <time>2024-11-29T12:54:58Z</time>
      </trkpt>
      <trkpt lat="45.9171" lon="1.23406">
        <ele>395.4</ele>
        <time>2024-11-29T12:54:59Z</time>
      </trkpt>
      <trkpt lat="45.91713" lon="1.234">
        <ele>395.5</ele>
        <time>2024-11-29T12:55:00Z</time>
      </trkpt>
      <trkpt lat="45.91716" lon="1.23394">
        <ele>395.6</ele>
        <time>2024-11-29T12:55:01Z</time>
      </trkpt>
      <trkpt lat="45.91719" lon="1.23387">
        <ele>395.8</ele>
        <time>2024-11-29T12:55:02Z</time>
      </trkpt>
      <trkpt lat="45.91722" lon="1.23381">
        <ele>395.9</ele>
        <time>2024-11-29T12:55:03Z</time>
      </trkpt>
      <trkpt lat="45.91725" lon="1.23375">
        <ele>396.1</ele>
        <time>2024-11-29T12:55:04Z</time>
      </trkpt>
      <trkpt lat="45.91729" lon="1.23369">
        <ele>396.2</ele>
        <time>2024-11-29T12:55:05Z</time>
      </trkpt>
      <trkpt lat="45.91732" lon="1.23363">
        <ele>396.4</ele>
        <time>2024-11-29T12:55:06Z</time>
      </trkpt>
      <trkpt lat="45.91734" lon="1.23356">
        <ele>396.5</ele>
        <time>2024-11-29T12:55:07Z</time>
      </trkpt>
      <trkpt lat="45.91737" lon="1.2335">
        <ele>396.6</ele>
        <time>2024-11-29T12:55:08Z</time>
      </trkpt>
      <trkpt lat="45.9174" lon="1.23344">
        <ele>396.8</ele>
        <time>2024-11-29T12:55:09Z</time>
      </trkpt>
      <trkpt lat="45.91744" lon="1.23338">
        <ele>396.9</ele>
        <time>2024-11-29T12:55:10Z</time>
      </trkpt>
      <trkpt lat="45.91747" lon="1.23333">
        <ele>397</ele>
        <time>2024-11-29T12:55:11Z</time>
      </trkpt>
      <trkpt lat="45.91751" lon="1.23327">
        <ele>397.2</ele>
        <time>2024-11-29T12:55:12Z</time>
      </trkpt>
      <trkpt lat="45.91755" lon="1.23322">
        <ele>397.3</ele>
        <time>2024-11-29T12:55:13Z</time>
      </trkpt>
      <trkpt lat="45.91759" lon="1.23317">
        <ele>397.4</ele>
        <time>2024-11-29T12:55:14Z</time>
      </trkpt>
      <trkpt lat="45.91764" lon="1.23312">
        <ele>397.6</ele>
        <time>2024-11-29T12:55:15Z</time>
      </trkpt>
      <trkpt lat="45.91769" lon="1.23308">
        <ele>397.8</ele>
        <time>2024-11-29T12:55:16Z</time>
      </trkpt>
      <trkpt lat="45.91773" lon="1.23305">
        <ele>398</ele>
        <time>2024-11-29T12:55:17Z</time>
      </trkpt>
      <trkpt lat="45.91777" lon="1.23301">
        <ele>398.1</ele>
        <time>2024-11-29T12:55:18Z</time>
      </trkpt>
      <trkpt lat="45.91782" lon="1.23299">
        <ele>398.3</ele>
        <time>2024-11-29T12:55:19Z</time>
      </trkpt>
      <trkpt lat="45.91786" lon="1.23297">
        <ele>398.5</ele>
        <time>2024-11-29T12:55:20Z</time>
      </trkpt>
      <trkpt lat="45.91791" lon="1.23296">
        <ele>398.7</ele>
        <time>2024-11-29T12:55:21Z</time>
      </trkpt>
      <trkpt lat="45.91796" lon="1.23295">
        <ele>398.9</ele>
        <time>2024-11-29T12:55:22Z</time>
      </trkpt>
      <trkpt lat="45.91801" lon="1.23293">
        <ele>399.2</ele>
        <time>2024-11-29T12:55:23Z</time>
      </trkpt>
      <trkpt lat="45.91806" lon="1.23293">
        <ele>399.4</ele>
        <time>2024-11-29T12:55:24Z</time>
      </trkpt>
      <trkpt lat="45.9181" lon="1.23293">
        <ele>399.6</ele>
        <time>2024-11-29T12:55:25Z</time>
      </trkpt>
      <trkpt lat="45.91815" lon="1.23293">
        <ele>399.9</ele>
        <time>2024-11-29T12:55:26Z</time>
      </trkpt>
      <trkpt lat="45.9182" lon="1.23294">
        <ele>400.1</ele>
        <time>2024-11-29T12:55:27Z</time>
      </trkpt>
      <trkpt lat="45.91824" lon="1.23295">
        <ele>400.3</ele>
        <time>2024-11-29T12:55:28Z</time>
      </trkpt>
      <trkpt lat="45.91829" lon="1.23296">
        <ele>400.5</ele>
        <time>2024-11-29T12:55:29Z</time>
      </trkpt>
      <trkpt lat="45.91834" lon="1.23298">
        <ele>400.8</ele>
        <time>2024-11-29T12:55:30Z</time>
      </trkpt>
      <trkpt lat="45.91839" lon="1.233">
        <ele>401</ele>
        <time>2024-11-29T12:55:31Z</time>
      </trkpt>
      <trkpt lat="45.91844" lon="1.23301">
        <ele>401.3</ele>
        <time>2024-11-29T12:55:32Z</time>
      </trkpt>
      <trkpt lat="45.91848" lon="1.23303">
        <ele>401.5</ele>
        <time>2024-11-29T12:55:33Z</time>
      </trkpt>
      <trkpt lat="45.91853" lon="1.23305">
        <ele>401.7</ele>
        <time>2024-11-29T12:55:34Z</time>
      </trkpt>
      <trkpt lat="45.91857" lon="1.23307">
        <ele>401.9</ele>
        <time>2024-11-29T12:55:35Z</time>
      </trkpt>
      <trkpt lat="45.91862" lon="1.23309">
        <ele>402.1</ele>
        <time>2024-11-29T12:55:36Z</time>
      </trkpt>
      <trkpt lat="45.91866" lon="1.23311">
        <ele>402.3</ele>
        <time>2024-11-29T12:55:37Z</time>
      </trkpt>
      <trkpt lat="45.91871" lon="1.23313">
        <ele>402.5</ele>
        <time>2024-11-29T12:55:38Z</time>
      </trkpt>
      <trkpt lat="45.91876" lon="1.23315">
        <ele>402.8</ele>
        <time>2024-11-29T12:55:39Z</time>
      </trkpt>
      <trkpt lat="45.9188" lon="1.23316">
        <ele>402.9</ele>
        <time>2024-11-29T12:55:40Z</time>
      </trkpt>
      <trkpt lat="45.91885" lon="1.23319">
        <ele>403.2</ele>
        <time>2024-11-29T12:55:41Z</time>
      </trkpt>
      <trkpt lat="45.9189" lon="1.23321">
        <ele>403.4</ele>
        <time>2024-11-29T12:55:42Z</time>
      </trkpt>
      <trkpt lat="45.91894" lon="1.23322">
        <ele>403.6</ele>
        <time>2024-11-29T12:55:43Z</time>
      </trkpt>
      <trkpt lat="45.91898" lon="1.23324">
        <ele>403.8</ele>
        <time>2024-11-29T12:55:44Z</time>
      </trkpt>
      <trkpt lat="45.91903" lon="1.23326">
        <ele>404</ele>
        <time>2024-11-29T12:55:45Z</time>
      </trkpt>
      <trkpt lat="45.91908" lon="1.23328">
        <ele>404.2</ele>
        <time>2024-11-29T12:55:46Z</time>
      </trkpt>
      <trkpt lat="45.91912" lon="1.2333">
        <ele>404.3</ele>
        <time>2024-11-29T12:55:47Z</time>
      </trkpt>
      <trkpt lat="45.91917" lon="1.23333">
        <ele>404.5</ele>
        <time>2024-11-29T12:55:48Z</time>
      </trkpt>
      <trkpt lat="45.91922" lon="1.23336">
        <ele>404.5</ele>
        <time>2024-11-29T12:55:49Z</time>
      </trkpt>
      <trkpt lat="45.91926" lon="1.2334">
        <ele>404.3</ele>
        <time>2024-11-29T12:55:50Z</time>
      </trkpt>
      <trkpt lat="45.9193" lon="1.23344">
        <ele>404</ele>
        <time>2024-11-29T12:55:51Z</time>
      </trkpt>
      <trkpt lat="45.91933" lon="1.2335">
        <ele>403.8</ele>
        <time>2024-11-29T12:55:52Z</time>
      </trkpt>
      <trkpt lat="45.91937" lon="1.23356">
        <ele>403.5</ele>
        <time>2024-11-29T12:55:53Z</time>
      </trkpt>
      <trkpt lat="45.9194" lon="1.23363">
        <ele>403.3</ele>
        <time>2024-11-29T12:55:54Z</time>
      </trkpt>
      <trkpt lat="45.91943" lon="1.2337">
        <ele>403.1</ele>
        <time>2024-11-29T12:55:55Z</time>
      </trkpt>
      <trkpt lat="45.91947" lon="1.23377">
        <ele>402.9</ele>
        <time>2024-11-29T12:55:56Z</time>
      </trkpt>
      <trkpt lat="45.9195" lon="1.23384">
        <ele>402.7</ele>
        <time>2024-11-29T12:55:57Z</time>
      </trkpt>
      <trkpt lat="45.91953" lon="1.23392">
        <ele>402.6</ele>
        <time>2024-11-29T12:55:58Z</time>
      </trkpt>
      <trkpt lat="45.91955" lon="1.234">
        <ele>402.6</ele>
        <time>2024-11-29T12:55:59Z</time>
      </trkpt>
      <trkpt lat="45.91957" lon="1.23408">
        <ele>402.5</ele>
        <time>2024-11-29T12:56:00Z</time>
      </trkpt>
      <trkpt lat="45.91958" lon="1.23417">
        <ele>402.6</ele>
        <time>2024-11-29T12:56:01Z</time>
      </trkpt>
      <trkpt lat="45.91958" lon="1.23424">
        <ele>402.6</ele>
        <time>2024-11-29T12:56:02Z</time>
      </trkpt>
      <trkpt lat="45.91959" lon="1.23432">
        <ele>402.7</ele>
        <time>2024-11-29T12:56:03Z</time>
      </trkpt>
      <trkpt lat="45.91959" lon="1.23439">
        <ele>402.8</ele>
        <time>2024-11-29T12:56:04Z</time>
      </trkpt>
      <trkpt lat="45.9196" lon="1.23447">
        <ele>403</ele>
        <time>2024-11-29T12:56:05Z</time>
      </trkpt>
      <trkpt lat="45.9196" lon="1.23454">
        <ele>403.1</ele>
        <time>2024-11-29T12:56:06Z</time>
      </trkpt>
      <trkpt lat="45.91961" lon="1.2346">
        <ele>403.3</ele>
        <time>2024-11-29T12:56:07Z</time>
      </trkpt>
      <trkpt lat="45.91962" lon="1.23467">
        <ele>403.5</ele>
        <time>2024-11-29T12:56:08Z</time>
      </trkpt>
      <trkpt lat="45.91962" lon="1.23473">
        <ele>403.8</ele>
        <time>2024-11-29T12:56:09Z</time>
      </trkpt>
      <trkpt lat="45.91963" lon="1.2348">
        <ele>404.1</ele>
        <time>2024-11-29T12:56:10Z</time>
      </trkpt>
      <trkpt lat="45.91963" lon="1.23486">
        <ele>404.5</ele>
        <time>2024-11-29T12:56:11Z</time>
      </trkpt>
      <trkpt lat="45.91964" lon="1.23492">
        <ele>404.8</ele>
        <time>2024-11-29T12:56:12Z</time>
      </trkpt>
      <trkpt lat="45.91964" lon="1.23498">
        <ele>405.3</ele>
        <time>2024-11-29T12:56:13Z</time>
      </trkpt>
      <trkpt lat="45.91964" lon="1.23504">
        <ele>405.7</ele>
        <time>2024-11-29T12:56:14Z</time>
      </trkpt>
      <trkpt lat="45.91964" lon="1.23509">
        <ele>406.1</ele>
        <time>2024-11-29T12:56:15Z</time>
      </trkpt>
      <trkpt lat="45.91965" lon="1.23514">
        <ele>406.3</ele>
        <time>2024-11-29T12:56:16Z</time>
      </trkpt>
      <trkpt lat="45.91965" lon="1.2352">
        <ele>406.5</ele>
        <time>2024-11-29T12:56:17Z</time>
      </trkpt>
      <trkpt lat="45.91965" lon="1.23525">
        <ele>406.7</ele>
        <time>2024-11-29T12:56:18Z</time>
      </trkpt>
      <trkpt lat="45.91965" lon="1.2353">
        <ele>407</ele>
        <time>2024-11-29T12:56:19Z</time>
      </trkpt>
      <trkpt lat="45.91963" lon="1.23536">
        <ele>407.5</ele>
        <time>2024-11-29T12:56:20Z</time>
      </trkpt>
      <trkpt lat="45.91962" lon="1.23541">
        <ele>407.8</ele>
        <time>2024-11-29T12:56:21Z</time>
      </trkpt>
      <trkpt lat="45.9196" lon="1.23546">
        <ele>408.1</ele>
        <time>2024-11-29T12:56:22Z</time>
      </trkpt>
      <trkpt lat="45.9196" lon="1.23552">
        <ele>408.4</ele>
        <time>2024-11-29T12:56:23Z</time>
      </trkpt>
      <trkpt lat="45.91959" lon="1.23558">
        <ele>408.7</ele>
        <time>2024-11-29T12:56:24Z</time>
      </trkpt>
      <trkpt lat="45.9196" lon="1.23564">
        <ele>409</ele>
        <time>2024-11-29T12:56:25Z</time>
      </trkpt>
      <trkpt lat="45.91961" lon="1.2357">
        <ele>409.3</ele>
        <time>2024-11-29T12:56:26Z</time>
      </trkpt>
      <trkpt lat="45.91962" lon="1.23575">
        <ele>409.5</ele>
        <time>2024-11-29T12:56:27Z</time>
      </trkpt>
      <trkpt lat="45.91963" lon="1.2358">
        <ele>409.7</ele>
        <time>2024-11-29T12:56:28Z</time>
      </trkpt>
      <trkpt lat="45.91966" lon="1.23585">
        <ele>409.8</ele>
        <time>2024-11-29T12:56:29Z</time>
      </trkpt>
      <trkpt lat="45.91969" lon="1.23589">
        <ele>409.9</ele>
        <time>2024-11-29T12:56:30Z</time>
      </trkpt>
      <trkpt lat="45.91972" lon="1.23592">
        <ele>410</ele>
        <time>2024-11-29T12:56:31Z</time>
      </trkpt>
      <trkpt lat="45.91975" lon="1.23595">
        <ele>410</ele>
        <time>2024-11-29T12:56:32Z</time>
      </trkpt>
      <trkpt lat="45.91978" lon="1.236">
        <ele>409.8</ele>
        <time>2024-11-29T12:56:33Z</time>
      </trkpt>
      <trkpt lat="45.91977" lon="1.23606">
        <ele>409.5</ele>
        <time>2024-11-29T12:56:34Z</time>
      </trkpt>
      <trkpt lat="45.91977" lon="1.23613">
        <ele>409.2</ele>
        <time>2024-11-29T12:56:35Z</time>
      </trkpt>
      <trkpt lat="45.91977" lon="1.2362">
        <ele>408.9</ele>
        <time>2024-11-29T12:56:36Z</time>
      </trkpt>
      <trkpt lat="45.91978" lon="1.23628">
        <ele>408.6</ele>
        <time>2024-11-29T12:56:37Z</time>
      </trkpt>
      <trkpt lat="45.91978" lon="1.23636">
        <ele>408.4</ele>
        <time>2024-11-29T12:56:38Z</time>
      </trkpt>
      <trkpt lat="45.91978" lon="1.23644">
        <ele>408.1</ele>
        <time>2024-11-29T12:56:39Z</time>
      </trkpt>
      <trkpt lat="45.91979" lon="1.23651">
        <ele>407.9</ele>
        <time>2024-11-29T12:56:40Z</time>
      </trkpt>
      <trkpt lat="45.91979" lon="1.23659">
        <ele>407.6</ele>
        <time>2024-11-29T12:56:41Z</time>
      </trkpt>
      <trkpt lat="45.9198" lon="1.23666">
        <ele>407.4</ele>
        <time>2024-11-29T12:56:42Z</time>
      </trkpt>
      <trkpt lat="45.91981" lon="1.23674">
        <ele>407.2</ele>
        <time>2024-11-29T12:56:43Z</time>
      </trkpt>
      <trkpt lat="45.91982" lon="1.23681">
        <ele>407</ele>
        <time>2024-11-29T12:56:44Z</time>
      </trkpt>
      <trkpt lat="45.91982" lon="1.23688">
        <ele>406.8</ele>
        <time>2024-11-29T12:56:45Z</time>
      </trkpt>
      <trkpt lat="45.91982" lon="1.23695">
        <ele>406.6</ele>
        <time>2024-11-29T12:56:46Z</time>
      </trkpt>
      <trkpt lat="45.91982" lon="1.23702">
        <ele>406.4</ele>
        <time>2024-11-29T12:56:47Z</time>
      </trkpt>
      <trkpt lat="45.91981" lon="1.23708">
        <ele>406.1</ele>
        <time>2024-11-29T12:56:48Z</time>
      </trkpt>
      <trkpt lat="45.9198" lon="1.23714">
        <ele>405.6</ele>
        <time>2024-11-29T12:56:49Z</time>
      </trkpt>
      <trkpt lat="45.9198" lon="1.2372">
        <ele>405.2</ele>
        <time>2024-11-29T12:56:50Z</time>
      </trkpt>
      <trkpt lat="45.9198" lon="1.23725">
        <ele>404.8</ele>
        <time>2024-11-29T12:56:51Z</time>
      </trkpt>
      <trkpt lat="45.91979" lon="1.23731">
        <ele>404.4</ele>
        <time>2024-11-29T12:56:52Z</time>
      </trkpt>
      <trkpt lat="45.91979" lon="1.23736">
        <ele>404.1</ele>
        <time>2024-11-29T12:56:53Z</time>
      </trkpt>
      <trkpt lat="45.91979" lon="1.2374">
        <ele>403.8</ele>
        <time>2024-11-29T12:56:54Z</time>
      </trkpt>
      <trkpt lat="45.91982" lon="1.23743">
        <ele>403.5</ele>
        <time>2024-11-29T12:56:56Z</time>
      </trkpt>
      <trkpt lat="45.91983" lon="1.2374">
        <ele>403.3</ele>
        <time>2024-11-29T12:56:58Z</time>
      </trkpt>
      <trkpt lat="45.91983" lon="1.23736">
        <ele>403.1</ele>
        <time>2024-11-29T12:56:59Z</time>
      </trkpt>
      <trkpt lat="45.91981" lon="1.23733">
        <ele>403</ele>
        <time>2024-11-29T12:57:00Z</time>
      </trkpt>
      <trkpt lat="45.91981" lon="1.23728">
        <ele>402.8</ele>
        <time>2024-11-29T12:57:01Z</time>
      </trkpt>
      <trkpt lat="45.9198" lon="1.23724">
        <ele>402.6</ele>
        <time>2024-11-29T12:57:02Z</time>
      </trkpt>
      <trkpt lat="45.9198" lon="1.2372">
        <ele>402.5</ele>
        <time>2024-11-29T12:57:03Z</time>
      </trkpt>
      <trkpt lat="45.9198" lon="1.23714">
        <ele>402.4</ele>
        <time>2024-11-29T12:57:05Z</time>
      </trkpt>
      <trkpt lat="45.91982" lon="1.23713">
        <ele>402.4</ele>
        <time>2024-11-29T12:57:08Z</time>
      </trkpt>
      <trkpt lat="45.91983" lon="1.23716">
        <ele>402.3</ele>
        <time>2024-11-29T12:57:09Z</time>
      </trkpt>
      <trkpt lat="45.91984" lon="1.23721">
        <ele>402.3</ele>
        <time>2024-11-29T12:57:10Z</time>
      </trkpt>
      <trkpt lat="45.91987" lon="1.23727">
        <ele>402.3</ele>
        <time>2024-11-29T12:57:11Z</time>
      </trkpt>
      <trkpt lat="45.91989" lon="1.23733">
        <ele>402.2</ele>
        <time>2024-11-29T12:57:12Z</time>
      </trkpt>
      <trkpt lat="45.91994" lon="1.23739">
        <ele>402.3</ele>
        <time>2024-11-29T12:57:13Z</time>
      </trkpt>
      <trkpt lat="45.91999" lon="1.23745">
        <ele>402.4</ele>
        <time>2024-11-29T12:57:14Z</time>
      </trkpt>
      <trkpt lat="45.92003" lon="1.2375">
        <ele>402.5</ele>
        <time>2024-11-29T12:57:15Z</time>
      </trkpt>
      <trkpt lat="45.92007" lon="1.23755">
        <ele>402.6</ele>
        <time>2024-11-29T12:57:16Z</time>
      </trkpt>
      <trkpt lat="45.92012" lon="1.23761">
        <ele>402.9</ele>
        <time>2024-11-29T12:57:17Z</time>
      </trkpt>
      <trkpt lat="45.92015" lon="1.23766">
        <ele>403.2</ele>
        <time>2024-11-29T12:57:18Z</time>
      </trkpt>
      <trkpt lat="45.92018" lon="1.23772">
        <ele>403.5</ele>
        <time>2024-11-29T12:57:20Z</time>
      </trkpt>
      <trkpt lat="45.92021" lon="1.23778">
        <ele>403.8</ele>
        <time>2024-11-29T12:57:21Z</time>
      </trkpt>
      <trkpt lat="45.92021" lon="1.23786">
        <ele>404.2</ele>
        <time>2024-11-29T12:57:22Z</time>
      </trkpt>
      <trkpt lat="45.92022" lon="1.23792">
        <ele>404.5</ele>
        <time>2024-11-29T12:57:23Z</time>
      </trkpt>
      <trkpt lat="45.92023" lon="1.23798">
        <ele>404.9</ele>
        <time>2024-11-29T12:57:24Z</time>
      </trkpt>
      <trkpt lat="45.92023" lon="1.23804">
        <ele>405.2</ele>
        <time>2024-11-29T12:57:25Z</time>
      </trkpt>
      <trkpt lat="45.92023" lon="1.23811">
        <ele>405.6</ele>
        <time>2024-11-29T12:57:27Z</time>
      </trkpt>
      <trkpt lat="45.92023" lon="1.23818">
        <ele>406</ele>
        <time>2024-11-29T12:57:28Z</time>
      </trkpt>
      <trkpt lat="45.92023" lon="1.23824">
        <ele>406.4</ele>
        <time>2024-11-29T12:57:29Z</time>
      </trkpt>
      <trkpt lat="45.92023" lon="1.23829">
        <ele>406.7</ele>
        <time>2024-11-29T12:57:30Z</time>
      </trkpt>
      <trkpt lat="45.92023" lon="1.23835">
        <ele>407.1</ele>
        <time>2024-11-29T12:57:32Z</time>
      </trkpt>
      <trkpt lat="45.92022" lon="1.2384">
        <ele>407.4</ele>
        <time>2024-11-29T12:57:33Z</time>
      </trkpt>
      <trkpt lat="45.92022" lon="1.23845">
        <ele>407.7</ele>
        <time>2024-11-29T12:57:34Z</time>
      </trkpt>
      <trkpt lat="45.92021" lon="1.23849">
        <ele>408</ele>
        <time>2024-11-29T12:57:35Z</time>
      </trkpt>
      <trkpt lat="45.9202" lon="1.23855">
        <ele>408.4</ele>
        <time>2024-11-29T12:57:37Z</time>
      </trkpt>
      <trkpt lat="45.92019" lon="1.2386">
        <ele>408.7</ele>
        <time>2024-11-29T12:57:38Z</time>
      </trkpt>
      <trkpt lat="45.92018" lon="1.23866">
        <ele>409.1</ele>
        <time>2024-11-29T12:57:39Z</time>
      </trkpt>
      <trkpt lat="45.92018" lon="1.23871">
        <ele>409.3</ele>
        <time>2024-11-29T12:57:40Z</time>
      </trkpt>
      <trkpt lat="45.92018" lon="1.23878">
        <ele>409.7</ele>
        <time>2024-11-29T12:57:42Z</time>
      </trkpt>
      <trkpt lat="45.92018" lon="1.23883">
        <ele>410</ele>
        <time>2024-11-29T12:57:43Z</time>
      </trkpt>
      <trkpt lat="45.9202" lon="1.23888">
        <ele>410.2</ele>
        <time>2024-11-29T12:57:44Z</time>
      </trkpt>
      <trkpt lat="45.92021" lon="1.23893">
        <ele>410.5</ele>
        <time>2024-11-29T12:57:45Z</time>
      </trkpt>
      <trkpt lat="45.92023" lon="1.23897">
        <ele>410.6</ele>
        <time>2024-11-29T12:57:46Z</time>
      </trkpt>
      <trkpt lat="45.92025" lon="1.23901">
        <ele>410.7</ele>
        <time>2024-11-29T12:57:47Z</time>
      </trkpt>
      <trkpt lat="45.92028" lon="1.23906">
        <ele>410.8</ele>
        <time>2024-11-29T12:57:48Z</time>
      </trkpt>
      <trkpt lat="45.92031" lon="1.23913">
        <ele>410.8</ele>
        <time>2024-11-29T12:57:49Z</time>
      </trkpt>
      <trkpt lat="45.92034" lon="1.2392">
        <ele>410.7</ele>
        <time>2024-11-29T12:57:50Z</time>
      </trkpt>
      <trkpt lat="45.92036" lon="1.23925">
        <ele>410.6</ele>
        <time>2024-11-29T12:57:51Z</time>
      </trkpt>
      <trkpt lat="45.92039" lon="1.2393">
        <ele>410.5</ele>
        <time>2024-11-29T12:57:52Z</time>
      </trkpt>
      <trkpt lat="45.92041" lon="1.23935">
        <ele>410.4</ele>
        <time>2024-11-29T12:57:53Z</time>
      </trkpt>
      <trkpt lat="45.92043" lon="1.23939">
        <ele>410.3</ele>
        <time>2024-11-29T12:57:54Z</time>
      </trkpt>
      <trkpt lat="45.92042" lon="1.23943">
        <ele>410.2</ele>
        <time>2024-11-29T12:57:55Z</time>
      </trkpt>
      <trkpt lat="45.9204" lon="1.23947">
        <ele>410.1</ele>
        <time>2024-11-29T12:57:56Z</time>
      </trkpt>
      <trkpt lat="45.92037" lon="1.23951">
        <ele>410</ele>
        <time>2024-11-29T12:57:57Z</time>
      </trkpt>
      <trkpt lat="45.92033" lon="1.23956">
        <ele>409.8</ele>
        <time>2024-11-29T12:57:58Z</time>
      </trkpt>
      <trkpt lat="45.9203" lon="1.2396">
        <ele>409.6</ele>
        <time>2024-11-29T12:57:59Z</time>
      </trkpt>
      <trkpt lat="45.92026" lon="1.23964">
        <ele>409.5</ele>
        <time>2024-11-29T12:58:00Z</time>
      </trkpt>
      <trkpt lat="45.92023" lon="1.23969">
        <ele>409.3</ele>
        <time>2024-11-29T12:58:01Z</time>
      </trkpt>
      <trkpt lat="45.92019" lon="1.23974">
        <ele>409</ele>
        <time>2024-11-29T12:58:02Z</time>
      </trkpt>
      <trkpt lat="45.92015" lon="1.23979">
        <ele>408.7</ele>
        <time>2024-11-29T12:58:03Z</time>
      </trkpt>
      <trkpt lat="45.92011" lon="1.23983">
        <ele>408.3</ele>
        <time>2024-11-29T12:58:04Z</time>
      </trkpt>
      <trkpt lat="45.92008" lon="1.23988">
        <ele>407.9</ele>
        <time>2024-11-29T12:58:05Z</time>
      </trkpt>
      <trkpt lat="45.92006" lon="1.23992">
        <ele>407.6</ele>
        <time>2024-11-29T12:58:06Z</time>
      </trkpt>
      <trkpt lat="45.92004" lon="1.23997">
        <ele>407.1</ele>
        <time>2024-11-29T12:58:07Z</time>
      </trkpt>
      <trkpt lat="45.92004" lon="1.24003">
        <ele>406.5</ele>
        <time>2024-11-29T12:58:08Z</time>
      </trkpt>
      <trkpt lat="45.92002" lon="1.24008">
        <ele>405.9</ele>
        <time>2024-11-29T12:58:09Z</time>
      </trkpt>
      <trkpt lat="45.92001" lon="1.24013">
        <ele>405.3</ele>
        <time>2024-11-29T12:58:10Z</time>
      </trkpt>
      <trkpt lat="45.92" lon="1.24018">
        <ele>404.6</ele>
        <time>2024-11-29T12:58:11Z</time>
      </trkpt>
      <trkpt lat="45.92" lon="1.24024">
        <ele>403.7</ele>
        <time>2024-11-29T12:58:12Z</time>
      </trkpt>
      <trkpt lat="45.91998" lon="1.24032">
        <ele>402.5</ele>
        <time>2024-11-29T12:58:13Z</time>
      </trkpt>
      <trkpt lat="45.91997" lon="1.24041">
        <ele>401.3</ele>
        <time>2024-11-29T12:58:14Z</time>
      </trkpt>
      <trkpt lat="45.91996" lon="1.24051">
        <ele>399.9</ele>
        <time>2024-11-29T12:58:15Z</time>
      </trkpt>
      <trkpt lat="45.91993" lon="1.24061">
        <ele>398.5</ele>
        <time>2024-11-29T12:58:16Z</time>
      </trkpt>
      <trkpt lat="45.91991" lon="1.2407">
        <ele>397.5</ele>
        <time>2024-11-29T12:58:17Z</time>
      </trkpt>
      <trkpt lat="45.91987" lon="1.2408">
        <ele>396.5</ele>
        <time>2024-11-29T12:58:18Z</time>
      </trkpt>
      <trkpt lat="45.91983" lon="1.2409">
        <ele>395.6</ele>
        <time>2024-11-29T12:58:19Z</time>
      </trkpt>
      <trkpt lat="45.91978" lon="1.24098">
        <ele>394.8</ele>
        <time>2024-11-29T12:58:20Z</time>
      </trkpt>
      <trkpt lat="45.91973" lon="1.24106">
        <ele>394.1</ele>
        <time>2024-11-29T12:58:21Z</time>
      </trkpt>
      <trkpt lat="45.91967" lon="1.24113">
        <ele>393.5</ele>
        <time>2024-11-29T12:58:22Z</time>
      </trkpt>
      <trkpt lat="45.91961" lon="1.24119">
        <ele>392.9</ele>
        <time>2024-11-29T12:58:23Z</time>
      </trkpt>
      <trkpt lat="45.91954" lon="1.24124">
        <ele>392.2</ele>
        <time>2024-11-29T12:58:24Z</time>
      </trkpt>
      <trkpt lat="45.91947" lon="1.24128">
        <ele>391.6</ele>
        <time>2024-11-29T12:58:25Z</time>
      </trkpt>
      <trkpt lat="45.9194" lon="1.24132">
        <ele>391</ele>
        <time>2024-11-29T12:58:26Z</time>
      </trkpt>
      <trkpt lat="45.91932" lon="1.24135">
        <ele>390.2</ele>
        <time>2024-11-29T12:58:27Z</time>
      </trkpt>
      <trkpt lat="45.91925" lon="1.24138">
        <ele>389.6</ele>
        <time>2024-11-29T12:58:28Z</time>
      </trkpt>
      <trkpt lat="45.91918" lon="1.24142">
        <ele>388.9</ele>
        <time>2024-11-29T12:58:29Z</time>
      </trkpt>
      <trkpt lat="45.91911" lon="1.24144">
        <ele>388.2</ele>
        <time>2024-11-29T12:58:30Z</time>
      </trkpt>
      <trkpt lat="45.91904" lon="1.24147">
        <ele>387.6</ele>
        <time>2024-11-29T12:58:31Z</time>
      </trkpt>
      <trkpt lat="45.91897" lon="1.24149">
        <ele>387</ele>
        <time>2024-11-29T12:58:32Z</time>
      </trkpt>
      <trkpt lat="45.91891" lon="1.24151">
        <ele>386.4</ele>
        <time>2024-11-29T12:58:33Z</time>
      </trkpt>
      <trkpt lat="45.91885" lon="1.24154">
        <ele>385.9</ele>
        <time>2024-11-29T12:58:34Z</time>
      </trkpt>
      <trkpt lat="45.91879" lon="1.24157">
        <ele>385.3</ele>
        <time>2024-11-29T12:58:35Z</time>
      </trkpt>
      <trkpt lat="45.91873" lon="1.24161">
        <ele>384.6</ele>
        <time>2024-11-29T12:58:36Z</time>
      </trkpt>
      <trkpt lat="45.91868" lon="1.24165">
        <ele>383.9</ele>
        <time>2024-11-29T12:58:37Z</time>
      </trkpt>
      <trkpt lat="45.91863" lon="1.24169">
        <ele>383.2</ele>
        <time>2024-11-29T12:58:38Z</time>
      </trkpt>
      <trkpt lat="45.91859" lon="1.24173">
        <ele>382.5</ele>
        <time>2024-11-29T12:58:39Z</time>
      </trkpt>
      <trkpt lat="45.91855" lon="1.24178">
        <ele>381.8</ele>
        <time>2024-11-29T12:58:40Z</time>
      </trkpt>
      <trkpt lat="45.91851" lon="1.24182">
        <ele>381.1</ele>
        <time>2024-11-29T12:58:41Z</time>
      </trkpt>
      <trkpt lat="45.91846" lon="1.24187">
        <ele>380.3</ele>
        <time>2024-11-29T12:58:42Z</time>
      </trkpt>
      <trkpt lat="45.9184" lon="1.24191">
        <ele>379.3</ele>
        <time>2024-11-29T12:58:43Z</time>
      </trkpt>
      <trkpt lat="45.91835" lon="1.24195">
        <ele>378.4</ele>
        <time>2024-11-29T12:58:44Z</time>
      </trkpt>
      <trkpt lat="45.91832" lon="1.24198">
        <ele>377.9</ele>
        <time>2024-11-29T12:58:45Z</time>
      </trkpt>
      <trkpt lat="45.91829" lon="1.24202">
        <ele>377.3</ele>
        <time>2024-11-29T12:58:46Z</time>
      </trkpt>
      <trkpt lat="45.91829" lon="1.24206">
        <ele>377.1</ele>
        <time>2024-11-29T12:58:47Z</time>
      </trkpt>
      <trkpt lat="45.91831" lon="1.2421">
        <ele>377.1</ele>
        <time>2024-11-29T12:58:48Z</time>
      </trkpt>
      <trkpt lat="45.91834" lon="1.24214">
        <ele>377.1</ele>
        <time>2024-11-29T12:58:49Z</time>
      </trkpt>
      <trkpt lat="45.91837" lon="1.24217">
        <ele>377.1</ele>
        <time>2024-11-29T12:58:50Z</time>
      </trkpt>
      <trkpt lat="45.91841" lon="1.24221">
        <ele>377.1</ele>
        <time>2024-11-29T12:58:51Z</time>
      </trkpt>
      <trkpt lat="45.91845" lon="1.24225">
        <ele>377.2</ele>
        <time>2024-11-29T12:58:52Z</time>
      </trkpt>
      <trkpt lat="45.91849" lon="1.2423">
        <ele>377.3</ele>
        <time>2024-11-29T12:58:53Z</time>
      </trkpt>
      <trkpt lat="45.91853" lon="1.24235">
        <ele>377.4</ele>
        <time>2024-11-29T12:58:54Z</time>
      </trkpt>
      <trkpt lat="45.91856" lon="1.24242">
        <ele>377.4</ele>
        <time>2024-11-29T12:58:55Z</time>
      </trkpt>
      <trkpt lat="45.91859" lon="1.24249">
        <ele>377.5</ele>
        <time>2024-11-29T12:58:56Z</time>
      </trkpt>
      <trkpt lat="45.91862" lon="1.24256">
        <ele>377.6</ele>
        <time>2024-11-29T12:58:57Z</time>
      </trkpt>
      <trkpt lat="45.91865" lon="1.24262">
        <ele>377.7</ele>
        <time>2024-11-29T12:58:58Z</time>
      </trkpt>
      <trkpt lat="45.91869" lon="1.24269">
        <ele>377.7</ele>
        <time>2024-11-29T12:58:59Z</time>
      </trkpt>
      <trkpt lat="45.91872" lon="1.24276">
        <ele>377.8</ele>
        <time>2024-11-29T12:59:00Z</time>
      </trkpt>
      <trkpt lat="45.91875" lon="1.24283">
        <ele>377.8</ele>
        <time>2024-11-29T12:59:01Z</time>
      </trkpt>
      <trkpt lat="45.91878" lon="1.2429">
        <ele>377.9</ele>
        <time>2024-11-29T12:59:02Z</time>
      </trkpt>
      <trkpt lat="45.91881" lon="1.24297">
        <ele>378</ele>
        <time>2024-11-29T12:59:03Z</time>
      </trkpt>
      <trkpt lat="45.91885" lon="1.24303">
        <ele>378.2</ele>
        <time>2024-11-29T12:59:04Z</time>
      </trkpt>
      <trkpt lat="45.91888" lon="1.24309">
        <ele>378.4</ele>
        <time>2024-11-29T12:59:05Z</time>
      </trkpt>
      <trkpt lat="45.91891" lon="1.24315">
        <ele>378.6</ele>
        <time>2024-11-29T12:59:06Z</time>
      </trkpt>
      <trkpt lat="45.91894" lon="1.2432">
        <ele>378.9</ele>
        <time>2024-11-29T12:59:07Z</time>
      </trkpt>
      <trkpt lat="45.91897" lon="1.24325">
        <ele>379.2</ele>
        <time>2024-11-29T12:59:08Z</time>
      </trkpt>
      <trkpt lat="45.919" lon="1.2433">
        <ele>379.5</ele>
        <time>2024-11-29T12:59:09Z</time>
      </trkpt>
      <trkpt lat="45.91903" lon="1.24334">
        <ele>379.8</ele>
        <time>2024-11-29T12:59:10Z</time>
      </trkpt>
      <trkpt lat="45.91906" lon="1.2434">
        <ele>380.2</ele>
        <time>2024-11-29T12:59:11Z</time>
      </trkpt>
      <trkpt lat="45.91909" lon="1.24345">
        <ele>380.5</ele>
        <time>2024-11-29T12:59:12Z</time>
      </trkpt>
      <trkpt lat="45.91912" lon="1.2435">
        <ele>380.7</ele>
        <time>2024-11-29T12:59:13Z</time>
      </trkpt>
      <trkpt lat="45.91916" lon="1.24354">
        <ele>380.8</ele>
        <time>2024-11-29T12:59:14Z</time>
      </trkpt>
      <trkpt lat="45.9192" lon="1.24359">
        <ele>380.9</ele>
        <time>2024-11-29T12:59:15Z</time>
      </trkpt>
      <trkpt lat="45.91924" lon="1.24365">
        <ele>380.8</ele>
        <time>2024-11-29T12:59:16Z</time>
      </trkpt>
      <trkpt lat="45.91928" lon="1.24371">
        <ele>380.7</ele>
        <time>2024-11-29T12:59:17Z</time>
      </trkpt>
      <trkpt lat="45.91931" lon="1.24377">
        <ele>380.5</ele>
        <time>2024-11-29T12:59:18Z</time>
      </trkpt>
      <trkpt lat="45.91935" lon="1.24383">
        <ele>380.2</ele>
        <time>2024-11-29T12:59:19Z</time>
      </trkpt>
      <trkpt lat="45.9194" lon="1.2439">
        <ele>379.8</ele>
        <time>2024-11-29T12:59:20Z</time>
      </trkpt>
      <trkpt lat="45.91944" lon="1.24398">
        <ele>379.4</ele>
        <time>2024-11-29T12:59:21Z</time>
      </trkpt>
      <trkpt lat="45.91949" lon="1.24406">
        <ele>379.1</ele>
        <time>2024-11-29T12:59:22Z</time>
      </trkpt>
      <trkpt lat="45.91952" lon="1.24414">
        <ele>378.9</ele>
        <time>2024-11-29T12:59:23Z</time>
      </trkpt>
      <trkpt lat="45.91954" lon="1.24422">
        <ele>378.7</ele>
        <time>2024-11-29T12:59:24Z</time>
      </trkpt>
      <trkpt lat="45.91955" lon="1.2443">
        <ele>378.6</ele>
        <time>2024-11-29T12:59:25Z</time>
      </trkpt>
      <trkpt lat="45.91956" lon="1.24438">
        <ele>378.6</ele>
        <time>2024-11-29T12:59:26Z</time>
      </trkpt>
      <trkpt lat="45.91956" lon="1.24446">
        <ele>378.7</ele>
        <time>2024-11-29T12:59:27Z</time>
      </trkpt>
      <trkpt lat="45.91954" lon="1.24454">
        <ele>378.8</ele>
        <time>2024-11-29T12:59:28Z</time>
      </trkpt>
      <trkpt lat="45.91953" lon="1.24461">
        <ele>379</ele>
        <time>2024-11-29T12:59:29Z</time>
      </trkpt>
      <trkpt lat="45.91951" lon="1.24468">
        <ele>379.3</ele>
        <time>2024-11-29T12:59:30Z</time>
      </trkpt>
      <trkpt lat="45.91951" lon="1.24474">
        <ele>379.6</ele>
        <time>2024-11-29T12:59:31Z</time>
      </trkpt>
      <trkpt lat="45.91951" lon="1.2448">
        <ele>379.8</ele>
        <time>2024-11-29T12:59:32Z</time>
      </trkpt>
      <trkpt lat="45.91953" lon="1.24485">
        <ele>380.1</ele>
        <time>2024-11-29T12:59:33Z</time>
      </trkpt>
      <trkpt lat="45.91954" lon="1.24491">
        <ele>380.4</ele>
        <time>2024-11-29T12:59:34Z</time>
      </trkpt>
      <trkpt lat="45.91957" lon="1.24496">
        <ele>380.7</ele>
        <time>2024-11-29T12:59:35Z</time>
      </trkpt>
      <trkpt lat="45.91958" lon="1.24501">
        <ele>380.9</ele>
        <time>2024-11-29T12:59:36Z</time>
      </trkpt>
      <trkpt lat="45.9196" lon="1.24507">
        <ele>381.2</ele>
        <time>2024-11-29T12:59:37Z</time>
      </trkpt>
      <trkpt lat="45.91961" lon="1.24512">
        <ele>381.4</ele>
        <time>2024-11-29T12:59:38Z</time>
      </trkpt>
      <trkpt lat="45.91962" lon="1.24517">
        <ele>381.6</ele>
        <time>2024-11-29T12:59:39Z</time>
      </trkpt>
      <trkpt lat="45.91963" lon="1.24522">
        <ele>381.9</ele>
        <time>2024-11-29T12:59:40Z</time>
      </trkpt>
      <trkpt lat="45.91964" lon="1.24527">
        <ele>382.1</ele>
        <time>2024-11-29T12:59:41Z</time>
      </trkpt>
      <trkpt lat="45.91965" lon="1.24532">
        <ele>382.3</ele>
        <time>2024-11-29T12:59:42Z</time>
      </trkpt>
      <trkpt lat="45.91966" lon="1.24537">
        <ele>382.5</ele>
        <time>2024-11-29T12:59:43Z</time>
      </trkpt>
      <trkpt lat="45.91967" lon="1.24542">
        <ele>382.7</ele>
        <time>2024-11-29T12:59:44Z</time>
      </trkpt>
      <trkpt lat="45.91968" lon="1.24547">
        <ele>382.9</ele>
        <time>2024-11-29T12:59:45Z</time>
      </trkpt>
      <trkpt lat="45.91968" lon="1.24552">
        <ele>383.1</ele>
        <time>2024-11-29T12:59:46Z</time>
      </trkpt>
      <trkpt lat="45.91969" lon="1.24557">
        <ele>383.3</ele>
        <time>2024-11-29T12:59:47Z</time>
      </trkpt>
      <trkpt lat="45.91969" lon="1.24562">
        <ele>383.5</ele>
        <time>2024-11-29T12:59:48Z</time>
      </trkpt>
      <trkpt lat="45.9197" lon="1.24567">
        <ele>383.7</ele>
        <time>2024-11-29T12:59:49Z</time>
      </trkpt>
      <trkpt lat="45.9197" lon="1.24572">
        <ele>383.9</ele>
        <time>2024-11-29T12:59:50Z</time>
      </trkpt>
      <trkpt lat="45.9197" lon="1.24577">
        <ele>384.1</ele>
        <time>2024-11-29T12:59:51Z</time>
      </trkpt>
      <trkpt lat="45.91971" lon="1.24581">
        <ele>384.3</ele>
        <time>2024-11-29T12:59:52Z</time>
      </trkpt>
      <trkpt lat="45.91971" lon="1.24586">
        <ele>384.6</ele>
        <time>2024-11-29T12:59:53Z</time>
      </trkpt>
      <trkpt lat="45.91972" lon="1.24591">
        <ele>384.9</ele>
        <time>2024-11-29T12:59:54Z</time>
      </trkpt>
      <trkpt lat="45.91972" lon="1.24595">
        <ele>385.1</ele>
        <time>2024-11-29T12:59:55Z</time>
      </trkpt>
      <trkpt lat="45.91973" lon="1.246">
        <ele>385.4</ele>
        <time>2024-11-29T12:59:56Z</time>
      </trkpt>
      <trkpt lat="45.91973" lon="1.24604">
        <ele>385.7</ele>
        <time>2024-11-29T12:59:57Z</time>
      </trkpt>
      <trkpt lat="45.91973" lon="1.24608">
        <ele>385.9</ele>
        <time>2024-11-29T12:59:58Z</time>
      </trkpt>
      <trkpt lat="45.91973" lon="1.24612">
        <ele>386.2</ele>
        <time>2024-11-29T12:59:59Z</time>
      </trkpt>
      <trkpt lat="45.91973" lon="1.24616">
        <ele>386.4</ele>
        <time>2024-11-29T13:00:00Z</time>
      </trkpt>
      <trkpt lat="45.91973" lon="1.2462">
        <ele>386.7</ele>
        <time>2024-11-29T13:00:01Z</time>
      </trkpt>
      <trkpt lat="45.91973" lon="1.24625">
        <ele>387</ele>
        <time>2024-11-29T13:00:02Z</time>
      </trkpt>
      <trkpt lat="45.91973" lon="1.24629">
        <ele>387.2</ele>
        <time>2024-11-29T13:00:03Z</time>
      </trkpt>
      <trkpt lat="45.91974" lon="1.24633">
        <ele>387.5</ele>
        <time>2024-11-29T13:00:04Z</time>
      </trkpt>
      <trkpt lat="45.91976" lon="1.24636">
        <ele>387.7</ele>
        <time>2024-11-29T13:00:05Z</time>
      </trkpt>
      <trkpt lat="45.91981" lon="1.24637">
        <ele>388</ele>
        <time>2024-11-29T13:00:07Z</time>
      </trkpt>
      <trkpt lat="45.91984" lon="1.24636">
        <ele>388.1</ele>
        <time>2024-11-29T13:00:08Z</time>
      </trkpt>
      <trkpt lat="45.91987" lon="1.24635">
        <ele>388.2</ele>
        <time>2024-11-29T13:00:09Z</time>
      </trkpt>
      <trkpt lat="45.9199" lon="1.24633">
        <ele>388.4</ele>
        <time>2024-11-29T13:00:10Z</time>
      </trkpt>
      <trkpt lat="45.91993" lon="1.24631">
        <ele>388.5</ele>
        <time>2024-11-29T13:00:11Z</time>
      </trkpt>
      <trkpt lat="45.91997" lon="1.24629">
        <ele>388.7</ele>
        <time>2024-11-29T13:00:12Z</time>
      </trkpt>
      <trkpt lat="45.92001" lon="1.24627">
        <ele>388.8</ele>
        <time>2024-11-29T13:00:13Z</time>
      </trkpt>
      <trkpt lat="45.92005" lon="1.24625">
        <ele>389</ele>
        <time>2024-11-29T13:00:14Z</time>
      </trkpt>
      <trkpt lat="45.92009" lon="1.24623">
        <ele>389.2</ele>
        <time>2024-11-29T13:00:15Z</time>
      </trkpt>
      <trkpt lat="45.92012" lon="1.24622">
        <ele>389.4</ele>
        <time>2024-11-29T13:00:16Z</time>
      </trkpt>
      <trkpt lat="45.92016" lon="1.24621">
        <ele>389.6</ele>
        <time>2024-11-29T13:00:17Z</time>
      </trkpt>
      <trkpt lat="45.92019" lon="1.2462">
        <ele>389.7</ele>
        <time>2024-11-29T13:00:18Z</time>
      </trkpt>
      <trkpt lat="45.92023" lon="1.24619">
        <ele>389.9</ele>
        <time>2024-11-29T13:00:19Z</time>
      </trkpt>
      <trkpt lat="45.92026" lon="1.24617">
        <ele>390.1</ele>
        <time>2024-11-29T13:00:20Z</time>
      </trkpt>
      <trkpt lat="45.9203" lon="1.24616">
        <ele>390.3</ele>
        <time>2024-11-29T13:00:21Z</time>
      </trkpt>
      <trkpt lat="45.92033" lon="1.24613">
        <ele>390.5</ele>
        <time>2024-11-29T13:00:22Z</time>
      </trkpt>
      <trkpt lat="45.92037" lon="1.24611">
        <ele>390.7</ele>
        <time>2024-11-29T13:00:23Z</time>
      </trkpt>
      <trkpt lat="45.9204" lon="1.24609">
        <ele>390.9</ele>
        <time>2024-11-29T13:00:24Z</time>
      </trkpt>
      <trkpt lat="45.92043" lon="1.24607">
        <ele>391.1</ele>
        <time>2024-11-29T13:00:25Z</time>
      </trkpt>
      <trkpt lat="45.92047" lon="1.24605">
        <ele>391.3</ele>
        <time>2024-11-29T13:00:26Z</time>
      </trkpt>
      <trkpt lat="45.92051" lon="1.24602">
        <ele>391.6</ele>
        <time>2024-11-29T13:00:27Z</time>
      </trkpt>
      <trkpt lat="45.92055" lon="1.246">
        <ele>391.8</ele>
        <time>2024-11-29T13:00:28Z</time>
      </trkpt>
      <trkpt lat="45.92059" lon="1.24598">
        <ele>392.1</ele>
        <time>2024-11-29T13:00:29Z</time>
      </trkpt>
      <trkpt lat="45.92062" lon="1.24597">
        <ele>392.2</ele>
        <time>2024-11-29T13:00:30Z</time>
      </trkpt>
      <trkpt lat="45.92066" lon="1.24595">
        <ele>392.5</ele>
        <time>2024-11-29T13:00:31Z</time>
      </trkpt>
      <trkpt lat="45.92069" lon="1.24594">
        <ele>392.6</ele>
        <time>2024-11-29T13:00:32Z</time>
      </trkpt>
      <trkpt lat="45.92073" lon="1.24592">
        <ele>392.8</ele>
        <time>2024-11-29T13:00:33Z</time>
      </trkpt>
      <trkpt lat="45.92077" lon="1.2459">
        <ele>393.1</ele>
        <time>2024-11-29T13:00:34Z</time>
      </trkpt>
      <trkpt lat="45.92081" lon="1.24588">
        <ele>393.3</ele>
        <time>2024-11-29T13:00:35Z</time>
      </trkpt>
      <trkpt lat="45.92085" lon="1.24586">
        <ele>393.5</ele>
        <time>2024-11-29T13:00:36Z</time>
      </trkpt>
      <trkpt lat="45.92089" lon="1.24584">
        <ele>393.7</ele>
        <time>2024-11-29T13:00:37Z</time>
      </trkpt>
      <trkpt lat="45.92093" lon="1.24582">
        <ele>393.8</ele>
        <time>2024-11-29T13:00:38Z</time>
      </trkpt>
      <trkpt lat="45.92097" lon="1.24581">
        <ele>394</ele>
        <time>2024-11-29T13:00:39Z</time>
      </trkpt>
      <trkpt lat="45.921" lon="1.24579">
        <ele>394.1</ele>
        <time>2024-11-29T13:00:40Z</time>
      </trkpt>
      <trkpt lat="45.92104" lon="1.24578">
        <ele>394.2</ele>
        <time>2024-11-29T13:00:41Z</time>
      </trkpt>
      <trkpt lat="45.92108" lon="1.24576">
        <ele>394.3</ele>
        <time>2024-11-29T13:00:42Z</time>
      </trkpt>
      <trkpt lat="45.92112" lon="1.24574">
        <ele>394.4</ele>
        <time>2024-11-29T13:00:43Z</time>
      </trkpt>
      <trkpt lat="45.92116" lon="1.24573">
        <ele>394.5</ele>
        <time>2024-11-29T13:00:44Z</time>
      </trkpt>
      <trkpt lat="45.9212" lon="1.24571">
        <ele>394.6</ele>
        <time>2024-11-29T13:00:45Z</time>
      </trkpt>
      <trkpt lat="45.92125" lon="1.2457">
        <ele>394.7</ele>
        <time>2024-11-29T13:00:46Z</time>
      </trkpt>
      <trkpt lat="45.92129" lon="1.24568">
        <ele>394.8</ele>
        <time>2024-11-29T13:00:47Z</time>
      </trkpt>
      <trkpt lat="45.92133" lon="1.24567">
        <ele>394.9</ele>
        <time>2024-11-29T13:00:48Z</time>
      </trkpt>
      <trkpt lat="45.92138" lon="1.24565">
        <ele>395</ele>
        <time>2024-11-29T13:00:49Z</time>
      </trkpt>
      <trkpt lat="45.92143" lon="1.24564">
        <ele>395.2</ele>
        <time>2024-11-29T13:00:50Z</time>
      </trkpt>
      <trkpt lat="45.92147" lon="1.24562">
        <ele>395.3</ele>
        <time>2024-11-29T13:00:51Z</time>
      </trkpt>
      <trkpt lat="45.92152" lon="1.2456">
        <ele>395.4</ele>
        <time>2024-11-29T13:00:52Z</time>
      </trkpt>
      <trkpt lat="45.92157" lon="1.24558">
        <ele>395.6</ele>
        <time>2024-11-29T13:00:53Z</time>
      </trkpt>
      <trkpt lat="45.92161" lon="1.24556">
        <ele>395.7</ele>
        <time>2024-11-29T13:00:54Z</time>
      </trkpt>
      <trkpt lat="45.92166" lon="1.24554">
        <ele>395.9</ele>
        <time>2024-11-29T13:00:55Z</time>
      </trkpt>
      <trkpt lat="45.9217" lon="1.24552">
        <ele>396</ele>
        <time>2024-11-29T13:00:56Z</time>
      </trkpt>
      <trkpt lat="45.92175" lon="1.2455">
        <ele>396.1</ele>
        <time>2024-11-29T13:00:57Z</time>
      </trkpt>
      <trkpt lat="45.92179" lon="1.24548">
        <ele>396.3</ele>
        <time>2024-11-29T13:00:58Z</time>
      </trkpt>
      <trkpt lat="45.92184" lon="1.24546">
        <ele>396.4</ele>
        <time>2024-11-29T13:00:59Z</time>
      </trkpt>
      <trkpt lat="45.92189" lon="1.24545">
        <ele>396.6</ele>
        <time>2024-11-29T13:01:00Z</time>
      </trkpt>
      <trkpt lat="45.92193" lon="1.24543">
        <ele>396.7</ele>
        <time>2024-11-29T13:01:01Z</time>
      </trkpt>
      <trkpt lat="45.92198" lon="1.24541">
        <ele>396.9</ele>
        <time>2024-11-29T13:01:02Z</time>
      </trkpt>
      <trkpt lat="45.92202" lon="1.24539">
        <ele>397.1</ele>
        <time>2024-11-29T13:01:03Z</time>
      </trkpt>
      <trkpt lat="45.92207" lon="1.24538">
        <ele>397.3</ele>
        <time>2024-11-29T13:01:04Z</time>
      </trkpt>
      <trkpt lat="45.92212" lon="1.24536">
        <ele>397.5</ele>
        <time>2024-11-29T13:01:05Z</time>
      </trkpt>
      <trkpt lat="45.92216" lon="1.24534">
        <ele>397.7</ele>
        <time>2024-11-29T13:01:06Z</time>
      </trkpt>
      <trkpt lat="45.9222" lon="1.24532">
        <ele>397.9</ele>
        <time>2024-11-29T13:01:07Z</time>
      </trkpt>
      <trkpt lat="45.92224" lon="1.24531">
        <ele>398.2</ele>
        <time>2024-11-29T13:01:08Z</time>
      </trkpt>
      <trkpt lat="45.92228" lon="1.24529">
        <ele>398.4</ele>
        <time>2024-11-29T13:01:09Z</time>
      </trkpt>
      <trkpt lat="45.92232" lon="1.24528">
        <ele>398.7</ele>
        <time>2024-11-29T13:01:10Z</time>
      </trkpt>
      <trkpt lat="45.92237" lon="1.24526">
        <ele>399</ele>
        <time>2024-11-29T13:01:11Z</time>
      </trkpt>
      <trkpt lat="45.92241" lon="1.24525">
        <ele>399.3</ele>
        <time>2024-11-29T13:01:12Z</time>
      </trkpt>
      <trkpt lat="45.92245" lon="1.24523">
        <ele>399.6</ele>
        <time>2024-11-29T13:01:13Z</time>
      </trkpt>
      <trkpt lat="45.9225" lon="1.24521">
        <ele>400</ele>
        <time>2024-11-29T13:01:14Z</time>
      </trkpt>
      <trkpt lat="45.92254" lon="1.2452">
        <ele>400.3</ele>
        <time>2024-11-29T13:01:15Z</time>
      </trkpt>
      <trkpt lat="45.92258" lon="1.24519">
        <ele>400.6</ele>
        <time>2024-11-29T13:01:16Z</time>
      </trkpt>
      <trkpt lat="45.92262" lon="1.24518">
        <ele>400.9</ele>
        <time>2024-11-29T13:01:18Z</time>
      </trkpt>
      <trkpt lat="45.92266" lon="1.24517">
        <ele>401.2</ele>
        <time>2024-11-29T13:01:19Z</time>
      </trkpt>
      <trkpt lat="45.92269" lon="1.24514">
        <ele>401.5</ele>
        <time>2024-11-29T13:01:20Z</time>
      </trkpt>
      <trkpt lat="45.92273" lon="1.24511">
        <ele>401.8</ele>
        <time>2024-11-29T13:01:21Z</time>
      </trkpt>
      <trkpt lat="45.92276" lon="1.24508">
        <ele>402</ele>
        <time>2024-11-29T13:01:22Z</time>
      </trkpt>
      <trkpt lat="45.92279" lon="1.24506">
        <ele>402.3</ele>
        <time>2024-11-29T13:01:23Z</time>
      </trkpt>
      <trkpt lat="45.92283" lon="1.24503">
        <ele>402.6</ele>
        <time>2024-11-29T13:01:24Z</time>
      </trkpt>
      <trkpt lat="45.92286" lon="1.24501">
        <ele>402.8</ele>
        <time>2024-11-29T13:01:25Z</time>
      </trkpt>
      <trkpt lat="45.9229" lon="1.24499">
        <ele>403.1</ele>
        <time>2024-11-29T13:01:26Z</time>
      </trkpt>
      <trkpt lat="45.92294" lon="1.24498">
        <ele>403.3</ele>
        <time>2024-11-29T13:01:27Z</time>
      </trkpt>
      <trkpt lat="45.92297" lon="1.24496">
        <ele>403.6</ele>
        <time>2024-11-29T13:01:28Z</time>
      </trkpt>
      <trkpt lat="45.92302" lon="1.24495">
        <ele>403.9</ele>
        <time>2024-11-29T13:01:29Z</time>
      </trkpt>
      <trkpt lat="45.92306" lon="1.24493">
        <ele>404.1</ele>
        <time>2024-11-29T13:01:30Z</time>
      </trkpt>
      <trkpt lat="45.9231" lon="1.24491">
        <ele>404.4</ele>
        <time>2024-11-29T13:01:31Z</time>
      </trkpt>
      <trkpt lat="45.92314" lon="1.2449">
        <ele>404.6</ele>
        <time>2024-11-29T13:01:32Z</time>
      </trkpt>
      <trkpt lat="45.92318" lon="1.24489">
        <ele>404.8</ele>
        <time>2024-11-29T13:01:33Z</time>
      </trkpt>
      <trkpt lat="45.92322" lon="1.24487">
        <ele>405.1</ele>
        <time>2024-11-29T13:01:34Z</time>
      </trkpt>
      <trkpt lat="45.92327" lon="1.24486">
        <ele>405.4</ele>
        <time>2024-11-29T13:01:35Z</time>
      </trkpt>
      <trkpt lat="45.92331" lon="1.24484">
        <ele>405.7</ele>
        <time>2024-11-29T13:01:36Z</time>
      </trkpt>
      <trkpt lat="45.92335" lon="1.24482">
        <ele>405.9</ele>
        <time>2024-11-29T13:01:37Z</time>
      </trkpt>
      <trkpt lat="45.92339" lon="1.24481">
        <ele>406.2</ele>
        <time>2024-11-29T13:01:38Z</time>
      </trkpt>
      <trkpt lat="45.92343" lon="1.24478">
        <ele>406.5</ele>
        <time>2024-11-29T13:01:39Z</time>
      </trkpt>
      <trkpt lat="45.92347" lon="1.24476">
        <ele>406.7</ele>
        <time>2024-11-29T13:01:40Z</time>
      </trkpt>
      <trkpt lat="45.92351" lon="1.24474">
        <ele>407</ele>
        <time>2024-11-29T13:01:41Z</time>
      </trkpt>
      <trkpt lat="45.92355" lon="1.24472">
        <ele>407.1</ele>
        <time>2024-11-29T13:01:42Z</time>
      </trkpt>
      <trkpt lat="45.92359" lon="1.2447">
        <ele>407.3</ele>
        <time>2024-11-29T13:01:43Z</time>
      </trkpt>
      <trkpt lat="45.92363" lon="1.24468">
        <ele>407.4</ele>
        <time>2024-11-29T13:01:44Z</time>
      </trkpt>
      <trkpt lat="45.92369" lon="1.24464">
        <ele>407.5</ele>
        <time>2024-11-29T13:01:45Z</time>
      </trkpt>
      <trkpt lat="45.92373" lon="1.24462">
        <ele>407.6</ele>
        <time>2024-11-29T13:01:46Z</time>
      </trkpt>
      <trkpt lat="45.92378" lon="1.24459">
        <ele>407.6</ele>
        <time>2024-11-29T13:01:47Z</time>
      </trkpt>
      <trkpt lat="45.92383" lon="1.24456">
        <ele>407.6</ele>
        <time>2024-11-29T13:01:48Z</time>
      </trkpt>
      <trkpt lat="45.92388" lon="1.24453">
        <ele>407.6</ele>
        <time>2024-11-29T13:01:49Z</time>
      </trkpt>
      <trkpt lat="45.92393" lon="1.2445">
        <ele>407.6</ele>
        <time>2024-11-29T13:01:50Z</time>
      </trkpt>
      <trkpt lat="45.92398" lon="1.24446">
        <ele>407.5</ele>
        <time>2024-11-29T13:01:51Z</time>
      </trkpt>
      <trkpt lat="45.92404" lon="1.24443">
        <ele>407.4</ele>
        <time>2024-11-29T13:01:52Z</time>
      </trkpt>
      <trkpt lat="45.92409" lon="1.2444">
        <ele>407.2</ele>
        <time>2024-11-29T13:01:53Z</time>
      </trkpt>
      <trkpt lat="45.92415" lon="1.24437">
        <ele>407</ele>
        <time>2024-11-29T13:01:54Z</time>
      </trkpt>
      <trkpt lat="45.92421" lon="1.24434">
        <ele>406.9</ele>
        <time>2024-11-29T13:01:55Z</time>
      </trkpt>
      <trkpt lat="45.92426" lon="1.24432">
        <ele>406.7</ele>
        <time>2024-11-29T13:01:56Z</time>
      </trkpt>
      <trkpt lat="45.92431" lon="1.24429">
        <ele>406.6</ele>
        <time>2024-11-29T13:01:57Z</time>
      </trkpt>
      <trkpt lat="45.92437" lon="1.24425">
        <ele>406.4</ele>
        <time>2024-11-29T13:01:58Z</time>
      </trkpt>
      <trkpt lat="45.92443" lon="1.24421">
        <ele>406.3</ele>
        <time>2024-11-29T13:01:59Z</time>
      </trkpt>
      <trkpt lat="45.92448" lon="1.24416">
        <ele>406.2</ele>
        <time>2024-11-29T13:02:00Z</time>
      </trkpt>
      <trkpt lat="45.92453" lon="1.24414">
        <ele>406.2</ele>
        <time>2024-11-29T13:02:01Z</time>
      </trkpt>
      <trkpt lat="45.92458" lon="1.24411">
        <ele>406.1</ele>
        <time>2024-11-29T13:02:02Z</time>
      </trkpt>
      <trkpt lat="45.92464" lon="1.24408">
        <ele>406.1</ele>
        <time>2024-11-29T13:02:03Z</time>
      </trkpt>
      <trkpt lat="45.9247" lon="1.24405">
        <ele>406.1</ele>
        <time>2024-11-29T13:02:04Z</time>
      </trkpt>
      <trkpt lat="45.92476" lon="1.24402">
        <ele>406.1</ele>
        <time>2024-11-29T13:02:05Z</time>
      </trkpt>
      <trkpt lat="45.92482" lon="1.24401">
        <ele>406.1</ele>
        <time>2024-11-29T13:02:06Z</time>
      </trkpt>
      <trkpt lat="45.92487" lon="1.24399">
        <ele>406.2</ele>
        <time>2024-11-29T13:02:07Z</time>
      </trkpt>
      <trkpt lat="45.92493" lon="1.24396">
        <ele>406.2</ele>
        <time>2024-11-29T13:02:08Z</time>
      </trkpt>
      <trkpt lat="45.92499" lon="1.24394">
        <ele>406.2</ele>
        <time>2024-11-29T13:02:09Z</time>
      </trkpt>
      <trkpt lat="45.92503" lon="1.24392">
        <ele>406.3</ele>
        <time>2024-11-29T13:02:10Z</time>
      </trkpt>
      <trkpt lat="45.92509" lon="1.24389">
        <ele>406.4</ele>
        <time>2024-11-29T13:02:11Z</time>
      </trkpt>
      <trkpt lat="45.92515" lon="1.24385">
        <ele>406.5</ele>
        <time>2024-11-29T13:02:12Z</time>
      </trkpt>
      <trkpt lat="45.92521" lon="1.24382">
        <ele>406.5</ele>
        <time>2024-11-29T13:02:13Z</time>
      </trkpt>
      <trkpt lat="45.92525" lon="1.24383">
        <ele>406.6</ele>
        <time>2024-11-29T13:02:14Z</time>
      </trkpt>
      <trkpt lat="45.92528" lon="1.24385">
        <ele>406.5</ele>
        <time>2024-11-29T13:02:15Z</time>
      </trkpt>
      <trkpt lat="45.92531" lon="1.24389">
        <ele>406.4</ele>
        <time>2024-11-29T13:02:16Z</time>
      </trkpt>
      <trkpt lat="45.92532" lon="1.24393">
        <ele>406.3</ele>
        <time>2024-11-29T13:02:17Z</time>
      </trkpt>
      <trkpt lat="45.92534" lon="1.24399">
        <ele>406.1</ele>
        <time>2024-11-29T13:02:18Z</time>
      </trkpt>
      <trkpt lat="45.92536" lon="1.24405">
        <ele>405.9</ele>
        <time>2024-11-29T13:02:19Z</time>
      </trkpt>
      <trkpt lat="45.92538" lon="1.24411">
        <ele>405.7</ele>
        <time>2024-11-29T13:02:20Z</time>
      </trkpt>
      <trkpt lat="45.9254" lon="1.24417">
        <ele>405.5</ele>
        <time>2024-11-29T13:02:21Z</time>
      </trkpt>
      <trkpt lat="45.92542" lon="1.24423">
        <ele>405.3</ele>
        <time>2024-11-29T13:02:22Z</time>
      </trkpt>
      <trkpt lat="45.92545" lon="1.24431">
        <ele>404.9</ele>
        <time>2024-11-29T13:02:23Z</time>
      </trkpt>
      <trkpt lat="45.92546" lon="1.2444">
        <ele>404.5</ele>
        <time>2024-11-29T13:02:24Z</time>
      </trkpt>
      <trkpt lat="45.92549" lon="1.24448">
        <ele>404.1</ele>
        <time>2024-11-29T13:02:25Z</time>
      </trkpt>
      <trkpt lat="45.92552" lon="1.24458">
        <ele>403.5</ele>
        <time>2024-11-29T13:02:26Z</time>
      </trkpt>
      <trkpt lat="45.92554" lon="1.24467">
        <ele>403</ele>
        <time>2024-11-29T13:02:27Z</time>
      </trkpt>
      <trkpt lat="45.92557" lon="1.24476">
        <ele>402.5</ele>
        <time>2024-11-29T13:02:28Z</time>
      </trkpt>
      <trkpt lat="45.92559" lon="1.24485">
        <ele>402</ele>
        <time>2024-11-29T13:02:29Z</time>
      </trkpt>
      <trkpt lat="45.92563" lon="1.24494">
        <ele>401.4</ele>
        <time>2024-11-29T13:02:30Z</time>
      </trkpt>
      <trkpt lat="45.92566" lon="1.24504">
        <ele>400.9</ele>
        <time>2024-11-29T13:02:31Z</time>
      </trkpt>
      <trkpt lat="45.92568" lon="1.24513">
        <ele>400.5</ele>
        <time>2024-11-29T13:02:32Z</time>
      </trkpt>
      <trkpt lat="45.92573" lon="1.24522">
        <ele>400</ele>
        <time>2024-11-29T13:02:33Z</time>
      </trkpt>
      <trkpt lat="45.92577" lon="1.24532">
        <ele>399.6</ele>
        <time>2024-11-29T13:02:34Z</time>
      </trkpt>
      <trkpt lat="45.92581" lon="1.24541">
        <ele>399.2</ele>
        <time>2024-11-29T13:02:35Z</time>
      </trkpt>
      <trkpt lat="45.92585" lon="1.24551">
        <ele>398.9</ele>
        <time>2024-11-29T13:02:36Z</time>
      </trkpt>
      <trkpt lat="45.92588" lon="1.24561">
        <ele>398.5</ele>
        <time>2024-11-29T13:02:37Z</time>
      </trkpt>
      <trkpt lat="45.92592" lon="1.24572">
        <ele>398.2</ele>
        <time>2024-11-29T13:02:38Z</time>
      </trkpt>
      <trkpt lat="45.92595" lon="1.24582">
        <ele>397.9</ele>
        <time>2024-11-29T13:02:39Z</time>
      </trkpt>
      <trkpt lat="45.92598" lon="1.24592">
        <ele>397.6</ele>
        <time>2024-11-29T13:02:40Z</time>
      </trkpt>
      <trkpt lat="45.92601" lon="1.24602">
        <ele>397.3</ele>
        <time>2024-11-29T13:02:41Z</time>
      </trkpt>
      <trkpt lat="45.92603" lon="1.24612">
        <ele>396.9</ele>
        <time>2024-11-29T13:02:42Z</time>
      </trkpt>
      <trkpt lat="45.92605" lon="1.24621">
        <ele>396.6</ele>
        <time>2024-11-29T13:02:43Z</time>
      </trkpt>
      <trkpt lat="45.92608" lon="1.24628">
        <ele>396.4</ele>
        <time>2024-11-29T13:02:44Z</time>
      </trkpt>
      <trkpt lat="45.92611" lon="1.24639">
        <ele>396</ele>
        <time>2024-11-29T13:02:45Z</time>
      </trkpt>
      <trkpt lat="45.92614" lon="1.2465">
        <ele>395.6</ele>
        <time>2024-11-29T13:02:46Z</time>
      </trkpt>
      <trkpt lat="45.92617" lon="1.24661">
        <ele>395.1</ele>
        <time>2024-11-29T13:02:47Z</time>
      </trkpt>
      <trkpt lat="45.92618" lon="1.2467">
        <ele>394.8</ele>
        <time>2024-11-29T13:02:48Z</time>
      </trkpt>
      <trkpt lat="45.92619" lon="1.24678">
        <ele>394.6</ele>
        <time>2024-11-29T13:02:49Z</time>
      </trkpt>
      <trkpt lat="45.92619" lon="1.24684">
        <ele>394.5</ele>
        <time>2024-11-29T13:02:50Z</time>
      </trkpt>
      <trkpt lat="45.9262" lon="1.24689">
        <ele>394.5</ele>
        <time>2024-11-29T13:02:51Z</time>
      </trkpt>
      <trkpt lat="45.92621" lon="1.24695">
        <ele>394.4</ele>
        <time>2024-11-29T13:02:52Z</time>
      </trkpt>
      <trkpt lat="45.92622" lon="1.24701">
        <ele>394.3</ele>
        <time>2024-11-29T13:02:53Z</time>
      </trkpt>
      <trkpt lat="45.92624" lon="1.24707">
        <ele>394.3</ele>
        <time>2024-11-29T13:02:54Z</time>
      </trkpt>
      <trkpt lat="45.92625" lon="1.24713">
        <ele>394.3</ele>
        <time>2024-11-29T13:02:55Z</time>
      </trkpt>
      <trkpt lat="45.92627" lon="1.24718">
        <ele>394.3</ele>
        <time>2024-11-29T13:02:56Z</time>
      </trkpt>
      <trkpt lat="45.9263" lon="1.24723">
        <ele>394.3</ele>
        <time>2024-11-29T13:02:57Z</time>
      </trkpt>
      <trkpt lat="45.92632" lon="1.24728">
        <ele>394.3</ele>
        <time>2024-11-29T13:02:58Z</time>
      </trkpt>
      <trkpt lat="45.92635" lon="1.24733">
        <ele>394.3</ele>
        <time>2024-11-29T13:02:59Z</time>
      </trkpt>
      <trkpt lat="45.92639" lon="1.24736">
        <ele>394.3</ele>
        <time>2024-11-29T13:03:00Z</time>
      </trkpt>
      <trkpt lat="45.92643" lon="1.24738">
        <ele>394.2</ele>
        <time>2024-11-29T13:03:01Z</time>
      </trkpt>
      <trkpt lat="45.92649" lon="1.2474">
        <ele>394.3</ele>
        <time>2024-11-29T13:03:02Z</time>
      </trkpt>
      <trkpt lat="45.92654" lon="1.24743">
        <ele>394.3</ele>
        <time>2024-11-29T13:03:03Z</time>
      </trkpt>
      <trkpt lat="45.92659" lon="1.24745">
        <ele>394.4</ele>
        <time>2024-11-29T13:03:04Z</time>
      </trkpt>
      <trkpt lat="45.92664" lon="1.24749">
        <ele>394.5</ele>
        <time>2024-11-29T13:03:05Z</time>
      </trkpt>
      <trkpt lat="45.92669" lon="1.24752">
        <ele>394.6</ele>
        <time>2024-11-29T13:03:06Z</time>
      </trkpt>
      <trkpt lat="45.92674" lon="1.24756">
        <ele>394.8</ele>
        <time>2024-11-29T13:03:07Z</time>
      </trkpt>
      <trkpt lat="45.92678" lon="1.24759">
        <ele>394.9</ele>
        <time>2024-11-29T13:03:08Z</time>
      </trkpt>
      <trkpt lat="45.92683" lon="1.24763">
        <ele>395.1</ele>
        <time>2024-11-29T13:03:09Z</time>
      </trkpt>
      <trkpt lat="45.92687" lon="1.24766">
        <ele>395.3</ele>
        <time>2024-11-29T13:03:10Z</time>
      </trkpt>
      <trkpt lat="45.92691" lon="1.24769">
        <ele>395.5</ele>
        <time>2024-11-29T13:03:11Z</time>
      </trkpt>
      <trkpt lat="45.92696" lon="1.24772">
        <ele>395.8</ele>
        <time>2024-11-29T13:03:12Z</time>
      </trkpt>
      <trkpt lat="45.927" lon="1.24775">
        <ele>396</ele>
        <time>2024-11-29T13:03:13Z</time>
      </trkpt>
      <trkpt lat="45.92705" lon="1.24778">
        <ele>396.3</ele>
        <time>2024-11-29T13:03:14Z</time>
      </trkpt>
      <trkpt lat="45.9271" lon="1.24781">
        <ele>396.6</ele>
        <time>2024-11-29T13:03:15Z</time>
      </trkpt>
      <trkpt lat="45.92714" lon="1.24784">
        <ele>396.9</ele>
        <time>2024-11-29T13:03:16Z</time>
      </trkpt>
      <trkpt lat="45.92719" lon="1.24787">
        <ele>397.3</ele>
        <time>2024-11-29T13:03:17Z</time>
      </trkpt>
      <trkpt lat="45.92724" lon="1.24789">
        <ele>397.6</ele>
        <time>2024-11-29T13:03:18Z</time>
      </trkpt>
      <trkpt lat="45.92728" lon="1.24793">
        <ele>398</ele>
        <time>2024-11-29T13:03:19Z</time>
      </trkpt>
      <trkpt lat="45.92732" lon="1.24796">
        <ele>398.3</ele>
        <time>2024-11-29T13:03:20Z</time>
      </trkpt>
      <trkpt lat="45.92737" lon="1.24799">
        <ele>398.6</ele>
        <time>2024-11-29T13:03:21Z</time>
      </trkpt>
      <trkpt lat="45.9274" lon="1.24802">
        <ele>398.9</ele>
        <time>2024-11-29T13:03:22Z</time>
      </trkpt>
      <trkpt lat="45.92744" lon="1.24804">
        <ele>399.2</ele>
        <time>2024-11-29T13:03:23Z</time>
      </trkpt>
      <trkpt lat="45.92748" lon="1.24807">
        <ele>399.5</ele>
        <time>2024-11-29T13:03:24Z</time>
      </trkpt>
      <trkpt lat="45.92752" lon="1.2481">
        <ele>399.8</ele>
        <time>2024-11-29T13:03:25Z</time>
      </trkpt>
      <trkpt lat="45.92757" lon="1.24812">
        <ele>400.2</ele>
        <time>2024-11-29T13:03:26Z</time>
      </trkpt>
      <trkpt lat="45.92761" lon="1.24815">
        <ele>400.5</ele>
        <time>2024-11-29T13:03:27Z</time>
      </trkpt>
      <trkpt lat="45.92765" lon="1.24818">
        <ele>400.8</ele>
        <time>2024-11-29T13:03:28Z</time>
      </trkpt>
      <trkpt lat="45.92769" lon="1.24821">
        <ele>401.1</ele>
        <time>2024-11-29T13:03:29Z</time>
      </trkpt>
      <trkpt lat="45.92774" lon="1.24823">
        <ele>401.4</ele>
        <time>2024-11-29T13:03:30Z</time>
      </trkpt>
      <trkpt lat="45.92778" lon="1.24826">
        <ele>401.7</ele>
        <time>2024-11-29T13:03:31Z</time>
      </trkpt>
      <trkpt lat="45.92782" lon="1.24828">
        <ele>402</ele>
        <time>2024-11-29T13:03:32Z</time>
      </trkpt>
      <trkpt lat="45.92786" lon="1.2483">
        <ele>402.3</ele>
        <time>2024-11-29T13:03:33Z</time>
      </trkpt>
      <trkpt lat="45.9279" lon="1.24832">
        <ele>402.6</ele>
        <time>2024-11-29T13:03:34Z</time>
      </trkpt>
      <trkpt lat="45.92794" lon="1.24835">
        <ele>402.9</ele>
        <time>2024-11-29T13:03:35Z</time>
      </trkpt>
      <trkpt lat="45.92797" lon="1.24837">
        <ele>403.1</ele>
        <time>2024-11-29T13:03:36Z</time>
      </trkpt>
      <trkpt lat="45.92801" lon="1.2484">
        <ele>403.4</ele>
        <time>2024-11-29T13:03:37Z</time>
      </trkpt>
      <trkpt lat="45.92805" lon="1.24842">
        <ele>403.7</ele>
        <time>2024-11-29T13:03:38Z</time>
      </trkpt>
      <trkpt lat="45.92809" lon="1.24844">
        <ele>403.9</ele>
        <time>2024-11-29T13:03:39Z</time>
      </trkpt>
      <trkpt lat="45.92812" lon="1.24846">
        <ele>404.1</ele>
        <time>2024-11-29T13:03:40Z</time>
      </trkpt>
      <trkpt lat="45.92816" lon="1.24848">
        <ele>404.4</ele>
        <time>2024-11-29T13:03:41Z</time>
      </trkpt>
      <trkpt lat="45.9282" lon="1.2485">
        <ele>404.6</ele>
        <time>2024-11-29T13:03:42Z</time>
      </trkpt>
      <trkpt lat="45.92823" lon="1.24851">
        <ele>404.8</ele>
        <time>2024-11-29T13:03:43Z</time>
      </trkpt>
      <trkpt lat="45.92827" lon="1.24852">
        <ele>405</ele>
        <time>2024-11-29T13:03:44Z</time>
      </trkpt>
      <trkpt lat="45.92831" lon="1.24853">
        <ele>405.2</ele>
        <time>2024-11-29T13:03:45Z</time>
      </trkpt>
      <trkpt lat="45.92835" lon="1.24853">
        <ele>405.4</ele>
        <time>2024-11-29T13:03:46Z</time>
      </trkpt>
      <trkpt lat="45.92839" lon="1.24854">
        <ele>405.6</ele>
        <time>2024-11-29T13:03:47Z</time>
      </trkpt>
      <trkpt lat="45.92842" lon="1.24854">
        <ele>405.7</ele>
        <time>2024-11-29T13:03:48Z</time>
      </trkpt>
      <trkpt lat="45.92847" lon="1.24855">
        <ele>406</ele>
        <time>2024-11-29T13:03:49Z</time>
      </trkpt>
      <trkpt lat="45.92851" lon="1.24855">
        <ele>406.2</ele>
        <time>2024-11-29T13:03:50Z</time>
      </trkpt>
      <trkpt lat="45.92856" lon="1.24856">
        <ele>406.4</ele>
        <time>2024-11-29T13:03:51Z</time>
      </trkpt>
      <trkpt lat="45.92859" lon="1.24856">
        <ele>406.5</ele>
        <time>2024-11-29T13:03:52Z</time>
      </trkpt>
      <trkpt lat="45.92863" lon="1.24856">
        <ele>406.7</ele>
        <time>2024-11-29T13:03:53Z</time>
      </trkpt>
      <trkpt lat="45.92867" lon="1.24857">
        <ele>406.9</ele>
        <time>2024-11-29T13:03:54Z</time>
      </trkpt>
      <trkpt lat="45.9287" lon="1.24857">
        <ele>407</ele>
        <time>2024-11-29T13:03:55Z</time>
      </trkpt>
      <trkpt lat="45.92874" lon="1.24858">
        <ele>407.2</ele>
        <time>2024-11-29T13:03:56Z</time>
      </trkpt>
      <trkpt lat="45.92878" lon="1.24859">
        <ele>407.3</ele>
        <time>2024-11-29T13:03:57Z</time>
      </trkpt>
      <trkpt lat="45.92881" lon="1.2486">
        <ele>407.4</ele>
        <time>2024-11-29T13:03:58Z</time>
      </trkpt>
      <trkpt lat="45.92885" lon="1.24862">
        <ele>407.5</ele>
        <time>2024-11-29T13:03:59Z</time>
      </trkpt>
      <trkpt lat="45.9289" lon="1.24864">
        <ele>407.7</ele>
        <time>2024-11-29T13:04:00Z</time>
      </trkpt>
      <trkpt lat="45.92893" lon="1.24865">
        <ele>407.7</ele>
        <time>2024-11-29T13:04:01Z</time>
      </trkpt>
      <trkpt lat="45.92897" lon="1.24868">
        <ele>407.9</ele>
        <time>2024-11-29T13:04:02Z</time>
      </trkpt>
      <trkpt lat="45.92904" lon="1.24871">
        <ele>408.1</ele>
        <time>2024-11-29T13:04:03Z</time>
      </trkpt>
      <trkpt lat="45.92909" lon="1.24874">
        <ele>408.3</ele>
        <time>2024-11-29T13:04:04Z</time>
      </trkpt>
      <trkpt lat="45.92914" lon="1.24878">
        <ele>408.5</ele>
        <time>2024-11-29T13:04:05Z</time>
      </trkpt>
      <trkpt lat="45.92919" lon="1.24881">
        <ele>408.7</ele>
        <time>2024-11-29T13:04:06Z</time>
      </trkpt>
      <trkpt lat="45.92923" lon="1.24883">
        <ele>408.8</ele>
        <time>2024-11-29T13:04:07Z</time>
      </trkpt>
      <trkpt lat="45.92928" lon="1.24886">
        <ele>409</ele>
        <time>2024-11-29T13:04:08Z</time>
      </trkpt>
      <trkpt lat="45.92932" lon="1.24888">
        <ele>409.2</ele>
        <time>2024-11-29T13:04:09Z</time>
      </trkpt>
      <trkpt lat="45.92936" lon="1.24892">
        <ele>409.4</ele>
        <time>2024-11-29T13:04:10Z</time>
      </trkpt>
      <trkpt lat="45.9294" lon="1.24895">
        <ele>409.6</ele>
        <time>2024-11-29T13:04:11Z</time>
      </trkpt>
      <trkpt lat="45.92943" lon="1.24898">
        <ele>409.7</ele>
        <time>2024-11-29T13:04:12Z</time>
      </trkpt>
      <trkpt lat="45.92947" lon="1.24901">
        <ele>409.9</ele>
        <time>2024-11-29T13:04:13Z</time>
      </trkpt>
      <trkpt lat="45.92951" lon="1.24903">
        <ele>410.1</ele>
        <time>2024-11-29T13:04:14Z</time>
      </trkpt>
      <trkpt lat="45.92956" lon="1.24907">
        <ele>410.3</ele>
        <time>2024-11-29T13:04:15Z</time>
      </trkpt>
      <trkpt lat="45.9296" lon="1.24909">
        <ele>410.5</ele>
        <time>2024-11-29T13:04:16Z</time>
      </trkpt>
      <trkpt lat="45.92964" lon="1.24912">
        <ele>410.6</ele>
        <time>2024-11-29T13:04:17Z</time>
      </trkpt>
      <trkpt lat="45.92968" lon="1.24915">
        <ele>410.8</ele>
        <time>2024-11-29T13:04:18Z</time>
      </trkpt>
      <trkpt lat="45.92972" lon="1.24917">
        <ele>411</ele>
        <time>2024-11-29T13:04:19Z</time>
      </trkpt>
      <trkpt lat="45.92977" lon="1.24917">
        <ele>411.2</ele>
        <time>2024-11-29T13:04:20Z</time>
      </trkpt>
      <trkpt lat="45.92982" lon="1.24918">
        <ele>411.4</ele>
        <time>2024-11-29T13:04:21Z</time>
      </trkpt>
      <trkpt lat="45.92987" lon="1.24918">
        <ele>411.7</ele>
        <time>2024-11-29T13:04:22Z</time>
      </trkpt>
      <trkpt lat="45.92992" lon="1.24916">
        <ele>412</ele>
        <time>2024-11-29T13:04:23Z</time>
      </trkpt>
      <trkpt lat="45.92995" lon="1.24915">
        <ele>412.1</ele>
        <time>2024-11-29T13:04:24Z</time>
      </trkpt>
      <trkpt lat="45.92999" lon="1.24912">
        <ele>412.4</ele>
        <time>2024-11-29T13:04:25Z</time>
      </trkpt>
      <trkpt lat="45.93002" lon="1.2491">
        <ele>412.6</ele>
        <time>2024-11-29T13:04:26Z</time>
      </trkpt>
      <trkpt lat="45.93006" lon="1.24908">
        <ele>412.8</ele>
        <time>2024-11-29T13:04:27Z</time>
      </trkpt>
      <trkpt lat="45.93008" lon="1.24905">
        <ele>413</ele>
        <time>2024-11-29T13:04:28Z</time>
      </trkpt>
      <trkpt lat="45.93011" lon="1.24902">
        <ele>413.2</ele>
        <time>2024-11-29T13:04:29Z</time>
      </trkpt>
      <trkpt lat="45.93014" lon="1.24901">
        <ele>413.3</ele>
        <time>2024-11-29T13:04:30Z</time>
      </trkpt>
      <trkpt lat="45.93018" lon="1.24901">
        <ele>413.5</ele>
        <time>2024-11-29T13:04:31Z</time>
      </trkpt>
      <trkpt lat="45.93022" lon="1.24902">
        <ele>413.1</ele>
        <time>2024-11-29T13:04:32Z</time>
      </trkpt>
      <trkpt lat="45.93026" lon="1.24905">
        <ele>412.7</ele>
        <time>2024-11-29T13:04:33Z</time>
      </trkpt>
      <trkpt lat="45.93029" lon="1.2491">
        <ele>412.3</ele>
        <time>2024-11-29T13:04:34Z</time>
      </trkpt>
      <trkpt lat="45.93031" lon="1.24917">
        <ele>411.7</ele>
        <time>2024-11-29T13:04:35Z</time>
      </trkpt>
      <trkpt lat="45.93032" lon="1.24925">
        <ele>411</ele>
        <time>2024-11-29T13:04:36Z</time>
      </trkpt>
      <trkpt lat="45.93032" lon="1.24935">
        <ele>410.2</ele>
        <time>2024-11-29T13:04:37Z</time>
      </trkpt>
      <trkpt lat="45.93033" lon="1.24946">
        <ele>409.2</ele>
        <time>2024-11-29T13:04:38Z</time>
      </trkpt>
      <trkpt lat="45.93035" lon="1.24957">
        <ele>408.2</ele>
        <time>2024-11-29T13:04:39Z</time>
      </trkpt>
      <trkpt lat="45.93037" lon="1.2497">
        <ele>407.1</ele>
        <time>2024-11-29T13:04:40Z</time>
      </trkpt>
      <trkpt lat="45.93038" lon="1.24982">
        <ele>406.2</ele>
        <time>2024-11-29T13:04:41Z</time>
      </trkpt>
      <trkpt lat="45.93039" lon="1.24996">
        <ele>405.2</ele>
        <time>2024-11-29T13:04:42Z</time>
      </trkpt>
      <trkpt lat="45.93042" lon="1.25009">
        <ele>404.6</ele>
        <time>2024-11-29T13:04:43Z</time>
      </trkpt>
      <trkpt lat="45.93044" lon="1.25022">
        <ele>404.1</ele>
        <time>2024-11-29T13:04:44Z</time>
      </trkpt>
      <trkpt lat="45.93046" lon="1.25035">
        <ele>403.7</ele>
        <time>2024-11-29T13:04:45Z</time>
      </trkpt>
      <trkpt lat="45.93048" lon="1.25047">
        <ele>403.3</ele>
        <time>2024-11-29T13:04:46Z</time>
      </trkpt>
      <trkpt lat="45.9305" lon="1.25058">
        <ele>403</ele>
        <time>2024-11-29T13:04:47Z</time>
      </trkpt>
      <trkpt lat="45.93054" lon="1.25069">
        <ele>402.4</ele>
        <time>2024-11-29T13:04:48Z</time>
      </trkpt>
      <trkpt lat="45.9306" lon="1.25078">
        <ele>401.9</ele>
        <time>2024-11-29T13:04:49Z</time>
      </trkpt>
      <trkpt lat="45.93066" lon="1.25087">
        <ele>401.4</ele>
        <time>2024-11-29T13:04:50Z</time>
      </trkpt>
      <trkpt lat="45.93072" lon="1.25096">
        <ele>401</ele>
        <time>2024-11-29T13:04:51Z</time>
      </trkpt>
      <trkpt lat="45.93078" lon="1.25105">
        <ele>400.8</ele>
        <time>2024-11-29T13:04:52Z</time>
      </trkpt>
      <trkpt lat="45.93085" lon="1.25113">
        <ele>400.7</ele>
        <time>2024-11-29T13:04:53Z</time>
      </trkpt>
      <trkpt lat="45.93091" lon="1.25121">
        <ele>400.7</ele>
        <time>2024-11-29T13:04:54Z</time>
      </trkpt>
      <trkpt lat="45.93097" lon="1.25128">
        <ele>400.8</ele>
        <time>2024-11-29T13:04:55Z</time>
      </trkpt>
      <trkpt lat="45.93103" lon="1.25136">
        <ele>400.9</ele>
        <time>2024-11-29T13:04:56Z</time>
      </trkpt>
      <trkpt lat="45.93109" lon="1.25142">
        <ele>401.1</ele>
        <time>2024-11-29T13:04:57Z</time>
      </trkpt>
      <trkpt lat="45.93114" lon="1.25147">
        <ele>401</ele>
        <time>2024-11-29T13:04:58Z</time>
      </trkpt>
      <trkpt lat="45.9312" lon="1.2515">
        <ele>400.9</ele>
        <time>2024-11-29T13:04:59Z</time>
      </trkpt>
      <trkpt lat="45.93125" lon="1.25153">
        <ele>400.8</ele>
        <time>2024-11-29T13:05:00Z</time>
      </trkpt>
      <trkpt lat="45.9313" lon="1.25155">
        <ele>400.7</ele>
        <time>2024-11-29T13:05:01Z</time>
      </trkpt>
      <trkpt lat="45.93134" lon="1.25157">
        <ele>400.6</ele>
        <time>2024-11-29T13:05:02Z</time>
      </trkpt>
      <trkpt lat="45.93139" lon="1.25158">
        <ele>400.4</ele>
        <time>2024-11-29T13:05:03Z</time>
      </trkpt>
      <trkpt lat="45.93145" lon="1.25159">
        <ele>400.2</ele>
        <time>2024-11-29T13:05:04Z</time>
      </trkpt>
      <trkpt lat="45.9315" lon="1.25159">
        <ele>400.1</ele>
        <time>2024-11-29T13:05:05Z</time>
      </trkpt>
      <trkpt lat="45.93156" lon="1.25158">
        <ele>399.8</ele>
        <time>2024-11-29T13:05:06Z</time>
      </trkpt>
      <trkpt lat="45.93162" lon="1.25158">
        <ele>399.5</ele>
        <time>2024-11-29T13:05:07Z</time>
      </trkpt>
      <trkpt lat="45.93167" lon="1.25157">
        <ele>399.3</ele>
        <time>2024-11-29T13:05:08Z</time>
      </trkpt>
      <trkpt lat="45.93174" lon="1.25156">
        <ele>399</ele>
        <time>2024-11-29T13:05:09Z</time>
      </trkpt>
      <trkpt lat="45.9318" lon="1.25154">
        <ele>398.8</ele>
        <time>2024-11-29T13:05:10Z</time>
      </trkpt>
      <trkpt lat="45.93186" lon="1.25152">
        <ele>398.7</ele>
        <time>2024-11-29T13:05:11Z</time>
      </trkpt>
      <trkpt lat="45.93192" lon="1.2515">
        <ele>398.5</ele>
        <time>2024-11-29T13:05:12Z</time>
      </trkpt>
      <trkpt lat="45.93197" lon="1.25148">
        <ele>398.4</ele>
        <time>2024-11-29T13:05:13Z</time>
      </trkpt>
      <trkpt lat="45.93201" lon="1.25146">
        <ele>398.3</ele>
        <time>2024-11-29T13:05:14Z</time>
      </trkpt>
      <trkpt lat="45.93204" lon="1.25143">
        <ele>398.3</ele>
        <time>2024-11-29T13:05:15Z</time>
      </trkpt>
      <trkpt lat="45.93208" lon="1.25141">
        <ele>398.2</ele>
        <time>2024-11-29T13:05:16Z</time>
      </trkpt>
      <trkpt lat="45.93212" lon="1.25137">
        <ele>398.1</ele>
        <time>2024-11-29T13:05:18Z</time>
      </trkpt>
      <trkpt lat="45.93216" lon="1.25134">
        <ele>398</ele>
        <time>2024-11-29T13:05:20Z</time>
      </trkpt>
      <trkpt lat="45.9322" lon="1.25134">
        <ele>397.9</ele>
        <time>2024-11-29T13:05:21Z</time>
      </trkpt>
      <trkpt lat="45.93225" lon="1.25135">
        <ele>397.9</ele>
        <time>2024-11-29T13:05:22Z</time>
      </trkpt>
      <trkpt lat="45.93229" lon="1.25137">
        <ele>397.8</ele>
        <time>2024-11-29T13:05:23Z</time>
      </trkpt>
      <trkpt lat="45.93232" lon="1.2514">
        <ele>397.8</ele>
        <time>2024-11-29T13:05:24Z</time>
      </trkpt>
      <trkpt lat="45.93235" lon="1.25142">
        <ele>397.8</ele>
        <time>2024-11-29T13:05:25Z</time>
      </trkpt>
      <trkpt lat="45.93238" lon="1.25145">
        <ele>397.8</ele>
        <time>2024-11-29T13:05:26Z</time>
      </trkpt>
      <trkpt lat="45.93241" lon="1.25149">
        <ele>397.7</ele>
        <time>2024-11-29T13:05:27Z</time>
      </trkpt>
      <trkpt lat="45.93243" lon="1.25152">
        <ele>397.8</ele>
        <time>2024-11-29T13:05:28Z</time>
      </trkpt>
      <trkpt lat="45.93246" lon="1.25156">
        <ele>397.8</ele>
        <time>2024-11-29T13:05:29Z</time>
      </trkpt>
      <trkpt lat="45.93249" lon="1.25163">
        <ele>397.9</ele>
        <time>2024-11-29T13:05:30Z</time>
      </trkpt>
      <trkpt lat="45.93252" lon="1.25168">
        <ele>398.1</ele>
        <time>2024-11-29T13:05:31Z</time>
      </trkpt>
      <trkpt lat="45.93256" lon="1.25174">
        <ele>398.3</ele>
        <time>2024-11-29T13:05:32Z</time>
      </trkpt>
      <trkpt lat="45.9326" lon="1.25181">
        <ele>398.6</ele>
        <time>2024-11-29T13:05:34Z</time>
      </trkpt>
      <trkpt lat="45.93263" lon="1.25185">
        <ele>398.8</ele>
        <time>2024-11-29T13:05:35Z</time>
      </trkpt>
      <trkpt lat="45.93268" lon="1.2519">
        <ele>399.1</ele>
        <time>2024-11-29T13:05:36Z</time>
      </trkpt>
      <trkpt lat="45.93272" lon="1.25194">
        <ele>399.4</ele>
        <time>2024-11-29T13:05:37Z</time>
      </trkpt>
      <trkpt lat="45.93275" lon="1.25197">
        <ele>399.6</ele>
        <time>2024-11-29T13:05:38Z</time>
      </trkpt>
      <trkpt lat="45.93277" lon="1.25199">
        <ele>399.8</ele>
        <time>2024-11-29T13:05:39Z</time>
      </trkpt>
      <trkpt lat="45.9328" lon="1.25203">
        <ele>400.1</ele>
        <time>2024-11-29T13:05:40Z</time>
      </trkpt>
      <trkpt lat="45.93283" lon="1.25206">
        <ele>400.3</ele>
        <time>2024-11-29T13:05:41Z</time>
      </trkpt>
      <trkpt lat="45.93285" lon="1.25209">
        <ele>400.5</ele>
        <time>2024-11-29T13:05:42Z</time>
      </trkpt>
      <trkpt lat="45.93288" lon="1.25212">
        <ele>400.7</ele>
        <time>2024-11-29T13:05:43Z</time>
      </trkpt>
      <trkpt lat="45.93291" lon="1.25215">
        <ele>401</ele>
        <time>2024-11-29T13:05:44Z</time>
      </trkpt>
      <trkpt lat="45.93294" lon="1.25218">
        <ele>401.2</ele>
        <time>2024-11-29T13:05:45Z</time>
      </trkpt>
      <trkpt lat="45.93296" lon="1.25221">
        <ele>401.4</ele>
        <time>2024-11-29T13:05:46Z</time>
      </trkpt>
      <trkpt lat="45.93299" lon="1.25224">
        <ele>401.6</ele>
        <time>2024-11-29T13:05:47Z</time>
      </trkpt>
      <trkpt lat="45.93302" lon="1.25227">
        <ele>401.8</ele>
        <time>2024-11-29T13:05:48Z</time>
      </trkpt>
      <trkpt lat="45.93305" lon="1.2523">
        <ele>402</ele>
        <time>2024-11-29T13:05:49Z</time>
      </trkpt>
      <trkpt lat="45.93308" lon="1.25233">
        <ele>402.2</ele>
        <time>2024-11-29T13:05:50Z</time>
      </trkpt>
      <trkpt lat="45.93312" lon="1.25236">
        <ele>402.5</ele>
        <time>2024-11-29T13:05:51Z</time>
      </trkpt>
      <trkpt lat="45.93315" lon="1.25239">
        <ele>402.7</ele>
        <time>2024-11-29T13:05:52Z</time>
      </trkpt>
      <trkpt lat="45.93318" lon="1.25243">
        <ele>402.9</ele>
        <time>2024-11-29T13:05:53Z</time>
      </trkpt>
      <trkpt lat="45.93322" lon="1.25246">
        <ele>403.2</ele>
        <time>2024-11-29T13:05:54Z</time>
      </trkpt>
      <trkpt lat="45.93325" lon="1.25249">
        <ele>403.4</ele>
        <time>2024-11-29T13:05:55Z</time>
      </trkpt>
      <trkpt lat="45.93329" lon="1.25252">
        <ele>403.7</ele>
        <time>2024-11-29T13:05:56Z</time>
      </trkpt>
      <trkpt lat="45.93332" lon="1.25255">
        <ele>403.9</ele>
        <time>2024-11-29T13:05:57Z</time>
      </trkpt>
      <trkpt lat="45.93335" lon="1.25258">
        <ele>404.1</ele>
        <time>2024-11-29T13:05:58Z</time>
      </trkpt>
      <trkpt lat="45.93338" lon="1.25261">
        <ele>404.3</ele>
        <time>2024-11-29T13:05:59Z</time>
      </trkpt>
      <trkpt lat="45.93342" lon="1.25265">
        <ele>404.6</ele>
        <time>2024-11-29T13:06:01Z</time>
      </trkpt>
      <trkpt lat="45.93345" lon="1.25268">
        <ele>404.8</ele>
        <time>2024-11-29T13:06:02Z</time>
      </trkpt>
      <trkpt lat="45.93349" lon="1.25272">
        <ele>405.1</ele>
        <time>2024-11-29T13:06:04Z</time>
      </trkpt>
      <trkpt lat="45.93352" lon="1.25276">
        <ele>405.4</ele>
        <time>2024-11-29T13:06:05Z</time>
      </trkpt>
      <trkpt lat="45.93355" lon="1.25279">
        <ele>405.6</ele>
        <time>2024-11-29T13:06:06Z</time>
      </trkpt>
      <trkpt lat="45.93358" lon="1.25283">
        <ele>405.9</ele>
        <time>2024-11-29T13:06:07Z</time>
      </trkpt>
      <trkpt lat="45.93362" lon="1.25287">
        <ele>406.2</ele>
        <time>2024-11-29T13:06:08Z</time>
      </trkpt>
      <trkpt lat="45.93365" lon="1.25291">
        <ele>406.4</ele>
        <time>2024-11-29T13:06:09Z</time>
      </trkpt>
      <trkpt lat="45.93368" lon="1.25295">
        <ele>406.7</ele>
        <time>2024-11-29T13:06:10Z</time>
      </trkpt>
      <trkpt lat="45.9337" lon="1.253">
        <ele>406.9</ele>
        <time>2024-11-29T13:06:11Z</time>
      </trkpt>
      <trkpt lat="45.93373" lon="1.25304">
        <ele>407.1</ele>
        <time>2024-11-29T13:06:12Z</time>
      </trkpt>
      <trkpt lat="45.93376" lon="1.25308">
        <ele>407.3</ele>
        <time>2024-11-29T13:06:13Z</time>
      </trkpt>
      <trkpt lat="45.93378" lon="1.25312">
        <ele>407.5</ele>
        <time>2024-11-29T13:06:14Z</time>
      </trkpt>
      <trkpt lat="45.93381" lon="1.25316">
        <ele>407.6</ele>
        <time>2024-11-29T13:06:15Z</time>
      </trkpt>
      <trkpt lat="45.93385" lon="1.2532">
        <ele>407.7</ele>
        <time>2024-11-29T13:06:16Z</time>
      </trkpt>
      <trkpt lat="45.93388" lon="1.25325">
        <ele>407.7</ele>
        <time>2024-11-29T13:06:17Z</time>
      </trkpt>
      <trkpt lat="45.93392" lon="1.2533">
        <ele>407.7</ele>
        <time>2024-11-29T13:06:18Z</time>
      </trkpt>
      <trkpt lat="45.93396" lon="1.25335">
        <ele>407.7</ele>
        <time>2024-11-29T13:06:19Z</time>
      </trkpt>
      <trkpt lat="45.93401" lon="1.25342">
        <ele>407.6</ele>
        <time>2024-11-29T13:06:20Z</time>
      </trkpt>
      <trkpt lat="45.93405" lon="1.25347">
        <ele>407.6</ele>
        <time>2024-11-29T13:06:21Z</time>
      </trkpt>
      <trkpt lat="45.93409" lon="1.25352">
        <ele>407.5</ele>
        <time>2024-11-29T13:06:22Z</time>
      </trkpt>
      <trkpt lat="45.93414" lon="1.25357">
        <ele>407.4</ele>
        <time>2024-11-29T13:06:23Z</time>
      </trkpt>
      <trkpt lat="45.93419" lon="1.25363">
        <ele>407.3</ele>
        <time>2024-11-29T13:06:24Z</time>
      </trkpt>
      <trkpt lat="45.93423" lon="1.25368">
        <ele>407.3</ele>
        <time>2024-11-29T13:06:25Z</time>
      </trkpt>
      <trkpt lat="45.93427" lon="1.25374">
        <ele>407.2</ele>
        <time>2024-11-29T13:06:26Z</time>
      </trkpt>
      <trkpt lat="45.9343" lon="1.25379">
        <ele>407.2</ele>
        <time>2024-11-29T13:06:27Z</time>
      </trkpt>
      <trkpt lat="45.93432" lon="1.25386">
        <ele>407.2</ele>
        <time>2024-11-29T13:06:28Z</time>
      </trkpt>
      <trkpt lat="45.93435" lon="1.25394">
        <ele>407.3</ele>
        <time>2024-11-29T13:06:29Z</time>
      </trkpt>
      <trkpt lat="45.93438" lon="1.25401">
        <ele>407.3</ele>
        <time>2024-11-29T13:06:30Z</time>
      </trkpt>
      <trkpt lat="45.9344" lon="1.25407">
        <ele>407.4</ele>
        <time>2024-11-29T13:06:31Z</time>
      </trkpt>
      <trkpt lat="45.93442" lon="1.25414">
        <ele>407.5</ele>
        <time>2024-11-29T13:06:32Z</time>
      </trkpt>
      <trkpt lat="45.93444" lon="1.25421">
        <ele>407.6</ele>
        <time>2024-11-29T13:06:33Z</time>
      </trkpt>
      <trkpt lat="45.93446" lon="1.25427">
        <ele>407.7</ele>
        <time>2024-11-29T13:06:34Z</time>
      </trkpt>
      <trkpt lat="45.93449" lon="1.25432">
        <ele>407.9</ele>
        <time>2024-11-29T13:06:35Z</time>
      </trkpt>
      <trkpt lat="45.93452" lon="1.25437">
        <ele>408.1</ele>
        <time>2024-11-29T13:06:36Z</time>
      </trkpt>
      <trkpt lat="45.93455" lon="1.25441">
        <ele>408.2</ele>
        <time>2024-11-29T13:06:37Z</time>
      </trkpt>
      <trkpt lat="45.93458" lon="1.25444">
        <ele>408.4</ele>
        <time>2024-11-29T13:06:38Z</time>
      </trkpt>
      <trkpt lat="45.93462" lon="1.25447">
        <ele>408.5</ele>
        <time>2024-11-29T13:06:39Z</time>
      </trkpt>
      <trkpt lat="45.93466" lon="1.25451">
        <ele>408.7</ele>
        <time>2024-11-29T13:06:40Z</time>
      </trkpt>
      <trkpt lat="45.93469" lon="1.25454">
        <ele>408.8</ele>
        <time>2024-11-29T13:06:41Z</time>
      </trkpt>
      <trkpt lat="45.93473" lon="1.25458">
        <ele>409</ele>
        <time>2024-11-29T13:06:42Z</time>
      </trkpt>
      <trkpt lat="45.93476" lon="1.25461">
        <ele>409.1</ele>
        <time>2024-11-29T13:06:43Z</time>
      </trkpt>
      <trkpt lat="45.9348" lon="1.25464">
        <ele>409.3</ele>
        <time>2024-11-29T13:06:44Z</time>
      </trkpt>
      <trkpt lat="45.93484" lon="1.25467">
        <ele>409.4</ele>
        <time>2024-11-29T13:06:45Z</time>
      </trkpt>
      <trkpt lat="45.93488" lon="1.25471">
        <ele>409.6</ele>
        <time>2024-11-29T13:06:46Z</time>
      </trkpt>
      <trkpt lat="45.93492" lon="1.25475">
        <ele>409.8</ele>
        <time>2024-11-29T13:06:47Z</time>
      </trkpt>
      <trkpt lat="45.93497" lon="1.25478">
        <ele>410</ele>
        <time>2024-11-29T13:06:48Z</time>
      </trkpt>
      <trkpt lat="45.935" lon="1.25482">
        <ele>410.1</ele>
        <time>2024-11-29T13:06:49Z</time>
      </trkpt>
      <trkpt lat="45.93504" lon="1.25485">
        <ele>410.2</ele>
        <time>2024-11-29T13:06:50Z</time>
      </trkpt>
      <trkpt lat="45.93508" lon="1.25489">
        <ele>410.4</ele>
        <time>2024-11-29T13:06:51Z</time>
      </trkpt>
      <trkpt lat="45.93511" lon="1.25492">
        <ele>410.5</ele>
        <time>2024-11-29T13:06:52Z</time>
      </trkpt>
      <trkpt lat="45.93514" lon="1.25494">
        <ele>410.6</ele>
        <time>2024-11-29T13:06:53Z</time>
      </trkpt>
      <trkpt lat="45.93517" lon="1.25497">
        <ele>410.8</ele>
        <time>2024-11-29T13:06:54Z</time>
      </trkpt>
      <trkpt lat="45.9352" lon="1.25501">
        <ele>410.9</ele>
        <time>2024-11-29T13:06:55Z</time>
      </trkpt>
      <trkpt lat="45.93523" lon="1.25504">
        <ele>411</ele>
        <time>2024-11-29T13:06:56Z</time>
      </trkpt>
      <trkpt lat="45.93527" lon="1.25506">
        <ele>411.1</ele>
        <time>2024-11-29T13:06:57Z</time>
      </trkpt>
      <trkpt lat="45.93531" lon="1.25509">
        <ele>411.2</ele>
        <time>2024-11-29T13:06:58Z</time>
      </trkpt>
      <trkpt lat="45.93535" lon="1.25511">
        <ele>411.3</ele>
        <time>2024-11-29T13:06:59Z</time>
      </trkpt>
      <trkpt lat="45.93539" lon="1.25512">
        <ele>411.4</ele>
        <time>2024-11-29T13:07:00Z</time>
      </trkpt>
      <trkpt lat="45.93544" lon="1.25514">
        <ele>411.4</ele>
        <time>2024-11-29T13:07:01Z</time>
      </trkpt>
      <trkpt lat="45.93548" lon="1.25514">
        <ele>411.4</ele>
        <time>2024-11-29T13:07:02Z</time>
      </trkpt>
      <trkpt lat="45.93553" lon="1.25515">
        <ele>411.4</ele>
        <time>2024-11-29T13:07:03Z</time>
      </trkpt>
      <trkpt lat="45.93557" lon="1.25516">
        <ele>411.5</ele>
        <time>2024-11-29T13:07:04Z</time>
      </trkpt>
      <trkpt lat="45.93562" lon="1.25518">
        <ele>411.6</ele>
        <time>2024-11-29T13:07:05Z</time>
      </trkpt>
      <trkpt lat="45.93566" lon="1.2552">
        <ele>411.7</ele>
        <time>2024-11-29T13:07:06Z</time>
      </trkpt>
      <trkpt lat="45.9357" lon="1.25522">
        <ele>411.8</ele>
        <time>2024-11-29T13:07:07Z</time>
      </trkpt>
      <trkpt lat="45.93574" lon="1.25524">
        <ele>411.9</ele>
        <time>2024-11-29T13:07:08Z</time>
      </trkpt>
      <trkpt lat="45.93578" lon="1.25526">
        <ele>412</ele>
        <time>2024-11-29T13:07:09Z</time>
      </trkpt>
      <trkpt lat="45.93582" lon="1.25528">
        <ele>412.2</ele>
        <time>2024-11-29T13:07:10Z</time>
      </trkpt>
      <trkpt lat="45.93585" lon="1.25529">
        <ele>412.3</ele>
        <time>2024-11-29T13:07:11Z</time>
      </trkpt>
      <trkpt lat="45.93589" lon="1.25531">
        <ele>412.5</ele>
        <time>2024-11-29T13:07:12Z</time>
      </trkpt>
      <trkpt lat="45.93592" lon="1.25533">
        <ele>412.6</ele>
        <time>2024-11-29T13:07:13Z</time>
      </trkpt>
      <trkpt lat="45.93596" lon="1.25535">
        <ele>412.8</ele>
        <time>2024-11-29T13:07:14Z</time>
      </trkpt>
      <trkpt lat="45.93599" lon="1.25538">
        <ele>413.1</ele>
        <time>2024-11-29T13:07:15Z</time>
      </trkpt>
      <trkpt lat="45.93602" lon="1.2554">
        <ele>413.3</ele>
        <time>2024-11-29T13:07:16Z</time>
      </trkpt>
      <trkpt lat="45.93605" lon="1.25542">
        <ele>413.5</ele>
        <time>2024-11-29T13:07:17Z</time>
      </trkpt>
      <trkpt lat="45.93607" lon="1.25544">
        <ele>413.6</ele>
        <time>2024-11-29T13:07:18Z</time>
      </trkpt>
      <trkpt lat="45.9361" lon="1.25547">
        <ele>413.9</ele>
        <time>2024-11-29T13:07:19Z</time>
      </trkpt>
      <trkpt lat="45.93612" lon="1.2555">
        <ele>414.1</ele>
        <time>2024-11-29T13:07:20Z</time>
      </trkpt>
      <trkpt lat="45.93615" lon="1.25553">
        <ele>414.4</ele>
        <time>2024-11-29T13:07:21Z</time>
      </trkpt>
      <trkpt lat="45.93617" lon="1.25556">
        <ele>414.7</ele>
        <time>2024-11-29T13:07:22Z</time>
      </trkpt>
      <trkpt lat="45.93619" lon="1.25559">
        <ele>415</ele>
        <time>2024-11-29T13:07:23Z</time>
      </trkpt>
      <trkpt lat="45.93622" lon="1.25562">
        <ele>415.3</ele>
        <time>2024-11-29T13:07:24Z</time>
      </trkpt>
      <trkpt lat="45.93624" lon="1.25565">
        <ele>415.6</ele>
        <time>2024-11-29T13:07:25Z</time>
      </trkpt>
      <trkpt lat="45.93626" lon="1.25568">
        <ele>415.9</ele>
        <time>2024-11-29T13:07:26Z</time>
      </trkpt>
      <trkpt lat="45.93628" lon="1.2557">
        <ele>416.1</ele>
        <time>2024-11-29T13:07:27Z</time>
      </trkpt>
      <trkpt lat="45.93631" lon="1.25573">
        <ele>416.4</ele>
        <time>2024-11-29T13:07:28Z</time>
      </trkpt>
      <trkpt lat="45.93633" lon="1.25575">
        <ele>416.3</ele>
        <time>2024-11-29T13:07:29Z</time>
      </trkpt>
      <trkpt lat="45.93636" lon="1.25578">
        <ele>416.1</ele>
        <time>2024-11-29T13:07:30Z</time>
      </trkpt>
      <trkpt lat="45.93638" lon="1.25581">
        <ele>416</ele>
        <time>2024-11-29T13:07:31Z</time>
      </trkpt>
      <trkpt lat="45.93641" lon="1.25584">
        <ele>415.8</ele>
        <time>2024-11-29T13:07:32Z</time>
      </trkpt>
      <trkpt lat="45.93643" lon="1.25588">
        <ele>415.6</ele>
        <time>2024-11-29T13:07:33Z</time>
      </trkpt>
      <trkpt lat="45.93646" lon="1.25592">
        <ele>415.3</ele>
        <time>2024-11-29T13:07:34Z</time>
      </trkpt>
      <trkpt lat="45.9365" lon="1.25596">
        <ele>415</ele>
        <time>2024-11-29T13:07:35Z</time>
      </trkpt>
      <trkpt lat="45.93653" lon="1.25601">
        <ele>414.7</ele>
        <time>2024-11-29T13:07:36Z</time>
      </trkpt>
      <trkpt lat="45.93657" lon="1.25606">
        <ele>414.3</ele>
        <time>2024-11-29T13:07:37Z</time>
      </trkpt>
      <trkpt lat="45.93661" lon="1.2561">
        <ele>414</ele>
        <time>2024-11-29T13:07:38Z</time>
      </trkpt>
      <trkpt lat="45.93666" lon="1.25615">
        <ele>413.5</ele>
        <time>2024-11-29T13:07:39Z</time>
      </trkpt>
      <trkpt lat="45.9367" lon="1.2562">
        <ele>413.1</ele>
        <time>2024-11-29T13:07:40Z</time>
      </trkpt>
      <trkpt lat="45.93675" lon="1.25626">
        <ele>412.7</ele>
        <time>2024-11-29T13:07:41Z</time>
      </trkpt>
      <trkpt lat="45.93679" lon="1.25633">
        <ele>412.2</ele>
        <time>2024-11-29T13:07:42Z</time>
      </trkpt>
      <trkpt lat="45.93684" lon="1.25639">
        <ele>411.8</ele>
        <time>2024-11-29T13:07:43Z</time>
      </trkpt>
      <trkpt lat="45.93688" lon="1.25646">
        <ele>411.4</ele>
        <time>2024-11-29T13:07:44Z</time>
      </trkpt>
      <trkpt lat="45.93693" lon="1.25653">
        <ele>410.9</ele>
        <time>2024-11-29T13:07:45Z</time>
      </trkpt>
      <trkpt lat="45.93697" lon="1.25661">
        <ele>410.5</ele>
        <time>2024-11-29T13:07:46Z</time>
      </trkpt>
      <trkpt lat="45.93702" lon="1.25669">
        <ele>410.1</ele>
        <time>2024-11-29T13:07:47Z</time>
      </trkpt>
      <trkpt lat="45.93706" lon="1.25678">
        <ele>409.8</ele>
        <time>2024-11-29T13:07:48Z</time>
      </trkpt>
      <trkpt lat="45.9371" lon="1.25686">
        <ele>409.5</ele>
        <time>2024-11-29T13:07:49Z</time>
      </trkpt>
      <trkpt lat="45.93715" lon="1.25695">
        <ele>409.2</ele>
        <time>2024-11-29T13:07:50Z</time>
      </trkpt>
      <trkpt lat="45.93719" lon="1.25705">
        <ele>409</ele>
        <time>2024-11-29T13:07:51Z</time>
      </trkpt>
      <trkpt lat="45.93723" lon="1.25713">
        <ele>408.8</ele>
        <time>2024-11-29T13:07:52Z</time>
      </trkpt>
      <trkpt lat="45.93726" lon="1.25722">
        <ele>408.7</ele>
        <time>2024-11-29T13:07:53Z</time>
      </trkpt>
      <trkpt lat="45.93729" lon="1.2573">
        <ele>408.6</ele>
        <time>2024-11-29T13:07:54Z</time>
      </trkpt>
      <trkpt lat="45.93732" lon="1.25738">
        <ele>408.5</ele>
        <time>2024-11-29T13:07:55Z</time>
      </trkpt>
      <trkpt lat="45.93734" lon="1.25745">
        <ele>408.4</ele>
        <time>2024-11-29T13:07:56Z</time>
      </trkpt>
      <trkpt lat="45.93737" lon="1.25751">
        <ele>408.4</ele>
        <time>2024-11-29T13:07:57Z</time>
      </trkpt>
      <trkpt lat="45.93739" lon="1.25756">
        <ele>408.5</ele>
        <time>2024-11-29T13:07:58Z</time>
      </trkpt>
      <trkpt lat="45.93742" lon="1.25761">
        <ele>408.6</ele>
        <time>2024-11-29T13:07:59Z</time>
      </trkpt>
      <trkpt lat="45.93744" lon="1.25767">
        <ele>408.7</ele>
        <time>2024-11-29T13:08:00Z</time>
      </trkpt>
      <trkpt lat="45.93745" lon="1.25772">
        <ele>408.8</ele>
        <time>2024-11-29T13:08:01Z</time>
      </trkpt>
      <trkpt lat="45.93746" lon="1.25777">
        <ele>408.9</ele>
        <time>2024-11-29T13:08:02Z</time>
      </trkpt>
      <trkpt lat="45.93748" lon="1.25782">
        <ele>409</ele>
        <time>2024-11-29T13:08:03Z</time>
      </trkpt>
      <trkpt lat="45.9375" lon="1.25787">
        <ele>409.1</ele>
        <time>2024-11-29T13:08:04Z</time>
      </trkpt>
      <trkpt lat="45.93753" lon="1.2579">
        <ele>409.2</ele>
        <time>2024-11-29T13:08:05Z</time>
      </trkpt>
      <trkpt lat="45.93756" lon="1.25794">
        <ele>409.3</ele>
        <time>2024-11-29T13:08:06Z</time>
      </trkpt>
      <trkpt lat="45.93759" lon="1.25798">
        <ele>409.4</ele>
        <time>2024-11-29T13:08:07Z</time>
      </trkpt>
      <trkpt lat="45.93762" lon="1.25802">
        <ele>409.4</ele>
        <time>2024-11-29T13:08:08Z</time>
      </trkpt>
      <trkpt lat="45.93765" lon="1.25806">
        <ele>409.3</ele>
        <time>2024-11-29T13:08:09Z</time>
      </trkpt>
      <trkpt lat="45.93767" lon="1.2581">
        <ele>409.3</ele>
        <time>2024-11-29T13:08:10Z</time>
      </trkpt>
      <trkpt lat="45.9377" lon="1.25812">
        <ele>409.2</ele>
        <time>2024-11-29T13:08:11Z</time>
      </trkpt>
      <trkpt lat="45.93773" lon="1.25816">
        <ele>409.1</ele>
        <time>2024-11-29T13:08:12Z</time>
      </trkpt>
      <trkpt lat="45.93776" lon="1.2582">
        <ele>409</ele>
        <time>2024-11-29T13:08:13Z</time>
      </trkpt>
      <trkpt lat="45.93779" lon="1.25824">
        <ele>408.8</ele>
        <time>2024-11-29T13:08:14Z</time>
      </trkpt>
      <trkpt lat="45.93783" lon="1.25827">
        <ele>408.7</ele>
        <time>2024-11-29T13:08:15Z</time>
      </trkpt>
      <trkpt lat="45.93787" lon="1.2583">
        <ele>408.7</ele>
        <time>2024-11-29T13:08:16Z</time>
      </trkpt>
      <trkpt lat="45.9379" lon="1.25834">
        <ele>408.6</ele>
        <time>2024-11-29T13:08:17Z</time>
      </trkpt>
      <trkpt lat="45.93793" lon="1.25838">
        <ele>408.6</ele>
        <time>2024-11-29T13:08:18Z</time>
      </trkpt>
      <trkpt lat="45.93797" lon="1.25843">
        <ele>408.5</ele>
        <time>2024-11-29T13:08:19Z</time>
      </trkpt>
      <trkpt lat="45.938" lon="1.25848">
        <ele>408.6</ele>
        <time>2024-11-29T13:08:20Z</time>
      </trkpt>
      <trkpt lat="45.93805" lon="1.25852">
        <ele>408.6</ele>
        <time>2024-11-29T13:08:21Z</time>
      </trkpt>
      <trkpt lat="45.93809" lon="1.25856">
        <ele>408.7</ele>
        <time>2024-11-29T13:08:22Z</time>
      </trkpt>
      <trkpt lat="45.93812" lon="1.2586">
        <ele>408.7</ele>
        <time>2024-11-29T13:08:23Z</time>
      </trkpt>
      <trkpt lat="45.93815" lon="1.25865">
        <ele>408.7</ele>
        <time>2024-11-29T13:08:24Z</time>
      </trkpt>
      <trkpt lat="45.93818" lon="1.25869">
        <ele>408.8</ele>
        <time>2024-11-29T13:08:25Z</time>
      </trkpt>
      <trkpt lat="45.93822" lon="1.25872">
        <ele>408.8</ele>
        <time>2024-11-29T13:08:26Z</time>
      </trkpt>
      <trkpt lat="45.93826" lon="1.25877">
        <ele>408.9</ele>
        <time>2024-11-29T13:08:27Z</time>
      </trkpt>
      <trkpt lat="45.9383" lon="1.25881">
        <ele>409</ele>
        <time>2024-11-29T13:08:28Z</time>
      </trkpt>
      <trkpt lat="45.93834" lon="1.25884">
        <ele>409</ele>
        <time>2024-11-29T13:08:29Z</time>
      </trkpt>
      <trkpt lat="45.93837" lon="1.25887">
        <ele>409.1</ele>
        <time>2024-11-29T13:08:30Z</time>
      </trkpt>
      <trkpt lat="45.93841" lon="1.25891">
        <ele>409.1</ele>
        <time>2024-11-29T13:08:31Z</time>
      </trkpt>
      <trkpt lat="45.93845" lon="1.25896">
        <ele>409.2</ele>
        <time>2024-11-29T13:08:32Z</time>
      </trkpt>
      <trkpt lat="45.93848" lon="1.25902">
        <ele>409.2</ele>
        <time>2024-11-29T13:08:33Z</time>
      </trkpt>
      <trkpt lat="45.93851" lon="1.25907">
        <ele>409.3</ele>
        <time>2024-11-29T13:08:34Z</time>
      </trkpt>
      <trkpt lat="45.93854" lon="1.25911">
        <ele>409.3</ele>
        <time>2024-11-29T13:08:35Z</time>
      </trkpt>
      <trkpt lat="45.93857" lon="1.25914">
        <ele>409.3</ele>
        <time>2024-11-29T13:08:37Z</time>
      </trkpt>
      <trkpt lat="45.93859" lon="1.25919">
        <ele>409.3</ele>
        <time>2024-11-29T13:08:39Z</time>
      </trkpt>
      <trkpt lat="45.93861" lon="1.25924">
        <ele>409.3</ele>
        <time>2024-11-29T13:08:40Z</time>
      </trkpt>
      <trkpt lat="45.93862" lon="1.25929">
        <ele>409.4</ele>
        <time>2024-11-29T13:08:41Z</time>
      </trkpt>
      <trkpt lat="45.93864" lon="1.25933">
        <ele>409.5</ele>
        <time>2024-11-29T13:08:42Z</time>
      </trkpt>
      <trkpt lat="45.93866" lon="1.25936">
        <ele>409.6</ele>
        <time>2024-11-29T13:08:43Z</time>
      </trkpt>
      <trkpt lat="45.93869" lon="1.25938">
        <ele>409.8</ele>
        <time>2024-11-29T13:08:44Z</time>
      </trkpt>
      <trkpt lat="45.93871" lon="1.2594">
        <ele>410</ele>
        <time>2024-11-29T13:08:47Z</time>
      </trkpt>
      <trkpt lat="45.93874" lon="1.25942">
        <ele>410.3</ele>
        <time>2024-11-29T13:08:49Z</time>
      </trkpt>
      <trkpt lat="45.93877" lon="1.25943">
        <ele>410.6</ele>
        <time>2024-11-29T13:08:50Z</time>
      </trkpt>
      <trkpt lat="45.9388" lon="1.25945">
        <ele>411</ele>
        <time>2024-11-29T13:08:51Z</time>
      </trkpt>
      <trkpt lat="45.93883" lon="1.25947">
        <ele>411.4</ele>
        <time>2024-11-29T13:08:53Z</time>
      </trkpt>
      <trkpt lat="45.93887" lon="1.25952">
        <ele>412.2</ele>
        <time>2024-11-29T13:08:55Z</time>
      </trkpt>
      <trkpt lat="45.93891" lon="1.25955">
        <ele>412.9</ele>
        <time>2024-11-29T13:08:56Z</time>
      </trkpt>
      <trkpt lat="45.93893" lon="1.25957">
        <ele>413.3</ele>
        <time>2024-11-29T13:08:57Z</time>
      </trkpt>
      <trkpt lat="45.93898" lon="1.25958">
        <ele>414.1</ele>
        <time>2024-11-29T13:08:59Z</time>
      </trkpt>
      <trkpt lat="45.93902" lon="1.25958">
        <ele>414.8</ele>
        <time>2024-11-29T13:09:00Z</time>
      </trkpt>
      <trkpt lat="45.93905" lon="1.2596">
        <ele>415.4</ele>
        <time>2024-11-29T13:09:03Z</time>
      </trkpt>
      <trkpt lat="45.93909" lon="1.25963">
        <ele>416.2</ele>
        <time>2024-11-29T13:09:05Z</time>
      </trkpt>
      <trkpt lat="45.93913" lon="1.25967">
        <ele>417</ele>
        <time>2024-11-29T13:09:07Z</time>
      </trkpt>
      <trkpt lat="45.93916" lon="1.2597">
        <ele>417.6</ele>
        <time>2024-11-29T13:09:09Z</time>
      </trkpt>
      <trkpt lat="45.9392" lon="1.25975">
        <ele>418.4</ele>
        <time>2024-11-29T13:09:11Z</time>
      </trkpt>
      <trkpt lat="45.93924" lon="1.2598">
        <ele>419.2</ele>
        <time>2024-11-29T13:09:13Z</time>
      </trkpt>
      <trkpt lat="45.93927" lon="1.25985">
        <ele>419.9</ele>
        <time>2024-11-29T13:09:14Z</time>
      </trkpt>
      <trkpt lat="45.93931" lon="1.25989">
        <ele>420.5</ele>
        <time>2024-11-29T13:09:16Z</time>
      </trkpt>
      <trkpt lat="45.93934" lon="1.25993">
        <ele>421.1</ele>
        <time>2024-11-29T13:09:17Z</time>
      </trkpt>
      <trkpt lat="45.93937" lon="1.25998">
        <ele>421.7</ele>
        <time>2024-11-29T13:09:19Z</time>
      </trkpt>
      <trkpt lat="45.9394" lon="1.26002">
        <ele>422.2</ele>
        <time>2024-11-29T13:09:20Z</time>
      </trkpt>
      <trkpt lat="45.93942" lon="1.26006">
        <ele>422.6</ele>
        <time>2024-11-29T13:09:21Z</time>
      </trkpt>
      <trkpt lat="45.93945" lon="1.2601">
        <ele>423.1</ele>
        <time>2024-11-29T13:09:22Z</time>
      </trkpt>
      <trkpt lat="45.93947" lon="1.26014">
        <ele>423.5</ele>
        <time>2024-11-29T13:09:23Z</time>
      </trkpt>
      <trkpt lat="45.93949" lon="1.2602">
        <ele>424</ele>
        <time>2024-11-29T13:09:25Z</time>
      </trkpt>
      <trkpt lat="45.93952" lon="1.26024">
        <ele>424.4</ele>
        <time>2024-11-29T13:09:27Z</time>
      </trkpt>
      <trkpt lat="45.93955" lon="1.26028">
        <ele>424.8</ele>
        <time>2024-11-29T13:09:28Z</time>
      </trkpt>
      <trkpt lat="45.93958" lon="1.2603">
        <ele>425.1</ele>
        <time>2024-11-29T13:09:29Z</time>
      </trkpt>
      <trkpt lat="45.93961" lon="1.26033">
        <ele>425.4</ele>
        <time>2024-11-29T13:09:30Z</time>
      </trkpt>
      <trkpt lat="45.93965" lon="1.26036">
        <ele>425.8</ele>
        <time>2024-11-29T13:09:32Z</time>
      </trkpt>
      <trkpt lat="45.93969" lon="1.26039">
        <ele>426.2</ele>
        <time>2024-11-29T13:09:33Z</time>
      </trkpt>
      <trkpt lat="45.93972" lon="1.26042">
        <ele>426.5</ele>
        <time>2024-11-29T13:09:34Z</time>
      </trkpt>
      <trkpt lat="45.93976" lon="1.26044">
        <ele>426.9</ele>
        <time>2024-11-29T13:09:35Z</time>
      </trkpt>
      <trkpt lat="45.93978" lon="1.26047">
        <ele>427.2</ele>
        <time>2024-11-29T13:09:36Z</time>
      </trkpt>
      <trkpt lat="45.93981" lon="1.26048">
        <ele>427.5</ele>
        <time>2024-11-29T13:09:37Z</time>
      </trkpt>
      <trkpt lat="45.93985" lon="1.2605">
        <ele>427.9</ele>
        <time>2024-11-29T13:09:39Z</time>
      </trkpt>
      <trkpt lat="45.93989" lon="1.26052">
        <ele>428.5</ele>
        <time>2024-11-29T13:09:41Z</time>
      </trkpt>
      <trkpt lat="45.93992" lon="1.26054">
        <ele>428.9</ele>
        <time>2024-11-29T13:09:43Z</time>
      </trkpt>
      <trkpt lat="45.93996" lon="1.26056">
        <ele>429.6</ele>
        <time>2024-11-29T13:09:45Z</time>
      </trkpt>
      <trkpt lat="45.93999" lon="1.26057">
        <ele>430.1</ele>
        <time>2024-11-29T13:09:47Z</time>
      </trkpt>
      <trkpt lat="45.94002" lon="1.26058">
        <ele>430.6</ele>
        <time>2024-11-29T13:09:49Z</time>
      </trkpt>
      <trkpt lat="45.94005" lon="1.26059">
        <ele>431.1</ele>
        <time>2024-11-29T13:09:51Z</time>
      </trkpt>
      <trkpt lat="45.94008" lon="1.26062">
        <ele>431.8</ele>
        <time>2024-11-29T13:09:53Z</time>
      </trkpt>
      <trkpt lat="45.94011" lon="1.26064">
        <ele>432.3</ele>
        <time>2024-11-29T13:09:54Z</time>
      </trkpt>
      <trkpt lat="45.94014" lon="1.26067">
        <ele>432.9</ele>
        <time>2024-11-29T13:09:56Z</time>
      </trkpt>
      <trkpt lat="45.94017" lon="1.26072">
        <ele>433.5</ele>
        <time>2024-11-29T13:09:58Z</time>
      </trkpt>
      <trkpt lat="45.9402" lon="1.26075">
        <ele>434</ele>
        <time>2024-11-29T13:09:59Z</time>
      </trkpt>
      <trkpt lat="45.94023" lon="1.26077">
        <ele>434.3</ele>
        <time>2024-11-29T13:10:00Z</time>
      </trkpt>
      <trkpt lat="45.94026" lon="1.2608">
        <ele>434.6</ele>
        <time>2024-11-29T13:10:01Z</time>
      </trkpt>
      <trkpt lat="45.9403" lon="1.26084">
        <ele>434.9</ele>
        <time>2024-11-29T13:10:02Z</time>
      </trkpt>
      <trkpt lat="45.94033" lon="1.26088">
        <ele>435.1</ele>
        <time>2024-11-29T13:10:03Z</time>
      </trkpt>
      <trkpt lat="45.94037" lon="1.26092">
        <ele>435.4</ele>
        <time>2024-11-29T13:10:04Z</time>
      </trkpt>
      <trkpt lat="45.94041" lon="1.26095">
        <ele>435.6</ele>
        <time>2024-11-29T13:10:05Z</time>
      </trkpt>
      <trkpt lat="45.94044" lon="1.26098">
        <ele>435.7</ele>
        <time>2024-11-29T13:10:06Z</time>
      </trkpt>
      <trkpt lat="45.94047" lon="1.261">
        <ele>435.9</ele>
        <time>2024-11-29T13:10:07Z</time>
      </trkpt>
      <trkpt lat="45.94052" lon="1.26106">
        <ele>436.2</ele>
        <time>2024-11-29T13:10:08Z</time>
      </trkpt>
      <trkpt lat="45.94057" lon="1.26109">
        <ele>436.5</ele>
        <time>2024-11-29T13:10:09Z</time>
      </trkpt>
      <trkpt lat="45.9406" lon="1.26112">
        <ele>436.7</ele>
        <time>2024-11-29T13:10:10Z</time>
      </trkpt>
      <trkpt lat="45.94063" lon="1.26116">
        <ele>436.8</ele>
        <time>2024-11-29T13:10:12Z</time>
      </trkpt>
      <trkpt lat="45.94066" lon="1.26119">
        <ele>437</ele>
        <time>2024-11-29T13:10:13Z</time>
      </trkpt>
      <trkpt lat="45.94069" lon="1.26123">
        <ele>437.1</ele>
        <time>2024-11-29T13:10:14Z</time>
      </trkpt>
      <trkpt lat="45.94071" lon="1.26126">
        <ele>437.2</ele>
        <time>2024-11-29T13:10:15Z</time>
      </trkpt>
      <trkpt lat="45.94073" lon="1.2613">
        <ele>437.3</ele>
        <time>2024-11-29T13:10:16Z</time>
      </trkpt>
      <trkpt lat="45.94075" lon="1.26134">
        <ele>437.5</ele>
        <time>2024-11-29T13:10:17Z</time>
      </trkpt>
      <trkpt lat="45.94077" lon="1.26138">
        <ele>437.6</ele>
        <time>2024-11-29T13:10:18Z</time>
      </trkpt>
      <trkpt lat="45.9408" lon="1.26144">
        <ele>437.7</ele>
        <time>2024-11-29T13:10:19Z</time>
      </trkpt>
      <trkpt lat="45.94082" lon="1.2615">
        <ele>437.9</ele>
        <time>2024-11-29T13:10:20Z</time>
      </trkpt>
      <trkpt lat="45.94084" lon="1.26156">
        <ele>438</ele>
        <time>2024-11-29T13:10:21Z</time>
      </trkpt>
      <trkpt lat="45.94087" lon="1.26164">
        <ele>438.1</ele>
        <time>2024-11-29T13:10:22Z</time>
      </trkpt>
      <trkpt lat="45.94089" lon="1.26171">
        <ele>438.1</ele>
        <time>2024-11-29T13:10:23Z</time>
      </trkpt>
      <trkpt lat="45.94091" lon="1.26178">
        <ele>438.2</ele>
        <time>2024-11-29T13:10:24Z</time>
      </trkpt>
      <trkpt lat="45.94093" lon="1.26183">
        <ele>438.2</ele>
        <time>2024-11-29T13:10:25Z</time>
      </trkpt>
      <trkpt lat="45.94095" lon="1.26189">
        <ele>438.2</ele>
        <time>2024-11-29T13:10:26Z</time>
      </trkpt>
      <trkpt lat="45.94097" lon="1.26194">
        <ele>438.3</ele>
        <time>2024-11-29T13:10:27Z</time>
      </trkpt>
      <trkpt lat="45.941" lon="1.26198">
        <ele>438.4</ele>
        <time>2024-11-29T13:10:28Z</time>
      </trkpt>
      <trkpt lat="45.94103" lon="1.26203">
        <ele>438.4</ele>
        <time>2024-11-29T13:10:29Z</time>
      </trkpt>
      <trkpt lat="45.94106" lon="1.26206">
        <ele>438.5</ele>
        <time>2024-11-29T13:10:30Z</time>
      </trkpt>
      <trkpt lat="45.94109" lon="1.2621">
        <ele>438.6</ele>
        <time>2024-11-29T13:10:31Z</time>
      </trkpt>
      <trkpt lat="45.94112" lon="1.26214">
        <ele>438.7</ele>
        <time>2024-11-29T13:10:32Z</time>
      </trkpt>
      <trkpt lat="45.94115" lon="1.26218">
        <ele>438.9</ele>
        <time>2024-11-29T13:10:33Z</time>
      </trkpt>
      <trkpt lat="45.94117" lon="1.26223">
        <ele>439</ele>
        <time>2024-11-29T13:10:34Z</time>
      </trkpt>
      <trkpt lat="45.9412" lon="1.26228">
        <ele>439.2</ele>
        <time>2024-11-29T13:10:35Z</time>
      </trkpt>
      <trkpt lat="45.94122" lon="1.26232">
        <ele>439.3</ele>
        <time>2024-11-29T13:10:36Z</time>
      </trkpt>
      <trkpt lat="45.94124" lon="1.26235">
        <ele>439.4</ele>
        <time>2024-11-29T13:10:37Z</time>
      </trkpt>
      <trkpt lat="45.94127" lon="1.2624">
        <ele>439.6</ele>
        <time>2024-11-29T13:10:39Z</time>
      </trkpt>
      <trkpt lat="45.94129" lon="1.26244">
        <ele>439.8</ele>
        <time>2024-11-29T13:10:40Z</time>
      </trkpt>
      <trkpt lat="45.9413" lon="1.26249">
        <ele>440</ele>
        <time>2024-11-29T13:10:41Z</time>
      </trkpt>
      <trkpt lat="45.94131" lon="1.26253">
        <ele>440.3</ele>
        <time>2024-11-29T13:10:42Z</time>
      </trkpt>
      <trkpt lat="45.94133" lon="1.26258">
        <ele>440.6</ele>
        <time>2024-11-29T13:10:43Z</time>
      </trkpt>
      <trkpt lat="45.94134" lon="1.26262">
        <ele>440.8</ele>
        <time>2024-11-29T13:10:44Z</time>
      </trkpt>
      <trkpt lat="45.94136" lon="1.26266">
        <ele>441.1</ele>
        <time>2024-11-29T13:10:45Z</time>
      </trkpt>
      <trkpt lat="45.94138" lon="1.26271">
        <ele>441.4</ele>
        <time>2024-11-29T13:10:46Z</time>
      </trkpt>
      <trkpt lat="45.94139" lon="1.26276">
        <ele>441.6</ele>
        <time>2024-11-29T13:10:47Z</time>
      </trkpt>
      <trkpt lat="45.94139" lon="1.26282">
        <ele>441.9</ele>
        <time>2024-11-29T13:10:48Z</time>
      </trkpt>
      <trkpt lat="45.9414" lon="1.26287">
        <ele>442.1</ele>
        <time>2024-11-29T13:10:49Z</time>
      </trkpt>
      <trkpt lat="45.94141" lon="1.26291">
        <ele>442.3</ele>
        <time>2024-11-29T13:10:50Z</time>
      </trkpt>
      <trkpt lat="45.94143" lon="1.26296">
        <ele>442.6</ele>
        <time>2024-11-29T13:10:51Z</time>
      </trkpt>
      <trkpt lat="45.94144" lon="1.263">
        <ele>442.8</ele>
        <time>2024-11-29T13:10:52Z</time>
      </trkpt>
      <trkpt lat="45.94145" lon="1.26305">
        <ele>443</ele>
        <time>2024-11-29T13:10:53Z</time>
      </trkpt>
      <trkpt lat="45.94146" lon="1.26309">
        <ele>443.2</ele>
        <time>2024-11-29T13:10:54Z</time>
      </trkpt>
      <trkpt lat="45.94148" lon="1.26313">
        <ele>443.4</ele>
        <time>2024-11-29T13:10:55Z</time>
      </trkpt>
      <trkpt lat="45.9415" lon="1.26317">
        <ele>443.6</ele>
        <time>2024-11-29T13:10:56Z</time>
      </trkpt>
      <trkpt lat="45.94152" lon="1.26321">
        <ele>443.9</ele>
        <time>2024-11-29T13:10:57Z</time>
      </trkpt>
      <trkpt lat="45.94154" lon="1.26326">
        <ele>444.2</ele>
        <time>2024-11-29T13:10:59Z</time>
      </trkpt>
      <trkpt lat="45.94157" lon="1.26332">
        <ele>444.7</ele>
        <time>2024-11-29T13:11:01Z</time>
      </trkpt>
      <trkpt lat="45.94159" lon="1.26338">
        <ele>445.1</ele>
        <time>2024-11-29T13:11:03Z</time>
      </trkpt>
      <trkpt lat="45.94161" lon="1.26342">
        <ele>445.4</ele>
        <time>2024-11-29T13:11:05Z</time>
      </trkpt>
      <trkpt lat="45.94164" lon="1.26347">
        <ele>445.8</ele>
        <time>2024-11-29T13:11:07Z</time>
      </trkpt>
      <trkpt lat="45.94167" lon="1.26351">
        <ele>446.2</ele>
        <time>2024-11-29T13:11:08Z</time>
      </trkpt>
      <trkpt lat="45.9417" lon="1.26353">
        <ele>446.5</ele>
        <time>2024-11-29T13:11:09Z</time>
      </trkpt>
      <trkpt lat="45.94172" lon="1.26356">
        <ele>446.8</ele>
        <time>2024-11-29T13:11:10Z</time>
      </trkpt>
      <trkpt lat="45.94175" lon="1.26358">
        <ele>447.2</ele>
        <time>2024-11-29T13:11:11Z</time>
      </trkpt>
      <trkpt lat="45.94179" lon="1.2636">
        <ele>447.6</ele>
        <time>2024-11-29T13:11:13Z</time>
      </trkpt>
      <trkpt lat="45.94184" lon="1.26362">
        <ele>448.1</ele>
        <time>2024-11-29T13:11:15Z</time>
      </trkpt>
      <trkpt lat="45.94189" lon="1.26362">
        <ele>448.7</ele>
        <time>2024-11-29T13:11:17Z</time>
      </trkpt>
      <trkpt lat="45.94194" lon="1.26362">
        <ele>449.3</ele>
        <time>2024-11-29T13:11:19Z</time>
      </trkpt>
      <trkpt lat="45.94199" lon="1.26362">
        <ele>449.8</ele>
        <time>2024-11-29T13:11:21Z</time>
      </trkpt>
      <trkpt lat="45.94203" lon="1.26362">
        <ele>450.2</ele>
        <time>2024-11-29T13:11:23Z</time>
      </trkpt>
      <trkpt lat="45.94209" lon="1.26362">
        <ele>450.8</ele>
        <time>2024-11-29T13:11:25Z</time>
      </trkpt>
      <trkpt lat="45.94212" lon="1.26361">
        <ele>451.1</ele>
        <time>2024-11-29T13:11:26Z</time>
      </trkpt>
      <trkpt lat="45.94216" lon="1.26361">
        <ele>451.4</ele>
        <time>2024-11-29T13:11:27Z</time>
      </trkpt>
      <trkpt lat="45.94219" lon="1.26361">
        <ele>451.6</ele>
        <time>2024-11-29T13:11:28Z</time>
      </trkpt>
      <trkpt lat="45.94223" lon="1.26362">
        <ele>451.7</ele>
        <time>2024-11-29T13:11:29Z</time>
      </trkpt>
      <trkpt lat="45.94226" lon="1.26363">
        <ele>451.8</ele>
        <time>2024-11-29T13:11:30Z</time>
      </trkpt>
      <trkpt lat="45.9423" lon="1.26364">
        <ele>451.9</ele>
        <time>2024-11-29T13:11:31Z</time>
      </trkpt>
      <trkpt lat="45.94233" lon="1.26365">
        <ele>451.9</ele>
        <time>2024-11-29T13:11:32Z</time>
      </trkpt>
      <trkpt lat="45.94236" lon="1.26367">
        <ele>451.9</ele>
        <time>2024-11-29T13:11:34Z</time>
      </trkpt>
      <trkpt lat="45.9424" lon="1.26368">
        <ele>451.9</ele>
        <time>2024-11-29T13:11:36Z</time>
      </trkpt>
      <trkpt lat="45.94243" lon="1.2637">
        <ele>451.9</ele>
        <time>2024-11-29T13:11:38Z</time>
      </trkpt>
      <trkpt lat="45.94247" lon="1.26371">
        <ele>451.8</ele>
        <time>2024-11-29T13:11:40Z</time>
      </trkpt>
      <trkpt lat="45.94251" lon="1.26371">
        <ele>451.7</ele>
        <time>2024-11-29T13:11:41Z</time>
      </trkpt>
      <trkpt lat="45.94255" lon="1.26372">
        <ele>451.5</ele>
        <time>2024-11-29T13:11:42Z</time>
      </trkpt>
      <trkpt lat="45.94258" lon="1.26373">
        <ele>451.4</ele>
        <time>2024-11-29T13:11:43Z</time>
      </trkpt>
      <trkpt lat="45.94262" lon="1.26375">
        <ele>451.2</ele>
        <time>2024-11-29T13:11:44Z</time>
      </trkpt>
      <trkpt lat="45.94265" lon="1.26376">
        <ele>451.1</ele>
        <time>2024-11-29T13:11:45Z</time>
      </trkpt>
      <trkpt lat="45.94268" lon="1.26378">
        <ele>450.9</ele>
        <time>2024-11-29T13:11:46Z</time>
      </trkpt>
      <trkpt lat="45.94272" lon="1.2638">
        <ele>450.7</ele>
        <time>2024-11-29T13:11:47Z</time>
      </trkpt>
      <trkpt lat="45.94275" lon="1.26383">
        <ele>450.5</ele>
        <time>2024-11-29T13:11:48Z</time>
      </trkpt>
      <trkpt lat="45.94279" lon="1.26385">
        <ele>450.2</ele>
        <time>2024-11-29T13:11:49Z</time>
      </trkpt>
      <trkpt lat="45.94283" lon="1.26388">
        <ele>449.9</ele>
        <time>2024-11-29T13:11:50Z</time>
      </trkpt>
      <trkpt lat="45.94288" lon="1.26391">
        <ele>449.5</ele>
        <time>2024-11-29T13:11:51Z</time>
      </trkpt>
      <trkpt lat="45.94292" lon="1.26394">
        <ele>449.2</ele>
        <time>2024-11-29T13:11:52Z</time>
      </trkpt>
      <trkpt lat="45.94297" lon="1.26396">
        <ele>448.8</ele>
        <time>2024-11-29T13:11:53Z</time>
      </trkpt>
      <trkpt lat="45.94301" lon="1.26398">
        <ele>448.5</ele>
        <time>2024-11-29T13:11:54Z</time>
      </trkpt>
      <trkpt lat="45.94305" lon="1.26399">
        <ele>448.1</ele>
        <time>2024-11-29T13:11:55Z</time>
      </trkpt>
      <trkpt lat="45.9431" lon="1.26398">
        <ele>447.5</ele>
        <time>2024-11-29T13:11:56Z</time>
      </trkpt>
      <trkpt lat="45.94314" lon="1.26396">
        <ele>447</ele>
        <time>2024-11-29T13:11:57Z</time>
      </trkpt>
      <trkpt lat="45.94317" lon="1.26394">
        <ele>446.6</ele>
        <time>2024-11-29T13:11:58Z</time>
      </trkpt>
      <trkpt lat="45.94321" lon="1.26394">
        <ele>446.1</ele>
        <time>2024-11-29T13:11:59Z</time>
      </trkpt>
      <trkpt lat="45.94325" lon="1.26394">
        <ele>445.5</ele>
        <time>2024-11-29T13:12:00Z</time>
      </trkpt>
      <trkpt lat="45.9433" lon="1.264">
        <ele>444.7</ele>
        <time>2024-11-29T13:12:01Z</time>
      </trkpt>
      <trkpt lat="45.94335" lon="1.26405">
        <ele>444.1</ele>
        <time>2024-11-29T13:12:02Z</time>
      </trkpt>
      <trkpt lat="45.9434" lon="1.2641">
        <ele>443.6</ele>
        <time>2024-11-29T13:12:03Z</time>
      </trkpt>
      <trkpt lat="45.94344" lon="1.26413">
        <ele>443.4</ele>
        <time>2024-11-29T13:12:04Z</time>
      </trkpt>
      <trkpt lat="45.94348" lon="1.26417">
        <ele>443.3</ele>
        <time>2024-11-29T13:12:05Z</time>
      </trkpt>
      <trkpt lat="45.94351" lon="1.26417">
        <ele>443.2</ele>
        <time>2024-11-29T13:12:06Z</time>
      </trkpt>
      <trkpt lat="45.94356" lon="1.26418">
        <ele>443.2</ele>
        <time>2024-11-29T13:12:08Z</time>
      </trkpt>
      <trkpt lat="45.9436" lon="1.26419">
        <ele>443.7</ele>
        <time>2024-11-29T13:12:10Z</time>
      </trkpt>
      <trkpt lat="45.94363" lon="1.26422">
        <ele>444.1</ele>
        <time>2024-11-29T13:12:11Z</time>
      </trkpt>
      <trkpt lat="45.94367" lon="1.26425">
        <ele>444.6</ele>
        <time>2024-11-29T13:12:13Z</time>
      </trkpt>
      <trkpt lat="45.94371" lon="1.26426">
        <ele>445</ele>
        <time>2024-11-29T13:12:14Z</time>
      </trkpt>
      <trkpt lat="45.94375" lon="1.26426">
        <ele>445.5</ele>
        <time>2024-11-29T13:12:15Z</time>
      </trkpt>
      <trkpt lat="45.94378" lon="1.26425">
        <ele>445.9</ele>
        <time>2024-11-29T13:12:16Z</time>
      </trkpt>
      <trkpt lat="45.94381" lon="1.26424">
        <ele>446.2</ele>
        <time>2024-11-29T13:12:17Z</time>
      </trkpt>
      <trkpt lat="45.94384" lon="1.26425">
        <ele>446.6</ele>
        <time>2024-11-29T13:12:18Z</time>
      </trkpt>
      <trkpt lat="45.94388" lon="1.26426">
        <ele>447.2</ele>
        <time>2024-11-29T13:12:19Z</time>
      </trkpt>
      <trkpt lat="45.9439" lon="1.26428">
        <ele>447.5</ele>
        <time>2024-11-29T13:12:20Z</time>
      </trkpt>
      <trkpt lat="45.94393" lon="1.2643">
        <ele>447.9</ele>
        <time>2024-11-29T13:12:21Z</time>
      </trkpt>
      <trkpt lat="45.94398" lon="1.26431">
        <ele>448.5</ele>
        <time>2024-11-29T13:12:23Z</time>
      </trkpt>
      <trkpt lat="45.94402" lon="1.26431">
        <ele>448.9</ele>
        <time>2024-11-29T13:12:24Z</time>
      </trkpt>
      <trkpt lat="45.94405" lon="1.26431">
        <ele>449.2</ele>
        <time>2024-11-29T13:12:25Z</time>
      </trkpt>
      <trkpt lat="45.94409" lon="1.26431">
        <ele>449.7</ele>
        <time>2024-11-29T13:12:26Z</time>
      </trkpt>
      <trkpt lat="45.94413" lon="1.26432">
        <ele>450.1</ele>
        <time>2024-11-29T13:12:27Z</time>
      </trkpt>
      <trkpt lat="45.94416" lon="1.26433">
        <ele>450.4</ele>
        <time>2024-11-29T13:12:28Z</time>
      </trkpt>
      <trkpt lat="45.94419" lon="1.26436">
        <ele>450.8</ele>
        <time>2024-11-29T13:12:29Z</time>
      </trkpt>
      <trkpt lat="45.94422" lon="1.26438">
        <ele>451.1</ele>
        <time>2024-11-29T13:12:30Z</time>
      </trkpt>
      <trkpt lat="45.94425" lon="1.26439">
        <ele>451.4</ele>
        <time>2024-11-29T13:12:31Z</time>
      </trkpt>
      <trkpt lat="45.94428" lon="1.2644">
        <ele>451.6</ele>
        <time>2024-11-29T13:12:32Z</time>
      </trkpt>
      <trkpt lat="45.94431" lon="1.2644">
        <ele>451.9</ele>
        <time>2024-11-29T13:12:33Z</time>
      </trkpt>
      <trkpt lat="45.94435" lon="1.26444">
        <ele>452.2</ele>
        <time>2024-11-29T13:12:35Z</time>
      </trkpt>
      <trkpt lat="45.9444" lon="1.26448">
        <ele>452.5</ele>
        <time>2024-11-29T13:12:36Z</time>
      </trkpt>
      <trkpt lat="45.94443" lon="1.26453">
        <ele>452.8</ele>
        <time>2024-11-29T13:12:37Z</time>
      </trkpt>
      <trkpt lat="45.94445" lon="1.26458">
        <ele>453</ele>
        <time>2024-11-29T13:12:38Z</time>
      </trkpt>
      <trkpt lat="45.94447" lon="1.26464">
        <ele>453.2</ele>
        <time>2024-11-29T13:12:39Z</time>
      </trkpt>
      <trkpt lat="45.94449" lon="1.26471">
        <ele>453.1</ele>
        <time>2024-11-29T13:12:40Z</time>
      </trkpt>
      <trkpt lat="45.94451" lon="1.26476">
        <ele>453.1</ele>
        <time>2024-11-29T13:12:41Z</time>
      </trkpt>
      <trkpt lat="45.94452" lon="1.26481">
        <ele>453.1</ele>
        <time>2024-11-29T13:12:42Z</time>
      </trkpt>
      <trkpt lat="45.94453" lon="1.26485">
        <ele>453.1</ele>
        <time>2024-11-29T13:12:43Z</time>
      </trkpt>
      <trkpt lat="45.94454" lon="1.26489">
        <ele>453.1</ele>
        <time>2024-11-29T13:12:44Z</time>
      </trkpt>
      <trkpt lat="45.94456" lon="1.26494">
        <ele>453.1</ele>
        <time>2024-11-29T13:12:45Z</time>
      </trkpt>
      <trkpt lat="45.94456" lon="1.26499">
        <ele>453.2</ele>
        <time>2024-11-29T13:12:46Z</time>
      </trkpt>
      <trkpt lat="45.94458" lon="1.26505">
        <ele>453.2</ele>
        <time>2024-11-29T13:12:47Z</time>
      </trkpt>
      <trkpt lat="45.94459" lon="1.2651">
        <ele>453.3</ele>
        <time>2024-11-29T13:12:48Z</time>
      </trkpt>
      <trkpt lat="45.94461" lon="1.26514">
        <ele>453.3</ele>
        <time>2024-11-29T13:12:49Z</time>
      </trkpt>
      <trkpt lat="45.94463" lon="1.26518">
        <ele>453.4</ele>
        <time>2024-11-29T13:12:50Z</time>
      </trkpt>
      <trkpt lat="45.94464" lon="1.26523">
        <ele>453.5</ele>
        <time>2024-11-29T13:12:51Z</time>
      </trkpt>
      <trkpt lat="45.94466" lon="1.26527">
        <ele>453.5</ele>
        <time>2024-11-29T13:12:52Z</time>
      </trkpt>
      <trkpt lat="45.94468" lon="1.26532">
        <ele>453.6</ele>
        <time>2024-11-29T13:12:53Z</time>
      </trkpt>
      <trkpt lat="45.9447" lon="1.26536">
        <ele>453.7</ele>
        <time>2024-11-29T13:12:54Z</time>
      </trkpt>
      <trkpt lat="45.94471" lon="1.2654">
        <ele>453.7</ele>
        <time>2024-11-29T13:12:55Z</time>
      </trkpt>
      <trkpt lat="45.94473" lon="1.26544">
        <ele>453.8</ele>
        <time>2024-11-29T13:12:56Z</time>
      </trkpt>
      <trkpt lat="45.94475" lon="1.26548">
        <ele>453.8</ele>
        <time>2024-11-29T13:12:57Z</time>
      </trkpt>
      <trkpt lat="45.94478" lon="1.26552">
        <ele>453.9</ele>
        <time>2024-11-29T13:12:58Z</time>
      </trkpt>
      <trkpt lat="45.9448" lon="1.26557">
        <ele>453.9</ele>
        <time>2024-11-29T13:12:59Z</time>
      </trkpt>
      <trkpt lat="45.94482" lon="1.26562">
        <ele>453.9</ele>
        <time>2024-11-29T13:13:00Z</time>
      </trkpt>
      <trkpt lat="45.94483" lon="1.26567">
        <ele>453.8</ele>
        <time>2024-11-29T13:13:01Z</time>
      </trkpt>
      <trkpt lat="45.94485" lon="1.26572">
        <ele>453.8</ele>
        <time>2024-11-29T13:13:02Z</time>
      </trkpt>
      <trkpt lat="45.94485" lon="1.26578">
        <ele>453.6</ele>
        <time>2024-11-29T13:13:03Z</time>
      </trkpt>
      <trkpt lat="45.94487" lon="1.26584">
        <ele>453.4</ele>
        <time>2024-11-29T13:13:04Z</time>
      </trkpt>
      <trkpt lat="45.94488" lon="1.26591">
        <ele>453.2</ele>
        <time>2024-11-29T13:13:05Z</time>
      </trkpt>
      <trkpt lat="45.9449" lon="1.26598">
        <ele>452.8</ele>
        <time>2024-11-29T13:13:06Z</time>
      </trkpt>
      <trkpt lat="45.94491" lon="1.26604">
        <ele>452.5</ele>
        <time>2024-11-29T13:13:07Z</time>
      </trkpt>
      <trkpt lat="45.94493" lon="1.2661">
        <ele>452.1</ele>
        <time>2024-11-29T13:13:08Z</time>
      </trkpt>
      <trkpt lat="45.94495" lon="1.26618">
        <ele>451.4</ele>
        <time>2024-11-29T13:13:09Z</time>
      </trkpt>
      <trkpt lat="45.94497" lon="1.26624">
        <ele>450.9</ele>
        <time>2024-11-29T13:13:10Z</time>
      </trkpt>
      <trkpt lat="45.94498" lon="1.26631">
        <ele>450.4</ele>
        <time>2024-11-29T13:13:11Z</time>
      </trkpt>
      <trkpt lat="45.945" lon="1.26639">
        <ele>449.7</ele>
        <time>2024-11-29T13:13:12Z</time>
      </trkpt>
      <trkpt lat="45.94503" lon="1.26645">
        <ele>449.2</ele>
        <time>2024-11-29T13:13:13Z</time>
      </trkpt>
      <trkpt lat="45.94505" lon="1.26652">
        <ele>448.8</ele>
        <time>2024-11-29T13:13:14Z</time>
      </trkpt>
      <trkpt lat="45.94508" lon="1.2666">
        <ele>448.2</ele>
        <time>2024-11-29T13:13:15Z</time>
      </trkpt>
      <trkpt lat="45.94511" lon="1.26669">
        <ele>447.6</ele>
        <time>2024-11-29T13:13:16Z</time>
      </trkpt>
      <trkpt lat="45.94512" lon="1.26677">
        <ele>447.1</ele>
        <time>2024-11-29T13:13:17Z</time>
      </trkpt>
      <trkpt lat="45.94514" lon="1.26685">
        <ele>446.6</ele>
        <time>2024-11-29T13:13:18Z</time>
      </trkpt>
      <trkpt lat="45.94515" lon="1.26694">
        <ele>446.1</ele>
        <time>2024-11-29T13:13:19Z</time>
      </trkpt>
      <trkpt lat="45.94517" lon="1.26702">
        <ele>445.8</ele>
        <time>2024-11-29T13:13:20Z</time>
      </trkpt>
      <trkpt lat="45.94519" lon="1.26712">
        <ele>445.5</ele>
        <time>2024-11-29T13:13:21Z</time>
      </trkpt>
      <trkpt lat="45.94521" lon="1.26719">
        <ele>445.3</ele>
        <time>2024-11-29T13:13:22Z</time>
      </trkpt>
      <trkpt lat="45.94523" lon="1.26727">
        <ele>445.2</ele>
        <time>2024-11-29T13:13:23Z</time>
      </trkpt>
      <trkpt lat="45.94526" lon="1.26735">
        <ele>445.1</ele>
        <time>2024-11-29T13:13:24Z</time>
      </trkpt>
      <trkpt lat="45.94527" lon="1.26742">
        <ele>445.1</ele>
        <time>2024-11-29T13:13:25Z</time>
      </trkpt>
      <trkpt lat="45.94529" lon="1.26748">
        <ele>445.1</ele>
        <time>2024-11-29T13:13:26Z</time>
      </trkpt>
      <trkpt lat="45.94531" lon="1.26754">
        <ele>445.1</ele>
        <time>2024-11-29T13:13:27Z</time>
      </trkpt>
      <trkpt lat="45.94533" lon="1.2676">
        <ele>445.1</ele>
        <time>2024-11-29T13:13:28Z</time>
      </trkpt>
      <trkpt lat="45.94535" lon="1.26766">
        <ele>445.2</ele>
        <time>2024-11-29T13:13:29Z</time>
      </trkpt>
      <trkpt lat="45.94537" lon="1.26773">
        <ele>445.3</ele>
        <time>2024-11-29T13:13:30Z</time>
      </trkpt>
      <trkpt lat="45.94538" lon="1.26779">
        <ele>445.4</ele>
        <time>2024-11-29T13:13:31Z</time>
      </trkpt>
      <trkpt lat="45.9454" lon="1.26784">
        <ele>445.4</ele>
        <time>2024-11-29T13:13:32Z</time>
      </trkpt>
      <trkpt lat="45.94542" lon="1.26792">
        <ele>445.6</ele>
        <time>2024-11-29T13:13:33Z</time>
      </trkpt>
      <trkpt lat="45.94543" lon="1.26798">
        <ele>445.8</ele>
        <time>2024-11-29T13:13:34Z</time>
      </trkpt>
      <trkpt lat="45.94544" lon="1.26805">
        <ele>446</ele>
        <time>2024-11-29T13:13:35Z</time>
      </trkpt>
      <trkpt lat="45.94545" lon="1.26811">
        <ele>446.3</ele>
        <time>2024-11-29T13:13:36Z</time>
      </trkpt>
      <trkpt lat="45.94546" lon="1.26816">
        <ele>446.5</ele>
        <time>2024-11-29T13:13:37Z</time>
      </trkpt>
      <trkpt lat="45.94547" lon="1.26821">
        <ele>446.8</ele>
        <time>2024-11-29T13:13:38Z</time>
      </trkpt>
      <trkpt lat="45.94549" lon="1.26827">
        <ele>447.1</ele>
        <time>2024-11-29T13:13:39Z</time>
      </trkpt>
      <trkpt lat="45.9455" lon="1.26831">
        <ele>447.3</ele>
        <time>2024-11-29T13:13:40Z</time>
      </trkpt>
      <trkpt lat="45.94551" lon="1.26835">
        <ele>447.6</ele>
        <time>2024-11-29T13:13:41Z</time>
      </trkpt>
      <trkpt lat="45.94553" lon="1.26842">
        <ele>448.1</ele>
        <time>2024-11-29T13:13:43Z</time>
      </trkpt>
      <trkpt lat="45.94554" lon="1.26847">
        <ele>448.4</ele>
        <time>2024-11-29T13:13:44Z</time>
      </trkpt>
      <trkpt lat="45.94556" lon="1.26853">
        <ele>449</ele>
        <time>2024-11-29T13:13:46Z</time>
      </trkpt>
      <trkpt lat="45.94558" lon="1.26857">
        <ele>449.3</ele>
        <time>2024-11-29T13:13:47Z</time>
      </trkpt>
      <trkpt lat="45.94559" lon="1.26861">
        <ele>449.5</ele>
        <time>2024-11-29T13:13:48Z</time>
      </trkpt>
      <trkpt lat="45.94562" lon="1.26865">
        <ele>449.8</ele>
        <time>2024-11-29T13:13:50Z</time>
      </trkpt>
      <trkpt lat="45.94565" lon="1.26868">
        <ele>450</ele>
        <time>2024-11-29T13:13:52Z</time>
      </trkpt>
      <trkpt lat="45.94568" lon="1.2687">
        <ele>450.2</ele>
        <time>2024-11-29T13:13:55Z</time>
      </trkpt>
      <trkpt lat="45.94572" lon="1.26874">
        <ele>450.5</ele>
        <time>2024-11-29T13:13:57Z</time>
      </trkpt>
      <trkpt lat="45.94574" lon="1.26878">
        <ele>450.7</ele>
        <time>2024-11-29T13:13:58Z</time>
      </trkpt>
      <trkpt lat="45.94576" lon="1.26881">
        <ele>450.9</ele>
        <time>2024-11-29T13:13:59Z</time>
      </trkpt>
      <trkpt lat="45.94578" lon="1.26885">
        <ele>451.1</ele>
        <time>2024-11-29T13:14:00Z</time>
      </trkpt>
      <trkpt lat="45.9458" lon="1.26889">
        <ele>451.3</ele>
        <time>2024-11-29T13:14:01Z</time>
      </trkpt>
      <trkpt lat="45.94582" lon="1.26893">
        <ele>451.5</ele>
        <time>2024-11-29T13:14:02Z</time>
      </trkpt>
      <trkpt lat="45.94585" lon="1.26897">
        <ele>451.8</ele>
        <time>2024-11-29T13:14:03Z</time>
      </trkpt>
      <trkpt lat="45.94588" lon="1.269">
        <ele>452</ele>
        <time>2024-11-29T13:14:04Z</time>
      </trkpt>
      <trkpt lat="45.94591" lon="1.26905">
        <ele>452.4</ele>
        <time>2024-11-29T13:14:06Z</time>
      </trkpt>
      <trkpt lat="45.94592" lon="1.2691">
        <ele>452.7</ele>
        <time>2024-11-29T13:14:07Z</time>
      </trkpt>
      <trkpt lat="45.94593" lon="1.26914">
        <ele>453</ele>
        <time>2024-11-29T13:14:08Z</time>
      </trkpt>
      <trkpt lat="45.94594" lon="1.26918">
        <ele>453.3</ele>
        <time>2024-11-29T13:14:10Z</time>
      </trkpt>
      <trkpt lat="45.94596" lon="1.26922">
        <ele>453.6</ele>
        <time>2024-11-29T13:14:11Z</time>
      </trkpt>
      <trkpt lat="45.94598" lon="1.26925">
        <ele>453.8</ele>
        <time>2024-11-29T13:14:12Z</time>
      </trkpt>
      <trkpt lat="45.946" lon="1.2693">
        <ele>454.2</ele>
        <time>2024-11-29T13:14:14Z</time>
      </trkpt>
      <trkpt lat="45.94601" lon="1.26934">
        <ele>454.5</ele>
        <time>2024-11-29T13:14:15Z</time>
      </trkpt>
      <trkpt lat="45.94602" lon="1.26939">
        <ele>454.8</ele>
        <time>2024-11-29T13:14:16Z</time>
      </trkpt>
      <trkpt lat="45.94604" lon="1.26943">
        <ele>455.1</ele>
        <time>2024-11-29T13:14:17Z</time>
      </trkpt>
      <trkpt lat="45.94606" lon="1.26949">
        <ele>455.4</ele>
        <time>2024-11-29T13:14:19Z</time>
      </trkpt>
      <trkpt lat="45.94609" lon="1.26954">
        <ele>455.8</ele>
        <time>2024-11-29T13:14:21Z</time>
      </trkpt>
      <trkpt lat="45.94613" lon="1.26955">
        <ele>456</ele>
        <time>2024-11-29T13:14:23Z</time>
      </trkpt>
      <trkpt lat="45.94616" lon="1.26957">
        <ele>456.2</ele>
        <time>2024-11-29T13:14:26Z</time>
      </trkpt>
      <trkpt lat="45.94619" lon="1.2696">
        <ele>456.4</ele>
        <time>2024-11-29T13:14:27Z</time>
      </trkpt>
      <trkpt lat="45.94621" lon="1.26963">
        <ele>456.5</ele>
        <time>2024-11-29T13:14:28Z</time>
      </trkpt>
      <trkpt lat="45.94623" lon="1.26968">
        <ele>456.7</ele>
        <time>2024-11-29T13:14:29Z</time>
      </trkpt>
      <trkpt lat="45.94625" lon="1.26973">
        <ele>456.9</ele>
        <time>2024-11-29T13:14:30Z</time>
      </trkpt>
      <trkpt lat="45.94626" lon="1.26978">
        <ele>457</ele>
        <time>2024-11-29T13:14:31Z</time>
      </trkpt>
      <trkpt lat="45.94628" lon="1.26985">
        <ele>457.1</ele>
        <time>2024-11-29T13:14:32Z</time>
      </trkpt>
      <trkpt lat="45.9463" lon="1.26991">
        <ele>457.2</ele>
        <time>2024-11-29T13:14:33Z</time>
      </trkpt>
      <trkpt lat="45.94633" lon="1.26996">
        <ele>457.2</ele>
        <time>2024-11-29T13:14:34Z</time>
      </trkpt>
      <trkpt lat="45.94636" lon="1.27">
        <ele>457.2</ele>
        <time>2024-11-29T13:14:35Z</time>
      </trkpt>
      <trkpt lat="45.9464" lon="1.27003">
        <ele>457.1</ele>
        <time>2024-11-29T13:14:36Z</time>
      </trkpt>
      <trkpt lat="45.94643" lon="1.27007">
        <ele>457</ele>
        <time>2024-11-29T13:14:37Z</time>
      </trkpt>
      <trkpt lat="45.94647" lon="1.27011">
        <ele>456.8</ele>
        <time>2024-11-29T13:14:38Z</time>
      </trkpt>
      <trkpt lat="45.9465" lon="1.27014">
        <ele>456.7</ele>
        <time>2024-11-29T13:14:39Z</time>
      </trkpt>
      <trkpt lat="45.94654" lon="1.27018">
        <ele>456.5</ele>
        <time>2024-11-29T13:14:41Z</time>
      </trkpt>
      <trkpt lat="45.94657" lon="1.27022">
        <ele>456.3</ele>
        <time>2024-11-29T13:14:43Z</time>
      </trkpt>
      <trkpt lat="45.94658" lon="1.27029">
        <ele>456</ele>
        <time>2024-11-29T13:14:45Z</time>
      </trkpt>
      <trkpt lat="45.94658" lon="1.27034">
        <ele>455.7</ele>
        <time>2024-11-29T13:14:46Z</time>
      </trkpt>
      <trkpt lat="45.94657" lon="1.2704">
        <ele>455.3</ele>
        <time>2024-11-29T13:14:47Z</time>
      </trkpt>
      <trkpt lat="45.94655" lon="1.27045">
        <ele>454.9</ele>
        <time>2024-11-29T13:14:48Z</time>
      </trkpt>
      <trkpt lat="45.94654" lon="1.27051">
        <ele>454.4</ele>
        <time>2024-11-29T13:14:49Z</time>
      </trkpt>
      <trkpt lat="45.94653" lon="1.27057">
        <ele>454.3</ele>
        <time>2024-11-29T13:14:50Z</time>
      </trkpt>
      <trkpt lat="45.94653" lon="1.27062">
        <ele>454.5</ele>
        <time>2024-11-29T13:14:51Z</time>
      </trkpt>
      <trkpt lat="45.94655" lon="1.27066">
        <ele>454.8</ele>
        <time>2024-11-29T13:14:52Z</time>
      </trkpt>
      <trkpt lat="45.94658" lon="1.27068">
        <ele>455.1</ele>
        <time>2024-11-29T13:14:53Z</time>
      </trkpt>
      <trkpt lat="45.9466" lon="1.27068">
        <ele>455.2</ele>
        <time>2024-11-29T13:14:54Z</time>
      </trkpt>
      <trkpt lat="45.94664" lon="1.27068">
        <ele>455.6</ele>
        <time>2024-11-29T13:14:55Z</time>
      </trkpt>
      <trkpt lat="45.94667" lon="1.27068">
        <ele>455.9</ele>
        <time>2024-11-29T13:14:56Z</time>
      </trkpt>
      <trkpt lat="45.9467" lon="1.27068">
        <ele>456.2</ele>
        <time>2024-11-29T13:14:57Z</time>
      </trkpt>
      <trkpt lat="45.94674" lon="1.27068">
        <ele>456.6</ele>
        <time>2024-11-29T13:14:58Z</time>
      </trkpt>
      <trkpt lat="45.94678" lon="1.27068">
        <ele>457</ele>
        <time>2024-11-29T13:14:59Z</time>
      </trkpt>
      <trkpt lat="45.94681" lon="1.27069">
        <ele>457.2</ele>
        <time>2024-11-29T13:15:00Z</time>
      </trkpt>
      <trkpt lat="45.94685" lon="1.27069">
        <ele>457.6</ele>
        <time>2024-11-29T13:15:02Z</time>
      </trkpt>
      <trkpt lat="45.94685" lon="1.27068">
        <ele>457.7</ele>
        <time>2024-11-29T13:15:58Z</time>
      </trkpt>
      <trkpt lat="45.94685" lon="1.27071">
        <ele>457.9</ele>
        <time>2024-11-29T13:16:36Z</time>
      </trkpt>
      <trkpt lat="45.94688" lon="1.27071">
        <ele>458.1</ele>
        <time>2024-11-29T13:16:47Z</time>
      </trkpt>
      <trkpt lat="45.94691" lon="1.27071">
        <ele>458.4</ele>
        <time>2024-11-29T13:16:48Z</time>
      </trkpt>
      <trkpt lat="45.94695" lon="1.27072">
        <ele>458.7</ele>
        <time>2024-11-29T13:16:50Z</time>
      </trkpt>
      <trkpt lat="45.94698" lon="1.27074">
        <ele>458.9</ele>
        <time>2024-11-29T13:16:51Z</time>
      </trkpt>
      <trkpt lat="45.94701" lon="1.27075">
        <ele>459.2</ele>
        <time>2024-11-29T13:16:52Z</time>
      </trkpt>
      <trkpt lat="45.94705" lon="1.27076">
        <ele>459.5</ele>
        <time>2024-11-29T13:16:54Z</time>
      </trkpt>
      <trkpt lat="45.9471" lon="1.27077">
        <ele>459.9</ele>
        <time>2024-11-29T13:16:56Z</time>
      </trkpt>
      <trkpt lat="45.94713" lon="1.27078">
        <ele>460.1</ele>
        <time>2024-11-29T13:16:57Z</time>
      </trkpt>
      <trkpt lat="45.94716" lon="1.27079">
        <ele>460.3</ele>
        <time>2024-11-29T13:16:58Z</time>
      </trkpt>
      <trkpt lat="45.94719" lon="1.2708">
        <ele>460.6</ele>
        <time>2024-11-29T13:16:59Z</time>
      </trkpt>
      <trkpt lat="45.94724" lon="1.2708">
        <ele>460.9</ele>
        <time>2024-11-29T13:17:01Z</time>
      </trkpt>
      <trkpt lat="45.94729" lon="1.27081">
        <ele>461.3</ele>
        <time>2024-11-29T13:17:03Z</time>
      </trkpt>
      <trkpt lat="45.94733" lon="1.27081">
        <ele>461.7</ele>
        <time>2024-11-29T13:17:04Z</time>
      </trkpt>
      <trkpt lat="45.94736" lon="1.27081">
        <ele>461.9</ele>
        <time>2024-11-29T13:17:05Z</time>
      </trkpt>
      <trkpt lat="45.9474" lon="1.27082">
        <ele>462.2</ele>
        <time>2024-11-29T13:17:06Z</time>
      </trkpt>
      <trkpt lat="45.94744" lon="1.27083">
        <ele>462.6</ele>
        <time>2024-11-29T13:17:07Z</time>
      </trkpt>
      <trkpt lat="45.94748" lon="1.27084">
        <ele>462.9</ele>
        <time>2024-11-29T13:17:08Z</time>
      </trkpt>
      <trkpt lat="45.94751" lon="1.27085">
        <ele>463.2</ele>
        <time>2024-11-29T13:17:09Z</time>
      </trkpt>
      <trkpt lat="45.94755" lon="1.27085">
        <ele>463.5</ele>
        <time>2024-11-29T13:17:10Z</time>
      </trkpt>
      <trkpt lat="45.94758" lon="1.27085">
        <ele>463.7</ele>
        <time>2024-11-29T13:17:11Z</time>
      </trkpt>
      <trkpt lat="45.94761" lon="1.27085">
        <ele>464</ele>
        <time>2024-11-29T13:17:12Z</time>
      </trkpt>
      <trkpt lat="45.94764" lon="1.27085">
        <ele>464.2</ele>
        <time>2024-11-29T13:17:13Z</time>
      </trkpt>
      <trkpt lat="45.94768" lon="1.27086">
        <ele>464.5</ele>
        <time>2024-11-29T13:17:14Z</time>
      </trkpt>
      <trkpt lat="45.94772" lon="1.27087">
        <ele>464.8</ele>
        <time>2024-11-29T13:17:15Z</time>
      </trkpt>
      <trkpt lat="45.94775" lon="1.27088">
        <ele>465.1</ele>
        <time>2024-11-29T13:17:16Z</time>
      </trkpt>
      <trkpt lat="45.94778" lon="1.27088">
        <ele>465.3</ele>
        <time>2024-11-29T13:17:17Z</time>
      </trkpt>
      <trkpt lat="45.94781" lon="1.27089">
        <ele>465.5</ele>
        <time>2024-11-29T13:17:18Z</time>
      </trkpt>
      <trkpt lat="45.94785" lon="1.27091">
        <ele>465.8</ele>
        <time>2024-11-29T13:17:20Z</time>
      </trkpt>
      <trkpt lat="45.9479" lon="1.27093">
        <ele>466.2</ele>
        <time>2024-11-29T13:17:22Z</time>
      </trkpt>
      <trkpt lat="45.94793" lon="1.27095">
        <ele>466.4</ele>
        <time>2024-11-29T13:17:23Z</time>
      </trkpt>
      <trkpt lat="45.94796" lon="1.27098">
        <ele>466.7</ele>
        <time>2024-11-29T13:17:24Z</time>
      </trkpt>
      <trkpt lat="45.94798" lon="1.27101">
        <ele>466.8</ele>
        <time>2024-11-29T13:17:25Z</time>
      </trkpt>
      <trkpt lat="45.948" lon="1.27104">
        <ele>466.9</ele>
        <time>2024-11-29T13:17:26Z</time>
      </trkpt>
      <trkpt lat="45.94802" lon="1.27107">
        <ele>467</ele>
        <time>2024-11-29T13:17:27Z</time>
      </trkpt>
      <trkpt lat="45.94805" lon="1.27111">
        <ele>467.2</ele>
        <time>2024-11-29T13:17:28Z</time>
      </trkpt>
      <trkpt lat="45.94808" lon="1.27114">
        <ele>467.3</ele>
        <time>2024-11-29T13:17:29Z</time>
      </trkpt>
      <trkpt lat="45.94812" lon="1.27119">
        <ele>467.5</ele>
        <time>2024-11-29T13:17:30Z</time>
      </trkpt>
      <trkpt lat="45.94815" lon="1.27123">
        <ele>467.6</ele>
        <time>2024-11-29T13:17:31Z</time>
      </trkpt>
      <trkpt lat="45.94818" lon="1.27127">
        <ele>467.7</ele>
        <time>2024-11-29T13:17:32Z</time>
      </trkpt>
      <trkpt lat="45.94821" lon="1.27131">
        <ele>467.7</ele>
        <time>2024-11-29T13:17:33Z</time>
      </trkpt>
      <trkpt lat="45.94825" lon="1.27134">
        <ele>467.8</ele>
        <time>2024-11-29T13:17:34Z</time>
      </trkpt>
      <trkpt lat="45.9483" lon="1.27137">
        <ele>467.9</ele>
        <time>2024-11-29T13:17:35Z</time>
      </trkpt>
      <trkpt lat="45.94835" lon="1.27139">
        <ele>468</ele>
        <time>2024-11-29T13:17:36Z</time>
      </trkpt>
      <trkpt lat="45.94839" lon="1.2714">
        <ele>468.1</ele>
        <time>2024-11-29T13:17:37Z</time>
      </trkpt>
      <trkpt lat="45.94842" lon="1.27141">
        <ele>468.1</ele>
        <time>2024-11-29T13:17:38Z</time>
      </trkpt>
      <trkpt lat="45.94846" lon="1.27142">
        <ele>468.2</ele>
        <time>2024-11-29T13:17:40Z</time>
      </trkpt>
      <trkpt lat="45.94851" lon="1.27142">
        <ele>468.3</ele>
        <time>2024-11-29T13:17:42Z</time>
      </trkpt>
      <trkpt lat="45.94854" lon="1.2714">
        <ele>468.3</ele>
        <time>2024-11-29T13:17:43Z</time>
      </trkpt>
      <trkpt lat="45.94857" lon="1.27138">
        <ele>468.4</ele>
        <time>2024-11-29T13:17:44Z</time>
      </trkpt>
      <trkpt lat="45.94861" lon="1.27137">
        <ele>468.5</ele>
        <time>2024-11-29T13:17:45Z</time>
      </trkpt>
      <trkpt lat="45.94865" lon="1.27138">
        <ele>468.6</ele>
        <time>2024-11-29T13:17:47Z</time>
      </trkpt>
      <trkpt lat="45.94869" lon="1.27139">
        <ele>468.8</ele>
        <time>2024-11-29T13:17:48Z</time>
      </trkpt>
      <trkpt lat="45.94872" lon="1.27139">
        <ele>468.9</ele>
        <time>2024-11-29T13:17:49Z</time>
      </trkpt>
      <trkpt lat="45.94875" lon="1.2714">
        <ele>468.9</ele>
        <time>2024-11-29T13:17:50Z</time>
      </trkpt>
      <trkpt lat="45.94879" lon="1.27141">
        <ele>469.1</ele>
        <time>2024-11-29T13:17:51Z</time>
      </trkpt>
      <trkpt lat="45.94884" lon="1.27142">
        <ele>469.2</ele>
        <time>2024-11-29T13:17:52Z</time>
      </trkpt>
      <trkpt lat="45.94888" lon="1.27143">
        <ele>469.4</ele>
        <time>2024-11-29T13:17:53Z</time>
      </trkpt>
      <trkpt lat="45.94892" lon="1.27144">
        <ele>469.5</ele>
        <time>2024-11-29T13:17:54Z</time>
      </trkpt>
      <trkpt lat="45.94895" lon="1.27144">
        <ele>469.6</ele>
        <time>2024-11-29T13:17:55Z</time>
      </trkpt>
      <trkpt lat="45.949" lon="1.27145">
        <ele>469.7</ele>
        <time>2024-11-29T13:17:57Z</time>
      </trkpt>
      <trkpt lat="45.94903" lon="1.27145">
        <ele>469.8</ele>
        <time>2024-11-29T13:17:58Z</time>
      </trkpt>
      <trkpt lat="45.94907" lon="1.27145">
        <ele>469.9</ele>
        <time>2024-11-29T13:18:00Z</time>
      </trkpt>
      <trkpt lat="45.9491" lon="1.27145">
        <ele>470</ele>
        <time>2024-11-29T13:18:01Z</time>
      </trkpt>
      <trkpt lat="45.94914" lon="1.27145">
        <ele>470.1</ele>
        <time>2024-11-29T13:18:02Z</time>
      </trkpt>
      <trkpt lat="45.94918" lon="1.27144">
        <ele>470.2</ele>
        <time>2024-11-29T13:18:03Z</time>
      </trkpt>
      <trkpt lat="45.94923" lon="1.27143">
        <ele>470.3</ele>
        <time>2024-11-29T13:18:04Z</time>
      </trkpt>
      <trkpt lat="45.94928" lon="1.27141">
        <ele>470.4</ele>
        <time>2024-11-29T13:18:05Z</time>
      </trkpt>
      <trkpt lat="45.94932" lon="1.27141">
        <ele>470.5</ele>
        <time>2024-11-29T13:18:06Z</time>
      </trkpt>
      <trkpt lat="45.94936" lon="1.27141">
        <ele>470.5</ele>
        <time>2024-11-29T13:18:07Z</time>
      </trkpt>
      <trkpt lat="45.9494" lon="1.27141">
        <ele>470.6</ele>
        <time>2024-11-29T13:18:08Z</time>
      </trkpt>
      <trkpt lat="45.94944" lon="1.2714">
        <ele>470.7</ele>
        <time>2024-11-29T13:18:09Z</time>
      </trkpt>
      <trkpt lat="45.94947" lon="1.27139">
        <ele>470.8</ele>
        <time>2024-11-29T13:18:10Z</time>
      </trkpt>
      <trkpt lat="45.94951" lon="1.27137">
        <ele>470.9</ele>
        <time>2024-11-29T13:18:11Z</time>
      </trkpt>
      <trkpt lat="45.94955" lon="1.27136">
        <ele>471</ele>
        <time>2024-11-29T13:18:12Z</time>
      </trkpt>
      <trkpt lat="45.94958" lon="1.27135">
        <ele>471</ele>
        <time>2024-11-29T13:18:13Z</time>
      </trkpt>
      <trkpt lat="45.94963" lon="1.27134">
        <ele>471.1</ele>
        <time>2024-11-29T13:18:14Z</time>
      </trkpt>
      <trkpt lat="45.94967" lon="1.27132">
        <ele>471.2</ele>
        <time>2024-11-29T13:18:15Z</time>
      </trkpt>
      <trkpt lat="45.94971" lon="1.2713">
        <ele>471.2</ele>
        <time>2024-11-29T13:18:16Z</time>
      </trkpt>
      <trkpt lat="45.94975" lon="1.27129">
        <ele>471.3</ele>
        <time>2024-11-29T13:18:17Z</time>
      </trkpt>
      <trkpt lat="45.94978" lon="1.27127">
        <ele>471.4</ele>
        <time>2024-11-29T13:18:18Z</time>
      </trkpt>
      <trkpt lat="45.94982" lon="1.27127">
        <ele>471.5</ele>
        <time>2024-11-29T13:18:19Z</time>
      </trkpt>
      <trkpt lat="45.94985" lon="1.27126">
        <ele>471.5</ele>
        <time>2024-11-29T13:18:20Z</time>
      </trkpt>
      <trkpt lat="45.94989" lon="1.27125">
        <ele>471.6</ele>
        <time>2024-11-29T13:18:21Z</time>
      </trkpt>
      <trkpt lat="45.94993" lon="1.27125">
        <ele>471.7</ele>
        <time>2024-11-29T13:18:22Z</time>
      </trkpt>
      <trkpt lat="45.94997" lon="1.27123">
        <ele>471.9</ele>
        <time>2024-11-29T13:18:23Z</time>
      </trkpt>
      <trkpt lat="45.95001" lon="1.27122">
        <ele>472</ele>
        <time>2024-11-29T13:18:24Z</time>
      </trkpt>
      <trkpt lat="45.95005" lon="1.2712">
        <ele>472.2</ele>
        <time>2024-11-29T13:18:25Z</time>
      </trkpt>
      <trkpt lat="45.95009" lon="1.27117">
        <ele>472.4</ele>
        <time>2024-11-29T13:18:26Z</time>
      </trkpt>
      <trkpt lat="45.95012" lon="1.27115">
        <ele>472.5</ele>
        <time>2024-11-29T13:18:27Z</time>
      </trkpt>
      <trkpt lat="45.95016" lon="1.27114">
        <ele>472.8</ele>
        <time>2024-11-29T13:18:28Z</time>
      </trkpt>
      <trkpt lat="45.95019" lon="1.27112">
        <ele>472.9</ele>
        <time>2024-11-29T13:18:29Z</time>
      </trkpt>
      <trkpt lat="45.95022" lon="1.27111">
        <ele>473.1</ele>
        <time>2024-11-29T13:18:30Z</time>
      </trkpt>
      <trkpt lat="45.95026" lon="1.2711">
        <ele>473.4</ele>
        <time>2024-11-29T13:18:31Z</time>
      </trkpt>
      <trkpt lat="45.95029" lon="1.27109">
        <ele>473.6</ele>
        <time>2024-11-29T13:18:32Z</time>
      </trkpt>
      <trkpt lat="45.95033" lon="1.27108">
        <ele>473.8</ele>
        <time>2024-11-29T13:18:33Z</time>
      </trkpt>
      <trkpt lat="45.95037" lon="1.27107">
        <ele>474.1</ele>
        <time>2024-11-29T13:18:34Z</time>
      </trkpt>
      <trkpt lat="45.95041" lon="1.27106">
        <ele>474.4</ele>
        <time>2024-11-29T13:18:35Z</time>
      </trkpt>
      <trkpt lat="45.95045" lon="1.27105">
        <ele>474.7</ele>
        <time>2024-11-29T13:18:36Z</time>
      </trkpt>
      <trkpt lat="45.95049" lon="1.27105">
        <ele>475</ele>
        <time>2024-11-29T13:18:37Z</time>
      </trkpt>
      <trkpt lat="45.95052" lon="1.27104">
        <ele>475.2</ele>
        <time>2024-11-29T13:18:38Z</time>
      </trkpt>
      <trkpt lat="45.95056" lon="1.27103">
        <ele>475.6</ele>
        <time>2024-11-29T13:18:39Z</time>
      </trkpt>
      <trkpt lat="45.95059" lon="1.27103">
        <ele>475.8</ele>
        <time>2024-11-29T13:18:40Z</time>
      </trkpt>
      <trkpt lat="45.95063" lon="1.27103">
        <ele>476.2</ele>
        <time>2024-11-29T13:18:41Z</time>
      </trkpt>
      <trkpt lat="45.95066" lon="1.27103">
        <ele>476.4</ele>
        <time>2024-11-29T13:18:42Z</time>
      </trkpt>
      <trkpt lat="45.9507" lon="1.27103">
        <ele>476.8</ele>
        <time>2024-11-29T13:18:43Z</time>
      </trkpt>
      <trkpt lat="45.95074" lon="1.27104">
        <ele>477.2</ele>
        <time>2024-11-29T13:18:44Z</time>
      </trkpt>
      <trkpt lat="45.95078" lon="1.27104">
        <ele>477.5</ele>
        <time>2024-11-29T13:18:45Z</time>
      </trkpt>
      <trkpt lat="45.95081" lon="1.27105">
        <ele>477.8</ele>
        <time>2024-11-29T13:18:46Z</time>
      </trkpt>
      <trkpt lat="45.95085" lon="1.27106">
        <ele>478.1</ele>
        <time>2024-11-29T13:18:47Z</time>
      </trkpt>
      <trkpt lat="45.95089" lon="1.27106">
        <ele>478.5</ele>
        <time>2024-11-29T13:18:48Z</time>
      </trkpt>
      <trkpt lat="45.95093" lon="1.27106">
        <ele>478.8</ele>
        <time>2024-11-29T13:18:49Z</time>
      </trkpt>
      <trkpt lat="45.95097" lon="1.27106">
        <ele>479.1</ele>
        <time>2024-11-29T13:18:50Z</time>
      </trkpt>
      <trkpt lat="45.95101" lon="1.27106">
        <ele>479.4</ele>
        <time>2024-11-29T13:18:51Z</time>
      </trkpt>
      <trkpt lat="45.95105" lon="1.27106">
        <ele>479.7</ele>
        <time>2024-11-29T13:18:52Z</time>
      </trkpt>
      <trkpt lat="45.95109" lon="1.27106">
        <ele>479.9</ele>
        <time>2024-11-29T13:18:53Z</time>
      </trkpt>
      <trkpt lat="45.95112" lon="1.27106">
        <ele>480</ele>
        <time>2024-11-29T13:18:54Z</time>
      </trkpt>
      <trkpt lat="45.95117" lon="1.27105">
        <ele>480.3</ele>
        <time>2024-11-29T13:18:55Z</time>
      </trkpt>
      <trkpt lat="45.9512" lon="1.27105">
        <ele>480.5</ele>
        <time>2024-11-29T13:18:56Z</time>
      </trkpt>
      <trkpt lat="45.95124" lon="1.27105">
        <ele>480.7</ele>
        <time>2024-11-29T13:18:57Z</time>
      </trkpt>
      <trkpt lat="45.95128" lon="1.27105">
        <ele>480.8</ele>
        <time>2024-11-29T13:18:58Z</time>
      </trkpt>
      <trkpt lat="45.95132" lon="1.27104">
        <ele>481</ele>
        <time>2024-11-29T13:18:59Z</time>
      </trkpt>
      <trkpt lat="45.95135" lon="1.27105">
        <ele>481.2</ele>
        <time>2024-11-29T13:19:00Z</time>
      </trkpt>
      <trkpt lat="45.95139" lon="1.27105">
        <ele>481.4</ele>
        <time>2024-11-29T13:19:01Z</time>
      </trkpt>
      <trkpt lat="45.95143" lon="1.27105">
        <ele>481.6</ele>
        <time>2024-11-29T13:19:02Z</time>
      </trkpt>
      <trkpt lat="45.95147" lon="1.27105">
        <ele>481.8</ele>
        <time>2024-11-29T13:19:03Z</time>
      </trkpt>
      <trkpt lat="45.9515" lon="1.27106">
        <ele>481.9</ele>
        <time>2024-11-29T13:19:04Z</time>
      </trkpt>
      <trkpt lat="45.95153" lon="1.27107">
        <ele>482.1</ele>
        <time>2024-11-29T13:19:05Z</time>
      </trkpt>
      <trkpt lat="45.95157" lon="1.27109">
        <ele>482.3</ele>
        <time>2024-11-29T13:19:06Z</time>
      </trkpt>
      <trkpt lat="45.95161" lon="1.27111">
        <ele>482.6</ele>
        <time>2024-11-29T13:19:07Z</time>
      </trkpt>
      <trkpt lat="45.95164" lon="1.27113">
        <ele>482.8</ele>
        <time>2024-11-29T13:19:08Z</time>
      </trkpt>
      <trkpt lat="45.95167" lon="1.27115">
        <ele>483</ele>
        <time>2024-11-29T13:19:09Z</time>
      </trkpt>
      <trkpt lat="45.9517" lon="1.27117">
        <ele>483.3</ele>
        <time>2024-11-29T13:19:10Z</time>
      </trkpt>
      <trkpt lat="45.95173" lon="1.27119">
        <ele>483.5</ele>
        <time>2024-11-29T13:19:11Z</time>
      </trkpt>
      <trkpt lat="45.95177" lon="1.27121">
        <ele>483.8</ele>
        <time>2024-11-29T13:19:12Z</time>
      </trkpt>
      <trkpt lat="45.9518" lon="1.27124">
        <ele>484.1</ele>
        <time>2024-11-29T13:19:13Z</time>
      </trkpt>
      <trkpt lat="45.95183" lon="1.27127">
        <ele>484.4</ele>
        <time>2024-11-29T13:19:14Z</time>
      </trkpt>
      <trkpt lat="45.95187" lon="1.2713">
        <ele>484.7</ele>
        <time>2024-11-29T13:19:15Z</time>
      </trkpt>
      <trkpt lat="45.9519" lon="1.27134">
        <ele>485</ele>
        <time>2024-11-29T13:19:16Z</time>
      </trkpt>
      <trkpt lat="45.95194" lon="1.27137">
        <ele>485.3</ele>
        <time>2024-11-29T13:19:17Z</time>
      </trkpt>
      <trkpt lat="45.95198" lon="1.27142">
        <ele>485.7</ele>
        <time>2024-11-29T13:19:18Z</time>
      </trkpt>
      <trkpt lat="45.952" lon="1.27145">
        <ele>485.9</ele>
        <time>2024-11-29T13:19:19Z</time>
      </trkpt>
      <trkpt lat="45.95203" lon="1.27149">
        <ele>486.2</ele>
        <time>2024-11-29T13:19:20Z</time>
      </trkpt>
      <trkpt lat="45.95206" lon="1.27152">
        <ele>486.4</ele>
        <time>2024-11-29T13:19:21Z</time>
      </trkpt>
      <trkpt lat="45.95209" lon="1.27157">
        <ele>486.7</ele>
        <time>2024-11-29T13:19:22Z</time>
      </trkpt>
      <trkpt lat="45.95212" lon="1.2716">
        <ele>487</ele>
        <time>2024-11-29T13:19:23Z</time>
      </trkpt>
      <trkpt lat="45.95215" lon="1.27163">
        <ele>487.2</ele>
        <time>2024-11-29T13:19:24Z</time>
      </trkpt>
      <trkpt lat="45.95217" lon="1.27167">
        <ele>487.4</ele>
        <time>2024-11-29T13:19:25Z</time>
      </trkpt>
      <trkpt lat="45.9522" lon="1.2717">
        <ele>487.6</ele>
        <time>2024-11-29T13:19:26Z</time>
      </trkpt>
      <trkpt lat="45.95222" lon="1.27173">
        <ele>487.7</ele>
        <time>2024-11-29T13:19:27Z</time>
      </trkpt>
      <trkpt lat="45.95225" lon="1.27176">
        <ele>487.9</ele>
        <time>2024-11-29T13:19:28Z</time>
      </trkpt>
      <trkpt lat="45.95228" lon="1.27179">
        <ele>488</ele>
        <time>2024-11-29T13:19:29Z</time>
      </trkpt>
      <trkpt lat="45.95231" lon="1.27181">
        <ele>488</ele>
        <time>2024-11-29T13:19:30Z</time>
      </trkpt>
      <trkpt lat="45.95235" lon="1.27183">
        <ele>488.1</ele>
        <time>2024-11-29T13:19:31Z</time>
      </trkpt>
      <trkpt lat="45.95239" lon="1.27185">
        <ele>488.1</ele>
        <time>2024-11-29T13:19:32Z</time>
      </trkpt>
      <trkpt lat="45.95242" lon="1.27187">
        <ele>488.1</ele>
        <time>2024-11-29T13:19:33Z</time>
      </trkpt>
      <trkpt lat="45.95245" lon="1.2719">
        <ele>488.1</ele>
        <time>2024-11-29T13:19:34Z</time>
      </trkpt>
      <trkpt lat="45.95248" lon="1.27193">
        <ele>488.1</ele>
        <time>2024-11-29T13:19:35Z</time>
      </trkpt>
      <trkpt lat="45.95251" lon="1.27196">
        <ele>488</ele>
        <time>2024-11-29T13:19:36Z</time>
      </trkpt>
      <trkpt lat="45.95253" lon="1.27199">
        <ele>488</ele>
        <time>2024-11-29T13:19:37Z</time>
      </trkpt>
      <trkpt lat="45.95256" lon="1.27202">
        <ele>488</ele>
        <time>2024-11-29T13:19:38Z</time>
      </trkpt>
      <trkpt lat="45.95259" lon="1.27205">
        <ele>487.9</ele>
        <time>2024-11-29T13:19:39Z</time>
      </trkpt>
      <trkpt lat="45.95261" lon="1.27209">
        <ele>487.9</ele>
        <time>2024-11-29T13:19:40Z</time>
      </trkpt>
      <trkpt lat="45.95263" lon="1.27214">
        <ele>487.8</ele>
        <time>2024-11-29T13:19:41Z</time>
      </trkpt>
      <trkpt lat="45.95265" lon="1.27219">
        <ele>487.8</ele>
        <time>2024-11-29T13:19:42Z</time>
      </trkpt>
      <trkpt lat="45.95268" lon="1.27225">
        <ele>487.8</ele>
        <time>2024-11-29T13:19:43Z</time>
      </trkpt>
      <trkpt lat="45.95271" lon="1.27231">
        <ele>487.7</ele>
        <time>2024-11-29T13:19:44Z</time>
      </trkpt>
      <trkpt lat="45.95274" lon="1.27236">
        <ele>487.7</ele>
        <time>2024-11-29T13:19:45Z</time>
      </trkpt>
      <trkpt lat="45.95277" lon="1.27241">
        <ele>487.7</ele>
        <time>2024-11-29T13:19:46Z</time>
      </trkpt>
      <trkpt lat="45.95279" lon="1.27245">
        <ele>487.7</ele>
        <time>2024-11-29T13:19:47Z</time>
      </trkpt>
      <trkpt lat="45.95281" lon="1.27249">
        <ele>487.7</ele>
        <time>2024-11-29T13:19:48Z</time>
      </trkpt>
      <trkpt lat="45.95282" lon="1.27254">
        <ele>487.7</ele>
        <time>2024-11-29T13:19:49Z</time>
      </trkpt>
      <trkpt lat="45.95284" lon="1.27259">
        <ele>487.7</ele>
        <time>2024-11-29T13:19:50Z</time>
      </trkpt>
      <trkpt lat="45.95286" lon="1.27265">
        <ele>487.7</ele>
        <time>2024-11-29T13:19:51Z</time>
      </trkpt>
      <trkpt lat="45.95287" lon="1.2727">
        <ele>487.8</ele>
        <time>2024-11-29T13:19:52Z</time>
      </trkpt>
      <trkpt lat="45.95288" lon="1.27276">
        <ele>487.8</ele>
        <time>2024-11-29T13:19:53Z</time>
      </trkpt>
      <trkpt lat="45.95291" lon="1.27282">
        <ele>487.8</ele>
        <time>2024-11-29T13:19:54Z</time>
      </trkpt>
      <trkpt lat="45.95297" lon="1.2729">
        <ele>487.8</ele>
        <time>2024-11-29T13:19:55Z</time>
      </trkpt>
      <trkpt lat="45.95301" lon="1.27297">
        <ele>487.8</ele>
        <time>2024-11-29T13:19:56Z</time>
      </trkpt>
      <trkpt lat="45.95303" lon="1.27303">
        <ele>487.8</ele>
        <time>2024-11-29T13:19:57Z</time>
      </trkpt>
      <trkpt lat="45.95304" lon="1.27309">
        <ele>487.8</ele>
        <time>2024-11-29T13:19:58Z</time>
      </trkpt>
      <trkpt lat="45.95305" lon="1.27314">
        <ele>487.7</ele>
        <time>2024-11-29T13:19:59Z</time>
      </trkpt>
      <trkpt lat="45.95308" lon="1.2732">
        <ele>487.7</ele>
        <time>2024-11-29T13:20:00Z</time>
      </trkpt>
      <trkpt lat="45.95308" lon="1.27326">
        <ele>487.6</ele>
        <time>2024-11-29T13:20:01Z</time>
      </trkpt>
      <trkpt lat="45.95308" lon="1.27331">
        <ele>487.5</ele>
        <time>2024-11-29T13:20:02Z</time>
      </trkpt>
      <trkpt lat="45.95309" lon="1.27338">
        <ele>487.4</ele>
        <time>2024-11-29T13:20:03Z</time>
      </trkpt>
      <trkpt lat="45.95311" lon="1.27345">
        <ele>487.3</ele>
        <time>2024-11-29T13:20:04Z</time>
      </trkpt>
      <trkpt lat="45.95313" lon="1.27352">
        <ele>487.2</ele>
        <time>2024-11-29T13:20:05Z</time>
      </trkpt>
      <trkpt lat="45.95314" lon="1.27359">
        <ele>487.1</ele>
        <time>2024-11-29T13:20:06Z</time>
      </trkpt>
      <trkpt lat="45.95315" lon="1.27366">
        <ele>487</ele>
        <time>2024-11-29T13:20:07Z</time>
      </trkpt>
      <trkpt lat="45.95314" lon="1.27373">
        <ele>486.9</ele>
        <time>2024-11-29T13:20:08Z</time>
      </trkpt>
      <trkpt lat="45.95314" lon="1.2738">
        <ele>486.7</ele>
        <time>2024-11-29T13:20:09Z</time>
      </trkpt>
      <trkpt lat="45.95314" lon="1.27387">
        <ele>486.5</ele>
        <time>2024-11-29T13:20:10Z</time>
      </trkpt>
      <trkpt lat="45.95314" lon="1.27395">
        <ele>486.2</ele>
        <time>2024-11-29T13:20:11Z</time>
      </trkpt>
      <trkpt lat="45.95314" lon="1.27401">
        <ele>485.9</ele>
        <time>2024-11-29T13:20:12Z</time>
      </trkpt>
      <trkpt lat="45.95315" lon="1.27407">
        <ele>485.6</ele>
        <time>2024-11-29T13:20:13Z</time>
      </trkpt>
      <trkpt lat="45.95315" lon="1.27412">
        <ele>485.3</ele>
        <time>2024-11-29T13:20:14Z</time>
      </trkpt>
      <trkpt lat="45.95317" lon="1.27418">
        <ele>484.9</ele>
        <time>2024-11-29T13:20:15Z</time>
      </trkpt>
      <trkpt lat="45.9532" lon="1.27421">
        <ele>484.6</ele>
        <time>2024-11-29T13:20:16Z</time>
      </trkpt>
      <trkpt lat="45.95325" lon="1.27425">
        <ele>484.2</ele>
        <time>2024-11-29T13:20:17Z</time>
      </trkpt>
      <trkpt lat="45.9533" lon="1.27428">
        <ele>483.8</ele>
        <time>2024-11-29T13:20:18Z</time>
      </trkpt>
      <trkpt lat="45.95335" lon="1.27431">
        <ele>483.5</ele>
        <time>2024-11-29T13:20:19Z</time>
      </trkpt>
      <trkpt lat="45.9534" lon="1.27435">
        <ele>483.2</ele>
        <time>2024-11-29T13:20:20Z</time>
      </trkpt>
      <trkpt lat="45.95345" lon="1.27437">
        <ele>483</ele>
        <time>2024-11-29T13:20:21Z</time>
      </trkpt>
      <trkpt lat="45.9535" lon="1.27438">
        <ele>482.9</ele>
        <time>2024-11-29T13:20:22Z</time>
      </trkpt>
      <trkpt lat="45.95354" lon="1.2744">
        <ele>482.9</ele>
        <time>2024-11-29T13:20:23Z</time>
      </trkpt>
      <trkpt lat="45.95359" lon="1.27442">
        <ele>483</ele>
        <time>2024-11-29T13:20:24Z</time>
      </trkpt>
      <trkpt lat="45.95363" lon="1.27446">
        <ele>483.1</ele>
        <time>2024-11-29T13:20:25Z</time>
      </trkpt>
      <trkpt lat="45.95367" lon="1.2745">
        <ele>483.4</ele>
        <time>2024-11-29T13:20:26Z</time>
      </trkpt>
      <trkpt lat="45.95371" lon="1.27453">
        <ele>483.6</ele>
        <time>2024-11-29T13:20:27Z</time>
      </trkpt>
      <trkpt lat="45.95375" lon="1.27455">
        <ele>483.9</ele>
        <time>2024-11-29T13:20:28Z</time>
      </trkpt>
      <trkpt lat="45.95377" lon="1.27457">
        <ele>484.1</ele>
        <time>2024-11-29T13:20:29Z</time>
      </trkpt>
      <trkpt lat="45.9538" lon="1.27459">
        <ele>484.4</ele>
        <time>2024-11-29T13:20:33Z</time>
      </trkpt>
      <trkpt lat="45.95383" lon="1.27459">
        <ele>484.8</ele>
        <time>2024-11-29T13:20:37Z</time>
      </trkpt>
      <trkpt lat="45.95386" lon="1.2746">
        <ele>485.1</ele>
        <time>2024-11-29T13:20:42Z</time>
      </trkpt>
      <trkpt lat="45.9539" lon="1.2746">
        <ele>485.6</ele>
        <time>2024-11-29T13:20:45Z</time>
      </trkpt>
      <trkpt lat="45.95393" lon="1.27463">
        <ele>486.1</ele>
        <time>2024-11-29T13:20:48Z</time>
      </trkpt>
      <trkpt lat="45.95396" lon="1.27467">
        <ele>486.6</ele>
        <time>2024-11-29T13:20:50Z</time>
      </trkpt>
      <trkpt lat="45.95399" lon="1.2747">
        <ele>487.2</ele>
        <time>2024-11-29T13:20:52Z</time>
      </trkpt>
      <trkpt lat="45.95402" lon="1.27471">
        <ele>487.6</ele>
        <time>2024-11-29T13:20:54Z</time>
      </trkpt>
      <trkpt lat="45.95404" lon="1.27473">
        <ele>488</ele>
        <time>2024-11-29T13:20:56Z</time>
      </trkpt>
      <trkpt lat="45.95408" lon="1.27474">
        <ele>488.5</ele>
        <time>2024-11-29T13:20:58Z</time>
      </trkpt>
      <trkpt lat="45.95411" lon="1.27475">
        <ele>489</ele>
        <time>2024-11-29T13:20:59Z</time>
      </trkpt>
      <trkpt lat="45.95415" lon="1.27474">
        <ele>489.5</ele>
        <time>2024-11-29T13:21:01Z</time>
      </trkpt>
      <trkpt lat="45.95419" lon="1.27472">
        <ele>490.1</ele>
        <time>2024-11-29T13:21:03Z</time>
      </trkpt>
      <trkpt lat="45.95423" lon="1.27473">
        <ele>490.6</ele>
        <time>2024-11-29T13:21:05Z</time>
      </trkpt>
      <trkpt lat="45.95425" lon="1.27475">
        <ele>491</ele>
        <time>2024-11-29T13:21:06Z</time>
      </trkpt>
      <trkpt lat="45.95428" lon="1.27477">
        <ele>491.4</ele>
        <time>2024-11-29T13:21:07Z</time>
      </trkpt>
      <trkpt lat="45.95431" lon="1.27481">
        <ele>492</ele>
        <time>2024-11-29T13:21:09Z</time>
      </trkpt>
      <trkpt lat="45.95433" lon="1.27487">
        <ele>492.7</ele>
        <time>2024-11-29T13:21:13Z</time>
      </trkpt>
      <trkpt lat="45.95435" lon="1.27491">
        <ele>493.2</ele>
        <time>2024-11-29T13:21:14Z</time>
      </trkpt>
      <trkpt lat="45.95437" lon="1.27496">
        <ele>493.8</ele>
        <time>2024-11-29T13:21:16Z</time>
      </trkpt>
      <trkpt lat="45.95438" lon="1.27501">
        <ele>494.3</ele>
        <time>2024-11-29T13:21:18Z</time>
      </trkpt>
      <trkpt lat="45.95439" lon="1.27508">
        <ele>495.1</ele>
        <time>2024-11-29T13:21:20Z</time>
      </trkpt>
      <trkpt lat="45.95441" lon="1.27513">
        <ele>495.6</ele>
        <time>2024-11-29T13:21:22Z</time>
      </trkpt>
      <trkpt lat="45.95442" lon="1.27519">
        <ele>496.3</ele>
        <time>2024-11-29T13:21:25Z</time>
      </trkpt>
      <trkpt lat="45.95443" lon="1.27523">
        <ele>496.7</ele>
        <time>2024-11-29T13:21:27Z</time>
      </trkpt>
      <trkpt lat="45.95446" lon="1.27528">
        <ele>497.4</ele>
        <time>2024-11-29T13:21:29Z</time>
      </trkpt>
      <trkpt lat="45.95448" lon="1.27532">
        <ele>497.9</ele>
        <time>2024-11-29T13:21:30Z</time>
      </trkpt>
      <trkpt lat="45.95451" lon="1.27535">
        <ele>498.4</ele>
        <time>2024-11-29T13:21:32Z</time>
      </trkpt>
      <trkpt lat="45.95455" lon="1.27538">
        <ele>499</ele>
        <time>2024-11-29T13:21:34Z</time>
      </trkpt>
      <trkpt lat="45.95459" lon="1.2754">
        <ele>499.6</ele>
        <time>2024-11-29T13:21:36Z</time>
      </trkpt>
      <trkpt lat="45.95462" lon="1.27542">
        <ele>500.1</ele>
        <time>2024-11-29T13:21:40Z</time>
      </trkpt>
      <trkpt lat="45.95465" lon="1.27545">
        <ele>500.6</ele>
        <time>2024-11-29T13:21:46Z</time>
      </trkpt>
      <trkpt lat="45.95469" lon="1.27548">
        <ele>501.2</ele>
        <time>2024-11-29T13:21:48Z</time>
      </trkpt>
      <trkpt lat="45.95472" lon="1.27552">
        <ele>501.7</ele>
        <time>2024-11-29T13:21:50Z</time>
      </trkpt>
      <trkpt lat="45.95475" lon="1.27557">
        <ele>502.3</ele>
        <time>2024-11-29T13:21:52Z</time>
      </trkpt>
      <trkpt lat="45.95477" lon="1.27561">
        <ele>502.8</ele>
        <time>2024-11-29T13:21:54Z</time>
      </trkpt>
      <trkpt lat="45.9548" lon="1.27566">
        <ele>503.4</ele>
        <time>2024-11-29T13:21:57Z</time>
      </trkpt>
      <trkpt lat="45.95482" lon="1.27571">
        <ele>503.9</ele>
        <time>2024-11-29T13:21:59Z</time>
      </trkpt>
      <trkpt lat="45.95484" lon="1.27578">
        <ele>504.5</ele>
        <time>2024-11-29T13:22:01Z</time>
      </trkpt>
      <trkpt lat="45.95486" lon="1.27583">
        <ele>505</ele>
        <time>2024-11-29T13:22:03Z</time>
      </trkpt>
      <trkpt lat="45.95487" lon="1.27588">
        <ele>505.4</ele>
        <time>2024-11-29T13:22:05Z</time>
      </trkpt>
      <trkpt lat="45.95489" lon="1.27591">
        <ele>505.7</ele>
        <time>2024-11-29T13:22:06Z</time>
      </trkpt>
      <trkpt lat="45.95492" lon="1.27595">
        <ele>506.2</ele>
        <time>2024-11-29T13:22:07Z</time>
      </trkpt>
      <trkpt lat="45.95494" lon="1.27598">
        <ele>506.5</ele>
        <time>2024-11-29T13:22:08Z</time>
      </trkpt>
      <trkpt lat="45.95497" lon="1.27602">
        <ele>506.9</ele>
        <time>2024-11-29T13:22:10Z</time>
      </trkpt>
      <trkpt lat="45.95502" lon="1.27605">
        <ele>507.5</ele>
        <time>2024-11-29T13:22:12Z</time>
      </trkpt>
      <trkpt lat="45.95505" lon="1.27607">
        <ele>507.8</ele>
        <time>2024-11-29T13:22:13Z</time>
      </trkpt>
      <trkpt lat="45.95508" lon="1.27609">
        <ele>508.1</ele>
        <time>2024-11-29T13:22:14Z</time>
      </trkpt>
      <trkpt lat="45.95512" lon="1.27612">
        <ele>508.6</ele>
        <time>2024-11-29T13:22:16Z</time>
      </trkpt>
      <trkpt lat="45.95516" lon="1.27613">
        <ele>509</ele>
        <time>2024-11-29T13:22:18Z</time>
      </trkpt>
      <trkpt lat="45.9552" lon="1.27615">
        <ele>509.4</ele>
        <time>2024-11-29T13:22:19Z</time>
      </trkpt>
      <trkpt lat="45.95523" lon="1.27616">
        <ele>509.7</ele>
        <time>2024-11-29T13:22:20Z</time>
      </trkpt>
      <trkpt lat="45.95526" lon="1.27617">
        <ele>510.1</ele>
        <time>2024-11-29T13:22:21Z</time>
      </trkpt>
      <trkpt lat="45.95528" lon="1.27617">
        <ele>510.3</ele>
        <time>2024-11-29T13:22:22Z</time>
      </trkpt>
      <trkpt lat="45.95532" lon="1.27615">
        <ele>510.7</ele>
        <time>2024-11-29T13:22:24Z</time>
      </trkpt>
      <trkpt lat="45.95536" lon="1.27615">
        <ele>511.1</ele>
        <time>2024-11-29T13:22:25Z</time>
      </trkpt>
      <trkpt lat="45.9554" lon="1.27615">
        <ele>511.4</ele>
        <time>2024-11-29T13:22:27Z</time>
      </trkpt>
      <trkpt lat="45.95544" lon="1.27616">
        <ele>511.8</ele>
        <time>2024-11-29T13:22:29Z</time>
      </trkpt>
      <trkpt lat="45.95549" lon="1.27616">
        <ele>512.2</ele>
        <time>2024-11-29T13:22:31Z</time>
      </trkpt>
      <trkpt lat="45.95554" lon="1.27617">
        <ele>512.6</ele>
        <time>2024-11-29T13:22:33Z</time>
      </trkpt>
      <trkpt lat="45.95557" lon="1.27618">
        <ele>512.9</ele>
        <time>2024-11-29T13:22:34Z</time>
      </trkpt>
      <trkpt lat="45.95561" lon="1.2762">
        <ele>513.2</ele>
        <time>2024-11-29T13:22:35Z</time>
      </trkpt>
      <trkpt lat="45.95564" lon="1.27622">
        <ele>513.4</ele>
        <time>2024-11-29T13:22:36Z</time>
      </trkpt>
      <trkpt lat="45.95568" lon="1.27626">
        <ele>513.7</ele>
        <time>2024-11-29T13:22:38Z</time>
      </trkpt>
      <trkpt lat="45.95571" lon="1.27628">
        <ele>513.8</ele>
        <time>2024-11-29T13:22:39Z</time>
      </trkpt>
      <trkpt lat="45.95574" lon="1.2763">
        <ele>514</ele>
        <time>2024-11-29T13:22:40Z</time>
      </trkpt>
      <trkpt lat="45.95577" lon="1.27632">
        <ele>514.2</ele>
        <time>2024-11-29T13:22:41Z</time>
      </trkpt>
      <trkpt lat="45.9558" lon="1.27633">
        <ele>514.3</ele>
        <time>2024-11-29T13:22:42Z</time>
      </trkpt>
      <trkpt lat="45.95583" lon="1.27635">
        <ele>514.5</ele>
        <time>2024-11-29T13:22:43Z</time>
      </trkpt>
      <trkpt lat="45.95587" lon="1.27637">
        <ele>514.8</ele>
        <time>2024-11-29T13:22:45Z</time>
      </trkpt>
      <trkpt lat="45.95591" lon="1.27641">
        <ele>515</ele>
        <time>2024-11-29T13:22:47Z</time>
      </trkpt>
      <trkpt lat="45.95595" lon="1.27644">
        <ele>515.3</ele>
        <time>2024-11-29T13:22:49Z</time>
      </trkpt>
      <trkpt lat="45.95598" lon="1.27647">
        <ele>515.5</ele>
        <time>2024-11-29T13:22:50Z</time>
      </trkpt>
      <trkpt lat="45.95602" lon="1.27651">
        <ele>515.7</ele>
        <time>2024-11-29T13:22:52Z</time>
      </trkpt>
      <trkpt lat="45.95605" lon="1.27656">
        <ele>516</ele>
        <time>2024-11-29T13:22:53Z</time>
      </trkpt>
      <trkpt lat="45.95608" lon="1.27661">
        <ele>516.2</ele>
        <time>2024-11-29T13:22:54Z</time>
      </trkpt>
      <trkpt lat="45.95612" lon="1.27664">
        <ele>516.5</ele>
        <time>2024-11-29T13:22:55Z</time>
      </trkpt>
      <trkpt lat="45.95616" lon="1.27667">
        <ele>516.7</ele>
        <time>2024-11-29T13:22:56Z</time>
      </trkpt>
      <trkpt lat="45.95619" lon="1.27669">
        <ele>516.9</ele>
        <time>2024-11-29T13:22:57Z</time>
      </trkpt>
      <trkpt lat="45.95624" lon="1.2767">
        <ele>517.2</ele>
        <time>2024-11-29T13:22:58Z</time>
      </trkpt>
      <trkpt lat="45.95628" lon="1.27672">
        <ele>517.4</ele>
        <time>2024-11-29T13:22:59Z</time>
      </trkpt>
      <trkpt lat="45.95633" lon="1.27673">
        <ele>517.7</ele>
        <time>2024-11-29T13:23:00Z</time>
      </trkpt>
      <trkpt lat="45.95638" lon="1.27674">
        <ele>517.9</ele>
        <time>2024-11-29T13:23:01Z</time>
      </trkpt>
      <trkpt lat="45.95642" lon="1.27674">
        <ele>518.2</ele>
        <time>2024-11-29T13:23:02Z</time>
      </trkpt>
      <trkpt lat="45.95647" lon="1.27675">
        <ele>518.5</ele>
        <time>2024-11-29T13:23:03Z</time>
      </trkpt>
      <trkpt lat="45.95653" lon="1.27678">
        <ele>518.9</ele>
        <time>2024-11-29T13:23:04Z</time>
      </trkpt>
      <trkpt lat="45.95656" lon="1.27681">
        <ele>519.1</ele>
        <time>2024-11-29T13:23:05Z</time>
      </trkpt>
      <trkpt lat="45.95659" lon="1.27684">
        <ele>519.3</ele>
        <time>2024-11-29T13:23:06Z</time>
      </trkpt>
      <trkpt lat="45.95663" lon="1.27687">
        <ele>519.6</ele>
        <time>2024-11-29T13:23:07Z</time>
      </trkpt>
      <trkpt lat="45.95668" lon="1.2769">
        <ele>520</ele>
        <time>2024-11-29T13:23:09Z</time>
      </trkpt>
      <trkpt lat="45.95672" lon="1.27692">
        <ele>520.3</ele>
        <time>2024-11-29T13:23:10Z</time>
      </trkpt>
      <trkpt lat="45.95675" lon="1.27693">
        <ele>520.6</ele>
        <time>2024-11-29T13:23:11Z</time>
      </trkpt>
      <trkpt lat="45.95678" lon="1.27695">
        <ele>520.9</ele>
        <time>2024-11-29T13:23:12Z</time>
      </trkpt>
      <trkpt lat="45.95681" lon="1.27698">
        <ele>521.1</ele>
        <time>2024-11-29T13:23:13Z</time>
      </trkpt>
      <trkpt lat="45.95683" lon="1.27701">
        <ele>521.4</ele>
        <time>2024-11-29T13:23:14Z</time>
      </trkpt>
      <trkpt lat="45.95686" lon="1.27705">
        <ele>521.7</ele>
        <time>2024-11-29T13:23:15Z</time>
      </trkpt>
      <trkpt lat="45.95689" lon="1.27709">
        <ele>522.1</ele>
        <time>2024-11-29T13:23:18Z</time>
      </trkpt>
      <trkpt lat="45.95693" lon="1.27712">
        <ele>522.4</ele>
        <time>2024-11-29T13:23:20Z</time>
      </trkpt>
      <trkpt lat="45.95696" lon="1.27713">
        <ele>522.7</ele>
        <time>2024-11-29T13:23:21Z</time>
      </trkpt>
      <trkpt lat="45.957" lon="1.27714">
        <ele>522.8</ele>
        <time>2024-11-29T13:23:22Z</time>
      </trkpt>
      <trkpt lat="45.95704" lon="1.27714">
        <ele>522.9</ele>
        <time>2024-11-29T13:23:23Z</time>
      </trkpt>
      <trkpt lat="45.95707" lon="1.27714">
        <ele>523.1</ele>
        <time>2024-11-29T13:23:24Z</time>
      </trkpt>
      <trkpt lat="45.95711" lon="1.27715">
        <ele>523.5</ele>
        <time>2024-11-29T13:23:25Z</time>
      </trkpt>
      <trkpt lat="45.95715" lon="1.27717">
        <ele>523.9</ele>
        <time>2024-11-29T13:23:26Z</time>
      </trkpt>
      <trkpt lat="45.95718" lon="1.27719">
        <ele>524.2</ele>
        <time>2024-11-29T13:23:27Z</time>
      </trkpt>
      <trkpt lat="45.95722" lon="1.27721">
        <ele>524.6</ele>
        <time>2024-11-29T13:23:28Z</time>
      </trkpt>
      <trkpt lat="45.95725" lon="1.27723">
        <ele>524.9</ele>
        <time>2024-11-29T13:23:29Z</time>
      </trkpt>
      <trkpt lat="45.95729" lon="1.27725">
        <ele>525.3</ele>
        <time>2024-11-29T13:23:30Z</time>
      </trkpt>
      <trkpt lat="45.95732" lon="1.27726">
        <ele>525.6</ele>
        <time>2024-11-29T13:23:31Z</time>
      </trkpt>
      <trkpt lat="45.95734" lon="1.27727">
        <ele>525.8</ele>
        <time>2024-11-29T13:23:32Z</time>
      </trkpt>
      <trkpt lat="45.95737" lon="1.2773">
        <ele>526.2</ele>
        <time>2024-11-29T13:23:33Z</time>
      </trkpt>
      <trkpt lat="45.95739" lon="1.27733">
        <ele>526.5</ele>
        <time>2024-11-29T13:23:34Z</time>
      </trkpt>
      <trkpt lat="45.95743" lon="1.27736">
        <ele>526.9</ele>
        <time>2024-11-29T13:23:36Z</time>
      </trkpt>
      <trkpt lat="45.95746" lon="1.27738">
        <ele>527.3</ele>
        <time>2024-11-29T13:23:37Z</time>
      </trkpt>
      <trkpt lat="45.95749" lon="1.2774">
        <ele>527.6</ele>
        <time>2024-11-29T13:23:38Z</time>
      </trkpt>
      <trkpt lat="45.95752" lon="1.27741">
        <ele>527.9</ele>
        <time>2024-11-29T13:23:39Z</time>
      </trkpt>
      <trkpt lat="45.95756" lon="1.27743">
        <ele>528.4</ele>
        <time>2024-11-29T13:23:40Z</time>
      </trkpt>
      <trkpt lat="45.9576" lon="1.27744">
        <ele>528.8</ele>
        <time>2024-11-29T13:23:41Z</time>
      </trkpt>
      <trkpt lat="45.95763" lon="1.27746">
        <ele>529.2</ele>
        <time>2024-11-29T13:23:42Z</time>
      </trkpt>
      <trkpt lat="45.95767" lon="1.27747">
        <ele>529.6</ele>
        <time>2024-11-29T13:23:43Z</time>
      </trkpt>
      <trkpt lat="45.9577" lon="1.27748">
        <ele>530</ele>
        <time>2024-11-29T13:23:44Z</time>
      </trkpt>
      <trkpt lat="45.95772" lon="1.27749">
        <ele>530.2</ele>
        <time>2024-11-29T13:23:45Z</time>
      </trkpt>
      <trkpt lat="45.95775" lon="1.27751">
        <ele>530.6</ele>
        <time>2024-11-29T13:23:46Z</time>
      </trkpt>
      <trkpt lat="45.95778" lon="1.27754">
        <ele>531</ele>
        <time>2024-11-29T13:23:48Z</time>
      </trkpt>
      <trkpt lat="45.95781" lon="1.27758">
        <ele>531.5</ele>
        <time>2024-11-29T13:23:49Z</time>
      </trkpt>
      <trkpt lat="45.95783" lon="1.27762">
        <ele>531.9</ele>
        <time>2024-11-29T13:23:50Z</time>
      </trkpt>
      <trkpt lat="45.95784" lon="1.27766">
        <ele>532.2</ele>
        <time>2024-11-29T13:23:52Z</time>
      </trkpt>
      <trkpt lat="45.95786" lon="1.2777">
        <ele>532.6</ele>
        <time>2024-11-29T13:23:53Z</time>
      </trkpt>
      <trkpt lat="45.95789" lon="1.27771">
        <ele>532.9</ele>
        <time>2024-11-29T13:23:54Z</time>
      </trkpt>
      <trkpt lat="45.95793" lon="1.27773">
        <ele>533.3</ele>
        <time>2024-11-29T13:23:56Z</time>
      </trkpt>
      <trkpt lat="45.95797" lon="1.27776">
        <ele>533.7</ele>
        <time>2024-11-29T13:23:57Z</time>
      </trkpt>
      <trkpt lat="45.958" lon="1.27779">
        <ele>533.9</ele>
        <time>2024-11-29T13:23:58Z</time>
      </trkpt>
      <trkpt lat="45.95803" lon="1.27782">
        <ele>534.1</ele>
        <time>2024-11-29T13:23:59Z</time>
      </trkpt>
      <trkpt lat="45.95806" lon="1.27786">
        <ele>534.4</ele>
        <time>2024-11-29T13:24:00Z</time>
      </trkpt>
      <trkpt lat="45.95809" lon="1.2779">
        <ele>534.6</ele>
        <time>2024-11-29T13:24:01Z</time>
      </trkpt>
      <trkpt lat="45.95812" lon="1.27793">
        <ele>534.7</ele>
        <time>2024-11-29T13:24:02Z</time>
      </trkpt>
      <trkpt lat="45.95814" lon="1.27797">
        <ele>534.9</ele>
        <time>2024-11-29T13:24:03Z</time>
      </trkpt>
      <trkpt lat="45.95817" lon="1.27801">
        <ele>535</ele>
        <time>2024-11-29T13:24:04Z</time>
      </trkpt>
      <trkpt lat="45.95819" lon="1.27805">
        <ele>535.2</ele>
        <time>2024-11-29T13:24:05Z</time>
      </trkpt>
      <trkpt lat="45.95822" lon="1.27809">
        <ele>535.3</ele>
        <time>2024-11-29T13:24:06Z</time>
      </trkpt>
      <trkpt lat="45.95825" lon="1.27812">
        <ele>535.4</ele>
        <time>2024-11-29T13:24:07Z</time>
      </trkpt>
      <trkpt lat="45.95828" lon="1.27817">
        <ele>535.5</ele>
        <time>2024-11-29T13:24:08Z</time>
      </trkpt>
      <trkpt lat="45.9583" lon="1.27822">
        <ele>535.6</ele>
        <time>2024-11-29T13:24:09Z</time>
      </trkpt>
      <trkpt lat="45.95833" lon="1.27826">
        <ele>535.8</ele>
        <time>2024-11-29T13:24:10Z</time>
      </trkpt>
      <trkpt lat="45.95837" lon="1.27831">
        <ele>535.9</ele>
        <time>2024-11-29T13:24:11Z</time>
      </trkpt>
      <trkpt lat="45.95841" lon="1.27835">
        <ele>536</ele>
        <time>2024-11-29T13:24:12Z</time>
      </trkpt>
      <trkpt lat="45.95845" lon="1.27838">
        <ele>536.2</ele>
        <time>2024-11-29T13:24:13Z</time>
      </trkpt>
      <trkpt lat="45.95848" lon="1.27842">
        <ele>536.3</ele>
        <time>2024-11-29T13:24:14Z</time>
      </trkpt>
      <trkpt lat="45.95851" lon="1.27846">
        <ele>536.4</ele>
        <time>2024-11-29T13:24:15Z</time>
      </trkpt>
      <trkpt lat="45.95855" lon="1.27851">
        <ele>536.6</ele>
        <time>2024-11-29T13:24:16Z</time>
      </trkpt>
      <trkpt lat="45.95858" lon="1.27855">
        <ele>536.7</ele>
        <time>2024-11-29T13:24:17Z</time>
      </trkpt>
      <trkpt lat="45.95861" lon="1.27859">
        <ele>536.8</ele>
        <time>2024-11-29T13:24:18Z</time>
      </trkpt>
      <trkpt lat="45.95865" lon="1.27863">
        <ele>537</ele>
        <time>2024-11-29T13:24:19Z</time>
      </trkpt>
      <trkpt lat="45.95868" lon="1.27868">
        <ele>537</ele>
        <time>2024-11-29T13:24:20Z</time>
      </trkpt>
      <trkpt lat="45.95871" lon="1.27873">
        <ele>537.1</ele>
        <time>2024-11-29T13:24:21Z</time>
      </trkpt>
      <trkpt lat="45.95874" lon="1.27877">
        <ele>537.1</ele>
        <time>2024-11-29T13:24:22Z</time>
      </trkpt>
      <trkpt lat="45.95877" lon="1.27881">
        <ele>537.1</ele>
        <time>2024-11-29T13:24:23Z</time>
      </trkpt>
      <trkpt lat="45.95878" lon="1.27885">
        <ele>537</ele>
        <time>2024-11-29T13:24:24Z</time>
      </trkpt>
      <trkpt lat="45.95879" lon="1.2789">
        <ele>537</ele>
        <time>2024-11-29T13:24:25Z</time>
      </trkpt>
      <trkpt lat="45.9588" lon="1.27895">
        <ele>536.9</ele>
        <time>2024-11-29T13:24:26Z</time>
      </trkpt>
      <trkpt lat="45.95882" lon="1.279">
        <ele>536.9</ele>
        <time>2024-11-29T13:24:27Z</time>
      </trkpt>
      <trkpt lat="45.95885" lon="1.27905">
        <ele>536.7</ele>
        <time>2024-11-29T13:24:28Z</time>
      </trkpt>
      <trkpt lat="45.95889" lon="1.2791">
        <ele>536.6</ele>
        <time>2024-11-29T13:24:29Z</time>
      </trkpt>
      <trkpt lat="45.95892" lon="1.27915">
        <ele>536.5</ele>
        <time>2024-11-29T13:24:30Z</time>
      </trkpt>
      <trkpt lat="45.95896" lon="1.27918">
        <ele>536.4</ele>
        <time>2024-11-29T13:24:31Z</time>
      </trkpt>
      <trkpt lat="45.959" lon="1.27921">
        <ele>536.2</ele>
        <time>2024-11-29T13:24:32Z</time>
      </trkpt>
      <trkpt lat="45.95903" lon="1.27925">
        <ele>536.1</ele>
        <time>2024-11-29T13:24:33Z</time>
      </trkpt>
      <trkpt lat="45.95907" lon="1.27928">
        <ele>535.9</ele>
        <time>2024-11-29T13:24:34Z</time>
      </trkpt>
      <trkpt lat="45.9591" lon="1.27932">
        <ele>535.6</ele>
        <time>2024-11-29T13:24:35Z</time>
      </trkpt>
      <trkpt lat="45.95913" lon="1.27936">
        <ele>535.3</ele>
        <time>2024-11-29T13:24:36Z</time>
      </trkpt>
      <trkpt lat="45.95916" lon="1.2794">
        <ele>535</ele>
        <time>2024-11-29T13:24:37Z</time>
      </trkpt>
      <trkpt lat="45.9592" lon="1.27943">
        <ele>534.7</ele>
        <time>2024-11-29T13:24:38Z</time>
      </trkpt>
      <trkpt lat="45.95923" lon="1.27948">
        <ele>534.2</ele>
        <time>2024-11-29T13:24:39Z</time>
      </trkpt>
      <trkpt lat="45.95927" lon="1.27951">
        <ele>533.8</ele>
        <time>2024-11-29T13:24:40Z</time>
      </trkpt>
      <trkpt lat="45.95931" lon="1.27955">
        <ele>533.3</ele>
        <time>2024-11-29T13:24:41Z</time>
      </trkpt>
      <trkpt lat="45.95936" lon="1.27958">
        <ele>532.8</ele>
        <time>2024-11-29T13:24:42Z</time>
      </trkpt>
      <trkpt lat="45.95939" lon="1.2796">
        <ele>532.5</ele>
        <time>2024-11-29T13:24:43Z</time>
      </trkpt>
      <trkpt lat="45.95944" lon="1.27961">
        <ele>532.1</ele>
        <time>2024-11-29T13:24:44Z</time>
      </trkpt>
      <trkpt lat="45.95948" lon="1.27963">
        <ele>531.8</ele>
        <time>2024-11-29T13:24:45Z</time>
      </trkpt>
      <trkpt lat="45.95954" lon="1.27965">
        <ele>531.3</ele>
        <time>2024-11-29T13:24:46Z</time>
      </trkpt>
      <trkpt lat="45.95959" lon="1.27966">
        <ele>531</ele>
        <time>2024-11-29T13:24:47Z</time>
      </trkpt>
      <trkpt lat="45.95964" lon="1.27967">
        <ele>530.7</ele>
        <time>2024-11-29T13:24:48Z</time>
      </trkpt>
      <trkpt lat="45.95968" lon="1.27967">
        <ele>530.4</ele>
        <time>2024-11-29T13:24:49Z</time>
      </trkpt>
      <trkpt lat="45.95972" lon="1.27967">
        <ele>530.2</ele>
        <time>2024-11-29T13:24:50Z</time>
      </trkpt>
      <trkpt lat="45.95976" lon="1.27968">
        <ele>529.9</ele>
        <time>2024-11-29T13:24:51Z</time>
      </trkpt>
      <trkpt lat="45.95982" lon="1.2797">
        <ele>529.4</ele>
        <time>2024-11-29T13:24:52Z</time>
      </trkpt>
      <trkpt lat="45.95989" lon="1.27974">
        <ele>528.7</ele>
        <time>2024-11-29T13:24:53Z</time>
      </trkpt>
      <trkpt lat="45.95993" lon="1.27977">
        <ele>528.2</ele>
        <time>2024-11-29T13:24:54Z</time>
      </trkpt>
      <trkpt lat="45.95997" lon="1.2798">
        <ele>527.6</ele>
        <time>2024-11-29T13:24:55Z</time>
      </trkpt>
      <trkpt lat="45.95999" lon="1.27983">
        <ele>527.3</ele>
        <time>2024-11-29T13:24:56Z</time>
      </trkpt>
      <trkpt lat="45.96002" lon="1.27988">
        <ele>526.7</ele>
        <time>2024-11-29T13:24:57Z</time>
      </trkpt>
      <trkpt lat="45.96005" lon="1.27993">
        <ele>526.1</ele>
        <time>2024-11-29T13:24:58Z</time>
      </trkpt>
      <trkpt lat="45.96012" lon="1.27998">
        <ele>525.1</ele>
        <time>2024-11-29T13:24:59Z</time>
      </trkpt>
      <trkpt lat="45.96017" lon="1.28">
        <ele>524.5</ele>
        <time>2024-11-29T13:25:00Z</time>
      </trkpt>
      <trkpt lat="45.96022" lon="1.28002">
        <ele>524</ele>
        <time>2024-11-29T13:25:01Z</time>
      </trkpt>
      <trkpt lat="45.96028" lon="1.28002">
        <ele>523.4</ele>
        <time>2024-11-29T13:25:02Z</time>
      </trkpt>
      <trkpt lat="45.96036" lon="1.28003">
        <ele>522.8</ele>
        <time>2024-11-29T13:25:03Z</time>
      </trkpt>
      <trkpt lat="45.96042" lon="1.28006">
        <ele>522.5</ele>
        <time>2024-11-29T13:25:04Z</time>
      </trkpt>
      <trkpt lat="45.96048" lon="1.28011">
        <ele>522.2</ele>
        <time>2024-11-29T13:25:05Z</time>
      </trkpt>
      <trkpt lat="45.96052" lon="1.28015">
        <ele>522.1</ele>
        <time>2024-11-29T13:25:06Z</time>
      </trkpt>
      <trkpt lat="45.96058" lon="1.2802">
        <ele>522</ele>
        <time>2024-11-29T13:25:07Z</time>
      </trkpt>
      <trkpt lat="45.96063" lon="1.28022">
        <ele>522.1</ele>
        <time>2024-11-29T13:25:08Z</time>
      </trkpt>
      <trkpt lat="45.96068" lon="1.28025">
        <ele>522.2</ele>
        <time>2024-11-29T13:25:09Z</time>
      </trkpt>
      <trkpt lat="45.96073" lon="1.28028">
        <ele>522.4</ele>
        <time>2024-11-29T13:25:10Z</time>
      </trkpt>
      <trkpt lat="45.96078" lon="1.28032">
        <ele>522.6</ele>
        <time>2024-11-29T13:25:11Z</time>
      </trkpt>
      <trkpt lat="45.96084" lon="1.28034">
        <ele>522.9</ele>
        <time>2024-11-29T13:25:12Z</time>
      </trkpt>
      <trkpt lat="45.9609" lon="1.28036">
        <ele>523.3</ele>
        <time>2024-11-29T13:25:13Z</time>
      </trkpt>
      <trkpt lat="45.96096" lon="1.28038">
        <ele>523.7</ele>
        <time>2024-11-29T13:25:14Z</time>
      </trkpt>
      <trkpt lat="45.96101" lon="1.28039">
        <ele>524.1</ele>
        <time>2024-11-29T13:25:15Z</time>
      </trkpt>
      <trkpt lat="45.96107" lon="1.28041">
        <ele>524.5</ele>
        <time>2024-11-29T13:25:16Z</time>
      </trkpt>
      <trkpt lat="45.96113" lon="1.28042">
        <ele>525</ele>
        <time>2024-11-29T13:25:17Z</time>
      </trkpt>
      <trkpt lat="45.96117" lon="1.28043">
        <ele>525.2</ele>
        <time>2024-11-29T13:25:18Z</time>
      </trkpt>
      <trkpt lat="45.96122" lon="1.2804">
        <ele>525.6</ele>
        <time>2024-11-29T13:25:19Z</time>
      </trkpt>
      <trkpt lat="45.96126" lon="1.28038">
        <ele>525.8</ele>
        <time>2024-11-29T13:25:20Z</time>
      </trkpt>
      <trkpt lat="45.9613" lon="1.28035">
        <ele>526</ele>
        <time>2024-11-29T13:25:21Z</time>
      </trkpt>
      <trkpt lat="45.96134" lon="1.28031">
        <ele>526.2</ele>
        <time>2024-11-29T13:25:22Z</time>
      </trkpt>
      <trkpt lat="45.96138" lon="1.28026">
        <ele>526.4</ele>
        <time>2024-11-29T13:25:23Z</time>
      </trkpt>
      <trkpt lat="45.96142" lon="1.2802">
        <ele>526.4</ele>
        <time>2024-11-29T13:25:24Z</time>
      </trkpt>
      <trkpt lat="45.96146" lon="1.28014">
        <ele>526.5</ele>
        <time>2024-11-29T13:25:25Z</time>
      </trkpt>
      <trkpt lat="45.9615" lon="1.28011">
        <ele>526.5</ele>
        <time>2024-11-29T13:25:26Z</time>
      </trkpt>
      <trkpt lat="45.96155" lon="1.28008">
        <ele>526.5</ele>
        <time>2024-11-29T13:25:27Z</time>
      </trkpt>
      <trkpt lat="45.96159" lon="1.28005">
        <ele>526.5</ele>
        <time>2024-11-29T13:25:28Z</time>
      </trkpt>
      <trkpt lat="45.96164" lon="1.28003">
        <ele>526.4</ele>
        <time>2024-11-29T13:25:29Z</time>
      </trkpt>
      <trkpt lat="45.96169" lon="1.28">
        <ele>526.3</ele>
        <time>2024-11-29T13:25:30Z</time>
      </trkpt>
      <trkpt lat="45.96173" lon="1.27996">
        <ele>526.2</ele>
        <time>2024-11-29T13:25:31Z</time>
      </trkpt>
      <trkpt lat="45.96178" lon="1.27993">
        <ele>526</ele>
        <time>2024-11-29T13:25:32Z</time>
      </trkpt>
      <trkpt lat="45.96183" lon="1.27988">
        <ele>525.7</ele>
        <time>2024-11-29T13:25:33Z</time>
      </trkpt>
      <trkpt lat="45.96187" lon="1.27981">
        <ele>525.3</ele>
        <time>2024-11-29T13:25:34Z</time>
      </trkpt>
      <trkpt lat="45.9619" lon="1.27975">
        <ele>525</ele>
        <time>2024-11-29T13:25:35Z</time>
      </trkpt>
      <trkpt lat="45.96194" lon="1.27968">
        <ele>524.6</ele>
        <time>2024-11-29T13:25:36Z</time>
      </trkpt>
      <trkpt lat="45.96199" lon="1.27963">
        <ele>524.2</ele>
        <time>2024-11-29T13:25:37Z</time>
      </trkpt>
      <trkpt lat="45.96205" lon="1.27961">
        <ele>523.8</ele>
        <time>2024-11-29T13:25:38Z</time>
      </trkpt>
      <trkpt lat="45.96211" lon="1.27959">
        <ele>523.4</ele>
        <time>2024-11-29T13:25:39Z</time>
      </trkpt>
      <trkpt lat="45.96218" lon="1.27955">
        <ele>522.9</ele>
        <time>2024-11-29T13:25:40Z</time>
      </trkpt>
      <trkpt lat="45.96225" lon="1.27951">
        <ele>522.5</ele>
        <time>2024-11-29T13:25:41Z</time>
      </trkpt>
      <trkpt lat="45.96232" lon="1.27947">
        <ele>522.1</ele>
        <time>2024-11-29T13:25:42Z</time>
      </trkpt>
      <trkpt lat="45.96241" lon="1.27945">
        <ele>521.6</ele>
        <time>2024-11-29T13:25:43Z</time>
      </trkpt>
      <trkpt lat="45.96248" lon="1.27944">
        <ele>521.3</ele>
        <time>2024-11-29T13:25:44Z</time>
      </trkpt>
      <trkpt lat="45.96256" lon="1.27946">
        <ele>520.9</ele>
        <time>2024-11-29T13:25:45Z</time>
      </trkpt>
      <trkpt lat="45.96264" lon="1.27946">
        <ele>520.6</ele>
        <time>2024-11-29T13:25:46Z</time>
      </trkpt>
      <trkpt lat="45.96271" lon="1.27948">
        <ele>520.3</ele>
        <time>2024-11-29T13:25:47Z</time>
      </trkpt>
      <trkpt lat="45.96276" lon="1.2795">
        <ele>520.1</ele>
        <time>2024-11-29T13:25:48Z</time>
      </trkpt>
      <trkpt lat="45.9628" lon="1.27954">
        <ele>519.9</ele>
        <time>2024-11-29T13:25:49Z</time>
      </trkpt>
      <trkpt lat="45.96284" lon="1.27959">
        <ele>519.6</ele>
        <time>2024-11-29T13:25:50Z</time>
      </trkpt>
      <trkpt lat="45.96287" lon="1.27966">
        <ele>519.3</ele>
        <time>2024-11-29T13:25:51Z</time>
      </trkpt>
      <trkpt lat="45.96289" lon="1.27974">
        <ele>519</ele>
        <time>2024-11-29T13:25:52Z</time>
      </trkpt>
      <trkpt lat="45.96292" lon="1.2798">
        <ele>518.6</ele>
        <time>2024-11-29T13:25:53Z</time>
      </trkpt>
      <trkpt lat="45.96293" lon="1.27986">
        <ele>518.6</ele>
        <time>2024-11-29T13:25:55Z</time>
      </trkpt>
      <trkpt lat="45.96293" lon="1.27992">
        <ele>518.5</ele>
        <time>2024-11-29T13:25:58Z</time>
      </trkpt>
      <trkpt lat="45.96291" lon="1.27998">
        <ele>518.5</ele>
        <time>2024-11-29T13:26:00Z</time>
      </trkpt>
      <trkpt lat="45.96288" lon="1.28003">
        <ele>518.4</ele>
        <time>2024-11-29T13:26:01Z</time>
      </trkpt>
      <trkpt lat="45.96286" lon="1.28007">
        <ele>518.3</ele>
        <time>2024-11-29T13:26:02Z</time>
      </trkpt>
      <trkpt lat="45.96284" lon="1.28011">
        <ele>518.2</ele>
        <time>2024-11-29T13:26:03Z</time>
      </trkpt>
      <trkpt lat="45.9628" lon="1.28017">
        <ele>518</ele>
        <time>2024-11-29T13:26:04Z</time>
      </trkpt>
      <trkpt lat="45.96278" lon="1.28023">
        <ele>517.8</ele>
        <time>2024-11-29T13:26:05Z</time>
      </trkpt>
      <trkpt lat="45.96275" lon="1.28028">
        <ele>517.7</ele>
        <time>2024-11-29T13:26:06Z</time>
      </trkpt>
      <trkpt lat="45.96273" lon="1.28032">
        <ele>517.6</ele>
        <time>2024-11-29T13:26:07Z</time>
      </trkpt>
      <trkpt lat="45.96271" lon="1.28036">
        <ele>517.4</ele>
        <time>2024-11-29T13:26:08Z</time>
      </trkpt>
      <trkpt lat="45.96269" lon="1.28041">
        <ele>517.3</ele>
        <time>2024-11-29T13:26:09Z</time>
      </trkpt>
      <trkpt lat="45.96266" lon="1.28046">
        <ele>517.1</ele>
        <time>2024-11-29T13:26:10Z</time>
      </trkpt>
      <trkpt lat="45.96264" lon="1.28052">
        <ele>516.9</ele>
        <time>2024-11-29T13:26:11Z</time>
      </trkpt>
      <trkpt lat="45.9626" lon="1.28058">
        <ele>516.7</ele>
        <time>2024-11-29T13:26:12Z</time>
      </trkpt>
      <trkpt lat="45.96258" lon="1.28065">
        <ele>516.4</ele>
        <time>2024-11-29T13:26:13Z</time>
      </trkpt>
      <trkpt lat="45.96255" lon="1.28071">
        <ele>516.2</ele>
        <time>2024-11-29T13:26:14Z</time>
      </trkpt>
      <trkpt lat="45.96252" lon="1.28077">
        <ele>516</ele>
        <time>2024-11-29T13:26:15Z</time>
      </trkpt>
      <trkpt lat="45.96249" lon="1.28084">
        <ele>515.8</ele>
        <time>2024-11-29T13:26:16Z</time>
      </trkpt>
      <trkpt lat="45.96246" lon="1.28089">
        <ele>515.6</ele>
        <time>2024-11-29T13:26:17Z</time>
      </trkpt>
      <trkpt lat="45.96242" lon="1.28096">
        <ele>515.3</ele>
        <time>2024-11-29T13:26:18Z</time>
      </trkpt>
      <trkpt lat="45.96238" lon="1.28105">
        <ele>515</ele>
        <time>2024-11-29T13:26:19Z</time>
      </trkpt>
      <trkpt lat="45.96233" lon="1.28113">
        <ele>514.8</ele>
        <time>2024-11-29T13:26:20Z</time>
      </trkpt>
      <trkpt lat="45.96229" lon="1.28119">
        <ele>514.6</ele>
        <time>2024-11-29T13:26:21Z</time>
      </trkpt>
      <trkpt lat="45.96224" lon="1.28125">
        <ele>514.4</ele>
        <time>2024-11-29T13:26:22Z</time>
      </trkpt>
      <trkpt lat="45.96219" lon="1.2813">
        <ele>514.2</ele>
        <time>2024-11-29T13:26:23Z</time>
      </trkpt>
      <trkpt lat="45.96214" lon="1.28135">
        <ele>514.1</ele>
        <time>2024-11-29T13:26:24Z</time>
      </trkpt>
      <trkpt lat="45.96209" lon="1.28139">
        <ele>513.9</ele>
        <time>2024-11-29T13:26:25Z</time>
      </trkpt>
      <trkpt lat="45.96204" lon="1.28143">
        <ele>513.8</ele>
        <time>2024-11-29T13:26:26Z</time>
      </trkpt>
      <trkpt lat="45.96199" lon="1.28146">
        <ele>513.6</ele>
        <time>2024-11-29T13:26:27Z</time>
      </trkpt>
      <trkpt lat="45.96193" lon="1.2815">
        <ele>513.4</ele>
        <time>2024-11-29T13:26:28Z</time>
      </trkpt>
      <trkpt lat="45.96188" lon="1.28153">
        <ele>513.2</ele>
        <time>2024-11-29T13:26:29Z</time>
      </trkpt>
      <trkpt lat="45.96183" lon="1.28158">
        <ele>513</ele>
        <time>2024-11-29T13:26:30Z</time>
      </trkpt>
      <trkpt lat="45.96178" lon="1.28162">
        <ele>512.8</ele>
        <time>2024-11-29T13:26:31Z</time>
      </trkpt>
      <trkpt lat="45.96175" lon="1.28168">
        <ele>512.6</ele>
        <time>2024-11-29T13:26:32Z</time>
      </trkpt>
      <trkpt lat="45.96172" lon="1.28174">
        <ele>512.5</ele>
        <time>2024-11-29T13:26:33Z</time>
      </trkpt>
      <trkpt lat="45.9617" lon="1.28181">
        <ele>512.4</ele>
        <time>2024-11-29T13:26:34Z</time>
      </trkpt>
      <trkpt lat="45.96169" lon="1.28188">
        <ele>512.4</ele>
        <time>2024-11-29T13:26:35Z</time>
      </trkpt>
      <trkpt lat="45.96169" lon="1.28196">
        <ele>512.3</ele>
        <time>2024-11-29T13:26:36Z</time>
      </trkpt>
      <trkpt lat="45.96169" lon="1.28205">
        <ele>512.3</ele>
        <time>2024-11-29T13:26:37Z</time>
      </trkpt>
      <trkpt lat="45.9617" lon="1.28213">
        <ele>512.3</ele>
        <time>2024-11-29T13:26:38Z</time>
      </trkpt>
      <trkpt lat="45.96171" lon="1.2822">
        <ele>512.2</ele>
        <time>2024-11-29T13:26:39Z</time>
      </trkpt>
      <trkpt lat="45.96172" lon="1.28228">
        <ele>512.2</ele>
        <time>2024-11-29T13:26:40Z</time>
      </trkpt>
      <trkpt lat="45.96174" lon="1.28235">
        <ele>512.2</ele>
        <time>2024-11-29T13:26:41Z</time>
      </trkpt>
      <trkpt lat="45.96176" lon="1.28243">
        <ele>512.3</ele>
        <time>2024-11-29T13:26:42Z</time>
      </trkpt>
      <trkpt lat="45.96178" lon="1.2825">
        <ele>512.3</ele>
        <time>2024-11-29T13:26:43Z</time>
      </trkpt>
      <trkpt lat="45.96179" lon="1.28257">
        <ele>512.4</ele>
        <time>2024-11-29T13:26:44Z</time>
      </trkpt>
      <trkpt lat="45.96181" lon="1.28264">
        <ele>512.4</ele>
        <time>2024-11-29T13:26:45Z</time>
      </trkpt>
      <trkpt lat="45.96183" lon="1.28271">
        <ele>512.5</ele>
        <time>2024-11-29T13:26:46Z</time>
      </trkpt>
      <trkpt lat="45.96186" lon="1.28278">
        <ele>512.5</ele>
        <time>2024-11-29T13:26:47Z</time>
      </trkpt>
      <trkpt lat="45.96188" lon="1.28285">
        <ele>512.6</ele>
        <time>2024-11-29T13:26:48Z</time>
      </trkpt>
      <trkpt lat="45.9619" lon="1.28292">
        <ele>512.6</ele>
        <time>2024-11-29T13:26:49Z</time>
      </trkpt>
      <trkpt lat="45.96192" lon="1.28298">
        <ele>512.7</ele>
        <time>2024-11-29T13:26:50Z</time>
      </trkpt>
      <trkpt lat="45.96194" lon="1.28306">
        <ele>512.8</ele>
        <time>2024-11-29T13:26:51Z</time>
      </trkpt>
      <trkpt lat="45.96196" lon="1.28312">
        <ele>512.9</ele>
        <time>2024-11-29T13:26:52Z</time>
      </trkpt>
      <trkpt lat="45.96198" lon="1.2832">
        <ele>513</ele>
        <time>2024-11-29T13:26:53Z</time>
      </trkpt>
      <trkpt lat="45.962" lon="1.28327">
        <ele>513.2</ele>
        <time>2024-11-29T13:26:54Z</time>
      </trkpt>
      <trkpt lat="45.96202" lon="1.28334">
        <ele>513.4</ele>
        <time>2024-11-29T13:26:55Z</time>
      </trkpt>
      <trkpt lat="45.96203" lon="1.28342">
        <ele>513.6</ele>
        <time>2024-11-29T13:26:56Z</time>
      </trkpt>
      <trkpt lat="45.96206" lon="1.28348">
        <ele>513.8</ele>
        <time>2024-11-29T13:26:57Z</time>
      </trkpt>
      <trkpt lat="45.96208" lon="1.28355">
        <ele>513.9</ele>
        <time>2024-11-29T13:26:58Z</time>
      </trkpt>
      <trkpt lat="45.9621" lon="1.28362">
        <ele>514.2</ele>
        <time>2024-11-29T13:26:59Z</time>
      </trkpt>
      <trkpt lat="45.96212" lon="1.28369">
        <ele>514.4</ele>
        <time>2024-11-29T13:27:00Z</time>
      </trkpt>
      <trkpt lat="45.96214" lon="1.28376">
        <ele>514.6</ele>
        <time>2024-11-29T13:27:01Z</time>
      </trkpt>
      <trkpt lat="45.96217" lon="1.28382">
        <ele>514.8</ele>
        <time>2024-11-29T13:27:02Z</time>
      </trkpt>
      <trkpt lat="45.9622" lon="1.2839">
        <ele>515</ele>
        <time>2024-11-29T13:27:03Z</time>
      </trkpt>
      <trkpt lat="45.96223" lon="1.28396">
        <ele>515.3</ele>
        <time>2024-11-29T13:27:04Z</time>
      </trkpt>
      <trkpt lat="45.96225" lon="1.28403">
        <ele>515.5</ele>
        <time>2024-11-29T13:27:05Z</time>
      </trkpt>
      <trkpt lat="45.96228" lon="1.28409">
        <ele>515.7</ele>
        <time>2024-11-29T13:27:06Z</time>
      </trkpt>
      <trkpt lat="45.9623" lon="1.28416">
        <ele>516</ele>
        <time>2024-11-29T13:27:07Z</time>
      </trkpt>
      <trkpt lat="45.96233" lon="1.28422">
        <ele>516.2</ele>
        <time>2024-11-29T13:27:08Z</time>
      </trkpt>
      <trkpt lat="45.96235" lon="1.28427">
        <ele>516.4</ele>
        <time>2024-11-29T13:27:09Z</time>
      </trkpt>
      <trkpt lat="45.96238" lon="1.28433">
        <ele>516.6</ele>
        <time>2024-11-29T13:27:10Z</time>
      </trkpt>
      <trkpt lat="45.96239" lon="1.28438">
        <ele>516.8</ele>
        <time>2024-11-29T13:27:11Z</time>
      </trkpt>
      <trkpt lat="45.96241" lon="1.28445">
        <ele>517.1</ele>
        <time>2024-11-29T13:27:12Z</time>
      </trkpt>
      <trkpt lat="45.96243" lon="1.28451">
        <ele>517.5</ele>
        <time>2024-11-29T13:27:13Z</time>
      </trkpt>
      <trkpt lat="45.96245" lon="1.28457">
        <ele>517.9</ele>
        <time>2024-11-29T13:27:14Z</time>
      </trkpt>
      <trkpt lat="45.96247" lon="1.28464">
        <ele>518.3</ele>
        <time>2024-11-29T13:27:15Z</time>
      </trkpt>
      <trkpt lat="45.96248" lon="1.2847">
        <ele>518.7</ele>
        <time>2024-11-29T13:27:16Z</time>
      </trkpt>
      <trkpt lat="45.96249" lon="1.28477">
        <ele>519.1</ele>
        <time>2024-11-29T13:27:17Z</time>
      </trkpt>
      <trkpt lat="45.96249" lon="1.28483">
        <ele>519.5</ele>
        <time>2024-11-29T13:27:18Z</time>
      </trkpt>
      <trkpt lat="45.96249" lon="1.2849">
        <ele>519.9</ele>
        <time>2024-11-29T13:27:19Z</time>
      </trkpt>
      <trkpt lat="45.9625" lon="1.28497">
        <ele>520.3</ele>
        <time>2024-11-29T13:27:20Z</time>
      </trkpt>
      <trkpt lat="45.9625" lon="1.28503">
        <ele>520.7</ele>
        <time>2024-11-29T13:27:21Z</time>
      </trkpt>
      <trkpt lat="45.96249" lon="1.2851">
        <ele>521.1</ele>
        <time>2024-11-29T13:27:22Z</time>
      </trkpt>
      <trkpt lat="45.9625" lon="1.28516">
        <ele>521.5</ele>
        <time>2024-11-29T13:27:23Z</time>
      </trkpt>
      <trkpt lat="45.9625" lon="1.28521">
        <ele>521.8</ele>
        <time>2024-11-29T13:27:24Z</time>
      </trkpt>
      <trkpt lat="45.96249" lon="1.28526">
        <ele>522.1</ele>
        <time>2024-11-29T13:27:25Z</time>
      </trkpt>
      <trkpt lat="45.96249" lon="1.28532">
        <ele>522.4</ele>
        <time>2024-11-29T13:27:26Z</time>
      </trkpt>
      <trkpt lat="45.96248" lon="1.28539">
        <ele>522.8</ele>
        <time>2024-11-29T13:27:27Z</time>
      </trkpt>
      <trkpt lat="45.96246" lon="1.28546">
        <ele>523.2</ele>
        <time>2024-11-29T13:27:28Z</time>
      </trkpt>
      <trkpt lat="45.96246" lon="1.28552">
        <ele>523.5</ele>
        <time>2024-11-29T13:27:29Z</time>
      </trkpt>
      <trkpt lat="45.96245" lon="1.28558">
        <ele>523.9</ele>
        <time>2024-11-29T13:27:30Z</time>
      </trkpt>
      <trkpt lat="45.96245" lon="1.28565">
        <ele>524.3</ele>
        <time>2024-11-29T13:27:31Z</time>
      </trkpt>
      <trkpt lat="45.96246" lon="1.28571">
        <ele>524.7</ele>
        <time>2024-11-29T13:27:32Z</time>
      </trkpt>
      <trkpt lat="45.96247" lon="1.28577">
        <ele>525.1</ele>
        <time>2024-11-29T13:27:33Z</time>
      </trkpt>
      <trkpt lat="45.96248" lon="1.28581">
        <ele>525.4</ele>
        <time>2024-11-29T13:27:34Z</time>
      </trkpt>
      <trkpt lat="45.9625" lon="1.28586">
        <ele>525.8</ele>
        <time>2024-11-29T13:27:35Z</time>
      </trkpt>
      <trkpt lat="45.96253" lon="1.28589">
        <ele>526.1</ele>
        <time>2024-11-29T13:27:36Z</time>
      </trkpt>
      <trkpt lat="45.96255" lon="1.28593">
        <ele>526.5</ele>
        <time>2024-11-29T13:27:37Z</time>
      </trkpt>
      <trkpt lat="45.96258" lon="1.28596">
        <ele>526.9</ele>
        <time>2024-11-29T13:27:38Z</time>
      </trkpt>
      <trkpt lat="45.96261" lon="1.28598">
        <ele>527.3</ele>
        <time>2024-11-29T13:27:39Z</time>
      </trkpt>
      <trkpt lat="45.96264" lon="1.28601">
        <ele>527.8</ele>
        <time>2024-11-29T13:27:40Z</time>
      </trkpt>
      <trkpt lat="45.96266" lon="1.28605">
        <ele>528.2</ele>
        <time>2024-11-29T13:27:41Z</time>
      </trkpt>
      <trkpt lat="45.96268" lon="1.28609">
        <ele>528.5</ele>
        <time>2024-11-29T13:27:42Z</time>
      </trkpt>
      <trkpt lat="45.96268" lon="1.28613">
        <ele>528.9</ele>
        <time>2024-11-29T13:27:43Z</time>
      </trkpt>
      <trkpt lat="45.96265" lon="1.28617">
        <ele>529.5</ele>
        <time>2024-11-29T13:27:45Z</time>
      </trkpt>
      <trkpt lat="45.96261" lon="1.28621">
        <ele>530.3</ele>
        <time>2024-11-29T13:27:47Z</time>
      </trkpt>
      <trkpt lat="45.96258" lon="1.28624">
        <ele>530.8</ele>
        <time>2024-11-29T13:27:49Z</time>
      </trkpt>
      <trkpt lat="45.96254" lon="1.28628">
        <ele>531.6</ele>
        <time>2024-11-29T13:27:51Z</time>
      </trkpt>
      <trkpt lat="45.9625" lon="1.28632">
        <ele>532.3</ele>
        <time>2024-11-29T13:27:52Z</time>
      </trkpt>
      <trkpt lat="45.96248" lon="1.28635">
        <ele>532.7</ele>
        <time>2024-11-29T13:27:53Z</time>
      </trkpt>
      <trkpt lat="45.96244" lon="1.28638">
        <ele>533.2</ele>
        <time>2024-11-29T13:27:55Z</time>
      </trkpt>
      <trkpt lat="45.9624" lon="1.28642">
        <ele>533.8</ele>
        <time>2024-11-29T13:27:57Z</time>
      </trkpt>
      <trkpt lat="45.96236" lon="1.28646">
        <ele>534.3</ele>
        <time>2024-11-29T13:27:59Z</time>
      </trkpt>
      <trkpt lat="45.96234" lon="1.28649">
        <ele>534.6</ele>
        <time>2024-11-29T13:28:00Z</time>
      </trkpt>
      <trkpt lat="45.96231" lon="1.28652">
        <ele>535</ele>
        <time>2024-11-29T13:28:01Z</time>
      </trkpt>
      <trkpt lat="45.96228" lon="1.28658">
        <ele>535.5</ele>
        <time>2024-11-29T13:28:03Z</time>
      </trkpt>
      <trkpt lat="45.96225" lon="1.28663">
        <ele>536</ele>
        <time>2024-11-29T13:28:05Z</time>
      </trkpt>
      <trkpt lat="45.96223" lon="1.28667">
        <ele>536.3</ele>
        <time>2024-11-29T13:28:06Z</time>
      </trkpt>
      <trkpt lat="45.96221" lon="1.28671">
        <ele>536.7</ele>
        <time>2024-11-29T13:28:07Z</time>
      </trkpt>
      <trkpt lat="45.96219" lon="1.28675">
        <ele>537</ele>
        <time>2024-11-29T13:28:08Z</time>
      </trkpt>
      <trkpt lat="45.96217" lon="1.28678">
        <ele>537.3</ele>
        <time>2024-11-29T13:28:09Z</time>
      </trkpt>
      <trkpt lat="45.96216" lon="1.28683">
        <ele>537.7</ele>
        <time>2024-11-29T13:28:10Z</time>
      </trkpt>
      <trkpt lat="45.96215" lon="1.28687">
        <ele>538</ele>
        <time>2024-11-29T13:28:11Z</time>
      </trkpt>
      <trkpt lat="45.96215" lon="1.28693">
        <ele>538.4</ele>
        <time>2024-11-29T13:28:13Z</time>
      </trkpt>
      <trkpt lat="45.96214" lon="1.287">
        <ele>538.9</ele>
        <time>2024-11-29T13:28:15Z</time>
      </trkpt>
      <trkpt lat="45.96214" lon="1.28705">
        <ele>539.3</ele>
        <time>2024-11-29T13:28:16Z</time>
      </trkpt>
      <trkpt lat="45.96214" lon="1.28709">
        <ele>539.5</ele>
        <time>2024-11-29T13:28:17Z</time>
      </trkpt>
      <trkpt lat="45.96213" lon="1.28714">
        <ele>539.8</ele>
        <time>2024-11-29T13:28:18Z</time>
      </trkpt>
      <trkpt lat="45.96212" lon="1.28718">
        <ele>540.1</ele>
        <time>2024-11-29T13:28:19Z</time>
      </trkpt>
      <trkpt lat="45.9621" lon="1.28725">
        <ele>540.6</ele>
        <time>2024-11-29T13:28:21Z</time>
      </trkpt>
      <trkpt lat="45.9621" lon="1.2873">
        <ele>541</ele>
        <time>2024-11-29T13:28:22Z</time>
      </trkpt>
      <trkpt lat="45.9621" lon="1.28735">
        <ele>541.3</ele>
        <time>2024-11-29T13:28:23Z</time>
      </trkpt>
      <trkpt lat="45.9621" lon="1.28741">
        <ele>541.7</ele>
        <time>2024-11-29T13:28:25Z</time>
      </trkpt>
      <trkpt lat="45.9621" lon="1.28748">
        <ele>542.2</ele>
        <time>2024-11-29T13:28:27Z</time>
      </trkpt>
      <trkpt lat="45.96211" lon="1.28753">
        <ele>542.5</ele>
        <time>2024-11-29T13:28:28Z</time>
      </trkpt>
      <trkpt lat="45.96212" lon="1.28759">
        <ele>542.9</ele>
        <time>2024-11-29T13:28:29Z</time>
      </trkpt>
      <trkpt lat="45.96213" lon="1.28764">
        <ele>543.2</ele>
        <time>2024-11-29T13:28:30Z</time>
      </trkpt>
      <trkpt lat="45.96214" lon="1.2877">
        <ele>543.5</ele>
        <time>2024-11-29T13:28:31Z</time>
      </trkpt>
      <trkpt lat="45.96216" lon="1.28776">
        <ele>543.8</ele>
        <time>2024-11-29T13:28:32Z</time>
      </trkpt>
      <trkpt lat="45.96218" lon="1.28782">
        <ele>544</ele>
        <time>2024-11-29T13:28:33Z</time>
      </trkpt>
      <trkpt lat="45.96219" lon="1.28788">
        <ele>544.3</ele>
        <time>2024-11-29T13:28:34Z</time>
      </trkpt>
      <trkpt lat="45.96219" lon="1.28794">
        <ele>544.4</ele>
        <time>2024-11-29T13:28:35Z</time>
      </trkpt>
      <trkpt lat="45.9622" lon="1.288">
        <ele>544.6</ele>
        <time>2024-11-29T13:28:36Z</time>
      </trkpt>
      <trkpt lat="45.96221" lon="1.28806">
        <ele>544.7</ele>
        <time>2024-11-29T13:28:37Z</time>
      </trkpt>
      <trkpt lat="45.96221" lon="1.28812">
        <ele>544.9</ele>
        <time>2024-11-29T13:28:38Z</time>
      </trkpt>
      <trkpt lat="45.96222" lon="1.28818">
        <ele>544.9</ele>
        <time>2024-11-29T13:28:39Z</time>
      </trkpt>
      <trkpt lat="45.96222" lon="1.28823">
        <ele>545</ele>
        <time>2024-11-29T13:28:40Z</time>
      </trkpt>
      <trkpt lat="45.96223" lon="1.28829">
        <ele>545</ele>
        <time>2024-11-29T13:28:41Z</time>
      </trkpt>
      <trkpt lat="45.96223" lon="1.28835">
        <ele>545</ele>
        <time>2024-11-29T13:28:42Z</time>
      </trkpt>
      <trkpt lat="45.96225" lon="1.28842">
        <ele>545</ele>
        <time>2024-11-29T13:28:43Z</time>
      </trkpt>
      <trkpt lat="45.96226" lon="1.28848">
        <ele>545</ele>
        <time>2024-11-29T13:28:44Z</time>
      </trkpt>
      <trkpt lat="45.96227" lon="1.28855">
        <ele>545</ele>
        <time>2024-11-29T13:28:45Z</time>
      </trkpt>
      <trkpt lat="45.96228" lon="1.28862">
        <ele>545</ele>
        <time>2024-11-29T13:28:46Z</time>
      </trkpt>
      <trkpt lat="45.9623" lon="1.28868">
        <ele>545</ele>
        <time>2024-11-29T13:28:47Z</time>
      </trkpt>
      <trkpt lat="45.96232" lon="1.28875">
        <ele>545.1</ele>
        <time>2024-11-29T13:28:48Z</time>
      </trkpt>
      <trkpt lat="45.96234" lon="1.2888">
        <ele>545.1</ele>
        <time>2024-11-29T13:28:49Z</time>
      </trkpt>
      <trkpt lat="45.96236" lon="1.28885">
        <ele>545.1</ele>
        <time>2024-11-29T13:28:50Z</time>
      </trkpt>
      <trkpt lat="45.96238" lon="1.28891">
        <ele>545.1</ele>
        <time>2024-11-29T13:28:51Z</time>
      </trkpt>
      <trkpt lat="45.9624" lon="1.28896">
        <ele>545.2</ele>
        <time>2024-11-29T13:28:52Z</time>
      </trkpt>
      <trkpt lat="45.96242" lon="1.289">
        <ele>545.2</ele>
        <time>2024-11-29T13:28:53Z</time>
      </trkpt>
      <trkpt lat="45.96244" lon="1.28905">
        <ele>545.3</ele>
        <time>2024-11-29T13:28:54Z</time>
      </trkpt>
      <trkpt lat="45.96246" lon="1.28909">
        <ele>545.3</ele>
        <time>2024-11-29T13:28:55Z</time>
      </trkpt>
      <trkpt lat="45.96248" lon="1.28912">
        <ele>545.4</ele>
        <time>2024-11-29T13:28:56Z</time>
      </trkpt>
      <trkpt lat="45.9625" lon="1.28916">
        <ele>545.5</ele>
        <time>2024-11-29T13:28:57Z</time>
      </trkpt>
      <trkpt lat="45.96253" lon="1.2892">
        <ele>545.5</ele>
        <time>2024-11-29T13:28:58Z</time>
      </trkpt>
      <trkpt lat="45.96256" lon="1.28924">
        <ele>545.6</ele>
        <time>2024-11-29T13:28:59Z</time>
      </trkpt>
      <trkpt lat="45.9626" lon="1.28929">
        <ele>545.5</ele>
        <time>2024-11-29T13:29:01Z</time>
      </trkpt>
      <trkpt lat="45.96263" lon="1.28933">
        <ele>545.4</ele>
        <time>2024-11-29T13:29:02Z</time>
      </trkpt>
      <trkpt lat="45.96267" lon="1.28936">
        <ele>545.2</ele>
        <time>2024-11-29T13:29:03Z</time>
      </trkpt>
      <trkpt lat="45.96271" lon="1.28942">
        <ele>544.8</ele>
        <time>2024-11-29T13:29:04Z</time>
      </trkpt>
      <trkpt lat="45.96275" lon="1.28947">
        <ele>544.4</ele>
        <time>2024-11-29T13:29:05Z</time>
      </trkpt>
      <trkpt lat="45.96278" lon="1.28951">
        <ele>544</ele>
        <time>2024-11-29T13:29:06Z</time>
      </trkpt>
      <trkpt lat="45.96283" lon="1.28952">
        <ele>543.6</ele>
        <time>2024-11-29T13:29:07Z</time>
      </trkpt>
      <trkpt lat="45.96288" lon="1.28951">
        <ele>543.1</ele>
        <time>2024-11-29T13:29:08Z</time>
      </trkpt>
      <trkpt lat="45.96291" lon="1.2895">
        <ele>542.8</ele>
        <time>2024-11-29T13:29:09Z</time>
      </trkpt>
      <trkpt lat="45.96296" lon="1.28948">
        <ele>542.3</ele>
        <time>2024-11-29T13:29:10Z</time>
      </trkpt>
      <trkpt lat="45.96301" lon="1.28946">
        <ele>541.9</ele>
        <time>2024-11-29T13:29:11Z</time>
      </trkpt>
      <trkpt lat="45.96307" lon="1.28944">
        <ele>541.3</ele>
        <time>2024-11-29T13:29:12Z</time>
      </trkpt>
      <trkpt lat="45.96312" lon="1.28942">
        <ele>540.8</ele>
        <time>2024-11-29T13:29:13Z</time>
      </trkpt>
      <trkpt lat="45.96317" lon="1.28939">
        <ele>540.4</ele>
        <time>2024-11-29T13:29:14Z</time>
      </trkpt>
      <trkpt lat="45.96322" lon="1.28936">
        <ele>540.1</ele>
        <time>2024-11-29T13:29:15Z</time>
      </trkpt>
      <trkpt lat="45.96325" lon="1.28933">
        <ele>539.9</ele>
        <time>2024-11-29T13:29:16Z</time>
      </trkpt>
      <trkpt lat="45.96329" lon="1.28929">
        <ele>539.8</ele>
        <time>2024-11-29T13:29:17Z</time>
      </trkpt>
      <trkpt lat="45.96333" lon="1.28925">
        <ele>539.7</ele>
        <time>2024-11-29T13:29:18Z</time>
      </trkpt>
      <trkpt lat="45.96337" lon="1.28921">
        <ele>539.7</ele>
        <time>2024-11-29T13:29:19Z</time>
      </trkpt>
      <trkpt lat="45.96341" lon="1.28918">
        <ele>539.7</ele>
        <time>2024-11-29T13:29:20Z</time>
      </trkpt>
      <trkpt lat="45.96344" lon="1.28916">
        <ele>539.8</ele>
        <time>2024-11-29T13:29:23Z</time>
      </trkpt>
      <trkpt lat="45.96347" lon="1.28915">
        <ele>539.8</ele>
        <time>2024-11-29T13:29:30Z</time>
      </trkpt>
      <trkpt lat="45.9635" lon="1.28914">
        <ele>539.8</ele>
        <time>2024-11-29T13:29:32Z</time>
      </trkpt>
      <trkpt lat="45.96353" lon="1.28913">
        <ele>539.9</ele>
        <time>2024-11-29T13:29:34Z</time>
      </trkpt>
      <trkpt lat="45.96356" lon="1.28912">
        <ele>539.9</ele>
        <time>2024-11-29T13:29:36Z</time>
      </trkpt>
      <trkpt lat="45.9636" lon="1.28912">
        <ele>540</ele>
        <time>2024-11-29T13:29:38Z</time>
      </trkpt>
      <trkpt lat="45.96363" lon="1.28912">
        <ele>540.1</ele>
        <time>2024-11-29T13:29:40Z</time>
      </trkpt>
      <trkpt lat="45.96367" lon="1.2891">
        <ele>540.1</ele>
        <time>2024-11-29T13:29:42Z</time>
      </trkpt>
      <trkpt lat="45.9637" lon="1.28909">
        <ele>540.2</ele>
        <time>2024-11-29T13:29:43Z</time>
      </trkpt>
      <trkpt lat="45.96374" lon="1.28906">
        <ele>540.3</ele>
        <time>2024-11-29T13:29:44Z</time>
      </trkpt>
      <trkpt lat="45.96377" lon="1.28904">
        <ele>540.3</ele>
        <time>2024-11-29T13:29:45Z</time>
      </trkpt>
      <trkpt lat="45.96381" lon="1.28902">
        <ele>540.4</ele>
        <time>2024-11-29T13:29:46Z</time>
      </trkpt>
      <trkpt lat="45.96384" lon="1.289">
        <ele>540.5</ele>
        <time>2024-11-29T13:29:47Z</time>
      </trkpt>
      <trkpt lat="45.96388" lon="1.28899">
        <ele>540.5</ele>
        <time>2024-11-29T13:29:48Z</time>
      </trkpt>
      <trkpt lat="45.96391" lon="1.28898">
        <ele>540.6</ele>
        <time>2024-11-29T13:29:49Z</time>
      </trkpt>
      <trkpt lat="45.96395" lon="1.28897">
        <ele>540.6</ele>
        <time>2024-11-29T13:29:50Z</time>
      </trkpt>
      <trkpt lat="45.96399" lon="1.28897">
        <ele>540.6</ele>
        <time>2024-11-29T13:29:51Z</time>
      </trkpt>
      <trkpt lat="45.96403" lon="1.28897">
        <ele>540.6</ele>
        <time>2024-11-29T13:29:52Z</time>
      </trkpt>
      <trkpt lat="45.96406" lon="1.28898">
        <ele>540.7</ele>
        <time>2024-11-29T13:29:53Z</time>
      </trkpt>
      <trkpt lat="45.96411" lon="1.289">
        <ele>540.6</ele>
        <time>2024-11-29T13:29:55Z</time>
      </trkpt>
      <trkpt lat="45.96415" lon="1.28902">
        <ele>540.6</ele>
        <time>2024-11-29T13:29:56Z</time>
      </trkpt>
      <trkpt lat="45.96418" lon="1.28907">
        <ele>540.5</ele>
        <time>2024-11-29T13:29:57Z</time>
      </trkpt>
      <trkpt lat="45.9642" lon="1.28915">
        <ele>540.2</ele>
        <time>2024-11-29T13:29:58Z</time>
      </trkpt>
      <trkpt lat="45.96422" lon="1.28923">
        <ele>540</ele>
        <time>2024-11-29T13:29:59Z</time>
      </trkpt>
      <trkpt lat="45.96423" lon="1.28931">
        <ele>539.9</ele>
        <time>2024-11-29T13:30:00Z</time>
      </trkpt>
      <trkpt lat="45.96425" lon="1.28938">
        <ele>539.7</ele>
        <time>2024-11-29T13:30:01Z</time>
      </trkpt>
      <trkpt lat="45.96426" lon="1.28944">
        <ele>539.7</ele>
        <time>2024-11-29T13:30:02Z</time>
      </trkpt>
      <trkpt lat="45.96428" lon="1.28949">
        <ele>539.7</ele>
        <time>2024-11-29T13:30:03Z</time>
      </trkpt>
      <trkpt lat="45.96431" lon="1.28956">
        <ele>539.8</ele>
        <time>2024-11-29T13:30:04Z</time>
      </trkpt>
      <trkpt lat="45.96433" lon="1.2896">
        <ele>539.9</ele>
        <time>2024-11-29T13:30:05Z</time>
      </trkpt>
      <trkpt lat="45.96435" lon="1.28966">
        <ele>540</ele>
        <time>2024-11-29T13:30:06Z</time>
      </trkpt>
      <trkpt lat="45.96435" lon="1.2897">
        <ele>540.2</ele>
        <time>2024-11-29T13:30:07Z</time>
      </trkpt>
      <trkpt lat="45.96435" lon="1.28975">
        <ele>540.4</ele>
        <time>2024-11-29T13:30:08Z</time>
      </trkpt>
      <trkpt lat="45.96433" lon="1.2898">
        <ele>540.6</ele>
        <time>2024-11-29T13:30:10Z</time>
      </trkpt>
      <trkpt lat="45.9643" lon="1.28986">
        <ele>540.9</ele>
        <time>2024-11-29T13:30:12Z</time>
      </trkpt>
      <trkpt lat="45.96428" lon="1.28993">
        <ele>541.2</ele>
        <time>2024-11-29T13:30:14Z</time>
      </trkpt>
      <trkpt lat="45.96428" lon="1.29">
        <ele>541.4</ele>
        <time>2024-11-29T13:30:16Z</time>
      </trkpt>
      <trkpt lat="45.96428" lon="1.29005">
        <ele>541.6</ele>
        <time>2024-11-29T13:30:17Z</time>
      </trkpt>
      <trkpt lat="45.96427" lon="1.29011">
        <ele>541.8</ele>
        <time>2024-11-29T13:30:19Z</time>
      </trkpt>
      <trkpt lat="45.96425" lon="1.29016">
        <ele>542</ele>
        <time>2024-11-29T13:30:20Z</time>
      </trkpt>
      <trkpt lat="45.96423" lon="1.29021">
        <ele>542</ele>
        <time>2024-11-29T13:30:21Z</time>
      </trkpt>
      <trkpt lat="45.9642" lon="1.29026">
        <ele>541.9</ele>
        <time>2024-11-29T13:30:22Z</time>
      </trkpt>
      <trkpt lat="45.96419" lon="1.29031">
        <ele>541.7</ele>
        <time>2024-11-29T13:30:23Z</time>
      </trkpt>
      <trkpt lat="45.96417" lon="1.29037">
        <ele>541.4</ele>
        <time>2024-11-29T13:30:24Z</time>
      </trkpt>
      <trkpt lat="45.96416" lon="1.29045">
        <ele>540.9</ele>
        <time>2024-11-29T13:30:25Z</time>
      </trkpt>
      <trkpt lat="45.96415" lon="1.29052">
        <ele>540.3</ele>
        <time>2024-11-29T13:30:26Z</time>
      </trkpt>
      <trkpt lat="45.96413" lon="1.29058">
        <ele>539.8</ele>
        <time>2024-11-29T13:30:27Z</time>
      </trkpt>
      <trkpt lat="45.96411" lon="1.29066">
        <ele>539.2</ele>
        <time>2024-11-29T13:30:28Z</time>
      </trkpt>
      <trkpt lat="45.96409" lon="1.29072">
        <ele>538.7</ele>
        <time>2024-11-29T13:30:29Z</time>
      </trkpt>
      <trkpt lat="45.96408" lon="1.29079">
        <ele>538.1</ele>
        <time>2024-11-29T13:30:30Z</time>
      </trkpt>
      <trkpt lat="45.96407" lon="1.29086">
        <ele>537.6</ele>
        <time>2024-11-29T13:30:31Z</time>
      </trkpt>
      <trkpt lat="45.96406" lon="1.29095">
        <ele>537</ele>
        <time>2024-11-29T13:30:32Z</time>
      </trkpt>
      <trkpt lat="45.96406" lon="1.29104">
        <ele>536.4</ele>
        <time>2024-11-29T13:30:33Z</time>
      </trkpt>
      <trkpt lat="45.96406" lon="1.29112">
        <ele>536</ele>
        <time>2024-11-29T13:30:34Z</time>
      </trkpt>
      <trkpt lat="45.96407" lon="1.29119">
        <ele>535.7</ele>
        <time>2024-11-29T13:30:35Z</time>
      </trkpt>
      <trkpt lat="45.96409" lon="1.29127">
        <ele>535.4</ele>
        <time>2024-11-29T13:30:36Z</time>
      </trkpt>
      <trkpt lat="45.9641" lon="1.29132">
        <ele>535.3</ele>
        <time>2024-11-29T13:30:37Z</time>
      </trkpt>
      <trkpt lat="45.96411" lon="1.2914">
        <ele>535.1</ele>
        <time>2024-11-29T13:30:38Z</time>
      </trkpt>
      <trkpt lat="45.96413" lon="1.29146">
        <ele>535</ele>
        <time>2024-11-29T13:30:39Z</time>
      </trkpt>
      <trkpt lat="45.96414" lon="1.29152">
        <ele>534.9</ele>
        <time>2024-11-29T13:30:40Z</time>
      </trkpt>
      <trkpt lat="45.96416" lon="1.29158">
        <ele>534.8</ele>
        <time>2024-11-29T13:30:41Z</time>
      </trkpt>
      <trkpt lat="45.96418" lon="1.29163">
        <ele>534.8</ele>
        <time>2024-11-29T13:30:42Z</time>
      </trkpt>
      <trkpt lat="45.96419" lon="1.29169">
        <ele>534.7</ele>
        <time>2024-11-29T13:30:43Z</time>
      </trkpt>
      <trkpt lat="45.96419" lon="1.29175">
        <ele>534.7</ele>
        <time>2024-11-29T13:30:44Z</time>
      </trkpt>
      <trkpt lat="45.96418" lon="1.29181">
        <ele>534.7</ele>
        <time>2024-11-29T13:30:45Z</time>
      </trkpt>
      <trkpt lat="45.96419" lon="1.29188">
        <ele>534.7</ele>
        <time>2024-11-29T13:30:46Z</time>
      </trkpt>
      <trkpt lat="45.96419" lon="1.29194">
        <ele>534.7</ele>
        <time>2024-11-29T13:30:47Z</time>
      </trkpt>
      <trkpt lat="45.96423" lon="1.29198">
        <ele>534.7</ele>
        <time>2024-11-29T13:30:49Z</time>
      </trkpt>
      <trkpt lat="45.96427" lon="1.29199">
        <ele>534.8</ele>
        <time>2024-11-29T13:30:50Z</time>
      </trkpt>
      <trkpt lat="45.96431" lon="1.29201">
        <ele>534.9</ele>
        <time>2024-11-29T13:30:51Z</time>
      </trkpt>
      <trkpt lat="45.96435" lon="1.29202">
        <ele>535</ele>
        <time>2024-11-29T13:30:52Z</time>
      </trkpt>
      <trkpt lat="45.96438" lon="1.29204">
        <ele>535.2</ele>
        <time>2024-11-29T13:30:53Z</time>
      </trkpt>
      <trkpt lat="45.96441" lon="1.29206">
        <ele>535.3</ele>
        <time>2024-11-29T13:30:54Z</time>
      </trkpt>
      <trkpt lat="45.96446" lon="1.29207">
        <ele>535.6</ele>
        <time>2024-11-29T13:30:56Z</time>
      </trkpt>
      <trkpt lat="45.9645" lon="1.29209">
        <ele>535.8</ele>
        <time>2024-11-29T13:30:58Z</time>
      </trkpt>
      <trkpt lat="45.96454" lon="1.29211">
        <ele>536.1</ele>
        <time>2024-11-29T13:30:59Z</time>
      </trkpt>
      <trkpt lat="45.96459" lon="1.29213">
        <ele>536.4</ele>
        <time>2024-11-29T13:31:01Z</time>
      </trkpt>
      <trkpt lat="45.96464" lon="1.29213">
        <ele>536.7</ele>
        <time>2024-11-29T13:31:03Z</time>
      </trkpt>
      <trkpt lat="45.96468" lon="1.29215">
        <ele>536.9</ele>
        <time>2024-11-29T13:31:05Z</time>
      </trkpt>
      <trkpt lat="45.96472" lon="1.29217">
        <ele>537.2</ele>
        <time>2024-11-29T13:31:07Z</time>
      </trkpt>
      <trkpt lat="45.96476" lon="1.29218">
        <ele>537.4</ele>
        <time>2024-11-29T13:31:09Z</time>
      </trkpt>
      <trkpt lat="45.9648" lon="1.29219">
        <ele>537.7</ele>
        <time>2024-11-29T13:31:10Z</time>
      </trkpt>
      <trkpt lat="45.96484" lon="1.29222">
        <ele>537.9</ele>
        <time>2024-11-29T13:31:12Z</time>
      </trkpt>
      <trkpt lat="45.96487" lon="1.29224">
        <ele>538.1</ele>
        <time>2024-11-29T13:31:13Z</time>
      </trkpt>
      <trkpt lat="45.9649" lon="1.29227">
        <ele>538.4</ele>
        <time>2024-11-29T13:31:14Z</time>
      </trkpt>
      <trkpt lat="45.96493" lon="1.29229">
        <ele>538.6</ele>
        <time>2024-11-29T13:31:15Z</time>
      </trkpt>
      <trkpt lat="45.96497" lon="1.2923">
        <ele>538.8</ele>
        <time>2024-11-29T13:31:16Z</time>
      </trkpt>
      <trkpt lat="45.96501" lon="1.2923">
        <ele>539.1</ele>
        <time>2024-11-29T13:31:17Z</time>
      </trkpt>
      <trkpt lat="45.96504" lon="1.2923">
        <ele>539.3</ele>
        <time>2024-11-29T13:31:18Z</time>
      </trkpt>
      <trkpt lat="45.96508" lon="1.2923">
        <ele>539.6</ele>
        <time>2024-11-29T13:31:19Z</time>
      </trkpt>
      <trkpt lat="45.96512" lon="1.2923">
        <ele>539.9</ele>
        <time>2024-11-29T13:31:21Z</time>
      </trkpt>
      <trkpt lat="45.96516" lon="1.29232">
        <ele>540.2</ele>
        <time>2024-11-29T13:31:23Z</time>
      </trkpt>
      <trkpt lat="45.96522" lon="1.29232">
        <ele>540.6</ele>
        <time>2024-11-29T13:31:25Z</time>
      </trkpt>
      <trkpt lat="45.96525" lon="1.29233">
        <ele>540.9</ele>
        <time>2024-11-29T13:31:26Z</time>
      </trkpt>
      <trkpt lat="45.96529" lon="1.29234">
        <ele>541.2</ele>
        <time>2024-11-29T13:31:27Z</time>
      </trkpt>
      <trkpt lat="45.96533" lon="1.29236">
        <ele>541.7</ele>
        <time>2024-11-29T13:31:28Z</time>
      </trkpt>
      <trkpt lat="45.96536" lon="1.29239">
        <ele>542.1</ele>
        <time>2024-11-29T13:31:29Z</time>
      </trkpt>
      <trkpt lat="45.96537" lon="1.29244">
        <ele>542.6</ele>
        <time>2024-11-29T13:31:31Z</time>
      </trkpt>
      <trkpt lat="45.96537" lon="1.2925">
        <ele>543.1</ele>
        <time>2024-11-29T13:31:33Z</time>
      </trkpt>
      <trkpt lat="45.96537" lon="1.29258">
        <ele>543.7</ele>
        <time>2024-11-29T13:31:35Z</time>
      </trkpt>
      <trkpt lat="45.96538" lon="1.29264">
        <ele>544.3</ele>
        <time>2024-11-29T13:31:36Z</time>
      </trkpt>
      <trkpt lat="45.96537" lon="1.29269">
        <ele>544.7</ele>
        <time>2024-11-29T13:31:37Z</time>
      </trkpt>
      <trkpt lat="45.96537" lon="1.29274">
        <ele>545.1</ele>
        <time>2024-11-29T13:31:39Z</time>
      </trkpt>
      <trkpt lat="45.96536" lon="1.29279">
        <ele>545.5</ele>
        <time>2024-11-29T13:31:41Z</time>
      </trkpt>
      <trkpt lat="45.96535" lon="1.29283">
        <ele>545.9</ele>
        <time>2024-11-29T13:31:43Z</time>
      </trkpt>
      <trkpt lat="45.96533" lon="1.29288">
        <ele>546.4</ele>
        <time>2024-11-29T13:31:45Z</time>
      </trkpt>
      <trkpt lat="45.9653" lon="1.29293">
        <ele>546.9</ele>
        <time>2024-11-29T13:31:47Z</time>
      </trkpt>
      <trkpt lat="45.96528" lon="1.29297">
        <ele>547.4</ele>
        <time>2024-11-29T13:31:48Z</time>
      </trkpt>
      <trkpt lat="45.96525" lon="1.29301">
        <ele>548</ele>
        <time>2024-11-29T13:31:50Z</time>
      </trkpt>
      <trkpt lat="45.96522" lon="1.29304">
        <ele>548.5</ele>
        <time>2024-11-29T13:31:51Z</time>
      </trkpt>
      <trkpt lat="45.9652" lon="1.29307">
        <ele>548.9</ele>
        <time>2024-11-29T13:31:53Z</time>
      </trkpt>
      <trkpt lat="45.96516" lon="1.29311">
        <ele>549.7</ele>
        <time>2024-11-29T13:31:55Z</time>
      </trkpt>
      <trkpt lat="45.96513" lon="1.29314">
        <ele>550.2</ele>
        <time>2024-11-29T13:31:57Z</time>
      </trkpt>
      <trkpt lat="45.96511" lon="1.29317">
        <ele>550.6</ele>
        <time>2024-11-29T13:31:58Z</time>
      </trkpt>
      <trkpt lat="45.96508" lon="1.29321">
        <ele>551.2</ele>
        <time>2024-11-29T13:32:00Z</time>
      </trkpt>
      <trkpt lat="45.96505" lon="1.29324">
        <ele>551.7</ele>
        <time>2024-11-29T13:32:01Z</time>
      </trkpt>
      <trkpt lat="45.96503" lon="1.29327">
        <ele>552.1</ele>
        <time>2024-11-29T13:32:02Z</time>
      </trkpt>
      <trkpt lat="45.965" lon="1.29332">
        <ele>552.7</ele>
        <time>2024-11-29T13:32:04Z</time>
      </trkpt>
      <trkpt lat="45.96499" lon="1.29337">
        <ele>553.2</ele>
        <time>2024-11-29T13:32:06Z</time>
      </trkpt>
      <trkpt lat="45.96497" lon="1.29342">
        <ele>553.7</ele>
        <time>2024-11-29T13:32:08Z</time>
      </trkpt>
      <trkpt lat="45.96497" lon="1.29347">
        <ele>554.2</ele>
        <time>2024-11-29T13:32:10Z</time>
      </trkpt>
      <trkpt lat="45.96499" lon="1.29351">
        <ele>554.6</ele>
        <time>2024-11-29T13:32:12Z</time>
      </trkpt>
      <trkpt lat="45.96502" lon="1.29354">
        <ele>555</ele>
        <time>2024-11-29T13:32:14Z</time>
      </trkpt>
      <trkpt lat="45.96505" lon="1.29357">
        <ele>555.4</ele>
        <time>2024-11-29T13:32:16Z</time>
      </trkpt>
      <trkpt lat="45.96508" lon="1.2936">
        <ele>555.9</ele>
        <time>2024-11-29T13:32:18Z</time>
      </trkpt>
      <trkpt lat="45.9651" lon="1.29363">
        <ele>556.2</ele>
        <time>2024-11-29T13:32:20Z</time>
      </trkpt>
      <trkpt lat="45.96514" lon="1.29365">
        <ele>556.7</ele>
        <time>2024-11-29T13:32:22Z</time>
      </trkpt>
      <trkpt lat="45.96517" lon="1.29367">
        <ele>557.1</ele>
        <time>2024-11-29T13:32:24Z</time>
      </trkpt>
      <trkpt lat="45.96521" lon="1.29367">
        <ele>557.6</ele>
        <time>2024-11-29T13:32:26Z</time>
      </trkpt>
      <trkpt lat="45.96525" lon="1.29368">
        <ele>558</ele>
        <time>2024-11-29T13:32:28Z</time>
      </trkpt>
      <trkpt lat="45.9653" lon="1.29369">
        <ele>558.6</ele>
        <time>2024-11-29T13:32:30Z</time>
      </trkpt>
      <trkpt lat="45.96534" lon="1.29369">
        <ele>559</ele>
        <time>2024-11-29T13:32:32Z</time>
      </trkpt>
      <trkpt lat="45.96538" lon="1.2937">
        <ele>559.5</ele>
        <time>2024-11-29T13:32:34Z</time>
      </trkpt>
      <trkpt lat="45.96543" lon="1.29371">
        <ele>560</ele>
        <time>2024-11-29T13:32:36Z</time>
      </trkpt>
      <trkpt lat="45.96548" lon="1.29372">
        <ele>560.6</ele>
        <time>2024-11-29T13:32:38Z</time>
      </trkpt>
      <trkpt lat="45.96552" lon="1.29373">
        <ele>561</ele>
        <time>2024-11-29T13:32:39Z</time>
      </trkpt>
      <trkpt lat="45.96555" lon="1.29375">
        <ele>561.3</ele>
        <time>2024-11-29T13:32:40Z</time>
      </trkpt>
      <trkpt lat="45.96558" lon="1.29376">
        <ele>561.6</ele>
        <time>2024-11-29T13:32:41Z</time>
      </trkpt>
      <trkpt lat="45.96561" lon="1.29377">
        <ele>561.9</ele>
        <time>2024-11-29T13:32:42Z</time>
      </trkpt>
      <trkpt lat="45.96564" lon="1.29378">
        <ele>562.2</ele>
        <time>2024-11-29T13:32:43Z</time>
      </trkpt>
      <trkpt lat="45.96567" lon="1.29379">
        <ele>562.5</ele>
        <time>2024-11-29T13:32:44Z</time>
      </trkpt>
      <trkpt lat="45.96571" lon="1.29379">
        <ele>562.8</ele>
        <time>2024-11-29T13:32:46Z</time>
      </trkpt>
      <trkpt lat="45.96575" lon="1.29379">
        <ele>563.2</ele>
        <time>2024-11-29T13:32:47Z</time>
      </trkpt>
      <trkpt lat="45.96579" lon="1.2938">
        <ele>563.6</ele>
        <time>2024-11-29T13:32:48Z</time>
      </trkpt>
      <trkpt lat="45.96582" lon="1.2938">
        <ele>563.8</ele>
        <time>2024-11-29T13:32:49Z</time>
      </trkpt>
      <trkpt lat="45.96586" lon="1.2938">
        <ele>564.2</ele>
        <time>2024-11-29T13:32:50Z</time>
      </trkpt>
      <trkpt lat="45.96589" lon="1.2938">
        <ele>564.4</ele>
        <time>2024-11-29T13:32:51Z</time>
      </trkpt>
      <trkpt lat="45.96592" lon="1.2938">
        <ele>564.6</ele>
        <time>2024-11-29T13:32:52Z</time>
      </trkpt>
      <trkpt lat="45.96595" lon="1.29381">
        <ele>564.9</ele>
        <time>2024-11-29T13:32:53Z</time>
      </trkpt>
      <trkpt lat="45.96597" lon="1.29382">
        <ele>565</ele>
        <time>2024-11-29T13:32:54Z</time>
      </trkpt>
      <trkpt lat="45.966" lon="1.29386">
        <ele>565.3</ele>
        <time>2024-11-29T13:32:56Z</time>
      </trkpt>
      <trkpt lat="45.96601" lon="1.2939">
        <ele>565.6</ele>
        <time>2024-11-29T13:32:57Z</time>
      </trkpt>
      <trkpt lat="45.966" lon="1.29394">
        <ele>565.8</ele>
        <time>2024-11-29T13:32:58Z</time>
      </trkpt>
      <trkpt lat="45.96598" lon="1.29398">
        <ele>566</ele>
        <time>2024-11-29T13:32:59Z</time>
      </trkpt>
      <trkpt lat="45.96597" lon="1.29402">
        <ele>566.2</ele>
        <time>2024-11-29T13:33:00Z</time>
      </trkpt>
      <trkpt lat="45.96597" lon="1.29407">
        <ele>566.4</ele>
        <time>2024-11-29T13:33:01Z</time>
      </trkpt>
      <trkpt lat="45.96597" lon="1.2941">
        <ele>566.6</ele>
        <time>2024-11-29T13:33:05Z</time>
      </trkpt>
      <trkpt lat="45.96597" lon="1.29409">
        <ele>566.6</ele>
        <time>2024-11-29T13:34:00Z</time>
      </trkpt>
      <trkpt lat="45.96597" lon="1.29408">
        <ele>566.6</ele>
        <time>2024-11-29T13:36:00Z</time>
      </trkpt>
      <trkpt lat="45.96597" lon="1.29408">
        <ele>566.7</ele>
        <time>2024-11-29T13:36:23Z</time>
      </trkpt>
      <trkpt lat="45.96597" lon="1.29407">
        <ele>566.7</ele>
        <time>2024-11-29T13:38:53Z</time>
      </trkpt>
      <trkpt lat="45.96597" lon="1.29406">
        <ele>566.8</ele>
        <time>2024-11-29T13:39:32Z</time>
      </trkpt>
      <trkpt lat="45.96597" lon="1.29405">
        <ele>566.8</ele>
        <time>2024-11-29T13:39:39Z</time>
      </trkpt>
      <trkpt lat="45.96597" lon="1.29404">
        <ele>566.8</ele>
        <time>2024-11-29T13:39:40Z</time>
      </trkpt>
      <trkpt lat="45.96597" lon="1.29398">
        <ele>567.1</ele>
        <time>2024-11-29T13:39:41Z</time>
      </trkpt>
      <trkpt lat="45.96598" lon="1.29393">
        <ele>567.4</ele>
        <time>2024-11-29T13:39:42Z</time>
      </trkpt>
      <trkpt lat="45.966" lon="1.29388">
        <ele>567.6</ele>
        <time>2024-11-29T13:39:43Z</time>
      </trkpt>
      <trkpt lat="45.96602" lon="1.29384">
        <ele>567.9</ele>
        <time>2024-11-29T13:39:44Z</time>
      </trkpt>
      <trkpt lat="45.96605" lon="1.29381">
        <ele>568.1</ele>
        <time>2024-11-29T13:39:45Z</time>
      </trkpt>
      <trkpt lat="45.96608" lon="1.29378">
        <ele>568.4</ele>
        <time>2024-11-29T13:39:46Z</time>
      </trkpt>
      <trkpt lat="45.96611" lon="1.29377">
        <ele>568.6</ele>
        <time>2024-11-29T13:39:47Z</time>
      </trkpt>
      <trkpt lat="45.96615" lon="1.29375">
        <ele>568.9</ele>
        <time>2024-11-29T13:39:48Z</time>
      </trkpt>
      <trkpt lat="45.96618" lon="1.29374">
        <ele>569.2</ele>
        <time>2024-11-29T13:39:49Z</time>
      </trkpt>
      <trkpt lat="45.96622" lon="1.29373">
        <ele>569.5</ele>
        <time>2024-11-29T13:39:50Z</time>
      </trkpt>
      <trkpt lat="45.96625" lon="1.29372">
        <ele>569.7</ele>
        <time>2024-11-29T13:39:51Z</time>
      </trkpt>
      <trkpt lat="45.96628" lon="1.29372">
        <ele>569.9</ele>
        <time>2024-11-29T13:39:52Z</time>
      </trkpt>
      <trkpt lat="45.96631" lon="1.29371">
        <ele>570.1</ele>
        <time>2024-11-29T13:39:53Z</time>
      </trkpt>
      <trkpt lat="45.96634" lon="1.2937">
        <ele>570.3</ele>
        <time>2024-11-29T13:39:54Z</time>
      </trkpt>
      <trkpt lat="45.96637" lon="1.29368">
        <ele>570.5</ele>
        <time>2024-11-29T13:39:55Z</time>
      </trkpt>
      <trkpt lat="45.96641" lon="1.29367">
        <ele>570.7</ele>
        <time>2024-11-29T13:39:57Z</time>
      </trkpt>
      <trkpt lat="45.96646" lon="1.29365">
        <ele>571</ele>
        <time>2024-11-29T13:39:59Z</time>
      </trkpt>
      <trkpt lat="45.9665" lon="1.29363">
        <ele>571.2</ele>
        <time>2024-11-29T13:40:00Z</time>
      </trkpt>
      <trkpt lat="45.96653" lon="1.29362">
        <ele>571.4</ele>
        <time>2024-11-29T13:40:01Z</time>
      </trkpt>
      <trkpt lat="45.96656" lon="1.29361">
        <ele>571.5</ele>
        <time>2024-11-29T13:40:02Z</time>
      </trkpt>
      <trkpt lat="45.96659" lon="1.2936">
        <ele>571.7</ele>
        <time>2024-11-29T13:40:03Z</time>
      </trkpt>
      <trkpt lat="45.96662" lon="1.29359">
        <ele>571.8</ele>
        <time>2024-11-29T13:40:04Z</time>
      </trkpt>
      <trkpt lat="45.96666" lon="1.29358">
        <ele>572</ele>
        <time>2024-11-29T13:40:06Z</time>
      </trkpt>
      <trkpt lat="45.9667" lon="1.29358">
        <ele>572.1</ele>
        <time>2024-11-29T13:40:08Z</time>
      </trkpt>
      <trkpt lat="45.96674" lon="1.29358">
        <ele>572.3</ele>
        <time>2024-11-29T13:40:09Z</time>
      </trkpt>
      <trkpt lat="45.96677" lon="1.29359">
        <ele>572.4</ele>
        <time>2024-11-29T13:40:10Z</time>
      </trkpt>
      <trkpt lat="45.9668" lon="1.29359">
        <ele>572.5</ele>
        <time>2024-11-29T13:40:11Z</time>
      </trkpt>
      <trkpt lat="45.96684" lon="1.29361">
        <ele>572.7</ele>
        <time>2024-11-29T13:40:12Z</time>
      </trkpt>
      <trkpt lat="45.96687" lon="1.29362">
        <ele>572.9</ele>
        <time>2024-11-29T13:40:13Z</time>
      </trkpt>
      <trkpt lat="45.96689" lon="1.29364">
        <ele>573</ele>
        <time>2024-11-29T13:40:14Z</time>
      </trkpt>
      <trkpt lat="45.96692" lon="1.29366">
        <ele>573.2</ele>
        <time>2024-11-29T13:40:15Z</time>
      </trkpt>
      <trkpt lat="45.96695" lon="1.29368">
        <ele>573.4</ele>
        <time>2024-11-29T13:40:16Z</time>
      </trkpt>
      <trkpt lat="45.96698" lon="1.29371">
        <ele>573.5</ele>
        <time>2024-11-29T13:40:17Z</time>
      </trkpt>
      <trkpt lat="45.967" lon="1.29374">
        <ele>573.7</ele>
        <time>2024-11-29T13:40:18Z</time>
      </trkpt>
      <trkpt lat="45.96703" lon="1.29377">
        <ele>573.9</ele>
        <time>2024-11-29T13:40:19Z</time>
      </trkpt>
      <trkpt lat="45.96706" lon="1.29379">
        <ele>574</ele>
        <time>2024-11-29T13:40:20Z</time>
      </trkpt>
      <trkpt lat="45.96709" lon="1.29383">
        <ele>574.2</ele>
        <time>2024-11-29T13:40:21Z</time>
      </trkpt>
      <trkpt lat="45.96712" lon="1.29385">
        <ele>574.3</ele>
        <time>2024-11-29T13:40:22Z</time>
      </trkpt>
      <trkpt lat="45.96715" lon="1.29388">
        <ele>574.5</ele>
        <time>2024-11-29T13:40:23Z</time>
      </trkpt>
      <trkpt lat="45.96719" lon="1.29391">
        <ele>574.6</ele>
        <time>2024-11-29T13:40:24Z</time>
      </trkpt>
      <trkpt lat="45.96722" lon="1.29394">
        <ele>574.7</ele>
        <time>2024-11-29T13:40:25Z</time>
      </trkpt>
      <trkpt lat="45.96725" lon="1.29397">
        <ele>574.8</ele>
        <time>2024-11-29T13:40:26Z</time>
      </trkpt>
      <trkpt lat="45.96729" lon="1.294">
        <ele>574.9</ele>
        <time>2024-11-29T13:40:27Z</time>
      </trkpt>
      <trkpt lat="45.96732" lon="1.29403">
        <ele>575</ele>
        <time>2024-11-29T13:40:28Z</time>
      </trkpt>
      <trkpt lat="45.96735" lon="1.29406">
        <ele>575</ele>
        <time>2024-11-29T13:40:29Z</time>
      </trkpt>
      <trkpt lat="45.96739" lon="1.2941">
        <ele>575.1</ele>
        <time>2024-11-29T13:40:30Z</time>
      </trkpt>
      <trkpt lat="45.96742" lon="1.29413">
        <ele>575.2</ele>
        <time>2024-11-29T13:40:31Z</time>
      </trkpt>
      <trkpt lat="45.96746" lon="1.29417">
        <ele>575.2</ele>
        <time>2024-11-29T13:40:32Z</time>
      </trkpt>
      <trkpt lat="45.9675" lon="1.2942">
        <ele>575.3</ele>
        <time>2024-11-29T13:40:33Z</time>
      </trkpt>
      <trkpt lat="45.96754" lon="1.29424">
        <ele>575.3</ele>
        <time>2024-11-29T13:40:34Z</time>
      </trkpt>
      <trkpt lat="45.96759" lon="1.29429">
        <ele>575.4</ele>
        <time>2024-11-29T13:40:35Z</time>
      </trkpt>
      <trkpt lat="45.96763" lon="1.29432">
        <ele>575.4</ele>
        <time>2024-11-29T13:40:36Z</time>
      </trkpt>
      <trkpt lat="45.96767" lon="1.29436">
        <ele>575.4</ele>
        <time>2024-11-29T13:40:37Z</time>
      </trkpt>
      <trkpt lat="45.96771" lon="1.29441">
        <ele>575.4</ele>
        <time>2024-11-29T13:40:38Z</time>
      </trkpt>
      <trkpt lat="45.96776" lon="1.29446">
        <ele>575.4</ele>
        <time>2024-11-29T13:40:39Z</time>
      </trkpt>
      <trkpt lat="45.9678" lon="1.29451">
        <ele>575.4</ele>
        <time>2024-11-29T13:40:40Z</time>
      </trkpt>
      <trkpt lat="45.96784" lon="1.29456">
        <ele>575.4</ele>
        <time>2024-11-29T13:40:41Z</time>
      </trkpt>
      <trkpt lat="45.96788" lon="1.29461">
        <ele>575.4</ele>
        <time>2024-11-29T13:40:42Z</time>
      </trkpt>
      <trkpt lat="45.96792" lon="1.29466">
        <ele>575.4</ele>
        <time>2024-11-29T13:40:43Z</time>
      </trkpt>
      <trkpt lat="45.96796" lon="1.29471">
        <ele>575.4</ele>
        <time>2024-11-29T13:40:44Z</time>
      </trkpt>
      <trkpt lat="45.96799" lon="1.29477">
        <ele>575.3</ele>
        <time>2024-11-29T13:40:45Z</time>
      </trkpt>
      <trkpt lat="45.96803" lon="1.29482">
        <ele>575.3</ele>
        <time>2024-11-29T13:40:46Z</time>
      </trkpt>
      <trkpt lat="45.96806" lon="1.29488">
        <ele>575.3</ele>
        <time>2024-11-29T13:40:47Z</time>
      </trkpt>
      <trkpt lat="45.96809" lon="1.29493">
        <ele>575.2</ele>
        <time>2024-11-29T13:40:48Z</time>
      </trkpt>
      <trkpt lat="45.96812" lon="1.29499">
        <ele>575.2</ele>
        <time>2024-11-29T13:40:49Z</time>
      </trkpt>
      <trkpt lat="45.96815" lon="1.29504">
        <ele>575.1</ele>
        <time>2024-11-29T13:40:50Z</time>
      </trkpt>
      <trkpt lat="45.96817" lon="1.2951">
        <ele>575.1</ele>
        <time>2024-11-29T13:40:51Z</time>
      </trkpt>
      <trkpt lat="45.9682" lon="1.29515">
        <ele>575.1</ele>
        <time>2024-11-29T13:40:52Z</time>
      </trkpt>
      <trkpt lat="45.96822" lon="1.29521">
        <ele>575</ele>
        <time>2024-11-29T13:40:53Z</time>
      </trkpt>
      <trkpt lat="45.96824" lon="1.29527">
        <ele>575</ele>
        <time>2024-11-29T13:40:54Z</time>
      </trkpt>
      <trkpt lat="45.96826" lon="1.29533">
        <ele>575</ele>
        <time>2024-11-29T13:40:55Z</time>
      </trkpt>
      <trkpt lat="45.96828" lon="1.29539">
        <ele>575</ele>
        <time>2024-11-29T13:40:56Z</time>
      </trkpt>
      <trkpt lat="45.9683" lon="1.29544">
        <ele>574.9</ele>
        <time>2024-11-29T13:40:57Z</time>
      </trkpt>
      <trkpt lat="45.96831" lon="1.29551">
        <ele>574.8</ele>
        <time>2024-11-29T13:40:58Z</time>
      </trkpt>
      <trkpt lat="45.96833" lon="1.29557">
        <ele>574.7</ele>
        <time>2024-11-29T13:40:59Z</time>
      </trkpt>
      <trkpt lat="45.96834" lon="1.29564">
        <ele>574.6</ele>
        <time>2024-11-29T13:41:00Z</time>
      </trkpt>
      <trkpt lat="45.96835" lon="1.2957">
        <ele>574.5</ele>
        <time>2024-11-29T13:41:01Z</time>
      </trkpt>
      <trkpt lat="45.96836" lon="1.29577">
        <ele>574.2</ele>
        <time>2024-11-29T13:41:02Z</time>
      </trkpt>
      <trkpt lat="45.96837" lon="1.29583">
        <ele>574</ele>
        <time>2024-11-29T13:41:03Z</time>
      </trkpt>
      <trkpt lat="45.96838" lon="1.2959">
        <ele>573.7</ele>
        <time>2024-11-29T13:41:04Z</time>
      </trkpt>
      <trkpt lat="45.9684" lon="1.29597">
        <ele>573.3</ele>
        <time>2024-11-29T13:41:05Z</time>
      </trkpt>
      <trkpt lat="45.96841" lon="1.29605">
        <ele>572.9</ele>
        <time>2024-11-29T13:41:06Z</time>
      </trkpt>
      <trkpt lat="45.96842" lon="1.29612">
        <ele>572.5</ele>
        <time>2024-11-29T13:41:07Z</time>
      </trkpt>
      <trkpt lat="45.96844" lon="1.2962">
        <ele>572.1</ele>
        <time>2024-11-29T13:41:08Z</time>
      </trkpt>
      <trkpt lat="45.96847" lon="1.29628">
        <ele>571.6</ele>
        <time>2024-11-29T13:41:09Z</time>
      </trkpt>
      <trkpt lat="45.9685" lon="1.29635">
        <ele>571.2</ele>
        <time>2024-11-29T13:41:10Z</time>
      </trkpt>
      <trkpt lat="45.96854" lon="1.29643">
        <ele>570.7</ele>
        <time>2024-11-29T13:41:11Z</time>
      </trkpt>
      <trkpt lat="45.96858" lon="1.29649">
        <ele>570.4</ele>
        <time>2024-11-29T13:41:12Z</time>
      </trkpt>
      <trkpt lat="45.96862" lon="1.29655">
        <ele>570.1</ele>
        <time>2024-11-29T13:41:13Z</time>
      </trkpt>
      <trkpt lat="45.96867" lon="1.2966">
        <ele>569.8</ele>
        <time>2024-11-29T13:41:14Z</time>
      </trkpt>
      <trkpt lat="45.96872" lon="1.29664">
        <ele>569.5</ele>
        <time>2024-11-29T13:41:15Z</time>
      </trkpt>
      <trkpt lat="45.96878" lon="1.29668">
        <ele>569.2</ele>
        <time>2024-11-29T13:41:16Z</time>
      </trkpt>
      <trkpt lat="45.96884" lon="1.29671">
        <ele>569</ele>
        <time>2024-11-29T13:41:17Z</time>
      </trkpt>
      <trkpt lat="45.9689" lon="1.29673">
        <ele>568.7</ele>
        <time>2024-11-29T13:41:18Z</time>
      </trkpt>
      <trkpt lat="45.96896" lon="1.29675">
        <ele>568.5</ele>
        <time>2024-11-29T13:41:19Z</time>
      </trkpt>
      <trkpt lat="45.96902" lon="1.29677">
        <ele>568.2</ele>
        <time>2024-11-29T13:41:20Z</time>
      </trkpt>
      <trkpt lat="45.96908" lon="1.29678">
        <ele>568</ele>
        <time>2024-11-29T13:41:21Z</time>
      </trkpt>
      <trkpt lat="45.96914" lon="1.29681">
        <ele>567.8</ele>
        <time>2024-11-29T13:41:22Z</time>
      </trkpt>
      <trkpt lat="45.9692" lon="1.29683">
        <ele>567.6</ele>
        <time>2024-11-29T13:41:23Z</time>
      </trkpt>
      <trkpt lat="45.96925" lon="1.29684">
        <ele>567.4</ele>
        <time>2024-11-29T13:41:24Z</time>
      </trkpt>
      <trkpt lat="45.9693" lon="1.29684">
        <ele>567.3</ele>
        <time>2024-11-29T13:41:25Z</time>
      </trkpt>
      <trkpt lat="45.96935" lon="1.29683">
        <ele>566.7</ele>
        <time>2024-11-29T13:41:26Z</time>
      </trkpt>
      <trkpt lat="45.9694" lon="1.29682">
        <ele>566.1</ele>
        <time>2024-11-29T13:41:27Z</time>
      </trkpt>
      <trkpt lat="45.96945" lon="1.29681">
        <ele>565.4</ele>
        <time>2024-11-29T13:41:28Z</time>
      </trkpt>
      <trkpt lat="45.96951" lon="1.2968">
        <ele>564.6</ele>
        <time>2024-11-29T13:41:29Z</time>
      </trkpt>
      <trkpt lat="45.96956" lon="1.2968">
        <ele>564</ele>
        <time>2024-11-29T13:41:30Z</time>
      </trkpt>
      <trkpt lat="45.9696" lon="1.29679">
        <ele>563.4</ele>
        <time>2024-11-29T13:41:31Z</time>
      </trkpt>
      <trkpt lat="45.96965" lon="1.29679">
        <ele>562.8</ele>
        <time>2024-11-29T13:41:32Z</time>
      </trkpt>
      <trkpt lat="45.96971" lon="1.29679">
        <ele>561.9</ele>
        <time>2024-11-29T13:41:34Z</time>
      </trkpt>
      <trkpt lat="45.96976" lon="1.29677">
        <ele>561.2</ele>
        <time>2024-11-29T13:41:35Z</time>
      </trkpt>
      <trkpt lat="45.96981" lon="1.29675">
        <ele>560.4</ele>
        <time>2024-11-29T13:41:36Z</time>
      </trkpt>
      <trkpt lat="45.96987" lon="1.29673">
        <ele>559.6</ele>
        <time>2024-11-29T13:41:37Z</time>
      </trkpt>
      <trkpt lat="45.96992" lon="1.2967">
        <ele>558.9</ele>
        <time>2024-11-29T13:41:38Z</time>
      </trkpt>
      <trkpt lat="45.96997" lon="1.29669">
        <ele>558.3</ele>
        <time>2024-11-29T13:41:39Z</time>
      </trkpt>
      <trkpt lat="45.97002" lon="1.29667">
        <ele>557.7</ele>
        <time>2024-11-29T13:41:40Z</time>
      </trkpt>
      <trkpt lat="45.97008" lon="1.29666">
        <ele>557</ele>
        <time>2024-11-29T13:41:41Z</time>
      </trkpt>
      <trkpt lat="45.97013" lon="1.29663">
        <ele>556.4</ele>
        <time>2024-11-29T13:41:42Z</time>
      </trkpt>
      <trkpt lat="45.97018" lon="1.29659">
        <ele>555.8</ele>
        <time>2024-11-29T13:41:43Z</time>
      </trkpt>
      <trkpt lat="45.97024" lon="1.29656">
        <ele>555.1</ele>
        <time>2024-11-29T13:41:44Z</time>
      </trkpt>
      <trkpt lat="45.97029" lon="1.29654">
        <ele>554.5</ele>
        <time>2024-11-29T13:41:45Z</time>
      </trkpt>
      <trkpt lat="45.97033" lon="1.29651">
        <ele>554</ele>
        <time>2024-11-29T13:41:46Z</time>
      </trkpt>
      <trkpt lat="45.97039" lon="1.29648">
        <ele>553.2</ele>
        <time>2024-11-29T13:41:47Z</time>
      </trkpt>
      <trkpt lat="45.97045" lon="1.29645">
        <ele>552.4</ele>
        <time>2024-11-29T13:41:48Z</time>
      </trkpt>
      <trkpt lat="45.97051" lon="1.29642">
        <ele>551.7</ele>
        <time>2024-11-29T13:41:49Z</time>
      </trkpt>
      <trkpt lat="45.97057" lon="1.29638">
        <ele>550.9</ele>
        <time>2024-11-29T13:41:50Z</time>
      </trkpt>
      <trkpt lat="45.97064" lon="1.29635">
        <ele>550.2</ele>
        <time>2024-11-29T13:41:51Z</time>
      </trkpt>
      <trkpt lat="45.97069" lon="1.29633">
        <ele>549.6</ele>
        <time>2024-11-29T13:41:52Z</time>
      </trkpt>
      <trkpt lat="45.97075" lon="1.29631">
        <ele>549</ele>
        <time>2024-11-29T13:41:53Z</time>
      </trkpt>
      <trkpt lat="45.9708" lon="1.29631">
        <ele>548.5</ele>
        <time>2024-11-29T13:41:54Z</time>
      </trkpt>
      <trkpt lat="45.97085" lon="1.29629">
        <ele>547.9</ele>
        <time>2024-11-29T13:41:55Z</time>
      </trkpt>
      <trkpt lat="45.9709" lon="1.29627">
        <ele>547.3</ele>
        <time>2024-11-29T13:41:56Z</time>
      </trkpt>
      <trkpt lat="45.97094" lon="1.29626">
        <ele>546.7</ele>
        <time>2024-11-29T13:41:57Z</time>
      </trkpt>
      <trkpt lat="45.97098" lon="1.29625">
        <ele>546.2</ele>
        <time>2024-11-29T13:41:58Z</time>
      </trkpt>
      <trkpt lat="45.97102" lon="1.29626">
        <ele>545.7</ele>
        <time>2024-11-29T13:41:59Z</time>
      </trkpt>
      <trkpt lat="45.97106" lon="1.29624">
        <ele>545.1</ele>
        <time>2024-11-29T13:42:00Z</time>
      </trkpt>
      <trkpt lat="45.97111" lon="1.29624">
        <ele>544.4</ele>
        <time>2024-11-29T13:42:01Z</time>
      </trkpt>
      <trkpt lat="45.97116" lon="1.29626">
        <ele>543.7</ele>
        <time>2024-11-29T13:42:02Z</time>
      </trkpt>
      <trkpt lat="45.9712" lon="1.29626">
        <ele>543.1</ele>
        <time>2024-11-29T13:42:03Z</time>
      </trkpt>
      <trkpt lat="45.97124" lon="1.29629">
        <ele>542.6</ele>
        <time>2024-11-29T13:42:04Z</time>
      </trkpt>
      <trkpt lat="45.9713" lon="1.2963">
        <ele>541.9</ele>
        <time>2024-11-29T13:42:05Z</time>
      </trkpt>
      <trkpt lat="45.97135" lon="1.29632">
        <ele>541.3</ele>
        <time>2024-11-29T13:42:06Z</time>
      </trkpt>
      <trkpt lat="45.97139" lon="1.29636">
        <ele>540.8</ele>
        <time>2024-11-29T13:42:07Z</time>
      </trkpt>
      <trkpt lat="45.97142" lon="1.2964">
        <ele>540.4</ele>
        <time>2024-11-29T13:42:08Z</time>
      </trkpt>
      <trkpt lat="45.97146" lon="1.29647">
        <ele>539.9</ele>
        <time>2024-11-29T13:42:09Z</time>
      </trkpt>
      <trkpt lat="45.97151" lon="1.29652">
        <ele>539.5</ele>
        <time>2024-11-29T13:42:10Z</time>
      </trkpt>
      <trkpt lat="45.97156" lon="1.29655">
        <ele>539.1</ele>
        <time>2024-11-29T13:42:11Z</time>
      </trkpt>
      <trkpt lat="45.97162" lon="1.29658">
        <ele>538.6</ele>
        <time>2024-11-29T13:42:12Z</time>
      </trkpt>
      <trkpt lat="45.97166" lon="1.2966">
        <ele>538.4</ele>
        <time>2024-11-29T13:42:13Z</time>
      </trkpt>
      <trkpt lat="45.97171" lon="1.2966">
        <ele>538.1</ele>
        <time>2024-11-29T13:42:14Z</time>
      </trkpt>
      <trkpt lat="45.97177" lon="1.29658">
        <ele>537.7</ele>
        <time>2024-11-29T13:42:15Z</time>
      </trkpt>
      <trkpt lat="45.97182" lon="1.29657">
        <ele>537.4</ele>
        <time>2024-11-29T13:42:16Z</time>
      </trkpt>
      <trkpt lat="45.97188" lon="1.29657">
        <ele>537.1</ele>
        <time>2024-11-29T13:42:17Z</time>
      </trkpt>
      <trkpt lat="45.97194" lon="1.29656">
        <ele>536.7</ele>
        <time>2024-11-29T13:42:18Z</time>
      </trkpt>
      <trkpt lat="45.972" lon="1.29654">
        <ele>536.4</ele>
        <time>2024-11-29T13:42:19Z</time>
      </trkpt>
      <trkpt lat="45.97206" lon="1.29653">
        <ele>536</ele>
        <time>2024-11-29T13:42:20Z</time>
      </trkpt>
      <trkpt lat="45.97211" lon="1.29652">
        <ele>535.8</ele>
        <time>2024-11-29T13:42:21Z</time>
      </trkpt>
      <trkpt lat="45.97216" lon="1.29652">
        <ele>535.6</ele>
        <time>2024-11-29T13:42:22Z</time>
      </trkpt>
      <trkpt lat="45.97222" lon="1.29652">
        <ele>535.5</ele>
        <time>2024-11-29T13:42:23Z</time>
      </trkpt>
      <trkpt lat="45.97227" lon="1.29652">
        <ele>535.5</ele>
        <time>2024-11-29T13:42:24Z</time>
      </trkpt>
      <trkpt lat="45.97231" lon="1.29653">
        <ele>535.4</ele>
        <time>2024-11-29T13:42:25Z</time>
      </trkpt>
      <trkpt lat="45.97236" lon="1.29653">
        <ele>535.5</ele>
        <time>2024-11-29T13:42:26Z</time>
      </trkpt>
      <trkpt lat="45.9724" lon="1.29653">
        <ele>535.5</ele>
        <time>2024-11-29T13:42:27Z</time>
      </trkpt>
      <trkpt lat="45.97244" lon="1.29653">
        <ele>535.5</ele>
        <time>2024-11-29T13:42:28Z</time>
      </trkpt>
      <trkpt lat="45.97248" lon="1.29653">
        <ele>535.6</ele>
        <time>2024-11-29T13:42:29Z</time>
      </trkpt>
      <trkpt lat="45.97251" lon="1.29653">
        <ele>535.6</ele>
        <time>2024-11-29T13:42:31Z</time>
      </trkpt>
      <trkpt lat="45.97252" lon="1.2965">
        <ele>535</ele>
        <time>2024-11-29T13:42:35Z</time>
      </trkpt>
      <trkpt lat="45.97251" lon="1.29648">
        <ele>534.7</ele>
        <time>2024-11-29T13:42:42Z</time>
      </trkpt>
      <trkpt lat="45.97247" lon="1.29645">
        <ele>533.9</ele>
        <time>2024-11-29T13:42:44Z</time>
      </trkpt>
      <trkpt lat="45.97244" lon="1.29643">
        <ele>533.2</ele>
        <time>2024-11-29T13:42:45Z</time>
      </trkpt>
      <trkpt lat="45.97241" lon="1.29641">
        <ele>532.5</ele>
        <time>2024-11-29T13:42:46Z</time>
      </trkpt>
      <trkpt lat="45.97238" lon="1.29639">
        <ele>531.8</ele>
        <time>2024-11-29T13:42:48Z</time>
      </trkpt>
      <trkpt lat="45.97235" lon="1.29637">
        <ele>531.1</ele>
        <time>2024-11-29T13:42:50Z</time>
      </trkpt>
      <trkpt lat="45.97231" lon="1.29634">
        <ele>530.1</ele>
        <time>2024-11-29T13:42:52Z</time>
      </trkpt>
      <trkpt lat="45.97227" lon="1.2963">
        <ele>529</ele>
        <time>2024-11-29T13:42:54Z</time>
      </trkpt>
      <trkpt lat="45.97224" lon="1.29627">
        <ele>528.3</ele>
        <time>2024-11-29T13:42:55Z</time>
      </trkpt>
      <trkpt lat="45.9722" lon="1.29623">
        <ele>527.3</ele>
        <time>2024-11-29T13:42:56Z</time>
      </trkpt>
      <trkpt lat="45.97218" lon="1.29619">
        <ele>526.6</ele>
        <time>2024-11-29T13:42:57Z</time>
      </trkpt>
      <trkpt lat="45.97215" lon="1.29614">
        <ele>525.8</ele>
        <time>2024-11-29T13:42:58Z</time>
      </trkpt>
      <trkpt lat="45.97212" lon="1.29606">
        <ele>524.8</ele>
        <time>2024-11-29T13:42:59Z</time>
      </trkpt>
      <trkpt lat="45.97209" lon="1.29598">
        <ele>523.8</ele>
        <time>2024-11-29T13:43:00Z</time>
      </trkpt>
      <trkpt lat="45.97207" lon="1.29592">
        <ele>523.2</ele>
        <time>2024-11-29T13:43:01Z</time>
      </trkpt>
      <trkpt lat="45.97205" lon="1.29586">
        <ele>522.7</ele>
        <time>2024-11-29T13:43:02Z</time>
      </trkpt>
      <trkpt lat="45.972" lon="1.2958">
        <ele>522</ele>
        <time>2024-11-29T13:43:04Z</time>
      </trkpt>
      <trkpt lat="45.97197" lon="1.29578">
        <ele>521.7</ele>
        <time>2024-11-29T13:43:05Z</time>
      </trkpt>
      <trkpt lat="45.97193" lon="1.29576">
        <ele>521.2</ele>
        <time>2024-11-29T13:43:06Z</time>
      </trkpt>
      <trkpt lat="45.97188" lon="1.29574">
        <ele>520.7</ele>
        <time>2024-11-29T13:43:08Z</time>
      </trkpt>
      <trkpt lat="45.97185" lon="1.29572">
        <ele>520.3</ele>
        <time>2024-11-29T13:43:09Z</time>
      </trkpt>
      <trkpt lat="45.97181" lon="1.29568">
        <ele>519.7</ele>
        <time>2024-11-29T13:43:10Z</time>
      </trkpt>
      <trkpt lat="45.97177" lon="1.29561">
        <ele>519</ele>
        <time>2024-11-29T13:43:11Z</time>
      </trkpt>
      <trkpt lat="45.97173" lon="1.29554">
        <ele>518.2</ele>
        <time>2024-11-29T13:43:12Z</time>
      </trkpt>
      <trkpt lat="45.97169" lon="1.29548">
        <ele>517.6</ele>
        <time>2024-11-29T13:43:13Z</time>
      </trkpt>
      <trkpt lat="45.97166" lon="1.29543">
        <ele>517.1</ele>
        <time>2024-11-29T13:43:14Z</time>
      </trkpt>
      <trkpt lat="45.97163" lon="1.29539">
        <ele>516.6</ele>
        <time>2024-11-29T13:43:15Z</time>
      </trkpt>
      <trkpt lat="45.97159" lon="1.29533">
        <ele>516.1</ele>
        <time>2024-11-29T13:43:16Z</time>
      </trkpt>
      <trkpt lat="45.97155" lon="1.29527">
        <ele>515.6</ele>
        <time>2024-11-29T13:43:17Z</time>
      </trkpt>
      <trkpt lat="45.97152" lon="1.29523">
        <ele>515.3</ele>
        <time>2024-11-29T13:43:18Z</time>
      </trkpt>
      <trkpt lat="45.97148" lon="1.29519">
        <ele>515</ele>
        <time>2024-11-29T13:43:19Z</time>
      </trkpt>
      <trkpt lat="45.97142" lon="1.29515">
        <ele>514.7</ele>
        <time>2024-11-29T13:43:20Z</time>
      </trkpt>
      <trkpt lat="45.97138" lon="1.2951">
        <ele>514.4</ele>
        <time>2024-11-29T13:43:21Z</time>
      </trkpt>
      <trkpt lat="45.97133" lon="1.29506">
        <ele>514.2</ele>
        <time>2024-11-29T13:43:22Z</time>
      </trkpt>
      <trkpt lat="45.97128" lon="1.29503">
        <ele>514.1</ele>
        <time>2024-11-29T13:43:23Z</time>
      </trkpt>
      <trkpt lat="45.97124" lon="1.29499">
        <ele>513.9</ele>
        <time>2024-11-29T13:43:24Z</time>
      </trkpt>
      <trkpt lat="45.97119" lon="1.29495">
        <ele>513.8</ele>
        <time>2024-11-29T13:43:25Z</time>
      </trkpt>
      <trkpt lat="45.97115" lon="1.2949">
        <ele>513.7</ele>
        <time>2024-11-29T13:43:26Z</time>
      </trkpt>
      <trkpt lat="45.97112" lon="1.29484">
        <ele>513.6</ele>
        <time>2024-11-29T13:43:27Z</time>
      </trkpt>
      <trkpt lat="45.97109" lon="1.2948">
        <ele>513.6</ele>
        <time>2024-11-29T13:43:28Z</time>
      </trkpt>
      <trkpt lat="45.97107" lon="1.29476">
        <ele>513.5</ele>
        <time>2024-11-29T13:43:29Z</time>
      </trkpt>
      <trkpt lat="45.97104" lon="1.29472">
        <ele>513.5</ele>
        <time>2024-11-29T13:43:30Z</time>
      </trkpt>
      <trkpt lat="45.97101" lon="1.29466">
        <ele>513.4</ele>
        <time>2024-11-29T13:43:31Z</time>
      </trkpt>
      <trkpt lat="45.971" lon="1.2946">
        <ele>513.4</ele>
        <time>2024-11-29T13:43:32Z</time>
      </trkpt>
      <trkpt lat="45.97099" lon="1.29453">
        <ele>513.3</ele>
        <time>2024-11-29T13:43:33Z</time>
      </trkpt>
      <trkpt lat="45.97097" lon="1.29446">
        <ele>513.3</ele>
        <time>2024-11-29T13:43:34Z</time>
      </trkpt>
      <trkpt lat="45.97096" lon="1.29439">
        <ele>513.2</ele>
        <time>2024-11-29T13:43:35Z</time>
      </trkpt>
      <trkpt lat="45.97094" lon="1.29433">
        <ele>513</ele>
        <time>2024-11-29T13:43:36Z</time>
      </trkpt>
      <trkpt lat="45.97092" lon="1.29427">
        <ele>512.7</ele>
        <time>2024-11-29T13:43:37Z</time>
      </trkpt>
      <trkpt lat="45.97089" lon="1.29421">
        <ele>512.2</ele>
        <time>2024-11-29T13:43:38Z</time>
      </trkpt>
      <trkpt lat="45.97086" lon="1.29414">
        <ele>511.6</ele>
        <time>2024-11-29T13:43:39Z</time>
      </trkpt>
      <trkpt lat="45.97084" lon="1.29406">
        <ele>510.9</ele>
        <time>2024-11-29T13:43:40Z</time>
      </trkpt>
      <trkpt lat="45.97082" lon="1.29399">
        <ele>510.3</ele>
        <time>2024-11-29T13:43:41Z</time>
      </trkpt>
      <trkpt lat="45.97079" lon="1.29392">
        <ele>509.7</ele>
        <time>2024-11-29T13:43:42Z</time>
      </trkpt>
      <trkpt lat="45.97077" lon="1.29385">
        <ele>509.1</ele>
        <time>2024-11-29T13:43:43Z</time>
      </trkpt>
      <trkpt lat="45.97075" lon="1.29378">
        <ele>508.6</ele>
        <time>2024-11-29T13:43:44Z</time>
      </trkpt>
      <trkpt lat="45.97073" lon="1.29371">
        <ele>508.1</ele>
        <time>2024-11-29T13:43:45Z</time>
      </trkpt>
      <trkpt lat="45.9707" lon="1.29365">
        <ele>507.7</ele>
        <time>2024-11-29T13:43:46Z</time>
      </trkpt>
      <trkpt lat="45.97067" lon="1.29359">
        <ele>507.2</ele>
        <time>2024-11-29T13:43:47Z</time>
      </trkpt>
      <trkpt lat="45.97064" lon="1.29354">
        <ele>507</ele>
        <time>2024-11-29T13:43:48Z</time>
      </trkpt>
      <trkpt lat="45.9706" lon="1.29348">
        <ele>506.7</ele>
        <time>2024-11-29T13:43:49Z</time>
      </trkpt>
      <trkpt lat="45.97056" lon="1.29343">
        <ele>506.4</ele>
        <time>2024-11-29T13:43:50Z</time>
      </trkpt>
      <trkpt lat="45.97052" lon="1.29337">
        <ele>506</ele>
        <time>2024-11-29T13:43:51Z</time>
      </trkpt>
      <trkpt lat="45.97048" lon="1.29331">
        <ele>505.7</ele>
        <time>2024-11-29T13:43:52Z</time>
      </trkpt>
      <trkpt lat="45.97043" lon="1.29324">
        <ele>505.3</ele>
        <time>2024-11-29T13:43:53Z</time>
      </trkpt>
      <trkpt lat="45.97037" lon="1.29318">
        <ele>504.8</ele>
        <time>2024-11-29T13:43:54Z</time>
      </trkpt>
      <trkpt lat="45.97032" lon="1.29311">
        <ele>504.3</ele>
        <time>2024-11-29T13:43:55Z</time>
      </trkpt>
      <trkpt lat="45.97029" lon="1.29305">
        <ele>503.9</ele>
        <time>2024-11-29T13:43:56Z</time>
      </trkpt>
      <trkpt lat="45.97026" lon="1.29299">
        <ele>503.6</ele>
        <time>2024-11-29T13:43:57Z</time>
      </trkpt>
      <trkpt lat="45.97023" lon="1.29293">
        <ele>503.3</ele>
        <time>2024-11-29T13:43:58Z</time>
      </trkpt>
      <trkpt lat="45.9702" lon="1.29287">
        <ele>502.9</ele>
        <time>2024-11-29T13:43:59Z</time>
      </trkpt>
      <trkpt lat="45.97017" lon="1.29281">
        <ele>502.7</ele>
        <time>2024-11-29T13:44:00Z</time>
      </trkpt>
      <trkpt lat="45.97014" lon="1.29275">
        <ele>502.4</ele>
        <time>2024-11-29T13:44:01Z</time>
      </trkpt>
      <trkpt lat="45.97012" lon="1.29269">
        <ele>502.2</ele>
        <time>2024-11-29T13:44:02Z</time>
      </trkpt>
      <trkpt lat="45.97008" lon="1.29262">
        <ele>502</ele>
        <time>2024-11-29T13:44:03Z</time>
      </trkpt>
      <trkpt lat="45.97004" lon="1.29258">
        <ele>501.9</ele>
        <time>2024-11-29T13:44:04Z</time>
      </trkpt>
      <trkpt lat="45.97" lon="1.29254">
        <ele>501.8</ele>
        <time>2024-11-29T13:44:05Z</time>
      </trkpt>
      <trkpt lat="45.96997" lon="1.2925">
        <ele>501.7</ele>
        <time>2024-11-29T13:44:06Z</time>
      </trkpt>
      <trkpt lat="45.96992" lon="1.29248">
        <ele>501.6</ele>
        <time>2024-11-29T13:44:07Z</time>
      </trkpt>
      <trkpt lat="45.96988" lon="1.29245">
        <ele>501.6</ele>
        <time>2024-11-29T13:44:08Z</time>
      </trkpt>
      <trkpt lat="45.96985" lon="1.29239">
        <ele>501.6</ele>
        <time>2024-11-29T13:44:09Z</time>
      </trkpt>
      <trkpt lat="45.96982" lon="1.29235">
        <ele>501.6</ele>
        <time>2024-11-29T13:44:10Z</time>
      </trkpt>
      <trkpt lat="45.9698" lon="1.29231">
        <ele>501.6</ele>
        <time>2024-11-29T13:44:11Z</time>
      </trkpt>
      <trkpt lat="45.96976" lon="1.29228">
        <ele>501.6</ele>
        <time>2024-11-29T13:44:12Z</time>
      </trkpt>
      <trkpt lat="45.96973" lon="1.29224">
        <ele>501.7</ele>
        <time>2024-11-29T13:44:13Z</time>
      </trkpt>
      <trkpt lat="45.9697" lon="1.2922">
        <ele>501.8</ele>
        <time>2024-11-29T13:44:14Z</time>
      </trkpt>
      <trkpt lat="45.96967" lon="1.29214">
        <ele>501.9</ele>
        <time>2024-11-29T13:44:15Z</time>
      </trkpt>
      <trkpt lat="45.96964" lon="1.29209">
        <ele>502</ele>
        <time>2024-11-29T13:44:16Z</time>
      </trkpt>
      <trkpt lat="45.96961" lon="1.29204">
        <ele>502.2</ele>
        <time>2024-11-29T13:44:17Z</time>
      </trkpt>
      <trkpt lat="45.96959" lon="1.29199">
        <ele>502.3</ele>
        <time>2024-11-29T13:44:18Z</time>
      </trkpt>
      <trkpt lat="45.96959" lon="1.29193">
        <ele>502.5</ele>
        <time>2024-11-29T13:44:19Z</time>
      </trkpt>
      <trkpt lat="45.9696" lon="1.29187">
        <ele>502.6</ele>
        <time>2024-11-29T13:44:20Z</time>
      </trkpt>
      <trkpt lat="45.96961" lon="1.2918">
        <ele>502.7</ele>
        <time>2024-11-29T13:44:21Z</time>
      </trkpt>
      <trkpt lat="45.96962" lon="1.29172">
        <ele>502.7</ele>
        <time>2024-11-29T13:44:22Z</time>
      </trkpt>
      <trkpt lat="45.9696" lon="1.29165">
        <ele>502.6</ele>
        <time>2024-11-29T13:44:23Z</time>
      </trkpt>
      <trkpt lat="45.96957" lon="1.29159">
        <ele>502.5</ele>
        <time>2024-11-29T13:44:24Z</time>
      </trkpt>
      <trkpt lat="45.96956" lon="1.29151">
        <ele>502.4</ele>
        <time>2024-11-29T13:44:25Z</time>
      </trkpt>
      <trkpt lat="45.96953" lon="1.29144">
        <ele>502.2</ele>
        <time>2024-11-29T13:44:26Z</time>
      </trkpt>
      <trkpt lat="45.96952" lon="1.29135">
        <ele>502</ele>
        <time>2024-11-29T13:44:27Z</time>
      </trkpt>
      <trkpt lat="45.9695" lon="1.29127">
        <ele>501.8</ele>
        <time>2024-11-29T13:44:28Z</time>
      </trkpt>
      <trkpt lat="45.96949" lon="1.2912">
        <ele>501.7</ele>
        <time>2024-11-29T13:44:29Z</time>
      </trkpt>
      <trkpt lat="45.96949" lon="1.29112">
        <ele>501.6</ele>
        <time>2024-11-29T13:44:30Z</time>
      </trkpt>
      <trkpt lat="45.96948" lon="1.29103">
        <ele>501.5</ele>
        <time>2024-11-29T13:44:31Z</time>
      </trkpt>
      <trkpt lat="45.96947" lon="1.29096">
        <ele>501.3</ele>
        <time>2024-11-29T13:44:32Z</time>
      </trkpt>
      <trkpt lat="45.96945" lon="1.2909">
        <ele>501.2</ele>
        <time>2024-11-29T13:44:33Z</time>
      </trkpt>
      <trkpt lat="45.96942" lon="1.29083">
        <ele>501.1</ele>
        <time>2024-11-29T13:44:34Z</time>
      </trkpt>
      <trkpt lat="45.96939" lon="1.29078">
        <ele>500.9</ele>
        <time>2024-11-29T13:44:35Z</time>
      </trkpt>
      <trkpt lat="45.96935" lon="1.29073">
        <ele>500.7</ele>
        <time>2024-11-29T13:44:36Z</time>
      </trkpt>
      <trkpt lat="45.9693" lon="1.29068">
        <ele>500.6</ele>
        <time>2024-11-29T13:44:37Z</time>
      </trkpt>
      <trkpt lat="45.96925" lon="1.29063">
        <ele>500.4</ele>
        <time>2024-11-29T13:44:38Z</time>
      </trkpt>
      <trkpt lat="45.96921" lon="1.29059">
        <ele>500.4</ele>
        <time>2024-11-29T13:44:39Z</time>
      </trkpt>
      <trkpt lat="45.96916" lon="1.29056">
        <ele>500.3</ele>
        <time>2024-11-29T13:44:40Z</time>
      </trkpt>
      <trkpt lat="45.96911" lon="1.29051">
        <ele>500.3</ele>
        <time>2024-11-29T13:44:41Z</time>
      </trkpt>
      <trkpt lat="45.96906" lon="1.29045">
        <ele>500.4</ele>
        <time>2024-11-29T13:44:42Z</time>
      </trkpt>
      <trkpt lat="45.96902" lon="1.29042">
        <ele>500.5</ele>
        <time>2024-11-29T13:44:43Z</time>
      </trkpt>
      <trkpt lat="45.96895" lon="1.29038">
        <ele>500.6</ele>
        <time>2024-11-29T13:44:44Z</time>
      </trkpt>
      <trkpt lat="45.96891" lon="1.29033">
        <ele>500.7</ele>
        <time>2024-11-29T13:44:45Z</time>
      </trkpt>
      <trkpt lat="45.96887" lon="1.29029">
        <ele>500.8</ele>
        <time>2024-11-29T13:44:46Z</time>
      </trkpt>
      <trkpt lat="45.96883" lon="1.29023">
        <ele>500.9</ele>
        <time>2024-11-29T13:44:47Z</time>
      </trkpt>
      <trkpt lat="45.9688" lon="1.29017">
        <ele>501.1</ele>
        <time>2024-11-29T13:44:48Z</time>
      </trkpt>
      <trkpt lat="45.96878" lon="1.2901">
        <ele>501.3</ele>
        <time>2024-11-29T13:44:49Z</time>
      </trkpt>
      <trkpt lat="45.96878" lon="1.29004">
        <ele>501.5</ele>
        <time>2024-11-29T13:44:50Z</time>
      </trkpt>
      <trkpt lat="45.9688" lon="1.28999">
        <ele>501.7</ele>
        <time>2024-11-29T13:44:51Z</time>
      </trkpt>
      <trkpt lat="45.96882" lon="1.28995">
        <ele>501.9</ele>
        <time>2024-11-29T13:44:52Z</time>
      </trkpt>
      <trkpt lat="45.96885" lon="1.28992">
        <ele>502.1</ele>
        <time>2024-11-29T13:44:53Z</time>
      </trkpt>
      <trkpt lat="45.96887" lon="1.28989">
        <ele>502.3</ele>
        <time>2024-11-29T13:44:54Z</time>
      </trkpt>
      <trkpt lat="45.9689" lon="1.28985">
        <ele>502.6</ele>
        <time>2024-11-29T13:44:55Z</time>
      </trkpt>
      <trkpt lat="45.96895" lon="1.28981">
        <ele>503</ele>
        <time>2024-11-29T13:44:57Z</time>
      </trkpt>
      <trkpt lat="45.96898" lon="1.28978">
        <ele>503.2</ele>
        <time>2024-11-29T13:44:58Z</time>
      </trkpt>
      <trkpt lat="45.96901" lon="1.28976">
        <ele>503.5</ele>
        <time>2024-11-29T13:44:59Z</time>
      </trkpt>
      <trkpt lat="45.96904" lon="1.28973">
        <ele>503.8</ele>
        <time>2024-11-29T13:45:00Z</time>
      </trkpt>
      <trkpt lat="45.96907" lon="1.28971">
        <ele>504.1</ele>
        <time>2024-11-29T13:45:01Z</time>
      </trkpt>
      <trkpt lat="45.9691" lon="1.28969">
        <ele>504.4</ele>
        <time>2024-11-29T13:45:02Z</time>
      </trkpt>
      <trkpt lat="45.96913" lon="1.28966">
        <ele>504.7</ele>
        <time>2024-11-29T13:45:03Z</time>
      </trkpt>
      <trkpt lat="45.96915" lon="1.28963">
        <ele>505</ele>
        <time>2024-11-29T13:45:04Z</time>
      </trkpt>
      <trkpt lat="45.96917" lon="1.2896">
        <ele>505.3</ele>
        <time>2024-11-29T13:45:05Z</time>
      </trkpt>
      <trkpt lat="45.96919" lon="1.28956">
        <ele>505.6</ele>
        <time>2024-11-29T13:45:06Z</time>
      </trkpt>
      <trkpt lat="45.9692" lon="1.28951">
        <ele>506</ele>
        <time>2024-11-29T13:45:07Z</time>
      </trkpt>
      <trkpt lat="45.96922" lon="1.28947">
        <ele>506.3</ele>
        <time>2024-11-29T13:45:08Z</time>
      </trkpt>
      <trkpt lat="45.96922" lon="1.28941">
        <ele>506.8</ele>
        <time>2024-11-29T13:45:09Z</time>
      </trkpt>
      <trkpt lat="45.96923" lon="1.28936">
        <ele>507.1</ele>
        <time>2024-11-29T13:45:10Z</time>
      </trkpt>
      <trkpt lat="45.96924" lon="1.28929">
        <ele>507.6</ele>
        <time>2024-11-29T13:45:11Z</time>
      </trkpt>
      <trkpt lat="45.96925" lon="1.28924">
        <ele>507.9</ele>
        <time>2024-11-29T13:45:12Z</time>
      </trkpt>
      <trkpt lat="45.96925" lon="1.28918">
        <ele>508.2</ele>
        <time>2024-11-29T13:45:13Z</time>
      </trkpt>
      <trkpt lat="45.96926" lon="1.28912">
        <ele>508.5</ele>
        <time>2024-11-29T13:45:14Z</time>
      </trkpt>
      <trkpt lat="45.96927" lon="1.28906">
        <ele>508.8</ele>
        <time>2024-11-29T13:45:15Z</time>
      </trkpt>
      <trkpt lat="45.96927" lon="1.28901">
        <ele>509</ele>
        <time>2024-11-29T13:45:16Z</time>
      </trkpt>
      <trkpt lat="45.96928" lon="1.28895">
        <ele>509.2</ele>
        <time>2024-11-29T13:45:17Z</time>
      </trkpt>
      <trkpt lat="45.96928" lon="1.28889">
        <ele>509.4</ele>
        <time>2024-11-29T13:45:18Z</time>
      </trkpt>
      <trkpt lat="45.96929" lon="1.28883">
        <ele>509.6</ele>
        <time>2024-11-29T13:45:19Z</time>
      </trkpt>
      <trkpt lat="45.9693" lon="1.28877">
        <ele>509.8</ele>
        <time>2024-11-29T13:45:20Z</time>
      </trkpt>
      <trkpt lat="45.9693" lon="1.28872">
        <ele>510</ele>
        <time>2024-11-29T13:45:21Z</time>
      </trkpt>
      <trkpt lat="45.9693" lon="1.28867">
        <ele>510.1</ele>
        <time>2024-11-29T13:45:22Z</time>
      </trkpt>
      <trkpt lat="45.9693" lon="1.28863">
        <ele>510.2</ele>
        <time>2024-11-29T13:45:23Z</time>
      </trkpt>
      <trkpt lat="45.9693" lon="1.28858">
        <ele>510.4</ele>
        <time>2024-11-29T13:45:24Z</time>
      </trkpt>
      <trkpt lat="45.96931" lon="1.28852">
        <ele>510.5</ele>
        <time>2024-11-29T13:45:25Z</time>
      </trkpt>
      <trkpt lat="45.96932" lon="1.28846">
        <ele>510.6</ele>
        <time>2024-11-29T13:45:26Z</time>
      </trkpt>
      <trkpt lat="45.96931" lon="1.28841">
        <ele>510.6</ele>
        <time>2024-11-29T13:45:27Z</time>
      </trkpt>
      <trkpt lat="45.96932" lon="1.28835">
        <ele>510.7</ele>
        <time>2024-11-29T13:45:28Z</time>
      </trkpt>
      <trkpt lat="45.96933" lon="1.28829">
        <ele>510.7</ele>
        <time>2024-11-29T13:45:29Z</time>
      </trkpt>
      <trkpt lat="45.96933" lon="1.28823">
        <ele>510.8</ele>
        <time>2024-11-29T13:45:30Z</time>
      </trkpt>
      <trkpt lat="45.96934" lon="1.28817">
        <ele>510.9</ele>
        <time>2024-11-29T13:45:31Z</time>
      </trkpt>
      <trkpt lat="45.96935" lon="1.28811">
        <ele>510.9</ele>
        <time>2024-11-29T13:45:32Z</time>
      </trkpt>
      <trkpt lat="45.96936" lon="1.28806">
        <ele>511</ele>
        <time>2024-11-29T13:45:33Z</time>
      </trkpt>
      <trkpt lat="45.96938" lon="1.28801">
        <ele>511.1</ele>
        <time>2024-11-29T13:45:49Z</time>
      </trkpt>
      <trkpt lat="45.96941" lon="1.28795">
        <ele>511.2</ele>
        <time>2024-11-29T13:45:51Z</time>
      </trkpt>
      <trkpt lat="45.96944" lon="1.2879">
        <ele>511.3</ele>
        <time>2024-11-29T13:45:53Z</time>
      </trkpt>
      <trkpt lat="45.96944" lon="1.28792">
        <ele>511.4</ele>
        <time>2024-11-29T13:46:17Z</time>
      </trkpt>
      <trkpt lat="45.96944" lon="1.28796">
        <ele>511.5</ele>
        <time>2024-11-29T13:46:18Z</time>
      </trkpt>
      <trkpt lat="45.96943" lon="1.28801">
        <ele>511.6</ele>
        <time>2024-11-29T13:46:19Z</time>
      </trkpt>
      <trkpt lat="45.96942" lon="1.28806">
        <ele>511.7</ele>
        <time>2024-11-29T13:46:20Z</time>
      </trkpt>
      <trkpt lat="45.96941" lon="1.2881">
        <ele>511.8</ele>
        <time>2024-11-29T13:46:21Z</time>
      </trkpt>
      <trkpt lat="45.96941" lon="1.28809">
        <ele>511.8</ele>
        <time>2024-11-29T13:46:29Z</time>
      </trkpt>
      <trkpt lat="45.9694" lon="1.28804">
        <ele>512</ele>
        <time>2024-11-29T13:46:31Z</time>
      </trkpt>
      <trkpt lat="45.96939" lon="1.28799">
        <ele>512.1</ele>
        <time>2024-11-29T13:46:33Z</time>
      </trkpt>
      <trkpt lat="45.96938" lon="1.28795">
        <ele>512.2</ele>
        <time>2024-11-29T13:46:42Z</time>
      </trkpt>
      <trkpt lat="45.96938" lon="1.2879">
        <ele>512.4</ele>
        <time>2024-11-29T13:46:48Z</time>
      </trkpt>
      <trkpt lat="45.96937" lon="1.28786">
        <ele>512.6</ele>
        <time>2024-11-29T13:46:51Z</time>
      </trkpt>
      <trkpt lat="45.96937" lon="1.28782">
        <ele>512.7</ele>
        <time>2024-11-29T13:47:01Z</time>
      </trkpt>
      <trkpt lat="45.96936" lon="1.28778">
        <ele>512.9</ele>
        <time>2024-11-29T13:47:08Z</time>
      </trkpt>
      <trkpt lat="45.96935" lon="1.28774">
        <ele>513.1</ele>
        <time>2024-11-29T13:47:15Z</time>
      </trkpt>
      <trkpt lat="45.96934" lon="1.2877">
        <ele>513.3</ele>
        <time>2024-11-29T13:47:18Z</time>
      </trkpt>
      <trkpt lat="45.96934" lon="1.28766">
        <ele>513.5</ele>
        <time>2024-11-29T13:47:23Z</time>
      </trkpt>
      <trkpt lat="45.96935" lon="1.28762">
        <ele>513.8</ele>
        <time>2024-11-29T13:47:28Z</time>
      </trkpt>
      <trkpt lat="45.96935" lon="1.28758">
        <ele>514</ele>
        <time>2024-11-29T13:47:31Z</time>
      </trkpt>
      <trkpt lat="45.96936" lon="1.28753">
        <ele>514.4</ele>
        <time>2024-11-29T13:47:35Z</time>
      </trkpt>
      <trkpt lat="45.96937" lon="1.28749">
        <ele>514.7</ele>
        <time>2024-11-29T13:47:53Z</time>
      </trkpt>
      <trkpt lat="45.96936" lon="1.28746">
        <ele>514.9</ele>
        <time>2024-11-29T13:48:15Z</time>
      </trkpt>
      <trkpt lat="45.96934" lon="1.28748">
        <ele>515.2</ele>
        <time>2024-11-29T13:48:30Z</time>
      </trkpt>
      <trkpt lat="45.96937" lon="1.28746">
        <ele>515.6</ele>
        <time>2024-11-29T13:48:59Z</time>
      </trkpt>
      <trkpt lat="45.96936" lon="1.28744">
        <ele>516.2</ele>
        <time>2024-11-29T13:49:15Z</time>
      </trkpt>
      <trkpt lat="45.96935" lon="1.28741">
        <ele>516.6</ele>
        <time>2024-11-29T13:49:22Z</time>
      </trkpt>
      <trkpt lat="45.96933" lon="1.28737">
        <ele>517.1</ele>
        <time>2024-11-29T13:49:42Z</time>
      </trkpt>
      <trkpt lat="45.96931" lon="1.28734">
        <ele>517.6</ele>
        <time>2024-11-29T13:49:53Z</time>
      </trkpt>
      <trkpt lat="45.96929" lon="1.28731">
        <ele>518</ele>
        <time>2024-11-29T13:50:09Z</time>
      </trkpt>
      <trkpt lat="45.96927" lon="1.28728">
        <ele>518.4</ele>
        <time>2024-11-29T13:50:11Z</time>
      </trkpt>
      <trkpt lat="45.96923" lon="1.28727">
        <ele>519</ele>
        <time>2024-11-29T13:50:17Z</time>
      </trkpt>
      <trkpt lat="45.96918" lon="1.28725">
        <ele>519.8</ele>
        <time>2024-11-29T13:50:19Z</time>
      </trkpt>
      <trkpt lat="45.96914" lon="1.28724">
        <ele>520.3</ele>
        <time>2024-11-29T13:50:20Z</time>
      </trkpt>
      <trkpt lat="45.9691" lon="1.28722">
        <ele>520.8</ele>
        <time>2024-11-29T13:50:21Z</time>
      </trkpt>
      <trkpt lat="45.96906" lon="1.2872">
        <ele>521.2</ele>
        <time>2024-11-29T13:50:22Z</time>
      </trkpt>
      <trkpt lat="45.96902" lon="1.28719">
        <ele>521.6</ele>
        <time>2024-11-29T13:50:23Z</time>
      </trkpt>
      <trkpt lat="45.96898" lon="1.28718">
        <ele>522</ele>
        <time>2024-11-29T13:50:24Z</time>
      </trkpt>
      <trkpt lat="45.96894" lon="1.28717">
        <ele>522.3</ele>
        <time>2024-11-29T13:50:26Z</time>
      </trkpt>
      <trkpt lat="45.96891" lon="1.28716">
        <ele>522.5</ele>
        <time>2024-11-29T13:50:27Z</time>
      </trkpt>
      <trkpt lat="45.96887" lon="1.28716">
        <ele>522.9</ele>
        <time>2024-11-29T13:50:28Z</time>
      </trkpt>
      <trkpt lat="45.96884" lon="1.28715">
        <ele>523.1</ele>
        <time>2024-11-29T13:50:29Z</time>
      </trkpt>
      <trkpt lat="45.9688" lon="1.28714">
        <ele>523.5</ele>
        <time>2024-11-29T13:50:31Z</time>
      </trkpt>
      <trkpt lat="45.96876" lon="1.28713">
        <ele>523.8</ele>
        <time>2024-11-29T13:50:33Z</time>
      </trkpt>
      <trkpt lat="45.96873" lon="1.28712">
        <ele>524.1</ele>
        <time>2024-11-29T13:50:34Z</time>
      </trkpt>
      <trkpt lat="45.96869" lon="1.28711">
        <ele>524.5</ele>
        <time>2024-11-29T13:50:35Z</time>
      </trkpt>
      <trkpt lat="45.96865" lon="1.2871">
        <ele>524.8</ele>
        <time>2024-11-29T13:50:36Z</time>
      </trkpt>
      <trkpt lat="45.96861" lon="1.2871">
        <ele>525.2</ele>
        <time>2024-11-29T13:50:37Z</time>
      </trkpt>
      <trkpt lat="45.96857" lon="1.2871">
        <ele>525.5</ele>
        <time>2024-11-29T13:50:38Z</time>
      </trkpt>
      <trkpt lat="45.96854" lon="1.28711">
        <ele>525.7</ele>
        <time>2024-11-29T13:50:40Z</time>
      </trkpt>
      <trkpt lat="45.96851" lon="1.28713">
        <ele>525.9</ele>
        <time>2024-11-29T13:50:42Z</time>
      </trkpt>
      <trkpt lat="45.96848" lon="1.28713">
        <ele>526.1</ele>
        <time>2024-11-29T13:50:43Z</time>
      </trkpt>
      <trkpt lat="45.96844" lon="1.28714">
        <ele>526.4</ele>
        <time>2024-11-29T13:50:44Z</time>
      </trkpt>
      <trkpt lat="45.96841" lon="1.28715">
        <ele>526.6</ele>
        <time>2024-11-29T13:50:45Z</time>
      </trkpt>
      <trkpt lat="45.96838" lon="1.28715">
        <ele>526.8</ele>
        <time>2024-11-29T13:50:46Z</time>
      </trkpt>
      <trkpt lat="45.96835" lon="1.28716">
        <ele>527</ele>
        <time>2024-11-29T13:50:47Z</time>
      </trkpt>
      <trkpt lat="45.96832" lon="1.28716">
        <ele>527.1</ele>
        <time>2024-11-29T13:50:48Z</time>
      </trkpt>
      <trkpt lat="45.96829" lon="1.28716">
        <ele>527.3</ele>
        <time>2024-11-29T13:50:49Z</time>
      </trkpt>
      <trkpt lat="45.96826" lon="1.28716">
        <ele>527.5</ele>
        <time>2024-11-29T13:50:50Z</time>
      </trkpt>
      <trkpt lat="45.96822" lon="1.28716">
        <ele>527.7</ele>
        <time>2024-11-29T13:50:51Z</time>
      </trkpt>
      <trkpt lat="45.96819" lon="1.28716">
        <ele>527.8</ele>
        <time>2024-11-29T13:50:52Z</time>
      </trkpt>
      <trkpt lat="45.96815" lon="1.28715">
        <ele>528</ele>
        <time>2024-11-29T13:50:53Z</time>
      </trkpt>
      <trkpt lat="45.96811" lon="1.28715">
        <ele>528.2</ele>
        <time>2024-11-29T13:50:54Z</time>
      </trkpt>
      <trkpt lat="45.96808" lon="1.28715">
        <ele>528.4</ele>
        <time>2024-11-29T13:50:55Z</time>
      </trkpt>
      <trkpt lat="45.96805" lon="1.28714">
        <ele>528.5</ele>
        <time>2024-11-29T13:50:56Z</time>
      </trkpt>
      <trkpt lat="45.96802" lon="1.28713">
        <ele>528.6</ele>
        <time>2024-11-29T13:50:57Z</time>
      </trkpt>
      <trkpt lat="45.96798" lon="1.28712">
        <ele>528.8</ele>
        <time>2024-11-29T13:50:58Z</time>
      </trkpt>
      <trkpt lat="45.96794" lon="1.28711">
        <ele>529</ele>
        <time>2024-11-29T13:50:59Z</time>
      </trkpt>
      <trkpt lat="45.9679" lon="1.28711">
        <ele>529.1</ele>
        <time>2024-11-29T13:51:00Z</time>
      </trkpt>
      <trkpt lat="45.96786" lon="1.28711">
        <ele>529.3</ele>
        <time>2024-11-29T13:51:01Z</time>
      </trkpt>
      <trkpt lat="45.96783" lon="1.28711">
        <ele>529.4</ele>
        <time>2024-11-29T13:51:02Z</time>
      </trkpt>
      <trkpt lat="45.9678" lon="1.28712">
        <ele>529.5</ele>
        <time>2024-11-29T13:51:03Z</time>
      </trkpt>
      <trkpt lat="45.96777" lon="1.28712">
        <ele>529.6</ele>
        <time>2024-11-29T13:51:04Z</time>
      </trkpt>
      <trkpt lat="45.96772" lon="1.28712">
        <ele>529.7</ele>
        <time>2024-11-29T13:51:06Z</time>
      </trkpt>
      <trkpt lat="45.96768" lon="1.28712">
        <ele>529.9</ele>
        <time>2024-11-29T13:51:07Z</time>
      </trkpt>
      <trkpt lat="45.96764" lon="1.28711">
        <ele>530</ele>
        <time>2024-11-29T13:51:09Z</time>
      </trkpt>
      <trkpt lat="45.9676" lon="1.2871">
        <ele>530.2</ele>
        <time>2024-11-29T13:51:10Z</time>
      </trkpt>
      <trkpt lat="45.96756" lon="1.28709">
        <ele>530.3</ele>
        <time>2024-11-29T13:51:11Z</time>
      </trkpt>
      <trkpt lat="45.96753" lon="1.28708">
        <ele>530.5</ele>
        <time>2024-11-29T13:51:12Z</time>
      </trkpt>
      <trkpt lat="45.9675" lon="1.28707">
        <ele>530.6</ele>
        <time>2024-11-29T13:51:13Z</time>
      </trkpt>
      <trkpt lat="45.96748" lon="1.28704">
        <ele>530.6</ele>
        <time>2024-11-29T13:51:15Z</time>
      </trkpt>
      <trkpt lat="45.96745" lon="1.28701">
        <ele>530.7</ele>
        <time>2024-11-29T13:51:16Z</time>
      </trkpt>
      <trkpt lat="45.96743" lon="1.28699">
        <ele>530.8</ele>
        <time>2024-11-29T13:51:17Z</time>
      </trkpt>
      <trkpt lat="45.96741" lon="1.28696">
        <ele>530.8</ele>
        <time>2024-11-29T13:51:18Z</time>
      </trkpt>
      <trkpt lat="45.96738" lon="1.28693">
        <ele>530.8</ele>
        <time>2024-11-29T13:51:20Z</time>
      </trkpt>
      <trkpt lat="45.96735" lon="1.28689">
        <ele>530.8</ele>
        <time>2024-11-29T13:51:21Z</time>
      </trkpt>
      <trkpt lat="45.96732" lon="1.28685">
        <ele>530.8</ele>
        <time>2024-11-29T13:51:22Z</time>
      </trkpt>
      <trkpt lat="45.96729" lon="1.28682">
        <ele>530.8</ele>
        <time>2024-11-29T13:51:23Z</time>
      </trkpt>
      <trkpt lat="45.96727" lon="1.28678">
        <ele>530.8</ele>
        <time>2024-11-29T13:51:24Z</time>
      </trkpt>
      <trkpt lat="45.96724" lon="1.28675">
        <ele>530.8</ele>
        <time>2024-11-29T13:51:25Z</time>
      </trkpt>
      <trkpt lat="45.96722" lon="1.28671">
        <ele>530.9</ele>
        <time>2024-11-29T13:51:27Z</time>
      </trkpt>
      <trkpt lat="45.96719" lon="1.28666">
        <ele>531</ele>
        <time>2024-11-29T13:51:29Z</time>
      </trkpt>
      <trkpt lat="45.96717" lon="1.28661">
        <ele>531.1</ele>
        <time>2024-11-29T13:51:30Z</time>
      </trkpt>
      <trkpt lat="45.96715" lon="1.28657">
        <ele>531.1</ele>
        <time>2024-11-29T13:51:31Z</time>
      </trkpt>
      <trkpt lat="45.96714" lon="1.28653">
        <ele>531.2</ele>
        <time>2024-11-29T13:51:32Z</time>
      </trkpt>
      <trkpt lat="45.96712" lon="1.28647">
        <ele>531.3</ele>
        <time>2024-11-29T13:51:33Z</time>
      </trkpt>
      <trkpt lat="45.9671" lon="1.28641">
        <ele>531.2</ele>
        <time>2024-11-29T13:51:34Z</time>
      </trkpt>
      <trkpt lat="45.96708" lon="1.28635">
        <ele>531</ele>
        <time>2024-11-29T13:51:35Z</time>
      </trkpt>
      <trkpt lat="45.96705" lon="1.28628">
        <ele>530.7</ele>
        <time>2024-11-29T13:51:36Z</time>
      </trkpt>
      <trkpt lat="45.96702" lon="1.28622">
        <ele>530.3</ele>
        <time>2024-11-29T13:51:37Z</time>
      </trkpt>
      <trkpt lat="45.96699" lon="1.28617">
        <ele>530</ele>
        <time>2024-11-29T13:51:38Z</time>
      </trkpt>
      <trkpt lat="45.96695" lon="1.28613">
        <ele>529.6</ele>
        <time>2024-11-29T13:51:39Z</time>
      </trkpt>
      <trkpt lat="45.96691" lon="1.28609">
        <ele>529.2</ele>
        <time>2024-11-29T13:51:40Z</time>
      </trkpt>
      <trkpt lat="45.96687" lon="1.28607">
        <ele>528.9</ele>
        <time>2024-11-29T13:51:41Z</time>
      </trkpt>
      <trkpt lat="45.96683" lon="1.28604">
        <ele>528.7</ele>
        <time>2024-11-29T13:51:42Z</time>
      </trkpt>
      <trkpt lat="45.9668" lon="1.28602">
        <ele>528.5</ele>
        <time>2024-11-29T13:51:43Z</time>
      </trkpt>
      <trkpt lat="45.96676" lon="1.286">
        <ele>528.3</ele>
        <time>2024-11-29T13:51:44Z</time>
      </trkpt>
      <trkpt lat="45.96673" lon="1.28597">
        <ele>528.1</ele>
        <time>2024-11-29T13:51:45Z</time>
      </trkpt>
      <trkpt lat="45.96669" lon="1.28594">
        <ele>527.9</ele>
        <time>2024-11-29T13:51:46Z</time>
      </trkpt>
      <trkpt lat="45.96665" lon="1.28591">
        <ele>527.7</ele>
        <time>2024-11-29T13:51:47Z</time>
      </trkpt>
      <trkpt lat="45.9666" lon="1.28588">
        <ele>527.5</ele>
        <time>2024-11-29T13:51:48Z</time>
      </trkpt>
      <trkpt lat="45.96656" lon="1.28585">
        <ele>527.3</ele>
        <time>2024-11-29T13:51:49Z</time>
      </trkpt>
      <trkpt lat="45.9665" lon="1.28582">
        <ele>527.1</ele>
        <time>2024-11-29T13:51:50Z</time>
      </trkpt>
      <trkpt lat="45.96645" lon="1.28579">
        <ele>527</ele>
        <time>2024-11-29T13:51:51Z</time>
      </trkpt>
      <trkpt lat="45.9664" lon="1.28576">
        <ele>526.8</ele>
        <time>2024-11-29T13:51:52Z</time>
      </trkpt>
      <trkpt lat="45.96635" lon="1.28573">
        <ele>526.7</ele>
        <time>2024-11-29T13:51:53Z</time>
      </trkpt>
      <trkpt lat="45.9663" lon="1.28569">
        <ele>526.5</ele>
        <time>2024-11-29T13:51:54Z</time>
      </trkpt>
      <trkpt lat="45.96625" lon="1.28566">
        <ele>526.4</ele>
        <time>2024-11-29T13:51:55Z</time>
      </trkpt>
      <trkpt lat="45.9662" lon="1.28563">
        <ele>526.2</ele>
        <time>2024-11-29T13:51:56Z</time>
      </trkpt>
      <trkpt lat="45.96615" lon="1.28559">
        <ele>526.1</ele>
        <time>2024-11-29T13:51:57Z</time>
      </trkpt>
      <trkpt lat="45.9661" lon="1.28556">
        <ele>525.9</ele>
        <time>2024-11-29T13:51:58Z</time>
      </trkpt>
      <trkpt lat="45.96606" lon="1.28553">
        <ele>525.8</ele>
        <time>2024-11-29T13:51:59Z</time>
      </trkpt>
      <trkpt lat="45.96601" lon="1.2855">
        <ele>525.7</ele>
        <time>2024-11-29T13:52:00Z</time>
      </trkpt>
      <trkpt lat="45.96596" lon="1.28548">
        <ele>525.6</ele>
        <time>2024-11-29T13:52:01Z</time>
      </trkpt>
      <trkpt lat="45.96591" lon="1.28545">
        <ele>525.4</ele>
        <time>2024-11-29T13:52:02Z</time>
      </trkpt>
      <trkpt lat="45.96587" lon="1.28542">
        <ele>525.3</ele>
        <time>2024-11-29T13:52:03Z</time>
      </trkpt>
      <trkpt lat="45.96582" lon="1.28539">
        <ele>525.1</ele>
        <time>2024-11-29T13:52:04Z</time>
      </trkpt>
      <trkpt lat="45.96576" lon="1.28535">
        <ele>524.9</ele>
        <time>2024-11-29T13:52:05Z</time>
      </trkpt>
      <trkpt lat="45.96571" lon="1.28533">
        <ele>524.7</ele>
        <time>2024-11-29T13:52:06Z</time>
      </trkpt>
      <trkpt lat="45.96565" lon="1.2853">
        <ele>524.5</ele>
        <time>2024-11-29T13:52:07Z</time>
      </trkpt>
      <trkpt lat="45.9656" lon="1.28527">
        <ele>524.3</ele>
        <time>2024-11-29T13:52:08Z</time>
      </trkpt>
      <trkpt lat="45.96554" lon="1.28524">
        <ele>524.1</ele>
        <time>2024-11-29T13:52:09Z</time>
      </trkpt>
      <trkpt lat="45.96547" lon="1.28523">
        <ele>523.9</ele>
        <time>2024-11-29T13:52:10Z</time>
      </trkpt>
      <trkpt lat="45.96541" lon="1.28521">
        <ele>523.7</ele>
        <time>2024-11-29T13:52:11Z</time>
      </trkpt>
      <trkpt lat="45.96534" lon="1.28519">
        <ele>523.5</ele>
        <time>2024-11-29T13:52:12Z</time>
      </trkpt>
      <trkpt lat="45.96527" lon="1.28516">
        <ele>523.3</ele>
        <time>2024-11-29T13:52:13Z</time>
      </trkpt>
      <trkpt lat="45.9652" lon="1.28516">
        <ele>523.1</ele>
        <time>2024-11-29T13:52:14Z</time>
      </trkpt>
      <trkpt lat="45.96514" lon="1.28514">
        <ele>522.8</ele>
        <time>2024-11-29T13:52:15Z</time>
      </trkpt>
      <trkpt lat="45.96508" lon="1.28513">
        <ele>522.6</ele>
        <time>2024-11-29T13:52:16Z</time>
      </trkpt>
      <trkpt lat="45.96502" lon="1.28512">
        <ele>522.4</ele>
        <time>2024-11-29T13:52:17Z</time>
      </trkpt>
      <trkpt lat="45.96495" lon="1.28511">
        <ele>522.2</ele>
        <time>2024-11-29T13:52:19Z</time>
      </trkpt>
      <trkpt lat="45.96489" lon="1.28511">
        <ele>522</ele>
        <time>2024-11-29T13:52:20Z</time>
      </trkpt>
      <trkpt lat="45.96483" lon="1.2851">
        <ele>521.8</ele>
        <time>2024-11-29T13:52:21Z</time>
      </trkpt>
      <trkpt lat="45.96477" lon="1.28511">
        <ele>521.6</ele>
        <time>2024-11-29T13:52:22Z</time>
      </trkpt>
      <trkpt lat="45.9647" lon="1.28511">
        <ele>521.3</ele>
        <time>2024-11-29T13:52:23Z</time>
      </trkpt>
      <trkpt lat="45.96465" lon="1.28511">
        <ele>521.2</ele>
        <time>2024-11-29T13:52:24Z</time>
      </trkpt>
      <trkpt lat="45.96459" lon="1.28511">
        <ele>521</ele>
        <time>2024-11-29T13:52:25Z</time>
      </trkpt>
      <trkpt lat="45.96453" lon="1.28512">
        <ele>520.7</ele>
        <time>2024-11-29T13:52:26Z</time>
      </trkpt>
      <trkpt lat="45.96447" lon="1.28513">
        <ele>520.5</ele>
        <time>2024-11-29T13:52:27Z</time>
      </trkpt>
      <trkpt lat="45.96441" lon="1.28513">
        <ele>520.2</ele>
        <time>2024-11-29T13:52:28Z</time>
      </trkpt>
      <trkpt lat="45.96435" lon="1.28514">
        <ele>519.8</ele>
        <time>2024-11-29T13:52:29Z</time>
      </trkpt>
      <trkpt lat="45.96429" lon="1.28516">
        <ele>519.3</ele>
        <time>2024-11-29T13:52:30Z</time>
      </trkpt>
      <trkpt lat="45.96425" lon="1.28519">
        <ele>519</ele>
        <time>2024-11-29T13:52:31Z</time>
      </trkpt>
      <trkpt lat="45.96419" lon="1.2852">
        <ele>518.4</ele>
        <time>2024-11-29T13:52:32Z</time>
      </trkpt>
      <trkpt lat="45.96415" lon="1.28523">
        <ele>517.9</ele>
        <time>2024-11-29T13:52:33Z</time>
      </trkpt>
      <trkpt lat="45.9641" lon="1.28523">
        <ele>517.3</ele>
        <time>2024-11-29T13:52:35Z</time>
      </trkpt>
      <trkpt lat="45.96406" lon="1.28524">
        <ele>516.8</ele>
        <time>2024-11-29T13:52:36Z</time>
      </trkpt>
      <trkpt lat="45.96401" lon="1.28525">
        <ele>516.2</ele>
        <time>2024-11-29T13:52:37Z</time>
      </trkpt>
      <trkpt lat="45.96395" lon="1.28524">
        <ele>515.5</ele>
        <time>2024-11-29T13:52:38Z</time>
      </trkpt>
      <trkpt lat="45.96389" lon="1.28521">
        <ele>515</ele>
        <time>2024-11-29T13:52:39Z</time>
      </trkpt>
      <trkpt lat="45.96384" lon="1.28519">
        <ele>514.5</ele>
        <time>2024-11-29T13:52:40Z</time>
      </trkpt>
      <trkpt lat="45.96378" lon="1.28517">
        <ele>514.2</ele>
        <time>2024-11-29T13:52:41Z</time>
      </trkpt>
      <trkpt lat="45.96372" lon="1.28515">
        <ele>513.8</ele>
        <time>2024-11-29T13:52:42Z</time>
      </trkpt>
      <trkpt lat="45.96365" lon="1.28512">
        <ele>513.3</ele>
        <time>2024-11-29T13:52:43Z</time>
      </trkpt>
      <trkpt lat="45.96358" lon="1.2851">
        <ele>512.7</ele>
        <time>2024-11-29T13:52:44Z</time>
      </trkpt>
      <trkpt lat="45.9635" lon="1.28508">
        <ele>512.1</ele>
        <time>2024-11-29T13:52:45Z</time>
      </trkpt>
      <trkpt lat="45.96342" lon="1.28505">
        <ele>511.6</ele>
        <time>2024-11-29T13:52:46Z</time>
      </trkpt>
      <trkpt lat="45.96334" lon="1.28502">
        <ele>511.2</ele>
        <time>2024-11-29T13:52:47Z</time>
      </trkpt>
      <trkpt lat="45.96326" lon="1.28499">
        <ele>511</ele>
        <time>2024-11-29T13:52:48Z</time>
      </trkpt>
      <trkpt lat="45.96319" lon="1.28496">
        <ele>511</ele>
        <time>2024-11-29T13:52:49Z</time>
      </trkpt>
      <trkpt lat="45.96312" lon="1.28493">
        <ele>511.2</ele>
        <time>2024-11-29T13:52:50Z</time>
      </trkpt>
      <trkpt lat="45.96307" lon="1.28489">
        <ele>511.3</ele>
        <time>2024-11-29T13:52:51Z</time>
      </trkpt>
      <trkpt lat="45.96301" lon="1.28484">
        <ele>511.7</ele>
        <time>2024-11-29T13:52:52Z</time>
      </trkpt>
      <trkpt lat="45.96296" lon="1.28478">
        <ele>512.1</ele>
        <time>2024-11-29T13:52:53Z</time>
      </trkpt>
      <trkpt lat="45.96292" lon="1.28475">
        <ele>512.4</ele>
        <time>2024-11-29T13:52:54Z</time>
      </trkpt>
      <trkpt lat="45.96287" lon="1.2847">
        <ele>512.8</ele>
        <time>2024-11-29T13:52:55Z</time>
      </trkpt>
      <trkpt lat="45.96284" lon="1.28465">
        <ele>513.2</ele>
        <time>2024-11-29T13:52:56Z</time>
      </trkpt>
      <trkpt lat="45.9628" lon="1.28461">
        <ele>513.5</ele>
        <time>2024-11-29T13:52:57Z</time>
      </trkpt>
      <trkpt lat="45.96276" lon="1.28457">
        <ele>513.9</ele>
        <time>2024-11-29T13:52:58Z</time>
      </trkpt>
      <trkpt lat="45.96272" lon="1.28454">
        <ele>514.3</ele>
        <time>2024-11-29T13:52:59Z</time>
      </trkpt>
      <trkpt lat="45.96267" lon="1.28451">
        <ele>514.7</ele>
        <time>2024-11-29T13:53:00Z</time>
      </trkpt>
      <trkpt lat="45.96263" lon="1.28448">
        <ele>515.1</ele>
        <time>2024-11-29T13:53:01Z</time>
      </trkpt>
      <trkpt lat="45.96258" lon="1.28447">
        <ele>515.5</ele>
        <time>2024-11-29T13:53:02Z</time>
      </trkpt>
      <trkpt lat="45.96253" lon="1.28445">
        <ele>515.8</ele>
        <time>2024-11-29T13:53:03Z</time>
      </trkpt>
      <trkpt lat="45.96249" lon="1.28443">
        <ele>516.2</ele>
        <time>2024-11-29T13:53:04Z</time>
      </trkpt>
      <trkpt lat="45.96244" lon="1.2844">
        <ele>516.5</ele>
        <time>2024-11-29T13:53:05Z</time>
      </trkpt>
      <trkpt lat="45.9624" lon="1.28437">
        <ele>516.7</ele>
        <time>2024-11-29T13:53:06Z</time>
      </trkpt>
      <trkpt lat="45.96235" lon="1.28432">
        <ele>516.6</ele>
        <time>2024-11-29T13:53:07Z</time>
      </trkpt>
      <trkpt lat="45.96231" lon="1.28427">
        <ele>516.4</ele>
        <time>2024-11-29T13:53:08Z</time>
      </trkpt>
      <trkpt lat="45.96228" lon="1.28421">
        <ele>516.1</ele>
        <time>2024-11-29T13:53:09Z</time>
      </trkpt>
      <trkpt lat="45.96225" lon="1.28413">
        <ele>515.8</ele>
        <time>2024-11-29T13:53:10Z</time>
      </trkpt>
      <trkpt lat="45.96221" lon="1.28406">
        <ele>515.5</ele>
        <time>2024-11-29T13:53:11Z</time>
      </trkpt>
      <trkpt lat="45.96219" lon="1.28396">
        <ele>515.2</ele>
        <time>2024-11-29T13:53:12Z</time>
      </trkpt>
      <trkpt lat="45.96215" lon="1.28386">
        <ele>514.9</ele>
        <time>2024-11-29T13:53:13Z</time>
      </trkpt>
      <trkpt lat="45.96212" lon="1.28376">
        <ele>514.6</ele>
        <time>2024-11-29T13:53:14Z</time>
      </trkpt>
      <trkpt lat="45.96209" lon="1.28365">
        <ele>514.2</ele>
        <time>2024-11-29T13:53:15Z</time>
      </trkpt>
      <trkpt lat="45.96206" lon="1.28354">
        <ele>513.9</ele>
        <time>2024-11-29T13:53:16Z</time>
      </trkpt>
      <trkpt lat="45.96202" lon="1.28344">
        <ele>513.6</ele>
        <time>2024-11-29T13:53:17Z</time>
      </trkpt>
      <trkpt lat="45.96198" lon="1.28334">
        <ele>513.3</ele>
        <time>2024-11-29T13:53:18Z</time>
      </trkpt>
      <trkpt lat="45.96195" lon="1.28323">
        <ele>513.1</ele>
        <time>2024-11-29T13:53:19Z</time>
      </trkpt>
      <trkpt lat="45.96192" lon="1.28313">
        <ele>512.9</ele>
        <time>2024-11-29T13:53:20Z</time>
      </trkpt>
      <trkpt lat="45.96189" lon="1.28304">
        <ele>512.7</ele>
        <time>2024-11-29T13:53:21Z</time>
      </trkpt>
      <trkpt lat="45.96185" lon="1.28296">
        <ele>512.6</ele>
        <time>2024-11-29T13:53:22Z</time>
      </trkpt>
      <trkpt lat="45.96182" lon="1.28288">
        <ele>512.6</ele>
        <time>2024-11-29T13:53:23Z</time>
      </trkpt>
      <trkpt lat="45.96179" lon="1.28284">
        <ele>512.2</ele>
        <time>2024-11-29T13:53:24Z</time>
      </trkpt>
      <trkpt lat="45.96176" lon="1.28281">
        <ele>511.9</ele>
        <time>2024-11-29T13:53:25Z</time>
      </trkpt>
      <trkpt lat="45.96172" lon="1.28281">
        <ele>511.5</ele>
        <time>2024-11-29T13:53:26Z</time>
      </trkpt>
      <trkpt lat="45.96167" lon="1.28281">
        <ele>511</ele>
        <time>2024-11-29T13:53:27Z</time>
      </trkpt>
      <trkpt lat="45.96161" lon="1.28281">
        <ele>510.3</ele>
        <time>2024-11-29T13:53:28Z</time>
      </trkpt>
      <trkpt lat="45.96155" lon="1.28281">
        <ele>509.4</ele>
        <time>2024-11-29T13:53:29Z</time>
      </trkpt>
      <trkpt lat="45.96149" lon="1.28281">
        <ele>508.5</ele>
        <time>2024-11-29T13:53:30Z</time>
      </trkpt>
      <trkpt lat="45.96143" lon="1.28281">
        <ele>507.5</ele>
        <time>2024-11-29T13:53:31Z</time>
      </trkpt>
      <trkpt lat="45.96138" lon="1.28281">
        <ele>506.6</ele>
        <time>2024-11-29T13:53:32Z</time>
      </trkpt>
      <trkpt lat="45.96131" lon="1.28281">
        <ele>505.3</ele>
        <time>2024-11-29T13:53:33Z</time>
      </trkpt>
      <trkpt lat="45.96124" lon="1.28281">
        <ele>504.1</ele>
        <time>2024-11-29T13:53:34Z</time>
      </trkpt>
      <trkpt lat="45.96118" lon="1.2828">
        <ele>503.1</ele>
        <time>2024-11-29T13:53:35Z</time>
      </trkpt>
      <trkpt lat="45.96111" lon="1.2828">
        <ele>501.9</ele>
        <time>2024-11-29T13:53:36Z</time>
      </trkpt>
      <trkpt lat="45.96105" lon="1.2828">
        <ele>501</ele>
        <time>2024-11-29T13:53:37Z</time>
      </trkpt>
      <trkpt lat="45.96099" lon="1.2828">
        <ele>500.1</ele>
        <time>2024-11-29T13:53:38Z</time>
      </trkpt>
      <trkpt lat="45.96093" lon="1.28281">
        <ele>499.2</ele>
        <time>2024-11-29T13:53:39Z</time>
      </trkpt>
      <trkpt lat="45.96086" lon="1.2828">
        <ele>498.2</ele>
        <time>2024-11-29T13:53:40Z</time>
      </trkpt>
      <trkpt lat="45.96079" lon="1.2828">
        <ele>497.2</ele>
        <time>2024-11-29T13:53:41Z</time>
      </trkpt>
      <trkpt lat="45.96073" lon="1.28281">
        <ele>496.3</ele>
        <time>2024-11-29T13:53:42Z</time>
      </trkpt>
      <trkpt lat="45.96067" lon="1.28281">
        <ele>495.4</ele>
        <time>2024-11-29T13:53:43Z</time>
      </trkpt>
      <trkpt lat="45.9606" lon="1.2828">
        <ele>494.4</ele>
        <time>2024-11-29T13:53:44Z</time>
      </trkpt>
      <trkpt lat="45.96054" lon="1.28282">
        <ele>493.5</ele>
        <time>2024-11-29T13:53:45Z</time>
      </trkpt>
      <trkpt lat="45.96047" lon="1.28281">
        <ele>492.5</ele>
        <time>2024-11-29T13:53:46Z</time>
      </trkpt>
      <trkpt lat="45.96042" lon="1.28283">
        <ele>491.7</ele>
        <time>2024-11-29T13:53:47Z</time>
      </trkpt>
      <trkpt lat="45.96037" lon="1.28284">
        <ele>491</ele>
        <time>2024-11-29T13:53:48Z</time>
      </trkpt>
      <trkpt lat="45.96032" lon="1.28285">
        <ele>490.1</ele>
        <time>2024-11-29T13:53:49Z</time>
      </trkpt>
      <trkpt lat="45.96027" lon="1.28288">
        <ele>489.1</ele>
        <time>2024-11-29T13:53:50Z</time>
      </trkpt>
      <trkpt lat="45.96022" lon="1.28291">
        <ele>488</ele>
        <time>2024-11-29T13:53:51Z</time>
      </trkpt>
      <trkpt lat="45.96015" lon="1.28291">
        <ele>486.4</ele>
        <time>2024-11-29T13:53:52Z</time>
      </trkpt>
      <trkpt lat="45.96009" lon="1.28292">
        <ele>485.1</ele>
        <time>2024-11-29T13:53:53Z</time>
      </trkpt>
      <trkpt lat="45.96003" lon="1.28291">
        <ele>483.8</ele>
        <time>2024-11-29T13:53:54Z</time>
      </trkpt>
      <trkpt lat="45.95998" lon="1.2829">
        <ele>482.8</ele>
        <time>2024-11-29T13:53:55Z</time>
      </trkpt>
      <trkpt lat="45.95992" lon="1.2829">
        <ele>481.6</ele>
        <time>2024-11-29T13:53:56Z</time>
      </trkpt>
      <trkpt lat="45.95985" lon="1.2829">
        <ele>480.2</ele>
        <time>2024-11-29T13:53:57Z</time>
      </trkpt>
      <trkpt lat="45.95977" lon="1.28291">
        <ele>478.6</ele>
        <time>2024-11-29T13:53:58Z</time>
      </trkpt>
      <trkpt lat="45.95969" lon="1.28293">
        <ele>477.1</ele>
        <time>2024-11-29T13:53:59Z</time>
      </trkpt>
      <trkpt lat="45.95961" lon="1.28295">
        <ele>475.7</ele>
        <time>2024-11-29T13:54:00Z</time>
      </trkpt>
      <trkpt lat="45.95953" lon="1.28297">
        <ele>474.5</ele>
        <time>2024-11-29T13:54:01Z</time>
      </trkpt>
      <trkpt lat="45.95945" lon="1.28298">
        <ele>473.4</ele>
        <time>2024-11-29T13:54:02Z</time>
      </trkpt>
      <trkpt lat="45.95938" lon="1.28299">
        <ele>472.6</ele>
        <time>2024-11-29T13:54:03Z</time>
      </trkpt>
      <trkpt lat="45.9593" lon="1.283">
        <ele>471.8</ele>
        <time>2024-11-29T13:54:04Z</time>
      </trkpt>
      <trkpt lat="45.95922" lon="1.28302">
        <ele>471.2</ele>
        <time>2024-11-29T13:54:05Z</time>
      </trkpt>
      <trkpt lat="45.95914" lon="1.28305">
        <ele>470.7</ele>
        <time>2024-11-29T13:54:06Z</time>
      </trkpt>
      <trkpt lat="45.95907" lon="1.28307">
        <ele>470.4</ele>
        <time>2024-11-29T13:54:07Z</time>
      </trkpt>
      <trkpt lat="45.959" lon="1.28311">
        <ele>470.2</ele>
        <time>2024-11-29T13:54:08Z</time>
      </trkpt>
      <trkpt lat="45.95894" lon="1.28313">
        <ele>470.1</ele>
        <time>2024-11-29T13:54:09Z</time>
      </trkpt>
      <trkpt lat="45.95888" lon="1.28315">
        <ele>470.1</ele>
        <time>2024-11-29T13:54:10Z</time>
      </trkpt>
      <trkpt lat="45.95882" lon="1.28318">
        <ele>470.1</ele>
        <time>2024-11-29T13:54:11Z</time>
      </trkpt>
      <trkpt lat="45.95876" lon="1.2832">
        <ele>470.1</ele>
        <time>2024-11-29T13:54:12Z</time>
      </trkpt>
      <trkpt lat="45.95871" lon="1.28321">
        <ele>470</ele>
        <time>2024-11-29T13:54:13Z</time>
      </trkpt>
      <trkpt lat="45.95865" lon="1.28322">
        <ele>470</ele>
        <time>2024-11-29T13:54:14Z</time>
      </trkpt>
      <trkpt lat="45.95859" lon="1.28323">
        <ele>469.9</ele>
        <time>2024-11-29T13:54:15Z</time>
      </trkpt>
      <trkpt lat="45.95852" lon="1.28322">
        <ele>469.8</ele>
        <time>2024-11-29T13:54:16Z</time>
      </trkpt>
      <trkpt lat="45.95846" lon="1.28321">
        <ele>469.7</ele>
        <time>2024-11-29T13:54:17Z</time>
      </trkpt>
      <trkpt lat="45.9584" lon="1.28319">
        <ele>469.4</ele>
        <time>2024-11-29T13:54:18Z</time>
      </trkpt>
      <trkpt lat="45.95834" lon="1.28314">
        <ele>469.1</ele>
        <time>2024-11-29T13:54:19Z</time>
      </trkpt>
      <trkpt lat="45.95827" lon="1.28308">
        <ele>468.3</ele>
        <time>2024-11-29T13:54:20Z</time>
      </trkpt>
      <trkpt lat="45.95822" lon="1.28301">
        <ele>467.5</ele>
        <time>2024-11-29T13:54:21Z</time>
      </trkpt>
      <trkpt lat="45.95816" lon="1.28292">
        <ele>466.5</ele>
        <time>2024-11-29T13:54:22Z</time>
      </trkpt>
      <trkpt lat="45.9581" lon="1.28284">
        <ele>465.5</ele>
        <time>2024-11-29T13:54:23Z</time>
      </trkpt>
      <trkpt lat="45.95804" lon="1.28277">
        <ele>464.8</ele>
        <time>2024-11-29T13:54:24Z</time>
      </trkpt>
      <trkpt lat="45.95798" lon="1.28268">
        <ele>464.2</ele>
        <time>2024-11-29T13:54:25Z</time>
      </trkpt>
      <trkpt lat="45.9579" lon="1.28259">
        <ele>463.4</ele>
        <time>2024-11-29T13:54:26Z</time>
      </trkpt>
      <trkpt lat="45.95785" lon="1.28252">
        <ele>462.9</ele>
        <time>2024-11-29T13:54:27Z</time>
      </trkpt>
      <trkpt lat="45.95779" lon="1.28246">
        <ele>462.2</ele>
        <time>2024-11-29T13:54:28Z</time>
      </trkpt>
      <trkpt lat="45.95775" lon="1.28239">
        <ele>461.6</ele>
        <time>2024-11-29T13:54:29Z</time>
      </trkpt>
      <trkpt lat="45.9577" lon="1.28232">
        <ele>460.9</ele>
        <time>2024-11-29T13:54:30Z</time>
      </trkpt>
      <trkpt lat="45.95767" lon="1.28228">
        <ele>460.6</ele>
        <time>2024-11-29T13:54:31Z</time>
      </trkpt>
      <trkpt lat="45.95762" lon="1.28224">
        <ele>460.1</ele>
        <time>2024-11-29T13:54:32Z</time>
      </trkpt>
      <trkpt lat="45.95757" lon="1.2822">
        <ele>459.7</ele>
        <time>2024-11-29T13:54:33Z</time>
      </trkpt>
      <trkpt lat="45.95752" lon="1.28216">
        <ele>459.4</ele>
        <time>2024-11-29T13:54:34Z</time>
      </trkpt>
      <trkpt lat="45.95746" lon="1.28214">
        <ele>459</ele>
        <time>2024-11-29T13:54:35Z</time>
      </trkpt>
      <trkpt lat="45.9574" lon="1.28213">
        <ele>458.7</ele>
        <time>2024-11-29T13:54:36Z</time>
      </trkpt>
      <trkpt lat="45.95732" lon="1.2821">
        <ele>458.4</ele>
        <time>2024-11-29T13:54:37Z</time>
      </trkpt>
      <trkpt lat="45.95724" lon="1.28207">
        <ele>458</ele>
        <time>2024-11-29T13:54:38Z</time>
      </trkpt>
      <trkpt lat="45.95718" lon="1.28204">
        <ele>457.8</ele>
        <time>2024-11-29T13:54:39Z</time>
      </trkpt>
      <trkpt lat="45.95711" lon="1.28201">
        <ele>457.5</ele>
        <time>2024-11-29T13:54:40Z</time>
      </trkpt>
      <trkpt lat="45.95704" lon="1.282">
        <ele>457.2</ele>
        <time>2024-11-29T13:54:41Z</time>
      </trkpt>
      <trkpt lat="45.95696" lon="1.28199">
        <ele>456.9</ele>
        <time>2024-11-29T13:54:42Z</time>
      </trkpt>
      <trkpt lat="45.95691" lon="1.28197">
        <ele>456.7</ele>
        <time>2024-11-29T13:54:43Z</time>
      </trkpt>
      <trkpt lat="45.95685" lon="1.28193">
        <ele>456.3</ele>
        <time>2024-11-29T13:54:44Z</time>
      </trkpt>
      <trkpt lat="45.95678" lon="1.28189">
        <ele>455.8</ele>
        <time>2024-11-29T13:54:45Z</time>
      </trkpt>
      <trkpt lat="45.95672" lon="1.28185">
        <ele>455.4</ele>
        <time>2024-11-29T13:54:46Z</time>
      </trkpt>
      <trkpt lat="45.95664" lon="1.28183">
        <ele>454.7</ele>
        <time>2024-11-29T13:54:47Z</time>
      </trkpt>
      <trkpt lat="45.95656" lon="1.28181">
        <ele>454.1</ele>
        <time>2024-11-29T13:54:48Z</time>
      </trkpt>
      <trkpt lat="45.95648" lon="1.28179">
        <ele>453.5</ele>
        <time>2024-11-29T13:54:49Z</time>
      </trkpt>
      <trkpt lat="45.9564" lon="1.28176">
        <ele>453</ele>
        <time>2024-11-29T13:54:50Z</time>
      </trkpt>
      <trkpt lat="45.95632" lon="1.28173">
        <ele>452.6</ele>
        <time>2024-11-29T13:54:51Z</time>
      </trkpt>
      <trkpt lat="45.95623" lon="1.28171">
        <ele>452.1</ele>
        <time>2024-11-29T13:54:52Z</time>
      </trkpt>
      <trkpt lat="45.95618" lon="1.28168">
        <ele>451.8</ele>
        <time>2024-11-29T13:54:53Z</time>
      </trkpt>
      <trkpt lat="45.95611" lon="1.28165">
        <ele>451.5</ele>
        <time>2024-11-29T13:54:54Z</time>
      </trkpt>
      <trkpt lat="45.95604" lon="1.28163">
        <ele>451.2</ele>
        <time>2024-11-29T13:54:55Z</time>
      </trkpt>
      <trkpt lat="45.95597" lon="1.28159">
        <ele>451</ele>
        <time>2024-11-29T13:54:56Z</time>
      </trkpt>
      <trkpt lat="45.95591" lon="1.28157">
        <ele>450.8</ele>
        <time>2024-11-29T13:54:57Z</time>
      </trkpt>
      <trkpt lat="45.95584" lon="1.28155">
        <ele>450.5</ele>
        <time>2024-11-29T13:54:58Z</time>
      </trkpt>
      <trkpt lat="45.95578" lon="1.28153">
        <ele>450.2</ele>
        <time>2024-11-29T13:54:59Z</time>
      </trkpt>
      <trkpt lat="45.9557" lon="1.28154">
        <ele>449.7</ele>
        <time>2024-11-29T13:55:00Z</time>
      </trkpt>
      <trkpt lat="45.95564" lon="1.28156">
        <ele>449.2</ele>
        <time>2024-11-29T13:55:01Z</time>
      </trkpt>
      <trkpt lat="45.95558" lon="1.28156">
        <ele>448.6</ele>
        <time>2024-11-29T13:55:02Z</time>
      </trkpt>
      <trkpt lat="45.95551" lon="1.28156">
        <ele>447.9</ele>
        <time>2024-11-29T13:55:03Z</time>
      </trkpt>
      <trkpt lat="45.95543" lon="1.28157">
        <ele>447.1</ele>
        <time>2024-11-29T13:55:04Z</time>
      </trkpt>
      <trkpt lat="45.95535" lon="1.28158">
        <ele>446.3</ele>
        <time>2024-11-29T13:55:05Z</time>
      </trkpt>
      <trkpt lat="45.95528" lon="1.28156">
        <ele>445.7</ele>
        <time>2024-11-29T13:55:06Z</time>
      </trkpt>
      <trkpt lat="45.95521" lon="1.28155">
        <ele>445.2</ele>
        <time>2024-11-29T13:55:07Z</time>
      </trkpt>
      <trkpt lat="45.95513" lon="1.28154">
        <ele>444.5</ele>
        <time>2024-11-29T13:55:08Z</time>
      </trkpt>
      <trkpt lat="45.95506" lon="1.28153">
        <ele>444</ele>
        <time>2024-11-29T13:55:09Z</time>
      </trkpt>
      <trkpt lat="45.95499" lon="1.2815">
        <ele>443.4</ele>
        <time>2024-11-29T13:55:10Z</time>
      </trkpt>
      <trkpt lat="45.95493" lon="1.28149">
        <ele>442.9</ele>
        <time>2024-11-29T13:55:11Z</time>
      </trkpt>
      <trkpt lat="45.95486" lon="1.28149">
        <ele>442.3</ele>
        <time>2024-11-29T13:55:12Z</time>
      </trkpt>
      <trkpt lat="45.9548" lon="1.28149">
        <ele>441.7</ele>
        <time>2024-11-29T13:55:13Z</time>
      </trkpt>
      <trkpt lat="45.95475" lon="1.28153">
        <ele>441.1</ele>
        <time>2024-11-29T13:55:14Z</time>
      </trkpt>
      <trkpt lat="45.95469" lon="1.28154">
        <ele>440.4</ele>
        <time>2024-11-29T13:55:15Z</time>
      </trkpt>
      <trkpt lat="45.95465" lon="1.28155">
        <ele>439.9</ele>
        <time>2024-11-29T13:55:16Z</time>
      </trkpt>
      <trkpt lat="45.95459" lon="1.28157">
        <ele>439.1</ele>
        <time>2024-11-29T13:55:17Z</time>
      </trkpt>
      <trkpt lat="45.95453" lon="1.28158">
        <ele>438.3</ele>
        <time>2024-11-29T13:55:18Z</time>
      </trkpt>
      <trkpt lat="45.95446" lon="1.28161">
        <ele>437.2</ele>
        <time>2024-11-29T13:55:19Z</time>
      </trkpt>
      <trkpt lat="45.9544" lon="1.28164">
        <ele>436.3</ele>
        <time>2024-11-29T13:55:20Z</time>
      </trkpt>
      <trkpt lat="45.95435" lon="1.28167">
        <ele>435.6</ele>
        <time>2024-11-29T13:55:21Z</time>
      </trkpt>
      <trkpt lat="45.95429" lon="1.2817">
        <ele>434.8</ele>
        <time>2024-11-29T13:55:22Z</time>
      </trkpt>
      <trkpt lat="45.95424" lon="1.28169">
        <ele>434.2</ele>
        <time>2024-11-29T13:55:24Z</time>
      </trkpt>
      <trkpt lat="45.95419" lon="1.2817">
        <ele>433.7</ele>
        <time>2024-11-29T13:55:25Z</time>
      </trkpt>
      <trkpt lat="45.95413" lon="1.2817">
        <ele>433.1</ele>
        <time>2024-11-29T13:55:26Z</time>
      </trkpt>
      <trkpt lat="45.95408" lon="1.28169">
        <ele>432.6</ele>
        <time>2024-11-29T13:55:27Z</time>
      </trkpt>
      <trkpt lat="45.95403" lon="1.28168">
        <ele>432.2</ele>
        <time>2024-11-29T13:55:28Z</time>
      </trkpt>
      <trkpt lat="45.95399" lon="1.28169">
        <ele>431.9</ele>
        <time>2024-11-29T13:55:30Z</time>
      </trkpt>
      <trkpt lat="45.95394" lon="1.28169">
        <ele>431.6</ele>
        <time>2024-11-29T13:55:31Z</time>
      </trkpt>
      <trkpt lat="45.95389" lon="1.28167">
        <ele>431.2</ele>
        <time>2024-11-29T13:55:32Z</time>
      </trkpt>
      <trkpt lat="45.95385" lon="1.28165">
        <ele>430.9</ele>
        <time>2024-11-29T13:55:33Z</time>
      </trkpt>
      <trkpt lat="45.95379" lon="1.28164">
        <ele>430.6</ele>
        <time>2024-11-29T13:55:34Z</time>
      </trkpt>
      <trkpt lat="45.95373" lon="1.28163">
        <ele>430.3</ele>
        <time>2024-11-29T13:55:35Z</time>
      </trkpt>
      <trkpt lat="45.95367" lon="1.28161">
        <ele>430</ele>
        <time>2024-11-29T13:55:36Z</time>
      </trkpt>
      <trkpt lat="45.9536" lon="1.28161">
        <ele>429.7</ele>
        <time>2024-11-29T13:55:37Z</time>
      </trkpt>
      <trkpt lat="45.95353" lon="1.2816">
        <ele>429.5</ele>
        <time>2024-11-29T13:55:38Z</time>
      </trkpt>
      <trkpt lat="45.95346" lon="1.2816">
        <ele>429.3</ele>
        <time>2024-11-29T13:55:39Z</time>
      </trkpt>
      <trkpt lat="45.95339" lon="1.28159">
        <ele>429.1</ele>
        <time>2024-11-29T13:55:40Z</time>
      </trkpt>
      <trkpt lat="45.95334" lon="1.28159">
        <ele>429</ele>
        <time>2024-11-29T13:55:41Z</time>
      </trkpt>
      <trkpt lat="45.95327" lon="1.28157">
        <ele>428.8</ele>
        <time>2024-11-29T13:55:42Z</time>
      </trkpt>
      <trkpt lat="45.95321" lon="1.28156">
        <ele>428.6</ele>
        <time>2024-11-29T13:55:43Z</time>
      </trkpt>
      <trkpt lat="45.95314" lon="1.28154">
        <ele>428.4</ele>
        <time>2024-11-29T13:55:44Z</time>
      </trkpt>
      <trkpt lat="45.95308" lon="1.2815">
        <ele>428.1</ele>
        <time>2024-11-29T13:55:45Z</time>
      </trkpt>
      <trkpt lat="45.95303" lon="1.28147">
        <ele>427.8</ele>
        <time>2024-11-29T13:55:46Z</time>
      </trkpt>
      <trkpt lat="45.95296" lon="1.28145">
        <ele>427.5</ele>
        <time>2024-11-29T13:55:47Z</time>
      </trkpt>
      <trkpt lat="45.95289" lon="1.28144">
        <ele>427.3</ele>
        <time>2024-11-29T13:55:48Z</time>
      </trkpt>
      <trkpt lat="45.95283" lon="1.28144">
        <ele>427.1</ele>
        <time>2024-11-29T13:55:49Z</time>
      </trkpt>
      <trkpt lat="45.95277" lon="1.28144">
        <ele>427</ele>
        <time>2024-11-29T13:55:50Z</time>
      </trkpt>
      <trkpt lat="45.9527" lon="1.28144">
        <ele>426.9</ele>
        <time>2024-11-29T13:55:51Z</time>
      </trkpt>
      <trkpt lat="45.95264" lon="1.28146">
        <ele>426.7</ele>
        <time>2024-11-29T13:55:52Z</time>
      </trkpt>
      <trkpt lat="45.95258" lon="1.28147">
        <ele>426.6</ele>
        <time>2024-11-29T13:55:53Z</time>
      </trkpt>
      <trkpt lat="45.95252" lon="1.28148">
        <ele>426.5</ele>
        <time>2024-11-29T13:55:54Z</time>
      </trkpt>
      <trkpt lat="45.95246" lon="1.28149">
        <ele>426.3</ele>
        <time>2024-11-29T13:55:55Z</time>
      </trkpt>
      <trkpt lat="45.9524" lon="1.2815">
        <ele>426.2</ele>
        <time>2024-11-29T13:55:56Z</time>
      </trkpt>
      <trkpt lat="45.95233" lon="1.2815">
        <ele>426.1</ele>
        <time>2024-11-29T13:55:57Z</time>
      </trkpt>
      <trkpt lat="45.95227" lon="1.28152">
        <ele>426</ele>
        <time>2024-11-29T13:55:58Z</time>
      </trkpt>
      <trkpt lat="45.95221" lon="1.28152">
        <ele>425.9</ele>
        <time>2024-11-29T13:55:59Z</time>
      </trkpt>
      <trkpt lat="45.95215" lon="1.28153">
        <ele>425.8</ele>
        <time>2024-11-29T13:56:00Z</time>
      </trkpt>
      <trkpt lat="45.95208" lon="1.28154">
        <ele>425.7</ele>
        <time>2024-11-29T13:56:01Z</time>
      </trkpt>
      <trkpt lat="45.95203" lon="1.28154">
        <ele>425.6</ele>
        <time>2024-11-29T13:56:02Z</time>
      </trkpt>
      <trkpt lat="45.95196" lon="1.28154">
        <ele>425.5</ele>
        <time>2024-11-29T13:56:03Z</time>
      </trkpt>
      <trkpt lat="45.95189" lon="1.28156">
        <ele>425.5</ele>
        <time>2024-11-29T13:56:04Z</time>
      </trkpt>
      <trkpt lat="45.95183" lon="1.28156">
        <ele>425.4</ele>
        <time>2024-11-29T13:56:05Z</time>
      </trkpt>
      <trkpt lat="45.95176" lon="1.28156">
        <ele>425.3</ele>
        <time>2024-11-29T13:56:06Z</time>
      </trkpt>
      <trkpt lat="45.95169" lon="1.28157">
        <ele>425.2</ele>
        <time>2024-11-29T13:56:07Z</time>
      </trkpt>
      <trkpt lat="45.95163" lon="1.28157">
        <ele>425.2</ele>
        <time>2024-11-29T13:56:08Z</time>
      </trkpt>
      <trkpt lat="45.95157" lon="1.28157">
        <ele>425.1</ele>
        <time>2024-11-29T13:56:09Z</time>
      </trkpt>
      <trkpt lat="45.95151" lon="1.28157">
        <ele>425.1</ele>
        <time>2024-11-29T13:56:10Z</time>
      </trkpt>
      <trkpt lat="45.95144" lon="1.28158">
        <ele>425</ele>
        <time>2024-11-29T13:56:11Z</time>
      </trkpt>
      <trkpt lat="45.95139" lon="1.28157">
        <ele>424.9</ele>
        <time>2024-11-29T13:56:12Z</time>
      </trkpt>
      <trkpt lat="45.95132" lon="1.28158">
        <ele>424.8</ele>
        <time>2024-11-29T13:56:13Z</time>
      </trkpt>
      <trkpt lat="45.95126" lon="1.28158">
        <ele>424.7</ele>
        <time>2024-11-29T13:56:14Z</time>
      </trkpt>
      <trkpt lat="45.9512" lon="1.2816">
        <ele>424.6</ele>
        <time>2024-11-29T13:56:15Z</time>
      </trkpt>
      <trkpt lat="45.95114" lon="1.28163">
        <ele>424.5</ele>
        <time>2024-11-29T13:56:16Z</time>
      </trkpt>
      <trkpt lat="45.95109" lon="1.28165">
        <ele>424.4</ele>
        <time>2024-11-29T13:56:17Z</time>
      </trkpt>
      <trkpt lat="45.95104" lon="1.28169">
        <ele>424.3</ele>
        <time>2024-11-29T13:56:18Z</time>
      </trkpt>
      <trkpt lat="45.95099" lon="1.28174">
        <ele>424.2</ele>
        <time>2024-11-29T13:56:19Z</time>
      </trkpt>
      <trkpt lat="45.95095" lon="1.28179">
        <ele>424.1</ele>
        <time>2024-11-29T13:56:20Z</time>
      </trkpt>
      <trkpt lat="45.9509" lon="1.28184">
        <ele>424</ele>
        <time>2024-11-29T13:56:21Z</time>
      </trkpt>
      <trkpt lat="45.95086" lon="1.2819">
        <ele>423.9</ele>
        <time>2024-11-29T13:56:22Z</time>
      </trkpt>
      <trkpt lat="45.95083" lon="1.28197">
        <ele>423.9</ele>
        <time>2024-11-29T13:56:23Z</time>
      </trkpt>
      <trkpt lat="45.95081" lon="1.28204">
        <ele>423.9</ele>
        <time>2024-11-29T13:56:24Z</time>
      </trkpt>
      <trkpt lat="45.95079" lon="1.28212">
        <ele>424</ele>
        <time>2024-11-29T13:56:25Z</time>
      </trkpt>
      <trkpt lat="45.95077" lon="1.28218">
        <ele>424.1</ele>
        <time>2024-11-29T13:56:26Z</time>
      </trkpt>
      <trkpt lat="45.95076" lon="1.28225">
        <ele>424.2</ele>
        <time>2024-11-29T13:56:27Z</time>
      </trkpt>
      <trkpt lat="45.95075" lon="1.28232">
        <ele>424.3</ele>
        <time>2024-11-29T13:56:28Z</time>
      </trkpt>
      <trkpt lat="45.95075" lon="1.28238">
        <ele>424.4</ele>
        <time>2024-11-29T13:56:29Z</time>
      </trkpt>
      <trkpt lat="45.95076" lon="1.28244">
        <ele>424.5</ele>
        <time>2024-11-29T13:56:30Z</time>
      </trkpt>
      <trkpt lat="45.95076" lon="1.2825">
        <ele>424.6</ele>
        <time>2024-11-29T13:56:31Z</time>
      </trkpt>
      <trkpt lat="45.95077" lon="1.28254">
        <ele>424.7</ele>
        <time>2024-11-29T13:56:32Z</time>
      </trkpt>
      <trkpt lat="45.95077" lon="1.2826">
        <ele>424.8</ele>
        <time>2024-11-29T13:56:33Z</time>
      </trkpt>
      <trkpt lat="45.95077" lon="1.28265">
        <ele>424.8</ele>
        <time>2024-11-29T13:56:34Z</time>
      </trkpt>
      <trkpt lat="45.95077" lon="1.2827">
        <ele>424.8</ele>
        <time>2024-11-29T13:56:35Z</time>
      </trkpt>
      <trkpt lat="45.95077" lon="1.28276">
        <ele>424.8</ele>
        <time>2024-11-29T13:56:36Z</time>
      </trkpt>
      <trkpt lat="45.95077" lon="1.28281">
        <ele>424.7</ele>
        <time>2024-11-29T13:56:37Z</time>
      </trkpt>
      <trkpt lat="45.95076" lon="1.28287">
        <ele>424.6</ele>
        <time>2024-11-29T13:56:38Z</time>
      </trkpt>
      <trkpt lat="45.95076" lon="1.28292">
        <ele>424.6</ele>
        <time>2024-11-29T13:56:39Z</time>
      </trkpt>
      <trkpt lat="45.95075" lon="1.28297">
        <ele>424.5</ele>
        <time>2024-11-29T13:56:40Z</time>
      </trkpt>
      <trkpt lat="45.95073" lon="1.28303">
        <ele>424.4</ele>
        <time>2024-11-29T13:56:41Z</time>
      </trkpt>
      <trkpt lat="45.95071" lon="1.28309">
        <ele>424.3</ele>
        <time>2024-11-29T13:56:42Z</time>
      </trkpt>
      <trkpt lat="45.95068" lon="1.28315">
        <ele>424.2</ele>
        <time>2024-11-29T13:56:43Z</time>
      </trkpt>
      <trkpt lat="45.95066" lon="1.2832">
        <ele>424.1</ele>
        <time>2024-11-29T13:56:44Z</time>
      </trkpt>
      <trkpt lat="45.95063" lon="1.28326">
        <ele>424</ele>
        <time>2024-11-29T13:56:45Z</time>
      </trkpt>
      <trkpt lat="45.95059" lon="1.28331">
        <ele>423.9</ele>
        <time>2024-11-29T13:56:46Z</time>
      </trkpt>
      <trkpt lat="45.95055" lon="1.28335">
        <ele>423.9</ele>
        <time>2024-11-29T13:56:47Z</time>
      </trkpt>
      <trkpt lat="45.9505" lon="1.28338">
        <ele>423.8</ele>
        <time>2024-11-29T13:56:48Z</time>
      </trkpt>
      <trkpt lat="45.95046" lon="1.28341">
        <ele>423.8</ele>
        <time>2024-11-29T13:56:49Z</time>
      </trkpt>
      <trkpt lat="45.95041" lon="1.28344">
        <ele>423.7</ele>
        <time>2024-11-29T13:56:50Z</time>
      </trkpt>
      <trkpt lat="45.95036" lon="1.28346">
        <ele>423.7</ele>
        <time>2024-11-29T13:56:51Z</time>
      </trkpt>
      <trkpt lat="45.95032" lon="1.28349">
        <ele>423.6</ele>
        <time>2024-11-29T13:56:52Z</time>
      </trkpt>
      <trkpt lat="45.95027" lon="1.28351">
        <ele>423.5</ele>
        <time>2024-11-29T13:56:53Z</time>
      </trkpt>
      <trkpt lat="45.95022" lon="1.28354">
        <ele>423.4</ele>
        <time>2024-11-29T13:56:54Z</time>
      </trkpt>
      <trkpt lat="45.95018" lon="1.28356">
        <ele>423.4</ele>
        <time>2024-11-29T13:56:55Z</time>
      </trkpt>
      <trkpt lat="45.95013" lon="1.28359">
        <ele>423.3</ele>
        <time>2024-11-29T13:56:56Z</time>
      </trkpt>
      <trkpt lat="45.95008" lon="1.28361">
        <ele>423.2</ele>
        <time>2024-11-29T13:56:57Z</time>
      </trkpt>
      <trkpt lat="45.95003" lon="1.28364">
        <ele>423.1</ele>
        <time>2024-11-29T13:56:58Z</time>
      </trkpt>
      <trkpt lat="45.94997" lon="1.28366">
        <ele>423.1</ele>
        <time>2024-11-29T13:56:59Z</time>
      </trkpt>
      <trkpt lat="45.94992" lon="1.28368">
        <ele>423</ele>
        <time>2024-11-29T13:57:00Z</time>
      </trkpt>
      <trkpt lat="45.94987" lon="1.2837">
        <ele>423</ele>
        <time>2024-11-29T13:57:01Z</time>
      </trkpt>
      <trkpt lat="45.94982" lon="1.28373">
        <ele>423</ele>
        <time>2024-11-29T13:57:02Z</time>
      </trkpt>
      <trkpt lat="45.94976" lon="1.28376">
        <ele>423</ele>
        <time>2024-11-29T13:57:03Z</time>
      </trkpt>
      <trkpt lat="45.94971" lon="1.28378">
        <ele>423</ele>
        <time>2024-11-29T13:57:04Z</time>
      </trkpt>
      <trkpt lat="45.94967" lon="1.28381">
        <ele>423</ele>
        <time>2024-11-29T13:57:05Z</time>
      </trkpt>
      <trkpt lat="45.94962" lon="1.28383">
        <ele>423</ele>
        <time>2024-11-29T13:57:06Z</time>
      </trkpt>
      <trkpt lat="45.94957" lon="1.28385">
        <ele>423</ele>
        <time>2024-11-29T13:57:07Z</time>
      </trkpt>
      <trkpt lat="45.94953" lon="1.28387">
        <ele>423</ele>
        <time>2024-11-29T13:57:08Z</time>
      </trkpt>
      <trkpt lat="45.94948" lon="1.28389">
        <ele>423</ele>
        <time>2024-11-29T13:57:09Z</time>
      </trkpt>
      <trkpt lat="45.94944" lon="1.28391">
        <ele>423</ele>
        <time>2024-11-29T13:57:10Z</time>
      </trkpt>
      <trkpt lat="45.94939" lon="1.28393">
        <ele>423.1</ele>
        <time>2024-11-29T13:57:11Z</time>
      </trkpt>
      <trkpt lat="45.94934" lon="1.28395">
        <ele>423</ele>
        <time>2024-11-29T13:57:12Z</time>
      </trkpt>
      <trkpt lat="45.94929" lon="1.28395">
        <ele>423</ele>
        <time>2024-11-29T13:57:13Z</time>
      </trkpt>
      <trkpt lat="45.94923" lon="1.28397">
        <ele>422.8</ele>
        <time>2024-11-29T13:57:14Z</time>
      </trkpt>
      <trkpt lat="45.94918" lon="1.28399">
        <ele>422.7</ele>
        <time>2024-11-29T13:57:15Z</time>
      </trkpt>
      <trkpt lat="45.94913" lon="1.28403">
        <ele>422.5</ele>
        <time>2024-11-29T13:57:16Z</time>
      </trkpt>
      <trkpt lat="45.94908" lon="1.28407">
        <ele>422.4</ele>
        <time>2024-11-29T13:57:17Z</time>
      </trkpt>
      <trkpt lat="45.94902" lon="1.28412">
        <ele>422.3</ele>
        <time>2024-11-29T13:57:18Z</time>
      </trkpt>
      <trkpt lat="45.94897" lon="1.28416">
        <ele>422.3</ele>
        <time>2024-11-29T13:57:19Z</time>
      </trkpt>
      <trkpt lat="45.94892" lon="1.28421">
        <ele>422.2</ele>
        <time>2024-11-29T13:57:20Z</time>
      </trkpt>
      <trkpt lat="45.94887" lon="1.28425">
        <ele>422.2</ele>
        <time>2024-11-29T13:57:21Z</time>
      </trkpt>
      <trkpt lat="45.94881" lon="1.28429">
        <ele>422.2</ele>
        <time>2024-11-29T13:57:22Z</time>
      </trkpt>
      <trkpt lat="45.94876" lon="1.28432">
        <ele>422.2</ele>
        <time>2024-11-29T13:57:23Z</time>
      </trkpt>
      <trkpt lat="45.9487" lon="1.28434">
        <ele>422.2</ele>
        <time>2024-11-29T13:57:24Z</time>
      </trkpt>
      <trkpt lat="45.94865" lon="1.28436">
        <ele>422.2</ele>
        <time>2024-11-29T13:57:25Z</time>
      </trkpt>
      <trkpt lat="45.9486" lon="1.28438">
        <ele>422.1</ele>
        <time>2024-11-29T13:57:26Z</time>
      </trkpt>
      <trkpt lat="45.94854" lon="1.2844">
        <ele>422.1</ele>
        <time>2024-11-29T13:57:27Z</time>
      </trkpt>
      <trkpt lat="45.94848" lon="1.28441">
        <ele>422.1</ele>
        <time>2024-11-29T13:57:28Z</time>
      </trkpt>
      <trkpt lat="45.94843" lon="1.28442">
        <ele>422</ele>
        <time>2024-11-29T13:57:29Z</time>
      </trkpt>
      <trkpt lat="45.94837" lon="1.28442">
        <ele>422</ele>
        <time>2024-11-29T13:57:30Z</time>
      </trkpt>
      <trkpt lat="45.94831" lon="1.28442">
        <ele>422</ele>
        <time>2024-11-29T13:57:31Z</time>
      </trkpt>
      <trkpt lat="45.94826" lon="1.28441">
        <ele>422</ele>
        <time>2024-11-29T13:57:32Z</time>
      </trkpt>
      <trkpt lat="45.9482" lon="1.28441">
        <ele>422</ele>
        <time>2024-11-29T13:57:33Z</time>
      </trkpt>
      <trkpt lat="45.94815" lon="1.28439">
        <ele>422</ele>
        <time>2024-11-29T13:57:34Z</time>
      </trkpt>
      <trkpt lat="45.94809" lon="1.28438">
        <ele>422</ele>
        <time>2024-11-29T13:57:35Z</time>
      </trkpt>
      <trkpt lat="45.94803" lon="1.28437">
        <ele>422</ele>
        <time>2024-11-29T13:57:36Z</time>
      </trkpt>
      <trkpt lat="45.94797" lon="1.28436">
        <ele>422</ele>
        <time>2024-11-29T13:57:37Z</time>
      </trkpt>
      <trkpt lat="45.94791" lon="1.28435">
        <ele>421.9</ele>
        <time>2024-11-29T13:57:38Z</time>
      </trkpt>
      <trkpt lat="45.94786" lon="1.28434">
        <ele>421.9</ele>
        <time>2024-11-29T13:57:39Z</time>
      </trkpt>
      <trkpt lat="45.9478" lon="1.28434">
        <ele>421.9</ele>
        <time>2024-11-29T13:57:40Z</time>
      </trkpt>
      <trkpt lat="45.94774" lon="1.28433">
        <ele>421.8</ele>
        <time>2024-11-29T13:57:41Z</time>
      </trkpt>
      <trkpt lat="45.94769" lon="1.28432">
        <ele>421.8</ele>
        <time>2024-11-29T13:57:42Z</time>
      </trkpt>
      <trkpt lat="45.94763" lon="1.2843">
        <ele>421.8</ele>
        <time>2024-11-29T13:57:43Z</time>
      </trkpt>
      <trkpt lat="45.94758" lon="1.28429">
        <ele>421.7</ele>
        <time>2024-11-29T13:57:44Z</time>
      </trkpt>
      <trkpt lat="45.94752" lon="1.28427">
        <ele>421.7</ele>
        <time>2024-11-29T13:57:45Z</time>
      </trkpt>
      <trkpt lat="45.94746" lon="1.28426">
        <ele>421.7</ele>
        <time>2024-11-29T13:57:46Z</time>
      </trkpt>
      <trkpt lat="45.9474" lon="1.28424">
        <ele>421.8</ele>
        <time>2024-11-29T13:57:47Z</time>
      </trkpt>
      <trkpt lat="45.94735" lon="1.28423">
        <ele>421.8</ele>
        <time>2024-11-29T13:57:48Z</time>
      </trkpt>
      <trkpt lat="45.9473" lon="1.28422">
        <ele>421.8</ele>
        <time>2024-11-29T13:57:49Z</time>
      </trkpt>
      <trkpt lat="45.94724" lon="1.28421">
        <ele>421.8</ele>
        <time>2024-11-29T13:57:50Z</time>
      </trkpt>
      <trkpt lat="45.94719" lon="1.28418">
        <ele>421.8</ele>
        <time>2024-11-29T13:57:51Z</time>
      </trkpt>
      <trkpt lat="45.94714" lon="1.28413">
        <ele>421.8</ele>
        <time>2024-11-29T13:57:52Z</time>
      </trkpt>
      <trkpt lat="45.9471" lon="1.28406">
        <ele>421.7</ele>
        <time>2024-11-29T13:57:53Z</time>
      </trkpt>
      <trkpt lat="45.94707" lon="1.28399">
        <ele>421.6</ele>
        <time>2024-11-29T13:57:54Z</time>
      </trkpt>
      <trkpt lat="45.94703" lon="1.28393">
        <ele>421.6</ele>
        <time>2024-11-29T13:57:55Z</time>
      </trkpt>
      <trkpt lat="45.947" lon="1.28385">
        <ele>421.6</ele>
        <time>2024-11-29T13:57:56Z</time>
      </trkpt>
      <trkpt lat="45.94697" lon="1.28378">
        <ele>421.7</ele>
        <time>2024-11-29T13:57:57Z</time>
      </trkpt>
      <trkpt lat="45.94695" lon="1.28371">
        <ele>421.8</ele>
        <time>2024-11-29T13:57:58Z</time>
      </trkpt>
      <trkpt lat="45.94692" lon="1.28364">
        <ele>421.8</ele>
        <time>2024-11-29T13:57:59Z</time>
      </trkpt>
      <trkpt lat="45.9469" lon="1.28358">
        <ele>421.9</ele>
        <time>2024-11-29T13:58:00Z</time>
      </trkpt>
      <trkpt lat="45.94687" lon="1.28352">
        <ele>421.9</ele>
        <time>2024-11-29T13:58:01Z</time>
      </trkpt>
      <trkpt lat="45.94686" lon="1.28345">
        <ele>421.9</ele>
        <time>2024-11-29T13:58:02Z</time>
      </trkpt>
      <trkpt lat="45.94684" lon="1.28338">
        <ele>422</ele>
        <time>2024-11-29T13:58:03Z</time>
      </trkpt>
      <trkpt lat="45.94684" lon="1.28331">
        <ele>422</ele>
        <time>2024-11-29T13:58:04Z</time>
      </trkpt>
      <trkpt lat="45.94685" lon="1.28326">
        <ele>422.1</ele>
        <time>2024-11-29T13:58:05Z</time>
      </trkpt>
      <trkpt lat="45.94687" lon="1.28321">
        <ele>422.1</ele>
        <time>2024-11-29T13:58:06Z</time>
      </trkpt>
      <trkpt lat="45.94689" lon="1.28317">
        <ele>422.1</ele>
        <time>2024-11-29T13:58:07Z</time>
      </trkpt>
      <trkpt lat="45.94688" lon="1.28312">
        <ele>422.1</ele>
        <time>2024-11-29T13:58:09Z</time>
      </trkpt>
      <trkpt lat="45.94686" lon="1.28312">
        <ele>422.1</ele>
        <time>2024-11-29T13:58:11Z</time>
      </trkpt>
      <trkpt lat="45.94685" lon="1.28315">
        <ele>422.1</ele>
        <time>2024-11-29T13:58:12Z</time>
      </trkpt>
      <trkpt lat="45.94686" lon="1.2832">
        <ele>422.1</ele>
        <time>2024-11-29T13:58:13Z</time>
      </trkpt>
      <trkpt lat="45.94684" lon="1.28325">
        <ele>422.1</ele>
        <time>2024-11-29T13:58:14Z</time>
      </trkpt>
      <trkpt lat="45.94681" lon="1.28329">
        <ele>421.9</ele>
        <time>2024-11-29T13:58:15Z</time>
      </trkpt>
      <trkpt lat="45.94677" lon="1.28332">
        <ele>421.5</ele>
        <time>2024-11-29T13:58:16Z</time>
      </trkpt>
      <trkpt lat="45.94672" lon="1.28334">
        <ele>421</ele>
        <time>2024-11-29T13:58:17Z</time>
      </trkpt>
      <trkpt lat="45.94666" lon="1.28339">
        <ele>420.4</ele>
        <time>2024-11-29T13:58:18Z</time>
      </trkpt>
      <trkpt lat="45.9466" lon="1.28345">
        <ele>419.8</ele>
        <time>2024-11-29T13:58:19Z</time>
      </trkpt>
      <trkpt lat="45.94655" lon="1.28351">
        <ele>419.3</ele>
        <time>2024-11-29T13:58:20Z</time>
      </trkpt>
      <trkpt lat="45.94653" lon="1.28356">
        <ele>419</ele>
        <time>2024-11-29T13:58:21Z</time>
      </trkpt>
      <trkpt lat="45.94649" lon="1.28365">
        <ele>418.6</ele>
        <time>2024-11-29T13:58:22Z</time>
      </trkpt>
      <trkpt lat="45.94645" lon="1.28373">
        <ele>418.3</ele>
        <time>2024-11-29T13:58:23Z</time>
      </trkpt>
      <trkpt lat="45.94641" lon="1.2838">
        <ele>418</ele>
        <time>2024-11-29T13:58:24Z</time>
      </trkpt>
      <trkpt lat="45.94636" lon="1.28386">
        <ele>417.9</ele>
        <time>2024-11-29T13:58:25Z</time>
      </trkpt>
      <trkpt lat="45.94631" lon="1.28392">
        <ele>417.7</ele>
        <time>2024-11-29T13:58:26Z</time>
      </trkpt>
      <trkpt lat="45.94626" lon="1.28397">
        <ele>417.6</ele>
        <time>2024-11-29T13:58:27Z</time>
      </trkpt>
      <trkpt lat="45.9462" lon="1.28402">
        <ele>417.6</ele>
        <time>2024-11-29T13:58:28Z</time>
      </trkpt>
      <trkpt lat="45.94615" lon="1.28405">
        <ele>417.5</ele>
        <time>2024-11-29T13:58:29Z</time>
      </trkpt>
      <trkpt lat="45.94609" lon="1.28409">
        <ele>417.4</ele>
        <time>2024-11-29T13:58:30Z</time>
      </trkpt>
      <trkpt lat="45.94604" lon="1.28413">
        <ele>417.3</ele>
        <time>2024-11-29T13:58:31Z</time>
      </trkpt>
      <trkpt lat="45.94599" lon="1.28417">
        <ele>417.3</ele>
        <time>2024-11-29T13:58:32Z</time>
      </trkpt>
      <trkpt lat="45.94594" lon="1.28421">
        <ele>417.3</ele>
        <time>2024-11-29T13:58:33Z</time>
      </trkpt>
      <trkpt lat="45.94589" lon="1.28426">
        <ele>417.3</ele>
        <time>2024-11-29T13:58:34Z</time>
      </trkpt>
      <trkpt lat="45.94583" lon="1.28431">
        <ele>417.4</ele>
        <time>2024-11-29T13:58:35Z</time>
      </trkpt>
      <trkpt lat="45.94576" lon="1.28436">
        <ele>417.5</ele>
        <time>2024-11-29T13:58:36Z</time>
      </trkpt>
      <trkpt lat="45.94571" lon="1.28439">
        <ele>417.6</ele>
        <time>2024-11-29T13:58:37Z</time>
      </trkpt>
      <trkpt lat="45.94566" lon="1.28443">
        <ele>417.7</ele>
        <time>2024-11-29T13:58:38Z</time>
      </trkpt>
      <trkpt lat="45.94561" lon="1.28447">
        <ele>417.9</ele>
        <time>2024-11-29T13:58:39Z</time>
      </trkpt>
      <trkpt lat="45.94556" lon="1.28451">
        <ele>418.1</ele>
        <time>2024-11-29T13:58:40Z</time>
      </trkpt>
      <trkpt lat="45.94551" lon="1.28455">
        <ele>418.3</ele>
        <time>2024-11-29T13:58:41Z</time>
      </trkpt>
      <trkpt lat="45.94546" lon="1.28458">
        <ele>418.5</ele>
        <time>2024-11-29T13:58:42Z</time>
      </trkpt>
      <trkpt lat="45.94541" lon="1.28461">
        <ele>418.6</ele>
        <time>2024-11-29T13:58:43Z</time>
      </trkpt>
      <trkpt lat="45.94536" lon="1.28463">
        <ele>418.7</ele>
        <time>2024-11-29T13:58:44Z</time>
      </trkpt>
      <trkpt lat="45.94531" lon="1.28467">
        <ele>418.9</ele>
        <time>2024-11-29T13:58:45Z</time>
      </trkpt>
      <trkpt lat="45.94526" lon="1.2847">
        <ele>418.9</ele>
        <time>2024-11-29T13:58:46Z</time>
      </trkpt>
      <trkpt lat="45.9452" lon="1.28473">
        <ele>418.9</ele>
        <time>2024-11-29T13:58:47Z</time>
      </trkpt>
      <trkpt lat="45.94515" lon="1.28476">
        <ele>418.9</ele>
        <time>2024-11-29T13:58:48Z</time>
      </trkpt>
      <trkpt lat="45.94509" lon="1.28479">
        <ele>418.8</ele>
        <time>2024-11-29T13:58:49Z</time>
      </trkpt>
      <trkpt lat="45.94504" lon="1.28481">
        <ele>418.7</ele>
        <time>2024-11-29T13:58:50Z</time>
      </trkpt>
      <trkpt lat="45.94499" lon="1.28485">
        <ele>418.5</ele>
        <time>2024-11-29T13:58:51Z</time>
      </trkpt>
      <trkpt lat="45.94493" lon="1.28488">
        <ele>418.2</ele>
        <time>2024-11-29T13:58:52Z</time>
      </trkpt>
      <trkpt lat="45.94487" lon="1.28491">
        <ele>417.8</ele>
        <time>2024-11-29T13:58:53Z</time>
      </trkpt>
      <trkpt lat="45.94481" lon="1.28494">
        <ele>417.3</ele>
        <time>2024-11-29T13:58:54Z</time>
      </trkpt>
      <trkpt lat="45.94475" lon="1.28496">
        <ele>416.7</ele>
        <time>2024-11-29T13:58:55Z</time>
      </trkpt>
      <trkpt lat="45.94471" lon="1.28496">
        <ele>416.3</ele>
        <time>2024-11-29T13:58:56Z</time>
      </trkpt>
      <trkpt lat="45.94466" lon="1.28497">
        <ele>415.9</ele>
        <time>2024-11-29T13:58:57Z</time>
      </trkpt>
      <trkpt lat="45.94461" lon="1.28498">
        <ele>415.4</ele>
        <time>2024-11-29T13:58:58Z</time>
      </trkpt>
      <trkpt lat="45.94455" lon="1.28501">
        <ele>414.7</ele>
        <time>2024-11-29T13:58:59Z</time>
      </trkpt>
      <trkpt lat="45.94448" lon="1.28503">
        <ele>414.1</ele>
        <time>2024-11-29T13:59:00Z</time>
      </trkpt>
      <trkpt lat="45.94442" lon="1.28506">
        <ele>413.5</ele>
        <time>2024-11-29T13:59:01Z</time>
      </trkpt>
      <trkpt lat="45.94435" lon="1.28509">
        <ele>413.1</ele>
        <time>2024-11-29T13:59:02Z</time>
      </trkpt>
      <trkpt lat="45.94429" lon="1.28511">
        <ele>412.8</ele>
        <time>2024-11-29T13:59:03Z</time>
      </trkpt>
      <trkpt lat="45.94423" lon="1.28514">
        <ele>412.6</ele>
        <time>2024-11-29T13:59:04Z</time>
      </trkpt>
      <trkpt lat="45.94418" lon="1.28517">
        <ele>412.5</ele>
        <time>2024-11-29T13:59:05Z</time>
      </trkpt>
      <trkpt lat="45.94414" lon="1.28521">
        <ele>412.5</ele>
        <time>2024-11-29T13:59:06Z</time>
      </trkpt>
      <trkpt lat="45.9441" lon="1.28524">
        <ele>412.5</ele>
        <time>2024-11-29T13:59:07Z</time>
      </trkpt>
      <trkpt lat="45.94405" lon="1.28527">
        <ele>412.5</ele>
        <time>2024-11-29T13:59:08Z</time>
      </trkpt>
      <trkpt lat="45.94399" lon="1.2853">
        <ele>412.6</ele>
        <time>2024-11-29T13:59:09Z</time>
      </trkpt>
      <trkpt lat="45.94392" lon="1.28533">
        <ele>412.7</ele>
        <time>2024-11-29T13:59:10Z</time>
      </trkpt>
      <trkpt lat="45.94386" lon="1.28534">
        <ele>412.9</ele>
        <time>2024-11-29T13:59:11Z</time>
      </trkpt>
      <trkpt lat="45.9438" lon="1.28535">
        <ele>413.3</ele>
        <time>2024-11-29T13:59:12Z</time>
      </trkpt>
      <trkpt lat="45.94376" lon="1.28535">
        <ele>413.5</ele>
        <time>2024-11-29T13:59:13Z</time>
      </trkpt>
      <trkpt lat="45.94371" lon="1.28537">
        <ele>413.9</ele>
        <time>2024-11-29T13:59:14Z</time>
      </trkpt>
      <trkpt lat="45.94366" lon="1.28538">
        <ele>414.3</ele>
        <time>2024-11-29T13:59:15Z</time>
      </trkpt>
      <trkpt lat="45.94362" lon="1.28539">
        <ele>414.7</ele>
        <time>2024-11-29T13:59:16Z</time>
      </trkpt>
      <trkpt lat="45.94358" lon="1.2854">
        <ele>415.1</ele>
        <time>2024-11-29T13:59:17Z</time>
      </trkpt>
      <trkpt lat="45.94354" lon="1.28542">
        <ele>415.5</ele>
        <time>2024-11-29T13:59:18Z</time>
      </trkpt>
      <trkpt lat="45.9435" lon="1.28544">
        <ele>416</ele>
        <time>2024-11-29T13:59:19Z</time>
      </trkpt>
      <trkpt lat="45.94345" lon="1.28544">
        <ele>416.5</ele>
        <time>2024-11-29T13:59:20Z</time>
      </trkpt>
      <trkpt lat="45.94342" lon="1.28545">
        <ele>416.9</ele>
        <time>2024-11-29T13:59:21Z</time>
      </trkpt>
      <trkpt lat="45.94338" lon="1.28544">
        <ele>417.4</ele>
        <time>2024-11-29T13:59:22Z</time>
      </trkpt>
      <trkpt lat="45.94335" lon="1.28541">
        <ele>417.9</ele>
        <time>2024-11-29T13:59:23Z</time>
      </trkpt>
      <trkpt lat="45.94333" lon="1.28536">
        <ele>418.4</ele>
        <time>2024-11-29T13:59:24Z</time>
      </trkpt>
      <trkpt lat="45.94332" lon="1.28532">
        <ele>418.7</ele>
        <time>2024-11-29T13:59:25Z</time>
      </trkpt>
      <trkpt lat="45.94331" lon="1.28527">
        <ele>419.1</ele>
        <time>2024-11-29T13:59:26Z</time>
      </trkpt>
      <trkpt lat="45.94331" lon="1.28522">
        <ele>419.4</ele>
        <time>2024-11-29T13:59:27Z</time>
      </trkpt>
      <trkpt lat="45.9433" lon="1.28517">
        <ele>419.7</ele>
        <time>2024-11-29T13:59:28Z</time>
      </trkpt>
      <trkpt lat="45.94329" lon="1.28513">
        <ele>420</ele>
        <time>2024-11-29T13:59:29Z</time>
      </trkpt>
      <trkpt lat="45.94327" lon="1.28508">
        <ele>420.3</ele>
        <time>2024-11-29T13:59:30Z</time>
      </trkpt>
      <trkpt lat="45.94326" lon="1.28503">
        <ele>420.5</ele>
        <time>2024-11-29T13:59:31Z</time>
      </trkpt>
      <trkpt lat="45.94324" lon="1.28498">
        <ele>420.8</ele>
        <time>2024-11-29T13:59:32Z</time>
      </trkpt>
      <trkpt lat="45.94323" lon="1.28493">
        <ele>421</ele>
        <time>2024-11-29T13:59:33Z</time>
      </trkpt>
      <trkpt lat="45.94321" lon="1.28488">
        <ele>421.3</ele>
        <time>2024-11-29T13:59:34Z</time>
      </trkpt>
      <trkpt lat="45.94319" lon="1.28482">
        <ele>421.5</ele>
        <time>2024-11-29T13:59:35Z</time>
      </trkpt>
      <trkpt lat="45.94317" lon="1.28477">
        <ele>421.7</ele>
        <time>2024-11-29T13:59:36Z</time>
      </trkpt>
      <trkpt lat="45.94315" lon="1.28471">
        <ele>422</ele>
        <time>2024-11-29T13:59:37Z</time>
      </trkpt>
      <trkpt lat="45.94314" lon="1.28466">
        <ele>422.2</ele>
        <time>2024-11-29T13:59:38Z</time>
      </trkpt>
      <trkpt lat="45.94312" lon="1.28461">
        <ele>422.4</ele>
        <time>2024-11-29T13:59:39Z</time>
      </trkpt>
      <trkpt lat="45.94311" lon="1.28456">
        <ele>422.6</ele>
        <time>2024-11-29T13:59:40Z</time>
      </trkpt>
      <trkpt lat="45.94309" lon="1.28451">
        <ele>422.8</ele>
        <time>2024-11-29T13:59:41Z</time>
      </trkpt>
      <trkpt lat="45.94308" lon="1.28446">
        <ele>422.9</ele>
        <time>2024-11-29T13:59:42Z</time>
      </trkpt>
      <trkpt lat="45.94307" lon="1.28441">
        <ele>423</ele>
        <time>2024-11-29T13:59:43Z</time>
      </trkpt>
      <trkpt lat="45.94306" lon="1.28436">
        <ele>423.1</ele>
        <time>2024-11-29T13:59:44Z</time>
      </trkpt>
      <trkpt lat="45.94304" lon="1.2843">
        <ele>423.3</ele>
        <time>2024-11-29T13:59:45Z</time>
      </trkpt>
      <trkpt lat="45.94303" lon="1.28424">
        <ele>423.3</ele>
        <time>2024-11-29T13:59:46Z</time>
      </trkpt>
      <trkpt lat="45.94301" lon="1.28417">
        <ele>423.4</ele>
        <time>2024-11-29T13:59:47Z</time>
      </trkpt>
      <trkpt lat="45.94299" lon="1.2841">
        <ele>423.5</ele>
        <time>2024-11-29T13:59:48Z</time>
      </trkpt>
      <trkpt lat="45.94297" lon="1.28403">
        <ele>423.6</ele>
        <time>2024-11-29T13:59:49Z</time>
      </trkpt>
      <trkpt lat="45.94294" lon="1.28396">
        <ele>423.7</ele>
        <time>2024-11-29T13:59:50Z</time>
      </trkpt>
      <trkpt lat="45.94292" lon="1.2839">
        <ele>423.8</ele>
        <time>2024-11-29T13:59:51Z</time>
      </trkpt>
      <trkpt lat="45.94291" lon="1.28384">
        <ele>423.8</ele>
        <time>2024-11-29T13:59:52Z</time>
      </trkpt>
      <trkpt lat="45.94289" lon="1.28378">
        <ele>423.9</ele>
        <time>2024-11-29T13:59:53Z</time>
      </trkpt>
      <trkpt lat="45.94288" lon="1.28371">
        <ele>424.1</ele>
        <time>2024-11-29T13:59:54Z</time>
      </trkpt>
      <trkpt lat="45.94286" lon="1.28365">
        <ele>424.2</ele>
        <time>2024-11-29T13:59:55Z</time>
      </trkpt>
      <trkpt lat="45.94284" lon="1.2836">
        <ele>424.3</ele>
        <time>2024-11-29T13:59:56Z</time>
      </trkpt>
      <trkpt lat="45.94282" lon="1.28354">
        <ele>424.4</ele>
        <time>2024-11-29T13:59:57Z</time>
      </trkpt>
      <trkpt lat="45.9428" lon="1.28348">
        <ele>424.6</ele>
        <time>2024-11-29T13:59:58Z</time>
      </trkpt>
      <trkpt lat="45.94277" lon="1.28343">
        <ele>424.8</ele>
        <time>2024-11-29T13:59:59Z</time>
      </trkpt>
      <trkpt lat="45.94275" lon="1.28338">
        <ele>424.9</ele>
        <time>2024-11-29T14:00:00Z</time>
      </trkpt>
      <trkpt lat="45.94273" lon="1.28333">
        <ele>425</ele>
        <time>2024-11-29T14:00:01Z</time>
      </trkpt>
      <trkpt lat="45.9427" lon="1.28329">
        <ele>425.2</ele>
        <time>2024-11-29T14:00:02Z</time>
      </trkpt>
      <trkpt lat="45.94268" lon="1.28324">
        <ele>425.3</ele>
        <time>2024-11-29T14:00:03Z</time>
      </trkpt>
      <trkpt lat="45.94265" lon="1.2832">
        <ele>425.4</ele>
        <time>2024-11-29T14:00:04Z</time>
      </trkpt>
      <trkpt lat="45.94262" lon="1.28316">
        <ele>425.5</ele>
        <time>2024-11-29T14:00:05Z</time>
      </trkpt>
      <trkpt lat="45.94259" lon="1.28312">
        <ele>425.6</ele>
        <time>2024-11-29T14:00:06Z</time>
      </trkpt>
      <trkpt lat="45.94256" lon="1.28308">
        <ele>425.7</ele>
        <time>2024-11-29T14:00:07Z</time>
      </trkpt>
      <trkpt lat="45.94253" lon="1.28304">
        <ele>425.7</ele>
        <time>2024-11-29T14:00:08Z</time>
      </trkpt>
      <trkpt lat="45.9425" lon="1.283">
        <ele>425.7</ele>
        <time>2024-11-29T14:00:09Z</time>
      </trkpt>
      <trkpt lat="45.94247" lon="1.28296">
        <ele>425.6</ele>
        <time>2024-11-29T14:00:10Z</time>
      </trkpt>
      <trkpt lat="45.94244" lon="1.28292">
        <ele>425.5</ele>
        <time>2024-11-29T14:00:11Z</time>
      </trkpt>
      <trkpt lat="45.9424" lon="1.28289">
        <ele>425.3</ele>
        <time>2024-11-29T14:00:12Z</time>
      </trkpt>
      <trkpt lat="45.94237" lon="1.28285">
        <ele>425.2</ele>
        <time>2024-11-29T14:00:13Z</time>
      </trkpt>
      <trkpt lat="45.94234" lon="1.28281">
        <ele>425</ele>
        <time>2024-11-29T14:00:14Z</time>
      </trkpt>
      <trkpt lat="45.94231" lon="1.28278">
        <ele>424.8</ele>
        <time>2024-11-29T14:00:15Z</time>
      </trkpt>
      <trkpt lat="45.94228" lon="1.28273">
        <ele>424.6</ele>
        <time>2024-11-29T14:00:17Z</time>
      </trkpt>
      <trkpt lat="45.94228" lon="1.28269">
        <ele>424.6</ele>
        <time>2024-11-29T14:00:18Z</time>
      </trkpt>
      <trkpt lat="45.94229" lon="1.28264">
        <ele>424.7</ele>
        <time>2024-11-29T14:00:19Z</time>
      </trkpt>
      <trkpt lat="45.94231" lon="1.28259">
        <ele>424.7</ele>
        <time>2024-11-29T14:00:20Z</time>
      </trkpt>
      <trkpt lat="45.94235" lon="1.28254">
        <ele>424.7</ele>
        <time>2024-11-29T14:00:21Z</time>
      </trkpt>
      <trkpt lat="45.94237" lon="1.28248">
        <ele>424.7</ele>
        <time>2024-11-29T14:00:22Z</time>
      </trkpt>
      <trkpt lat="45.9424" lon="1.28242">
        <ele>424.7</ele>
        <time>2024-11-29T14:00:23Z</time>
      </trkpt>
      <trkpt lat="45.94243" lon="1.28236">
        <ele>424.7</ele>
        <time>2024-11-29T14:00:24Z</time>
      </trkpt>
      <trkpt lat="45.94245" lon="1.2823">
        <ele>424.6</ele>
        <time>2024-11-29T14:00:25Z</time>
      </trkpt>
      <trkpt lat="45.94248" lon="1.28224">
        <ele>424.5</ele>
        <time>2024-11-29T14:00:26Z</time>
      </trkpt>
      <trkpt lat="45.94251" lon="1.28218">
        <ele>424.4</ele>
        <time>2024-11-29T14:00:27Z</time>
      </trkpt>
      <trkpt lat="45.94254" lon="1.28212">
        <ele>424.3</ele>
        <time>2024-11-29T14:00:28Z</time>
      </trkpt>
      <trkpt lat="45.94257" lon="1.28206">
        <ele>424.1</ele>
        <time>2024-11-29T14:00:29Z</time>
      </trkpt>
      <trkpt lat="45.9426" lon="1.282">
        <ele>423.9</ele>
        <time>2024-11-29T14:00:30Z</time>
      </trkpt>
      <trkpt lat="45.94262" lon="1.28194">
        <ele>423.7</ele>
        <time>2024-11-29T14:00:31Z</time>
      </trkpt>
      <trkpt lat="45.94265" lon="1.28188">
        <ele>423.5</ele>
        <time>2024-11-29T14:00:32Z</time>
      </trkpt>
      <trkpt lat="45.94268" lon="1.28182">
        <ele>423.3</ele>
        <time>2024-11-29T14:00:33Z</time>
      </trkpt>
      <trkpt lat="45.9427" lon="1.28176">
        <ele>423.1</ele>
        <time>2024-11-29T14:00:34Z</time>
      </trkpt>
      <trkpt lat="45.94272" lon="1.2817">
        <ele>422.8</ele>
        <time>2024-11-29T14:00:35Z</time>
      </trkpt>
      <trkpt lat="45.94272" lon="1.28165">
        <ele>422.7</ele>
        <time>2024-11-29T14:00:36Z</time>
      </trkpt>
      <trkpt lat="45.94271" lon="1.2816">
        <ele>422.5</ele>
        <time>2024-11-29T14:00:37Z</time>
      </trkpt>
      <trkpt lat="45.94268" lon="1.28158">
        <ele>422.5</ele>
        <time>2024-11-29T14:00:38Z</time>
      </trkpt>
      <trkpt lat="45.94265" lon="1.28156">
        <ele>422.5</ele>
        <time>2024-11-29T14:00:39Z</time>
      </trkpt>
      <trkpt lat="45.94261" lon="1.28155">
        <ele>422.5</ele>
        <time>2024-11-29T14:00:40Z</time>
      </trkpt>
      <trkpt lat="45.94257" lon="1.28154">
        <ele>422.5</ele>
        <time>2024-11-29T14:00:41Z</time>
      </trkpt>
      <trkpt lat="45.94253" lon="1.28154">
        <ele>422.5</ele>
        <time>2024-11-29T14:00:42Z</time>
      </trkpt>
      <trkpt lat="45.94248" lon="1.28154">
        <ele>422.5</ele>
        <time>2024-11-29T14:00:43Z</time>
      </trkpt>
      <trkpt lat="45.94244" lon="1.28154">
        <ele>422.6</ele>
        <time>2024-11-29T14:00:44Z</time>
      </trkpt>
      <trkpt lat="45.9424" lon="1.28154">
        <ele>422.7</ele>
        <time>2024-11-29T14:00:45Z</time>
      </trkpt>
      <trkpt lat="45.94236" lon="1.28154">
        <ele>422.7</ele>
        <time>2024-11-29T14:00:46Z</time>
      </trkpt>
      <trkpt lat="45.94231" lon="1.28156">
        <ele>422.8</ele>
        <time>2024-11-29T14:00:47Z</time>
      </trkpt>
      <trkpt lat="45.94227" lon="1.28157">
        <ele>422.9</ele>
        <time>2024-11-29T14:00:48Z</time>
      </trkpt>
      <trkpt lat="45.94222" lon="1.28158">
        <ele>422.9</ele>
        <time>2024-11-29T14:00:49Z</time>
      </trkpt>
      <trkpt lat="45.94218" lon="1.28159">
        <ele>423</ele>
        <time>2024-11-29T14:00:50Z</time>
      </trkpt>
      <trkpt lat="45.94213" lon="1.28159">
        <ele>423</ele>
        <time>2024-11-29T14:00:51Z</time>
      </trkpt>
      <trkpt lat="45.94209" lon="1.28159">
        <ele>423</ele>
        <time>2024-11-29T14:00:52Z</time>
      </trkpt>
      <trkpt lat="45.94204" lon="1.2816">
        <ele>422.9</ele>
        <time>2024-11-29T14:00:53Z</time>
      </trkpt>
      <trkpt lat="45.94199" lon="1.28162">
        <ele>422.9</ele>
        <time>2024-11-29T14:00:54Z</time>
      </trkpt>
      <trkpt lat="45.94194" lon="1.28163">
        <ele>422.8</ele>
        <time>2024-11-29T14:00:55Z</time>
      </trkpt>
      <trkpt lat="45.94189" lon="1.28164">
        <ele>422.7</ele>
        <time>2024-11-29T14:00:56Z</time>
      </trkpt>
      <trkpt lat="45.94184" lon="1.28164">
        <ele>422.6</ele>
        <time>2024-11-29T14:00:57Z</time>
      </trkpt>
      <trkpt lat="45.94178" lon="1.28164">
        <ele>422.4</ele>
        <time>2024-11-29T14:00:58Z</time>
      </trkpt>
      <trkpt lat="45.94174" lon="1.28165">
        <ele>422.3</ele>
        <time>2024-11-29T14:00:59Z</time>
      </trkpt>
      <trkpt lat="45.94169" lon="1.28166">
        <ele>422.2</ele>
        <time>2024-11-29T14:01:00Z</time>
      </trkpt>
      <trkpt lat="45.94163" lon="1.28167">
        <ele>422.1</ele>
        <time>2024-11-29T14:01:01Z</time>
      </trkpt>
      <trkpt lat="45.94158" lon="1.28168">
        <ele>422</ele>
        <time>2024-11-29T14:01:02Z</time>
      </trkpt>
      <trkpt lat="45.94153" lon="1.2817">
        <ele>421.8</ele>
        <time>2024-11-29T14:01:03Z</time>
      </trkpt>
      <trkpt lat="45.94148" lon="1.28171">
        <ele>421.7</ele>
        <time>2024-11-29T14:01:04Z</time>
      </trkpt>
      <trkpt lat="45.94143" lon="1.28172">
        <ele>421.6</ele>
        <time>2024-11-29T14:01:05Z</time>
      </trkpt>
      <trkpt lat="45.94137" lon="1.28172">
        <ele>421.5</ele>
        <time>2024-11-29T14:01:06Z</time>
      </trkpt>
      <trkpt lat="45.94132" lon="1.28173">
        <ele>421.4</ele>
        <time>2024-11-29T14:01:07Z</time>
      </trkpt>
      <trkpt lat="45.94127" lon="1.28173">
        <ele>421.4</ele>
        <time>2024-11-29T14:01:08Z</time>
      </trkpt>
      <trkpt lat="45.94123" lon="1.28174">
        <ele>421.4</ele>
        <time>2024-11-29T14:01:09Z</time>
      </trkpt>
      <trkpt lat="45.94118" lon="1.28174">
        <ele>421.4</ele>
        <time>2024-11-29T14:01:10Z</time>
      </trkpt>
      <trkpt lat="45.94113" lon="1.28174">
        <ele>421.4</ele>
        <time>2024-11-29T14:01:11Z</time>
      </trkpt>
      <trkpt lat="45.9411" lon="1.28174">
        <ele>421.5</ele>
        <time>2024-11-29T14:01:12Z</time>
      </trkpt>
      <trkpt lat="45.94106" lon="1.28175">
        <ele>421.6</ele>
        <time>2024-11-29T14:01:13Z</time>
      </trkpt>
      <trkpt lat="45.94101" lon="1.28176">
        <ele>421.8</ele>
        <time>2024-11-29T14:01:14Z</time>
      </trkpt>
      <trkpt lat="45.94097" lon="1.28177">
        <ele>421.9</ele>
        <time>2024-11-29T14:01:15Z</time>
      </trkpt>
      <trkpt lat="45.94094" lon="1.28177">
        <ele>422.1</ele>
        <time>2024-11-29T14:01:16Z</time>
      </trkpt>
      <trkpt lat="45.9409" lon="1.28177">
        <ele>422.3</ele>
        <time>2024-11-29T14:01:17Z</time>
      </trkpt>
      <trkpt lat="45.94084" lon="1.28178">
        <ele>422.6</ele>
        <time>2024-11-29T14:01:19Z</time>
      </trkpt>
      <trkpt lat="45.94078" lon="1.2818">
        <ele>422.9</ele>
        <time>2024-11-29T14:01:20Z</time>
      </trkpt>
      <trkpt lat="45.94073" lon="1.28181">
        <ele>423.2</ele>
        <time>2024-11-29T14:01:21Z</time>
      </trkpt>
      <trkpt lat="45.94069" lon="1.28182">
        <ele>423.4</ele>
        <time>2024-11-29T14:01:22Z</time>
      </trkpt>
      <trkpt lat="45.94064" lon="1.28183">
        <ele>423.6</ele>
        <time>2024-11-29T14:01:23Z</time>
      </trkpt>
      <trkpt lat="45.94058" lon="1.28184">
        <ele>423.8</ele>
        <time>2024-11-29T14:01:25Z</time>
      </trkpt>
      <trkpt lat="45.94054" lon="1.28184">
        <ele>423.9</ele>
        <time>2024-11-29T14:01:26Z</time>
      </trkpt>
      <trkpt lat="45.9405" lon="1.28185">
        <ele>423.9</ele>
        <time>2024-11-29T14:01:27Z</time>
      </trkpt>
      <trkpt lat="45.94046" lon="1.28186">
        <ele>423.8</ele>
        <time>2024-11-29T14:01:28Z</time>
      </trkpt>
      <trkpt lat="45.94042" lon="1.28186">
        <ele>423.8</ele>
        <time>2024-11-29T14:01:29Z</time>
      </trkpt>
      <trkpt lat="45.94038" lon="1.28187">
        <ele>423.6</ele>
        <time>2024-11-29T14:01:30Z</time>
      </trkpt>
      <trkpt lat="45.94035" lon="1.28188">
        <ele>423.5</ele>
        <time>2024-11-29T14:01:31Z</time>
      </trkpt>
      <trkpt lat="45.94031" lon="1.28188">
        <ele>423.3</ele>
        <time>2024-11-29T14:01:32Z</time>
      </trkpt>
      <trkpt lat="45.94027" lon="1.28189">
        <ele>423.1</ele>
        <time>2024-11-29T14:01:33Z</time>
      </trkpt>
      <trkpt lat="45.94023" lon="1.2819">
        <ele>422.8</ele>
        <time>2024-11-29T14:01:34Z</time>
      </trkpt>
      <trkpt lat="45.9402" lon="1.2819">
        <ele>422.6</ele>
        <time>2024-11-29T14:01:35Z</time>
      </trkpt>
      <trkpt lat="45.94016" lon="1.28191">
        <ele>422.4</ele>
        <time>2024-11-29T14:01:36Z</time>
      </trkpt>
      <trkpt lat="45.94011" lon="1.28192">
        <ele>422</ele>
        <time>2024-11-29T14:01:37Z</time>
      </trkpt>
      <trkpt lat="45.94006" lon="1.28193">
        <ele>421.7</ele>
        <time>2024-11-29T14:01:38Z</time>
      </trkpt>
      <trkpt lat="45.94001" lon="1.28194">
        <ele>421.3</ele>
        <time>2024-11-29T14:01:39Z</time>
      </trkpt>
      <trkpt lat="45.93997" lon="1.28195">
        <ele>421</ele>
        <time>2024-11-29T14:01:40Z</time>
      </trkpt>
      <trkpt lat="45.93992" lon="1.28197">
        <ele>420.6</ele>
        <time>2024-11-29T14:01:41Z</time>
      </trkpt>
      <trkpt lat="45.93989" lon="1.28197">
        <ele>420.4</ele>
        <time>2024-11-29T14:01:42Z</time>
      </trkpt>
      <trkpt lat="45.93984" lon="1.28197">
        <ele>420</ele>
        <time>2024-11-29T14:01:44Z</time>
      </trkpt>
      <trkpt lat="45.93979" lon="1.28196">
        <ele>419.6</ele>
        <time>2024-11-29T14:01:45Z</time>
      </trkpt>
      <trkpt lat="45.93975" lon="1.28197">
        <ele>419.3</ele>
        <time>2024-11-29T14:01:46Z</time>
      </trkpt>
      <trkpt lat="45.93971" lon="1.28197">
        <ele>418.9</ele>
        <time>2024-11-29T14:01:47Z</time>
      </trkpt>
      <trkpt lat="45.93967" lon="1.28198">
        <ele>418.5</ele>
        <time>2024-11-29T14:01:48Z</time>
      </trkpt>
      <trkpt lat="45.93962" lon="1.28198">
        <ele>418.1</ele>
        <time>2024-11-29T14:01:49Z</time>
      </trkpt>
      <trkpt lat="45.93956" lon="1.28198">
        <ele>417.7</ele>
        <time>2024-11-29T14:01:50Z</time>
      </trkpt>
      <trkpt lat="45.93952" lon="1.28198">
        <ele>417.4</ele>
        <time>2024-11-29T14:01:51Z</time>
      </trkpt>
      <trkpt lat="45.93947" lon="1.282">
        <ele>417.1</ele>
        <time>2024-11-29T14:01:52Z</time>
      </trkpt>
      <trkpt lat="45.93943" lon="1.28202">
        <ele>417</ele>
        <time>2024-11-29T14:01:53Z</time>
      </trkpt>
      <trkpt lat="45.93939" lon="1.28206">
        <ele>416.8</ele>
        <time>2024-11-29T14:01:54Z</time>
      </trkpt>
      <trkpt lat="45.93935" lon="1.28209">
        <ele>416.7</ele>
        <time>2024-11-29T14:01:55Z</time>
      </trkpt>
      <trkpt lat="45.93932" lon="1.28213">
        <ele>416.7</ele>
        <time>2024-11-29T14:01:56Z</time>
      </trkpt>
      <trkpt lat="45.93929" lon="1.28217">
        <ele>416.7</ele>
        <time>2024-11-29T14:01:57Z</time>
      </trkpt>
      <trkpt lat="45.93926" lon="1.28221">
        <ele>416.7</ele>
        <time>2024-11-29T14:01:58Z</time>
      </trkpt>
      <trkpt lat="45.93923" lon="1.28225">
        <ele>416.7</ele>
        <time>2024-11-29T14:01:59Z</time>
      </trkpt>
      <trkpt lat="45.9392" lon="1.28229">
        <ele>416.8</ele>
        <time>2024-11-29T14:02:00Z</time>
      </trkpt>
      <trkpt lat="45.93917" lon="1.28233">
        <ele>416.8</ele>
        <time>2024-11-29T14:02:01Z</time>
      </trkpt>
      <trkpt lat="45.93914" lon="1.28237">
        <ele>416.8</ele>
        <time>2024-11-29T14:02:03Z</time>
      </trkpt>
      <trkpt lat="45.93911" lon="1.2824">
        <ele>416.8</ele>
        <time>2024-11-29T14:02:05Z</time>
      </trkpt>
      <trkpt lat="45.93908" lon="1.2824">
        <ele>416.8</ele>
        <time>2024-11-29T14:02:06Z</time>
      </trkpt>
      <trkpt lat="45.93905" lon="1.2824">
        <ele>416.6</ele>
        <time>2024-11-29T14:02:07Z</time>
      </trkpt>
      <trkpt lat="45.93902" lon="1.28237">
        <ele>416.1</ele>
        <time>2024-11-29T14:02:08Z</time>
      </trkpt>
      <trkpt lat="45.93899" lon="1.28233">
        <ele>415.6</ele>
        <time>2024-11-29T14:02:09Z</time>
      </trkpt>
      <trkpt lat="45.93897" lon="1.28229">
        <ele>415.1</ele>
        <time>2024-11-29T14:02:10Z</time>
      </trkpt>
      <trkpt lat="45.93894" lon="1.28224">
        <ele>414.4</ele>
        <time>2024-11-29T14:02:11Z</time>
      </trkpt>
      <trkpt lat="45.93891" lon="1.28219">
        <ele>413.8</ele>
        <time>2024-11-29T14:02:12Z</time>
      </trkpt>
      <trkpt lat="45.93889" lon="1.28215">
        <ele>413.3</ele>
        <time>2024-11-29T14:02:13Z</time>
      </trkpt>
      <trkpt lat="45.93886" lon="1.2821">
        <ele>412.6</ele>
        <time>2024-11-29T14:02:14Z</time>
      </trkpt>
      <trkpt lat="45.93884" lon="1.28204">
        <ele>412</ele>
        <time>2024-11-29T14:02:15Z</time>
      </trkpt>
      <trkpt lat="45.93881" lon="1.28199">
        <ele>411.4</ele>
        <time>2024-11-29T14:02:16Z</time>
      </trkpt>
      <trkpt lat="45.93876" lon="1.28195">
        <ele>410.7</ele>
        <time>2024-11-29T14:02:17Z</time>
      </trkpt>
      <trkpt lat="45.9387" lon="1.28195">
        <ele>409.9</ele>
        <time>2024-11-29T14:02:18Z</time>
      </trkpt>
      <trkpt lat="45.93864" lon="1.28194">
        <ele>409.1</ele>
        <time>2024-11-29T14:02:19Z</time>
      </trkpt>
      <trkpt lat="45.93857" lon="1.28193">
        <ele>408.3</ele>
        <time>2024-11-29T14:02:20Z</time>
      </trkpt>
      <trkpt lat="45.93851" lon="1.28192">
        <ele>407.6</ele>
        <time>2024-11-29T14:02:21Z</time>
      </trkpt>
      <trkpt lat="45.93844" lon="1.28192">
        <ele>406.9</ele>
        <time>2024-11-29T14:02:22Z</time>
      </trkpt>
      <trkpt lat="45.93838" lon="1.2819">
        <ele>406.2</ele>
        <time>2024-11-29T14:02:23Z</time>
      </trkpt>
      <trkpt lat="45.93833" lon="1.2819">
        <ele>405.7</ele>
        <time>2024-11-29T14:02:24Z</time>
      </trkpt>
      <trkpt lat="45.93828" lon="1.2819">
        <ele>405.1</ele>
        <time>2024-11-29T14:02:25Z</time>
      </trkpt>
      <trkpt lat="45.93822" lon="1.28189">
        <ele>404.5</ele>
        <time>2024-11-29T14:02:26Z</time>
      </trkpt>
      <trkpt lat="45.93816" lon="1.28188">
        <ele>403.9</ele>
        <time>2024-11-29T14:02:27Z</time>
      </trkpt>
      <trkpt lat="45.9381" lon="1.28187">
        <ele>403.4</ele>
        <time>2024-11-29T14:02:28Z</time>
      </trkpt>
      <trkpt lat="45.93804" lon="1.28186">
        <ele>402.9</ele>
        <time>2024-11-29T14:02:29Z</time>
      </trkpt>
      <trkpt lat="45.93798" lon="1.28186">
        <ele>402.5</ele>
        <time>2024-11-29T14:02:30Z</time>
      </trkpt>
      <trkpt lat="45.93792" lon="1.28184">
        <ele>402.1</ele>
        <time>2024-11-29T14:02:31Z</time>
      </trkpt>
      <trkpt lat="45.93787" lon="1.28181">
        <ele>401.7</ele>
        <time>2024-11-29T14:02:32Z</time>
      </trkpt>
      <trkpt lat="45.93782" lon="1.28177">
        <ele>401.5</ele>
        <time>2024-11-29T14:02:33Z</time>
      </trkpt>
      <trkpt lat="45.93776" lon="1.28172">
        <ele>401.2</ele>
        <time>2024-11-29T14:02:34Z</time>
      </trkpt>
      <trkpt lat="45.93771" lon="1.28167">
        <ele>401.1</ele>
        <time>2024-11-29T14:02:35Z</time>
      </trkpt>
      <trkpt lat="45.93765" lon="1.28163">
        <ele>401.1</ele>
        <time>2024-11-29T14:02:36Z</time>
      </trkpt>
      <trkpt lat="45.9376" lon="1.28158">
        <ele>401.1</ele>
        <time>2024-11-29T14:02:37Z</time>
      </trkpt>
      <trkpt lat="45.93754" lon="1.28153">
        <ele>401.3</ele>
        <time>2024-11-29T14:02:38Z</time>
      </trkpt>
      <trkpt lat="45.93748" lon="1.28149">
        <ele>401.5</ele>
        <time>2024-11-29T14:02:39Z</time>
      </trkpt>
      <trkpt lat="45.93742" lon="1.28144">
        <ele>401.8</ele>
        <time>2024-11-29T14:02:40Z</time>
      </trkpt>
      <trkpt lat="45.93737" lon="1.2814">
        <ele>402.1</ele>
        <time>2024-11-29T14:02:41Z</time>
      </trkpt>
      <trkpt lat="45.93732" lon="1.28135">
        <ele>402.4</ele>
        <time>2024-11-29T14:02:42Z</time>
      </trkpt>
      <trkpt lat="45.93727" lon="1.2813">
        <ele>402.8</ele>
        <time>2024-11-29T14:02:43Z</time>
      </trkpt>
      <trkpt lat="45.93722" lon="1.28126">
        <ele>403.1</ele>
        <time>2024-11-29T14:02:44Z</time>
      </trkpt>
      <trkpt lat="45.93717" lon="1.28121">
        <ele>403.5</ele>
        <time>2024-11-29T14:02:45Z</time>
      </trkpt>
      <trkpt lat="45.93713" lon="1.28117">
        <ele>403.8</ele>
        <time>2024-11-29T14:02:46Z</time>
      </trkpt>
      <trkpt lat="45.93708" lon="1.28112">
        <ele>404.2</ele>
        <time>2024-11-29T14:02:47Z</time>
      </trkpt>
      <trkpt lat="45.93705" lon="1.28108">
        <ele>404.5</ele>
        <time>2024-11-29T14:02:48Z</time>
      </trkpt>
      <trkpt lat="45.93701" lon="1.28104">
        <ele>404.9</ele>
        <time>2024-11-29T14:02:49Z</time>
      </trkpt>
      <trkpt lat="45.93697" lon="1.281">
        <ele>405.2</ele>
        <time>2024-11-29T14:02:50Z</time>
      </trkpt>
      <trkpt lat="45.93693" lon="1.28095">
        <ele>405.6</ele>
        <time>2024-11-29T14:02:51Z</time>
      </trkpt>
      <trkpt lat="45.9369" lon="1.2809">
        <ele>405.9</ele>
        <time>2024-11-29T14:02:52Z</time>
      </trkpt>
      <trkpt lat="45.93686" lon="1.28087">
        <ele>406.2</ele>
        <time>2024-11-29T14:02:53Z</time>
      </trkpt>
      <trkpt lat="45.93681" lon="1.28083">
        <ele>406.5</ele>
        <time>2024-11-29T14:02:54Z</time>
      </trkpt>
      <trkpt lat="45.93676" lon="1.2808">
        <ele>406.9</ele>
        <time>2024-11-29T14:02:55Z</time>
      </trkpt>
      <trkpt lat="45.93671" lon="1.28078">
        <ele>407.2</ele>
        <time>2024-11-29T14:02:56Z</time>
      </trkpt>
      <trkpt lat="45.93666" lon="1.28077">
        <ele>407.4</ele>
        <time>2024-11-29T14:02:57Z</time>
      </trkpt>
      <trkpt lat="45.93662" lon="1.28077">
        <ele>407.7</ele>
        <time>2024-11-29T14:02:58Z</time>
      </trkpt>
      <trkpt lat="45.93657" lon="1.28078">
        <ele>407.9</ele>
        <time>2024-11-29T14:02:59Z</time>
      </trkpt>
      <trkpt lat="45.93653" lon="1.28079">
        <ele>408.1</ele>
        <time>2024-11-29T14:03:00Z</time>
      </trkpt>
      <trkpt lat="45.93648" lon="1.2808">
        <ele>408.3</ele>
        <time>2024-11-29T14:03:01Z</time>
      </trkpt>
      <trkpt lat="45.93644" lon="1.2808">
        <ele>408.5</ele>
        <time>2024-11-29T14:03:02Z</time>
      </trkpt>
      <trkpt lat="45.93639" lon="1.28081">
        <ele>408.7</ele>
        <time>2024-11-29T14:03:03Z</time>
      </trkpt>
      <trkpt lat="45.93635" lon="1.28082">
        <ele>408.9</ele>
        <time>2024-11-29T14:03:04Z</time>
      </trkpt>
      <trkpt lat="45.9363" lon="1.28082">
        <ele>409.1</ele>
        <time>2024-11-29T14:03:05Z</time>
      </trkpt>
      <trkpt lat="45.93626" lon="1.28083">
        <ele>409.3</ele>
        <time>2024-11-29T14:03:06Z</time>
      </trkpt>
      <trkpt lat="45.93621" lon="1.28083">
        <ele>409.5</ele>
        <time>2024-11-29T14:03:07Z</time>
      </trkpt>
      <trkpt lat="45.93617" lon="1.28082">
        <ele>409.7</ele>
        <time>2024-11-29T14:03:08Z</time>
      </trkpt>
      <trkpt lat="45.93613" lon="1.28081">
        <ele>409.9</ele>
        <time>2024-11-29T14:03:09Z</time>
      </trkpt>
      <trkpt lat="45.93609" lon="1.28081">
        <ele>410.1</ele>
        <time>2024-11-29T14:03:10Z</time>
      </trkpt>
      <trkpt lat="45.93604" lon="1.28081">
        <ele>410.3</ele>
        <time>2024-11-29T14:03:11Z</time>
      </trkpt>
      <trkpt lat="45.93599" lon="1.2808">
        <ele>410.6</ele>
        <time>2024-11-29T14:03:12Z</time>
      </trkpt>
      <trkpt lat="45.93594" lon="1.2808">
        <ele>410.8</ele>
        <time>2024-11-29T14:03:13Z</time>
      </trkpt>
      <trkpt lat="45.9359" lon="1.2808">
        <ele>410.9</ele>
        <time>2024-11-29T14:03:14Z</time>
      </trkpt>
      <trkpt lat="45.93585" lon="1.2808">
        <ele>411.1</ele>
        <time>2024-11-29T14:03:15Z</time>
      </trkpt>
      <trkpt lat="45.9358" lon="1.2808">
        <ele>411.2</ele>
        <time>2024-11-29T14:03:16Z</time>
      </trkpt>
      <trkpt lat="45.93576" lon="1.2808">
        <ele>411.3</ele>
        <time>2024-11-29T14:03:17Z</time>
      </trkpt>
      <trkpt lat="45.93571" lon="1.28079">
        <ele>411.4</ele>
        <time>2024-11-29T14:03:18Z</time>
      </trkpt>
      <trkpt lat="45.93566" lon="1.28079">
        <ele>411.5</ele>
        <time>2024-11-29T14:03:19Z</time>
      </trkpt>
      <trkpt lat="45.93562" lon="1.28078">
        <ele>411.5</ele>
        <time>2024-11-29T14:03:20Z</time>
      </trkpt>
      <trkpt lat="45.93557" lon="1.28078">
        <ele>411.5</ele>
        <time>2024-11-29T14:03:21Z</time>
      </trkpt>
      <trkpt lat="45.93552" lon="1.28078">
        <ele>411.5</ele>
        <time>2024-11-29T14:03:22Z</time>
      </trkpt>
      <trkpt lat="45.93548" lon="1.28078">
        <ele>411.5</ele>
        <time>2024-11-29T14:03:23Z</time>
      </trkpt>
      <trkpt lat="45.93542" lon="1.28078">
        <ele>411.5</ele>
        <time>2024-11-29T14:03:24Z</time>
      </trkpt>
      <trkpt lat="45.93538" lon="1.28077">
        <ele>411.4</ele>
        <time>2024-11-29T14:03:25Z</time>
      </trkpt>
      <trkpt lat="45.93533" lon="1.28077">
        <ele>411.4</ele>
        <time>2024-11-29T14:03:26Z</time>
      </trkpt>
      <trkpt lat="45.93528" lon="1.28077">
        <ele>411.4</ele>
        <time>2024-11-29T14:03:27Z</time>
      </trkpt>
      <trkpt lat="45.93523" lon="1.28077">
        <ele>411.3</ele>
        <time>2024-11-29T14:03:28Z</time>
      </trkpt>
      <trkpt lat="45.93518" lon="1.28078">
        <ele>411.3</ele>
        <time>2024-11-29T14:03:29Z</time>
      </trkpt>
      <trkpt lat="45.93513" lon="1.28078">
        <ele>411.3</ele>
        <time>2024-11-29T14:03:30Z</time>
      </trkpt>
      <trkpt lat="45.93508" lon="1.28079">
        <ele>411.3</ele>
        <time>2024-11-29T14:03:31Z</time>
      </trkpt>
      <trkpt lat="45.93503" lon="1.28081">
        <ele>411.3</ele>
        <time>2024-11-29T14:03:32Z</time>
      </trkpt>
      <trkpt lat="45.93498" lon="1.28082">
        <ele>411.3</ele>
        <time>2024-11-29T14:03:33Z</time>
      </trkpt>
      <trkpt lat="45.93493" lon="1.28083">
        <ele>411.3</ele>
        <time>2024-11-29T14:03:34Z</time>
      </trkpt>
      <trkpt lat="45.93488" lon="1.28084">
        <ele>411.3</ele>
        <time>2024-11-29T14:03:35Z</time>
      </trkpt>
      <trkpt lat="45.93483" lon="1.28084">
        <ele>411.3</ele>
        <time>2024-11-29T14:03:36Z</time>
      </trkpt>
      <trkpt lat="45.93477" lon="1.28084">
        <ele>411.2</ele>
        <time>2024-11-29T14:03:37Z</time>
      </trkpt>
      <trkpt lat="45.93472" lon="1.28083">
        <ele>411.2</ele>
        <time>2024-11-29T14:03:38Z</time>
      </trkpt>
      <trkpt lat="45.93467" lon="1.28082">
        <ele>411.2</ele>
        <time>2024-11-29T14:03:39Z</time>
      </trkpt>
      <trkpt lat="45.93462" lon="1.2808">
        <ele>411</ele>
        <time>2024-11-29T14:03:40Z</time>
      </trkpt>
      <trkpt lat="45.93457" lon="1.28078">
        <ele>410.9</ele>
        <time>2024-11-29T14:03:41Z</time>
      </trkpt>
      <trkpt lat="45.93452" lon="1.28076">
        <ele>410.8</ele>
        <time>2024-11-29T14:03:42Z</time>
      </trkpt>
      <trkpt lat="45.93447" lon="1.28074">
        <ele>410.6</ele>
        <time>2024-11-29T14:03:43Z</time>
      </trkpt>
      <trkpt lat="45.93442" lon="1.28071">
        <ele>410.4</ele>
        <time>2024-11-29T14:03:44Z</time>
      </trkpt>
      <trkpt lat="45.93437" lon="1.28068">
        <ele>410.2</ele>
        <time>2024-11-29T14:03:45Z</time>
      </trkpt>
      <trkpt lat="45.93432" lon="1.28065">
        <ele>410</ele>
        <time>2024-11-29T14:03:46Z</time>
      </trkpt>
      <trkpt lat="45.93426" lon="1.28062">
        <ele>409.7</ele>
        <time>2024-11-29T14:03:47Z</time>
      </trkpt>
      <trkpt lat="45.9342" lon="1.28058">
        <ele>409.4</ele>
        <time>2024-11-29T14:03:48Z</time>
      </trkpt>
      <trkpt lat="45.93414" lon="1.28055">
        <ele>409.1</ele>
        <time>2024-11-29T14:03:49Z</time>
      </trkpt>
      <trkpt lat="45.93408" lon="1.28052">
        <ele>408.8</ele>
        <time>2024-11-29T14:03:50Z</time>
      </trkpt>
      <trkpt lat="45.93402" lon="1.28049">
        <ele>408.5</ele>
        <time>2024-11-29T14:03:51Z</time>
      </trkpt>
      <trkpt lat="45.93396" lon="1.28044">
        <ele>408.2</ele>
        <time>2024-11-29T14:03:52Z</time>
      </trkpt>
      <trkpt lat="45.9339" lon="1.2804">
        <ele>407.9</ele>
        <time>2024-11-29T14:03:53Z</time>
      </trkpt>
      <trkpt lat="45.93385" lon="1.28037">
        <ele>407.8</ele>
        <time>2024-11-29T14:03:54Z</time>
      </trkpt>
      <trkpt lat="45.93378" lon="1.28033">
        <ele>407.6</ele>
        <time>2024-11-29T14:03:55Z</time>
      </trkpt>
      <trkpt lat="45.93371" lon="1.2803">
        <ele>407.6</ele>
        <time>2024-11-29T14:03:56Z</time>
      </trkpt>
      <trkpt lat="45.93364" lon="1.28027">
        <ele>407.5</ele>
        <time>2024-11-29T14:03:57Z</time>
      </trkpt>
      <trkpt lat="45.93358" lon="1.28025">
        <ele>407.6</ele>
        <time>2024-11-29T14:03:58Z</time>
      </trkpt>
      <trkpt lat="45.93351" lon="1.28023">
        <ele>407.7</ele>
        <time>2024-11-29T14:03:59Z</time>
      </trkpt>
      <trkpt lat="45.93346" lon="1.28021">
        <ele>407.8</ele>
        <time>2024-11-29T14:04:00Z</time>
      </trkpt>
      <trkpt lat="45.9334" lon="1.28021">
        <ele>408</ele>
        <time>2024-11-29T14:04:01Z</time>
      </trkpt>
      <trkpt lat="45.93334" lon="1.28019">
        <ele>408.2</ele>
        <time>2024-11-29T14:04:02Z</time>
      </trkpt>
      <trkpt lat="45.93328" lon="1.28018">
        <ele>408.3</ele>
        <time>2024-11-29T14:04:03Z</time>
      </trkpt>
      <trkpt lat="45.93322" lon="1.28017">
        <ele>408.5</ele>
        <time>2024-11-29T14:04:04Z</time>
      </trkpt>
      <trkpt lat="45.93316" lon="1.28017">
        <ele>408.6</ele>
        <time>2024-11-29T14:04:05Z</time>
      </trkpt>
      <trkpt lat="45.93311" lon="1.28017">
        <ele>408.8</ele>
        <time>2024-11-29T14:04:06Z</time>
      </trkpt>
      <trkpt lat="45.93305" lon="1.28017">
        <ele>408.9</ele>
        <time>2024-11-29T14:04:07Z</time>
      </trkpt>
      <trkpt lat="45.93299" lon="1.28018">
        <ele>409.1</ele>
        <time>2024-11-29T14:04:08Z</time>
      </trkpt>
      <trkpt lat="45.93293" lon="1.28018">
        <ele>409.2</ele>
        <time>2024-11-29T14:04:09Z</time>
      </trkpt>
      <trkpt lat="45.93288" lon="1.28018">
        <ele>409.4</ele>
        <time>2024-11-29T14:04:10Z</time>
      </trkpt>
      <trkpt lat="45.93282" lon="1.28018">
        <ele>409.5</ele>
        <time>2024-11-29T14:04:11Z</time>
      </trkpt>
      <trkpt lat="45.93277" lon="1.28019">
        <ele>409.5</ele>
        <time>2024-11-29T14:04:12Z</time>
      </trkpt>
      <trkpt lat="45.9327" lon="1.28021">
        <ele>409.5</ele>
        <time>2024-11-29T14:04:13Z</time>
      </trkpt>
      <trkpt lat="45.93265" lon="1.28023">
        <ele>409.5</ele>
        <time>2024-11-29T14:04:14Z</time>
      </trkpt>
      <trkpt lat="45.93259" lon="1.28025">
        <ele>409.4</ele>
        <time>2024-11-29T14:04:15Z</time>
      </trkpt>
      <trkpt lat="45.93253" lon="1.28027">
        <ele>409.3</ele>
        <time>2024-11-29T14:04:16Z</time>
      </trkpt>
      <trkpt lat="45.93248" lon="1.28029">
        <ele>409.3</ele>
        <time>2024-11-29T14:04:17Z</time>
      </trkpt>
      <trkpt lat="45.93242" lon="1.28032">
        <ele>409.1</ele>
        <time>2024-11-29T14:04:18Z</time>
      </trkpt>
      <trkpt lat="45.93236" lon="1.28035">
        <ele>409</ele>
        <time>2024-11-29T14:04:19Z</time>
      </trkpt>
      <trkpt lat="45.9323" lon="1.28037">
        <ele>408.9</ele>
        <time>2024-11-29T14:04:20Z</time>
      </trkpt>
      <trkpt lat="45.93224" lon="1.2804">
        <ele>408.8</ele>
        <time>2024-11-29T14:04:21Z</time>
      </trkpt>
      <trkpt lat="45.93218" lon="1.28042">
        <ele>408.5</ele>
        <time>2024-11-29T14:04:22Z</time>
      </trkpt>
      <trkpt lat="45.93213" lon="1.28045">
        <ele>408.3</ele>
        <time>2024-11-29T14:04:23Z</time>
      </trkpt>
      <trkpt lat="45.93207" lon="1.28047">
        <ele>408</ele>
        <time>2024-11-29T14:04:24Z</time>
      </trkpt>
      <trkpt lat="45.93201" lon="1.28049">
        <ele>407.7</ele>
        <time>2024-11-29T14:04:25Z</time>
      </trkpt>
      <trkpt lat="45.93195" lon="1.28051">
        <ele>407.4</ele>
        <time>2024-11-29T14:04:26Z</time>
      </trkpt>
      <trkpt lat="45.93189" lon="1.28054">
        <ele>407.2</ele>
        <time>2024-11-29T14:04:27Z</time>
      </trkpt>
      <trkpt lat="45.93183" lon="1.28056">
        <ele>406.9</ele>
        <time>2024-11-29T14:04:28Z</time>
      </trkpt>
      <trkpt lat="45.93177" lon="1.28057">
        <ele>406.7</ele>
        <time>2024-11-29T14:04:29Z</time>
      </trkpt>
      <trkpt lat="45.93171" lon="1.28059">
        <ele>406.4</ele>
        <time>2024-11-29T14:04:30Z</time>
      </trkpt>
      <trkpt lat="45.93165" lon="1.28062">
        <ele>406.1</ele>
        <time>2024-11-29T14:04:31Z</time>
      </trkpt>
      <trkpt lat="45.93159" lon="1.28065">
        <ele>405.9</ele>
        <time>2024-11-29T14:04:32Z</time>
      </trkpt>
      <trkpt lat="45.93153" lon="1.28068">
        <ele>405.7</ele>
        <time>2024-11-29T14:04:33Z</time>
      </trkpt>
      <trkpt lat="45.93146" lon="1.28071">
        <ele>405.4</ele>
        <time>2024-11-29T14:04:34Z</time>
      </trkpt>
      <trkpt lat="45.9314" lon="1.28074">
        <ele>405.2</ele>
        <time>2024-11-29T14:04:35Z</time>
      </trkpt>
      <trkpt lat="45.93134" lon="1.28077">
        <ele>405</ele>
        <time>2024-11-29T14:04:36Z</time>
      </trkpt>
      <trkpt lat="45.93127" lon="1.2808">
        <ele>404.8</ele>
        <time>2024-11-29T14:04:37Z</time>
      </trkpt>
      <trkpt lat="45.93121" lon="1.28083">
        <ele>404.7</ele>
        <time>2024-11-29T14:04:38Z</time>
      </trkpt>
      <trkpt lat="45.93115" lon="1.28086">
        <ele>404.5</ele>
        <time>2024-11-29T14:04:39Z</time>
      </trkpt>
      <trkpt lat="45.93109" lon="1.28088">
        <ele>404.3</ele>
        <time>2024-11-29T14:04:40Z</time>
      </trkpt>
      <trkpt lat="45.93102" lon="1.28091">
        <ele>404.1</ele>
        <time>2024-11-29T14:04:41Z</time>
      </trkpt>
      <trkpt lat="45.93096" lon="1.28093">
        <ele>404</ele>
        <time>2024-11-29T14:04:42Z</time>
      </trkpt>
      <trkpt lat="45.9309" lon="1.28096">
        <ele>403.8</ele>
        <time>2024-11-29T14:04:43Z</time>
      </trkpt>
      <trkpt lat="45.93084" lon="1.28098">
        <ele>403.7</ele>
        <time>2024-11-29T14:04:44Z</time>
      </trkpt>
      <trkpt lat="45.93077" lon="1.28101">
        <ele>403.6</ele>
        <time>2024-11-29T14:04:45Z</time>
      </trkpt>
      <trkpt lat="45.93071" lon="1.28104">
        <ele>403.4</ele>
        <time>2024-11-29T14:04:46Z</time>
      </trkpt>
      <trkpt lat="45.93065" lon="1.28106">
        <ele>403.3</ele>
        <time>2024-11-29T14:04:47Z</time>
      </trkpt>
      <trkpt lat="45.93058" lon="1.28109">
        <ele>403.1</ele>
        <time>2024-11-29T14:04:48Z</time>
      </trkpt>
      <trkpt lat="45.93052" lon="1.28112">
        <ele>403</ele>
        <time>2024-11-29T14:04:49Z</time>
      </trkpt>
      <trkpt lat="45.93046" lon="1.28114">
        <ele>402.9</ele>
        <time>2024-11-29T14:04:50Z</time>
      </trkpt>
      <trkpt lat="45.9304" lon="1.28117">
        <ele>402.7</ele>
        <time>2024-11-29T14:04:51Z</time>
      </trkpt>
      <trkpt lat="45.93033" lon="1.2812">
        <ele>402.6</ele>
        <time>2024-11-29T14:04:52Z</time>
      </trkpt>
      <trkpt lat="45.93027" lon="1.28123">
        <ele>402.5</ele>
        <time>2024-11-29T14:04:53Z</time>
      </trkpt>
      <trkpt lat="45.9302" lon="1.28126">
        <ele>402.3</ele>
        <time>2024-11-29T14:04:54Z</time>
      </trkpt>
      <trkpt lat="45.93014" lon="1.28128">
        <ele>402.2</ele>
        <time>2024-11-29T14:04:55Z</time>
      </trkpt>
      <trkpt lat="45.93008" lon="1.2813">
        <ele>402.1</ele>
        <time>2024-11-29T14:04:56Z</time>
      </trkpt>
      <trkpt lat="45.93002" lon="1.28132">
        <ele>402</ele>
        <time>2024-11-29T14:04:57Z</time>
      </trkpt>
      <trkpt lat="45.92996" lon="1.28134">
        <ele>401.8</ele>
        <time>2024-11-29T14:04:58Z</time>
      </trkpt>
      <trkpt lat="45.92989" lon="1.28135">
        <ele>401.7</ele>
        <time>2024-11-29T14:04:59Z</time>
      </trkpt>
      <trkpt lat="45.92983" lon="1.28135">
        <ele>401.6</ele>
        <time>2024-11-29T14:05:00Z</time>
      </trkpt>
      <trkpt lat="45.92977" lon="1.28135">
        <ele>401.5</ele>
        <time>2024-11-29T14:05:01Z</time>
      </trkpt>
      <trkpt lat="45.9297" lon="1.28134">
        <ele>401.4</ele>
        <time>2024-11-29T14:05:02Z</time>
      </trkpt>
      <trkpt lat="45.92964" lon="1.28133">
        <ele>401.3</ele>
        <time>2024-11-29T14:05:03Z</time>
      </trkpt>
      <trkpt lat="45.92957" lon="1.28131">
        <ele>401.1</ele>
        <time>2024-11-29T14:05:04Z</time>
      </trkpt>
      <trkpt lat="45.92951" lon="1.2813">
        <ele>401</ele>
        <time>2024-11-29T14:05:05Z</time>
      </trkpt>
      <trkpt lat="45.92944" lon="1.28127">
        <ele>400.8</ele>
        <time>2024-11-29T14:05:06Z</time>
      </trkpt>
      <trkpt lat="45.92938" lon="1.28124">
        <ele>400.6</ele>
        <time>2024-11-29T14:05:07Z</time>
      </trkpt>
      <trkpt lat="45.92931" lon="1.28122">
        <ele>400.5</ele>
        <time>2024-11-29T14:05:08Z</time>
      </trkpt>
      <trkpt lat="45.92924" lon="1.28119">
        <ele>400.3</ele>
        <time>2024-11-29T14:05:09Z</time>
      </trkpt>
      <trkpt lat="45.92918" lon="1.28116">
        <ele>400.2</ele>
        <time>2024-11-29T14:05:10Z</time>
      </trkpt>
      <trkpt lat="45.92912" lon="1.28113">
        <ele>400</ele>
        <time>2024-11-29T14:05:11Z</time>
      </trkpt>
      <trkpt lat="45.92905" lon="1.2811">
        <ele>399.9</ele>
        <time>2024-11-29T14:05:12Z</time>
      </trkpt>
      <trkpt lat="45.92899" lon="1.28107">
        <ele>399.7</ele>
        <time>2024-11-29T14:05:13Z</time>
      </trkpt>
      <trkpt lat="45.92892" lon="1.28104">
        <ele>399.6</ele>
        <time>2024-11-29T14:05:14Z</time>
      </trkpt>
      <trkpt lat="45.92886" lon="1.28101">
        <ele>399.4</ele>
        <time>2024-11-29T14:05:15Z</time>
      </trkpt>
      <trkpt lat="45.9288" lon="1.28098">
        <ele>399.3</ele>
        <time>2024-11-29T14:05:16Z</time>
      </trkpt>
      <trkpt lat="45.92874" lon="1.28094">
        <ele>399.2</ele>
        <time>2024-11-29T14:05:17Z</time>
      </trkpt>
      <trkpt lat="45.92868" lon="1.28091">
        <ele>399</ele>
        <time>2024-11-29T14:05:18Z</time>
      </trkpt>
      <trkpt lat="45.92862" lon="1.28088">
        <ele>398.9</ele>
        <time>2024-11-29T14:05:19Z</time>
      </trkpt>
      <trkpt lat="45.92856" lon="1.28085">
        <ele>398.8</ele>
        <time>2024-11-29T14:05:20Z</time>
      </trkpt>
      <trkpt lat="45.9285" lon="1.28081">
        <ele>398.6</ele>
        <time>2024-11-29T14:05:21Z</time>
      </trkpt>
      <trkpt lat="45.92844" lon="1.28077">
        <ele>398.5</ele>
        <time>2024-11-29T14:05:22Z</time>
      </trkpt>
      <trkpt lat="45.92838" lon="1.28072">
        <ele>398.4</ele>
        <time>2024-11-29T14:05:23Z</time>
      </trkpt>
      <trkpt lat="45.92833" lon="1.28068">
        <ele>398.3</ele>
        <time>2024-11-29T14:05:24Z</time>
      </trkpt>
      <trkpt lat="45.92827" lon="1.28063">
        <ele>398.2</ele>
        <time>2024-11-29T14:05:25Z</time>
      </trkpt>
      <trkpt lat="45.92822" lon="1.28059">
        <ele>398.1</ele>
        <time>2024-11-29T14:05:26Z</time>
      </trkpt>
      <trkpt lat="45.92817" lon="1.28054">
        <ele>398</ele>
        <time>2024-11-29T14:05:27Z</time>
      </trkpt>
      <trkpt lat="45.92811" lon="1.2805">
        <ele>398</ele>
        <time>2024-11-29T14:05:28Z</time>
      </trkpt>
      <trkpt lat="45.92806" lon="1.28045">
        <ele>397.9</ele>
        <time>2024-11-29T14:05:29Z</time>
      </trkpt>
      <trkpt lat="45.928" lon="1.2804">
        <ele>397.9</ele>
        <time>2024-11-29T14:05:30Z</time>
      </trkpt>
      <trkpt lat="45.92795" lon="1.28035">
        <ele>397.8</ele>
        <time>2024-11-29T14:05:31Z</time>
      </trkpt>
      <trkpt lat="45.9279" lon="1.28029">
        <ele>397.8</ele>
        <time>2024-11-29T14:05:32Z</time>
      </trkpt>
      <trkpt lat="45.92784" lon="1.28024">
        <ele>397.7</ele>
        <time>2024-11-29T14:05:33Z</time>
      </trkpt>
      <trkpt lat="45.92779" lon="1.28019">
        <ele>397.7</ele>
        <time>2024-11-29T14:05:34Z</time>
      </trkpt>
      <trkpt lat="45.92775" lon="1.28014">
        <ele>397.7</ele>
        <time>2024-11-29T14:05:35Z</time>
      </trkpt>
      <trkpt lat="45.9277" lon="1.2801">
        <ele>397.7</ele>
        <time>2024-11-29T14:05:36Z</time>
      </trkpt>
      <trkpt lat="45.92765" lon="1.28005">
        <ele>397.8</ele>
        <time>2024-11-29T14:05:37Z</time>
      </trkpt>
      <trkpt lat="45.92759" lon="1.28001">
        <ele>397.9</ele>
        <time>2024-11-29T14:05:38Z</time>
      </trkpt>
      <trkpt lat="45.92755" lon="1.27996">
        <ele>398</ele>
        <time>2024-11-29T14:05:39Z</time>
      </trkpt>
      <trkpt lat="45.92749" lon="1.27992">
        <ele>398.2</ele>
        <time>2024-11-29T14:05:40Z</time>
      </trkpt>
      <trkpt lat="45.92744" lon="1.27987">
        <ele>398.3</ele>
        <time>2024-11-29T14:05:41Z</time>
      </trkpt>
      <trkpt lat="45.9274" lon="1.27982">
        <ele>398.5</ele>
        <time>2024-11-29T14:05:42Z</time>
      </trkpt>
      <trkpt lat="45.92735" lon="1.27977">
        <ele>398.7</ele>
        <time>2024-11-29T14:05:43Z</time>
      </trkpt>
      <trkpt lat="45.9273" lon="1.27973">
        <ele>398.9</ele>
        <time>2024-11-29T14:05:44Z</time>
      </trkpt>
      <trkpt lat="45.92726" lon="1.27968">
        <ele>399</ele>
        <time>2024-11-29T14:05:45Z</time>
      </trkpt>
      <trkpt lat="45.92721" lon="1.27962">
        <ele>399.1</ele>
        <time>2024-11-29T14:05:46Z</time>
      </trkpt>
      <trkpt lat="45.92717" lon="1.27957">
        <ele>399.1</ele>
        <time>2024-11-29T14:05:47Z</time>
      </trkpt>
      <trkpt lat="45.92712" lon="1.27952">
        <ele>399.2</ele>
        <time>2024-11-29T14:05:48Z</time>
      </trkpt>
      <trkpt lat="45.92708" lon="1.27947">
        <ele>399.3</ele>
        <time>2024-11-29T14:05:49Z</time>
      </trkpt>
      <trkpt lat="45.92703" lon="1.27941">
        <ele>399.4</ele>
        <time>2024-11-29T14:05:50Z</time>
      </trkpt>
      <trkpt lat="45.92699" lon="1.27936">
        <ele>399.5</ele>
        <time>2024-11-29T14:05:51Z</time>
      </trkpt>
      <trkpt lat="45.92694" lon="1.27929">
        <ele>399.5</ele>
        <time>2024-11-29T14:05:52Z</time>
      </trkpt>
      <trkpt lat="45.9269" lon="1.27923">
        <ele>399.5</ele>
        <time>2024-11-29T14:05:53Z</time>
      </trkpt>
      <trkpt lat="45.92686" lon="1.27916">
        <ele>399.5</ele>
        <time>2024-11-29T14:05:54Z</time>
      </trkpt>
      <trkpt lat="45.92682" lon="1.27909">
        <ele>399.5</ele>
        <time>2024-11-29T14:05:55Z</time>
      </trkpt>
      <trkpt lat="45.92678" lon="1.27902">
        <ele>399.4</ele>
        <time>2024-11-29T14:05:56Z</time>
      </trkpt>
      <trkpt lat="45.92674" lon="1.27895">
        <ele>399.3</ele>
        <time>2024-11-29T14:05:57Z</time>
      </trkpt>
      <trkpt lat="45.9267" lon="1.27888">
        <ele>399.1</ele>
        <time>2024-11-29T14:05:58Z</time>
      </trkpt>
      <trkpt lat="45.92667" lon="1.27881">
        <ele>398.9</ele>
        <time>2024-11-29T14:05:59Z</time>
      </trkpt>
      <trkpt lat="45.92663" lon="1.27873">
        <ele>398.7</ele>
        <time>2024-11-29T14:06:00Z</time>
      </trkpt>
      <trkpt lat="45.92659" lon="1.27865">
        <ele>398.4</ele>
        <time>2024-11-29T14:06:01Z</time>
      </trkpt>
      <trkpt lat="45.92656" lon="1.27857">
        <ele>398.1</ele>
        <time>2024-11-29T14:06:02Z</time>
      </trkpt>
      <trkpt lat="45.92652" lon="1.2785">
        <ele>397.8</ele>
        <time>2024-11-29T14:06:03Z</time>
      </trkpt>
      <trkpt lat="45.92648" lon="1.27842">
        <ele>397.5</ele>
        <time>2024-11-29T14:06:04Z</time>
      </trkpt>
      <trkpt lat="45.92644" lon="1.27835">
        <ele>397.2</ele>
        <time>2024-11-29T14:06:05Z</time>
      </trkpt>
      <trkpt lat="45.9264" lon="1.27828">
        <ele>396.9</ele>
        <time>2024-11-29T14:06:06Z</time>
      </trkpt>
      <trkpt lat="45.92636" lon="1.27822">
        <ele>396.6</ele>
        <time>2024-11-29T14:06:07Z</time>
      </trkpt>
      <trkpt lat="45.9263" lon="1.27818">
        <ele>396.3</ele>
        <time>2024-11-29T14:06:08Z</time>
      </trkpt>
      <trkpt lat="45.92624" lon="1.27815">
        <ele>396.1</ele>
        <time>2024-11-29T14:06:09Z</time>
      </trkpt>
      <trkpt lat="45.92618" lon="1.27814">
        <ele>396</ele>
        <time>2024-11-29T14:06:10Z</time>
      </trkpt>
      <trkpt lat="45.92612" lon="1.27813">
        <ele>395.8</ele>
        <time>2024-11-29T14:06:11Z</time>
      </trkpt>
      <trkpt lat="45.92606" lon="1.27812">
        <ele>395.5</ele>
        <time>2024-11-29T14:06:12Z</time>
      </trkpt>
      <trkpt lat="45.926" lon="1.27812">
        <ele>395.1</ele>
        <time>2024-11-29T14:06:13Z</time>
      </trkpt>
      <trkpt lat="45.92594" lon="1.27812">
        <ele>394.8</ele>
        <time>2024-11-29T14:06:14Z</time>
      </trkpt>
      <trkpt lat="45.92588" lon="1.27812">
        <ele>394.4</ele>
        <time>2024-11-29T14:06:15Z</time>
      </trkpt>
      <trkpt lat="45.92582" lon="1.27812">
        <ele>394.1</ele>
        <time>2024-11-29T14:06:16Z</time>
      </trkpt>
      <trkpt lat="45.92575" lon="1.27812">
        <ele>393.7</ele>
        <time>2024-11-29T14:06:17Z</time>
      </trkpt>
      <trkpt lat="45.92569" lon="1.27812">
        <ele>393.4</ele>
        <time>2024-11-29T14:06:18Z</time>
      </trkpt>
      <trkpt lat="45.92564" lon="1.27812">
        <ele>393.2</ele>
        <time>2024-11-29T14:06:19Z</time>
      </trkpt>
      <trkpt lat="45.92559" lon="1.27812">
        <ele>392.9</ele>
        <time>2024-11-29T14:06:20Z</time>
      </trkpt>
      <trkpt lat="45.92556" lon="1.27812">
        <ele>392.8</ele>
        <time>2024-11-29T14:06:21Z</time>
      </trkpt>
      <trkpt lat="45.92554" lon="1.27818">
        <ele>392.6</ele>
        <time>2024-11-29T14:06:23Z</time>
      </trkpt>
      <trkpt lat="45.92554" lon="1.27823">
        <ele>392.6</ele>
        <time>2024-11-29T14:06:24Z</time>
      </trkpt>
      <trkpt lat="45.92554" lon="1.27829">
        <ele>392.7</ele>
        <time>2024-11-29T14:06:25Z</time>
      </trkpt>
      <trkpt lat="45.92555" lon="1.27836">
        <ele>392.7</ele>
        <time>2024-11-29T14:06:26Z</time>
      </trkpt>
      <trkpt lat="45.92555" lon="1.27843">
        <ele>392.8</ele>
        <time>2024-11-29T14:06:27Z</time>
      </trkpt>
      <trkpt lat="45.92554" lon="1.2785">
        <ele>393</ele>
        <time>2024-11-29T14:06:28Z</time>
      </trkpt>
      <trkpt lat="45.92555" lon="1.27858">
        <ele>393.1</ele>
        <time>2024-11-29T14:06:29Z</time>
      </trkpt>
      <trkpt lat="45.92555" lon="1.27865">
        <ele>393.2</ele>
        <time>2024-11-29T14:06:30Z</time>
      </trkpt>
      <trkpt lat="45.92556" lon="1.27873">
        <ele>393.4</ele>
        <time>2024-11-29T14:06:31Z</time>
      </trkpt>
      <trkpt lat="45.92557" lon="1.27881">
        <ele>393.5</ele>
        <time>2024-11-29T14:06:32Z</time>
      </trkpt>
      <trkpt lat="45.92558" lon="1.27889">
        <ele>393.6</ele>
        <time>2024-11-29T14:06:33Z</time>
      </trkpt>
      <trkpt lat="45.92559" lon="1.27897">
        <ele>393.7</ele>
        <time>2024-11-29T14:06:34Z</time>
      </trkpt>
      <trkpt lat="45.92561" lon="1.27904">
        <ele>393.8</ele>
        <time>2024-11-29T14:06:35Z</time>
      </trkpt>
      <trkpt lat="45.92562" lon="1.27912">
        <ele>393.9</ele>
        <time>2024-11-29T14:06:36Z</time>
      </trkpt>
      <trkpt lat="45.92563" lon="1.2792">
        <ele>394</ele>
        <time>2024-11-29T14:06:37Z</time>
      </trkpt>
      <trkpt lat="45.92565" lon="1.27927">
        <ele>394</ele>
        <time>2024-11-29T14:06:38Z</time>
      </trkpt>
      <trkpt lat="45.92567" lon="1.27935">
        <ele>394.1</ele>
        <time>2024-11-29T14:06:39Z</time>
      </trkpt>
      <trkpt lat="45.92569" lon="1.27943">
        <ele>394.2</ele>
        <time>2024-11-29T14:06:40Z</time>
      </trkpt>
      <trkpt lat="45.92571" lon="1.27951">
        <ele>394.2</ele>
        <time>2024-11-29T14:06:41Z</time>
      </trkpt>
      <trkpt lat="45.92573" lon="1.27959">
        <ele>394.3</ele>
        <time>2024-11-29T14:06:42Z</time>
      </trkpt>
      <trkpt lat="45.92575" lon="1.27967">
        <ele>394.3</ele>
        <time>2024-11-29T14:06:43Z</time>
      </trkpt>
      <trkpt lat="45.92576" lon="1.27975">
        <ele>394.4</ele>
        <time>2024-11-29T14:06:44Z</time>
      </trkpt>
      <trkpt lat="45.92578" lon="1.27983">
        <ele>394.4</ele>
        <time>2024-11-29T14:06:45Z</time>
      </trkpt>
      <trkpt lat="45.92579" lon="1.27991">
        <ele>394.4</ele>
        <time>2024-11-29T14:06:46Z</time>
      </trkpt>
      <trkpt lat="45.92581" lon="1.27999">
        <ele>394.3</ele>
        <time>2024-11-29T14:06:47Z</time>
      </trkpt>
      <trkpt lat="45.92583" lon="1.28006">
        <ele>394.3</ele>
        <time>2024-11-29T14:06:48Z</time>
      </trkpt>
      <trkpt lat="45.92584" lon="1.28013">
        <ele>394.2</ele>
        <time>2024-11-29T14:06:49Z</time>
      </trkpt>
      <trkpt lat="45.92586" lon="1.2802">
        <ele>394.1</ele>
        <time>2024-11-29T14:06:50Z</time>
      </trkpt>
      <trkpt lat="45.92587" lon="1.28027">
        <ele>393.9</ele>
        <time>2024-11-29T14:06:51Z</time>
      </trkpt>
      <trkpt lat="45.9259" lon="1.28033">
        <ele>393.7</ele>
        <time>2024-11-29T14:06:52Z</time>
      </trkpt>
      <trkpt lat="45.92593" lon="1.28041">
        <ele>393.5</ele>
        <time>2024-11-29T14:06:53Z</time>
      </trkpt>
      <trkpt lat="45.92597" lon="1.28048">
        <ele>393.2</ele>
        <time>2024-11-29T14:06:54Z</time>
      </trkpt>
      <trkpt lat="45.92602" lon="1.28054">
        <ele>392.9</ele>
        <time>2024-11-29T14:06:55Z</time>
      </trkpt>
      <trkpt lat="45.92607" lon="1.28061">
        <ele>392.5</ele>
        <time>2024-11-29T14:06:56Z</time>
      </trkpt>
      <trkpt lat="45.92612" lon="1.28067">
        <ele>392.2</ele>
        <time>2024-11-29T14:06:57Z</time>
      </trkpt>
      <trkpt lat="45.92617" lon="1.28074">
        <ele>391.8</ele>
        <time>2024-11-29T14:06:58Z</time>
      </trkpt>
      <trkpt lat="45.92622" lon="1.28081">
        <ele>391.4</ele>
        <time>2024-11-29T14:06:59Z</time>
      </trkpt>
      <trkpt lat="45.92627" lon="1.28088">
        <ele>391.1</ele>
        <time>2024-11-29T14:07:00Z</time>
      </trkpt>
      <trkpt lat="45.92633" lon="1.28096">
        <ele>390.7</ele>
        <time>2024-11-29T14:07:01Z</time>
      </trkpt>
      <trkpt lat="45.92637" lon="1.28104">
        <ele>390.5</ele>
        <time>2024-11-29T14:07:02Z</time>
      </trkpt>
      <trkpt lat="45.92642" lon="1.28113">
        <ele>390.2</ele>
        <time>2024-11-29T14:07:03Z</time>
      </trkpt>
      <trkpt lat="45.92646" lon="1.28121">
        <ele>390</ele>
        <time>2024-11-29T14:07:04Z</time>
      </trkpt>
      <trkpt lat="45.92651" lon="1.28129">
        <ele>389.8</ele>
        <time>2024-11-29T14:07:05Z</time>
      </trkpt>
      <trkpt lat="45.92656" lon="1.28136">
        <ele>389.6</ele>
        <time>2024-11-29T14:07:06Z</time>
      </trkpt>
      <trkpt lat="45.92662" lon="1.28142">
        <ele>389.4</ele>
        <time>2024-11-29T14:07:07Z</time>
      </trkpt>
      <trkpt lat="45.92667" lon="1.28149">
        <ele>389.3</ele>
        <time>2024-11-29T14:07:08Z</time>
      </trkpt>
      <trkpt lat="45.92672" lon="1.28155">
        <ele>389.3</ele>
        <time>2024-11-29T14:07:09Z</time>
      </trkpt>
      <trkpt lat="45.92677" lon="1.28162">
        <ele>389.2</ele>
        <time>2024-11-29T14:07:10Z</time>
      </trkpt>
      <trkpt lat="45.9268" lon="1.28169">
        <ele>389.2</ele>
        <time>2024-11-29T14:07:11Z</time>
      </trkpt>
      <trkpt lat="45.92683" lon="1.28177">
        <ele>389.2</ele>
        <time>2024-11-29T14:07:12Z</time>
      </trkpt>
      <trkpt lat="45.92686" lon="1.28184">
        <ele>389.2</ele>
        <time>2024-11-29T14:07:13Z</time>
      </trkpt>
      <trkpt lat="45.92688" lon="1.28193">
        <ele>389.2</ele>
        <time>2024-11-29T14:07:14Z</time>
      </trkpt>
      <trkpt lat="45.9269" lon="1.28201">
        <ele>389.2</ele>
        <time>2024-11-29T14:07:15Z</time>
      </trkpt>
      <trkpt lat="45.92692" lon="1.28209">
        <ele>389.3</ele>
        <time>2024-11-29T14:07:16Z</time>
      </trkpt>
      <trkpt lat="45.92693" lon="1.28218">
        <ele>389.4</ele>
        <time>2024-11-29T14:07:17Z</time>
      </trkpt>
      <trkpt lat="45.92695" lon="1.28226">
        <ele>389.5</ele>
        <time>2024-11-29T14:07:18Z</time>
      </trkpt>
      <trkpt lat="45.92697" lon="1.28234">
        <ele>389.6</ele>
        <time>2024-11-29T14:07:19Z</time>
      </trkpt>
      <trkpt lat="45.92698" lon="1.28242">
        <ele>389.8</ele>
        <time>2024-11-29T14:07:20Z</time>
      </trkpt>
      <trkpt lat="45.927" lon="1.2825">
        <ele>390</ele>
        <time>2024-11-29T14:07:21Z</time>
      </trkpt>
      <trkpt lat="45.92702" lon="1.28258">
        <ele>390.2</ele>
        <time>2024-11-29T14:07:22Z</time>
      </trkpt>
      <trkpt lat="45.92703" lon="1.28266">
        <ele>390.3</ele>
        <time>2024-11-29T14:07:23Z</time>
      </trkpt>
      <trkpt lat="45.92705" lon="1.28274">
        <ele>390.5</ele>
        <time>2024-11-29T14:07:24Z</time>
      </trkpt>
      <trkpt lat="45.92707" lon="1.28281">
        <ele>390.7</ele>
        <time>2024-11-29T14:07:25Z</time>
      </trkpt>
      <trkpt lat="45.92708" lon="1.28289">
        <ele>390.8</ele>
        <time>2024-11-29T14:07:26Z</time>
      </trkpt>
      <trkpt lat="45.9271" lon="1.28297">
        <ele>390.9</ele>
        <time>2024-11-29T14:07:27Z</time>
      </trkpt>
      <trkpt lat="45.92711" lon="1.28305">
        <ele>390.9</ele>
        <time>2024-11-29T14:07:28Z</time>
      </trkpt>
      <trkpt lat="45.92712" lon="1.28313">
        <ele>391</ele>
        <time>2024-11-29T14:07:29Z</time>
      </trkpt>
      <trkpt lat="45.92713" lon="1.28321">
        <ele>391</ele>
        <time>2024-11-29T14:07:30Z</time>
      </trkpt>
      <trkpt lat="45.92715" lon="1.2833">
        <ele>390.9</ele>
        <time>2024-11-29T14:07:31Z</time>
      </trkpt>
      <trkpt lat="45.92716" lon="1.28338">
        <ele>390.9</ele>
        <time>2024-11-29T14:07:32Z</time>
      </trkpt>
      <trkpt lat="45.92717" lon="1.28347">
        <ele>390.8</ele>
        <time>2024-11-29T14:07:33Z</time>
      </trkpt>
      <trkpt lat="45.92718" lon="1.28355">
        <ele>390.8</ele>
        <time>2024-11-29T14:07:34Z</time>
      </trkpt>
      <trkpt lat="45.92719" lon="1.28364">
        <ele>390.7</ele>
        <time>2024-11-29T14:07:35Z</time>
      </trkpt>
      <trkpt lat="45.92721" lon="1.28373">
        <ele>390.7</ele>
        <time>2024-11-29T14:07:36Z</time>
      </trkpt>
      <trkpt lat="45.92722" lon="1.28381">
        <ele>390.6</ele>
        <time>2024-11-29T14:07:37Z</time>
      </trkpt>
      <trkpt lat="45.92723" lon="1.2839">
        <ele>390.6</ele>
        <time>2024-11-29T14:07:38Z</time>
      </trkpt>
      <trkpt lat="45.92724" lon="1.28399">
        <ele>390.6</ele>
        <time>2024-11-29T14:07:39Z</time>
      </trkpt>
      <trkpt lat="45.92724" lon="1.28407">
        <ele>390.6</ele>
        <time>2024-11-29T14:07:40Z</time>
      </trkpt>
      <trkpt lat="45.92725" lon="1.28416">
        <ele>390.6</ele>
        <time>2024-11-29T14:07:41Z</time>
      </trkpt>
      <trkpt lat="45.92725" lon="1.28426">
        <ele>390.6</ele>
        <time>2024-11-29T14:07:42Z</time>
      </trkpt>
      <trkpt lat="45.92725" lon="1.28434">
        <ele>390.6</ele>
        <time>2024-11-29T14:07:43Z</time>
      </trkpt>
      <trkpt lat="45.92725" lon="1.28442">
        <ele>390.7</ele>
        <time>2024-11-29T14:07:44Z</time>
      </trkpt>
      <trkpt lat="45.92724" lon="1.28451">
        <ele>390.7</ele>
        <time>2024-11-29T14:07:45Z</time>
      </trkpt>
      <trkpt lat="45.92724" lon="1.28459">
        <ele>390.8</ele>
        <time>2024-11-29T14:07:46Z</time>
      </trkpt>
      <trkpt lat="45.92724" lon="1.28468">
        <ele>390.9</ele>
        <time>2024-11-29T14:07:47Z</time>
      </trkpt>
      <trkpt lat="45.92723" lon="1.28475">
        <ele>391</ele>
        <time>2024-11-29T14:07:48Z</time>
      </trkpt>
      <trkpt lat="45.92722" lon="1.28483">
        <ele>391.1</ele>
        <time>2024-11-29T14:07:49Z</time>
      </trkpt>
      <trkpt lat="45.92722" lon="1.28492">
        <ele>391.2</ele>
        <time>2024-11-29T14:07:50Z</time>
      </trkpt>
      <trkpt lat="45.92722" lon="1.285">
        <ele>391.3</ele>
        <time>2024-11-29T14:07:51Z</time>
      </trkpt>
      <trkpt lat="45.92721" lon="1.28508">
        <ele>391.5</ele>
        <time>2024-11-29T14:07:52Z</time>
      </trkpt>
      <trkpt lat="45.9272" lon="1.28516">
        <ele>391.6</ele>
        <time>2024-11-29T14:07:53Z</time>
      </trkpt>
      <trkpt lat="45.92718" lon="1.28524">
        <ele>391.8</ele>
        <time>2024-11-29T14:07:54Z</time>
      </trkpt>
      <trkpt lat="45.92716" lon="1.28532">
        <ele>391.9</ele>
        <time>2024-11-29T14:07:55Z</time>
      </trkpt>
      <trkpt lat="45.92714" lon="1.28539">
        <ele>392.1</ele>
        <time>2024-11-29T14:07:56Z</time>
      </trkpt>
      <trkpt lat="45.92713" lon="1.28547">
        <ele>392.2</ele>
        <time>2024-11-29T14:07:57Z</time>
      </trkpt>
      <trkpt lat="45.9271" lon="1.28556">
        <ele>392.3</ele>
        <time>2024-11-29T14:07:58Z</time>
      </trkpt>
      <trkpt lat="45.92709" lon="1.28564">
        <ele>392.4</ele>
        <time>2024-11-29T14:07:59Z</time>
      </trkpt>
      <trkpt lat="45.92707" lon="1.28572">
        <ele>392.4</ele>
        <time>2024-11-29T14:08:00Z</time>
      </trkpt>
      <trkpt lat="45.92705" lon="1.2858">
        <ele>392.4</ele>
        <time>2024-11-29T14:08:01Z</time>
      </trkpt>
      <trkpt lat="45.92704" lon="1.28589">
        <ele>392.4</ele>
        <time>2024-11-29T14:08:02Z</time>
      </trkpt>
      <trkpt lat="45.92703" lon="1.28597">
        <ele>392.3</ele>
        <time>2024-11-29T14:08:03Z</time>
      </trkpt>
      <trkpt lat="45.92703" lon="1.28606">
        <ele>392.3</ele>
        <time>2024-11-29T14:08:04Z</time>
      </trkpt>
      <trkpt lat="45.92702" lon="1.28615">
        <ele>392.2</ele>
        <time>2024-11-29T14:08:05Z</time>
      </trkpt>
      <trkpt lat="45.927" lon="1.28624">
        <ele>392.1</ele>
        <time>2024-11-29T14:08:06Z</time>
      </trkpt>
      <trkpt lat="45.92699" lon="1.28633">
        <ele>392</ele>
        <time>2024-11-29T14:08:07Z</time>
      </trkpt>
      <trkpt lat="45.92697" lon="1.28642">
        <ele>391.9</ele>
        <time>2024-11-29T14:08:08Z</time>
      </trkpt>
      <trkpt lat="45.92696" lon="1.28651">
        <ele>391.8</ele>
        <time>2024-11-29T14:08:09Z</time>
      </trkpt>
      <trkpt lat="45.92695" lon="1.2866">
        <ele>391.7</ele>
        <time>2024-11-29T14:08:10Z</time>
      </trkpt>
      <trkpt lat="45.92692" lon="1.28669">
        <ele>391.6</ele>
        <time>2024-11-29T14:08:11Z</time>
      </trkpt>
      <trkpt lat="45.92691" lon="1.28677">
        <ele>391.5</ele>
        <time>2024-11-29T14:08:12Z</time>
      </trkpt>
      <trkpt lat="45.9269" lon="1.28685">
        <ele>391.5</ele>
        <time>2024-11-29T14:08:13Z</time>
      </trkpt>
      <trkpt lat="45.92689" lon="1.28694">
        <ele>391.4</ele>
        <time>2024-11-29T14:08:14Z</time>
      </trkpt>
      <trkpt lat="45.9269" lon="1.28703">
        <ele>391.3</ele>
        <time>2024-11-29T14:08:15Z</time>
      </trkpt>
      <trkpt lat="45.92689" lon="1.28712">
        <ele>391.2</ele>
        <time>2024-11-29T14:08:16Z</time>
      </trkpt>
      <trkpt lat="45.92687" lon="1.28722">
        <ele>391.1</ele>
        <time>2024-11-29T14:08:17Z</time>
      </trkpt>
      <trkpt lat="45.92685" lon="1.28731">
        <ele>391.1</ele>
        <time>2024-11-29T14:08:18Z</time>
      </trkpt>
      <trkpt lat="45.92684" lon="1.2874">
        <ele>391</ele>
        <time>2024-11-29T14:08:19Z</time>
      </trkpt>
      <trkpt lat="45.92682" lon="1.28749">
        <ele>391</ele>
        <time>2024-11-29T14:08:20Z</time>
      </trkpt>
      <trkpt lat="45.9268" lon="1.28757">
        <ele>390.9</ele>
        <time>2024-11-29T14:08:21Z</time>
      </trkpt>
      <trkpt lat="45.92678" lon="1.28765">
        <ele>390.8</ele>
        <time>2024-11-29T14:08:22Z</time>
      </trkpt>
      <trkpt lat="45.92676" lon="1.28773">
        <ele>390.7</ele>
        <time>2024-11-29T14:08:23Z</time>
      </trkpt>
      <trkpt lat="45.92674" lon="1.28781">
        <ele>390.6</ele>
        <time>2024-11-29T14:08:24Z</time>
      </trkpt>
      <trkpt lat="45.92671" lon="1.28788">
        <ele>390.4</ele>
        <time>2024-11-29T14:08:25Z</time>
      </trkpt>
      <trkpt lat="45.92668" lon="1.28796">
        <ele>390.3</ele>
        <time>2024-11-29T14:08:26Z</time>
      </trkpt>
      <trkpt lat="45.92664" lon="1.28804">
        <ele>390.1</ele>
        <time>2024-11-29T14:08:27Z</time>
      </trkpt>
      <trkpt lat="45.92661" lon="1.28811">
        <ele>389.9</ele>
        <time>2024-11-29T14:08:28Z</time>
      </trkpt>
      <trkpt lat="45.92657" lon="1.28819">
        <ele>389.8</ele>
        <time>2024-11-29T14:08:29Z</time>
      </trkpt>
      <trkpt lat="45.92653" lon="1.28827">
        <ele>389.6</ele>
        <time>2024-11-29T14:08:30Z</time>
      </trkpt>
      <trkpt lat="45.9265" lon="1.28834">
        <ele>389.6</ele>
        <time>2024-11-29T14:08:31Z</time>
      </trkpt>
      <trkpt lat="45.92646" lon="1.28842">
        <ele>389.5</ele>
        <time>2024-11-29T14:08:32Z</time>
      </trkpt>
      <trkpt lat="45.92643" lon="1.28849">
        <ele>389.4</ele>
        <time>2024-11-29T14:08:33Z</time>
      </trkpt>
      <trkpt lat="45.92638" lon="1.28855">
        <ele>389.3</ele>
        <time>2024-11-29T14:08:34Z</time>
      </trkpt>
      <trkpt lat="45.92633" lon="1.28861">
        <ele>389.3</ele>
        <time>2024-11-29T14:08:35Z</time>
      </trkpt>
      <trkpt lat="45.92629" lon="1.28868">
        <ele>389.2</ele>
        <time>2024-11-29T14:08:36Z</time>
      </trkpt>
      <trkpt lat="45.92625" lon="1.28873">
        <ele>389.2</ele>
        <time>2024-11-29T14:08:37Z</time>
      </trkpt>
      <trkpt lat="45.92621" lon="1.28879">
        <ele>389.1</ele>
        <time>2024-11-29T14:08:38Z</time>
      </trkpt>
      <trkpt lat="45.92618" lon="1.28884">
        <ele>389</ele>
        <time>2024-11-29T14:08:39Z</time>
      </trkpt>
      <trkpt lat="45.92613" lon="1.28891">
        <ele>389</ele>
        <time>2024-11-29T14:08:40Z</time>
      </trkpt>
      <trkpt lat="45.92608" lon="1.28897">
        <ele>388.8</ele>
        <time>2024-11-29T14:08:41Z</time>
      </trkpt>
      <trkpt lat="45.92602" lon="1.28902">
        <ele>388.7</ele>
        <time>2024-11-29T14:08:42Z</time>
      </trkpt>
      <trkpt lat="45.92596" lon="1.28907">
        <ele>388.6</ele>
        <time>2024-11-29T14:08:43Z</time>
      </trkpt>
      <trkpt lat="45.92591" lon="1.28911">
        <ele>388.5</ele>
        <time>2024-11-29T14:08:44Z</time>
      </trkpt>
      <trkpt lat="45.92585" lon="1.28916">
        <ele>388.3</ele>
        <time>2024-11-29T14:08:45Z</time>
      </trkpt>
      <trkpt lat="45.9258" lon="1.28921">
        <ele>388.2</ele>
        <time>2024-11-29T14:08:46Z</time>
      </trkpt>
      <trkpt lat="45.92574" lon="1.28925">
        <ele>388.1</ele>
        <time>2024-11-29T14:08:47Z</time>
      </trkpt>
      <trkpt lat="45.92569" lon="1.2893">
        <ele>388</ele>
        <time>2024-11-29T14:08:48Z</time>
      </trkpt>
      <trkpt lat="45.92563" lon="1.28935">
        <ele>387.9</ele>
        <time>2024-11-29T14:08:49Z</time>
      </trkpt>
      <trkpt lat="45.92558" lon="1.2894">
        <ele>387.8</ele>
        <time>2024-11-29T14:08:50Z</time>
      </trkpt>
      <trkpt lat="45.92552" lon="1.28945">
        <ele>387.8</ele>
        <time>2024-11-29T14:08:51Z</time>
      </trkpt>
      <trkpt lat="45.92547" lon="1.2895">
        <ele>387.7</ele>
        <time>2024-11-29T14:08:52Z</time>
      </trkpt>
      <trkpt lat="45.92543" lon="1.28956">
        <ele>387.7</ele>
        <time>2024-11-29T14:08:53Z</time>
      </trkpt>
      <trkpt lat="45.92538" lon="1.28961">
        <ele>387.6</ele>
        <time>2024-11-29T14:08:54Z</time>
      </trkpt>
      <trkpt lat="45.92533" lon="1.28966">
        <ele>387.6</ele>
        <time>2024-11-29T14:08:55Z</time>
      </trkpt>
      <trkpt lat="45.92528" lon="1.2897">
        <ele>387.6</ele>
        <time>2024-11-29T14:08:56Z</time>
      </trkpt>
      <trkpt lat="45.92523" lon="1.28975">
        <ele>387.6</ele>
        <time>2024-11-29T14:08:57Z</time>
      </trkpt>
      <trkpt lat="45.92517" lon="1.28979">
        <ele>387.5</ele>
        <time>2024-11-29T14:08:58Z</time>
      </trkpt>
      <trkpt lat="45.92512" lon="1.28983">
        <ele>387.5</ele>
        <time>2024-11-29T14:08:59Z</time>
      </trkpt>
      <trkpt lat="45.92507" lon="1.28988">
        <ele>387.4</ele>
        <time>2024-11-29T14:09:00Z</time>
      </trkpt>
      <trkpt lat="45.92502" lon="1.28992">
        <ele>387.3</ele>
        <time>2024-11-29T14:09:01Z</time>
      </trkpt>
      <trkpt lat="45.92496" lon="1.28997">
        <ele>387.2</ele>
        <time>2024-11-29T14:09:02Z</time>
      </trkpt>
      <trkpt lat="45.92491" lon="1.29002">
        <ele>387</ele>
        <time>2024-11-29T14:09:03Z</time>
      </trkpt>
      <trkpt lat="45.92485" lon="1.29006">
        <ele>386.8</ele>
        <time>2024-11-29T14:09:04Z</time>
      </trkpt>
      <trkpt lat="45.92478" lon="1.29011">
        <ele>386.5</ele>
        <time>2024-11-29T14:09:05Z</time>
      </trkpt>
      <trkpt lat="45.92471" lon="1.29015">
        <ele>386.2</ele>
        <time>2024-11-29T14:09:06Z</time>
      </trkpt>
      <trkpt lat="45.92464" lon="1.29019">
        <ele>385.9</ele>
        <time>2024-11-29T14:09:07Z</time>
      </trkpt>
      <trkpt lat="45.92457" lon="1.29023">
        <ele>385.6</ele>
        <time>2024-11-29T14:09:08Z</time>
      </trkpt>
      <trkpt lat="45.9245" lon="1.29026">
        <ele>385.4</ele>
        <time>2024-11-29T14:09:09Z</time>
      </trkpt>
      <trkpt lat="45.92444" lon="1.2903">
        <ele>385.2</ele>
        <time>2024-11-29T14:09:10Z</time>
      </trkpt>
      <trkpt lat="45.92437" lon="1.29034">
        <ele>385</ele>
        <time>2024-11-29T14:09:11Z</time>
      </trkpt>
      <trkpt lat="45.9243" lon="1.29039">
        <ele>384.8</ele>
        <time>2024-11-29T14:09:12Z</time>
      </trkpt>
      <trkpt lat="45.92423" lon="1.29043">
        <ele>384.7</ele>
        <time>2024-11-29T14:09:13Z</time>
      </trkpt>
      <trkpt lat="45.92416" lon="1.29047">
        <ele>384.4</ele>
        <time>2024-11-29T14:09:14Z</time>
      </trkpt>
      <trkpt lat="45.92409" lon="1.29051">
        <ele>384</ele>
        <time>2024-11-29T14:09:15Z</time>
      </trkpt>
      <trkpt lat="45.92402" lon="1.29056">
        <ele>383.7</ele>
        <time>2024-11-29T14:09:16Z</time>
      </trkpt>
      <trkpt lat="45.92395" lon="1.2906">
        <ele>383.4</ele>
        <time>2024-11-29T14:09:17Z</time>
      </trkpt>
      <trkpt lat="45.92389" lon="1.29065">
        <ele>383</ele>
        <time>2024-11-29T14:09:18Z</time>
      </trkpt>
      <trkpt lat="45.92382" lon="1.29069">
        <ele>382.7</ele>
        <time>2024-11-29T14:09:19Z</time>
      </trkpt>
      <trkpt lat="45.92375" lon="1.29074">
        <ele>382.4</ele>
        <time>2024-11-29T14:09:20Z</time>
      </trkpt>
      <trkpt lat="45.92369" lon="1.29079">
        <ele>382.2</ele>
        <time>2024-11-29T14:09:21Z</time>
      </trkpt>
      <trkpt lat="45.92363" lon="1.29083">
        <ele>382</ele>
        <time>2024-11-29T14:09:22Z</time>
      </trkpt>
      <trkpt lat="45.92358" lon="1.29087">
        <ele>381.8</ele>
        <time>2024-11-29T14:09:23Z</time>
      </trkpt>
      <trkpt lat="45.92353" lon="1.29091">
        <ele>381.7</ele>
        <time>2024-11-29T14:09:24Z</time>
      </trkpt>
      <trkpt lat="45.92349" lon="1.29093">
        <ele>381.7</ele>
        <time>2024-11-29T14:09:25Z</time>
      </trkpt>
      <trkpt lat="45.92346" lon="1.29091">
        <ele>381.6</ele>
        <time>2024-11-29T14:09:27Z</time>
      </trkpt>
      <trkpt lat="45.92343" lon="1.29088">
        <ele>381.5</ele>
        <time>2024-11-29T14:09:28Z</time>
      </trkpt>
      <trkpt lat="45.92343" lon="1.29084">
        <ele>381.5</ele>
        <time>2024-11-29T14:09:29Z</time>
      </trkpt>
      <trkpt lat="45.92343" lon="1.29079">
        <ele>381.4</ele>
        <time>2024-11-29T14:09:30Z</time>
      </trkpt>
      <trkpt lat="45.92343" lon="1.29073">
        <ele>381.4</ele>
        <time>2024-11-29T14:09:31Z</time>
      </trkpt>
      <trkpt lat="45.92343" lon="1.29067">
        <ele>381.3</ele>
        <time>2024-11-29T14:09:32Z</time>
      </trkpt>
      <trkpt lat="45.92342" lon="1.2906">
        <ele>381.2</ele>
        <time>2024-11-29T14:09:33Z</time>
      </trkpt>
      <trkpt lat="45.92341" lon="1.29053">
        <ele>381.2</ele>
        <time>2024-11-29T14:09:34Z</time>
      </trkpt>
      <trkpt lat="45.92339" lon="1.29047">
        <ele>381.2</ele>
        <time>2024-11-29T14:09:35Z</time>
      </trkpt>
      <trkpt lat="45.92337" lon="1.29041">
        <ele>381.2</ele>
        <time>2024-11-29T14:09:36Z</time>
      </trkpt>
      <trkpt lat="45.92335" lon="1.29035">
        <ele>381.2</ele>
        <time>2024-11-29T14:09:37Z</time>
      </trkpt>
      <trkpt lat="45.92333" lon="1.29031">
        <ele>381.2</ele>
        <time>2024-11-29T14:09:38Z</time>
      </trkpt>
      <trkpt lat="45.9233" lon="1.29027">
        <ele>381.2</ele>
        <time>2024-11-29T14:09:39Z</time>
      </trkpt>
      <trkpt lat="45.92331" lon="1.29021">
        <ele>381.2</ele>
        <time>2024-11-29T14:09:40Z</time>
      </trkpt>
      <trkpt lat="45.92332" lon="1.29016">
        <ele>381.2</ele>
        <time>2024-11-29T14:09:41Z</time>
      </trkpt>
      <trkpt lat="45.92332" lon="1.29011">
        <ele>381.2</ele>
        <time>2024-11-29T14:09:42Z</time>
      </trkpt>
      <trkpt lat="45.92334" lon="1.29004">
        <ele>381.2</ele>
        <time>2024-11-29T14:09:43Z</time>
      </trkpt>
      <trkpt lat="45.92335" lon="1.28999">
        <ele>381.2</ele>
        <time>2024-11-29T14:09:44Z</time>
      </trkpt>
      <trkpt lat="45.92337" lon="1.28993">
        <ele>381.2</ele>
        <time>2024-11-29T14:09:45Z</time>
      </trkpt>
      <trkpt lat="45.92339" lon="1.28988">
        <ele>381.2</ele>
        <time>2024-11-29T14:09:46Z</time>
      </trkpt>
      <trkpt lat="45.9234" lon="1.28983">
        <ele>381.2</ele>
        <time>2024-11-29T14:09:47Z</time>
      </trkpt>
      <trkpt lat="45.92341" lon="1.28979">
        <ele>381.1</ele>
        <time>2024-11-29T14:09:48Z</time>
      </trkpt>
      <trkpt lat="45.92342" lon="1.28975">
        <ele>381.1</ele>
        <time>2024-11-29T14:09:49Z</time>
      </trkpt>
      <trkpt lat="45.92344" lon="1.28971">
        <ele>381.1</ele>
        <time>2024-11-29T14:09:50Z</time>
      </trkpt>
      <trkpt lat="45.92346" lon="1.28967">
        <ele>381.1</ele>
        <time>2024-11-29T14:09:51Z</time>
      </trkpt>
      <trkpt lat="45.92348" lon="1.28964">
        <ele>381</ele>
        <time>2024-11-29T14:09:52Z</time>
      </trkpt>
      <trkpt lat="45.92349" lon="1.28959">
        <ele>381</ele>
        <time>2024-11-29T14:09:54Z</time>
      </trkpt>
      <trkpt lat="45.9235" lon="1.28954">
        <ele>380.9</ele>
        <time>2024-11-29T14:09:55Z</time>
      </trkpt>
      <trkpt lat="45.92351" lon="1.28947">
        <ele>380.9</ele>
        <time>2024-11-29T14:09:57Z</time>
      </trkpt>
      <trkpt lat="45.92352" lon="1.28941">
        <ele>380.8</ele>
        <time>2024-11-29T14:09:58Z</time>
      </trkpt>
      <trkpt lat="45.92353" lon="1.28935">
        <ele>380.7</ele>
        <time>2024-11-29T14:09:59Z</time>
      </trkpt>
      <trkpt lat="45.92353" lon="1.28931">
        <ele>380.7</ele>
        <time>2024-11-29T14:10:01Z</time>
      </trkpt>
      <trkpt lat="45.92354" lon="1.28925">
        <ele>380.7</ele>
        <time>2024-11-29T14:10:03Z</time>
      </trkpt>
      <trkpt lat="45.92354" lon="1.28921">
        <ele>380.6</ele>
        <time>2024-11-29T14:10:04Z</time>
      </trkpt>
      <trkpt lat="45.92354" lon="1.28916">
        <ele>380.6</ele>
        <time>2024-11-29T14:10:05Z</time>
      </trkpt>
      <trkpt lat="45.92354" lon="1.28912">
        <ele>380.6</ele>
        <time>2024-11-29T14:10:06Z</time>
      </trkpt>
      <trkpt lat="45.92356" lon="1.28908">
        <ele>380.6</ele>
        <time>2024-11-29T14:10:07Z</time>
      </trkpt>
      <trkpt lat="45.92358" lon="1.28903">
        <ele>380.5</ele>
        <time>2024-11-29T14:10:09Z</time>
      </trkpt>
      <trkpt lat="45.92361" lon="1.28898">
        <ele>380.5</ele>
        <time>2024-11-29T14:10:11Z</time>
      </trkpt>
      <trkpt lat="45.92362" lon="1.28891">
        <ele>380.5</ele>
        <time>2024-11-29T14:10:13Z</time>
      </trkpt>
      <trkpt lat="45.92362" lon="1.28885">
        <ele>380.5</ele>
        <time>2024-11-29T14:10:15Z</time>
      </trkpt>
      <trkpt lat="45.92361" lon="1.2888">
        <ele>380.5</ele>
        <time>2024-11-29T14:10:18Z</time>
      </trkpt>
      <trkpt lat="45.92359" lon="1.28876">
        <ele>380.5</ele>
        <time>2024-11-29T14:10:20Z</time>
      </trkpt>
      <trkpt lat="45.92359" lon="1.28872">
        <ele>380.5</ele>
        <time>2024-11-29T14:10:21Z</time>
      </trkpt>
      <trkpt lat="45.92359" lon="1.28868">
        <ele>380.5</ele>
        <time>2024-11-29T14:10:22Z</time>
      </trkpt>
      <trkpt lat="45.9236" lon="1.28865">
        <ele>380.5</ele>
        <time>2024-11-29T14:10:23Z</time>
      </trkpt>
      <trkpt lat="45.92362" lon="1.2886">
        <ele>380.5</ele>
        <time>2024-11-29T14:10:24Z</time>
      </trkpt>
      <trkpt lat="45.92364" lon="1.28854">
        <ele>380.5</ele>
        <time>2024-11-29T14:10:25Z</time>
      </trkpt>
      <trkpt lat="45.92367" lon="1.28848">
        <ele>380.5</ele>
        <time>2024-11-29T14:10:26Z</time>
      </trkpt>
      <trkpt lat="45.92369" lon="1.28842">
        <ele>380.5</ele>
        <time>2024-11-29T14:10:27Z</time>
      </trkpt>
      <trkpt lat="45.92371" lon="1.28835">
        <ele>380.4</ele>
        <time>2024-11-29T14:10:28Z</time>
      </trkpt>
      <trkpt lat="45.92372" lon="1.2883">
        <ele>380.4</ele>
        <time>2024-11-29T14:10:29Z</time>
      </trkpt>
      <trkpt lat="45.92372" lon="1.28824">
        <ele>380.3</ele>
        <time>2024-11-29T14:10:30Z</time>
      </trkpt>
      <trkpt lat="45.92373" lon="1.28819">
        <ele>380.2</ele>
        <time>2024-11-29T14:10:31Z</time>
      </trkpt>
      <trkpt lat="45.92374" lon="1.28813">
        <ele>380.1</ele>
        <time>2024-11-29T14:10:33Z</time>
      </trkpt>
      <trkpt lat="45.92375" lon="1.28807">
        <ele>379.9</ele>
        <time>2024-11-29T14:10:35Z</time>
      </trkpt>
      <trkpt lat="45.92377" lon="1.28801">
        <ele>379.6</ele>
        <time>2024-11-29T14:10:37Z</time>
      </trkpt>
      <trkpt lat="45.92377" lon="1.28795">
        <ele>379.4</ele>
        <time>2024-11-29T14:10:39Z</time>
      </trkpt>
      <trkpt lat="45.92378" lon="1.28789">
        <ele>379.1</ele>
        <time>2024-11-29T14:10:41Z</time>
      </trkpt>
      <trkpt lat="45.92378" lon="1.28783">
        <ele>378.8</ele>
        <time>2024-11-29T14:10:42Z</time>
      </trkpt>
      <trkpt lat="45.92379" lon="1.28776">
        <ele>378.5</ele>
        <time>2024-11-29T14:10:43Z</time>
      </trkpt>
      <trkpt lat="45.9238" lon="1.2877">
        <ele>378.2</ele>
        <time>2024-11-29T14:10:44Z</time>
      </trkpt>
      <trkpt lat="45.92381" lon="1.28764">
        <ele>377.9</ele>
        <time>2024-11-29T14:10:45Z</time>
      </trkpt>
      <trkpt lat="45.92382" lon="1.28759">
        <ele>377.7</ele>
        <time>2024-11-29T14:10:46Z</time>
      </trkpt>
      <trkpt lat="45.92384" lon="1.28755">
        <ele>377.5</ele>
        <time>2024-11-29T14:10:47Z</time>
      </trkpt>
      <trkpt lat="45.92385" lon="1.2875">
        <ele>377.3</ele>
        <time>2024-11-29T14:10:48Z</time>
      </trkpt>
      <trkpt lat="45.92387" lon="1.28745">
        <ele>376.9</ele>
        <time>2024-11-29T14:10:49Z</time>
      </trkpt>
      <trkpt lat="45.92391" lon="1.28742">
        <ele>376.6</ele>
        <time>2024-11-29T14:10:50Z</time>
      </trkpt>
      <trkpt lat="45.92395" lon="1.2874">
        <ele>376.3</ele>
        <time>2024-11-29T14:10:51Z</time>
      </trkpt>
      <trkpt lat="45.924" lon="1.28737">
        <ele>376</ele>
        <time>2024-11-29T14:10:52Z</time>
      </trkpt>
      <trkpt lat="45.92404" lon="1.28732">
        <ele>375.7</ele>
        <time>2024-11-29T14:10:53Z</time>
      </trkpt>
      <trkpt lat="45.92408" lon="1.28727">
        <ele>375.5</ele>
        <time>2024-11-29T14:10:54Z</time>
      </trkpt>
      <trkpt lat="45.92412" lon="1.28721">
        <ele>375.2</ele>
        <time>2024-11-29T14:10:55Z</time>
      </trkpt>
      <trkpt lat="45.92416" lon="1.28715">
        <ele>375</ele>
        <time>2024-11-29T14:10:56Z</time>
      </trkpt>
      <trkpt lat="45.9242" lon="1.28709">
        <ele>374.9</ele>
        <time>2024-11-29T14:10:57Z</time>
      </trkpt>
      <trkpt lat="45.92424" lon="1.28702">
        <ele>374.7</ele>
        <time>2024-11-29T14:10:58Z</time>
      </trkpt>
      <trkpt lat="45.92427" lon="1.28694">
        <ele>374.6</ele>
        <time>2024-11-29T14:10:59Z</time>
      </trkpt>
      <trkpt lat="45.9243" lon="1.28686">
        <ele>374.6</ele>
        <time>2024-11-29T14:11:00Z</time>
      </trkpt>
      <trkpt lat="45.92432" lon="1.28678">
        <ele>374.5</ele>
        <time>2024-11-29T14:11:01Z</time>
      </trkpt>
      <trkpt lat="45.92434" lon="1.2867">
        <ele>374.5</ele>
        <time>2024-11-29T14:11:02Z</time>
      </trkpt>
      <trkpt lat="45.92435" lon="1.28661">
        <ele>374.6</ele>
        <time>2024-11-29T14:11:03Z</time>
      </trkpt>
      <trkpt lat="45.92436" lon="1.28652">
        <ele>374.7</ele>
        <time>2024-11-29T14:11:04Z</time>
      </trkpt>
      <trkpt lat="45.92436" lon="1.28644">
        <ele>374.7</ele>
        <time>2024-11-29T14:11:05Z</time>
      </trkpt>
      <trkpt lat="45.92436" lon="1.28636">
        <ele>374.7</ele>
        <time>2024-11-29T14:11:06Z</time>
      </trkpt>
      <trkpt lat="45.92436" lon="1.28629">
        <ele>374.7</ele>
        <time>2024-11-29T14:11:07Z</time>
      </trkpt>
      <trkpt lat="45.92434" lon="1.28622">
        <ele>374.7</ele>
        <time>2024-11-29T14:11:08Z</time>
      </trkpt>
      <trkpt lat="45.92433" lon="1.28616">
        <ele>374.6</ele>
        <time>2024-11-29T14:11:09Z</time>
      </trkpt>
      <trkpt lat="45.92431" lon="1.2861">
        <ele>374.5</ele>
        <time>2024-11-29T14:11:10Z</time>
      </trkpt>
      <trkpt lat="45.92428" lon="1.28605">
        <ele>374.4</ele>
        <time>2024-11-29T14:11:11Z</time>
      </trkpt>
      <trkpt lat="45.92424" lon="1.28601">
        <ele>374.2</ele>
        <time>2024-11-29T14:11:12Z</time>
      </trkpt>
      <trkpt lat="45.9242" lon="1.28598">
        <ele>374.1</ele>
        <time>2024-11-29T14:11:13Z</time>
      </trkpt>
      <trkpt lat="45.92416" lon="1.28596">
        <ele>374</ele>
        <time>2024-11-29T14:11:14Z</time>
      </trkpt>
      <trkpt lat="45.92412" lon="1.28594">
        <ele>373.9</ele>
        <time>2024-11-29T14:11:15Z</time>
      </trkpt>
      <trkpt lat="45.92408" lon="1.28593">
        <ele>373.8</ele>
        <time>2024-11-29T14:11:16Z</time>
      </trkpt>
      <trkpt lat="45.92403" lon="1.28591">
        <ele>373.6</ele>
        <time>2024-11-29T14:11:17Z</time>
      </trkpt>
      <trkpt lat="45.92398" lon="1.28588">
        <ele>373.5</ele>
        <time>2024-11-29T14:11:18Z</time>
      </trkpt>
      <trkpt lat="45.92393" lon="1.28586">
        <ele>373.4</ele>
        <time>2024-11-29T14:11:19Z</time>
      </trkpt>
      <trkpt lat="45.92388" lon="1.28584">
        <ele>373.3</ele>
        <time>2024-11-29T14:11:20Z</time>
      </trkpt>
      <trkpt lat="45.92383" lon="1.28581">
        <ele>373.2</ele>
        <time>2024-11-29T14:11:21Z</time>
      </trkpt>
      <trkpt lat="45.92377" lon="1.28577">
        <ele>373.2</ele>
        <time>2024-11-29T14:11:22Z</time>
      </trkpt>
      <trkpt lat="45.92371" lon="1.28574">
        <ele>373.3</ele>
        <time>2024-11-29T14:11:23Z</time>
      </trkpt>
      <trkpt lat="45.92366" lon="1.28572">
        <ele>373.4</ele>
        <time>2024-11-29T14:11:24Z</time>
      </trkpt>
      <trkpt lat="45.9236" lon="1.2857">
        <ele>373.5</ele>
        <time>2024-11-29T14:11:25Z</time>
      </trkpt>
      <trkpt lat="45.92355" lon="1.28568">
        <ele>373.7</ele>
        <time>2024-11-29T14:11:26Z</time>
      </trkpt>
      <trkpt lat="45.92349" lon="1.28565">
        <ele>373.8</ele>
        <time>2024-11-29T14:11:27Z</time>
      </trkpt>
      <trkpt lat="45.92343" lon="1.28564">
        <ele>373.9</ele>
        <time>2024-11-29T14:11:28Z</time>
      </trkpt>
      <trkpt lat="45.92338" lon="1.28562">
        <ele>374.1</ele>
        <time>2024-11-29T14:11:29Z</time>
      </trkpt>
      <trkpt lat="45.92332" lon="1.28559">
        <ele>374.2</ele>
        <time>2024-11-29T14:11:30Z</time>
      </trkpt>
      <trkpt lat="45.92327" lon="1.28556">
        <ele>374.3</ele>
        <time>2024-11-29T14:11:31Z</time>
      </trkpt>
      <trkpt lat="45.92321" lon="1.28553">
        <ele>374.4</ele>
        <time>2024-11-29T14:11:32Z</time>
      </trkpt>
      <trkpt lat="45.92316" lon="1.2855">
        <ele>374.5</ele>
        <time>2024-11-29T14:11:33Z</time>
      </trkpt>
      <trkpt lat="45.9231" lon="1.28547">
        <ele>374.6</ele>
        <time>2024-11-29T14:11:34Z</time>
      </trkpt>
      <trkpt lat="45.92304" lon="1.28546">
        <ele>374.7</ele>
        <time>2024-11-29T14:11:35Z</time>
      </trkpt>
      <trkpt lat="45.92298" lon="1.28545">
        <ele>374.8</ele>
        <time>2024-11-29T14:11:36Z</time>
      </trkpt>
      <trkpt lat="45.92292" lon="1.28543">
        <ele>374.9</ele>
        <time>2024-11-29T14:11:37Z</time>
      </trkpt>
      <trkpt lat="45.92286" lon="1.28541">
        <ele>374.9</ele>
        <time>2024-11-29T14:11:38Z</time>
      </trkpt>
      <trkpt lat="45.92281" lon="1.28539">
        <ele>374.9</ele>
        <time>2024-11-29T14:11:39Z</time>
      </trkpt>
      <trkpt lat="45.92275" lon="1.28536">
        <ele>374.9</ele>
        <time>2024-11-29T14:11:40Z</time>
      </trkpt>
      <trkpt lat="45.92268" lon="1.28534">
        <ele>374.7</ele>
        <time>2024-11-29T14:11:41Z</time>
      </trkpt>
      <trkpt lat="45.92262" lon="1.28534">
        <ele>374.6</ele>
        <time>2024-11-29T14:11:42Z</time>
      </trkpt>
      <trkpt lat="45.92255" lon="1.28535">
        <ele>374.4</ele>
        <time>2024-11-29T14:11:43Z</time>
      </trkpt>
      <trkpt lat="45.92248" lon="1.28538">
        <ele>374.3</ele>
        <time>2024-11-29T14:11:44Z</time>
      </trkpt>
      <trkpt lat="45.92241" lon="1.2854">
        <ele>374.1</ele>
        <time>2024-11-29T14:11:45Z</time>
      </trkpt>
      <trkpt lat="45.92234" lon="1.28543">
        <ele>373.8</ele>
        <time>2024-11-29T14:11:46Z</time>
      </trkpt>
      <trkpt lat="45.92227" lon="1.28545">
        <ele>373.6</ele>
        <time>2024-11-29T14:11:47Z</time>
      </trkpt>
      <trkpt lat="45.92219" lon="1.28548">
        <ele>373.3</ele>
        <time>2024-11-29T14:11:48Z</time>
      </trkpt>
      <trkpt lat="45.92212" lon="1.28551">
        <ele>373.1</ele>
        <time>2024-11-29T14:11:49Z</time>
      </trkpt>
      <trkpt lat="45.92204" lon="1.28553">
        <ele>372.9</ele>
        <time>2024-11-29T14:11:50Z</time>
      </trkpt>
      <trkpt lat="45.92197" lon="1.28556">
        <ele>372.7</ele>
        <time>2024-11-29T14:11:51Z</time>
      </trkpt>
      <trkpt lat="45.9219" lon="1.28559">
        <ele>372.6</ele>
        <time>2024-11-29T14:11:52Z</time>
      </trkpt>
      <trkpt lat="45.92183" lon="1.28562">
        <ele>372.5</ele>
        <time>2024-11-29T14:11:53Z</time>
      </trkpt>
      <trkpt lat="45.92176" lon="1.28565">
        <ele>372.4</ele>
        <time>2024-11-29T14:11:54Z</time>
      </trkpt>
      <trkpt lat="45.9217" lon="1.28568">
        <ele>372.4</ele>
        <time>2024-11-29T14:11:55Z</time>
      </trkpt>
      <trkpt lat="45.92164" lon="1.28571">
        <ele>372.3</ele>
        <time>2024-11-29T14:11:56Z</time>
      </trkpt>
      <trkpt lat="45.92158" lon="1.28571">
        <ele>372.2</ele>
        <time>2024-11-29T14:11:57Z</time>
      </trkpt>
      <trkpt lat="45.92154" lon="1.2857">
        <ele>372.2</ele>
        <time>2024-11-29T14:11:58Z</time>
      </trkpt>
      <trkpt lat="45.9215" lon="1.28566">
        <ele>372.2</ele>
        <time>2024-11-29T14:11:59Z</time>
      </trkpt>
      <trkpt lat="45.92147" lon="1.28559">
        <ele>372.2</ele>
        <time>2024-11-29T14:12:00Z</time>
      </trkpt>
      <trkpt lat="45.92145" lon="1.28551">
        <ele>372.2</ele>
        <time>2024-11-29T14:12:01Z</time>
      </trkpt>
      <trkpt lat="45.92142" lon="1.28543">
        <ele>372.3</ele>
        <time>2024-11-29T14:12:02Z</time>
      </trkpt>
      <trkpt lat="45.9214" lon="1.28535">
        <ele>372.5</ele>
        <time>2024-11-29T14:12:03Z</time>
      </trkpt>
      <trkpt lat="45.92139" lon="1.28526">
        <ele>372.6</ele>
        <time>2024-11-29T14:12:04Z</time>
      </trkpt>
      <trkpt lat="45.92138" lon="1.28517">
        <ele>372.8</ele>
        <time>2024-11-29T14:12:05Z</time>
      </trkpt>
      <trkpt lat="45.92135" lon="1.28509">
        <ele>373</ele>
        <time>2024-11-29T14:12:06Z</time>
      </trkpt>
      <trkpt lat="45.92132" lon="1.28501">
        <ele>373.2</ele>
        <time>2024-11-29T14:12:07Z</time>
      </trkpt>
      <trkpt lat="45.92128" lon="1.28494">
        <ele>373.3</ele>
        <time>2024-11-29T14:12:08Z</time>
      </trkpt>
      <trkpt lat="45.92126" lon="1.28486">
        <ele>373.5</ele>
        <time>2024-11-29T14:12:09Z</time>
      </trkpt>
      <trkpt lat="45.92124" lon="1.28478">
        <ele>373.6</ele>
        <time>2024-11-29T14:12:10Z</time>
      </trkpt>
      <trkpt lat="45.92122" lon="1.28469">
        <ele>373.8</ele>
        <time>2024-11-29T14:12:11Z</time>
      </trkpt>
      <trkpt lat="45.92121" lon="1.2846">
        <ele>373.9</ele>
        <time>2024-11-29T14:12:12Z</time>
      </trkpt>
      <trkpt lat="45.9212" lon="1.28452">
        <ele>374</ele>
        <time>2024-11-29T14:12:13Z</time>
      </trkpt>
      <trkpt lat="45.92119" lon="1.28443">
        <ele>374.2</ele>
        <time>2024-11-29T14:12:14Z</time>
      </trkpt>
      <trkpt lat="45.92118" lon="1.28434">
        <ele>374.4</ele>
        <time>2024-11-29T14:12:15Z</time>
      </trkpt>
      <trkpt lat="45.92117" lon="1.28426">
        <ele>374.6</ele>
        <time>2024-11-29T14:12:16Z</time>
      </trkpt>
      <trkpt lat="45.92116" lon="1.28417">
        <ele>374.8</ele>
        <time>2024-11-29T14:12:17Z</time>
      </trkpt>
      <trkpt lat="45.92114" lon="1.28409">
        <ele>375</ele>
        <time>2024-11-29T14:12:18Z</time>
      </trkpt>
      <trkpt lat="45.92113" lon="1.28402">
        <ele>375.2</ele>
        <time>2024-11-29T14:12:19Z</time>
      </trkpt>
      <trkpt lat="45.9211" lon="1.28394">
        <ele>375.3</ele>
        <time>2024-11-29T14:12:20Z</time>
      </trkpt>
      <trkpt lat="45.92107" lon="1.28387">
        <ele>375.5</ele>
        <time>2024-11-29T14:12:21Z</time>
      </trkpt>
      <trkpt lat="45.92103" lon="1.28382">
        <ele>375.6</ele>
        <time>2024-11-29T14:12:22Z</time>
      </trkpt>
      <trkpt lat="45.92098" lon="1.28377">
        <ele>375.7</ele>
        <time>2024-11-29T14:12:23Z</time>
      </trkpt>
      <trkpt lat="45.92093" lon="1.28374">
        <ele>375.8</ele>
        <time>2024-11-29T14:12:24Z</time>
      </trkpt>
      <trkpt lat="45.92088" lon="1.28372">
        <ele>375.9</ele>
        <time>2024-11-29T14:12:25Z</time>
      </trkpt>
      <trkpt lat="45.92082" lon="1.2837">
        <ele>376.1</ele>
        <time>2024-11-29T14:12:26Z</time>
      </trkpt>
      <trkpt lat="45.92076" lon="1.28367">
        <ele>376.3</ele>
        <time>2024-11-29T14:12:27Z</time>
      </trkpt>
      <trkpt lat="45.9207" lon="1.28365">
        <ele>376.5</ele>
        <time>2024-11-29T14:12:28Z</time>
      </trkpt>
      <trkpt lat="45.92065" lon="1.28363">
        <ele>376.6</ele>
        <time>2024-11-29T14:12:29Z</time>
      </trkpt>
      <trkpt lat="45.9206" lon="1.28361">
        <ele>376.7</ele>
        <time>2024-11-29T14:12:30Z</time>
      </trkpt>
      <trkpt lat="45.92055" lon="1.28357">
        <ele>376.9</ele>
        <time>2024-11-29T14:12:31Z</time>
      </trkpt>
      <trkpt lat="45.9205" lon="1.28353">
        <ele>376.9</ele>
        <time>2024-11-29T14:12:32Z</time>
      </trkpt>
      <trkpt lat="45.92046" lon="1.28349">
        <ele>376.9</ele>
        <time>2024-11-29T14:12:33Z</time>
      </trkpt>
      <trkpt lat="45.92042" lon="1.28345">
        <ele>376.9</ele>
        <time>2024-11-29T14:12:34Z</time>
      </trkpt>
      <trkpt lat="45.92037" lon="1.28341">
        <ele>376.8</ele>
        <time>2024-11-29T14:12:35Z</time>
      </trkpt>
      <trkpt lat="45.92033" lon="1.28338">
        <ele>376.8</ele>
        <time>2024-11-29T14:12:36Z</time>
      </trkpt>
      <trkpt lat="45.92027" lon="1.28334">
        <ele>376.7</ele>
        <time>2024-11-29T14:12:37Z</time>
      </trkpt>
      <trkpt lat="45.92022" lon="1.2833">
        <ele>376.2</ele>
        <time>2024-11-29T14:12:38Z</time>
      </trkpt>
      <trkpt lat="45.92016" lon="1.28324">
        <ele>375.6</ele>
        <time>2024-11-29T14:12:39Z</time>
      </trkpt>
      <trkpt lat="45.9201" lon="1.28319">
        <ele>375.1</ele>
        <time>2024-11-29T14:12:40Z</time>
      </trkpt>
      <trkpt lat="45.92003" lon="1.28314">
        <ele>374.5</ele>
        <time>2024-11-29T14:12:41Z</time>
      </trkpt>
      <trkpt lat="45.91997" lon="1.28308">
        <ele>373.9</ele>
        <time>2024-11-29T14:12:42Z</time>
      </trkpt>
      <trkpt lat="45.9199" lon="1.28302">
        <ele>373.4</ele>
        <time>2024-11-29T14:12:43Z</time>
      </trkpt>
      <trkpt lat="45.91983" lon="1.28296">
        <ele>372.8</ele>
        <time>2024-11-29T14:12:44Z</time>
      </trkpt>
      <trkpt lat="45.91975" lon="1.2829">
        <ele>372.2</ele>
        <time>2024-11-29T14:12:45Z</time>
      </trkpt>
      <trkpt lat="45.91968" lon="1.28285">
        <ele>371.6</ele>
        <time>2024-11-29T14:12:46Z</time>
      </trkpt>
      <trkpt lat="45.91959" lon="1.2828">
        <ele>370.9</ele>
        <time>2024-11-29T14:12:47Z</time>
      </trkpt>
      <trkpt lat="45.9195" lon="1.28274">
        <ele>370.2</ele>
        <time>2024-11-29T14:12:48Z</time>
      </trkpt>
      <trkpt lat="45.91941" lon="1.28269">
        <ele>369.5</ele>
        <time>2024-11-29T14:12:49Z</time>
      </trkpt>
      <trkpt lat="45.91933" lon="1.28264">
        <ele>368.8</ele>
        <time>2024-11-29T14:12:50Z</time>
      </trkpt>
      <trkpt lat="45.91924" lon="1.2826">
        <ele>368.1</ele>
        <time>2024-11-29T14:12:51Z</time>
      </trkpt>
      <trkpt lat="45.91914" lon="1.28257">
        <ele>367.2</ele>
        <time>2024-11-29T14:12:52Z</time>
      </trkpt>
      <trkpt lat="45.91904" lon="1.28254">
        <ele>366.4</ele>
        <time>2024-11-29T14:12:53Z</time>
      </trkpt>
      <trkpt lat="45.91894" lon="1.28251">
        <ele>365.7</ele>
        <time>2024-11-29T14:12:54Z</time>
      </trkpt>
      <trkpt lat="45.91884" lon="1.28249">
        <ele>365</ele>
        <time>2024-11-29T14:12:55Z</time>
      </trkpt>
      <trkpt lat="45.91874" lon="1.28247">
        <ele>364.4</ele>
        <time>2024-11-29T14:12:56Z</time>
      </trkpt>
      <trkpt lat="45.91863" lon="1.28246">
        <ele>363.7</ele>
        <time>2024-11-29T14:12:57Z</time>
      </trkpt>
      <trkpt lat="45.91853" lon="1.28246">
        <ele>363.1</ele>
        <time>2024-11-29T14:12:58Z</time>
      </trkpt>
      <trkpt lat="45.91843" lon="1.28245">
        <ele>362.6</ele>
        <time>2024-11-29T14:12:59Z</time>
      </trkpt>
      <trkpt lat="45.91832" lon="1.28243">
        <ele>362</ele>
        <time>2024-11-29T14:13:00Z</time>
      </trkpt>
      <trkpt lat="45.91822" lon="1.2824">
        <ele>361.4</ele>
        <time>2024-11-29T14:13:01Z</time>
      </trkpt>
      <trkpt lat="45.91811" lon="1.28237">
        <ele>360.9</ele>
        <time>2024-11-29T14:13:02Z</time>
      </trkpt>
      <trkpt lat="45.91801" lon="1.28234">
        <ele>360.3</ele>
        <time>2024-11-29T14:13:03Z</time>
      </trkpt>
      <trkpt lat="45.91791" lon="1.2823">
        <ele>359.9</ele>
        <time>2024-11-29T14:13:04Z</time>
      </trkpt>
      <trkpt lat="45.91781" lon="1.28226">
        <ele>359.5</ele>
        <time>2024-11-29T14:13:05Z</time>
      </trkpt>
      <trkpt lat="45.91771" lon="1.28223">
        <ele>359.1</ele>
        <time>2024-11-29T14:13:06Z</time>
      </trkpt>
      <trkpt lat="45.91761" lon="1.2822">
        <ele>358.8</ele>
        <time>2024-11-29T14:13:07Z</time>
      </trkpt>
      <trkpt lat="45.91751" lon="1.28217">
        <ele>358.4</ele>
        <time>2024-11-29T14:13:08Z</time>
      </trkpt>
      <trkpt lat="45.91742" lon="1.28214">
        <ele>358.1</ele>
        <time>2024-11-29T14:13:09Z</time>
      </trkpt>
      <trkpt lat="45.91732" lon="1.28211">
        <ele>357.7</ele>
        <time>2024-11-29T14:13:10Z</time>
      </trkpt>
      <trkpt lat="45.91722" lon="1.28208">
        <ele>357.3</ele>
        <time>2024-11-29T14:13:11Z</time>
      </trkpt>
      <trkpt lat="45.91713" lon="1.28204">
        <ele>357</ele>
        <time>2024-11-29T14:13:12Z</time>
      </trkpt>
      <trkpt lat="45.91704" lon="1.282">
        <ele>356.7</ele>
        <time>2024-11-29T14:13:13Z</time>
      </trkpt>
      <trkpt lat="45.91695" lon="1.28195">
        <ele>356.5</ele>
        <time>2024-11-29T14:13:14Z</time>
      </trkpt>
      <trkpt lat="45.91687" lon="1.28189">
        <ele>356.3</ele>
        <time>2024-11-29T14:13:15Z</time>
      </trkpt>
      <trkpt lat="45.91678" lon="1.28183">
        <ele>356.1</ele>
        <time>2024-11-29T14:13:16Z</time>
      </trkpt>
      <trkpt lat="45.9167" lon="1.28178">
        <ele>355.9</ele>
        <time>2024-11-29T14:13:17Z</time>
      </trkpt>
      <trkpt lat="45.91662" lon="1.28173">
        <ele>355.7</ele>
        <time>2024-11-29T14:13:18Z</time>
      </trkpt>
      <trkpt lat="45.91655" lon="1.28169">
        <ele>355.6</ele>
        <time>2024-11-29T14:13:19Z</time>
      </trkpt>
      <trkpt lat="45.91648" lon="1.28167">
        <ele>355.4</ele>
        <time>2024-11-29T14:13:20Z</time>
      </trkpt>
      <trkpt lat="45.91642" lon="1.28165">
        <ele>355.3</ele>
        <time>2024-11-29T14:13:21Z</time>
      </trkpt>
      <trkpt lat="45.91638" lon="1.28162">
        <ele>355.2</ele>
        <time>2024-11-29T14:13:22Z</time>
      </trkpt>
      <trkpt lat="45.91636" lon="1.28155">
        <ele>355.1</ele>
        <time>2024-11-29T14:13:23Z</time>
      </trkpt>
      <trkpt lat="45.91635" lon="1.28148">
        <ele>355</ele>
        <time>2024-11-29T14:13:24Z</time>
      </trkpt>
      <trkpt lat="45.91634" lon="1.28139">
        <ele>354.8</ele>
        <time>2024-11-29T14:13:25Z</time>
      </trkpt>
      <trkpt lat="45.91634" lon="1.28129">
        <ele>354.7</ele>
        <time>2024-11-29T14:13:26Z</time>
      </trkpt>
      <trkpt lat="45.91633" lon="1.2812">
        <ele>354.6</ele>
        <time>2024-11-29T14:13:27Z</time>
      </trkpt>
      <trkpt lat="45.91633" lon="1.28111">
        <ele>354.4</ele>
        <time>2024-11-29T14:13:28Z</time>
      </trkpt>
      <trkpt lat="45.91632" lon="1.28102">
        <ele>354.4</ele>
        <time>2024-11-29T14:13:29Z</time>
      </trkpt>
      <trkpt lat="45.9163" lon="1.28093">
        <ele>354.3</ele>
        <time>2024-11-29T14:13:30Z</time>
      </trkpt>
      <trkpt lat="45.91627" lon="1.28085">
        <ele>354.3</ele>
        <time>2024-11-29T14:13:31Z</time>
      </trkpt>
      <trkpt lat="45.91622" lon="1.2808">
        <ele>354.1</ele>
        <time>2024-11-29T14:13:32Z</time>
      </trkpt>
      <trkpt lat="45.91617" lon="1.28076">
        <ele>354</ele>
        <time>2024-11-29T14:13:33Z</time>
      </trkpt>
      <trkpt lat="45.91611" lon="1.28072">
        <ele>353.9</ele>
        <time>2024-11-29T14:13:34Z</time>
      </trkpt>
      <trkpt lat="45.91605" lon="1.28067">
        <ele>353.8</ele>
        <time>2024-11-29T14:13:35Z</time>
      </trkpt>
      <trkpt lat="45.91599" lon="1.28062">
        <ele>353.6</ele>
        <time>2024-11-29T14:13:36Z</time>
      </trkpt>
      <trkpt lat="45.91593" lon="1.28057">
        <ele>353.5</ele>
        <time>2024-11-29T14:13:37Z</time>
      </trkpt>
      <trkpt lat="45.91587" lon="1.28053">
        <ele>353.4</ele>
        <time>2024-11-29T14:13:38Z</time>
      </trkpt>
      <trkpt lat="45.91582" lon="1.28049">
        <ele>353.4</ele>
        <time>2024-11-29T14:13:39Z</time>
      </trkpt>
      <trkpt lat="45.91576" lon="1.28046">
        <ele>353.3</ele>
        <time>2024-11-29T14:13:40Z</time>
      </trkpt>
      <trkpt lat="45.9157" lon="1.28043">
        <ele>353.2</ele>
        <time>2024-11-29T14:13:41Z</time>
      </trkpt>
      <trkpt lat="45.91564" lon="1.28041">
        <ele>353.1</ele>
        <time>2024-11-29T14:13:42Z</time>
      </trkpt>
      <trkpt lat="45.91558" lon="1.28041">
        <ele>353</ele>
        <time>2024-11-29T14:13:43Z</time>
      </trkpt>
      <trkpt lat="45.91552" lon="1.2804">
        <ele>352.9</ele>
        <time>2024-11-29T14:13:44Z</time>
      </trkpt>
      <trkpt lat="45.91546" lon="1.2804">
        <ele>352.8</ele>
        <time>2024-11-29T14:13:45Z</time>
      </trkpt>
      <trkpt lat="45.9154" lon="1.2804">
        <ele>352.8</ele>
        <time>2024-11-29T14:13:46Z</time>
      </trkpt>
      <trkpt lat="45.91534" lon="1.2804">
        <ele>352.7</ele>
        <time>2024-11-29T14:13:47Z</time>
      </trkpt>
      <trkpt lat="45.91529" lon="1.2804">
        <ele>352.6</ele>
        <time>2024-11-29T14:13:48Z</time>
      </trkpt>
      <trkpt lat="45.91523" lon="1.28039">
        <ele>352.5</ele>
        <time>2024-11-29T14:13:49Z</time>
      </trkpt>
      <trkpt lat="45.91518" lon="1.28038">
        <ele>352.4</ele>
        <time>2024-11-29T14:13:50Z</time>
      </trkpt>
      <trkpt lat="45.91513" lon="1.28037">
        <ele>352.2</ele>
        <time>2024-11-29T14:13:51Z</time>
      </trkpt>
      <trkpt lat="45.91507" lon="1.28035">
        <ele>352</ele>
        <time>2024-11-29T14:13:52Z</time>
      </trkpt>
      <trkpt lat="45.91501" lon="1.28034">
        <ele>351.9</ele>
        <time>2024-11-29T14:13:53Z</time>
      </trkpt>
      <trkpt lat="45.91495" lon="1.28032">
        <ele>351.6</ele>
        <time>2024-11-29T14:13:54Z</time>
      </trkpt>
      <trkpt lat="45.91488" lon="1.28031">
        <ele>351.4</ele>
        <time>2024-11-29T14:13:55Z</time>
      </trkpt>
      <trkpt lat="45.91482" lon="1.2803">
        <ele>351.1</ele>
        <time>2024-11-29T14:13:56Z</time>
      </trkpt>
      <trkpt lat="45.91474" lon="1.28029">
        <ele>350.8</ele>
        <time>2024-11-29T14:13:57Z</time>
      </trkpt>
      <trkpt lat="45.91468" lon="1.28028">
        <ele>350.5</ele>
        <time>2024-11-29T14:13:58Z</time>
      </trkpt>
      <trkpt lat="45.91462" lon="1.28026">
        <ele>350.2</ele>
        <time>2024-11-29T14:13:59Z</time>
      </trkpt>
      <trkpt lat="45.91455" lon="1.28023">
        <ele>349.9</ele>
        <time>2024-11-29T14:14:00Z</time>
      </trkpt>
      <trkpt lat="45.91448" lon="1.28021">
        <ele>349.6</ele>
        <time>2024-11-29T14:14:01Z</time>
      </trkpt>
      <trkpt lat="45.91442" lon="1.28017">
        <ele>349.3</ele>
        <time>2024-11-29T14:14:02Z</time>
      </trkpt>
      <trkpt lat="45.91435" lon="1.28014">
        <ele>349</ele>
        <time>2024-11-29T14:14:03Z</time>
      </trkpt>
      <trkpt lat="45.91428" lon="1.2801">
        <ele>348.6</ele>
        <time>2024-11-29T14:14:04Z</time>
      </trkpt>
      <trkpt lat="45.91422" lon="1.28005">
        <ele>348.3</ele>
        <time>2024-11-29T14:14:05Z</time>
      </trkpt>
      <trkpt lat="45.91415" lon="1.28001">
        <ele>348.1</ele>
        <time>2024-11-29T14:14:06Z</time>
      </trkpt>
      <trkpt lat="45.91409" lon="1.27995">
        <ele>347.8</ele>
        <time>2024-11-29T14:14:07Z</time>
      </trkpt>
      <trkpt lat="45.91403" lon="1.2799">
        <ele>347.6</ele>
        <time>2024-11-29T14:14:08Z</time>
      </trkpt>
      <trkpt lat="45.91396" lon="1.27985">
        <ele>347.4</ele>
        <time>2024-11-29T14:14:09Z</time>
      </trkpt>
      <trkpt lat="45.91391" lon="1.2798">
        <ele>347.3</ele>
        <time>2024-11-29T14:14:10Z</time>
      </trkpt>
      <trkpt lat="45.91386" lon="1.27975">
        <ele>347.1</ele>
        <time>2024-11-29T14:14:11Z</time>
      </trkpt>
      <trkpt lat="45.9138" lon="1.2797">
        <ele>346.9</ele>
        <time>2024-11-29T14:14:12Z</time>
      </trkpt>
      <trkpt lat="45.91376" lon="1.27966">
        <ele>346.8</ele>
        <time>2024-11-29T14:14:13Z</time>
      </trkpt>
      <trkpt lat="45.91371" lon="1.2796">
        <ele>346.7</ele>
        <time>2024-11-29T14:14:14Z</time>
      </trkpt>
      <trkpt lat="45.91366" lon="1.27954">
        <ele>346.5</ele>
        <time>2024-11-29T14:14:15Z</time>
      </trkpt>
      <trkpt lat="45.9136" lon="1.27949">
        <ele>346.4</ele>
        <time>2024-11-29T14:14:16Z</time>
      </trkpt>
      <trkpt lat="45.91355" lon="1.27943">
        <ele>346.2</ele>
        <time>2024-11-29T14:14:17Z</time>
      </trkpt>
      <trkpt lat="45.91351" lon="1.27937">
        <ele>346.1</ele>
        <time>2024-11-29T14:14:18Z</time>
      </trkpt>
      <trkpt lat="45.91347" lon="1.27931">
        <ele>346</ele>
        <time>2024-11-29T14:14:19Z</time>
      </trkpt>
      <trkpt lat="45.91342" lon="1.27925">
        <ele>345.8</ele>
        <time>2024-11-29T14:14:20Z</time>
      </trkpt>
      <trkpt lat="45.91337" lon="1.27919">
        <ele>345.6</ele>
        <time>2024-11-29T14:14:21Z</time>
      </trkpt>
      <trkpt lat="45.91332" lon="1.27913">
        <ele>345.4</ele>
        <time>2024-11-29T14:14:22Z</time>
      </trkpt>
      <trkpt lat="45.91328" lon="1.27907">
        <ele>345.2</ele>
        <time>2024-11-29T14:14:23Z</time>
      </trkpt>
      <trkpt lat="45.91322" lon="1.279">
        <ele>344.9</ele>
        <time>2024-11-29T14:14:24Z</time>
      </trkpt>
      <trkpt lat="45.91317" lon="1.27894">
        <ele>344.6</ele>
        <time>2024-11-29T14:14:25Z</time>
      </trkpt>
      <trkpt lat="45.91312" lon="1.27888">
        <ele>344.4</ele>
        <time>2024-11-29T14:14:26Z</time>
      </trkpt>
      <trkpt lat="45.91307" lon="1.27882">
        <ele>344</ele>
        <time>2024-11-29T14:14:27Z</time>
      </trkpt>
      <trkpt lat="45.91301" lon="1.27876">
        <ele>343.7</ele>
        <time>2024-11-29T14:14:28Z</time>
      </trkpt>
      <trkpt lat="45.91295" lon="1.2787">
        <ele>343.3</ele>
        <time>2024-11-29T14:14:29Z</time>
      </trkpt>
      <trkpt lat="45.9129" lon="1.27865">
        <ele>342.9</ele>
        <time>2024-11-29T14:14:30Z</time>
      </trkpt>
      <trkpt lat="45.91284" lon="1.2786">
        <ele>342.5</ele>
        <time>2024-11-29T14:14:31Z</time>
      </trkpt>
      <trkpt lat="45.91279" lon="1.27855">
        <ele>342.1</ele>
        <time>2024-11-29T14:14:32Z</time>
      </trkpt>
      <trkpt lat="45.91274" lon="1.27849">
        <ele>341.6</ele>
        <time>2024-11-29T14:14:33Z</time>
      </trkpt>
      <trkpt lat="45.91269" lon="1.27844">
        <ele>341.2</ele>
        <time>2024-11-29T14:14:34Z</time>
      </trkpt>
      <trkpt lat="45.91264" lon="1.27838">
        <ele>340.8</ele>
        <time>2024-11-29T14:14:35Z</time>
      </trkpt>
      <trkpt lat="45.91258" lon="1.27833">
        <ele>340.3</ele>
        <time>2024-11-29T14:14:36Z</time>
      </trkpt>
      <trkpt lat="45.91253" lon="1.27827">
        <ele>339.9</ele>
        <time>2024-11-29T14:14:37Z</time>
      </trkpt>
      <trkpt lat="45.91248" lon="1.27823">
        <ele>339.5</ele>
        <time>2024-11-29T14:14:38Z</time>
      </trkpt>
      <trkpt lat="45.91244" lon="1.27819">
        <ele>339.1</ele>
        <time>2024-11-29T14:14:39Z</time>
      </trkpt>
      <trkpt lat="45.9124" lon="1.27817">
        <ele>338.9</ele>
        <time>2024-11-29T14:14:40Z</time>
      </trkpt>
      <trkpt lat="45.91237" lon="1.27813">
        <ele>338.6</ele>
        <time>2024-11-29T14:14:41Z</time>
      </trkpt>
      <trkpt lat="45.91234" lon="1.2781">
        <ele>338.4</ele>
        <time>2024-11-29T14:14:42Z</time>
      </trkpt>
      <trkpt lat="45.91231" lon="1.27805">
        <ele>338.1</ele>
        <time>2024-11-29T14:14:43Z</time>
      </trkpt>
      <trkpt lat="45.91229" lon="1.278">
        <ele>337.9</ele>
        <time>2024-11-29T14:14:44Z</time>
      </trkpt>
      <trkpt lat="45.91227" lon="1.27794">
        <ele>337.6</ele>
        <time>2024-11-29T14:14:45Z</time>
      </trkpt>
      <trkpt lat="45.91225" lon="1.27788">
        <ele>337.4</ele>
        <time>2024-11-29T14:14:46Z</time>
      </trkpt>
      <trkpt lat="45.91223" lon="1.27781">
        <ele>337.2</ele>
        <time>2024-11-29T14:14:47Z</time>
      </trkpt>
      <trkpt lat="45.91221" lon="1.27775">
        <ele>337</ele>
        <time>2024-11-29T14:14:48Z</time>
      </trkpt>
      <trkpt lat="45.91218" lon="1.2777">
        <ele>336.9</ele>
        <time>2024-11-29T14:14:49Z</time>
      </trkpt>
      <trkpt lat="45.91215" lon="1.27765">
        <ele>336.8</ele>
        <time>2024-11-29T14:14:50Z</time>
      </trkpt>
      <trkpt lat="45.91212" lon="1.2776">
        <ele>336.8</ele>
        <time>2024-11-29T14:14:51Z</time>
      </trkpt>
      <trkpt lat="45.91209" lon="1.27755">
        <ele>336.8</ele>
        <time>2024-11-29T14:14:52Z</time>
      </trkpt>
      <trkpt lat="45.91206" lon="1.27749">
        <ele>336.8</ele>
        <time>2024-11-29T14:14:53Z</time>
      </trkpt>
      <trkpt lat="45.91201" lon="1.27745">
        <ele>336.8</ele>
        <time>2024-11-29T14:14:54Z</time>
      </trkpt>
      <trkpt lat="45.91199" lon="1.2774">
        <ele>336.8</ele>
        <time>2024-11-29T14:14:55Z</time>
      </trkpt>
      <trkpt lat="45.91196" lon="1.27735">
        <ele>336.9</ele>
        <time>2024-11-29T14:14:56Z</time>
      </trkpt>
      <trkpt lat="45.91194" lon="1.2773">
        <ele>337</ele>
        <time>2024-11-29T14:14:57Z</time>
      </trkpt>
      <trkpt lat="45.91192" lon="1.27724">
        <ele>337.1</ele>
        <time>2024-11-29T14:14:58Z</time>
      </trkpt>
      <trkpt lat="45.91189" lon="1.27717">
        <ele>337.2</ele>
        <time>2024-11-29T14:14:59Z</time>
      </trkpt>
      <trkpt lat="45.91186" lon="1.27711">
        <ele>337.3</ele>
        <time>2024-11-29T14:15:00Z</time>
      </trkpt>
      <trkpt lat="45.91181" lon="1.27705">
        <ele>337.5</ele>
        <time>2024-11-29T14:15:01Z</time>
      </trkpt>
      <trkpt lat="45.91178" lon="1.27699">
        <ele>337.6</ele>
        <time>2024-11-29T14:15:02Z</time>
      </trkpt>
      <trkpt lat="45.91174" lon="1.27692">
        <ele>337.8</ele>
        <time>2024-11-29T14:15:03Z</time>
      </trkpt>
      <trkpt lat="45.91171" lon="1.27686">
        <ele>338</ele>
        <time>2024-11-29T14:15:04Z</time>
      </trkpt>
      <trkpt lat="45.91168" lon="1.27678">
        <ele>338.1</ele>
        <time>2024-11-29T14:15:05Z</time>
      </trkpt>
      <trkpt lat="45.91165" lon="1.27672">
        <ele>338.2</ele>
        <time>2024-11-29T14:15:06Z</time>
      </trkpt>
      <trkpt lat="45.91162" lon="1.27665">
        <ele>338.3</ele>
        <time>2024-11-29T14:15:07Z</time>
      </trkpt>
      <trkpt lat="45.9116" lon="1.27658">
        <ele>338.3</ele>
        <time>2024-11-29T14:15:08Z</time>
      </trkpt>
      <trkpt lat="45.91159" lon="1.27651">
        <ele>338.3</ele>
        <time>2024-11-29T14:15:09Z</time>
      </trkpt>
      <trkpt lat="45.91158" lon="1.27643">
        <ele>338.3</ele>
        <time>2024-11-29T14:15:10Z</time>
      </trkpt>
      <trkpt lat="45.91161" lon="1.27634">
        <ele>338.4</ele>
        <time>2024-11-29T14:15:12Z</time>
      </trkpt>
      <trkpt lat="45.91164" lon="1.27626">
        <ele>338.4</ele>
        <time>2024-11-29T14:15:13Z</time>
      </trkpt>
      <trkpt lat="45.91165" lon="1.27618">
        <ele>338.4</ele>
        <time>2024-11-29T14:15:14Z</time>
      </trkpt>
      <trkpt lat="45.91167" lon="1.27611">
        <ele>338.5</ele>
        <time>2024-11-29T14:15:15Z</time>
      </trkpt>
      <trkpt lat="45.91168" lon="1.27604">
        <ele>338.5</ele>
        <time>2024-11-29T14:15:16Z</time>
      </trkpt>
      <trkpt lat="45.9117" lon="1.27596">
        <ele>338.6</ele>
        <time>2024-11-29T14:15:17Z</time>
      </trkpt>
      <trkpt lat="45.91172" lon="1.27588">
        <ele>338.6</ele>
        <time>2024-11-29T14:15:18Z</time>
      </trkpt>
      <trkpt lat="45.91173" lon="1.27582">
        <ele>338.7</ele>
        <time>2024-11-29T14:15:19Z</time>
      </trkpt>
      <trkpt lat="45.91174" lon="1.27577">
        <ele>338.7</ele>
        <time>2024-11-29T14:15:20Z</time>
      </trkpt>
      <trkpt lat="45.91175" lon="1.27573">
        <ele>338.8</ele>
        <time>2024-11-29T14:15:21Z</time>
      </trkpt>
      <trkpt lat="45.91176" lon="1.27568">
        <ele>338.9</ele>
        <time>2024-11-29T14:15:22Z</time>
      </trkpt>
      <trkpt lat="45.91175" lon="1.27565">
        <ele>338.9</ele>
        <time>2024-11-29T14:15:27Z</time>
      </trkpt>
      <trkpt lat="45.91174" lon="1.27561">
        <ele>339</ele>
        <time>2024-11-29T14:15:30Z</time>
      </trkpt>
      <trkpt lat="45.91174" lon="1.27555">
        <ele>339.1</ele>
        <time>2024-11-29T14:15:32Z</time>
      </trkpt>
      <trkpt lat="45.91175" lon="1.27549">
        <ele>339.2</ele>
        <time>2024-11-29T14:15:34Z</time>
      </trkpt>
      <trkpt lat="45.91177" lon="1.27544">
        <ele>339.3</ele>
        <time>2024-11-29T14:15:35Z</time>
      </trkpt>
      <trkpt lat="45.91178" lon="1.2754">
        <ele>339.4</ele>
        <time>2024-11-29T14:15:36Z</time>
      </trkpt>
      <trkpt lat="45.91179" lon="1.27534">
        <ele>339.5</ele>
        <time>2024-11-29T14:15:37Z</time>
      </trkpt>
      <trkpt lat="45.9118" lon="1.27529">
        <ele>339.5</ele>
        <time>2024-11-29T14:15:38Z</time>
      </trkpt>
      <trkpt lat="45.91182" lon="1.27525">
        <ele>339.6</ele>
        <time>2024-11-29T14:15:39Z</time>
      </trkpt>
      <trkpt lat="45.91184" lon="1.27521">
        <ele>339.6</ele>
        <time>2024-11-29T14:15:40Z</time>
      </trkpt>
      <trkpt lat="45.91186" lon="1.27516">
        <ele>339.7</ele>
        <time>2024-11-29T14:15:41Z</time>
      </trkpt>
      <trkpt lat="45.91189" lon="1.27509">
        <ele>339.8</ele>
        <time>2024-11-29T14:15:42Z</time>
      </trkpt>
      <trkpt lat="45.91191" lon="1.27501">
        <ele>339.9</ele>
        <time>2024-11-29T14:15:43Z</time>
      </trkpt>
      <trkpt lat="45.91192" lon="1.27495">
        <ele>340</ele>
        <time>2024-11-29T14:15:44Z</time>
      </trkpt>
      <trkpt lat="45.91194" lon="1.27489">
        <ele>340.1</ele>
        <time>2024-11-29T14:15:45Z</time>
      </trkpt>
      <trkpt lat="45.91195" lon="1.27484">
        <ele>340.2</ele>
        <time>2024-11-29T14:15:46Z</time>
      </trkpt>
      <trkpt lat="45.91196" lon="1.27479">
        <ele>340.3</ele>
        <time>2024-11-29T14:15:47Z</time>
      </trkpt>
      <trkpt lat="45.912" lon="1.27474">
        <ele>340.4</ele>
        <time>2024-11-29T14:15:48Z</time>
      </trkpt>
      <trkpt lat="45.91202" lon="1.27468">
        <ele>340.5</ele>
        <time>2024-11-29T14:15:49Z</time>
      </trkpt>
      <trkpt lat="45.91205" lon="1.27463">
        <ele>340.6</ele>
        <time>2024-11-29T14:15:50Z</time>
      </trkpt>
      <trkpt lat="45.91208" lon="1.27458">
        <ele>340.7</ele>
        <time>2024-11-29T14:15:51Z</time>
      </trkpt>
      <trkpt lat="45.9121" lon="1.27452">
        <ele>340.7</ele>
        <time>2024-11-29T14:15:52Z</time>
      </trkpt>
      <trkpt lat="45.91212" lon="1.27447">
        <ele>340.8</ele>
        <time>2024-11-29T14:15:53Z</time>
      </trkpt>
      <trkpt lat="45.91213" lon="1.27441">
        <ele>340.9</ele>
        <time>2024-11-29T14:15:54Z</time>
      </trkpt>
      <trkpt lat="45.91214" lon="1.27437">
        <ele>340.9</ele>
        <time>2024-11-29T14:15:55Z</time>
      </trkpt>
      <trkpt lat="45.91216" lon="1.27432">
        <ele>341</ele>
        <time>2024-11-29T14:15:56Z</time>
      </trkpt>
      <trkpt lat="45.91218" lon="1.27428">
        <ele>341.1</ele>
        <time>2024-11-29T14:15:57Z</time>
      </trkpt>
      <trkpt lat="45.9122" lon="1.27422">
        <ele>341.2</ele>
        <time>2024-11-29T14:15:58Z</time>
      </trkpt>
      <trkpt lat="45.91221" lon="1.27416">
        <ele>341.3</ele>
        <time>2024-11-29T14:15:59Z</time>
      </trkpt>
      <trkpt lat="45.91223" lon="1.2741">
        <ele>341.4</ele>
        <time>2024-11-29T14:16:00Z</time>
      </trkpt>
      <trkpt lat="45.91224" lon="1.27406">
        <ele>341.5</ele>
        <time>2024-11-29T14:16:01Z</time>
      </trkpt>
      <trkpt lat="45.91226" lon="1.27401">
        <ele>341.6</ele>
        <time>2024-11-29T14:16:02Z</time>
      </trkpt>
      <trkpt lat="45.91228" lon="1.27396">
        <ele>341.7</ele>
        <time>2024-11-29T14:16:03Z</time>
      </trkpt>
      <trkpt lat="45.91231" lon="1.2739">
        <ele>341.8</ele>
        <time>2024-11-29T14:16:04Z</time>
      </trkpt>
      <trkpt lat="45.91233" lon="1.27385">
        <ele>341.9</ele>
        <time>2024-11-29T14:16:05Z</time>
      </trkpt>
      <trkpt lat="45.91235" lon="1.27379">
        <ele>342.1</ele>
        <time>2024-11-29T14:16:06Z</time>
      </trkpt>
      <trkpt lat="45.91237" lon="1.27372">
        <ele>342.2</ele>
        <time>2024-11-29T14:16:07Z</time>
      </trkpt>
      <trkpt lat="45.9124" lon="1.27365">
        <ele>342.4</ele>
        <time>2024-11-29T14:16:08Z</time>
      </trkpt>
      <trkpt lat="45.91241" lon="1.27359">
        <ele>342.5</ele>
        <time>2024-11-29T14:16:09Z</time>
      </trkpt>
      <trkpt lat="45.91242" lon="1.27353">
        <ele>342.7</ele>
        <time>2024-11-29T14:16:10Z</time>
      </trkpt>
      <trkpt lat="45.91244" lon="1.27347">
        <ele>342.8</ele>
        <time>2024-11-29T14:16:11Z</time>
      </trkpt>
      <trkpt lat="45.91245" lon="1.27341">
        <ele>342.9</ele>
        <time>2024-11-29T14:16:12Z</time>
      </trkpt>
      <trkpt lat="45.91246" lon="1.27336">
        <ele>343</ele>
        <time>2024-11-29T14:16:13Z</time>
      </trkpt>
      <trkpt lat="45.91248" lon="1.27328">
        <ele>343.2</ele>
        <time>2024-11-29T14:16:14Z</time>
      </trkpt>
      <trkpt lat="45.9125" lon="1.27322">
        <ele>343.3</ele>
        <time>2024-11-29T14:16:15Z</time>
      </trkpt>
      <trkpt lat="45.91252" lon="1.27316">
        <ele>343.4</ele>
        <time>2024-11-29T14:16:16Z</time>
      </trkpt>
      <trkpt lat="45.91253" lon="1.27311">
        <ele>343.4</ele>
        <time>2024-11-29T14:16:17Z</time>
      </trkpt>
      <trkpt lat="45.91254" lon="1.27305">
        <ele>343.5</ele>
        <time>2024-11-29T14:16:18Z</time>
      </trkpt>
      <trkpt lat="45.91254" lon="1.27299">
        <ele>343.6</ele>
        <time>2024-11-29T14:16:19Z</time>
      </trkpt>
      <trkpt lat="45.91256" lon="1.27294">
        <ele>343.7</ele>
        <time>2024-11-29T14:16:20Z</time>
      </trkpt>
      <trkpt lat="45.91257" lon="1.27288">
        <ele>343.8</ele>
        <time>2024-11-29T14:16:21Z</time>
      </trkpt>
      <trkpt lat="45.91259" lon="1.27283">
        <ele>343.8</ele>
        <time>2024-11-29T14:16:22Z</time>
      </trkpt>
      <trkpt lat="45.91261" lon="1.27278">
        <ele>343.9</ele>
        <time>2024-11-29T14:16:23Z</time>
      </trkpt>
      <trkpt lat="45.91263" lon="1.27271">
        <ele>344.1</ele>
        <time>2024-11-29T14:16:24Z</time>
      </trkpt>
      <trkpt lat="45.91264" lon="1.27265">
        <ele>344.2</ele>
        <time>2024-11-29T14:16:25Z</time>
      </trkpt>
      <trkpt lat="45.91266" lon="1.2726">
        <ele>344.3</ele>
        <time>2024-11-29T14:16:26Z</time>
      </trkpt>
      <trkpt lat="45.91268" lon="1.27255">
        <ele>344.4</ele>
        <time>2024-11-29T14:16:27Z</time>
      </trkpt>
      <trkpt lat="45.9127" lon="1.2725">
        <ele>344.6</ele>
        <time>2024-11-29T14:16:28Z</time>
      </trkpt>
      <trkpt lat="45.91272" lon="1.27245">
        <ele>344.7</ele>
        <time>2024-11-29T14:16:29Z</time>
      </trkpt>
      <trkpt lat="45.91273" lon="1.27241">
        <ele>344.8</ele>
        <time>2024-11-29T14:16:30Z</time>
      </trkpt>
      <trkpt lat="45.91273" lon="1.27237">
        <ele>344.9</ele>
        <time>2024-11-29T14:16:31Z</time>
      </trkpt>
      <trkpt lat="45.91274" lon="1.27232">
        <ele>345</ele>
        <time>2024-11-29T14:16:32Z</time>
      </trkpt>
      <trkpt lat="45.91274" lon="1.27227">
        <ele>345.2</ele>
        <time>2024-11-29T14:16:33Z</time>
      </trkpt>
      <trkpt lat="45.91276" lon="1.27222">
        <ele>345.3</ele>
        <time>2024-11-29T14:16:34Z</time>
      </trkpt>
      <trkpt lat="45.91277" lon="1.27217">
        <ele>345.4</ele>
        <time>2024-11-29T14:16:35Z</time>
      </trkpt>
      <trkpt lat="45.91279" lon="1.2721">
        <ele>345.6</ele>
        <time>2024-11-29T14:16:36Z</time>
      </trkpt>
      <trkpt lat="45.91281" lon="1.27204">
        <ele>345.8</ele>
        <time>2024-11-29T14:16:37Z</time>
      </trkpt>
      <trkpt lat="45.91283" lon="1.27198">
        <ele>346</ele>
        <time>2024-11-29T14:16:38Z</time>
      </trkpt>
      <trkpt lat="45.91284" lon="1.27192">
        <ele>346.2</ele>
        <time>2024-11-29T14:16:39Z</time>
      </trkpt>
      <trkpt lat="45.91284" lon="1.27185">
        <ele>346.4</ele>
        <time>2024-11-29T14:16:40Z</time>
      </trkpt>
      <trkpt lat="45.91285" lon="1.27178">
        <ele>346.6</ele>
        <time>2024-11-29T14:16:41Z</time>
      </trkpt>
      <trkpt lat="45.91286" lon="1.27173">
        <ele>346.8</ele>
        <time>2024-11-29T14:16:42Z</time>
      </trkpt>
      <trkpt lat="45.91288" lon="1.27168">
        <ele>346.9</ele>
        <time>2024-11-29T14:16:43Z</time>
      </trkpt>
      <trkpt lat="45.9129" lon="1.27164">
        <ele>347</ele>
        <time>2024-11-29T14:16:44Z</time>
      </trkpt>
      <trkpt lat="45.91292" lon="1.27159">
        <ele>347.1</ele>
        <time>2024-11-29T14:16:45Z</time>
      </trkpt>
      <trkpt lat="45.91295" lon="1.27155">
        <ele>347.3</ele>
        <time>2024-11-29T14:16:46Z</time>
      </trkpt>
      <trkpt lat="45.91297" lon="1.27151">
        <ele>347.4</ele>
        <time>2024-11-29T14:16:47Z</time>
      </trkpt>
      <trkpt lat="45.91299" lon="1.27146">
        <ele>347.5</ele>
        <time>2024-11-29T14:16:48Z</time>
      </trkpt>
      <trkpt lat="45.91302" lon="1.27141">
        <ele>347.6</ele>
        <time>2024-11-29T14:16:49Z</time>
      </trkpt>
      <trkpt lat="45.91305" lon="1.27136">
        <ele>347.7</ele>
        <time>2024-11-29T14:16:50Z</time>
      </trkpt>
      <trkpt lat="45.91307" lon="1.27129">
        <ele>347.9</ele>
        <time>2024-11-29T14:16:51Z</time>
      </trkpt>
      <trkpt lat="45.91311" lon="1.27123">
        <ele>348.1</ele>
        <time>2024-11-29T14:16:52Z</time>
      </trkpt>
      <trkpt lat="45.91314" lon="1.27118">
        <ele>348.2</ele>
        <time>2024-11-29T14:16:53Z</time>
      </trkpt>
      <trkpt lat="45.91316" lon="1.27113">
        <ele>348.4</ele>
        <time>2024-11-29T14:16:54Z</time>
      </trkpt>
      <trkpt lat="45.91319" lon="1.27109">
        <ele>348.5</ele>
        <time>2024-11-29T14:16:55Z</time>
      </trkpt>
      <trkpt lat="45.91321" lon="1.27103">
        <ele>348.7</ele>
        <time>2024-11-29T14:16:56Z</time>
      </trkpt>
      <trkpt lat="45.91324" lon="1.27099">
        <ele>348.9</ele>
        <time>2024-11-29T14:16:57Z</time>
      </trkpt>
      <trkpt lat="45.91327" lon="1.27094">
        <ele>349.1</ele>
        <time>2024-11-29T14:16:58Z</time>
      </trkpt>
      <trkpt lat="45.91329" lon="1.27091">
        <ele>349.3</ele>
        <time>2024-11-29T14:16:59Z</time>
      </trkpt>
      <trkpt lat="45.91332" lon="1.27087">
        <ele>349.5</ele>
        <time>2024-11-29T14:17:00Z</time>
      </trkpt>
      <trkpt lat="45.91335" lon="1.27084">
        <ele>349.6</ele>
        <time>2024-11-29T14:17:01Z</time>
      </trkpt>
      <trkpt lat="45.91337" lon="1.2708">
        <ele>349.8</ele>
        <time>2024-11-29T14:17:02Z</time>
      </trkpt>
      <trkpt lat="45.91339" lon="1.27076">
        <ele>350</ele>
        <time>2024-11-29T14:17:03Z</time>
      </trkpt>
      <trkpt lat="45.91341" lon="1.27072">
        <ele>350.2</ele>
        <time>2024-11-29T14:17:04Z</time>
      </trkpt>
      <trkpt lat="45.91344" lon="1.27068">
        <ele>350.4</ele>
        <time>2024-11-29T14:17:05Z</time>
      </trkpt>
      <trkpt lat="45.91346" lon="1.27063">
        <ele>350.6</ele>
        <time>2024-11-29T14:17:06Z</time>
      </trkpt>
      <trkpt lat="45.91347" lon="1.27058">
        <ele>350.8</ele>
        <time>2024-11-29T14:17:07Z</time>
      </trkpt>
      <trkpt lat="45.91348" lon="1.27054">
        <ele>351</ele>
        <time>2024-11-29T14:17:08Z</time>
      </trkpt>
      <trkpt lat="45.9135" lon="1.2705">
        <ele>351.1</ele>
        <time>2024-11-29T14:17:09Z</time>
      </trkpt>
      <trkpt lat="45.91353" lon="1.27045">
        <ele>351.4</ele>
        <time>2024-11-29T14:17:10Z</time>
      </trkpt>
      <trkpt lat="45.91355" lon="1.27041">
        <ele>351.5</ele>
        <time>2024-11-29T14:17:11Z</time>
      </trkpt>
      <trkpt lat="45.91356" lon="1.27037">
        <ele>351.7</ele>
        <time>2024-11-29T14:17:12Z</time>
      </trkpt>
      <trkpt lat="45.91358" lon="1.27033">
        <ele>351.9</ele>
        <time>2024-11-29T14:17:13Z</time>
      </trkpt>
      <trkpt lat="45.9136" lon="1.27028">
        <ele>352</ele>
        <time>2024-11-29T14:17:14Z</time>
      </trkpt>
      <trkpt lat="45.91363" lon="1.27021">
        <ele>352.3</ele>
        <time>2024-11-29T14:17:15Z</time>
      </trkpt>
      <trkpt lat="45.91367" lon="1.27015">
        <ele>352.7</ele>
        <time>2024-11-29T14:17:16Z</time>
      </trkpt>
      <trkpt lat="45.91369" lon="1.2701">
        <ele>352.9</ele>
        <time>2024-11-29T14:17:17Z</time>
      </trkpt>
      <trkpt lat="45.91372" lon="1.27004">
        <ele>353.2</ele>
        <time>2024-11-29T14:17:18Z</time>
      </trkpt>
      <trkpt lat="45.91375" lon="1.26999">
        <ele>353.5</ele>
        <time>2024-11-29T14:17:19Z</time>
      </trkpt>
      <trkpt lat="45.91377" lon="1.26994">
        <ele>353.7</ele>
        <time>2024-11-29T14:17:20Z</time>
      </trkpt>
      <trkpt lat="45.91379" lon="1.26989">
        <ele>353.9</ele>
        <time>2024-11-29T14:17:21Z</time>
      </trkpt>
      <trkpt lat="45.91381" lon="1.26984">
        <ele>354.2</ele>
        <time>2024-11-29T14:17:22Z</time>
      </trkpt>
      <trkpt lat="45.91383" lon="1.26979">
        <ele>354.4</ele>
        <time>2024-11-29T14:17:23Z</time>
      </trkpt>
      <trkpt lat="45.91385" lon="1.26974">
        <ele>354.6</ele>
        <time>2024-11-29T14:17:24Z</time>
      </trkpt>
      <trkpt lat="45.91387" lon="1.26968">
        <ele>354.9</ele>
        <time>2024-11-29T14:17:25Z</time>
      </trkpt>
      <trkpt lat="45.91389" lon="1.26963">
        <ele>355.1</ele>
        <time>2024-11-29T14:17:26Z</time>
      </trkpt>
      <trkpt lat="45.91391" lon="1.26958">
        <ele>355.4</ele>
        <time>2024-11-29T14:17:27Z</time>
      </trkpt>
      <trkpt lat="45.91393" lon="1.26952">
        <ele>355.6</ele>
        <time>2024-11-29T14:17:28Z</time>
      </trkpt>
      <trkpt lat="45.91396" lon="1.26947">
        <ele>355.9</ele>
        <time>2024-11-29T14:17:29Z</time>
      </trkpt>
      <trkpt lat="45.91399" lon="1.26942">
        <ele>356.1</ele>
        <time>2024-11-29T14:17:30Z</time>
      </trkpt>
      <trkpt lat="45.91402" lon="1.26937">
        <ele>356.3</ele>
        <time>2024-11-29T14:17:31Z</time>
      </trkpt>
      <trkpt lat="45.91405" lon="1.26931">
        <ele>356.6</ele>
        <time>2024-11-29T14:17:32Z</time>
      </trkpt>
      <trkpt lat="45.91408" lon="1.26925">
        <ele>356.9</ele>
        <time>2024-11-29T14:17:33Z</time>
      </trkpt>
      <trkpt lat="45.91412" lon="1.26919">
        <ele>357.2</ele>
        <time>2024-11-29T14:17:34Z</time>
      </trkpt>
      <trkpt lat="45.91415" lon="1.26914">
        <ele>357.5</ele>
        <time>2024-11-29T14:17:35Z</time>
      </trkpt>
      <trkpt lat="45.91417" lon="1.26909">
        <ele>357.7</ele>
        <time>2024-11-29T14:17:36Z</time>
      </trkpt>
      <trkpt lat="45.9142" lon="1.26903">
        <ele>358</ele>
        <time>2024-11-29T14:17:37Z</time>
      </trkpt>
      <trkpt lat="45.91423" lon="1.26898">
        <ele>358.2</ele>
        <time>2024-11-29T14:17:38Z</time>
      </trkpt>
      <trkpt lat="45.91426" lon="1.26892">
        <ele>358.5</ele>
        <time>2024-11-29T14:17:39Z</time>
      </trkpt>
      <trkpt lat="45.91429" lon="1.26887">
        <ele>358.7</ele>
        <time>2024-11-29T14:17:40Z</time>
      </trkpt>
      <trkpt lat="45.91432" lon="1.26881">
        <ele>359</ele>
        <time>2024-11-29T14:17:41Z</time>
      </trkpt>
      <trkpt lat="45.91436" lon="1.26875">
        <ele>359.3</ele>
        <time>2024-11-29T14:17:42Z</time>
      </trkpt>
      <trkpt lat="45.91439" lon="1.2687">
        <ele>359.5</ele>
        <time>2024-11-29T14:17:43Z</time>
      </trkpt>
      <trkpt lat="45.91442" lon="1.26864">
        <ele>359.8</ele>
        <time>2024-11-29T14:17:44Z</time>
      </trkpt>
      <trkpt lat="45.91447" lon="1.2686">
        <ele>360.1</ele>
        <time>2024-11-29T14:17:45Z</time>
      </trkpt>
      <trkpt lat="45.9145" lon="1.26855">
        <ele>360.4</ele>
        <time>2024-11-29T14:17:46Z</time>
      </trkpt>
      <trkpt lat="45.91453" lon="1.2685">
        <ele>360.6</ele>
        <time>2024-11-29T14:17:47Z</time>
      </trkpt>
      <trkpt lat="45.91457" lon="1.26842">
        <ele>361</ele>
        <time>2024-11-29T14:17:48Z</time>
      </trkpt>
      <trkpt lat="45.91461" lon="1.26836">
        <ele>361.3</ele>
        <time>2024-11-29T14:17:49Z</time>
      </trkpt>
      <trkpt lat="45.91464" lon="1.2683">
        <ele>361.6</ele>
        <time>2024-11-29T14:17:50Z</time>
      </trkpt>
      <trkpt lat="45.91468" lon="1.26824">
        <ele>361.9</ele>
        <time>2024-11-29T14:17:51Z</time>
      </trkpt>
      <trkpt lat="45.91471" lon="1.26818">
        <ele>362.2</ele>
        <time>2024-11-29T14:17:52Z</time>
      </trkpt>
      <trkpt lat="45.91475" lon="1.26811">
        <ele>362.5</ele>
        <time>2024-11-29T14:17:53Z</time>
      </trkpt>
      <trkpt lat="45.91477" lon="1.26805">
        <ele>362.7</ele>
        <time>2024-11-29T14:17:54Z</time>
      </trkpt>
      <trkpt lat="45.91479" lon="1.26798">
        <ele>363</ele>
        <time>2024-11-29T14:17:55Z</time>
      </trkpt>
      <trkpt lat="45.91481" lon="1.26791">
        <ele>363.2</ele>
        <time>2024-11-29T14:17:56Z</time>
      </trkpt>
      <trkpt lat="45.91482" lon="1.26783">
        <ele>363.3</ele>
        <time>2024-11-29T14:17:57Z</time>
      </trkpt>
      <trkpt lat="45.91483" lon="1.26775">
        <ele>363.5</ele>
        <time>2024-11-29T14:17:58Z</time>
      </trkpt>
      <trkpt lat="45.91483" lon="1.26768">
        <ele>363.7</ele>
        <time>2024-11-29T14:17:59Z</time>
      </trkpt>
      <trkpt lat="45.91484" lon="1.26759">
        <ele>363.9</ele>
        <time>2024-11-29T14:18:00Z</time>
      </trkpt>
      <trkpt lat="45.91484" lon="1.26751">
        <ele>364</ele>
        <time>2024-11-29T14:18:01Z</time>
      </trkpt>
      <trkpt lat="45.91484" lon="1.26743">
        <ele>364.2</ele>
        <time>2024-11-29T14:18:02Z</time>
      </trkpt>
      <trkpt lat="45.91484" lon="1.26734">
        <ele>364.4</ele>
        <time>2024-11-29T14:18:03Z</time>
      </trkpt>
      <trkpt lat="45.91485" lon="1.26726">
        <ele>364.6</ele>
        <time>2024-11-29T14:18:04Z</time>
      </trkpt>
      <trkpt lat="45.91485" lon="1.26717">
        <ele>364.8</ele>
        <time>2024-11-29T14:18:05Z</time>
      </trkpt>
      <trkpt lat="45.91486" lon="1.26708">
        <ele>365.1</ele>
        <time>2024-11-29T14:18:06Z</time>
      </trkpt>
      <trkpt lat="45.91487" lon="1.26701">
        <ele>365.3</ele>
        <time>2024-11-29T14:18:07Z</time>
      </trkpt>
      <trkpt lat="45.91486" lon="1.26695">
        <ele>365.5</ele>
        <time>2024-11-29T14:18:08Z</time>
      </trkpt>
      <trkpt lat="45.91486" lon="1.2669">
        <ele>365.7</ele>
        <time>2024-11-29T14:18:09Z</time>
      </trkpt>
      <trkpt lat="45.91483" lon="1.26688">
        <ele>365.8</ele>
        <time>2024-11-29T14:18:10Z</time>
      </trkpt>
      <trkpt lat="45.9148" lon="1.26689">
        <ele>365.7</ele>
        <time>2024-11-29T14:18:11Z</time>
      </trkpt>
      <trkpt lat="45.91476" lon="1.2669">
        <ele>365.5</ele>
        <time>2024-11-29T14:18:12Z</time>
      </trkpt>
      <trkpt lat="45.91471" lon="1.26691">
        <ele>365.3</ele>
        <time>2024-11-29T14:18:13Z</time>
      </trkpt>
      <trkpt lat="45.91466" lon="1.26692">
        <ele>365.1</ele>
        <time>2024-11-29T14:18:14Z</time>
      </trkpt>
      <trkpt lat="45.9146" lon="1.26694">
        <ele>364.8</ele>
        <time>2024-11-29T14:18:15Z</time>
      </trkpt>
      <trkpt lat="45.91454" lon="1.26696">
        <ele>364.5</ele>
        <time>2024-11-29T14:18:16Z</time>
      </trkpt>
      <trkpt lat="45.91448" lon="1.26698">
        <ele>364.2</ele>
        <time>2024-11-29T14:18:17Z</time>
      </trkpt>
      <trkpt lat="45.91442" lon="1.26701">
        <ele>363.9</ele>
        <time>2024-11-29T14:18:18Z</time>
      </trkpt>
      <trkpt lat="45.91436" lon="1.26704">
        <ele>363.7</ele>
        <time>2024-11-29T14:18:19Z</time>
      </trkpt>
      <trkpt lat="45.9143" lon="1.26707">
        <ele>363.4</ele>
        <time>2024-11-29T14:18:20Z</time>
      </trkpt>
      <trkpt lat="45.91424" lon="1.2671">
        <ele>363.2</ele>
        <time>2024-11-29T14:18:21Z</time>
      </trkpt>
      <trkpt lat="45.91417" lon="1.26713">
        <ele>362.9</ele>
        <time>2024-11-29T14:18:22Z</time>
      </trkpt>
      <trkpt lat="45.91411" lon="1.26716">
        <ele>362.6</ele>
        <time>2024-11-29T14:18:23Z</time>
      </trkpt>
      <trkpt lat="45.91404" lon="1.26719">
        <ele>362.3</ele>
        <time>2024-11-29T14:18:24Z</time>
      </trkpt>
      <trkpt lat="45.91398" lon="1.26722">
        <ele>362.1</ele>
        <time>2024-11-29T14:18:25Z</time>
      </trkpt>
      <trkpt lat="45.91391" lon="1.26726">
        <ele>361.8</ele>
        <time>2024-11-29T14:18:26Z</time>
      </trkpt>
      <trkpt lat="45.91385" lon="1.26729">
        <ele>361.6</ele>
        <time>2024-11-29T14:18:27Z</time>
      </trkpt>
      <trkpt lat="45.91379" lon="1.26733">
        <ele>361.3</ele>
        <time>2024-11-29T14:18:28Z</time>
      </trkpt>
      <trkpt lat="45.91373" lon="1.26737">
        <ele>361.1</ele>
        <time>2024-11-29T14:18:29Z</time>
      </trkpt>
      <trkpt lat="45.91367" lon="1.26741">
        <ele>360.9</ele>
        <time>2024-11-29T14:18:30Z</time>
      </trkpt>
      <trkpt lat="45.91361" lon="1.26745">
        <ele>360.7</ele>
        <time>2024-11-29T14:18:31Z</time>
      </trkpt>
      <trkpt lat="45.91355" lon="1.26748">
        <ele>360.5</ele>
        <time>2024-11-29T14:18:32Z</time>
      </trkpt>
      <trkpt lat="45.91349" lon="1.26752">
        <ele>360.3</ele>
        <time>2024-11-29T14:18:33Z</time>
      </trkpt>
      <trkpt lat="45.91344" lon="1.26756">
        <ele>360.1</ele>
        <time>2024-11-29T14:18:34Z</time>
      </trkpt>
      <trkpt lat="45.91338" lon="1.26759">
        <ele>359.9</ele>
        <time>2024-11-29T14:18:35Z</time>
      </trkpt>
      <trkpt lat="45.91332" lon="1.26763">
        <ele>359.7</ele>
        <time>2024-11-29T14:18:36Z</time>
      </trkpt>
      <trkpt lat="45.91327" lon="1.26767">
        <ele>359.6</ele>
        <time>2024-11-29T14:18:37Z</time>
      </trkpt>
      <trkpt lat="45.91321" lon="1.26771">
        <ele>359.4</ele>
        <time>2024-11-29T14:18:38Z</time>
      </trkpt>
      <trkpt lat="45.91315" lon="1.26774">
        <ele>359.2</ele>
        <time>2024-11-29T14:18:39Z</time>
      </trkpt>
      <trkpt lat="45.91309" lon="1.26777">
        <ele>359</ele>
        <time>2024-11-29T14:18:40Z</time>
      </trkpt>
      <trkpt lat="45.91304" lon="1.26781">
        <ele>358.9</ele>
        <time>2024-11-29T14:18:41Z</time>
      </trkpt>
      <trkpt lat="45.91298" lon="1.26785">
        <ele>358.8</ele>
        <time>2024-11-29T14:18:42Z</time>
      </trkpt>
      <trkpt lat="45.91291" lon="1.26788">
        <ele>358.7</ele>
        <time>2024-11-29T14:18:43Z</time>
      </trkpt>
      <trkpt lat="45.91285" lon="1.26791">
        <ele>358.6</ele>
        <time>2024-11-29T14:18:44Z</time>
      </trkpt>
      <trkpt lat="45.9128" lon="1.26793">
        <ele>358.6</ele>
        <time>2024-11-29T14:18:45Z</time>
      </trkpt>
      <trkpt lat="45.91275" lon="1.26796">
        <ele>358.6</ele>
        <time>2024-11-29T14:18:46Z</time>
      </trkpt>
      <trkpt lat="45.9127" lon="1.268">
        <ele>358.6</ele>
        <time>2024-11-29T14:18:47Z</time>
      </trkpt>
      <trkpt lat="45.91266" lon="1.26803">
        <ele>358.6</ele>
        <time>2024-11-29T14:18:48Z</time>
      </trkpt>
      <trkpt lat="45.91261" lon="1.26806">
        <ele>358.6</ele>
        <time>2024-11-29T14:18:49Z</time>
      </trkpt>
      <trkpt lat="45.91255" lon="1.26809">
        <ele>358.7</ele>
        <time>2024-11-29T14:18:50Z</time>
      </trkpt>
      <trkpt lat="45.91249" lon="1.26813">
        <ele>358.8</ele>
        <time>2024-11-29T14:18:51Z</time>
      </trkpt>
      <trkpt lat="45.91244" lon="1.26816">
        <ele>358.9</ele>
        <time>2024-11-29T14:18:52Z</time>
      </trkpt>
      <trkpt lat="45.91238" lon="1.2682">
        <ele>359.1</ele>
        <time>2024-11-29T14:18:53Z</time>
      </trkpt>
      <trkpt lat="45.91232" lon="1.26823">
        <ele>359.3</ele>
        <time>2024-11-29T14:18:54Z</time>
      </trkpt>
      <trkpt lat="45.91227" lon="1.26827">
        <ele>359.5</ele>
        <time>2024-11-29T14:18:55Z</time>
      </trkpt>
      <trkpt lat="45.91221" lon="1.2683">
        <ele>359.6</ele>
        <time>2024-11-29T14:18:56Z</time>
      </trkpt>
      <trkpt lat="45.91215" lon="1.26834">
        <ele>359.8</ele>
        <time>2024-11-29T14:18:57Z</time>
      </trkpt>
      <trkpt lat="45.9121" lon="1.26838">
        <ele>359.9</ele>
        <time>2024-11-29T14:18:58Z</time>
      </trkpt>
      <trkpt lat="45.91204" lon="1.2684">
        <ele>360</ele>
        <time>2024-11-29T14:18:59Z</time>
      </trkpt>
      <trkpt lat="45.91199" lon="1.26843">
        <ele>360</ele>
        <time>2024-11-29T14:19:00Z</time>
      </trkpt>
      <trkpt lat="45.91194" lon="1.26846">
        <ele>360.1</ele>
        <time>2024-11-29T14:19:01Z</time>
      </trkpt>
      <trkpt lat="45.91188" lon="1.26849">
        <ele>360.1</ele>
        <time>2024-11-29T14:19:02Z</time>
      </trkpt>
      <trkpt lat="45.91183" lon="1.26851">
        <ele>360.1</ele>
        <time>2024-11-29T14:19:03Z</time>
      </trkpt>
      <trkpt lat="45.91179" lon="1.26854">
        <ele>360.1</ele>
        <time>2024-11-29T14:19:04Z</time>
      </trkpt>
      <trkpt lat="45.91173" lon="1.26857">
        <ele>360</ele>
        <time>2024-11-29T14:19:05Z</time>
      </trkpt>
      <trkpt lat="45.91168" lon="1.26862">
        <ele>359.9</ele>
        <time>2024-11-29T14:19:06Z</time>
      </trkpt>
      <trkpt lat="45.91162" lon="1.26867">
        <ele>359.8</ele>
        <time>2024-11-29T14:19:07Z</time>
      </trkpt>
      <trkpt lat="45.91157" lon="1.26872">
        <ele>359.6</ele>
        <time>2024-11-29T14:19:08Z</time>
      </trkpt>
      <trkpt lat="45.91152" lon="1.26878">
        <ele>359.4</ele>
        <time>2024-11-29T14:19:09Z</time>
      </trkpt>
      <trkpt lat="45.91146" lon="1.26884">
        <ele>359.2</ele>
        <time>2024-11-29T14:19:10Z</time>
      </trkpt>
      <trkpt lat="45.91141" lon="1.26889">
        <ele>359.1</ele>
        <time>2024-11-29T14:19:11Z</time>
      </trkpt>
      <trkpt lat="45.91136" lon="1.26895">
        <ele>358.9</ele>
        <time>2024-11-29T14:19:12Z</time>
      </trkpt>
      <trkpt lat="45.91131" lon="1.269">
        <ele>358.8</ele>
        <time>2024-11-29T14:19:13Z</time>
      </trkpt>
      <trkpt lat="45.91125" lon="1.26906">
        <ele>358.7</ele>
        <time>2024-11-29T14:19:14Z</time>
      </trkpt>
      <trkpt lat="45.91119" lon="1.26912">
        <ele>358.7</ele>
        <time>2024-11-29T14:19:15Z</time>
      </trkpt>
      <trkpt lat="45.91113" lon="1.26918">
        <ele>358.7</ele>
        <time>2024-11-29T14:19:16Z</time>
      </trkpt>
      <trkpt lat="45.91108" lon="1.26924">
        <ele>358.7</ele>
        <time>2024-11-29T14:19:17Z</time>
      </trkpt>
      <trkpt lat="45.91104" lon="1.2693">
        <ele>358.8</ele>
        <time>2024-11-29T14:19:18Z</time>
      </trkpt>
      <trkpt lat="45.91101" lon="1.26934">
        <ele>358.9</ele>
        <time>2024-11-29T14:19:19Z</time>
      </trkpt>
      <trkpt lat="45.91097" lon="1.26939">
        <ele>359</ele>
        <time>2024-11-29T14:19:20Z</time>
      </trkpt>
      <trkpt lat="45.91092" lon="1.26944">
        <ele>359.1</ele>
        <time>2024-11-29T14:19:21Z</time>
      </trkpt>
      <trkpt lat="45.91087" lon="1.26949">
        <ele>359.2</ele>
        <time>2024-11-29T14:19:22Z</time>
      </trkpt>
      <trkpt lat="45.91082" lon="1.26955">
        <ele>359.3</ele>
        <time>2024-11-29T14:19:23Z</time>
      </trkpt>
      <trkpt lat="45.91076" lon="1.2696">
        <ele>359.4</ele>
        <time>2024-11-29T14:19:24Z</time>
      </trkpt>
      <trkpt lat="45.9107" lon="1.26965">
        <ele>359.6</ele>
        <time>2024-11-29T14:19:25Z</time>
      </trkpt>
      <trkpt lat="45.91066" lon="1.2697">
        <ele>359.7</ele>
        <time>2024-11-29T14:19:26Z</time>
      </trkpt>
      <trkpt lat="45.9106" lon="1.26974">
        <ele>359.7</ele>
        <time>2024-11-29T14:19:27Z</time>
      </trkpt>
      <trkpt lat="45.91056" lon="1.26978">
        <ele>359.8</ele>
        <time>2024-11-29T14:19:28Z</time>
      </trkpt>
      <trkpt lat="45.91052" lon="1.26983">
        <ele>359.8</ele>
        <time>2024-11-29T14:19:29Z</time>
      </trkpt>
      <trkpt lat="45.91047" lon="1.26989">
        <ele>359.7</ele>
        <time>2024-11-29T14:19:30Z</time>
      </trkpt>
      <trkpt lat="45.91043" lon="1.26995">
        <ele>359.7</ele>
        <time>2024-11-29T14:19:31Z</time>
      </trkpt>
      <trkpt lat="45.91036" lon="1.27">
        <ele>359.6</ele>
        <time>2024-11-29T14:19:32Z</time>
      </trkpt>
      <trkpt lat="45.91031" lon="1.27005">
        <ele>359.6</ele>
        <time>2024-11-29T14:19:33Z</time>
      </trkpt>
      <trkpt lat="45.91026" lon="1.27011">
        <ele>359.5</ele>
        <time>2024-11-29T14:19:34Z</time>
      </trkpt>
      <trkpt lat="45.91022" lon="1.27016">
        <ele>359.4</ele>
        <time>2024-11-29T14:19:35Z</time>
      </trkpt>
      <trkpt lat="45.91017" lon="1.27021">
        <ele>359.3</ele>
        <time>2024-11-29T14:19:36Z</time>
      </trkpt>
      <trkpt lat="45.91012" lon="1.27027">
        <ele>359.3</ele>
        <time>2024-11-29T14:19:37Z</time>
      </trkpt>
      <trkpt lat="45.91008" lon="1.27032">
        <ele>359.2</ele>
        <time>2024-11-29T14:19:38Z</time>
      </trkpt>
      <trkpt lat="45.91004" lon="1.27038">
        <ele>359.2</ele>
        <time>2024-11-29T14:19:39Z</time>
      </trkpt>
      <trkpt lat="45.90998" lon="1.27044">
        <ele>359.2</ele>
        <time>2024-11-29T14:19:40Z</time>
      </trkpt>
      <trkpt lat="45.90996" lon="1.2705">
        <ele>359.2</ele>
        <time>2024-11-29T14:19:41Z</time>
      </trkpt>
      <trkpt lat="45.90991" lon="1.27056">
        <ele>359.2</ele>
        <time>2024-11-29T14:19:42Z</time>
      </trkpt>
      <trkpt lat="45.90986" lon="1.27062">
        <ele>359.3</ele>
        <time>2024-11-29T14:19:43Z</time>
      </trkpt>
      <trkpt lat="45.90981" lon="1.27067">
        <ele>359.3</ele>
        <time>2024-11-29T14:19:44Z</time>
      </trkpt>
      <trkpt lat="45.90978" lon="1.27071">
        <ele>359.3</ele>
        <time>2024-11-29T14:19:45Z</time>
      </trkpt>
      <trkpt lat="45.90973" lon="1.27075">
        <ele>359.3</ele>
        <time>2024-11-29T14:19:46Z</time>
      </trkpt>
      <trkpt lat="45.90966" lon="1.27079">
        <ele>359.3</ele>
        <time>2024-11-29T14:19:47Z</time>
      </trkpt>
      <trkpt lat="45.9096" lon="1.27082">
        <ele>359.2</ele>
        <time>2024-11-29T14:19:48Z</time>
      </trkpt>
      <trkpt lat="45.90954" lon="1.27085">
        <ele>359.1</ele>
        <time>2024-11-29T14:19:49Z</time>
      </trkpt>
      <trkpt lat="45.90948" lon="1.27088">
        <ele>358.9</ele>
        <time>2024-11-29T14:19:50Z</time>
      </trkpt>
      <trkpt lat="45.90943" lon="1.27093">
        <ele>358.6</ele>
        <time>2024-11-29T14:19:51Z</time>
      </trkpt>
      <trkpt lat="45.90938" lon="1.27098">
        <ele>358.4</ele>
        <time>2024-11-29T14:19:52Z</time>
      </trkpt>
      <trkpt lat="45.90934" lon="1.27104">
        <ele>358.1</ele>
        <time>2024-11-29T14:19:53Z</time>
      </trkpt>
      <trkpt lat="45.9093" lon="1.27108">
        <ele>357.9</ele>
        <time>2024-11-29T14:19:54Z</time>
      </trkpt>
      <trkpt lat="45.90926" lon="1.27112">
        <ele>357.6</ele>
        <time>2024-11-29T14:19:55Z</time>
      </trkpt>
      <trkpt lat="45.90921" lon="1.27117">
        <ele>357.3</ele>
        <time>2024-11-29T14:19:56Z</time>
      </trkpt>
      <trkpt lat="45.90921" lon="1.27121">
        <ele>357.2</ele>
        <time>2024-11-29T14:19:57Z</time>
      </trkpt>
      <trkpt lat="45.90919" lon="1.27125">
        <ele>357</ele>
        <time>2024-11-29T14:19:58Z</time>
      </trkpt>
      <trkpt lat="45.90916" lon="1.27131">
        <ele>356.7</ele>
        <time>2024-11-29T14:19:59Z</time>
      </trkpt>
      <trkpt lat="45.90913" lon="1.27137">
        <ele>356.4</ele>
        <time>2024-11-29T14:20:00Z</time>
      </trkpt>
      <trkpt lat="45.90908" lon="1.27142">
        <ele>356.1</ele>
        <time>2024-11-29T14:20:01Z</time>
      </trkpt>
      <trkpt lat="45.90898" lon="1.2715">
        <ele>355.5</ele>
        <time>2024-11-29T14:20:02Z</time>
      </trkpt>
      <trkpt lat="45.90889" lon="1.27156">
        <ele>355</ele>
        <time>2024-11-29T14:20:03Z</time>
      </trkpt>
      <trkpt lat="45.90883" lon="1.27162">
        <ele>354.6</ele>
        <time>2024-11-29T14:20:04Z</time>
      </trkpt>
      <trkpt lat="45.90877" lon="1.27167">
        <ele>354.2</ele>
        <time>2024-11-29T14:20:05Z</time>
      </trkpt>
      <trkpt lat="45.90872" lon="1.27171">
        <ele>353.9</ele>
        <time>2024-11-29T14:20:06Z</time>
      </trkpt>
      <trkpt lat="45.90866" lon="1.27176">
        <ele>353.6</ele>
        <time>2024-11-29T14:20:07Z</time>
      </trkpt>
      <trkpt lat="45.90859" lon="1.27179">
        <ele>353.3</ele>
        <time>2024-11-29T14:20:08Z</time>
      </trkpt>
      <trkpt lat="45.90852" lon="1.27182">
        <ele>353</ele>
        <time>2024-11-29T14:20:09Z</time>
      </trkpt>
      <trkpt lat="45.90846" lon="1.27186">
        <ele>352.7</ele>
        <time>2024-11-29T14:20:10Z</time>
      </trkpt>
      <trkpt lat="45.90839" lon="1.2719">
        <ele>352.5</ele>
        <time>2024-11-29T14:20:11Z</time>
      </trkpt>
      <trkpt lat="45.90832" lon="1.27193">
        <ele>352.2</ele>
        <time>2024-11-29T14:20:12Z</time>
      </trkpt>
      <trkpt lat="45.90826" lon="1.27196">
        <ele>352.1</ele>
        <time>2024-11-29T14:20:13Z</time>
      </trkpt>
      <trkpt lat="45.90821" lon="1.272">
        <ele>351.9</ele>
        <time>2024-11-29T14:20:14Z</time>
      </trkpt>
      <trkpt lat="45.90815" lon="1.27203">
        <ele>351.7</ele>
        <time>2024-11-29T14:20:15Z</time>
      </trkpt>
      <trkpt lat="45.90809" lon="1.27207">
        <ele>351.5</ele>
        <time>2024-11-29T14:20:16Z</time>
      </trkpt>
      <trkpt lat="45.90803" lon="1.27211">
        <ele>351.4</ele>
        <time>2024-11-29T14:20:17Z</time>
      </trkpt>
      <trkpt lat="45.90798" lon="1.27214">
        <ele>351.2</ele>
        <time>2024-11-29T14:20:18Z</time>
      </trkpt>
      <trkpt lat="45.90792" lon="1.27218">
        <ele>351</ele>
        <time>2024-11-29T14:20:19Z</time>
      </trkpt>
      <trkpt lat="45.90787" lon="1.2722">
        <ele>350.8</ele>
        <time>2024-11-29T14:20:20Z</time>
      </trkpt>
      <trkpt lat="45.90781" lon="1.27222">
        <ele>350.5</ele>
        <time>2024-11-29T14:20:21Z</time>
      </trkpt>
      <trkpt lat="45.90777" lon="1.27224">
        <ele>350.2</ele>
        <time>2024-11-29T14:20:22Z</time>
      </trkpt>
      <trkpt lat="45.90772" lon="1.27226">
        <ele>349.9</ele>
        <time>2024-11-29T14:20:23Z</time>
      </trkpt>
      <trkpt lat="45.90768" lon="1.27229">
        <ele>349.7</ele>
        <time>2024-11-29T14:20:24Z</time>
      </trkpt>
      <trkpt lat="45.90762" lon="1.27232">
        <ele>349.3</ele>
        <time>2024-11-29T14:20:25Z</time>
      </trkpt>
      <trkpt lat="45.90758" lon="1.27234">
        <ele>349</ele>
        <time>2024-11-29T14:20:26Z</time>
      </trkpt>
      <trkpt lat="45.90754" lon="1.27236">
        <ele>348.8</ele>
        <time>2024-11-29T14:20:27Z</time>
      </trkpt>
      <trkpt lat="45.9075" lon="1.27239">
        <ele>348.7</ele>
        <time>2024-11-29T14:20:28Z</time>
      </trkpt>
      <trkpt lat="45.90747" lon="1.27239">
        <ele>348.6</ele>
        <time>2024-11-29T14:20:30Z</time>
      </trkpt>
      <trkpt lat="45.90743" lon="1.27238">
        <ele>348.4</ele>
        <time>2024-11-29T14:20:31Z</time>
      </trkpt>
      <trkpt lat="45.90741" lon="1.27233">
        <ele>348.4</ele>
        <time>2024-11-29T14:20:32Z</time>
      </trkpt>
      <trkpt lat="45.90739" lon="1.27226">
        <ele>348.4</ele>
        <time>2024-11-29T14:20:33Z</time>
      </trkpt>
      <trkpt lat="45.90737" lon="1.27219">
        <ele>348.3</ele>
        <time>2024-11-29T14:20:34Z</time>
      </trkpt>
      <trkpt lat="45.90734" lon="1.2721">
        <ele>348.3</ele>
        <time>2024-11-29T14:20:35Z</time>
      </trkpt>
      <trkpt lat="45.90732" lon="1.27202">
        <ele>348.2</ele>
        <time>2024-11-29T14:20:36Z</time>
      </trkpt>
      <trkpt lat="45.90729" lon="1.27194">
        <ele>348</ele>
        <time>2024-11-29T14:20:37Z</time>
      </trkpt>
      <trkpt lat="45.90727" lon="1.27185">
        <ele>347.8</ele>
        <time>2024-11-29T14:20:38Z</time>
      </trkpt>
      <trkpt lat="45.90724" lon="1.27177">
        <ele>347.6</ele>
        <time>2024-11-29T14:20:39Z</time>
      </trkpt>
      <trkpt lat="45.90721" lon="1.27168">
        <ele>347.3</ele>
        <time>2024-11-29T14:20:40Z</time>
      </trkpt>
      <trkpt lat="45.90718" lon="1.27159">
        <ele>347</ele>
        <time>2024-11-29T14:20:41Z</time>
      </trkpt>
      <trkpt lat="45.90715" lon="1.2715">
        <ele>346.7</ele>
        <time>2024-11-29T14:20:42Z</time>
      </trkpt>
      <trkpt lat="45.90712" lon="1.2714">
        <ele>346.3</ele>
        <time>2024-11-29T14:20:43Z</time>
      </trkpt>
      <trkpt lat="45.90709" lon="1.2713">
        <ele>345.8</ele>
        <time>2024-11-29T14:20:44Z</time>
      </trkpt>
      <trkpt lat="45.90706" lon="1.2712">
        <ele>345.3</ele>
        <time>2024-11-29T14:20:45Z</time>
      </trkpt>
      <trkpt lat="45.90703" lon="1.27109">
        <ele>344.6</ele>
        <time>2024-11-29T14:20:46Z</time>
      </trkpt>
      <trkpt lat="45.90699" lon="1.27099">
        <ele>344</ele>
        <time>2024-11-29T14:20:47Z</time>
      </trkpt>
      <trkpt lat="45.90695" lon="1.27087">
        <ele>343.2</ele>
        <time>2024-11-29T14:20:48Z</time>
      </trkpt>
      <trkpt lat="45.90692" lon="1.27075">
        <ele>342.5</ele>
        <time>2024-11-29T14:20:49Z</time>
      </trkpt>
      <trkpt lat="45.90688" lon="1.27063">
        <ele>341.7</ele>
        <time>2024-11-29T14:20:50Z</time>
      </trkpt>
      <trkpt lat="45.90683" lon="1.2705">
        <ele>340.8</ele>
        <time>2024-11-29T14:20:51Z</time>
      </trkpt>
      <trkpt lat="45.90679" lon="1.27037">
        <ele>340</ele>
        <time>2024-11-29T14:20:52Z</time>
      </trkpt>
      <trkpt lat="45.90674" lon="1.27024">
        <ele>339.3</ele>
        <time>2024-11-29T14:20:53Z</time>
      </trkpt>
      <trkpt lat="45.90669" lon="1.27011">
        <ele>338.7</ele>
        <time>2024-11-29T14:20:54Z</time>
      </trkpt>
      <trkpt lat="45.90665" lon="1.26998">
        <ele>338.3</ele>
        <time>2024-11-29T14:20:55Z</time>
      </trkpt>
      <trkpt lat="45.9066" lon="1.26985">
        <ele>337.9</ele>
        <time>2024-11-29T14:20:56Z</time>
      </trkpt>
      <trkpt lat="45.90655" lon="1.26971">
        <ele>337.7</ele>
        <time>2024-11-29T14:20:57Z</time>
      </trkpt>
      <trkpt lat="45.9065" lon="1.26958">
        <ele>337.7</ele>
        <time>2024-11-29T14:20:58Z</time>
      </trkpt>
      <trkpt lat="45.90646" lon="1.26945">
        <ele>337.8</ele>
        <time>2024-11-29T14:20:59Z</time>
      </trkpt>
      <trkpt lat="45.90642" lon="1.26933">
        <ele>338</ele>
        <time>2024-11-29T14:21:00Z</time>
      </trkpt>
      <trkpt lat="45.90638" lon="1.26922">
        <ele>338.1</ele>
        <time>2024-11-29T14:21:01Z</time>
      </trkpt>
      <trkpt lat="45.90635" lon="1.26911">
        <ele>338.1</ele>
        <time>2024-11-29T14:21:02Z</time>
      </trkpt>
      <trkpt lat="45.90631" lon="1.269">
        <ele>338.2</ele>
        <time>2024-11-29T14:21:03Z</time>
      </trkpt>
      <trkpt lat="45.90628" lon="1.2689">
        <ele>338.3</ele>
        <time>2024-11-29T14:21:04Z</time>
      </trkpt>
      <trkpt lat="45.90625" lon="1.26881">
        <ele>338.5</ele>
        <time>2024-11-29T14:21:05Z</time>
      </trkpt>
      <trkpt lat="45.90622" lon="1.26873">
        <ele>338.6</ele>
        <time>2024-11-29T14:21:06Z</time>
      </trkpt>
      <trkpt lat="45.90619" lon="1.26865">
        <ele>338.8</ele>
        <time>2024-11-29T14:21:07Z</time>
      </trkpt>
      <trkpt lat="45.90616" lon="1.26857">
        <ele>339</ele>
        <time>2024-11-29T14:21:08Z</time>
      </trkpt>
      <trkpt lat="45.90613" lon="1.26849">
        <ele>339.2</ele>
        <time>2024-11-29T14:21:09Z</time>
      </trkpt>
      <trkpt lat="45.9061" lon="1.26841">
        <ele>339.4</ele>
        <time>2024-11-29T14:21:10Z</time>
      </trkpt>
      <trkpt lat="45.90608" lon="1.26834">
        <ele>339.6</ele>
        <time>2024-11-29T14:21:11Z</time>
      </trkpt>
      <trkpt lat="45.90605" lon="1.26826">
        <ele>339.9</ele>
        <time>2024-11-29T14:21:12Z</time>
      </trkpt>
      <trkpt lat="45.90603" lon="1.2682">
        <ele>340</ele>
        <time>2024-11-29T14:21:13Z</time>
      </trkpt>
      <trkpt lat="45.90601" lon="1.26814">
        <ele>340.2</ele>
        <time>2024-11-29T14:21:14Z</time>
      </trkpt>
      <trkpt lat="45.90599" lon="1.26808">
        <ele>340.4</ele>
        <time>2024-11-29T14:21:15Z</time>
      </trkpt>
      <trkpt lat="45.90597" lon="1.26802">
        <ele>340.5</ele>
        <time>2024-11-29T14:21:16Z</time>
      </trkpt>
      <trkpt lat="45.90593" lon="1.26797">
        <ele>340.7</ele>
        <time>2024-11-29T14:21:17Z</time>
      </trkpt>
      <trkpt lat="45.90589" lon="1.26794">
        <ele>340.8</ele>
        <time>2024-11-29T14:21:18Z</time>
      </trkpt>
      <trkpt lat="45.90584" lon="1.26791">
        <ele>340.9</ele>
        <time>2024-11-29T14:21:19Z</time>
      </trkpt>
      <trkpt lat="45.90579" lon="1.26789">
        <ele>341</ele>
        <time>2024-11-29T14:21:20Z</time>
      </trkpt>
      <trkpt lat="45.90573" lon="1.26787">
        <ele>341</ele>
        <time>2024-11-29T14:21:21Z</time>
      </trkpt>
      <trkpt lat="45.90566" lon="1.26785">
        <ele>340.9</ele>
        <time>2024-11-29T14:21:22Z</time>
      </trkpt>
      <trkpt lat="45.9056" lon="1.26783">
        <ele>340.7</ele>
        <time>2024-11-29T14:21:23Z</time>
      </trkpt>
      <trkpt lat="45.90553" lon="1.26782">
        <ele>340.5</ele>
        <time>2024-11-29T14:21:24Z</time>
      </trkpt>
      <trkpt lat="45.90547" lon="1.26783">
        <ele>340.4</ele>
        <time>2024-11-29T14:21:25Z</time>
      </trkpt>
      <trkpt lat="45.9054" lon="1.26783">
        <ele>340.2</ele>
        <time>2024-11-29T14:21:26Z</time>
      </trkpt>
      <trkpt lat="45.90534" lon="1.26784">
        <ele>340.1</ele>
        <time>2024-11-29T14:21:27Z</time>
      </trkpt>
      <trkpt lat="45.90527" lon="1.26786">
        <ele>339.9</ele>
        <time>2024-11-29T14:21:28Z</time>
      </trkpt>
      <trkpt lat="45.90521" lon="1.26787">
        <ele>339.8</ele>
        <time>2024-11-29T14:21:29Z</time>
      </trkpt>
      <trkpt lat="45.90514" lon="1.26789">
        <ele>339.7</ele>
        <time>2024-11-29T14:21:30Z</time>
      </trkpt>
      <trkpt lat="45.90509" lon="1.26791">
        <ele>339.6</ele>
        <time>2024-11-29T14:21:31Z</time>
      </trkpt>
      <trkpt lat="45.90505" lon="1.2679">
        <ele>339.6</ele>
        <time>2024-11-29T14:21:32Z</time>
      </trkpt>
      <trkpt lat="45.90501" lon="1.26788">
        <ele>339.7</ele>
        <time>2024-11-29T14:21:33Z</time>
      </trkpt>
      <trkpt lat="45.90498" lon="1.26783">
        <ele>340</ele>
        <time>2024-11-29T14:21:34Z</time>
      </trkpt>
      <trkpt lat="45.90496" lon="1.26778">
        <ele>340.2</ele>
        <time>2024-11-29T14:21:35Z</time>
      </trkpt>
      <trkpt lat="45.90495" lon="1.26772">
        <ele>340.4</ele>
        <time>2024-11-29T14:21:36Z</time>
      </trkpt>
      <trkpt lat="45.90495" lon="1.26766">
        <ele>340.5</ele>
        <time>2024-11-29T14:21:37Z</time>
      </trkpt>
      <trkpt lat="45.90495" lon="1.2676">
        <ele>340.7</ele>
        <time>2024-11-29T14:21:38Z</time>
      </trkpt>
      <trkpt lat="45.90495" lon="1.26753">
        <ele>340.9</ele>
        <time>2024-11-29T14:21:39Z</time>
      </trkpt>
      <trkpt lat="45.90494" lon="1.26745">
        <ele>341.1</ele>
        <time>2024-11-29T14:21:40Z</time>
      </trkpt>
      <trkpt lat="45.90493" lon="1.26737">
        <ele>341.2</ele>
        <time>2024-11-29T14:21:41Z</time>
      </trkpt>
      <trkpt lat="45.90493" lon="1.26728">
        <ele>341.4</ele>
        <time>2024-11-29T14:21:42Z</time>
      </trkpt>
      <trkpt lat="45.90492" lon="1.2672">
        <ele>341.5</ele>
        <time>2024-11-29T14:21:43Z</time>
      </trkpt>
      <trkpt lat="45.90492" lon="1.26711">
        <ele>341.5</ele>
        <time>2024-11-29T14:21:44Z</time>
      </trkpt>
      <trkpt lat="45.90491" lon="1.26702">
        <ele>341.6</ele>
        <time>2024-11-29T14:21:45Z</time>
      </trkpt>
      <trkpt lat="45.9049" lon="1.26693">
        <ele>341.7</ele>
        <time>2024-11-29T14:21:46Z</time>
      </trkpt>
      <trkpt lat="45.90489" lon="1.26684">
        <ele>341.7</ele>
        <time>2024-11-29T14:21:47Z</time>
      </trkpt>
      <trkpt lat="45.90488" lon="1.26675">
        <ele>341.8</ele>
        <time>2024-11-29T14:21:48Z</time>
      </trkpt>
      <trkpt lat="45.90487" lon="1.26666">
        <ele>341.8</ele>
        <time>2024-11-29T14:21:49Z</time>
      </trkpt>
      <trkpt lat="45.90485" lon="1.26658">
        <ele>341.8</ele>
        <time>2024-11-29T14:21:50Z</time>
      </trkpt>
      <trkpt lat="45.90482" lon="1.26649">
        <ele>341.9</ele>
        <time>2024-11-29T14:21:51Z</time>
      </trkpt>
      <trkpt lat="45.90479" lon="1.26642">
        <ele>342</ele>
        <time>2024-11-29T14:21:52Z</time>
      </trkpt>
      <trkpt lat="45.90475" lon="1.26636">
        <ele>342</ele>
        <time>2024-11-29T14:21:53Z</time>
      </trkpt>
      <trkpt lat="45.9047" lon="1.2663">
        <ele>342.1</ele>
        <time>2024-11-29T14:21:54Z</time>
      </trkpt>
      <trkpt lat="45.90465" lon="1.26625">
        <ele>342.1</ele>
        <time>2024-11-29T14:21:55Z</time>
      </trkpt>
      <trkpt lat="45.90459" lon="1.26621">
        <ele>342.1</ele>
        <time>2024-11-29T14:21:56Z</time>
      </trkpt>
      <trkpt lat="45.90454" lon="1.26619">
        <ele>342.2</ele>
        <time>2024-11-29T14:21:57Z</time>
      </trkpt>
      <trkpt lat="45.90449" lon="1.26618">
        <ele>342.2</ele>
        <time>2024-11-29T14:21:58Z</time>
      </trkpt>
      <trkpt lat="45.90443" lon="1.26618">
        <ele>342.2</ele>
        <time>2024-11-29T14:21:59Z</time>
      </trkpt>
      <trkpt lat="45.90437" lon="1.26618">
        <ele>342.2</ele>
        <time>2024-11-29T14:22:00Z</time>
      </trkpt>
      <trkpt lat="45.90431" lon="1.26618">
        <ele>342.3</ele>
        <time>2024-11-29T14:22:01Z</time>
      </trkpt>
      <trkpt lat="45.90425" lon="1.26619">
        <ele>342.4</ele>
        <time>2024-11-29T14:22:02Z</time>
      </trkpt>
      <trkpt lat="45.90418" lon="1.26619">
        <ele>342.5</ele>
        <time>2024-11-29T14:22:03Z</time>
      </trkpt>
      <trkpt lat="45.90412" lon="1.2662">
        <ele>342.7</ele>
        <time>2024-11-29T14:22:04Z</time>
      </trkpt>
      <trkpt lat="45.90407" lon="1.26621">
        <ele>342.9</ele>
        <time>2024-11-29T14:22:05Z</time>
      </trkpt>
      <trkpt lat="45.90401" lon="1.26621">
        <ele>343.2</ele>
        <time>2024-11-29T14:22:06Z</time>
      </trkpt>
      <trkpt lat="45.90395" lon="1.26621">
        <ele>343.5</ele>
        <time>2024-11-29T14:22:07Z</time>
      </trkpt>
      <trkpt lat="45.9039" lon="1.26621">
        <ele>343.8</ele>
        <time>2024-11-29T14:22:08Z</time>
      </trkpt>
      <trkpt lat="45.90384" lon="1.26621">
        <ele>344.2</ele>
        <time>2024-11-29T14:22:09Z</time>
      </trkpt>
      <trkpt lat="45.90379" lon="1.26623">
        <ele>344.5</ele>
        <time>2024-11-29T14:22:10Z</time>
      </trkpt>
      <trkpt lat="45.90373" lon="1.26624">
        <ele>344.9</ele>
        <time>2024-11-29T14:22:11Z</time>
      </trkpt>
      <trkpt lat="45.90368" lon="1.26623">
        <ele>345.3</ele>
        <time>2024-11-29T14:22:12Z</time>
      </trkpt>
      <trkpt lat="45.90363" lon="1.26623">
        <ele>345.6</ele>
        <time>2024-11-29T14:22:13Z</time>
      </trkpt>
      <trkpt lat="45.90358" lon="1.26624">
        <ele>345.9</ele>
        <time>2024-11-29T14:22:14Z</time>
      </trkpt>
      <trkpt lat="45.90352" lon="1.26625">
        <ele>346.3</ele>
        <time>2024-11-29T14:22:15Z</time>
      </trkpt>
      <trkpt lat="45.90347" lon="1.26626">
        <ele>346.6</ele>
        <time>2024-11-29T14:22:16Z</time>
      </trkpt>
      <trkpt lat="45.90342" lon="1.26628">
        <ele>347</ele>
        <time>2024-11-29T14:22:17Z</time>
      </trkpt>
      <trkpt lat="45.90337" lon="1.26629">
        <ele>347.3</ele>
        <time>2024-11-29T14:22:18Z</time>
      </trkpt>
      <trkpt lat="45.90332" lon="1.26629">
        <ele>347.6</ele>
        <time>2024-11-29T14:22:19Z</time>
      </trkpt>
      <trkpt lat="45.90327" lon="1.2663">
        <ele>347.9</ele>
        <time>2024-11-29T14:22:20Z</time>
      </trkpt>
      <trkpt lat="45.90322" lon="1.26631">
        <ele>348.3</ele>
        <time>2024-11-29T14:22:21Z</time>
      </trkpt>
      <trkpt lat="45.90317" lon="1.26631">
        <ele>348.6</ele>
        <time>2024-11-29T14:22:22Z</time>
      </trkpt>
      <trkpt lat="45.90312" lon="1.26632">
        <ele>349</ele>
        <time>2024-11-29T14:22:23Z</time>
      </trkpt>
      <trkpt lat="45.90307" lon="1.26634">
        <ele>349.4</ele>
        <time>2024-11-29T14:22:24Z</time>
      </trkpt>
      <trkpt lat="45.90302" lon="1.26635">
        <ele>349.9</ele>
        <time>2024-11-29T14:22:25Z</time>
      </trkpt>
      <trkpt lat="45.90297" lon="1.26635">
        <ele>350.3</ele>
        <time>2024-11-29T14:22:26Z</time>
      </trkpt>
      <trkpt lat="45.90292" lon="1.26636">
        <ele>350.8</ele>
        <time>2024-11-29T14:22:27Z</time>
      </trkpt>
      <trkpt lat="45.90288" lon="1.26635">
        <ele>351.2</ele>
        <time>2024-11-29T14:22:28Z</time>
      </trkpt>
      <trkpt lat="45.90284" lon="1.26634">
        <ele>351.7</ele>
        <time>2024-11-29T14:22:29Z</time>
      </trkpt>
      <trkpt lat="45.90281" lon="1.26632">
        <ele>352.3</ele>
        <time>2024-11-29T14:22:30Z</time>
      </trkpt>
      <trkpt lat="45.90277" lon="1.2663">
        <ele>352.7</ele>
        <time>2024-11-29T14:22:31Z</time>
      </trkpt>
      <trkpt lat="45.90274" lon="1.26628">
        <ele>353</ele>
        <time>2024-11-29T14:22:32Z</time>
      </trkpt>
      <trkpt lat="45.90272" lon="1.26624">
        <ele>353.3</ele>
        <time>2024-11-29T14:22:33Z</time>
      </trkpt>
      <trkpt lat="45.90269" lon="1.2662">
        <ele>353.7</ele>
        <time>2024-11-29T14:22:34Z</time>
      </trkpt>
      <trkpt lat="45.90267" lon="1.26616">
        <ele>353.9</ele>
        <time>2024-11-29T14:22:35Z</time>
      </trkpt>
      <trkpt lat="45.90264" lon="1.26612">
        <ele>354.2</ele>
        <time>2024-11-29T14:22:36Z</time>
      </trkpt>
      <trkpt lat="45.90261" lon="1.26608">
        <ele>354.5</ele>
        <time>2024-11-29T14:22:37Z</time>
      </trkpt>
      <trkpt lat="45.90258" lon="1.26602">
        <ele>354.8</ele>
        <time>2024-11-29T14:22:38Z</time>
      </trkpt>
      <trkpt lat="45.90256" lon="1.26597">
        <ele>355.1</ele>
        <time>2024-11-29T14:22:39Z</time>
      </trkpt>
      <trkpt lat="45.90253" lon="1.26591">
        <ele>355.4</ele>
        <time>2024-11-29T14:22:40Z</time>
      </trkpt>
      <trkpt lat="45.90249" lon="1.26586">
        <ele>355.7</ele>
        <time>2024-11-29T14:22:41Z</time>
      </trkpt>
      <trkpt lat="45.90246" lon="1.2658">
        <ele>355.9</ele>
        <time>2024-11-29T14:22:42Z</time>
      </trkpt>
      <trkpt lat="45.90243" lon="1.26574">
        <ele>356.2</ele>
        <time>2024-11-29T14:22:43Z</time>
      </trkpt>
      <trkpt lat="45.90239" lon="1.26568">
        <ele>356.5</ele>
        <time>2024-11-29T14:22:44Z</time>
      </trkpt>
      <trkpt lat="45.90235" lon="1.26562">
        <ele>356.7</ele>
        <time>2024-11-29T14:22:45Z</time>
      </trkpt>
      <trkpt lat="45.90232" lon="1.26556">
        <ele>357</ele>
        <time>2024-11-29T14:22:46Z</time>
      </trkpt>
      <trkpt lat="45.90228" lon="1.2655">
        <ele>357.2</ele>
        <time>2024-11-29T14:22:47Z</time>
      </trkpt>
      <trkpt lat="45.90225" lon="1.26544">
        <ele>357.5</ele>
        <time>2024-11-29T14:22:48Z</time>
      </trkpt>
      <trkpt lat="45.90221" lon="1.26537">
        <ele>357.8</ele>
        <time>2024-11-29T14:22:49Z</time>
      </trkpt>
      <trkpt lat="45.90216" lon="1.26531">
        <ele>358.1</ele>
        <time>2024-11-29T14:22:50Z</time>
      </trkpt>
      <trkpt lat="45.90213" lon="1.26526">
        <ele>358.3</ele>
        <time>2024-11-29T14:22:51Z</time>
      </trkpt>
      <trkpt lat="45.9021" lon="1.26521">
        <ele>358.5</ele>
        <time>2024-11-29T14:22:52Z</time>
      </trkpt>
      <trkpt lat="45.90207" lon="1.26516">
        <ele>358.7</ele>
        <time>2024-11-29T14:22:53Z</time>
      </trkpt>
      <trkpt lat="45.90203" lon="1.26509">
        <ele>359</ele>
        <time>2024-11-29T14:22:54Z</time>
      </trkpt>
      <trkpt lat="45.902" lon="1.26503">
        <ele>359.2</ele>
        <time>2024-11-29T14:22:55Z</time>
      </trkpt>
      <trkpt lat="45.90196" lon="1.26497">
        <ele>359.4</ele>
        <time>2024-11-29T14:22:56Z</time>
      </trkpt>
      <trkpt lat="45.90193" lon="1.2649">
        <ele>359.6</ele>
        <time>2024-11-29T14:22:57Z</time>
      </trkpt>
      <trkpt lat="45.90189" lon="1.26484">
        <ele>359.8</ele>
        <time>2024-11-29T14:22:58Z</time>
      </trkpt>
      <trkpt lat="45.90186" lon="1.26477">
        <ele>360.1</ele>
        <time>2024-11-29T14:22:59Z</time>
      </trkpt>
      <trkpt lat="45.90182" lon="1.2647">
        <ele>360.3</ele>
        <time>2024-11-29T14:23:00Z</time>
      </trkpt>
      <trkpt lat="45.90177" lon="1.26463">
        <ele>360.6</ele>
        <time>2024-11-29T14:23:01Z</time>
      </trkpt>
      <trkpt lat="45.90174" lon="1.26456">
        <ele>360.7</ele>
        <time>2024-11-29T14:23:02Z</time>
      </trkpt>
      <trkpt lat="45.90169" lon="1.26448">
        <ele>361</ele>
        <time>2024-11-29T14:23:03Z</time>
      </trkpt>
      <trkpt lat="45.90165" lon="1.26441">
        <ele>361.2</ele>
        <time>2024-11-29T14:23:04Z</time>
      </trkpt>
      <trkpt lat="45.90161" lon="1.26434">
        <ele>361.3</ele>
        <time>2024-11-29T14:23:05Z</time>
      </trkpt>
      <trkpt lat="45.90157" lon="1.26427">
        <ele>361.5</ele>
        <time>2024-11-29T14:23:06Z</time>
      </trkpt>
      <trkpt lat="45.90153" lon="1.26419">
        <ele>361.6</ele>
        <time>2024-11-29T14:23:07Z</time>
      </trkpt>
      <trkpt lat="45.90149" lon="1.26412">
        <ele>361.8</ele>
        <time>2024-11-29T14:23:08Z</time>
      </trkpt>
      <trkpt lat="45.90145" lon="1.26405">
        <ele>361.9</ele>
        <time>2024-11-29T14:23:09Z</time>
      </trkpt>
      <trkpt lat="45.90142" lon="1.26398">
        <ele>362.1</ele>
        <time>2024-11-29T14:23:10Z</time>
      </trkpt>
      <trkpt lat="45.90138" lon="1.26391">
        <ele>362.2</ele>
        <time>2024-11-29T14:23:11Z</time>
      </trkpt>
      <trkpt lat="45.90133" lon="1.26384">
        <ele>362.4</ele>
        <time>2024-11-29T14:23:12Z</time>
      </trkpt>
      <trkpt lat="45.90129" lon="1.26378">
        <ele>362.6</ele>
        <time>2024-11-29T14:23:13Z</time>
      </trkpt>
      <trkpt lat="45.90125" lon="1.26371">
        <ele>362.7</ele>
        <time>2024-11-29T14:23:14Z</time>
      </trkpt>
      <trkpt lat="45.90122" lon="1.26364">
        <ele>362.9</ele>
        <time>2024-11-29T14:23:15Z</time>
      </trkpt>
      <trkpt lat="45.90118" lon="1.26357">
        <ele>363</ele>
        <time>2024-11-29T14:23:16Z</time>
      </trkpt>
      <trkpt lat="45.90114" lon="1.2635">
        <ele>363.2</ele>
        <time>2024-11-29T14:23:17Z</time>
      </trkpt>
      <trkpt lat="45.90111" lon="1.26344">
        <ele>363.4</ele>
        <time>2024-11-29T14:23:18Z</time>
      </trkpt>
      <trkpt lat="45.90107" lon="1.26337">
        <ele>363.6</ele>
        <time>2024-11-29T14:23:19Z</time>
      </trkpt>
      <trkpt lat="45.90103" lon="1.2633">
        <ele>363.7</ele>
        <time>2024-11-29T14:23:20Z</time>
      </trkpt>
      <trkpt lat="45.90099" lon="1.26324">
        <ele>363.9</ele>
        <time>2024-11-29T14:23:21Z</time>
      </trkpt>
      <trkpt lat="45.90095" lon="1.26317">
        <ele>364.1</ele>
        <time>2024-11-29T14:23:22Z</time>
      </trkpt>
      <trkpt lat="45.90091" lon="1.2631">
        <ele>364.2</ele>
        <time>2024-11-29T14:23:23Z</time>
      </trkpt>
      <trkpt lat="45.90087" lon="1.26304">
        <ele>364.4</ele>
        <time>2024-11-29T14:23:24Z</time>
      </trkpt>
      <trkpt lat="45.90083" lon="1.26297">
        <ele>364.5</ele>
        <time>2024-11-29T14:23:25Z</time>
      </trkpt>
      <trkpt lat="45.90079" lon="1.2629">
        <ele>364.7</ele>
        <time>2024-11-29T14:23:26Z</time>
      </trkpt>
      <trkpt lat="45.90075" lon="1.26283">
        <ele>364.8</ele>
        <time>2024-11-29T14:23:27Z</time>
      </trkpt>
      <trkpt lat="45.90071" lon="1.26276">
        <ele>364.9</ele>
        <time>2024-11-29T14:23:28Z</time>
      </trkpt>
      <trkpt lat="45.90067" lon="1.26269">
        <ele>365</ele>
        <time>2024-11-29T14:23:29Z</time>
      </trkpt>
      <trkpt lat="45.90064" lon="1.26262">
        <ele>365.1</ele>
        <time>2024-11-29T14:23:30Z</time>
      </trkpt>
      <trkpt lat="45.9006" lon="1.26255">
        <ele>365.1</ele>
        <time>2024-11-29T14:23:31Z</time>
      </trkpt>
      <trkpt lat="45.90057" lon="1.26248">
        <ele>365.2</ele>
        <time>2024-11-29T14:23:32Z</time>
      </trkpt>
      <trkpt lat="45.90053" lon="1.26241">
        <ele>365.2</ele>
        <time>2024-11-29T14:23:33Z</time>
      </trkpt>
      <trkpt lat="45.90049" lon="1.26234">
        <ele>365.2</ele>
        <time>2024-11-29T14:23:34Z</time>
      </trkpt>
      <trkpt lat="45.90045" lon="1.26227">
        <ele>365.3</ele>
        <time>2024-11-29T14:23:35Z</time>
      </trkpt>
      <trkpt lat="45.90042" lon="1.2622">
        <ele>365.3</ele>
        <time>2024-11-29T14:23:36Z</time>
      </trkpt>
      <trkpt lat="45.90038" lon="1.26213">
        <ele>365.3</ele>
        <time>2024-11-29T14:23:37Z</time>
      </trkpt>
      <trkpt lat="45.90034" lon="1.26205">
        <ele>365.4</ele>
        <time>2024-11-29T14:23:38Z</time>
      </trkpt>
      <trkpt lat="45.9003" lon="1.26198">
        <ele>365.5</ele>
        <time>2024-11-29T14:23:39Z</time>
      </trkpt>
      <trkpt lat="45.90026" lon="1.26191">
        <ele>365.6</ele>
        <time>2024-11-29T14:23:40Z</time>
      </trkpt>
      <trkpt lat="45.90023" lon="1.26184">
        <ele>365.7</ele>
        <time>2024-11-29T14:23:41Z</time>
      </trkpt>
      <trkpt lat="45.90019" lon="1.26177">
        <ele>365.9</ele>
        <time>2024-11-29T14:23:42Z</time>
      </trkpt>
      <trkpt lat="45.90015" lon="1.26171">
        <ele>366</ele>
        <time>2024-11-29T14:23:43Z</time>
      </trkpt>
      <trkpt lat="45.9001" lon="1.26167">
        <ele>366.1</ele>
        <time>2024-11-29T14:23:44Z</time>
      </trkpt>
      <trkpt lat="45.90004" lon="1.26166">
        <ele>366.2</ele>
        <time>2024-11-29T14:23:45Z</time>
      </trkpt>
      <trkpt lat="45.89999" lon="1.26168">
        <ele>366.2</ele>
        <time>2024-11-29T14:23:46Z</time>
      </trkpt>
      <trkpt lat="45.89994" lon="1.26172">
        <ele>366.2</ele>
        <time>2024-11-29T14:23:47Z</time>
      </trkpt>
      <trkpt lat="45.89989" lon="1.26177">
        <ele>366.1</ele>
        <time>2024-11-29T14:23:48Z</time>
      </trkpt>
      <trkpt lat="45.89985" lon="1.26183">
        <ele>366.1</ele>
        <time>2024-11-29T14:23:49Z</time>
      </trkpt>
      <trkpt lat="45.8998" lon="1.26188">
        <ele>366.1</ele>
        <time>2024-11-29T14:23:50Z</time>
      </trkpt>
      <trkpt lat="45.89974" lon="1.26193">
        <ele>366.1</ele>
        <time>2024-11-29T14:23:51Z</time>
      </trkpt>
      <trkpt lat="45.89969" lon="1.26198">
        <ele>366.2</ele>
        <time>2024-11-29T14:23:52Z</time>
      </trkpt>
      <trkpt lat="45.89964" lon="1.26203">
        <ele>366.3</ele>
        <time>2024-11-29T14:23:53Z</time>
      </trkpt>
      <trkpt lat="45.89958" lon="1.26205">
        <ele>366.4</ele>
        <time>2024-11-29T14:23:54Z</time>
      </trkpt>
      <trkpt lat="45.89953" lon="1.26205">
        <ele>366.5</ele>
        <time>2024-11-29T14:23:55Z</time>
      </trkpt>
      <trkpt lat="45.89947" lon="1.26203">
        <ele>366.8</ele>
        <time>2024-11-29T14:23:56Z</time>
      </trkpt>
      <trkpt lat="45.89942" lon="1.26201">
        <ele>367</ele>
        <time>2024-11-29T14:23:57Z</time>
      </trkpt>
      <trkpt lat="45.89937" lon="1.26198">
        <ele>367.3</ele>
        <time>2024-11-29T14:23:58Z</time>
      </trkpt>
      <trkpt lat="45.89932" lon="1.26196">
        <ele>367.6</ele>
        <time>2024-11-29T14:23:59Z</time>
      </trkpt>
      <trkpt lat="45.89927" lon="1.26193">
        <ele>367.9</ele>
        <time>2024-11-29T14:24:00Z</time>
      </trkpt>
      <trkpt lat="45.89922" lon="1.26191">
        <ele>368.2</ele>
        <time>2024-11-29T14:24:01Z</time>
      </trkpt>
      <trkpt lat="45.89917" lon="1.26188">
        <ele>368.5</ele>
        <time>2024-11-29T14:24:02Z</time>
      </trkpt>
      <trkpt lat="45.89911" lon="1.26185">
        <ele>368.9</ele>
        <time>2024-11-29T14:24:03Z</time>
      </trkpt>
      <trkpt lat="45.89906" lon="1.26181">
        <ele>369.2</ele>
        <time>2024-11-29T14:24:04Z</time>
      </trkpt>
      <trkpt lat="45.89901" lon="1.26178">
        <ele>369.5</ele>
        <time>2024-11-29T14:24:05Z</time>
      </trkpt>
      <trkpt lat="45.89895" lon="1.26175">
        <ele>369.8</ele>
        <time>2024-11-29T14:24:06Z</time>
      </trkpt>
      <trkpt lat="45.8989" lon="1.26173">
        <ele>370</ele>
        <time>2024-11-29T14:24:07Z</time>
      </trkpt>
      <trkpt lat="45.89885" lon="1.26171">
        <ele>370.2</ele>
        <time>2024-11-29T14:24:08Z</time>
      </trkpt>
      <trkpt lat="45.89879" lon="1.26168">
        <ele>370.4</ele>
        <time>2024-11-29T14:24:09Z</time>
      </trkpt>
      <trkpt lat="45.89873" lon="1.26165">
        <ele>370.6</ele>
        <time>2024-11-29T14:24:10Z</time>
      </trkpt>
      <trkpt lat="45.89868" lon="1.26162">
        <ele>370.8</ele>
        <time>2024-11-29T14:24:11Z</time>
      </trkpt>
      <trkpt lat="45.89862" lon="1.26159">
        <ele>371</ele>
        <time>2024-11-29T14:24:12Z</time>
      </trkpt>
      <trkpt lat="45.89857" lon="1.26155">
        <ele>371.2</ele>
        <time>2024-11-29T14:24:13Z</time>
      </trkpt>
      <trkpt lat="45.89852" lon="1.2615">
        <ele>371.4</ele>
        <time>2024-11-29T14:24:14Z</time>
      </trkpt>
      <trkpt lat="45.89848" lon="1.26144">
        <ele>371.5</ele>
        <time>2024-11-29T14:24:15Z</time>
      </trkpt>
      <trkpt lat="45.89846" lon="1.26137">
        <ele>371.7</ele>
        <time>2024-11-29T14:24:16Z</time>
      </trkpt>
      <trkpt lat="45.89843" lon="1.26129">
        <ele>371.9</ele>
        <time>2024-11-29T14:24:17Z</time>
      </trkpt>
      <trkpt lat="45.8984" lon="1.26122">
        <ele>372.1</ele>
        <time>2024-11-29T14:24:18Z</time>
      </trkpt>
      <trkpt lat="45.89836" lon="1.26117">
        <ele>372.2</ele>
        <time>2024-11-29T14:24:19Z</time>
      </trkpt>
      <trkpt lat="45.89831" lon="1.26112">
        <ele>372.3</ele>
        <time>2024-11-29T14:24:20Z</time>
      </trkpt>
      <trkpt lat="45.89826" lon="1.26106">
        <ele>372.4</ele>
        <time>2024-11-29T14:24:21Z</time>
      </trkpt>
      <trkpt lat="45.89821" lon="1.261">
        <ele>372.5</ele>
        <time>2024-11-29T14:24:22Z</time>
      </trkpt>
      <trkpt lat="45.89819" lon="1.26092">
        <ele>372.7</ele>
        <time>2024-11-29T14:24:23Z</time>
      </trkpt>
      <trkpt lat="45.89817" lon="1.26084">
        <ele>372.9</ele>
        <time>2024-11-29T14:24:24Z</time>
      </trkpt>
      <trkpt lat="45.89815" lon="1.26076">
        <ele>373.2</ele>
        <time>2024-11-29T14:24:25Z</time>
      </trkpt>
      <trkpt lat="45.89813" lon="1.26068">
        <ele>373.3</ele>
        <time>2024-11-29T14:24:26Z</time>
      </trkpt>
      <trkpt lat="45.89811" lon="1.26061">
        <ele>373.5</ele>
        <time>2024-11-29T14:24:27Z</time>
      </trkpt>
      <trkpt lat="45.8981" lon="1.26055">
        <ele>373.7</ele>
        <time>2024-11-29T14:24:28Z</time>
      </trkpt>
      <trkpt lat="45.89809" lon="1.26051">
        <ele>373.8</ele>
        <time>2024-11-29T14:24:29Z</time>
      </trkpt>
      <trkpt lat="45.89809" lon="1.26047">
        <ele>373.9</ele>
        <time>2024-11-29T14:24:30Z</time>
      </trkpt>
      <trkpt lat="45.89811" lon="1.26046">
        <ele>373.9</ele>
        <time>2024-11-29T14:24:57Z</time>
      </trkpt>
      <trkpt lat="45.8981" lon="1.26044">
        <ele>374</ele>
        <time>2024-11-29T14:25:19Z</time>
      </trkpt>
      <trkpt lat="45.8981" lon="1.26045">
        <ele>374</ele>
        <time>2024-11-29T14:26:20Z</time>
      </trkpt>
      <trkpt lat="45.89811" lon="1.26043">
        <ele>374.1</ele>
        <time>2024-11-29T14:27:01Z</time>
      </trkpt>
      <trkpt lat="45.89812" lon="1.2604">
        <ele>374.1</ele>
        <time>2024-11-29T14:27:03Z</time>
      </trkpt>
      <trkpt lat="45.89813" lon="1.26036">
        <ele>374.2</ele>
        <time>2024-11-29T14:27:05Z</time>
      </trkpt>
      <trkpt lat="45.89812" lon="1.26032">
        <ele>374.3</ele>
        <time>2024-11-29T14:27:07Z</time>
      </trkpt>
      <trkpt lat="45.89812" lon="1.26027">
        <ele>374.3</ele>
        <time>2024-11-29T14:27:12Z</time>
      </trkpt>
      <trkpt lat="45.8981" lon="1.26025">
        <ele>374.4</ele>
        <time>2024-11-29T14:28:50Z</time>
      </trkpt>
      <trkpt lat="45.89809" lon="1.26022">
        <ele>374.5</ele>
        <time>2024-11-29T14:28:52Z</time>
      </trkpt>
      <trkpt lat="45.89809" lon="1.26016">
        <ele>374.6</ele>
        <time>2024-11-29T14:28:54Z</time>
      </trkpt>
      <trkpt lat="45.8981" lon="1.2601">
        <ele>374.7</ele>
        <time>2024-11-29T14:28:55Z</time>
      </trkpt>
      <trkpt lat="45.8981" lon="1.26005">
        <ele>374.8</ele>
        <time>2024-11-29T14:28:56Z</time>
      </trkpt>
      <trkpt lat="45.8981" lon="1.26">
        <ele>374.9</ele>
        <time>2024-11-29T14:28:57Z</time>
      </trkpt>
      <trkpt lat="45.8981" lon="1.25995">
        <ele>375</ele>
        <time>2024-11-29T14:28:58Z</time>
      </trkpt>
      <trkpt lat="45.89809" lon="1.2599">
        <ele>375.1</ele>
        <time>2024-11-29T14:28:59Z</time>
      </trkpt>
      <trkpt lat="45.89808" lon="1.25986">
        <ele>375.3</ele>
        <time>2024-11-29T14:29:00Z</time>
      </trkpt>
      <trkpt lat="45.89808" lon="1.25981">
        <ele>375.4</ele>
        <time>2024-11-29T14:29:01Z</time>
      </trkpt>
      <trkpt lat="45.89807" lon="1.25976">
        <ele>375.5</ele>
        <time>2024-11-29T14:29:02Z</time>
      </trkpt>
      <trkpt lat="45.89806" lon="1.25971">
        <ele>375.7</ele>
        <time>2024-11-29T14:29:03Z</time>
      </trkpt>
      <trkpt lat="45.89804" lon="1.25967">
        <ele>375.8</ele>
        <time>2024-11-29T14:29:04Z</time>
      </trkpt>
      <trkpt lat="45.89802" lon="1.25962">
        <ele>375.9</ele>
        <time>2024-11-29T14:29:05Z</time>
      </trkpt>
      <trkpt lat="45.898" lon="1.25958">
        <ele>376.1</ele>
        <time>2024-11-29T14:29:06Z</time>
      </trkpt>
      <trkpt lat="45.89798" lon="1.25954">
        <ele>376.2</ele>
        <time>2024-11-29T14:29:07Z</time>
      </trkpt>
      <trkpt lat="45.89795" lon="1.25949">
        <ele>376.4</ele>
        <time>2024-11-29T14:29:08Z</time>
      </trkpt>
      <trkpt lat="45.89793" lon="1.25945">
        <ele>376.5</ele>
        <time>2024-11-29T14:29:09Z</time>
      </trkpt>
      <trkpt lat="45.8979" lon="1.2594">
        <ele>376.7</ele>
        <time>2024-11-29T14:29:10Z</time>
      </trkpt>
      <trkpt lat="45.89788" lon="1.25936">
        <ele>376.8</ele>
        <time>2024-11-29T14:29:11Z</time>
      </trkpt>
      <trkpt lat="45.89786" lon="1.25931">
        <ele>377</ele>
        <time>2024-11-29T14:29:12Z</time>
      </trkpt>
      <trkpt lat="45.89785" lon="1.25927">
        <ele>377.1</ele>
        <time>2024-11-29T14:29:13Z</time>
      </trkpt>
      <trkpt lat="45.89783" lon="1.25923">
        <ele>377.4</ele>
        <time>2024-11-29T14:29:14Z</time>
      </trkpt>
      <trkpt lat="45.89779" lon="1.25921">
        <ele>377.4</ele>
        <time>2024-11-29T14:29:16Z</time>
      </trkpt>
      <trkpt lat="45.89776" lon="1.25922">
        <ele>377.5</ele>
        <time>2024-11-29T14:29:17Z</time>
      </trkpt>
      <trkpt lat="45.89772" lon="1.25923">
        <ele>377.5</ele>
        <time>2024-11-29T14:29:18Z</time>
      </trkpt>
      <trkpt lat="45.89768" lon="1.25923">
        <ele>377.6</ele>
        <time>2024-11-29T14:29:19Z</time>
      </trkpt>
      <trkpt lat="45.89764" lon="1.25923">
        <ele>377.6</ele>
        <time>2024-11-29T14:29:20Z</time>
      </trkpt>
      <trkpt lat="45.8976" lon="1.25922">
        <ele>377.7</ele>
        <time>2024-11-29T14:29:21Z</time>
      </trkpt>
      <trkpt lat="45.89755" lon="1.25922">
        <ele>377.8</ele>
        <time>2024-11-29T14:29:22Z</time>
      </trkpt>
      <trkpt lat="45.89751" lon="1.25921">
        <ele>377.9</ele>
        <time>2024-11-29T14:29:23Z</time>
      </trkpt>
      <trkpt lat="45.89746" lon="1.2592">
        <ele>378.1</ele>
        <time>2024-11-29T14:29:24Z</time>
      </trkpt>
      <trkpt lat="45.89742" lon="1.25919">
        <ele>378.2</ele>
        <time>2024-11-29T14:29:25Z</time>
      </trkpt>
      <trkpt lat="45.89738" lon="1.25918">
        <ele>378.4</ele>
        <time>2024-11-29T14:29:26Z</time>
      </trkpt>
      <trkpt lat="45.89734" lon="1.25917">
        <ele>378.6</ele>
        <time>2024-11-29T14:29:27Z</time>
      </trkpt>
      <trkpt lat="45.8973" lon="1.25916">
        <ele>378.8</ele>
        <time>2024-11-29T14:29:28Z</time>
      </trkpt>
      <trkpt lat="45.89726" lon="1.25915">
        <ele>379</ele>
        <time>2024-11-29T14:29:29Z</time>
      </trkpt>
      <trkpt lat="45.89722" lon="1.25914">
        <ele>379.3</ele>
        <time>2024-11-29T14:29:30Z</time>
      </trkpt>
      <trkpt lat="45.89718" lon="1.25912">
        <ele>379.5</ele>
        <time>2024-11-29T14:29:31Z</time>
      </trkpt>
      <trkpt lat="45.89715" lon="1.25911">
        <ele>379.7</ele>
        <time>2024-11-29T14:29:32Z</time>
      </trkpt>
      <trkpt lat="45.89711" lon="1.25909">
        <ele>379.9</ele>
        <time>2024-11-29T14:29:33Z</time>
      </trkpt>
      <trkpt lat="45.89708" lon="1.25908">
        <ele>380</ele>
        <time>2024-11-29T14:29:34Z</time>
      </trkpt>
      <trkpt lat="45.89704" lon="1.25906">
        <ele>380.2</ele>
        <time>2024-11-29T14:29:35Z</time>
      </trkpt>
      <trkpt lat="45.897" lon="1.25906">
        <ele>380.4</ele>
        <time>2024-11-29T14:29:36Z</time>
      </trkpt>
      <trkpt lat="45.89695" lon="1.25904">
        <ele>380.6</ele>
        <time>2024-11-29T14:29:37Z</time>
      </trkpt>
      <trkpt lat="45.89691" lon="1.25903">
        <ele>380.8</ele>
        <time>2024-11-29T14:29:38Z</time>
      </trkpt>
      <trkpt lat="45.89686" lon="1.25902">
        <ele>380.9</ele>
        <time>2024-11-29T14:29:39Z</time>
      </trkpt>
      <trkpt lat="45.89682" lon="1.25902">
        <ele>381.1</ele>
        <time>2024-11-29T14:29:40Z</time>
      </trkpt>
      <trkpt lat="45.89677" lon="1.25902">
        <ele>381.2</ele>
        <time>2024-11-29T14:29:41Z</time>
      </trkpt>
      <trkpt lat="45.89672" lon="1.25902">
        <ele>381.3</ele>
        <time>2024-11-29T14:29:42Z</time>
      </trkpt>
      <trkpt lat="45.89668" lon="1.25902">
        <ele>381.3</ele>
        <time>2024-11-29T14:29:43Z</time>
      </trkpt>
      <trkpt lat="45.89664" lon="1.25903">
        <ele>381.3</ele>
        <time>2024-11-29T14:29:44Z</time>
      </trkpt>
      <trkpt lat="45.89659" lon="1.25904">
        <ele>381.3</ele>
        <time>2024-11-29T14:29:45Z</time>
      </trkpt>
      <trkpt lat="45.89654" lon="1.25905">
        <ele>381.3</ele>
        <time>2024-11-29T14:29:46Z</time>
      </trkpt>
      <trkpt lat="45.89649" lon="1.25906">
        <ele>381.2</ele>
        <time>2024-11-29T14:29:47Z</time>
      </trkpt>
      <trkpt lat="45.89642" lon="1.25907">
        <ele>381.2</ele>
        <time>2024-11-29T14:29:49Z</time>
      </trkpt>
      <trkpt lat="45.89637" lon="1.25908">
        <ele>381.2</ele>
        <time>2024-11-29T14:29:50Z</time>
      </trkpt>
      <trkpt lat="45.89633" lon="1.25909">
        <ele>381.2</ele>
        <time>2024-11-29T14:29:51Z</time>
      </trkpt>
      <trkpt lat="45.89629" lon="1.25911">
        <ele>381.1</ele>
        <time>2024-11-29T14:29:52Z</time>
      </trkpt>
      <trkpt lat="45.89625" lon="1.25911">
        <ele>381.1</ele>
        <time>2024-11-29T14:29:53Z</time>
      </trkpt>
      <trkpt lat="45.89621" lon="1.25912">
        <ele>381.1</ele>
        <time>2024-11-29T14:29:54Z</time>
      </trkpt>
      <trkpt lat="45.89617" lon="1.25913">
        <ele>381.1</ele>
        <time>2024-11-29T14:29:55Z</time>
      </trkpt>
      <trkpt lat="45.89613" lon="1.25914">
        <ele>381.1</ele>
        <time>2024-11-29T14:29:56Z</time>
      </trkpt>
      <trkpt lat="45.89608" lon="1.25916">
        <ele>381</ele>
        <time>2024-11-29T14:29:57Z</time>
      </trkpt>
      <trkpt lat="45.89604" lon="1.25917">
        <ele>381</ele>
        <time>2024-11-29T14:29:58Z</time>
      </trkpt>
      <trkpt lat="45.896" lon="1.25919">
        <ele>380.9</ele>
        <time>2024-11-29T14:29:59Z</time>
      </trkpt>
      <trkpt lat="45.89596" lon="1.2592">
        <ele>380.9</ele>
        <time>2024-11-29T14:30:00Z</time>
      </trkpt>
      <trkpt lat="45.89592" lon="1.25921">
        <ele>380.8</ele>
        <time>2024-11-29T14:30:01Z</time>
      </trkpt>
      <trkpt lat="45.89588" lon="1.25923">
        <ele>380.8</ele>
        <time>2024-11-29T14:30:02Z</time>
      </trkpt>
      <trkpt lat="45.89583" lon="1.25925">
        <ele>380.7</ele>
        <time>2024-11-29T14:30:03Z</time>
      </trkpt>
      <trkpt lat="45.89578" lon="1.25928">
        <ele>380.7</ele>
        <time>2024-11-29T14:30:04Z</time>
      </trkpt>
      <trkpt lat="45.89574" lon="1.2593">
        <ele>380.6</ele>
        <time>2024-11-29T14:30:05Z</time>
      </trkpt>
      <trkpt lat="45.89569" lon="1.25931">
        <ele>380.6</ele>
        <time>2024-11-29T14:30:06Z</time>
      </trkpt>
      <trkpt lat="45.89564" lon="1.25933">
        <ele>380.5</ele>
        <time>2024-11-29T14:30:07Z</time>
      </trkpt>
      <trkpt lat="45.89559" lon="1.25936">
        <ele>380.4</ele>
        <time>2024-11-29T14:30:08Z</time>
      </trkpt>
      <trkpt lat="45.89555" lon="1.25938">
        <ele>380.3</ele>
        <time>2024-11-29T14:30:09Z</time>
      </trkpt>
      <trkpt lat="45.89551" lon="1.25941">
        <ele>380.1</ele>
        <time>2024-11-29T14:30:10Z</time>
      </trkpt>
      <trkpt lat="45.89547" lon="1.25944">
        <ele>380</ele>
        <time>2024-11-29T14:30:11Z</time>
      </trkpt>
      <trkpt lat="45.89544" lon="1.25947">
        <ele>379.8</ele>
        <time>2024-11-29T14:30:12Z</time>
      </trkpt>
      <trkpt lat="45.89541" lon="1.2595">
        <ele>379.7</ele>
        <time>2024-11-29T14:30:13Z</time>
      </trkpt>
      <trkpt lat="45.89537" lon="1.25955">
        <ele>379.4</ele>
        <time>2024-11-29T14:30:14Z</time>
      </trkpt>
      <trkpt lat="45.89533" lon="1.2596">
        <ele>379.2</ele>
        <time>2024-11-29T14:30:15Z</time>
      </trkpt>
      <trkpt lat="45.89531" lon="1.25966">
        <ele>378.9</ele>
        <time>2024-11-29T14:30:16Z</time>
      </trkpt>
      <trkpt lat="45.89528" lon="1.25973">
        <ele>378.6</ele>
        <time>2024-11-29T14:30:17Z</time>
      </trkpt>
      <trkpt lat="45.89526" lon="1.25979">
        <ele>378.2</ele>
        <time>2024-11-29T14:30:18Z</time>
      </trkpt>
      <trkpt lat="45.89523" lon="1.25986">
        <ele>377.7</ele>
        <time>2024-11-29T14:30:19Z</time>
      </trkpt>
      <trkpt lat="45.89521" lon="1.25993">
        <ele>377.3</ele>
        <time>2024-11-29T14:30:20Z</time>
      </trkpt>
      <trkpt lat="45.89518" lon="1.26">
        <ele>376.9</ele>
        <time>2024-11-29T14:30:21Z</time>
      </trkpt>
      <trkpt lat="45.89516" lon="1.26009">
        <ele>376.4</ele>
        <time>2024-11-29T14:30:22Z</time>
      </trkpt>
      <trkpt lat="45.89514" lon="1.26017">
        <ele>375.9</ele>
        <time>2024-11-29T14:30:23Z</time>
      </trkpt>
      <trkpt lat="45.89512" lon="1.26027">
        <ele>375.4</ele>
        <time>2024-11-29T14:30:24Z</time>
      </trkpt>
      <trkpt lat="45.89511" lon="1.26036">
        <ele>375.1</ele>
        <time>2024-11-29T14:30:25Z</time>
      </trkpt>
      <trkpt lat="45.89509" lon="1.26046">
        <ele>374.7</ele>
        <time>2024-11-29T14:30:26Z</time>
      </trkpt>
      <trkpt lat="45.89507" lon="1.26056">
        <ele>374.4</ele>
        <time>2024-11-29T14:30:27Z</time>
      </trkpt>
      <trkpt lat="45.89505" lon="1.26067">
        <ele>373.9</ele>
        <time>2024-11-29T14:30:28Z</time>
      </trkpt>
      <trkpt lat="45.89503" lon="1.26077">
        <ele>373.4</ele>
        <time>2024-11-29T14:30:29Z</time>
      </trkpt>
      <trkpt lat="45.89501" lon="1.26087">
        <ele>372.9</ele>
        <time>2024-11-29T14:30:30Z</time>
      </trkpt>
      <trkpt lat="45.89499" lon="1.26097">
        <ele>372.4</ele>
        <time>2024-11-29T14:30:31Z</time>
      </trkpt>
      <trkpt lat="45.89498" lon="1.26108">
        <ele>371.9</ele>
        <time>2024-11-29T14:30:32Z</time>
      </trkpt>
      <trkpt lat="45.89497" lon="1.26119">
        <ele>371.4</ele>
        <time>2024-11-29T14:30:33Z</time>
      </trkpt>
      <trkpt lat="45.89497" lon="1.2613">
        <ele>371</ele>
        <time>2024-11-29T14:30:34Z</time>
      </trkpt>
      <trkpt lat="45.89496" lon="1.26141">
        <ele>370.5</ele>
        <time>2024-11-29T14:30:35Z</time>
      </trkpt>
      <trkpt lat="45.89497" lon="1.26152">
        <ele>370.1</ele>
        <time>2024-11-29T14:30:36Z</time>
      </trkpt>
      <trkpt lat="45.89497" lon="1.26163">
        <ele>369.8</ele>
        <time>2024-11-29T14:30:37Z</time>
      </trkpt>
      <trkpt lat="45.89497" lon="1.26173">
        <ele>369.5</ele>
        <time>2024-11-29T14:30:38Z</time>
      </trkpt>
      <trkpt lat="45.89498" lon="1.26184">
        <ele>369.1</ele>
        <time>2024-11-29T14:30:39Z</time>
      </trkpt>
      <trkpt lat="45.89498" lon="1.26194">
        <ele>368.9</ele>
        <time>2024-11-29T14:30:40Z</time>
      </trkpt>
      <trkpt lat="45.89498" lon="1.26203">
        <ele>368.6</ele>
        <time>2024-11-29T14:30:41Z</time>
      </trkpt>
      <trkpt lat="45.89499" lon="1.26212">
        <ele>368.5</ele>
        <time>2024-11-29T14:30:42Z</time>
      </trkpt>
      <trkpt lat="45.895" lon="1.26222">
        <ele>368.4</ele>
        <time>2024-11-29T14:30:43Z</time>
      </trkpt>
      <trkpt lat="45.895" lon="1.2623">
        <ele>368.3</ele>
        <time>2024-11-29T14:30:44Z</time>
      </trkpt>
      <trkpt lat="45.89501" lon="1.26237">
        <ele>368.3</ele>
        <time>2024-11-29T14:30:45Z</time>
      </trkpt>
      <trkpt lat="45.89501" lon="1.26244">
        <ele>368.3</ele>
        <time>2024-11-29T14:30:46Z</time>
      </trkpt>
      <trkpt lat="45.89501" lon="1.2625">
        <ele>368.3</ele>
        <time>2024-11-29T14:30:47Z</time>
      </trkpt>
      <trkpt lat="45.89501" lon="1.26256">
        <ele>368.2</ele>
        <time>2024-11-29T14:30:49Z</time>
      </trkpt>
      <trkpt lat="45.89497" lon="1.26261">
        <ele>368.2</ele>
        <time>2024-11-29T14:30:51Z</time>
      </trkpt>
      <trkpt lat="45.89494" lon="1.26265">
        <ele>368.2</ele>
        <time>2024-11-29T14:30:52Z</time>
      </trkpt>
      <trkpt lat="45.89491" lon="1.26268">
        <ele>368.1</ele>
        <time>2024-11-29T14:30:53Z</time>
      </trkpt>
      <trkpt lat="45.89488" lon="1.26273">
        <ele>368.1</ele>
        <time>2024-11-29T14:30:54Z</time>
      </trkpt>
      <trkpt lat="45.89485" lon="1.26278">
        <ele>368</ele>
        <time>2024-11-29T14:30:55Z</time>
      </trkpt>
      <trkpt lat="45.89481" lon="1.26284">
        <ele>367.9</ele>
        <time>2024-11-29T14:30:56Z</time>
      </trkpt>
      <trkpt lat="45.89478" lon="1.26291">
        <ele>367.8</ele>
        <time>2024-11-29T14:30:57Z</time>
      </trkpt>
      <trkpt lat="45.89476" lon="1.26298">
        <ele>367.7</ele>
        <time>2024-11-29T14:30:58Z</time>
      </trkpt>
      <trkpt lat="45.89474" lon="1.26306">
        <ele>367.7</ele>
        <time>2024-11-29T14:30:59Z</time>
      </trkpt>
      <trkpt lat="45.89472" lon="1.26315">
        <ele>367.6</ele>
        <time>2024-11-29T14:31:00Z</time>
      </trkpt>
      <trkpt lat="45.89471" lon="1.26323">
        <ele>367.5</ele>
        <time>2024-11-29T14:31:01Z</time>
      </trkpt>
      <trkpt lat="45.89469" lon="1.26331">
        <ele>367.5</ele>
        <time>2024-11-29T14:31:02Z</time>
      </trkpt>
      <trkpt lat="45.89468" lon="1.2634">
        <ele>367.4</ele>
        <time>2024-11-29T14:31:03Z</time>
      </trkpt>
      <trkpt lat="45.89466" lon="1.26348">
        <ele>367.4</ele>
        <time>2024-11-29T14:31:04Z</time>
      </trkpt>
      <trkpt lat="45.89464" lon="1.26356">
        <ele>367.3</ele>
        <time>2024-11-29T14:31:05Z</time>
      </trkpt>
      <trkpt lat="45.89462" lon="1.26364">
        <ele>367.3</ele>
        <time>2024-11-29T14:31:06Z</time>
      </trkpt>
      <trkpt lat="45.8946" lon="1.26373">
        <ele>367.2</ele>
        <time>2024-11-29T14:31:07Z</time>
      </trkpt>
      <trkpt lat="45.89458" lon="1.2638">
        <ele>367.2</ele>
        <time>2024-11-29T14:31:08Z</time>
      </trkpt>
      <trkpt lat="45.89455" lon="1.26386">
        <ele>367.1</ele>
        <time>2024-11-29T14:31:09Z</time>
      </trkpt>
      <trkpt lat="45.8945" lon="1.26389">
        <ele>366.9</ele>
        <time>2024-11-29T14:31:10Z</time>
      </trkpt>
      <trkpt lat="45.89446" lon="1.26389">
        <ele>366.8</ele>
        <time>2024-11-29T14:31:11Z</time>
      </trkpt>
      <trkpt lat="45.89441" lon="1.26387">
        <ele>366.7</ele>
        <time>2024-11-29T14:31:12Z</time>
      </trkpt>
      <trkpt lat="45.89436" lon="1.26384">
        <ele>366.6</ele>
        <time>2024-11-29T14:31:13Z</time>
      </trkpt>
      <trkpt lat="45.89431" lon="1.2638">
        <ele>366.5</ele>
        <time>2024-11-29T14:31:14Z</time>
      </trkpt>
      <trkpt lat="45.89426" lon="1.26376">
        <ele>366.4</ele>
        <time>2024-11-29T14:31:15Z</time>
      </trkpt>
      <trkpt lat="45.8942" lon="1.26373">
        <ele>366.3</ele>
        <time>2024-11-29T14:31:16Z</time>
      </trkpt>
      <trkpt lat="45.89415" lon="1.26373">
        <ele>366.3</ele>
        <time>2024-11-29T14:31:17Z</time>
      </trkpt>
      <trkpt lat="45.8941" lon="1.26375">
        <ele>366.2</ele>
        <time>2024-11-29T14:31:18Z</time>
      </trkpt>
      <trkpt lat="45.89405" lon="1.26379">
        <ele>366.1</ele>
        <time>2024-11-29T14:31:19Z</time>
      </trkpt>
      <trkpt lat="45.894" lon="1.26384">
        <ele>366.1</ele>
        <time>2024-11-29T14:31:20Z</time>
      </trkpt>
      <trkpt lat="45.89396" lon="1.26389">
        <ele>366.1</ele>
        <time>2024-11-29T14:31:21Z</time>
      </trkpt>
      <trkpt lat="45.89392" lon="1.26394">
        <ele>366.2</ele>
        <time>2024-11-29T14:31:22Z</time>
      </trkpt>
      <trkpt lat="45.89388" lon="1.264">
        <ele>366.2</ele>
        <time>2024-11-29T14:31:23Z</time>
      </trkpt>
      <trkpt lat="45.89384" lon="1.26406">
        <ele>366.3</ele>
        <time>2024-11-29T14:31:24Z</time>
      </trkpt>
      <trkpt lat="45.8938" lon="1.26412">
        <ele>366.4</ele>
        <time>2024-11-29T14:31:25Z</time>
      </trkpt>
      <trkpt lat="45.89377" lon="1.26418">
        <ele>366.6</ele>
        <time>2024-11-29T14:31:26Z</time>
      </trkpt>
      <trkpt lat="45.89373" lon="1.26423">
        <ele>366.7</ele>
        <time>2024-11-29T14:31:27Z</time>
      </trkpt>
      <trkpt lat="45.89369" lon="1.26428">
        <ele>366.8</ele>
        <time>2024-11-29T14:31:28Z</time>
      </trkpt>
      <trkpt lat="45.89365" lon="1.26433">
        <ele>367</ele>
        <time>2024-11-29T14:31:29Z</time>
      </trkpt>
      <trkpt lat="45.89361" lon="1.26437">
        <ele>367.2</ele>
        <time>2024-11-29T14:31:30Z</time>
      </trkpt>
      <trkpt lat="45.89358" lon="1.26441">
        <ele>367.4</ele>
        <time>2024-11-29T14:31:31Z</time>
      </trkpt>
      <trkpt lat="45.89354" lon="1.26445">
        <ele>367.5</ele>
        <time>2024-11-29T14:31:32Z</time>
      </trkpt>
      <trkpt lat="45.89351" lon="1.2645">
        <ele>367.6</ele>
        <time>2024-11-29T14:31:33Z</time>
      </trkpt>
      <trkpt lat="45.89346" lon="1.26455">
        <ele>367.6</ele>
        <time>2024-11-29T14:31:34Z</time>
      </trkpt>
      <trkpt lat="45.89341" lon="1.26458">
        <ele>367.5</ele>
        <time>2024-11-29T14:31:35Z</time>
      </trkpt>
      <trkpt lat="45.89336" lon="1.26463">
        <ele>367.2</ele>
        <time>2024-11-29T14:31:36Z</time>
      </trkpt>
      <trkpt lat="45.8933" lon="1.26467">
        <ele>366.9</ele>
        <time>2024-11-29T14:31:37Z</time>
      </trkpt>
      <trkpt lat="45.89325" lon="1.26472">
        <ele>366.6</ele>
        <time>2024-11-29T14:31:38Z</time>
      </trkpt>
      <trkpt lat="45.89319" lon="1.26477">
        <ele>366.2</ele>
        <time>2024-11-29T14:31:39Z</time>
      </trkpt>
      <trkpt lat="45.89313" lon="1.26482">
        <ele>365.8</ele>
        <time>2024-11-29T14:31:40Z</time>
      </trkpt>
      <trkpt lat="45.89307" lon="1.26486">
        <ele>365.5</ele>
        <time>2024-11-29T14:31:41Z</time>
      </trkpt>
      <trkpt lat="45.89301" lon="1.26491">
        <ele>365.1</ele>
        <time>2024-11-29T14:31:42Z</time>
      </trkpt>
      <trkpt lat="45.89295" lon="1.26495">
        <ele>364.7</ele>
        <time>2024-11-29T14:31:43Z</time>
      </trkpt>
      <trkpt lat="45.89289" lon="1.26499">
        <ele>364.4</ele>
        <time>2024-11-29T14:31:44Z</time>
      </trkpt>
      <trkpt lat="45.89282" lon="1.26503">
        <ele>364</ele>
        <time>2024-11-29T14:31:45Z</time>
      </trkpt>
      <trkpt lat="45.89275" lon="1.26508">
        <ele>363.6</ele>
        <time>2024-11-29T14:31:46Z</time>
      </trkpt>
      <trkpt lat="45.89268" lon="1.26512">
        <ele>363.2</ele>
        <time>2024-11-29T14:31:47Z</time>
      </trkpt>
      <trkpt lat="45.89262" lon="1.26517">
        <ele>362.8</ele>
        <time>2024-11-29T14:31:48Z</time>
      </trkpt>
      <trkpt lat="45.89255" lon="1.26523">
        <ele>362.4</ele>
        <time>2024-11-29T14:31:49Z</time>
      </trkpt>
      <trkpt lat="45.89248" lon="1.26528">
        <ele>362.1</ele>
        <time>2024-11-29T14:31:50Z</time>
      </trkpt>
      <trkpt lat="45.89241" lon="1.26533">
        <ele>361.8</ele>
        <time>2024-11-29T14:31:51Z</time>
      </trkpt>
      <trkpt lat="45.89234" lon="1.26539">
        <ele>361.6</ele>
        <time>2024-11-29T14:31:52Z</time>
      </trkpt>
      <trkpt lat="45.89226" lon="1.26543">
        <ele>361.4</ele>
        <time>2024-11-29T14:31:53Z</time>
      </trkpt>
      <trkpt lat="45.89219" lon="1.26548">
        <ele>361.2</ele>
        <time>2024-11-29T14:31:54Z</time>
      </trkpt>
      <trkpt lat="45.89213" lon="1.26553">
        <ele>361</ele>
        <time>2024-11-29T14:31:55Z</time>
      </trkpt>
      <trkpt lat="45.89207" lon="1.26558">
        <ele>360.8</ele>
        <time>2024-11-29T14:31:56Z</time>
      </trkpt>
      <trkpt lat="45.89201" lon="1.26563">
        <ele>360.5</ele>
        <time>2024-11-29T14:31:57Z</time>
      </trkpt>
      <trkpt lat="45.89195" lon="1.26568">
        <ele>360.1</ele>
        <time>2024-11-29T14:31:58Z</time>
      </trkpt>
      <trkpt lat="45.89189" lon="1.26573">
        <ele>359.7</ele>
        <time>2024-11-29T14:31:59Z</time>
      </trkpt>
      <trkpt lat="45.89183" lon="1.26578">
        <ele>359.3</ele>
        <time>2024-11-29T14:32:00Z</time>
      </trkpt>
      <trkpt lat="45.89177" lon="1.26583">
        <ele>358.9</ele>
        <time>2024-11-29T14:32:01Z</time>
      </trkpt>
      <trkpt lat="45.89171" lon="1.26587">
        <ele>358.4</ele>
        <time>2024-11-29T14:32:02Z</time>
      </trkpt>
      <trkpt lat="45.89164" lon="1.26592">
        <ele>357.8</ele>
        <time>2024-11-29T14:32:03Z</time>
      </trkpt>
      <trkpt lat="45.89158" lon="1.26596">
        <ele>357.3</ele>
        <time>2024-11-29T14:32:04Z</time>
      </trkpt>
      <trkpt lat="45.89152" lon="1.266">
        <ele>356.8</ele>
        <time>2024-11-29T14:32:05Z</time>
      </trkpt>
      <trkpt lat="45.89146" lon="1.26604">
        <ele>356.4</ele>
        <time>2024-11-29T14:32:06Z</time>
      </trkpt>
      <trkpt lat="45.8914" lon="1.26609">
        <ele>355.9</ele>
        <time>2024-11-29T14:32:07Z</time>
      </trkpt>
      <trkpt lat="45.89133" lon="1.26613">
        <ele>355.5</ele>
        <time>2024-11-29T14:32:08Z</time>
      </trkpt>
      <trkpt lat="45.89127" lon="1.26618">
        <ele>355.1</ele>
        <time>2024-11-29T14:32:09Z</time>
      </trkpt>
      <trkpt lat="45.8912" lon="1.26622">
        <ele>354.8</ele>
        <time>2024-11-29T14:32:10Z</time>
      </trkpt>
      <trkpt lat="45.89114" lon="1.26627">
        <ele>354.4</ele>
        <time>2024-11-29T14:32:11Z</time>
      </trkpt>
      <trkpt lat="45.89108" lon="1.26632">
        <ele>354.1</ele>
        <time>2024-11-29T14:32:12Z</time>
      </trkpt>
      <trkpt lat="45.89102" lon="1.26637">
        <ele>353.9</ele>
        <time>2024-11-29T14:32:13Z</time>
      </trkpt>
      <trkpt lat="45.89096" lon="1.26642">
        <ele>353.6</ele>
        <time>2024-11-29T14:32:14Z</time>
      </trkpt>
      <trkpt lat="45.8909" lon="1.26646">
        <ele>353.5</ele>
        <time>2024-11-29T14:32:15Z</time>
      </trkpt>
      <trkpt lat="45.89084" lon="1.2665">
        <ele>353.4</ele>
        <time>2024-11-29T14:32:16Z</time>
      </trkpt>
      <trkpt lat="45.8908" lon="1.26653">
        <ele>353.3</ele>
        <time>2024-11-29T14:32:17Z</time>
      </trkpt>
      <trkpt lat="45.89076" lon="1.26654">
        <ele>353.2</ele>
        <time>2024-11-29T14:32:18Z</time>
      </trkpt>
      <trkpt lat="45.89073" lon="1.26656">
        <ele>353.2</ele>
        <time>2024-11-29T14:32:19Z</time>
      </trkpt>
      <trkpt lat="45.89069" lon="1.2666">
        <ele>353.1</ele>
        <time>2024-11-29T14:32:21Z</time>
      </trkpt>
      <trkpt lat="45.89067" lon="1.26665">
        <ele>353</ele>
        <time>2024-11-29T14:32:22Z</time>
      </trkpt>
      <trkpt lat="45.89066" lon="1.2667">
        <ele>352.9</ele>
        <time>2024-11-29T14:32:23Z</time>
      </trkpt>
      <trkpt lat="45.89065" lon="1.26676">
        <ele>352.8</ele>
        <time>2024-11-29T14:32:24Z</time>
      </trkpt>
      <trkpt lat="45.89064" lon="1.26683">
        <ele>352.7</ele>
        <time>2024-11-29T14:32:25Z</time>
      </trkpt>
      <trkpt lat="45.89063" lon="1.2669">
        <ele>352.5</ele>
        <time>2024-11-29T14:32:26Z</time>
      </trkpt>
      <trkpt lat="45.89062" lon="1.26698">
        <ele>352.3</ele>
        <time>2024-11-29T14:32:27Z</time>
      </trkpt>
      <trkpt lat="45.89061" lon="1.26706">
        <ele>352.1</ele>
        <time>2024-11-29T14:32:28Z</time>
      </trkpt>
      <trkpt lat="45.8906" lon="1.26713">
        <ele>352</ele>
        <time>2024-11-29T14:32:29Z</time>
      </trkpt>
      <trkpt lat="45.8906" lon="1.26722">
        <ele>351.7</ele>
        <time>2024-11-29T14:32:30Z</time>
      </trkpt>
      <trkpt lat="45.89059" lon="1.26731">
        <ele>351.5</ele>
        <time>2024-11-29T14:32:31Z</time>
      </trkpt>
      <trkpt lat="45.89058" lon="1.26739">
        <ele>351.3</ele>
        <time>2024-11-29T14:32:32Z</time>
      </trkpt>
      <trkpt lat="45.89057" lon="1.26746">
        <ele>351.2</ele>
        <time>2024-11-29T14:32:33Z</time>
      </trkpt>
      <trkpt lat="45.89056" lon="1.26754">
        <ele>350.9</ele>
        <time>2024-11-29T14:32:34Z</time>
      </trkpt>
      <trkpt lat="45.89055" lon="1.26762">
        <ele>350.7</ele>
        <time>2024-11-29T14:32:35Z</time>
      </trkpt>
      <trkpt lat="45.89054" lon="1.26771">
        <ele>350.4</ele>
        <time>2024-11-29T14:32:36Z</time>
      </trkpt>
      <trkpt lat="45.89052" lon="1.2678">
        <ele>350.1</ele>
        <time>2024-11-29T14:32:37Z</time>
      </trkpt>
      <trkpt lat="45.8905" lon="1.26789">
        <ele>349.7</ele>
        <time>2024-11-29T14:32:38Z</time>
      </trkpt>
      <trkpt lat="45.89049" lon="1.26798">
        <ele>349.5</ele>
        <time>2024-11-29T14:32:39Z</time>
      </trkpt>
      <trkpt lat="45.89048" lon="1.26807">
        <ele>349.3</ele>
        <time>2024-11-29T14:32:40Z</time>
      </trkpt>
      <trkpt lat="45.89047" lon="1.26816">
        <ele>349.1</ele>
        <time>2024-11-29T14:32:41Z</time>
      </trkpt>
      <trkpt lat="45.89046" lon="1.26825">
        <ele>348.9</ele>
        <time>2024-11-29T14:32:42Z</time>
      </trkpt>
      <trkpt lat="45.89045" lon="1.26833">
        <ele>348.8</ele>
        <time>2024-11-29T14:32:43Z</time>
      </trkpt>
      <trkpt lat="45.89044" lon="1.26841">
        <ele>348.8</ele>
        <time>2024-11-29T14:32:44Z</time>
      </trkpt>
      <trkpt lat="45.89044" lon="1.26849">
        <ele>348.7</ele>
        <time>2024-11-29T14:32:45Z</time>
      </trkpt>
      <trkpt lat="45.89043" lon="1.26856">
        <ele>348.7</ele>
        <time>2024-11-29T14:32:46Z</time>
      </trkpt>
      <trkpt lat="45.89043" lon="1.26864">
        <ele>348.7</ele>
        <time>2024-11-29T14:32:47Z</time>
      </trkpt>
      <trkpt lat="45.89042" lon="1.26871">
        <ele>348.7</ele>
        <time>2024-11-29T14:32:48Z</time>
      </trkpt>
      <trkpt lat="45.89042" lon="1.26879">
        <ele>348.7</ele>
        <time>2024-11-29T14:32:49Z</time>
      </trkpt>
      <trkpt lat="45.89042" lon="1.26887">
        <ele>348.7</ele>
        <time>2024-11-29T14:32:50Z</time>
      </trkpt>
      <trkpt lat="45.89041" lon="1.26895">
        <ele>348.7</ele>
        <time>2024-11-29T14:32:51Z</time>
      </trkpt>
      <trkpt lat="45.89041" lon="1.26902">
        <ele>348.7</ele>
        <time>2024-11-29T14:32:52Z</time>
      </trkpt>
      <trkpt lat="45.8904" lon="1.2691">
        <ele>348.7</ele>
        <time>2024-11-29T14:32:53Z</time>
      </trkpt>
      <trkpt lat="45.8904" lon="1.26919">
        <ele>348.8</ele>
        <time>2024-11-29T14:32:54Z</time>
      </trkpt>
      <trkpt lat="45.8904" lon="1.26926">
        <ele>348.8</ele>
        <time>2024-11-29T14:32:55Z</time>
      </trkpt>
      <trkpt lat="45.8904" lon="1.26934">
        <ele>348.9</ele>
        <time>2024-11-29T14:32:56Z</time>
      </trkpt>
      <trkpt lat="45.8904" lon="1.26942">
        <ele>348.9</ele>
        <time>2024-11-29T14:32:57Z</time>
      </trkpt>
      <trkpt lat="45.89041" lon="1.2695">
        <ele>349</ele>
        <time>2024-11-29T14:32:58Z</time>
      </trkpt>
      <trkpt lat="45.89043" lon="1.26958">
        <ele>349.1</ele>
        <time>2024-11-29T14:32:59Z</time>
      </trkpt>
      <trkpt lat="45.89046" lon="1.26965">
        <ele>349.3</ele>
        <time>2024-11-29T14:33:00Z</time>
      </trkpt>
      <trkpt lat="45.8905" lon="1.26971">
        <ele>349.4</ele>
        <time>2024-11-29T14:33:01Z</time>
      </trkpt>
      <trkpt lat="45.89053" lon="1.26976">
        <ele>349.6</ele>
        <time>2024-11-29T14:33:02Z</time>
      </trkpt>
      <trkpt lat="45.89058" lon="1.2698">
        <ele>349.8</ele>
        <time>2024-11-29T14:33:03Z</time>
      </trkpt>
      <trkpt lat="45.89062" lon="1.26982">
        <ele>350</ele>
        <time>2024-11-29T14:33:04Z</time>
      </trkpt>
      <trkpt lat="45.89066" lon="1.26984">
        <ele>350.2</ele>
        <time>2024-11-29T14:33:05Z</time>
      </trkpt>
      <trkpt lat="45.8907" lon="1.26986">
        <ele>350.4</ele>
        <time>2024-11-29T14:33:06Z</time>
      </trkpt>
      <trkpt lat="45.89074" lon="1.26987">
        <ele>350.6</ele>
        <time>2024-11-29T14:33:07Z</time>
      </trkpt>
      <trkpt lat="45.89077" lon="1.26988">
        <ele>350.8</ele>
        <time>2024-11-29T14:33:08Z</time>
      </trkpt>
      <trkpt lat="45.89081" lon="1.26991">
        <ele>351.1</ele>
        <time>2024-11-29T14:33:10Z</time>
      </trkpt>
      <trkpt lat="45.89084" lon="1.26996">
        <ele>351.4</ele>
        <time>2024-11-29T14:33:12Z</time>
      </trkpt>
      <trkpt lat="45.89083" lon="1.27002">
        <ele>351.6</ele>
        <time>2024-11-29T14:33:14Z</time>
      </trkpt>
      <trkpt lat="45.89081" lon="1.27005">
        <ele>351.7</ele>
        <time>2024-11-29T14:33:15Z</time>
      </trkpt>
      <trkpt lat="45.89078" lon="1.27006">
        <ele>351.7</ele>
        <time>2024-11-29T14:33:16Z</time>
      </trkpt>
      <trkpt lat="45.89074" lon="1.27007">
        <ele>351.8</ele>
        <time>2024-11-29T14:33:17Z</time>
      </trkpt>
      <trkpt lat="45.8907" lon="1.27007">
        <ele>351.8</ele>
        <time>2024-11-29T14:33:18Z</time>
      </trkpt>
      <trkpt lat="45.89066" lon="1.27007">
        <ele>351.8</ele>
        <time>2024-11-29T14:33:19Z</time>
      </trkpt>
      <trkpt lat="45.89062" lon="1.27007">
        <ele>351.8</ele>
        <time>2024-11-29T14:33:20Z</time>
      </trkpt>
      <trkpt lat="45.89058" lon="1.27008">
        <ele>351.8</ele>
        <time>2024-11-29T14:33:21Z</time>
      </trkpt>
      <trkpt lat="45.89054" lon="1.27008">
        <ele>351.8</ele>
        <time>2024-11-29T14:33:22Z</time>
      </trkpt>
      <trkpt lat="45.89049" lon="1.27008">
        <ele>351.8</ele>
        <time>2024-11-29T14:33:23Z</time>
      </trkpt>
      <trkpt lat="45.89045" lon="1.27008">
        <ele>351.8</ele>
        <time>2024-11-29T14:33:24Z</time>
      </trkpt>
      <trkpt lat="45.89041" lon="1.27009">
        <ele>351.8</ele>
        <time>2024-11-29T14:33:25Z</time>
      </trkpt>
      <trkpt lat="45.89036" lon="1.27009">
        <ele>351.8</ele>
        <time>2024-11-29T14:33:26Z</time>
      </trkpt>
      <trkpt lat="45.89032" lon="1.27008">
        <ele>351.8</ele>
        <time>2024-11-29T14:33:27Z</time>
      </trkpt>
      <trkpt lat="45.89028" lon="1.27008">
        <ele>351.7</ele>
        <time>2024-11-29T14:33:28Z</time>
      </trkpt>
      <trkpt lat="45.89022" lon="1.27008">
        <ele>351.7</ele>
        <time>2024-11-29T14:33:29Z</time>
      </trkpt>
      <trkpt lat="45.89017" lon="1.27008">
        <ele>351.6</ele>
        <time>2024-11-29T14:33:30Z</time>
      </trkpt>
      <trkpt lat="45.89011" lon="1.27008">
        <ele>351.6</ele>
        <time>2024-11-29T14:33:31Z</time>
      </trkpt>
      <trkpt lat="45.89006" lon="1.27008">
        <ele>351.5</ele>
        <time>2024-11-29T14:33:32Z</time>
      </trkpt>
      <trkpt lat="45.89" lon="1.27008">
        <ele>351.3</ele>
        <time>2024-11-29T14:33:33Z</time>
      </trkpt>
      <trkpt lat="45.88994" lon="1.27007">
        <ele>351</ele>
        <time>2024-11-29T14:33:34Z</time>
      </trkpt>
      <trkpt lat="45.88988" lon="1.27007">
        <ele>350.7</ele>
        <time>2024-11-29T14:33:35Z</time>
      </trkpt>
      <trkpt lat="45.88982" lon="1.27008">
        <ele>350.4</ele>
        <time>2024-11-29T14:33:36Z</time>
      </trkpt>
      <trkpt lat="45.88975" lon="1.27008">
        <ele>349.9</ele>
        <time>2024-11-29T14:33:37Z</time>
      </trkpt>
      <trkpt lat="45.88968" lon="1.27008">
        <ele>349.5</ele>
        <time>2024-11-29T14:33:38Z</time>
      </trkpt>
      <trkpt lat="45.8896" lon="1.27008">
        <ele>348.9</ele>
        <time>2024-11-29T14:33:39Z</time>
      </trkpt>
      <trkpt lat="45.88952" lon="1.27007">
        <ele>348.4</ele>
        <time>2024-11-29T14:33:40Z</time>
      </trkpt>
      <trkpt lat="45.88945" lon="1.27006">
        <ele>347.9</ele>
        <time>2024-11-29T14:33:41Z</time>
      </trkpt>
      <trkpt lat="45.88937" lon="1.27004">
        <ele>347.4</ele>
        <time>2024-11-29T14:33:42Z</time>
      </trkpt>
      <trkpt lat="45.88929" lon="1.27001">
        <ele>346.8</ele>
        <time>2024-11-29T14:33:43Z</time>
      </trkpt>
      <trkpt lat="45.88922" lon="1.26998">
        <ele>346.3</ele>
        <time>2024-11-29T14:33:44Z</time>
      </trkpt>
      <trkpt lat="45.88915" lon="1.26994">
        <ele>345.8</ele>
        <time>2024-11-29T14:33:45Z</time>
      </trkpt>
      <trkpt lat="45.8891" lon="1.2699">
        <ele>345.4</ele>
        <time>2024-11-29T14:33:46Z</time>
      </trkpt>
      <trkpt lat="45.88905" lon="1.26987">
        <ele>345.1</ele>
        <time>2024-11-29T14:33:47Z</time>
      </trkpt>
      <trkpt lat="45.88899" lon="1.26984">
        <ele>344.7</ele>
        <time>2024-11-29T14:33:48Z</time>
      </trkpt>
      <trkpt lat="45.88894" lon="1.2698">
        <ele>344.5</ele>
        <time>2024-11-29T14:33:49Z</time>
      </trkpt>
      <trkpt lat="45.88887" lon="1.26977">
        <ele>344.1</ele>
        <time>2024-11-29T14:33:50Z</time>
      </trkpt>
      <trkpt lat="45.88882" lon="1.26972">
        <ele>343.9</ele>
        <time>2024-11-29T14:33:51Z</time>
      </trkpt>
      <trkpt lat="45.88876" lon="1.26967">
        <ele>343.8</ele>
        <time>2024-11-29T14:33:52Z</time>
      </trkpt>
      <trkpt lat="45.88871" lon="1.26962">
        <ele>343.7</ele>
        <time>2024-11-29T14:33:53Z</time>
      </trkpt>
      <trkpt lat="45.88865" lon="1.26957">
        <ele>343.6</ele>
        <time>2024-11-29T14:33:54Z</time>
      </trkpt>
      <trkpt lat="45.8886" lon="1.26952">
        <ele>343.6</ele>
        <time>2024-11-29T14:33:55Z</time>
      </trkpt>
      <trkpt lat="45.88854" lon="1.26947">
        <ele>343.5</ele>
        <time>2024-11-29T14:33:56Z</time>
      </trkpt>
      <trkpt lat="45.88849" lon="1.26943">
        <ele>343.4</ele>
        <time>2024-11-29T14:33:57Z</time>
      </trkpt>
      <trkpt lat="45.88843" lon="1.26938">
        <ele>343.3</ele>
        <time>2024-11-29T14:33:58Z</time>
      </trkpt>
      <trkpt lat="45.88837" lon="1.26933">
        <ele>343.3</ele>
        <time>2024-11-29T14:33:59Z</time>
      </trkpt>
      <trkpt lat="45.88832" lon="1.26928">
        <ele>343.2</ele>
        <time>2024-11-29T14:34:00Z</time>
      </trkpt>
      <trkpt lat="45.88826" lon="1.26923">
        <ele>343.2</ele>
        <time>2024-11-29T14:34:01Z</time>
      </trkpt>
      <trkpt lat="45.88821" lon="1.26918">
        <ele>343.2</ele>
        <time>2024-11-29T14:34:02Z</time>
      </trkpt>
      <trkpt lat="45.88815" lon="1.26912">
        <ele>343.1</ele>
        <time>2024-11-29T14:34:03Z</time>
      </trkpt>
      <trkpt lat="45.88809" lon="1.26907">
        <ele>343.1</ele>
        <time>2024-11-29T14:34:04Z</time>
      </trkpt>
      <trkpt lat="45.88804" lon="1.26902">
        <ele>343</ele>
        <time>2024-11-29T14:34:05Z</time>
      </trkpt>
      <trkpt lat="45.88798" lon="1.26896">
        <ele>342.9</ele>
        <time>2024-11-29T14:34:06Z</time>
      </trkpt>
      <trkpt lat="45.88792" lon="1.26891">
        <ele>342.8</ele>
        <time>2024-11-29T14:34:07Z</time>
      </trkpt>
      <trkpt lat="45.88787" lon="1.26886">
        <ele>342.6</ele>
        <time>2024-11-29T14:34:08Z</time>
      </trkpt>
      <trkpt lat="45.88781" lon="1.2688">
        <ele>342.4</ele>
        <time>2024-11-29T14:34:09Z</time>
      </trkpt>
      <trkpt lat="45.88776" lon="1.26874">
        <ele>342.2</ele>
        <time>2024-11-29T14:34:10Z</time>
      </trkpt>
      <trkpt lat="45.8877" lon="1.26868">
        <ele>341.9</ele>
        <time>2024-11-29T14:34:11Z</time>
      </trkpt>
      <trkpt lat="45.88765" lon="1.26861">
        <ele>341.7</ele>
        <time>2024-11-29T14:34:12Z</time>
      </trkpt>
      <trkpt lat="45.88759" lon="1.26855">
        <ele>341.4</ele>
        <time>2024-11-29T14:34:13Z</time>
      </trkpt>
      <trkpt lat="45.88752" lon="1.26848">
        <ele>341</ele>
        <time>2024-11-29T14:34:14Z</time>
      </trkpt>
      <trkpt lat="45.88746" lon="1.2684">
        <ele>340.6</ele>
        <time>2024-11-29T14:34:15Z</time>
      </trkpt>
      <trkpt lat="45.88739" lon="1.26833">
        <ele>340.3</ele>
        <time>2024-11-29T14:34:16Z</time>
      </trkpt>
      <trkpt lat="45.88733" lon="1.26825">
        <ele>339.9</ele>
        <time>2024-11-29T14:34:17Z</time>
      </trkpt>
      <trkpt lat="45.88726" lon="1.26818">
        <ele>339.4</ele>
        <time>2024-11-29T14:34:18Z</time>
      </trkpt>
      <trkpt lat="45.8872" lon="1.26809">
        <ele>339</ele>
        <time>2024-11-29T14:34:19Z</time>
      </trkpt>
      <trkpt lat="45.88714" lon="1.26801">
        <ele>338.6</ele>
        <time>2024-11-29T14:34:20Z</time>
      </trkpt>
      <trkpt lat="45.88708" lon="1.26791">
        <ele>338.1</ele>
        <time>2024-11-29T14:34:21Z</time>
      </trkpt>
      <trkpt lat="45.88703" lon="1.26781">
        <ele>337.7</ele>
        <time>2024-11-29T14:34:22Z</time>
      </trkpt>
      <trkpt lat="45.88698" lon="1.2677">
        <ele>337.3</ele>
        <time>2024-11-29T14:34:23Z</time>
      </trkpt>
      <trkpt lat="45.88694" lon="1.2676">
        <ele>336.9</ele>
        <time>2024-11-29T14:34:24Z</time>
      </trkpt>
      <trkpt lat="45.88689" lon="1.26749">
        <ele>336.5</ele>
        <time>2024-11-29T14:34:25Z</time>
      </trkpt>
      <trkpt lat="45.88684" lon="1.26739">
        <ele>336.2</ele>
        <time>2024-11-29T14:34:26Z</time>
      </trkpt>
      <trkpt lat="45.88679" lon="1.26729">
        <ele>335.7</ele>
        <time>2024-11-29T14:34:27Z</time>
      </trkpt>
      <trkpt lat="45.88674" lon="1.2672">
        <ele>335.4</ele>
        <time>2024-11-29T14:34:28Z</time>
      </trkpt>
      <trkpt lat="45.88667" lon="1.26712">
        <ele>335</ele>
        <time>2024-11-29T14:34:29Z</time>
      </trkpt>
      <trkpt lat="45.8866" lon="1.26706">
        <ele>334.7</ele>
        <time>2024-11-29T14:34:30Z</time>
      </trkpt>
      <trkpt lat="45.88652" lon="1.267">
        <ele>334.4</ele>
        <time>2024-11-29T14:34:31Z</time>
      </trkpt>
      <trkpt lat="45.88644" lon="1.26694">
        <ele>334.2</ele>
        <time>2024-11-29T14:34:32Z</time>
      </trkpt>
      <trkpt lat="45.88636" lon="1.26688">
        <ele>334.1</ele>
        <time>2024-11-29T14:34:33Z</time>
      </trkpt>
      <trkpt lat="45.88628" lon="1.26683">
        <ele>334.1</ele>
        <time>2024-11-29T14:34:34Z</time>
      </trkpt>
      <trkpt lat="45.8862" lon="1.26678">
        <ele>334.1</ele>
        <time>2024-11-29T14:34:35Z</time>
      </trkpt>
      <trkpt lat="45.88613" lon="1.26674">
        <ele>334.2</ele>
        <time>2024-11-29T14:34:36Z</time>
      </trkpt>
      <trkpt lat="45.88605" lon="1.2667">
        <ele>334.1</ele>
        <time>2024-11-29T14:34:37Z</time>
      </trkpt>
      <trkpt lat="45.88598" lon="1.26668">
        <ele>334.2</ele>
        <time>2024-11-29T14:34:38Z</time>
      </trkpt>
      <trkpt lat="45.88591" lon="1.26667">
        <ele>334.2</ele>
        <time>2024-11-29T14:34:39Z</time>
      </trkpt>
      <trkpt lat="45.88584" lon="1.26665">
        <ele>334.4</ele>
        <time>2024-11-29T14:34:40Z</time>
      </trkpt>
      <trkpt lat="45.88579" lon="1.26661">
        <ele>334.6</ele>
        <time>2024-11-29T14:34:41Z</time>
      </trkpt>
      <trkpt lat="45.88574" lon="1.26656">
        <ele>334.9</ele>
        <time>2024-11-29T14:34:42Z</time>
      </trkpt>
      <trkpt lat="45.88571" lon="1.2665">
        <ele>335.2</ele>
        <time>2024-11-29T14:34:43Z</time>
      </trkpt>
      <trkpt lat="45.88568" lon="1.26644">
        <ele>335.6</ele>
        <time>2024-11-29T14:34:44Z</time>
      </trkpt>
      <trkpt lat="45.88565" lon="1.26637">
        <ele>336</ele>
        <time>2024-11-29T14:34:45Z</time>
      </trkpt>
      <trkpt lat="45.88563" lon="1.26629">
        <ele>336.5</ele>
        <time>2024-11-29T14:34:46Z</time>
      </trkpt>
      <trkpt lat="45.8856" lon="1.26623">
        <ele>336.9</ele>
        <time>2024-11-29T14:34:47Z</time>
      </trkpt>
      <trkpt lat="45.88558" lon="1.26616">
        <ele>337.4</ele>
        <time>2024-11-29T14:34:48Z</time>
      </trkpt>
      <trkpt lat="45.88554" lon="1.2661">
        <ele>337.9</ele>
        <time>2024-11-29T14:34:49Z</time>
      </trkpt>
      <trkpt lat="45.88551" lon="1.26606">
        <ele>338.2</ele>
        <time>2024-11-29T14:34:50Z</time>
      </trkpt>
      <trkpt lat="45.88547" lon="1.26602">
        <ele>338.6</ele>
        <time>2024-11-29T14:34:51Z</time>
      </trkpt>
      <trkpt lat="45.88543" lon="1.26599">
        <ele>339</ele>
        <time>2024-11-29T14:34:52Z</time>
      </trkpt>
      <trkpt lat="45.88538" lon="1.26597">
        <ele>339.3</ele>
        <time>2024-11-29T14:34:53Z</time>
      </trkpt>
      <trkpt lat="45.88534" lon="1.26595">
        <ele>339.6</ele>
        <time>2024-11-29T14:34:54Z</time>
      </trkpt>
      <trkpt lat="45.88528" lon="1.26593">
        <ele>340</ele>
        <time>2024-11-29T14:34:55Z</time>
      </trkpt>
      <trkpt lat="45.88524" lon="1.26591">
        <ele>340.2</ele>
        <time>2024-11-29T14:34:56Z</time>
      </trkpt>
      <trkpt lat="45.88519" lon="1.26589">
        <ele>340.5</ele>
        <time>2024-11-29T14:34:57Z</time>
      </trkpt>
      <trkpt lat="45.88514" lon="1.26587">
        <ele>340.7</ele>
        <time>2024-11-29T14:34:58Z</time>
      </trkpt>
      <trkpt lat="45.88508" lon="1.26586">
        <ele>341</ele>
        <time>2024-11-29T14:34:59Z</time>
      </trkpt>
      <trkpt lat="45.88503" lon="1.26585">
        <ele>341.2</ele>
        <time>2024-11-29T14:35:00Z</time>
      </trkpt>
      <trkpt lat="45.88499" lon="1.26583">
        <ele>341.3</ele>
        <time>2024-11-29T14:35:01Z</time>
      </trkpt>
      <trkpt lat="45.88494" lon="1.26581">
        <ele>341.5</ele>
        <time>2024-11-29T14:35:02Z</time>
      </trkpt>
      <trkpt lat="45.88489" lon="1.26578">
        <ele>341.6</ele>
        <time>2024-11-29T14:35:03Z</time>
      </trkpt>
      <trkpt lat="45.88483" lon="1.26574">
        <ele>341.7</ele>
        <time>2024-11-29T14:35:04Z</time>
      </trkpt>
      <trkpt lat="45.88477" lon="1.2657">
        <ele>341.7</ele>
        <time>2024-11-29T14:35:05Z</time>
      </trkpt>
      <trkpt lat="45.88472" lon="1.26565">
        <ele>341.8</ele>
        <time>2024-11-29T14:35:06Z</time>
      </trkpt>
      <trkpt lat="45.88467" lon="1.26561">
        <ele>341.8</ele>
        <time>2024-11-29T14:35:07Z</time>
      </trkpt>
      <trkpt lat="45.88461" lon="1.26556">
        <ele>342</ele>
        <time>2024-11-29T14:35:08Z</time>
      </trkpt>
      <trkpt lat="45.88456" lon="1.26551">
        <ele>342.1</ele>
        <time>2024-11-29T14:35:09Z</time>
      </trkpt>
      <trkpt lat="45.8845" lon="1.26547">
        <ele>342.3</ele>
        <time>2024-11-29T14:35:10Z</time>
      </trkpt>
      <trkpt lat="45.88445" lon="1.26543">
        <ele>342.4</ele>
        <time>2024-11-29T14:35:11Z</time>
      </trkpt>
      <trkpt lat="45.8844" lon="1.26539">
        <ele>342.4</ele>
        <time>2024-11-29T14:35:12Z</time>
      </trkpt>
      <trkpt lat="45.88435" lon="1.26535">
        <ele>342.5</ele>
        <time>2024-11-29T14:35:13Z</time>
      </trkpt>
      <trkpt lat="45.88429" lon="1.26532">
        <ele>342.5</ele>
        <time>2024-11-29T14:35:14Z</time>
      </trkpt>
      <trkpt lat="45.88423" lon="1.26529">
        <ele>342.5</ele>
        <time>2024-11-29T14:35:15Z</time>
      </trkpt>
      <trkpt lat="45.88417" lon="1.26525">
        <ele>342.5</ele>
        <time>2024-11-29T14:35:16Z</time>
      </trkpt>
      <trkpt lat="45.88411" lon="1.26522">
        <ele>342.6</ele>
        <time>2024-11-29T14:35:17Z</time>
      </trkpt>
      <trkpt lat="45.88405" lon="1.26518">
        <ele>342.5</ele>
        <time>2024-11-29T14:35:18Z</time>
      </trkpt>
      <trkpt lat="45.88399" lon="1.26514">
        <ele>342.5</ele>
        <time>2024-11-29T14:35:19Z</time>
      </trkpt>
      <trkpt lat="45.88393" lon="1.2651">
        <ele>342.5</ele>
        <time>2024-11-29T14:35:20Z</time>
      </trkpt>
      <trkpt lat="45.88386" lon="1.26507">
        <ele>342.4</ele>
        <time>2024-11-29T14:35:21Z</time>
      </trkpt>
      <trkpt lat="45.88381" lon="1.26502">
        <ele>342.4</ele>
        <time>2024-11-29T14:35:22Z</time>
      </trkpt>
      <trkpt lat="45.88376" lon="1.26498">
        <ele>342.4</ele>
        <time>2024-11-29T14:35:23Z</time>
      </trkpt>
      <trkpt lat="45.88371" lon="1.26493">
        <ele>342.4</ele>
        <time>2024-11-29T14:35:24Z</time>
      </trkpt>
      <trkpt lat="45.88366" lon="1.26487">
        <ele>342.4</ele>
        <time>2024-11-29T14:35:25Z</time>
      </trkpt>
      <trkpt lat="45.8836" lon="1.26482">
        <ele>342.5</ele>
        <time>2024-11-29T14:35:26Z</time>
      </trkpt>
      <trkpt lat="45.88355" lon="1.26476">
        <ele>342.6</ele>
        <time>2024-11-29T14:35:27Z</time>
      </trkpt>
      <trkpt lat="45.88351" lon="1.26471">
        <ele>342.6</ele>
        <time>2024-11-29T14:35:28Z</time>
      </trkpt>
      <trkpt lat="45.88345" lon="1.26466">
        <ele>342.7</ele>
        <time>2024-11-29T14:35:29Z</time>
      </trkpt>
      <trkpt lat="45.88341" lon="1.2646">
        <ele>342.8</ele>
        <time>2024-11-29T14:35:30Z</time>
      </trkpt>
      <trkpt lat="45.88336" lon="1.26455">
        <ele>342.9</ele>
        <time>2024-11-29T14:35:31Z</time>
      </trkpt>
      <trkpt lat="45.88332" lon="1.26449">
        <ele>343</ele>
        <time>2024-11-29T14:35:32Z</time>
      </trkpt>
      <trkpt lat="45.88327" lon="1.26443">
        <ele>343.2</ele>
        <time>2024-11-29T14:35:33Z</time>
      </trkpt>
      <trkpt lat="45.88323" lon="1.26437">
        <ele>343.3</ele>
        <time>2024-11-29T14:35:34Z</time>
      </trkpt>
      <trkpt lat="45.8832" lon="1.2643">
        <ele>343.4</ele>
        <time>2024-11-29T14:35:35Z</time>
      </trkpt>
      <trkpt lat="45.88316" lon="1.26423">
        <ele>343.6</ele>
        <time>2024-11-29T14:35:36Z</time>
      </trkpt>
      <trkpt lat="45.88313" lon="1.26417">
        <ele>343.7</ele>
        <time>2024-11-29T14:35:37Z</time>
      </trkpt>
      <trkpt lat="45.88309" lon="1.2641">
        <ele>343.8</ele>
        <time>2024-11-29T14:35:38Z</time>
      </trkpt>
      <trkpt lat="45.88305" lon="1.26404">
        <ele>344</ele>
        <time>2024-11-29T14:35:39Z</time>
      </trkpt>
      <trkpt lat="45.88302" lon="1.26397">
        <ele>344.1</ele>
        <time>2024-11-29T14:35:40Z</time>
      </trkpt>
      <trkpt lat="45.88299" lon="1.26389">
        <ele>344.3</ele>
        <time>2024-11-29T14:35:41Z</time>
      </trkpt>
      <trkpt lat="45.88296" lon="1.26382">
        <ele>344.5</ele>
        <time>2024-11-29T14:35:42Z</time>
      </trkpt>
      <trkpt lat="45.88293" lon="1.26374">
        <ele>344.7</ele>
        <time>2024-11-29T14:35:43Z</time>
      </trkpt>
      <trkpt lat="45.88289" lon="1.26367">
        <ele>345</ele>
        <time>2024-11-29T14:35:44Z</time>
      </trkpt>
      <trkpt lat="45.88286" lon="1.2636">
        <ele>345.2</ele>
        <time>2024-11-29T14:35:45Z</time>
      </trkpt>
      <trkpt lat="45.88283" lon="1.26354">
        <ele>345.4</ele>
        <time>2024-11-29T14:35:46Z</time>
      </trkpt>
      <trkpt lat="45.88279" lon="1.26348">
        <ele>345.7</ele>
        <time>2024-11-29T14:35:47Z</time>
      </trkpt>
      <trkpt lat="45.88276" lon="1.26341">
        <ele>345.9</ele>
        <time>2024-11-29T14:35:48Z</time>
      </trkpt>
      <trkpt lat="45.88273" lon="1.26335">
        <ele>346.1</ele>
        <time>2024-11-29T14:35:49Z</time>
      </trkpt>
      <trkpt lat="45.8827" lon="1.26329">
        <ele>346.2</ele>
        <time>2024-11-29T14:35:50Z</time>
      </trkpt>
      <trkpt lat="45.88267" lon="1.26322">
        <ele>346.4</ele>
        <time>2024-11-29T14:35:51Z</time>
      </trkpt>
      <trkpt lat="45.88264" lon="1.26316">
        <ele>346.5</ele>
        <time>2024-11-29T14:35:52Z</time>
      </trkpt>
      <trkpt lat="45.88261" lon="1.2631">
        <ele>346.6</ele>
        <time>2024-11-29T14:35:53Z</time>
      </trkpt>
      <trkpt lat="45.88258" lon="1.26305">
        <ele>346.7</ele>
        <time>2024-11-29T14:35:54Z</time>
      </trkpt>
      <trkpt lat="45.88254" lon="1.26299">
        <ele>346.8</ele>
        <time>2024-11-29T14:35:55Z</time>
      </trkpt>
      <trkpt lat="45.88249" lon="1.26294">
        <ele>346.9</ele>
        <time>2024-11-29T14:35:56Z</time>
      </trkpt>
      <trkpt lat="45.88245" lon="1.26288">
        <ele>347</ele>
        <time>2024-11-29T14:35:57Z</time>
      </trkpt>
      <trkpt lat="45.88241" lon="1.26283">
        <ele>347.1</ele>
        <time>2024-11-29T14:35:58Z</time>
      </trkpt>
      <trkpt lat="45.88237" lon="1.26277">
        <ele>347.1</ele>
        <time>2024-11-29T14:35:59Z</time>
      </trkpt>
      <trkpt lat="45.88233" lon="1.26271">
        <ele>347.2</ele>
        <time>2024-11-29T14:36:00Z</time>
      </trkpt>
      <trkpt lat="45.88229" lon="1.26265">
        <ele>347.3</ele>
        <time>2024-11-29T14:36:01Z</time>
      </trkpt>
      <trkpt lat="45.88224" lon="1.2626">
        <ele>347.4</ele>
        <time>2024-11-29T14:36:02Z</time>
      </trkpt>
      <trkpt lat="45.8822" lon="1.26254">
        <ele>347.5</ele>
        <time>2024-11-29T14:36:03Z</time>
      </trkpt>
      <trkpt lat="45.88216" lon="1.26247">
        <ele>347.6</ele>
        <time>2024-11-29T14:36:04Z</time>
      </trkpt>
      <trkpt lat="45.88213" lon="1.26241">
        <ele>347.6</ele>
        <time>2024-11-29T14:36:05Z</time>
      </trkpt>
      <trkpt lat="45.88209" lon="1.26235">
        <ele>347.8</ele>
        <time>2024-11-29T14:36:06Z</time>
      </trkpt>
      <trkpt lat="45.88204" lon="1.26229">
        <ele>347.9</ele>
        <time>2024-11-29T14:36:07Z</time>
      </trkpt>
      <trkpt lat="45.882" lon="1.26223">
        <ele>348</ele>
        <time>2024-11-29T14:36:08Z</time>
      </trkpt>
      <trkpt lat="45.88196" lon="1.26218">
        <ele>348.1</ele>
        <time>2024-11-29T14:36:09Z</time>
      </trkpt>
      <trkpt lat="45.88192" lon="1.26212">
        <ele>348.2</ele>
        <time>2024-11-29T14:36:10Z</time>
      </trkpt>
      <trkpt lat="45.88188" lon="1.26206">
        <ele>348.4</ele>
        <time>2024-11-29T14:36:11Z</time>
      </trkpt>
      <trkpt lat="45.88184" lon="1.26201">
        <ele>348.5</ele>
        <time>2024-11-29T14:36:12Z</time>
      </trkpt>
      <trkpt lat="45.88181" lon="1.26195">
        <ele>348.6</ele>
        <time>2024-11-29T14:36:13Z</time>
      </trkpt>
      <trkpt lat="45.88177" lon="1.26189">
        <ele>348.8</ele>
        <time>2024-11-29T14:36:14Z</time>
      </trkpt>
      <trkpt lat="45.88173" lon="1.26184">
        <ele>349</ele>
        <time>2024-11-29T14:36:15Z</time>
      </trkpt>
      <trkpt lat="45.88169" lon="1.26179">
        <ele>349.1</ele>
        <time>2024-11-29T14:36:16Z</time>
      </trkpt>
      <trkpt lat="45.88164" lon="1.26174">
        <ele>349.3</ele>
        <time>2024-11-29T14:36:17Z</time>
      </trkpt>
      <trkpt lat="45.8816" lon="1.26169">
        <ele>349.5</ele>
        <time>2024-11-29T14:36:18Z</time>
      </trkpt>
      <trkpt lat="45.88156" lon="1.26164">
        <ele>349.6</ele>
        <time>2024-11-29T14:36:19Z</time>
      </trkpt>
      <trkpt lat="45.88152" lon="1.26159">
        <ele>349.8</ele>
        <time>2024-11-29T14:36:20Z</time>
      </trkpt>
      <trkpt lat="45.88148" lon="1.26154">
        <ele>350</ele>
        <time>2024-11-29T14:36:21Z</time>
      </trkpt>
      <trkpt lat="45.88144" lon="1.26149">
        <ele>350.1</ele>
        <time>2024-11-29T14:36:22Z</time>
      </trkpt>
      <trkpt lat="45.8814" lon="1.26144">
        <ele>350.3</ele>
        <time>2024-11-29T14:36:23Z</time>
      </trkpt>
      <trkpt lat="45.88137" lon="1.2614">
        <ele>350.4</ele>
        <time>2024-11-29T14:36:24Z</time>
      </trkpt>
      <trkpt lat="45.88133" lon="1.26134">
        <ele>350.6</ele>
        <time>2024-11-29T14:36:25Z</time>
      </trkpt>
      <trkpt lat="45.88129" lon="1.26129">
        <ele>350.8</ele>
        <time>2024-11-29T14:36:26Z</time>
      </trkpt>
      <trkpt lat="45.88125" lon="1.26125">
        <ele>351</ele>
        <time>2024-11-29T14:36:27Z</time>
      </trkpt>
      <trkpt lat="45.8812" lon="1.2612">
        <ele>351.2</ele>
        <time>2024-11-29T14:36:28Z</time>
      </trkpt>
      <trkpt lat="45.88116" lon="1.26115">
        <ele>351.4</ele>
        <time>2024-11-29T14:36:29Z</time>
      </trkpt>
      <trkpt lat="45.88112" lon="1.2611">
        <ele>351.6</ele>
        <time>2024-11-29T14:36:30Z</time>
      </trkpt>
      <trkpt lat="45.88108" lon="1.26105">
        <ele>351.8</ele>
        <time>2024-11-29T14:36:31Z</time>
      </trkpt>
      <trkpt lat="45.88104" lon="1.261">
        <ele>352</ele>
        <time>2024-11-29T14:36:32Z</time>
      </trkpt>
      <trkpt lat="45.881" lon="1.26094">
        <ele>352.2</ele>
        <time>2024-11-29T14:36:33Z</time>
      </trkpt>
      <trkpt lat="45.88096" lon="1.26089">
        <ele>352.3</ele>
        <time>2024-11-29T14:36:34Z</time>
      </trkpt>
      <trkpt lat="45.88093" lon="1.26084">
        <ele>352.4</ele>
        <time>2024-11-29T14:36:35Z</time>
      </trkpt>
      <trkpt lat="45.8809" lon="1.26079">
        <ele>352.6</ele>
        <time>2024-11-29T14:36:36Z</time>
      </trkpt>
      <trkpt lat="45.88088" lon="1.26073">
        <ele>352.7</ele>
        <time>2024-11-29T14:36:37Z</time>
      </trkpt>
      <trkpt lat="45.88087" lon="1.26069">
        <ele>352.8</ele>
        <time>2024-11-29T14:36:38Z</time>
      </trkpt>
      <trkpt lat="45.88089" lon="1.26065">
        <ele>352.9</ele>
        <time>2024-11-29T14:36:39Z</time>
      </trkpt>
      <trkpt lat="45.88091" lon="1.26061">
        <ele>352.9</ele>
        <time>2024-11-29T14:36:40Z</time>
      </trkpt>
      <trkpt lat="45.88094" lon="1.26059">
        <ele>352.9</ele>
        <time>2024-11-29T14:36:41Z</time>
      </trkpt>
      <trkpt lat="45.88098" lon="1.26056">
        <ele>352.9</ele>
        <time>2024-11-29T14:36:42Z</time>
      </trkpt>
      <trkpt lat="45.88103" lon="1.26054">
        <ele>352.9</ele>
        <time>2024-11-29T14:36:43Z</time>
      </trkpt>
      <trkpt lat="45.88108" lon="1.2605">
        <ele>352.8</ele>
        <time>2024-11-29T14:36:44Z</time>
      </trkpt>
      <trkpt lat="45.88112" lon="1.26047">
        <ele>352.8</ele>
        <time>2024-11-29T14:36:45Z</time>
      </trkpt>
      <trkpt lat="45.88117" lon="1.26043">
        <ele>352.8</ele>
        <time>2024-11-29T14:36:46Z</time>
      </trkpt>
      <trkpt lat="45.88121" lon="1.2604">
        <ele>352.7</ele>
        <time>2024-11-29T14:36:47Z</time>
      </trkpt>
      <trkpt lat="45.88126" lon="1.26036">
        <ele>352.6</ele>
        <time>2024-11-29T14:36:48Z</time>
      </trkpt>
      <trkpt lat="45.88131" lon="1.26033">
        <ele>352.5</ele>
        <time>2024-11-29T14:36:49Z</time>
      </trkpt>
      <trkpt lat="45.88136" lon="1.2603">
        <ele>352.4</ele>
        <time>2024-11-29T14:36:50Z</time>
      </trkpt>
      <trkpt lat="45.8814" lon="1.26026">
        <ele>352.3</ele>
        <time>2024-11-29T14:36:51Z</time>
      </trkpt>
      <trkpt lat="45.88145" lon="1.26023">
        <ele>352.2</ele>
        <time>2024-11-29T14:36:52Z</time>
      </trkpt>
      <trkpt lat="45.88148" lon="1.2602">
        <ele>352.1</ele>
        <time>2024-11-29T14:36:53Z</time>
      </trkpt>
      <trkpt lat="45.88152" lon="1.2602">
        <ele>352.1</ele>
        <time>2024-11-29T14:36:55Z</time>
      </trkpt>
      <trkpt lat="45.88156" lon="1.2602">
        <ele>352</ele>
        <time>2024-11-29T14:36:58Z</time>
      </trkpt>
      <trkpt lat="45.88159" lon="1.26018">
        <ele>351.9</ele>
        <time>2024-11-29T14:36:59Z</time>
      </trkpt>
      <trkpt lat="45.88162" lon="1.26015">
        <ele>351.9</ele>
        <time>2024-11-29T14:37:00Z</time>
      </trkpt>
      <trkpt lat="45.88165" lon="1.26011">
        <ele>351.8</ele>
        <time>2024-11-29T14:37:01Z</time>
      </trkpt>
      <trkpt lat="45.88169" lon="1.26008">
        <ele>351.8</ele>
        <time>2024-11-29T14:37:02Z</time>
      </trkpt>
      <trkpt lat="45.88173" lon="1.26005">
        <ele>351.8</ele>
        <time>2024-11-29T14:37:03Z</time>
      </trkpt>
      <trkpt lat="45.88177" lon="1.26002">
        <ele>351.8</ele>
        <time>2024-11-29T14:37:04Z</time>
      </trkpt>
      <trkpt lat="45.88181" lon="1.25999">
        <ele>351.8</ele>
        <time>2024-11-29T14:37:05Z</time>
      </trkpt>
      <trkpt lat="45.88186" lon="1.25996">
        <ele>351.8</ele>
        <time>2024-11-29T14:37:06Z</time>
      </trkpt>
      <trkpt lat="45.8819" lon="1.25993">
        <ele>351.8</ele>
        <time>2024-11-29T14:37:07Z</time>
      </trkpt>
      <trkpt lat="45.88195" lon="1.2599">
        <ele>351.9</ele>
        <time>2024-11-29T14:37:08Z</time>
      </trkpt>
      <trkpt lat="45.882" lon="1.25988">
        <ele>351.9</ele>
        <time>2024-11-29T14:37:09Z</time>
      </trkpt>
      <trkpt lat="45.88204" lon="1.25985">
        <ele>352</ele>
        <time>2024-11-29T14:37:10Z</time>
      </trkpt>
      <trkpt lat="45.88208" lon="1.25982">
        <ele>352.1</ele>
        <time>2024-11-29T14:37:11Z</time>
      </trkpt>
      <trkpt lat="45.88212" lon="1.25979">
        <ele>352.2</ele>
        <time>2024-11-29T14:37:12Z</time>
      </trkpt>
      <trkpt lat="45.88217" lon="1.25976">
        <ele>352.3</ele>
        <time>2024-11-29T14:37:13Z</time>
      </trkpt>
      <trkpt lat="45.88221" lon="1.25974">
        <ele>352.4</ele>
        <time>2024-11-29T14:37:14Z</time>
      </trkpt>
      <trkpt lat="45.88226" lon="1.25972">
        <ele>352.5</ele>
        <time>2024-11-29T14:37:15Z</time>
      </trkpt>
      <trkpt lat="45.88231" lon="1.2597">
        <ele>352.6</ele>
        <time>2024-11-29T14:37:16Z</time>
      </trkpt>
      <trkpt lat="45.88236" lon="1.25969">
        <ele>352.7</ele>
        <time>2024-11-29T14:37:17Z</time>
      </trkpt>
      <trkpt lat="45.8824" lon="1.25967">
        <ele>352.7</ele>
        <time>2024-11-29T14:37:18Z</time>
      </trkpt>
      <trkpt lat="45.88245" lon="1.25965">
        <ele>352.7</ele>
        <time>2024-11-29T14:37:19Z</time>
      </trkpt>
      <trkpt lat="45.8825" lon="1.25964">
        <ele>352.7</ele>
        <time>2024-11-29T14:37:20Z</time>
      </trkpt>
      <trkpt lat="45.88254" lon="1.25962">
        <ele>352.7</ele>
        <time>2024-11-29T14:37:21Z</time>
      </trkpt>
      <trkpt lat="45.8826" lon="1.25961">
        <ele>352.6</ele>
        <time>2024-11-29T14:37:22Z</time>
      </trkpt>
      <trkpt lat="45.88265" lon="1.2596">
        <ele>352.5</ele>
        <time>2024-11-29T14:37:23Z</time>
      </trkpt>
      <trkpt lat="45.8827" lon="1.2596">
        <ele>352.5</ele>
        <time>2024-11-29T14:37:25Z</time>
      </trkpt>
      <trkpt lat="45.88276" lon="1.25959">
        <ele>352.4</ele>
        <time>2024-11-29T14:37:26Z</time>
      </trkpt>
      <trkpt lat="45.88282" lon="1.25958">
        <ele>352.4</ele>
        <time>2024-11-29T14:37:27Z</time>
      </trkpt>
      <trkpt lat="45.88286" lon="1.25957">
        <ele>352.4</ele>
        <time>2024-11-29T14:37:28Z</time>
      </trkpt>
      <trkpt lat="45.88291" lon="1.25955">
        <ele>352.5</ele>
        <time>2024-11-29T14:37:29Z</time>
      </trkpt>
      <trkpt lat="45.88296" lon="1.25955">
        <ele>352.5</ele>
        <time>2024-11-29T14:37:30Z</time>
      </trkpt>
      <trkpt lat="45.883" lon="1.25954">
        <ele>352.6</ele>
        <time>2024-11-29T14:37:31Z</time>
      </trkpt>
      <trkpt lat="45.88306" lon="1.25953">
        <ele>352.7</ele>
        <time>2024-11-29T14:37:32Z</time>
      </trkpt>
      <trkpt lat="45.8831" lon="1.25953">
        <ele>352.8</ele>
        <time>2024-11-29T14:37:33Z</time>
      </trkpt>
      <trkpt lat="45.88315" lon="1.25952">
        <ele>352.9</ele>
        <time>2024-11-29T14:37:34Z</time>
      </trkpt>
      <trkpt lat="45.8832" lon="1.25951">
        <ele>353</ele>
        <time>2024-11-29T14:37:35Z</time>
      </trkpt>
      <trkpt lat="45.88325" lon="1.2595">
        <ele>353.1</ele>
        <time>2024-11-29T14:37:36Z</time>
      </trkpt>
      <trkpt lat="45.8833" lon="1.25948">
        <ele>353.3</ele>
        <time>2024-11-29T14:37:37Z</time>
      </trkpt>
      <trkpt lat="45.88334" lon="1.25947">
        <ele>353.4</ele>
        <time>2024-11-29T14:37:38Z</time>
      </trkpt>
      <trkpt lat="45.88339" lon="1.25945">
        <ele>353.5</ele>
        <time>2024-11-29T14:37:39Z</time>
      </trkpt>
      <trkpt lat="45.88344" lon="1.25942">
        <ele>353.7</ele>
        <time>2024-11-29T14:37:40Z</time>
      </trkpt>
      <trkpt lat="45.88348" lon="1.25941">
        <ele>353.9</ele>
        <time>2024-11-29T14:37:41Z</time>
      </trkpt>
      <trkpt lat="45.88354" lon="1.25938">
        <ele>354.1</ele>
        <time>2024-11-29T14:37:42Z</time>
      </trkpt>
      <trkpt lat="45.88358" lon="1.25936">
        <ele>354.3</ele>
        <time>2024-11-29T14:37:43Z</time>
      </trkpt>
      <trkpt lat="45.88363" lon="1.25935">
        <ele>354.5</ele>
        <time>2024-11-29T14:37:44Z</time>
      </trkpt>
      <trkpt lat="45.88367" lon="1.25933">
        <ele>354.7</ele>
        <time>2024-11-29T14:37:45Z</time>
      </trkpt>
      <trkpt lat="45.88371" lon="1.25932">
        <ele>354.9</ele>
        <time>2024-11-29T14:37:46Z</time>
      </trkpt>
      <trkpt lat="45.88376" lon="1.2593">
        <ele>355.2</ele>
        <time>2024-11-29T14:37:47Z</time>
      </trkpt>
      <trkpt lat="45.8838" lon="1.25929">
        <ele>355.4</ele>
        <time>2024-11-29T14:37:48Z</time>
      </trkpt>
      <trkpt lat="45.88384" lon="1.25927">
        <ele>355.6</ele>
        <time>2024-11-29T14:37:49Z</time>
      </trkpt>
      <trkpt lat="45.88388" lon="1.25925">
        <ele>355.8</ele>
        <time>2024-11-29T14:37:50Z</time>
      </trkpt>
      <trkpt lat="45.88392" lon="1.25924">
        <ele>356</ele>
        <time>2024-11-29T14:37:51Z</time>
      </trkpt>
      <trkpt lat="45.88396" lon="1.25923">
        <ele>356.2</ele>
        <time>2024-11-29T14:37:52Z</time>
      </trkpt>
      <trkpt lat="45.884" lon="1.25921">
        <ele>356.4</ele>
        <time>2024-11-29T14:37:53Z</time>
      </trkpt>
      <trkpt lat="45.88404" lon="1.2592">
        <ele>356.6</ele>
        <time>2024-11-29T14:37:54Z</time>
      </trkpt>
      <trkpt lat="45.88408" lon="1.25918">
        <ele>356.8</ele>
        <time>2024-11-29T14:37:55Z</time>
      </trkpt>
      <trkpt lat="45.88412" lon="1.25916">
        <ele>357</ele>
        <time>2024-11-29T14:37:56Z</time>
      </trkpt>
      <trkpt lat="45.88417" lon="1.25916">
        <ele>357.2</ele>
        <time>2024-11-29T14:37:57Z</time>
      </trkpt>
      <trkpt lat="45.88421" lon="1.25915">
        <ele>357.4</ele>
        <time>2024-11-29T14:37:58Z</time>
      </trkpt>
      <trkpt lat="45.88425" lon="1.25914">
        <ele>357.6</ele>
        <time>2024-11-29T14:37:59Z</time>
      </trkpt>
      <trkpt lat="45.88429" lon="1.25913">
        <ele>357.7</ele>
        <time>2024-11-29T14:38:00Z</time>
      </trkpt>
      <trkpt lat="45.88433" lon="1.25911">
        <ele>357.9</ele>
        <time>2024-11-29T14:38:01Z</time>
      </trkpt>
      <trkpt lat="45.88438" lon="1.2591">
        <ele>358.1</ele>
        <time>2024-11-29T14:38:02Z</time>
      </trkpt>
      <trkpt lat="45.88442" lon="1.25908">
        <ele>358.2</ele>
        <time>2024-11-29T14:38:03Z</time>
      </trkpt>
      <trkpt lat="45.88447" lon="1.25907">
        <ele>358.4</ele>
        <time>2024-11-29T14:38:04Z</time>
      </trkpt>
      <trkpt lat="45.88451" lon="1.25906">
        <ele>358.5</ele>
        <time>2024-11-29T14:38:05Z</time>
      </trkpt>
      <trkpt lat="45.88455" lon="1.25904">
        <ele>358.6</ele>
        <time>2024-11-29T14:38:06Z</time>
      </trkpt>
      <trkpt lat="45.88459" lon="1.25905">
        <ele>358.7</ele>
        <time>2024-11-29T14:38:07Z</time>
      </trkpt>
      <trkpt lat="45.88464" lon="1.25904">
        <ele>358.9</ele>
        <time>2024-11-29T14:38:08Z</time>
      </trkpt>
      <trkpt lat="45.88468" lon="1.25903">
        <ele>358.9</ele>
        <time>2024-11-29T14:38:09Z</time>
      </trkpt>
      <trkpt lat="45.88471" lon="1.25903">
        <ele>359</ele>
        <time>2024-11-29T14:38:10Z</time>
      </trkpt>
      <trkpt lat="45.88476" lon="1.25901">
        <ele>359</ele>
        <time>2024-11-29T14:38:11Z</time>
      </trkpt>
      <trkpt lat="45.8848" lon="1.259">
        <ele>359.1</ele>
        <time>2024-11-29T14:38:12Z</time>
      </trkpt>
      <trkpt lat="45.88485" lon="1.25899">
        <ele>359.1</ele>
        <time>2024-11-29T14:38:13Z</time>
      </trkpt>
      <trkpt lat="45.88488" lon="1.25898">
        <ele>359.1</ele>
        <time>2024-11-29T14:38:14Z</time>
      </trkpt>
      <trkpt lat="45.88493" lon="1.25896">
        <ele>359.1</ele>
        <time>2024-11-29T14:38:15Z</time>
      </trkpt>
      <trkpt lat="45.88498" lon="1.25896">
        <ele>359.1</ele>
        <time>2024-11-29T14:38:16Z</time>
      </trkpt>
      <trkpt lat="45.88502" lon="1.25896">
        <ele>359.1</ele>
        <time>2024-11-29T14:38:17Z</time>
      </trkpt>
      <trkpt lat="45.88506" lon="1.25896">
        <ele>359</ele>
        <time>2024-11-29T14:38:18Z</time>
      </trkpt>
      <trkpt lat="45.88511" lon="1.25897">
        <ele>359</ele>
        <time>2024-11-29T14:38:19Z</time>
      </trkpt>
      <trkpt lat="45.88515" lon="1.25898">
        <ele>359</ele>
        <time>2024-11-29T14:38:20Z</time>
      </trkpt>
      <trkpt lat="45.88519" lon="1.259">
        <ele>359</ele>
        <time>2024-11-29T14:38:21Z</time>
      </trkpt>
      <trkpt lat="45.88522" lon="1.25901">
        <ele>359</ele>
        <time>2024-11-29T14:38:22Z</time>
      </trkpt>
      <trkpt lat="45.88526" lon="1.259">
        <ele>359</ele>
        <time>2024-11-29T14:38:23Z</time>
      </trkpt>
      <trkpt lat="45.8853" lon="1.25898">
        <ele>359</ele>
        <time>2024-11-29T14:38:24Z</time>
      </trkpt>
      <trkpt lat="45.88533" lon="1.25894">
        <ele>359</ele>
        <time>2024-11-29T14:38:25Z</time>
      </trkpt>
      <trkpt lat="45.88536" lon="1.25891">
        <ele>359</ele>
        <time>2024-11-29T14:38:26Z</time>
      </trkpt>
      <trkpt lat="45.88539" lon="1.25888">
        <ele>359</ele>
        <time>2024-11-29T14:38:27Z</time>
      </trkpt>
      <trkpt lat="45.88543" lon="1.25886">
        <ele>359</ele>
        <time>2024-11-29T14:38:28Z</time>
      </trkpt>
      <trkpt lat="45.88547" lon="1.25885">
        <ele>359</ele>
        <time>2024-11-29T14:38:29Z</time>
      </trkpt>
      <trkpt lat="45.88551" lon="1.25884">
        <ele>359</ele>
        <time>2024-11-29T14:38:30Z</time>
      </trkpt>
      <trkpt lat="45.88556" lon="1.25883">
        <ele>359</ele>
        <time>2024-11-29T14:38:31Z</time>
      </trkpt>
      <trkpt lat="45.88561" lon="1.25882">
        <ele>359</ele>
        <time>2024-11-29T14:38:32Z</time>
      </trkpt>
      <trkpt lat="45.88566" lon="1.25881">
        <ele>359.1</ele>
        <time>2024-11-29T14:38:33Z</time>
      </trkpt>
      <trkpt lat="45.8857" lon="1.25879">
        <ele>359.2</ele>
        <time>2024-11-29T14:38:34Z</time>
      </trkpt>
      <trkpt lat="45.88574" lon="1.25877">
        <ele>359.2</ele>
        <time>2024-11-29T14:38:35Z</time>
      </trkpt>
      <trkpt lat="45.88578" lon="1.25874">
        <ele>359.3</ele>
        <time>2024-11-29T14:38:36Z</time>
      </trkpt>
      <trkpt lat="45.88582" lon="1.25872">
        <ele>359.3</ele>
        <time>2024-11-29T14:38:37Z</time>
      </trkpt>
      <trkpt lat="45.88585" lon="1.25869">
        <ele>359.4</ele>
        <time>2024-11-29T14:38:38Z</time>
      </trkpt>
      <trkpt lat="45.88589" lon="1.25866">
        <ele>359.4</ele>
        <time>2024-11-29T14:38:39Z</time>
      </trkpt>
      <trkpt lat="45.88593" lon="1.25862">
        <ele>359.4</ele>
        <time>2024-11-29T14:38:40Z</time>
      </trkpt>
      <trkpt lat="45.88597" lon="1.25858">
        <ele>359.3</ele>
        <time>2024-11-29T14:38:41Z</time>
      </trkpt>
      <trkpt lat="45.88602" lon="1.25854">
        <ele>359.2</ele>
        <time>2024-11-29T14:38:42Z</time>
      </trkpt>
      <trkpt lat="45.88606" lon="1.2585">
        <ele>359.2</ele>
        <time>2024-11-29T14:38:43Z</time>
      </trkpt>
      <trkpt lat="45.8861" lon="1.25845">
        <ele>359.1</ele>
        <time>2024-11-29T14:38:44Z</time>
      </trkpt>
      <trkpt lat="45.88615" lon="1.25841">
        <ele>359.1</ele>
        <time>2024-11-29T14:38:45Z</time>
      </trkpt>
      <trkpt lat="45.8862" lon="1.25837">
        <ele>359.1</ele>
        <time>2024-11-29T14:38:46Z</time>
      </trkpt>
      <trkpt lat="45.88625" lon="1.25833">
        <ele>359</ele>
        <time>2024-11-29T14:38:47Z</time>
      </trkpt>
      <trkpt lat="45.88629" lon="1.25829">
        <ele>359.1</ele>
        <time>2024-11-29T14:38:48Z</time>
      </trkpt>
      <trkpt lat="45.88634" lon="1.25825">
        <ele>359.2</ele>
        <time>2024-11-29T14:38:49Z</time>
      </trkpt>
      <trkpt lat="45.88639" lon="1.25821">
        <ele>359.3</ele>
        <time>2024-11-29T14:38:50Z</time>
      </trkpt>
      <trkpt lat="45.88644" lon="1.25817">
        <ele>359.4</ele>
        <time>2024-11-29T14:38:51Z</time>
      </trkpt>
      <trkpt lat="45.88649" lon="1.25813">
        <ele>359.6</ele>
        <time>2024-11-29T14:38:52Z</time>
      </trkpt>
      <trkpt lat="45.88654" lon="1.25808">
        <ele>359.8</ele>
        <time>2024-11-29T14:38:53Z</time>
      </trkpt>
      <trkpt lat="45.88659" lon="1.25805">
        <ele>360</ele>
        <time>2024-11-29T14:38:54Z</time>
      </trkpt>
      <trkpt lat="45.88663" lon="1.25801">
        <ele>360.2</ele>
        <time>2024-11-29T14:38:55Z</time>
      </trkpt>
      <trkpt lat="45.88668" lon="1.25797">
        <ele>360.4</ele>
        <time>2024-11-29T14:38:56Z</time>
      </trkpt>
      <trkpt lat="45.88672" lon="1.25792">
        <ele>360.6</ele>
        <time>2024-11-29T14:38:57Z</time>
      </trkpt>
      <trkpt lat="45.88676" lon="1.25788">
        <ele>360.7</ele>
        <time>2024-11-29T14:38:58Z</time>
      </trkpt>
      <trkpt lat="45.8868" lon="1.25783">
        <ele>360.9</ele>
        <time>2024-11-29T14:38:59Z</time>
      </trkpt>
      <trkpt lat="45.88684" lon="1.25778">
        <ele>361</ele>
        <time>2024-11-29T14:39:00Z</time>
      </trkpt>
      <trkpt lat="45.88688" lon="1.25772">
        <ele>361.1</ele>
        <time>2024-11-29T14:39:01Z</time>
      </trkpt>
      <trkpt lat="45.88692" lon="1.25767">
        <ele>361.1</ele>
        <time>2024-11-29T14:39:02Z</time>
      </trkpt>
      <trkpt lat="45.88696" lon="1.25761">
        <ele>361.2</ele>
        <time>2024-11-29T14:39:03Z</time>
      </trkpt>
      <trkpt lat="45.88701" lon="1.25755">
        <ele>361.2</ele>
        <time>2024-11-29T14:39:04Z</time>
      </trkpt>
      <trkpt lat="45.88705" lon="1.25749">
        <ele>361.3</ele>
        <time>2024-11-29T14:39:05Z</time>
      </trkpt>
      <trkpt lat="45.88709" lon="1.25743">
        <ele>361.3</ele>
        <time>2024-11-29T14:39:06Z</time>
      </trkpt>
      <trkpt lat="45.88713" lon="1.25737">
        <ele>361.3</ele>
        <time>2024-11-29T14:39:07Z</time>
      </trkpt>
      <trkpt lat="45.88717" lon="1.2573">
        <ele>361.4</ele>
        <time>2024-11-29T14:39:08Z</time>
      </trkpt>
      <trkpt lat="45.88721" lon="1.25724">
        <ele>361.5</ele>
        <time>2024-11-29T14:39:09Z</time>
      </trkpt>
      <trkpt lat="45.88725" lon="1.25718">
        <ele>361.5</ele>
        <time>2024-11-29T14:39:10Z</time>
      </trkpt>
      <trkpt lat="45.88729" lon="1.25712">
        <ele>361.7</ele>
        <time>2024-11-29T14:39:11Z</time>
      </trkpt>
      <trkpt lat="45.88733" lon="1.25706">
        <ele>361.8</ele>
        <time>2024-11-29T14:39:12Z</time>
      </trkpt>
      <trkpt lat="45.88737" lon="1.257">
        <ele>361.9</ele>
        <time>2024-11-29T14:39:13Z</time>
      </trkpt>
      <trkpt lat="45.88741" lon="1.25694">
        <ele>362</ele>
        <time>2024-11-29T14:39:14Z</time>
      </trkpt>
      <trkpt lat="45.88745" lon="1.25687">
        <ele>362.1</ele>
        <time>2024-11-29T14:39:15Z</time>
      </trkpt>
      <trkpt lat="45.88748" lon="1.25681">
        <ele>362.1</ele>
        <time>2024-11-29T14:39:16Z</time>
      </trkpt>
      <trkpt lat="45.88752" lon="1.25675">
        <ele>362</ele>
        <time>2024-11-29T14:39:17Z</time>
      </trkpt>
      <trkpt lat="45.88756" lon="1.25668">
        <ele>361.9</ele>
        <time>2024-11-29T14:39:18Z</time>
      </trkpt>
      <trkpt lat="45.88759" lon="1.25661">
        <ele>361.8</ele>
        <time>2024-11-29T14:39:19Z</time>
      </trkpt>
      <trkpt lat="45.88763" lon="1.25653">
        <ele>361.5</ele>
        <time>2024-11-29T14:39:20Z</time>
      </trkpt>
      <trkpt lat="45.88767" lon="1.25646">
        <ele>361.2</ele>
        <time>2024-11-29T14:39:21Z</time>
      </trkpt>
      <trkpt lat="45.88771" lon="1.25638">
        <ele>360.9</ele>
        <time>2024-11-29T14:39:22Z</time>
      </trkpt>
      <trkpt lat="45.88775" lon="1.2563">
        <ele>360.6</ele>
        <time>2024-11-29T14:39:23Z</time>
      </trkpt>
      <trkpt lat="45.8878" lon="1.25622">
        <ele>360.2</ele>
        <time>2024-11-29T14:39:24Z</time>
      </trkpt>
      <trkpt lat="45.88785" lon="1.25615">
        <ele>360</ele>
        <time>2024-11-29T14:39:25Z</time>
      </trkpt>
      <trkpt lat="45.88789" lon="1.25607">
        <ele>359.8</ele>
        <time>2024-11-29T14:39:26Z</time>
      </trkpt>
      <trkpt lat="45.88794" lon="1.25601">
        <ele>359.6</ele>
        <time>2024-11-29T14:39:27Z</time>
      </trkpt>
      <trkpt lat="45.88799" lon="1.25594">
        <ele>359.6</ele>
        <time>2024-11-29T14:39:28Z</time>
      </trkpt>
      <trkpt lat="45.88804" lon="1.25586">
        <ele>359.7</ele>
        <time>2024-11-29T14:39:29Z</time>
      </trkpt>
      <trkpt lat="45.88808" lon="1.25579">
        <ele>359.8</ele>
        <time>2024-11-29T14:39:30Z</time>
      </trkpt>
      <trkpt lat="45.88813" lon="1.25573">
        <ele>360</ele>
        <time>2024-11-29T14:39:31Z</time>
      </trkpt>
      <trkpt lat="45.88817" lon="1.25566">
        <ele>360.2</ele>
        <time>2024-11-29T14:39:32Z</time>
      </trkpt>
      <trkpt lat="45.88821" lon="1.2556">
        <ele>360.5</ele>
        <time>2024-11-29T14:39:33Z</time>
      </trkpt>
      <trkpt lat="45.88825" lon="1.25553">
        <ele>360.9</ele>
        <time>2024-11-29T14:39:34Z</time>
      </trkpt>
      <trkpt lat="45.88829" lon="1.25547">
        <ele>361.3</ele>
        <time>2024-11-29T14:39:35Z</time>
      </trkpt>
      <trkpt lat="45.88833" lon="1.25541">
        <ele>361.7</ele>
        <time>2024-11-29T14:39:36Z</time>
      </trkpt>
      <trkpt lat="45.88837" lon="1.25536">
        <ele>362.2</ele>
        <time>2024-11-29T14:39:37Z</time>
      </trkpt>
      <trkpt lat="45.88841" lon="1.25531">
        <ele>362.7</ele>
        <time>2024-11-29T14:39:38Z</time>
      </trkpt>
      <trkpt lat="45.88844" lon="1.25526">
        <ele>363.1</ele>
        <time>2024-11-29T14:39:39Z</time>
      </trkpt>
      <trkpt lat="45.88849" lon="1.2552">
        <ele>363.7</ele>
        <time>2024-11-29T14:39:40Z</time>
      </trkpt>
      <trkpt lat="45.88853" lon="1.25515">
        <ele>364.2</ele>
        <time>2024-11-29T14:39:41Z</time>
      </trkpt>
      <trkpt lat="45.88856" lon="1.25511">
        <ele>364.6</ele>
        <time>2024-11-29T14:39:42Z</time>
      </trkpt>
      <trkpt lat="45.8886" lon="1.25507">
        <ele>365.1</ele>
        <time>2024-11-29T14:39:43Z</time>
      </trkpt>
      <trkpt lat="45.88864" lon="1.25504">
        <ele>365.5</ele>
        <time>2024-11-29T14:39:44Z</time>
      </trkpt>
      <trkpt lat="45.88867" lon="1.25501">
        <ele>365.7</ele>
        <time>2024-11-29T14:39:45Z</time>
      </trkpt>
      <trkpt lat="45.88871" lon="1.25498">
        <ele>366.1</ele>
        <time>2024-11-29T14:39:46Z</time>
      </trkpt>
      <trkpt lat="45.88874" lon="1.25496">
        <ele>366.3</ele>
        <time>2024-11-29T14:39:47Z</time>
      </trkpt>
      <trkpt lat="45.88878" lon="1.25493">
        <ele>366.6</ele>
        <time>2024-11-29T14:39:48Z</time>
      </trkpt>
      <trkpt lat="45.88881" lon="1.2549">
        <ele>366.8</ele>
        <time>2024-11-29T14:39:49Z</time>
      </trkpt>
      <trkpt lat="45.88885" lon="1.25488">
        <ele>367</ele>
        <time>2024-11-29T14:39:50Z</time>
      </trkpt>
      <trkpt lat="45.88888" lon="1.25485">
        <ele>367.2</ele>
        <time>2024-11-29T14:39:51Z</time>
      </trkpt>
      <trkpt lat="45.88893" lon="1.25483">
        <ele>367.3</ele>
        <time>2024-11-29T14:39:52Z</time>
      </trkpt>
      <trkpt lat="45.88896" lon="1.25479">
        <ele>367.5</ele>
        <time>2024-11-29T14:39:53Z</time>
      </trkpt>
      <trkpt lat="45.889" lon="1.25475">
        <ele>367.6</ele>
        <time>2024-11-29T14:39:54Z</time>
      </trkpt>
      <trkpt lat="45.88904" lon="1.25471">
        <ele>367.6</ele>
        <time>2024-11-29T14:39:55Z</time>
      </trkpt>
      <trkpt lat="45.88908" lon="1.25466">
        <ele>367.6</ele>
        <time>2024-11-29T14:39:56Z</time>
      </trkpt>
      <trkpt lat="45.88913" lon="1.25461">
        <ele>367.6</ele>
        <time>2024-11-29T14:39:57Z</time>
      </trkpt>
      <trkpt lat="45.88917" lon="1.25456">
        <ele>367.5</ele>
        <time>2024-11-29T14:39:58Z</time>
      </trkpt>
      <trkpt lat="45.88922" lon="1.25451">
        <ele>367.3</ele>
        <time>2024-11-29T14:39:59Z</time>
      </trkpt>
      <trkpt lat="45.88927" lon="1.25446">
        <ele>367.2</ele>
        <time>2024-11-29T14:40:00Z</time>
      </trkpt>
      <trkpt lat="45.88932" lon="1.25441">
        <ele>366.9</ele>
        <time>2024-11-29T14:40:01Z</time>
      </trkpt>
      <trkpt lat="45.88936" lon="1.25436">
        <ele>366.6</ele>
        <time>2024-11-29T14:40:02Z</time>
      </trkpt>
      <trkpt lat="45.88941" lon="1.25431">
        <ele>366.3</ele>
        <time>2024-11-29T14:40:03Z</time>
      </trkpt>
      <trkpt lat="45.88945" lon="1.25427">
        <ele>366</ele>
        <time>2024-11-29T14:40:04Z</time>
      </trkpt>
      <trkpt lat="45.8895" lon="1.25423">
        <ele>365.6</ele>
        <time>2024-11-29T14:40:05Z</time>
      </trkpt>
      <trkpt lat="45.88956" lon="1.25419">
        <ele>365.1</ele>
        <time>2024-11-29T14:40:06Z</time>
      </trkpt>
      <trkpt lat="45.88961" lon="1.25416">
        <ele>364.6</ele>
        <time>2024-11-29T14:40:07Z</time>
      </trkpt>
      <trkpt lat="45.88967" lon="1.25411">
        <ele>364.1</ele>
        <time>2024-11-29T14:40:08Z</time>
      </trkpt>
      <trkpt lat="45.88972" lon="1.25407">
        <ele>363.7</ele>
        <time>2024-11-29T14:40:09Z</time>
      </trkpt>
      <trkpt lat="45.88978" lon="1.25402">
        <ele>363.3</ele>
        <time>2024-11-29T14:40:10Z</time>
      </trkpt>
      <trkpt lat="45.88984" lon="1.25397">
        <ele>363</ele>
        <time>2024-11-29T14:40:11Z</time>
      </trkpt>
      <trkpt lat="45.88991" lon="1.25393">
        <ele>362.8</ele>
        <time>2024-11-29T14:40:12Z</time>
      </trkpt>
      <trkpt lat="45.88998" lon="1.25389">
        <ele>362.8</ele>
        <time>2024-11-29T14:40:13Z</time>
      </trkpt>
      <trkpt lat="45.89004" lon="1.25386">
        <ele>362.9</ele>
        <time>2024-11-29T14:40:14Z</time>
      </trkpt>
      <trkpt lat="45.8901" lon="1.25383">
        <ele>363.2</ele>
        <time>2024-11-29T14:40:15Z</time>
      </trkpt>
      <trkpt lat="45.89016" lon="1.25379">
        <ele>363.8</ele>
        <time>2024-11-29T14:40:16Z</time>
      </trkpt>
      <trkpt lat="45.8902" lon="1.25374">
        <ele>364.3</ele>
        <time>2024-11-29T14:40:17Z</time>
      </trkpt>
      <trkpt lat="45.89023" lon="1.2537">
        <ele>364.8</ele>
        <time>2024-11-29T14:40:18Z</time>
      </trkpt>
      <trkpt lat="45.89026" lon="1.25365">
        <ele>365.4</ele>
        <time>2024-11-29T14:40:19Z</time>
      </trkpt>
      <trkpt lat="45.89028" lon="1.25359">
        <ele>366.1</ele>
        <time>2024-11-29T14:40:20Z</time>
      </trkpt>
      <trkpt lat="45.8903" lon="1.25355">
        <ele>366.6</ele>
        <time>2024-11-29T14:40:21Z</time>
      </trkpt>
      <trkpt lat="45.89033" lon="1.25351">
        <ele>367.2</ele>
        <time>2024-11-29T14:40:22Z</time>
      </trkpt>
      <trkpt lat="45.89036" lon="1.25348">
        <ele>367.7</ele>
        <time>2024-11-29T14:40:23Z</time>
      </trkpt>
      <trkpt lat="45.89038" lon="1.25344">
        <ele>368.2</ele>
        <time>2024-11-29T14:40:24Z</time>
      </trkpt>
      <trkpt lat="45.8904" lon="1.25341">
        <ele>368.7</ele>
        <time>2024-11-29T14:40:25Z</time>
      </trkpt>
      <trkpt lat="45.89042" lon="1.25338">
        <ele>369</ele>
        <time>2024-11-29T14:40:26Z</time>
      </trkpt>
      <trkpt lat="45.89044" lon="1.25335">
        <ele>369.4</ele>
        <time>2024-11-29T14:40:27Z</time>
      </trkpt>
      <trkpt lat="45.89046" lon="1.25332">
        <ele>369.7</ele>
        <time>2024-11-29T14:40:28Z</time>
      </trkpt>
      <trkpt lat="45.89049" lon="1.25329">
        <ele>370.1</ele>
        <time>2024-11-29T14:40:29Z</time>
      </trkpt>
      <trkpt lat="45.89051" lon="1.25327">
        <ele>370.3</ele>
        <time>2024-11-29T14:40:30Z</time>
      </trkpt>
      <trkpt lat="45.89055" lon="1.25325">
        <ele>370.6</ele>
        <time>2024-11-29T14:40:31Z</time>
      </trkpt>
      <trkpt lat="45.89058" lon="1.2532">
        <ele>370.9</ele>
        <time>2024-11-29T14:40:32Z</time>
      </trkpt>
      <trkpt lat="45.89062" lon="1.25316">
        <ele>371.1</ele>
        <time>2024-11-29T14:40:33Z</time>
      </trkpt>
      <trkpt lat="45.89065" lon="1.25313">
        <ele>371.3</ele>
        <time>2024-11-29T14:40:34Z</time>
      </trkpt>
      <trkpt lat="45.89069" lon="1.25308">
        <ele>371.5</ele>
        <time>2024-11-29T14:40:35Z</time>
      </trkpt>
      <trkpt lat="45.89073" lon="1.25302">
        <ele>371.7</ele>
        <time>2024-11-29T14:40:36Z</time>
      </trkpt>
      <trkpt lat="45.89077" lon="1.25298">
        <ele>371.8</ele>
        <time>2024-11-29T14:40:37Z</time>
      </trkpt>
      <trkpt lat="45.89082" lon="1.25293">
        <ele>371.8</ele>
        <time>2024-11-29T14:40:38Z</time>
      </trkpt>
      <trkpt lat="45.89085" lon="1.25287">
        <ele>371.8</ele>
        <time>2024-11-29T14:40:39Z</time>
      </trkpt>
      <trkpt lat="45.89088" lon="1.25283">
        <ele>371.7</ele>
        <time>2024-11-29T14:40:40Z</time>
      </trkpt>
      <trkpt lat="45.89091" lon="1.25279">
        <ele>371.7</ele>
        <time>2024-11-29T14:40:41Z</time>
      </trkpt>
      <trkpt lat="45.89095" lon="1.25272">
        <ele>371.5</ele>
        <time>2024-11-29T14:40:42Z</time>
      </trkpt>
      <trkpt lat="45.89098" lon="1.25266">
        <ele>371.5</ele>
        <time>2024-11-29T14:40:43Z</time>
      </trkpt>
      <trkpt lat="45.89102" lon="1.25259">
        <ele>371.4</ele>
        <time>2024-11-29T14:40:44Z</time>
      </trkpt>
      <trkpt lat="45.89107" lon="1.25252">
        <ele>371.3</ele>
        <time>2024-11-29T14:40:45Z</time>
      </trkpt>
      <trkpt lat="45.8911" lon="1.25246">
        <ele>371.3</ele>
        <time>2024-11-29T14:40:46Z</time>
      </trkpt>
      <trkpt lat="45.89115" lon="1.25241">
        <ele>371.3</ele>
        <time>2024-11-29T14:40:47Z</time>
      </trkpt>
      <trkpt lat="45.89119" lon="1.25235">
        <ele>371.4</ele>
        <time>2024-11-29T14:40:48Z</time>
      </trkpt>
      <trkpt lat="45.89123" lon="1.25231">
        <ele>371.5</ele>
        <time>2024-11-29T14:40:49Z</time>
      </trkpt>
      <trkpt lat="45.89127" lon="1.25226">
        <ele>371.6</ele>
        <time>2024-11-29T14:40:50Z</time>
      </trkpt>
      <trkpt lat="45.89132" lon="1.25222">
        <ele>371.6</ele>
        <time>2024-11-29T14:40:52Z</time>
      </trkpt>
      <trkpt lat="45.89137" lon="1.25219">
        <ele>371.7</ele>
        <time>2024-11-29T14:40:54Z</time>
      </trkpt>
      <trkpt lat="45.8914" lon="1.25216">
        <ele>371.7</ele>
        <time>2024-11-29T14:40:55Z</time>
      </trkpt>
      <trkpt lat="45.89145" lon="1.25209">
        <ele>371.5</ele>
        <time>2024-11-29T14:40:56Z</time>
      </trkpt>
      <trkpt lat="45.8915" lon="1.25201">
        <ele>371.2</ele>
        <time>2024-11-29T14:40:57Z</time>
      </trkpt>
      <trkpt lat="45.89153" lon="1.25194">
        <ele>370.9</ele>
        <time>2024-11-29T14:40:58Z</time>
      </trkpt>
      <trkpt lat="45.89156" lon="1.25189">
        <ele>370.6</ele>
        <time>2024-11-29T14:40:59Z</time>
      </trkpt>
      <trkpt lat="45.89158" lon="1.25182">
        <ele>370.2</ele>
        <time>2024-11-29T14:41:00Z</time>
      </trkpt>
      <trkpt lat="45.89162" lon="1.25176">
        <ele>369.8</ele>
        <time>2024-11-29T14:41:01Z</time>
      </trkpt>
      <trkpt lat="45.89165" lon="1.25169">
        <ele>369.4</ele>
        <time>2024-11-29T14:41:02Z</time>
      </trkpt>
      <trkpt lat="45.89169" lon="1.25162">
        <ele>369</ele>
        <time>2024-11-29T14:41:03Z</time>
      </trkpt>
      <trkpt lat="45.89172" lon="1.25154">
        <ele>368.6</ele>
        <time>2024-11-29T14:41:04Z</time>
      </trkpt>
      <trkpt lat="45.89174" lon="1.25147">
        <ele>368.4</ele>
        <time>2024-11-29T14:41:05Z</time>
      </trkpt>
      <trkpt lat="45.89176" lon="1.25142">
        <ele>368.3</ele>
        <time>2024-11-29T14:41:06Z</time>
      </trkpt>
      <trkpt lat="45.89176" lon="1.25138">
        <ele>368.2</ele>
        <time>2024-11-29T14:41:07Z</time>
      </trkpt>
      <trkpt lat="45.89177" lon="1.25132">
        <ele>368.1</ele>
        <time>2024-11-29T14:41:08Z</time>
      </trkpt>
      <trkpt lat="45.89177" lon="1.25126">
        <ele>368</ele>
        <time>2024-11-29T14:41:09Z</time>
      </trkpt>
      <trkpt lat="45.89177" lon="1.25121">
        <ele>367.9</ele>
        <time>2024-11-29T14:41:10Z</time>
      </trkpt>
      <trkpt lat="45.89177" lon="1.25117">
        <ele>367.9</ele>
        <time>2024-11-29T14:41:12Z</time>
      </trkpt>
      <trkpt lat="45.89178" lon="1.25112">
        <ele>367.9</ele>
        <time>2024-11-29T14:41:18Z</time>
      </trkpt>
      <trkpt lat="45.89179" lon="1.25109">
        <ele>367.9</ele>
        <time>2024-11-29T14:41:22Z</time>
      </trkpt>
      <trkpt lat="45.89178" lon="1.25104">
        <ele>367.9</ele>
        <time>2024-11-29T14:41:24Z</time>
      </trkpt>
      <trkpt lat="45.89176" lon="1.251">
        <ele>368</ele>
        <time>2024-11-29T14:41:25Z</time>
      </trkpt>
      <trkpt lat="45.89173" lon="1.25098">
        <ele>368</ele>
        <time>2024-11-29T14:41:26Z</time>
      </trkpt>
      <trkpt lat="45.89169" lon="1.25095">
        <ele>368.1</ele>
        <time>2024-11-29T14:41:27Z</time>
      </trkpt>
      <trkpt lat="45.89165" lon="1.25092">
        <ele>368.2</ele>
        <time>2024-11-29T14:41:28Z</time>
      </trkpt>
      <trkpt lat="45.8916" lon="1.25089">
        <ele>368.4</ele>
        <time>2024-11-29T14:41:29Z</time>
      </trkpt>
      <trkpt lat="45.89156" lon="1.25085">
        <ele>368.6</ele>
        <time>2024-11-29T14:41:30Z</time>
      </trkpt>
      <trkpt lat="45.89152" lon="1.25084">
        <ele>368.8</ele>
        <time>2024-11-29T14:41:31Z</time>
      </trkpt>
      <trkpt lat="45.89147" lon="1.25081">
        <ele>369</ele>
        <time>2024-11-29T14:41:32Z</time>
      </trkpt>
      <trkpt lat="45.89143" lon="1.25078">
        <ele>369.3</ele>
        <time>2024-11-29T14:41:33Z</time>
      </trkpt>
      <trkpt lat="45.89139" lon="1.25077">
        <ele>369.5</ele>
        <time>2024-11-29T14:41:34Z</time>
      </trkpt>
      <trkpt lat="45.89134" lon="1.25074">
        <ele>369.8</ele>
        <time>2024-11-29T14:41:35Z</time>
      </trkpt>
      <trkpt lat="45.8913" lon="1.25072">
        <ele>370.1</ele>
        <time>2024-11-29T14:41:36Z</time>
      </trkpt>
      <trkpt lat="45.89126" lon="1.2507">
        <ele>370.5</ele>
        <time>2024-11-29T14:41:37Z</time>
      </trkpt>
      <trkpt lat="45.89122" lon="1.25067">
        <ele>370.9</ele>
        <time>2024-11-29T14:41:38Z</time>
      </trkpt>
      <trkpt lat="45.89118" lon="1.25065">
        <ele>371.3</ele>
        <time>2024-11-29T14:41:39Z</time>
      </trkpt>
      <trkpt lat="45.89115" lon="1.25063">
        <ele>371.6</ele>
        <time>2024-11-29T14:41:40Z</time>
      </trkpt>
      <trkpt lat="45.89111" lon="1.25062">
        <ele>372</ele>
        <time>2024-11-29T14:41:41Z</time>
      </trkpt>
      <trkpt lat="45.89107" lon="1.25059">
        <ele>372.5</ele>
        <time>2024-11-29T14:41:42Z</time>
      </trkpt>
      <trkpt lat="45.89102" lon="1.25057">
        <ele>373</ele>
        <time>2024-11-29T14:41:43Z</time>
      </trkpt>
      <trkpt lat="45.89097" lon="1.25055">
        <ele>373.5</ele>
        <time>2024-11-29T14:41:44Z</time>
      </trkpt>
      <trkpt lat="45.89093" lon="1.25052">
        <ele>373.9</ele>
        <time>2024-11-29T14:41:45Z</time>
      </trkpt>
      <trkpt lat="45.89088" lon="1.25049">
        <ele>374.4</ele>
        <time>2024-11-29T14:41:46Z</time>
      </trkpt>
      <trkpt lat="45.89083" lon="1.25046">
        <ele>374.9</ele>
        <time>2024-11-29T14:41:47Z</time>
      </trkpt>
      <trkpt lat="45.89078" lon="1.25042">
        <ele>375.5</ele>
        <time>2024-11-29T14:41:48Z</time>
      </trkpt>
      <trkpt lat="45.89073" lon="1.25039">
        <ele>376</ele>
        <time>2024-11-29T14:41:49Z</time>
      </trkpt>
      <trkpt lat="45.89068" lon="1.25035">
        <ele>376.5</ele>
        <time>2024-11-29T14:41:50Z</time>
      </trkpt>
      <trkpt lat="45.89063" lon="1.25032">
        <ele>377</ele>
        <time>2024-11-29T14:41:51Z</time>
      </trkpt>
      <trkpt lat="45.89059" lon="1.25029">
        <ele>377.4</ele>
        <time>2024-11-29T14:41:52Z</time>
      </trkpt>
      <trkpt lat="45.89054" lon="1.25026">
        <ele>377.9</ele>
        <time>2024-11-29T14:41:53Z</time>
      </trkpt>
      <trkpt lat="45.8905" lon="1.25022">
        <ele>378.3</ele>
        <time>2024-11-29T14:41:54Z</time>
      </trkpt>
      <trkpt lat="45.89046" lon="1.25018">
        <ele>378.8</ele>
        <time>2024-11-29T14:41:55Z</time>
      </trkpt>
      <trkpt lat="45.89041" lon="1.25014">
        <ele>379.3</ele>
        <time>2024-11-29T14:41:56Z</time>
      </trkpt>
      <trkpt lat="45.89037" lon="1.25009">
        <ele>379.7</ele>
        <time>2024-11-29T14:41:57Z</time>
      </trkpt>
      <trkpt lat="45.89032" lon="1.25005">
        <ele>380.2</ele>
        <time>2024-11-29T14:41:58Z</time>
      </trkpt>
      <trkpt lat="45.89028" lon="1.25">
        <ele>380.7</ele>
        <time>2024-11-29T14:41:59Z</time>
      </trkpt>
      <trkpt lat="45.89023" lon="1.24996">
        <ele>381.1</ele>
        <time>2024-11-29T14:42:00Z</time>
      </trkpt>
      <trkpt lat="45.89019" lon="1.24991">
        <ele>381.6</ele>
        <time>2024-11-29T14:42:01Z</time>
      </trkpt>
      <trkpt lat="45.89014" lon="1.24986">
        <ele>382.1</ele>
        <time>2024-11-29T14:42:02Z</time>
      </trkpt>
      <trkpt lat="45.8901" lon="1.24981">
        <ele>382.5</ele>
        <time>2024-11-29T14:42:03Z</time>
      </trkpt>
      <trkpt lat="45.89006" lon="1.24976">
        <ele>382.9</ele>
        <time>2024-11-29T14:42:04Z</time>
      </trkpt>
      <trkpt lat="45.89001" lon="1.24971">
        <ele>383.4</ele>
        <time>2024-11-29T14:42:05Z</time>
      </trkpt>
      <trkpt lat="45.88997" lon="1.24966">
        <ele>383.8</ele>
        <time>2024-11-29T14:42:06Z</time>
      </trkpt>
      <trkpt lat="45.88993" lon="1.24962">
        <ele>384.2</ele>
        <time>2024-11-29T14:42:07Z</time>
      </trkpt>
      <trkpt lat="45.88988" lon="1.24957">
        <ele>384.7</ele>
        <time>2024-11-29T14:42:08Z</time>
      </trkpt>
      <trkpt lat="45.88984" lon="1.24953">
        <ele>385.1</ele>
        <time>2024-11-29T14:42:09Z</time>
      </trkpt>
      <trkpt lat="45.8898" lon="1.24949">
        <ele>385.4</ele>
        <time>2024-11-29T14:42:10Z</time>
      </trkpt>
      <trkpt lat="45.88976" lon="1.24945">
        <ele>385.7</ele>
        <time>2024-11-29T14:42:11Z</time>
      </trkpt>
      <trkpt lat="45.88972" lon="1.24941">
        <ele>386</ele>
        <time>2024-11-29T14:42:12Z</time>
      </trkpt>
      <trkpt lat="45.88968" lon="1.24936">
        <ele>386.3</ele>
        <time>2024-11-29T14:42:13Z</time>
      </trkpt>
      <trkpt lat="45.88965" lon="1.24931">
        <ele>386.5</ele>
        <time>2024-11-29T14:42:14Z</time>
      </trkpt>
      <trkpt lat="45.88961" lon="1.24926">
        <ele>386.8</ele>
        <time>2024-11-29T14:42:15Z</time>
      </trkpt>
      <trkpt lat="45.88957" lon="1.24922">
        <ele>387</ele>
        <time>2024-11-29T14:42:16Z</time>
      </trkpt>
      <trkpt lat="45.88953" lon="1.24919">
        <ele>387.1</ele>
        <time>2024-11-29T14:42:17Z</time>
      </trkpt>
      <trkpt lat="45.88949" lon="1.24915">
        <ele>387.3</ele>
        <time>2024-11-29T14:42:18Z</time>
      </trkpt>
      <trkpt lat="45.88945" lon="1.24912">
        <ele>387.4</ele>
        <time>2024-11-29T14:42:19Z</time>
      </trkpt>
      <trkpt lat="45.88941" lon="1.24907">
        <ele>387.5</ele>
        <time>2024-11-29T14:42:20Z</time>
      </trkpt>
      <trkpt lat="45.88937" lon="1.24902">
        <ele>387.6</ele>
        <time>2024-11-29T14:42:21Z</time>
      </trkpt>
      <trkpt lat="45.88932" lon="1.24898">
        <ele>387.8</ele>
        <time>2024-11-29T14:42:22Z</time>
      </trkpt>
      <trkpt lat="45.88928" lon="1.24893">
        <ele>387.9</ele>
        <time>2024-11-29T14:42:23Z</time>
      </trkpt>
      <trkpt lat="45.88924" lon="1.24888">
        <ele>388</ele>
        <time>2024-11-29T14:42:24Z</time>
      </trkpt>
      <trkpt lat="45.8892" lon="1.24882">
        <ele>388.1</ele>
        <time>2024-11-29T14:42:25Z</time>
      </trkpt>
      <trkpt lat="45.88916" lon="1.24877">
        <ele>388.3</ele>
        <time>2024-11-29T14:42:26Z</time>
      </trkpt>
      <trkpt lat="45.88912" lon="1.24872">
        <ele>388.4</ele>
        <time>2024-11-29T14:42:27Z</time>
      </trkpt>
      <trkpt lat="45.88907" lon="1.24867">
        <ele>388.6</ele>
        <time>2024-11-29T14:42:28Z</time>
      </trkpt>
      <trkpt lat="45.88903" lon="1.24862">
        <ele>388.8</ele>
        <time>2024-11-29T14:42:29Z</time>
      </trkpt>
      <trkpt lat="45.88899" lon="1.24856">
        <ele>389</ele>
        <time>2024-11-29T14:42:30Z</time>
      </trkpt>
      <trkpt lat="45.88895" lon="1.24852">
        <ele>389.2</ele>
        <time>2024-11-29T14:42:31Z</time>
      </trkpt>
      <trkpt lat="45.88891" lon="1.24847">
        <ele>389.3</ele>
        <time>2024-11-29T14:42:32Z</time>
      </trkpt>
      <trkpt lat="45.88888" lon="1.24843">
        <ele>389.5</ele>
        <time>2024-11-29T14:42:33Z</time>
      </trkpt>
      <trkpt lat="45.88884" lon="1.24838">
        <ele>389.6</ele>
        <time>2024-11-29T14:42:34Z</time>
      </trkpt>
      <trkpt lat="45.88881" lon="1.24833">
        <ele>389.7</ele>
        <time>2024-11-29T14:42:35Z</time>
      </trkpt>
      <trkpt lat="45.88877" lon="1.24829">
        <ele>389.9</ele>
        <time>2024-11-29T14:42:36Z</time>
      </trkpt>
      <trkpt lat="45.88873" lon="1.24824">
        <ele>390</ele>
        <time>2024-11-29T14:42:37Z</time>
      </trkpt>
      <trkpt lat="45.88869" lon="1.24819">
        <ele>390.1</ele>
        <time>2024-11-29T14:42:38Z</time>
      </trkpt>
      <trkpt lat="45.88865" lon="1.24813">
        <ele>390.3</ele>
        <time>2024-11-29T14:42:39Z</time>
      </trkpt>
      <trkpt lat="45.88861" lon="1.24808">
        <ele>390.4</ele>
        <time>2024-11-29T14:42:40Z</time>
      </trkpt>
      <trkpt lat="45.88857" lon="1.24802">
        <ele>390.5</ele>
        <time>2024-11-29T14:42:41Z</time>
      </trkpt>
      <trkpt lat="45.88852" lon="1.24797">
        <ele>390.5</ele>
        <time>2024-11-29T14:42:42Z</time>
      </trkpt>
      <trkpt lat="45.88848" lon="1.24792">
        <ele>390.5</ele>
        <time>2024-11-29T14:42:43Z</time>
      </trkpt>
      <trkpt lat="45.88844" lon="1.24787">
        <ele>390.6</ele>
        <time>2024-11-29T14:42:44Z</time>
      </trkpt>
      <trkpt lat="45.8884" lon="1.24781">
        <ele>390.7</ele>
        <time>2024-11-29T14:42:45Z</time>
      </trkpt>
      <trkpt lat="45.88836" lon="1.24775">
        <ele>390.7</ele>
        <time>2024-11-29T14:42:46Z</time>
      </trkpt>
      <trkpt lat="45.88832" lon="1.2477">
        <ele>390.8</ele>
        <time>2024-11-29T14:42:47Z</time>
      </trkpt>
      <trkpt lat="45.88827" lon="1.24764">
        <ele>390.9</ele>
        <time>2024-11-29T14:42:48Z</time>
      </trkpt>
      <trkpt lat="45.88823" lon="1.24759">
        <ele>390.9</ele>
        <time>2024-11-29T14:42:49Z</time>
      </trkpt>
      <trkpt lat="45.88819" lon="1.24754">
        <ele>391</ele>
        <time>2024-11-29T14:42:50Z</time>
      </trkpt>
      <trkpt lat="45.88815" lon="1.24749">
        <ele>391.1</ele>
        <time>2024-11-29T14:42:51Z</time>
      </trkpt>
      <trkpt lat="45.88811" lon="1.24744">
        <ele>391.2</ele>
        <time>2024-11-29T14:42:52Z</time>
      </trkpt>
      <trkpt lat="45.88807" lon="1.24739">
        <ele>391.2</ele>
        <time>2024-11-29T14:42:53Z</time>
      </trkpt>
      <trkpt lat="45.88803" lon="1.24734">
        <ele>391.3</ele>
        <time>2024-11-29T14:42:54Z</time>
      </trkpt>
      <trkpt lat="45.88799" lon="1.2473">
        <ele>391.3</ele>
        <time>2024-11-29T14:42:55Z</time>
      </trkpt>
      <trkpt lat="45.88794" lon="1.24725">
        <ele>391.4</ele>
        <time>2024-11-29T14:42:56Z</time>
      </trkpt>
      <trkpt lat="45.8879" lon="1.24721">
        <ele>391.4</ele>
        <time>2024-11-29T14:42:57Z</time>
      </trkpt>
      <trkpt lat="45.88785" lon="1.24717">
        <ele>391.4</ele>
        <time>2024-11-29T14:42:58Z</time>
      </trkpt>
      <trkpt lat="45.88781" lon="1.24713">
        <ele>391.5</ele>
        <time>2024-11-29T14:42:59Z</time>
      </trkpt>
      <trkpt lat="45.88777" lon="1.24709">
        <ele>391.5</ele>
        <time>2024-11-29T14:43:00Z</time>
      </trkpt>
      <trkpt lat="45.88772" lon="1.24706">
        <ele>391.5</ele>
        <time>2024-11-29T14:43:01Z</time>
      </trkpt>
      <trkpt lat="45.88768" lon="1.24703">
        <ele>391.5</ele>
        <time>2024-11-29T14:43:02Z</time>
      </trkpt>
      <trkpt lat="45.88764" lon="1.24702">
        <ele>391.5</ele>
        <time>2024-11-29T14:43:03Z</time>
      </trkpt>
      <trkpt lat="45.8876" lon="1.247">
        <ele>391.5</ele>
        <time>2024-11-29T14:43:04Z</time>
      </trkpt>
      <trkpt lat="45.88755" lon="1.24698">
        <ele>391.5</ele>
        <time>2024-11-29T14:43:05Z</time>
      </trkpt>
      <trkpt lat="45.8875" lon="1.24695">
        <ele>391.5</ele>
        <time>2024-11-29T14:43:06Z</time>
      </trkpt>
      <trkpt lat="45.88744" lon="1.24692">
        <ele>391.5</ele>
        <time>2024-11-29T14:43:07Z</time>
      </trkpt>
      <trkpt lat="45.88739" lon="1.2469">
        <ele>391.5</ele>
        <time>2024-11-29T14:43:08Z</time>
      </trkpt>
      <trkpt lat="45.88733" lon="1.24688">
        <ele>391.5</ele>
        <time>2024-11-29T14:43:09Z</time>
      </trkpt>
      <trkpt lat="45.88728" lon="1.24686">
        <ele>391.5</ele>
        <time>2024-11-29T14:43:10Z</time>
      </trkpt>
      <trkpt lat="45.88723" lon="1.24684">
        <ele>391.4</ele>
        <time>2024-11-29T14:43:11Z</time>
      </trkpt>
      <trkpt lat="45.88718" lon="1.24681">
        <ele>391.4</ele>
        <time>2024-11-29T14:43:12Z</time>
      </trkpt>
      <trkpt lat="45.88712" lon="1.24679">
        <ele>391.3</ele>
        <time>2024-11-29T14:43:13Z</time>
      </trkpt>
      <trkpt lat="45.88707" lon="1.24676">
        <ele>391.2</ele>
        <time>2024-11-29T14:43:14Z</time>
      </trkpt>
      <trkpt lat="45.88701" lon="1.24674">
        <ele>391.1</ele>
        <time>2024-11-29T14:43:15Z</time>
      </trkpt>
      <trkpt lat="45.88696" lon="1.24672">
        <ele>391</ele>
        <time>2024-11-29T14:43:16Z</time>
      </trkpt>
      <trkpt lat="45.88691" lon="1.2467">
        <ele>390.9</ele>
        <time>2024-11-29T14:43:17Z</time>
      </trkpt>
      <trkpt lat="45.88685" lon="1.24668">
        <ele>390.8</ele>
        <time>2024-11-29T14:43:18Z</time>
      </trkpt>
      <trkpt lat="45.8868" lon="1.24665">
        <ele>390.7</ele>
        <time>2024-11-29T14:43:19Z</time>
      </trkpt>
      <trkpt lat="45.88674" lon="1.24662">
        <ele>390.6</ele>
        <time>2024-11-29T14:43:20Z</time>
      </trkpt>
      <trkpt lat="45.88667" lon="1.2466">
        <ele>390.5</ele>
        <time>2024-11-29T14:43:21Z</time>
      </trkpt>
      <trkpt lat="45.88661" lon="1.24657">
        <ele>390.4</ele>
        <time>2024-11-29T14:43:22Z</time>
      </trkpt>
      <trkpt lat="45.88655" lon="1.24654">
        <ele>390.3</ele>
        <time>2024-11-29T14:43:23Z</time>
      </trkpt>
      <trkpt lat="45.88648" lon="1.24651">
        <ele>390.2</ele>
        <time>2024-11-29T14:43:24Z</time>
      </trkpt>
      <trkpt lat="45.88642" lon="1.24648">
        <ele>390.1</ele>
        <time>2024-11-29T14:43:25Z</time>
      </trkpt>
      <trkpt lat="45.88636" lon="1.24644">
        <ele>390</ele>
        <time>2024-11-29T14:43:26Z</time>
      </trkpt>
      <trkpt lat="45.88631" lon="1.24641">
        <ele>389.9</ele>
        <time>2024-11-29T14:43:27Z</time>
      </trkpt>
      <trkpt lat="45.88625" lon="1.24637">
        <ele>389.8</ele>
        <time>2024-11-29T14:43:28Z</time>
      </trkpt>
      <trkpt lat="45.8862" lon="1.24633">
        <ele>389.7</ele>
        <time>2024-11-29T14:43:29Z</time>
      </trkpt>
      <trkpt lat="45.88614" lon="1.2463">
        <ele>389.6</ele>
        <time>2024-11-29T14:43:30Z</time>
      </trkpt>
      <trkpt lat="45.88609" lon="1.24627">
        <ele>389.5</ele>
        <time>2024-11-29T14:43:31Z</time>
      </trkpt>
      <trkpt lat="45.88603" lon="1.24623">
        <ele>389.4</ele>
        <time>2024-11-29T14:43:32Z</time>
      </trkpt>
      <trkpt lat="45.88598" lon="1.24619">
        <ele>389.3</ele>
        <time>2024-11-29T14:43:33Z</time>
      </trkpt>
      <trkpt lat="45.88592" lon="1.24615">
        <ele>389.2</ele>
        <time>2024-11-29T14:43:34Z</time>
      </trkpt>
      <trkpt lat="45.88586" lon="1.24612">
        <ele>389.1</ele>
        <time>2024-11-29T14:43:35Z</time>
      </trkpt>
      <trkpt lat="45.88581" lon="1.24609">
        <ele>389.1</ele>
        <time>2024-11-29T14:43:36Z</time>
      </trkpt>
      <trkpt lat="45.88575" lon="1.24606">
        <ele>389</ele>
        <time>2024-11-29T14:43:37Z</time>
      </trkpt>
      <trkpt lat="45.8857" lon="1.24602">
        <ele>388.9</ele>
        <time>2024-11-29T14:43:38Z</time>
      </trkpt>
      <trkpt lat="45.88564" lon="1.24598">
        <ele>388.8</ele>
        <time>2024-11-29T14:43:39Z</time>
      </trkpt>
      <trkpt lat="45.88559" lon="1.24595">
        <ele>388.7</ele>
        <time>2024-11-29T14:43:40Z</time>
      </trkpt>
      <trkpt lat="45.88553" lon="1.24591">
        <ele>388.6</ele>
        <time>2024-11-29T14:43:41Z</time>
      </trkpt>
      <trkpt lat="45.88548" lon="1.24586">
        <ele>388.5</ele>
        <time>2024-11-29T14:43:42Z</time>
      </trkpt>
      <trkpt lat="45.88543" lon="1.24581">
        <ele>388.3</ele>
        <time>2024-11-29T14:43:43Z</time>
      </trkpt>
      <trkpt lat="45.88538" lon="1.24576">
        <ele>388.2</ele>
        <time>2024-11-29T14:43:44Z</time>
      </trkpt>
      <trkpt lat="45.88533" lon="1.2457">
        <ele>388</ele>
        <time>2024-11-29T14:43:45Z</time>
      </trkpt>
      <trkpt lat="45.88529" lon="1.24564">
        <ele>387.8</ele>
        <time>2024-11-29T14:43:46Z</time>
      </trkpt>
      <trkpt lat="45.88524" lon="1.24558">
        <ele>387.6</ele>
        <time>2024-11-29T14:43:47Z</time>
      </trkpt>
      <trkpt lat="45.88519" lon="1.24551">
        <ele>387.4</ele>
        <time>2024-11-29T14:43:48Z</time>
      </trkpt>
      <trkpt lat="45.88514" lon="1.24544">
        <ele>387.2</ele>
        <time>2024-11-29T14:43:49Z</time>
      </trkpt>
      <trkpt lat="45.88509" lon="1.24538">
        <ele>387</ele>
        <time>2024-11-29T14:43:50Z</time>
      </trkpt>
      <trkpt lat="45.88505" lon="1.24531">
        <ele>386.9</ele>
        <time>2024-11-29T14:43:51Z</time>
      </trkpt>
      <trkpt lat="45.88501" lon="1.24524">
        <ele>386.7</ele>
        <time>2024-11-29T14:43:52Z</time>
      </trkpt>
      <trkpt lat="45.88496" lon="1.24518">
        <ele>386.6</ele>
        <time>2024-11-29T14:43:53Z</time>
      </trkpt>
      <trkpt lat="45.88492" lon="1.24511">
        <ele>386.4</ele>
        <time>2024-11-29T14:43:54Z</time>
      </trkpt>
      <trkpt lat="45.88487" lon="1.24504">
        <ele>386.3</ele>
        <time>2024-11-29T14:43:55Z</time>
      </trkpt>
      <trkpt lat="45.88483" lon="1.24497">
        <ele>386.2</ele>
        <time>2024-11-29T14:43:56Z</time>
      </trkpt>
      <trkpt lat="45.88479" lon="1.24491">
        <ele>386.2</ele>
        <time>2024-11-29T14:43:57Z</time>
      </trkpt>
      <trkpt lat="45.88475" lon="1.24485">
        <ele>386.1</ele>
        <time>2024-11-29T14:43:58Z</time>
      </trkpt>
      <trkpt lat="45.88471" lon="1.24478">
        <ele>386</ele>
        <time>2024-11-29T14:43:59Z</time>
      </trkpt>
      <trkpt lat="45.88466" lon="1.24472">
        <ele>386</ele>
        <time>2024-11-29T14:44:00Z</time>
      </trkpt>
      <trkpt lat="45.88462" lon="1.24466">
        <ele>385.9</ele>
        <time>2024-11-29T14:44:01Z</time>
      </trkpt>
      <trkpt lat="45.88457" lon="1.2446">
        <ele>385.9</ele>
        <time>2024-11-29T14:44:02Z</time>
      </trkpt>
      <trkpt lat="45.88452" lon="1.24453">
        <ele>385.8</ele>
        <time>2024-11-29T14:44:03Z</time>
      </trkpt>
      <trkpt lat="45.88448" lon="1.24447">
        <ele>385.7</ele>
        <time>2024-11-29T14:44:04Z</time>
      </trkpt>
      <trkpt lat="45.88443" lon="1.24441">
        <ele>385.7</ele>
        <time>2024-11-29T14:44:05Z</time>
      </trkpt>
      <trkpt lat="45.88438" lon="1.24436">
        <ele>385.6</ele>
        <time>2024-11-29T14:44:06Z</time>
      </trkpt>
      <trkpt lat="45.88433" lon="1.24431">
        <ele>385.6</ele>
        <time>2024-11-29T14:44:07Z</time>
      </trkpt>
      <trkpt lat="45.88429" lon="1.24425">
        <ele>385.5</ele>
        <time>2024-11-29T14:44:08Z</time>
      </trkpt>
      <trkpt lat="45.88425" lon="1.2442">
        <ele>385.5</ele>
        <time>2024-11-29T14:44:09Z</time>
      </trkpt>
      <trkpt lat="45.88421" lon="1.24415">
        <ele>385.5</ele>
        <time>2024-11-29T14:44:10Z</time>
      </trkpt>
      <trkpt lat="45.88417" lon="1.2441">
        <ele>385.4</ele>
        <time>2024-11-29T14:44:11Z</time>
      </trkpt>
      <trkpt lat="45.88414" lon="1.24406">
        <ele>385.4</ele>
        <time>2024-11-29T14:44:12Z</time>
      </trkpt>
      <trkpt lat="45.88409" lon="1.24401">
        <ele>385.3</ele>
        <time>2024-11-29T14:44:13Z</time>
      </trkpt>
      <trkpt lat="45.88405" lon="1.24396">
        <ele>385.3</ele>
        <time>2024-11-29T14:44:14Z</time>
      </trkpt>
      <trkpt lat="45.884" lon="1.24391">
        <ele>385.2</ele>
        <time>2024-11-29T14:44:15Z</time>
      </trkpt>
      <trkpt lat="45.88395" lon="1.24386">
        <ele>385.2</ele>
        <time>2024-11-29T14:44:16Z</time>
      </trkpt>
      <trkpt lat="45.8839" lon="1.24381">
        <ele>385.1</ele>
        <time>2024-11-29T14:44:17Z</time>
      </trkpt>
      <trkpt lat="45.88385" lon="1.24376">
        <ele>385.1</ele>
        <time>2024-11-29T14:44:18Z</time>
      </trkpt>
      <trkpt lat="45.88381" lon="1.24371">
        <ele>385</ele>
        <time>2024-11-29T14:44:19Z</time>
      </trkpt>
      <trkpt lat="45.88377" lon="1.24365">
        <ele>384.9</ele>
        <time>2024-11-29T14:44:20Z</time>
      </trkpt>
      <trkpt lat="45.88373" lon="1.2436">
        <ele>384.8</ele>
        <time>2024-11-29T14:44:21Z</time>
      </trkpt>
      <trkpt lat="45.88368" lon="1.24355">
        <ele>384.7</ele>
        <time>2024-11-29T14:44:22Z</time>
      </trkpt>
      <trkpt lat="45.88364" lon="1.2435">
        <ele>384.7</ele>
        <time>2024-11-29T14:44:23Z</time>
      </trkpt>
      <trkpt lat="45.88359" lon="1.24346">
        <ele>384.6</ele>
        <time>2024-11-29T14:44:24Z</time>
      </trkpt>
      <trkpt lat="45.88356" lon="1.2434">
        <ele>384.5</ele>
        <time>2024-11-29T14:44:25Z</time>
      </trkpt>
      <trkpt lat="45.88352" lon="1.24336">
        <ele>384.4</ele>
        <time>2024-11-29T14:44:26Z</time>
      </trkpt>
      <trkpt lat="45.88347" lon="1.24332">
        <ele>384.3</ele>
        <time>2024-11-29T14:44:27Z</time>
      </trkpt>
      <trkpt lat="45.88343" lon="1.24327">
        <ele>384.2</ele>
        <time>2024-11-29T14:44:28Z</time>
      </trkpt>
      <trkpt lat="45.88339" lon="1.24322">
        <ele>384.2</ele>
        <time>2024-11-29T14:44:29Z</time>
      </trkpt>
      <trkpt lat="45.88336" lon="1.24317">
        <ele>384.1</ele>
        <time>2024-11-29T14:44:30Z</time>
      </trkpt>
      <trkpt lat="45.88333" lon="1.24311">
        <ele>384</ele>
        <time>2024-11-29T14:44:31Z</time>
      </trkpt>
      <trkpt lat="45.88329" lon="1.24306">
        <ele>383.9</ele>
        <time>2024-11-29T14:44:32Z</time>
      </trkpt>
      <trkpt lat="45.88326" lon="1.24301">
        <ele>383.8</ele>
        <time>2024-11-29T14:44:33Z</time>
      </trkpt>
      <trkpt lat="45.88322" lon="1.24296">
        <ele>383.7</ele>
        <time>2024-11-29T14:44:34Z</time>
      </trkpt>
      <trkpt lat="45.88319" lon="1.24291">
        <ele>383.6</ele>
        <time>2024-11-29T14:44:35Z</time>
      </trkpt>
      <trkpt lat="45.88315" lon="1.24285">
        <ele>383.5</ele>
        <time>2024-11-29T14:44:36Z</time>
      </trkpt>
      <trkpt lat="45.88312" lon="1.2428">
        <ele>383.4</ele>
        <time>2024-11-29T14:44:37Z</time>
      </trkpt>
      <trkpt lat="45.88309" lon="1.24274">
        <ele>383.3</ele>
        <time>2024-11-29T14:44:38Z</time>
      </trkpt>
      <trkpt lat="45.88305" lon="1.24268">
        <ele>383.1</ele>
        <time>2024-11-29T14:44:39Z</time>
      </trkpt>
      <trkpt lat="45.88301" lon="1.24263">
        <ele>383</ele>
        <time>2024-11-29T14:44:40Z</time>
      </trkpt>
      <trkpt lat="45.88298" lon="1.24257">
        <ele>382.9</ele>
        <time>2024-11-29T14:44:41Z</time>
      </trkpt>
      <trkpt lat="45.88294" lon="1.24251">
        <ele>382.7</ele>
        <time>2024-11-29T14:44:42Z</time>
      </trkpt>
      <trkpt lat="45.88291" lon="1.24244">
        <ele>382.6</ele>
        <time>2024-11-29T14:44:43Z</time>
      </trkpt>
      <trkpt lat="45.88287" lon="1.24238">
        <ele>382.5</ele>
        <time>2024-11-29T14:44:44Z</time>
      </trkpt>
      <trkpt lat="45.88284" lon="1.24232">
        <ele>382.3</ele>
        <time>2024-11-29T14:44:45Z</time>
      </trkpt>
      <trkpt lat="45.8828" lon="1.24226">
        <ele>382.2</ele>
        <time>2024-11-29T14:44:46Z</time>
      </trkpt>
      <trkpt lat="45.88277" lon="1.2422">
        <ele>382.1</ele>
        <time>2024-11-29T14:44:47Z</time>
      </trkpt>
      <trkpt lat="45.88273" lon="1.24214">
        <ele>382</ele>
        <time>2024-11-29T14:44:48Z</time>
      </trkpt>
      <trkpt lat="45.8827" lon="1.24207">
        <ele>381.9</ele>
        <time>2024-11-29T14:44:49Z</time>
      </trkpt>
      <trkpt lat="45.88266" lon="1.24201">
        <ele>381.8</ele>
        <time>2024-11-29T14:44:50Z</time>
      </trkpt>
      <trkpt lat="45.88262" lon="1.24195">
        <ele>381.7</ele>
        <time>2024-11-29T14:44:51Z</time>
      </trkpt>
      <trkpt lat="45.88259" lon="1.24189">
        <ele>381.6</ele>
        <time>2024-11-29T14:44:52Z</time>
      </trkpt>
      <trkpt lat="45.88255" lon="1.24183">
        <ele>381.5</ele>
        <time>2024-11-29T14:44:53Z</time>
      </trkpt>
      <trkpt lat="45.88252" lon="1.24176">
        <ele>381.5</ele>
        <time>2024-11-29T14:44:54Z</time>
      </trkpt>
      <trkpt lat="45.88248" lon="1.2417">
        <ele>381.4</ele>
        <time>2024-11-29T14:44:55Z</time>
      </trkpt>
      <trkpt lat="45.88245" lon="1.24165">
        <ele>381.3</ele>
        <time>2024-11-29T14:44:56Z</time>
      </trkpt>
      <trkpt lat="45.88241" lon="1.24159">
        <ele>381.2</ele>
        <time>2024-11-29T14:44:57Z</time>
      </trkpt>
      <trkpt lat="45.88237" lon="1.24152">
        <ele>381.1</ele>
        <time>2024-11-29T14:44:58Z</time>
      </trkpt>
      <trkpt lat="45.88234" lon="1.24147">
        <ele>381</ele>
        <time>2024-11-29T14:44:59Z</time>
      </trkpt>
      <trkpt lat="45.88229" lon="1.24141">
        <ele>381</ele>
        <time>2024-11-29T14:45:00Z</time>
      </trkpt>
      <trkpt lat="45.88226" lon="1.24134">
        <ele>380.9</ele>
        <time>2024-11-29T14:45:01Z</time>
      </trkpt>
      <trkpt lat="45.88222" lon="1.24128">
        <ele>380.8</ele>
        <time>2024-11-29T14:45:02Z</time>
      </trkpt>
      <trkpt lat="45.88217" lon="1.24122">
        <ele>380.8</ele>
        <time>2024-11-29T14:45:03Z</time>
      </trkpt>
      <trkpt lat="45.88213" lon="1.24116">
        <ele>380.7</ele>
        <time>2024-11-29T14:45:04Z</time>
      </trkpt>
      <trkpt lat="45.88208" lon="1.2411">
        <ele>380.6</ele>
        <time>2024-11-29T14:45:05Z</time>
      </trkpt>
      <trkpt lat="45.88204" lon="1.24104">
        <ele>380.6</ele>
        <time>2024-11-29T14:45:06Z</time>
      </trkpt>
      <trkpt lat="45.882" lon="1.24099">
        <ele>380.5</ele>
        <time>2024-11-29T14:45:07Z</time>
      </trkpt>
      <trkpt lat="45.88196" lon="1.24092">
        <ele>380.4</ele>
        <time>2024-11-29T14:45:08Z</time>
      </trkpt>
      <trkpt lat="45.88192" lon="1.24086">
        <ele>380.3</ele>
        <time>2024-11-29T14:45:09Z</time>
      </trkpt>
      <trkpt lat="45.88188" lon="1.2408">
        <ele>380.3</ele>
        <time>2024-11-29T14:45:10Z</time>
      </trkpt>
      <trkpt lat="45.88184" lon="1.24074">
        <ele>380.3</ele>
        <time>2024-11-29T14:45:11Z</time>
      </trkpt>
      <trkpt lat="45.8818" lon="1.24069">
        <ele>380.2</ele>
        <time>2024-11-29T14:45:12Z</time>
      </trkpt>
      <trkpt lat="45.88177" lon="1.24063">
        <ele>380.2</ele>
        <time>2024-11-29T14:45:13Z</time>
      </trkpt>
      <trkpt lat="45.88173" lon="1.24058">
        <ele>380.2</ele>
        <time>2024-11-29T14:45:14Z</time>
      </trkpt>
      <trkpt lat="45.88169" lon="1.24052">
        <ele>380.2</ele>
        <time>2024-11-29T14:45:15Z</time>
      </trkpt>
      <trkpt lat="45.88166" lon="1.24047">
        <ele>380.2</ele>
        <time>2024-11-29T14:45:16Z</time>
      </trkpt>
      <trkpt lat="45.88162" lon="1.24042">
        <ele>380.2</ele>
        <time>2024-11-29T14:45:17Z</time>
      </trkpt>
      <trkpt lat="45.88158" lon="1.24037">
        <ele>380.2</ele>
        <time>2024-11-29T14:45:18Z</time>
      </trkpt>
      <trkpt lat="45.88154" lon="1.24033">
        <ele>380.2</ele>
        <time>2024-11-29T14:45:19Z</time>
      </trkpt>
      <trkpt lat="45.88151" lon="1.2403">
        <ele>380.1</ele>
        <time>2024-11-29T14:45:20Z</time>
      </trkpt>
      <trkpt lat="45.88147" lon="1.24026">
        <ele>380</ele>
        <time>2024-11-29T14:45:21Z</time>
      </trkpt>
      <trkpt lat="45.88143" lon="1.24022">
        <ele>380</ele>
        <time>2024-11-29T14:45:22Z</time>
      </trkpt>
      <trkpt lat="45.88139" lon="1.24018">
        <ele>380</ele>
        <time>2024-11-29T14:45:23Z</time>
      </trkpt>
      <trkpt lat="45.88135" lon="1.24014">
        <ele>379.9</ele>
        <time>2024-11-29T14:45:24Z</time>
      </trkpt>
      <trkpt lat="45.88131" lon="1.2401">
        <ele>379.9</ele>
        <time>2024-11-29T14:45:25Z</time>
      </trkpt>
      <trkpt lat="45.88127" lon="1.24005">
        <ele>379.9</ele>
        <time>2024-11-29T14:45:26Z</time>
      </trkpt>
      <trkpt lat="45.88123" lon="1.24001">
        <ele>379.9</ele>
        <time>2024-11-29T14:45:27Z</time>
      </trkpt>
      <trkpt lat="45.88118" lon="1.23996">
        <ele>379.9</ele>
        <time>2024-11-29T14:45:28Z</time>
      </trkpt>
      <trkpt lat="45.88113" lon="1.23991">
        <ele>379.9</ele>
        <time>2024-11-29T14:45:29Z</time>
      </trkpt>
      <trkpt lat="45.88109" lon="1.23987">
        <ele>379.9</ele>
        <time>2024-11-29T14:45:30Z</time>
      </trkpt>
      <trkpt lat="45.88104" lon="1.23982">
        <ele>379.9</ele>
        <time>2024-11-29T14:45:31Z</time>
      </trkpt>
      <trkpt lat="45.88099" lon="1.23977">
        <ele>379.9</ele>
        <time>2024-11-29T14:45:32Z</time>
      </trkpt>
      <trkpt lat="45.88093" lon="1.23973">
        <ele>379.9</ele>
        <time>2024-11-29T14:45:33Z</time>
      </trkpt>
      <trkpt lat="45.88088" lon="1.23968">
        <ele>379.8</ele>
        <time>2024-11-29T14:45:34Z</time>
      </trkpt>
      <trkpt lat="45.88083" lon="1.23964">
        <ele>379.8</ele>
        <time>2024-11-29T14:45:35Z</time>
      </trkpt>
      <trkpt lat="45.88078" lon="1.2396">
        <ele>379.7</ele>
        <time>2024-11-29T14:45:36Z</time>
      </trkpt>
      <trkpt lat="45.88073" lon="1.23956">
        <ele>379.6</ele>
        <time>2024-11-29T14:45:37Z</time>
      </trkpt>
      <trkpt lat="45.88068" lon="1.23952">
        <ele>379.4</ele>
        <time>2024-11-29T14:45:38Z</time>
      </trkpt>
      <trkpt lat="45.88063" lon="1.23948">
        <ele>379.2</ele>
        <time>2024-11-29T14:45:39Z</time>
      </trkpt>
      <trkpt lat="45.88058" lon="1.23945">
        <ele>379</ele>
        <time>2024-11-29T14:45:40Z</time>
      </trkpt>
      <trkpt lat="45.88054" lon="1.23942">
        <ele>378.9</ele>
        <time>2024-11-29T14:45:41Z</time>
      </trkpt>
      <trkpt lat="45.8805" lon="1.2394">
        <ele>378.7</ele>
        <time>2024-11-29T14:45:42Z</time>
      </trkpt>
      <trkpt lat="45.88046" lon="1.23939">
        <ele>378.6</ele>
        <time>2024-11-29T14:45:43Z</time>
      </trkpt>
      <trkpt lat="45.88042" lon="1.2394">
        <ele>378.4</ele>
        <time>2024-11-29T14:45:44Z</time>
      </trkpt>
      <trkpt lat="45.88038" lon="1.23943">
        <ele>378.3</ele>
        <time>2024-11-29T14:45:45Z</time>
      </trkpt>
      <trkpt lat="45.88034" lon="1.23947">
        <ele>378.2</ele>
        <time>2024-11-29T14:45:46Z</time>
      </trkpt>
      <trkpt lat="45.8803" lon="1.23952">
        <ele>378.1</ele>
        <time>2024-11-29T14:45:47Z</time>
      </trkpt>
      <trkpt lat="45.88028" lon="1.23959">
        <ele>378</ele>
        <time>2024-11-29T14:45:48Z</time>
      </trkpt>
      <trkpt lat="45.88026" lon="1.23967">
        <ele>377.8</ele>
        <time>2024-11-29T14:45:49Z</time>
      </trkpt>
      <trkpt lat="45.88023" lon="1.23975">
        <ele>377.6</ele>
        <time>2024-11-29T14:45:50Z</time>
      </trkpt>
      <trkpt lat="45.88021" lon="1.23984">
        <ele>377.4</ele>
        <time>2024-11-29T14:45:51Z</time>
      </trkpt>
      <trkpt lat="45.88019" lon="1.23992">
        <ele>377.2</ele>
        <time>2024-11-29T14:45:52Z</time>
      </trkpt>
      <trkpt lat="45.88017" lon="1.24001">
        <ele>376.9</ele>
        <time>2024-11-29T14:45:53Z</time>
      </trkpt>
      <trkpt lat="45.88015" lon="1.24009">
        <ele>376.6</ele>
        <time>2024-11-29T14:45:54Z</time>
      </trkpt>
      <trkpt lat="45.88013" lon="1.24017">
        <ele>376.3</ele>
        <time>2024-11-29T14:45:55Z</time>
      </trkpt>
      <trkpt lat="45.8801" lon="1.24026">
        <ele>375.8</ele>
        <time>2024-11-29T14:45:56Z</time>
      </trkpt>
      <trkpt lat="45.88008" lon="1.24034">
        <ele>375.2</ele>
        <time>2024-11-29T14:45:57Z</time>
      </trkpt>
      <trkpt lat="45.88005" lon="1.24043">
        <ele>374.5</ele>
        <time>2024-11-29T14:45:58Z</time>
      </trkpt>
      <trkpt lat="45.88001" lon="1.24051">
        <ele>373.7</ele>
        <time>2024-11-29T14:45:59Z</time>
      </trkpt>
      <trkpt lat="45.87996" lon="1.24059">
        <ele>373</ele>
        <time>2024-11-29T14:46:00Z</time>
      </trkpt>
      <trkpt lat="45.87991" lon="1.24065">
        <ele>372.3</ele>
        <time>2024-11-29T14:46:01Z</time>
      </trkpt>
      <trkpt lat="45.87985" lon="1.2407">
        <ele>371.9</ele>
        <time>2024-11-29T14:46:02Z</time>
      </trkpt>
      <trkpt lat="45.87978" lon="1.24072">
        <ele>371.8</ele>
        <time>2024-11-29T14:46:03Z</time>
      </trkpt>
      <trkpt lat="45.87972" lon="1.24073">
        <ele>371.6</ele>
        <time>2024-11-29T14:46:04Z</time>
      </trkpt>
      <trkpt lat="45.87965" lon="1.24073">
        <ele>371.4</ele>
        <time>2024-11-29T14:46:05Z</time>
      </trkpt>
      <trkpt lat="45.87958" lon="1.24072">
        <ele>371.3</ele>
        <time>2024-11-29T14:46:06Z</time>
      </trkpt>
      <trkpt lat="45.87951" lon="1.2407">
        <ele>371.1</ele>
        <time>2024-11-29T14:46:07Z</time>
      </trkpt>
      <trkpt lat="45.87944" lon="1.24069">
        <ele>371</ele>
        <time>2024-11-29T14:46:08Z</time>
      </trkpt>
      <trkpt lat="45.87938" lon="1.24068">
        <ele>370.8</ele>
        <time>2024-11-29T14:46:09Z</time>
      </trkpt>
      <trkpt lat="45.87931" lon="1.24068">
        <ele>370.7</ele>
        <time>2024-11-29T14:46:10Z</time>
      </trkpt>
      <trkpt lat="45.87925" lon="1.24068">
        <ele>370.6</ele>
        <time>2024-11-29T14:46:11Z</time>
      </trkpt>
      <trkpt lat="45.87919" lon="1.24068">
        <ele>370.4</ele>
        <time>2024-11-29T14:46:12Z</time>
      </trkpt>
      <trkpt lat="45.87914" lon="1.24069">
        <ele>370.4</ele>
        <time>2024-11-29T14:46:13Z</time>
      </trkpt>
      <trkpt lat="45.87908" lon="1.24069">
        <ele>370.2</ele>
        <time>2024-11-29T14:46:14Z</time>
      </trkpt>
      <trkpt lat="45.87901" lon="1.24068">
        <ele>370.1</ele>
        <time>2024-11-29T14:46:15Z</time>
      </trkpt>
      <trkpt lat="45.87895" lon="1.24067">
        <ele>370</ele>
        <time>2024-11-29T14:46:16Z</time>
      </trkpt>
      <trkpt lat="45.87889" lon="1.24067">
        <ele>369.9</ele>
        <time>2024-11-29T14:46:17Z</time>
      </trkpt>
      <trkpt lat="45.87883" lon="1.24066">
        <ele>369.8</ele>
        <time>2024-11-29T14:46:18Z</time>
      </trkpt>
      <trkpt lat="45.87877" lon="1.24065">
        <ele>369.7</ele>
        <time>2024-11-29T14:46:19Z</time>
      </trkpt>
      <trkpt lat="45.8787" lon="1.24064">
        <ele>369.6</ele>
        <time>2024-11-29T14:46:20Z</time>
      </trkpt>
      <trkpt lat="45.87864" lon="1.24063">
        <ele>369.5</ele>
        <time>2024-11-29T14:46:21Z</time>
      </trkpt>
      <trkpt lat="45.87858" lon="1.24062">
        <ele>369.4</ele>
        <time>2024-11-29T14:46:22Z</time>
      </trkpt>
      <trkpt lat="45.87851" lon="1.24061">
        <ele>369.3</ele>
        <time>2024-11-29T14:46:23Z</time>
      </trkpt>
      <trkpt lat="45.87845" lon="1.24059">
        <ele>369.1</ele>
        <time>2024-11-29T14:46:24Z</time>
      </trkpt>
      <trkpt lat="45.87838" lon="1.24057">
        <ele>369</ele>
        <time>2024-11-29T14:46:25Z</time>
      </trkpt>
      <trkpt lat="45.87832" lon="1.24054">
        <ele>368.9</ele>
        <time>2024-11-29T14:46:26Z</time>
      </trkpt>
      <trkpt lat="45.87825" lon="1.24052">
        <ele>368.9</ele>
        <time>2024-11-29T14:46:27Z</time>
      </trkpt>
      <trkpt lat="45.87819" lon="1.24051">
        <ele>368.8</ele>
        <time>2024-11-29T14:46:28Z</time>
      </trkpt>
      <trkpt lat="45.87812" lon="1.2405">
        <ele>368.8</ele>
        <time>2024-11-29T14:46:29Z</time>
      </trkpt>
      <trkpt lat="45.87806" lon="1.24049">
        <ele>368.7</ele>
        <time>2024-11-29T14:46:30Z</time>
      </trkpt>
      <trkpt lat="45.878" lon="1.24048">
        <ele>368.8</ele>
        <time>2024-11-29T14:46:31Z</time>
      </trkpt>
      <trkpt lat="45.87794" lon="1.24048">
        <ele>368.8</ele>
        <time>2024-11-29T14:46:32Z</time>
      </trkpt>
      <trkpt lat="45.87788" lon="1.24048">
        <ele>368.9</ele>
        <time>2024-11-29T14:46:33Z</time>
      </trkpt>
      <trkpt lat="45.87782" lon="1.24049">
        <ele>368.9</ele>
        <time>2024-11-29T14:46:34Z</time>
      </trkpt>
      <trkpt lat="45.87776" lon="1.2405">
        <ele>369</ele>
        <time>2024-11-29T14:46:35Z</time>
      </trkpt>
      <trkpt lat="45.8777" lon="1.24051">
        <ele>369</ele>
        <time>2024-11-29T14:46:36Z</time>
      </trkpt>
      <trkpt lat="45.87765" lon="1.24051">
        <ele>369</ele>
        <time>2024-11-29T14:46:37Z</time>
      </trkpt>
      <trkpt lat="45.8776" lon="1.24053">
        <ele>369</ele>
        <time>2024-11-29T14:46:38Z</time>
      </trkpt>
      <trkpt lat="45.87755" lon="1.24054">
        <ele>369</ele>
        <time>2024-11-29T14:46:39Z</time>
      </trkpt>
      <trkpt lat="45.8775" lon="1.24055">
        <ele>369</ele>
        <time>2024-11-29T14:46:40Z</time>
      </trkpt>
      <trkpt lat="45.87745" lon="1.24057">
        <ele>369.1</ele>
        <time>2024-11-29T14:46:41Z</time>
      </trkpt>
      <trkpt lat="45.8774" lon="1.24059">
        <ele>369</ele>
        <time>2024-11-29T14:46:42Z</time>
      </trkpt>
      <trkpt lat="45.87736" lon="1.2406">
        <ele>368.8</ele>
        <time>2024-11-29T14:46:43Z</time>
      </trkpt>
      <trkpt lat="45.87732" lon="1.24061">
        <ele>368.7</ele>
        <time>2024-11-29T14:46:45Z</time>
      </trkpt>
      <trkpt lat="45.8773" lon="1.24065">
        <ele>368.6</ele>
        <time>2024-11-29T14:46:47Z</time>
      </trkpt>
      <trkpt lat="45.8773" lon="1.24069">
        <ele>368.5</ele>
        <time>2024-11-29T14:46:48Z</time>
      </trkpt>
      <trkpt lat="45.87729" lon="1.24075">
        <ele>368.3</ele>
        <time>2024-11-29T14:46:49Z</time>
      </trkpt>
      <trkpt lat="45.87727" lon="1.24081">
        <ele>368</ele>
        <time>2024-11-29T14:46:50Z</time>
      </trkpt>
      <trkpt lat="45.87723" lon="1.24088">
        <ele>367.5</ele>
        <time>2024-11-29T14:46:51Z</time>
      </trkpt>
      <trkpt lat="45.8772" lon="1.24094">
        <ele>367.2</ele>
        <time>2024-11-29T14:46:52Z</time>
      </trkpt>
      <trkpt lat="45.87716" lon="1.24101">
        <ele>366.9</ele>
        <time>2024-11-29T14:46:53Z</time>
      </trkpt>
      <trkpt lat="45.87713" lon="1.24106">
        <ele>366.6</ele>
        <time>2024-11-29T14:46:54Z</time>
      </trkpt>
      <trkpt lat="45.87711" lon="1.24111">
        <ele>366.4</ele>
        <time>2024-11-29T14:46:55Z</time>
      </trkpt>
      <trkpt lat="45.8771" lon="1.24116">
        <ele>366.2</ele>
        <time>2024-11-29T14:46:57Z</time>
      </trkpt>
      <trkpt lat="45.8771" lon="1.24121">
        <ele>366</ele>
        <time>2024-11-29T14:47:00Z</time>
      </trkpt>
      <trkpt lat="45.87709" lon="1.24126">
        <ele>365.7</ele>
        <time>2024-11-29T14:47:02Z</time>
      </trkpt>
      <trkpt lat="45.87706" lon="1.24131">
        <ele>365.4</ele>
        <time>2024-11-29T14:47:04Z</time>
      </trkpt>
      <trkpt lat="45.87704" lon="1.24136">
        <ele>365.2</ele>
        <time>2024-11-29T14:47:05Z</time>
      </trkpt>
      <trkpt lat="45.87702" lon="1.24142">
        <ele>364.7</ele>
        <time>2024-11-29T14:47:06Z</time>
      </trkpt>
      <trkpt lat="45.87701" lon="1.24149">
        <ele>364.1</ele>
        <time>2024-11-29T14:47:07Z</time>
      </trkpt>
      <trkpt lat="45.87701" lon="1.24157">
        <ele>363.5</ele>
        <time>2024-11-29T14:47:08Z</time>
      </trkpt>
      <trkpt lat="45.87701" lon="1.24167">
        <ele>362.7</ele>
        <time>2024-11-29T14:47:09Z</time>
      </trkpt>
      <trkpt lat="45.877" lon="1.24177">
        <ele>361.9</ele>
        <time>2024-11-29T14:47:10Z</time>
      </trkpt>
      <trkpt lat="45.877" lon="1.24187">
        <ele>361.1</ele>
        <time>2024-11-29T14:47:11Z</time>
      </trkpt>
      <trkpt lat="45.87699" lon="1.24198">
        <ele>360.2</ele>
        <time>2024-11-29T14:47:12Z</time>
      </trkpt>
      <trkpt lat="45.87698" lon="1.24208">
        <ele>359.4</ele>
        <time>2024-11-29T14:47:13Z</time>
      </trkpt>
      <trkpt lat="45.87697" lon="1.24219">
        <ele>358.6</ele>
        <time>2024-11-29T14:47:14Z</time>
      </trkpt>
      <trkpt lat="45.87695" lon="1.24229">
        <ele>357.7</ele>
        <time>2024-11-29T14:47:15Z</time>
      </trkpt>
      <trkpt lat="45.87694" lon="1.24239">
        <ele>357.1</ele>
        <time>2024-11-29T14:47:16Z</time>
      </trkpt>
      <trkpt lat="45.87693" lon="1.24248">
        <ele>356.5</ele>
        <time>2024-11-29T14:47:17Z</time>
      </trkpt>
      <trkpt lat="45.87692" lon="1.24257">
        <ele>356</ele>
        <time>2024-11-29T14:47:18Z</time>
      </trkpt>
      <trkpt lat="45.87691" lon="1.24264">
        <ele>355.5</ele>
        <time>2024-11-29T14:47:19Z</time>
      </trkpt>
      <trkpt lat="45.8769" lon="1.24269">
        <ele>355.3</ele>
        <time>2024-11-29T14:47:20Z</time>
      </trkpt>
      <trkpt lat="45.87689" lon="1.24275">
        <ele>354.9</ele>
        <time>2024-11-29T14:47:21Z</time>
      </trkpt>
      <trkpt lat="45.87688" lon="1.2428">
        <ele>354.7</ele>
        <time>2024-11-29T14:47:22Z</time>
      </trkpt>
      <trkpt lat="45.87687" lon="1.24284">
        <ele>354.5</ele>
        <time>2024-11-29T14:47:23Z</time>
      </trkpt>
      <trkpt lat="45.87686" lon="1.2429">
        <ele>354.2</ele>
        <time>2024-11-29T14:47:25Z</time>
      </trkpt>
      <trkpt lat="45.87683" lon="1.24294">
        <ele>354</ele>
        <time>2024-11-29T14:47:26Z</time>
      </trkpt>
      <trkpt lat="45.8768" lon="1.24297">
        <ele>353.9</ele>
        <time>2024-11-29T14:47:27Z</time>
      </trkpt>
      <trkpt lat="45.87676" lon="1.243">
        <ele>353.7</ele>
        <time>2024-11-29T14:47:28Z</time>
      </trkpt>
      <trkpt lat="45.87672" lon="1.24304">
        <ele>353.4</ele>
        <time>2024-11-29T14:47:29Z</time>
      </trkpt>
      <trkpt lat="45.87668" lon="1.24309">
        <ele>353</ele>
        <time>2024-11-29T14:47:30Z</time>
      </trkpt>
      <trkpt lat="45.87665" lon="1.24313">
        <ele>352.6</ele>
        <time>2024-11-29T14:47:31Z</time>
      </trkpt>
      <trkpt lat="45.87661" lon="1.24317">
        <ele>352.1</ele>
        <time>2024-11-29T14:47:32Z</time>
      </trkpt>
      <trkpt lat="45.87658" lon="1.2432">
        <ele>351.7</ele>
        <time>2024-11-29T14:47:33Z</time>
      </trkpt>
      <trkpt lat="45.87654" lon="1.24324">
        <ele>351.2</ele>
        <time>2024-11-29T14:47:35Z</time>
      </trkpt>
      <trkpt lat="45.87651" lon="1.24326">
        <ele>350.7</ele>
        <time>2024-11-29T14:47:37Z</time>
      </trkpt>
      <trkpt lat="45.87647" lon="1.24328">
        <ele>350.2</ele>
        <time>2024-11-29T14:47:38Z</time>
      </trkpt>
      <trkpt lat="45.87643" lon="1.24332">
        <ele>349.5</ele>
        <time>2024-11-29T14:47:39Z</time>
      </trkpt>
      <trkpt lat="45.87637" lon="1.24336">
        <ele>348.5</ele>
        <time>2024-11-29T14:47:40Z</time>
      </trkpt>
      <trkpt lat="45.8763" lon="1.2434">
        <ele>347.3</ele>
        <time>2024-11-29T14:47:41Z</time>
      </trkpt>
      <trkpt lat="45.87621" lon="1.24342">
        <ele>345.8</ele>
        <time>2024-11-29T14:47:42Z</time>
      </trkpt>
      <trkpt lat="45.87613" lon="1.24345">
        <ele>344.7</ele>
        <time>2024-11-29T14:47:43Z</time>
      </trkpt>
      <trkpt lat="45.87603" lon="1.24348">
        <ele>343.6</ele>
        <time>2024-11-29T14:47:44Z</time>
      </trkpt>
      <trkpt lat="45.87594" lon="1.24352">
        <ele>342.8</ele>
        <time>2024-11-29T14:47:45Z</time>
      </trkpt>
      <trkpt lat="45.87585" lon="1.24354">
        <ele>342.1</ele>
        <time>2024-11-29T14:47:46Z</time>
      </trkpt>
      <trkpt lat="45.87577" lon="1.24356">
        <ele>341.7</ele>
        <time>2024-11-29T14:47:47Z</time>
      </trkpt>
      <trkpt lat="45.8757" lon="1.24359">
        <ele>341.4</ele>
        <time>2024-11-29T14:47:48Z</time>
      </trkpt>
      <trkpt lat="45.87564" lon="1.24361">
        <ele>341.1</ele>
        <time>2024-11-29T14:47:49Z</time>
      </trkpt>
      <trkpt lat="45.87559" lon="1.24364">
        <ele>340.9</ele>
        <time>2024-11-29T14:47:50Z</time>
      </trkpt>
      <trkpt lat="45.87555" lon="1.24367">
        <ele>340.6</ele>
        <time>2024-11-29T14:47:51Z</time>
      </trkpt>
      <trkpt lat="45.87552" lon="1.24371">
        <ele>340.4</ele>
        <time>2024-11-29T14:47:52Z</time>
      </trkpt>
      <trkpt lat="45.87549" lon="1.24375">
        <ele>340.2</ele>
        <time>2024-11-29T14:47:54Z</time>
      </trkpt>
      <trkpt lat="45.87545" lon="1.24377">
        <ele>339.9</ele>
        <time>2024-11-29T14:47:55Z</time>
      </trkpt>
      <trkpt lat="45.87541" lon="1.24378">
        <ele>339.6</ele>
        <time>2024-11-29T14:47:56Z</time>
      </trkpt>
      <trkpt lat="45.87537" lon="1.24377">
        <ele>339.5</ele>
        <time>2024-11-29T14:47:57Z</time>
      </trkpt>
      <trkpt lat="45.87533" lon="1.24376">
        <ele>339.3</ele>
        <time>2024-11-29T14:47:58Z</time>
      </trkpt>
      <trkpt lat="45.87528" lon="1.24374">
        <ele>339.2</ele>
        <time>2024-11-29T14:47:59Z</time>
      </trkpt>
      <trkpt lat="45.87524" lon="1.24373">
        <ele>339</ele>
        <time>2024-11-29T14:48:00Z</time>
      </trkpt>
      <trkpt lat="45.8752" lon="1.24373">
        <ele>338.9</ele>
        <time>2024-11-29T14:48:01Z</time>
      </trkpt>
      <trkpt lat="45.87516" lon="1.24373">
        <ele>338.8</ele>
        <time>2024-11-29T14:48:02Z</time>
      </trkpt>
      <trkpt lat="45.87512" lon="1.24372">
        <ele>338.7</ele>
        <time>2024-11-29T14:48:03Z</time>
      </trkpt>
      <trkpt lat="45.87507" lon="1.2437">
        <ele>338.6</ele>
        <time>2024-11-29T14:48:04Z</time>
      </trkpt>
      <trkpt lat="45.87502" lon="1.24368">
        <ele>338.5</ele>
        <time>2024-11-29T14:48:05Z</time>
      </trkpt>
      <trkpt lat="45.87497" lon="1.24366">
        <ele>338.4</ele>
        <time>2024-11-29T14:48:06Z</time>
      </trkpt>
      <trkpt lat="45.87491" lon="1.24366">
        <ele>338.4</ele>
        <time>2024-11-29T14:48:07Z</time>
      </trkpt>
      <trkpt lat="45.87486" lon="1.24365">
        <ele>338.4</ele>
        <time>2024-11-29T14:48:08Z</time>
      </trkpt>
      <trkpt lat="45.87481" lon="1.24365">
        <ele>338.4</ele>
        <time>2024-11-29T14:48:09Z</time>
      </trkpt>
      <trkpt lat="45.87477" lon="1.24365">
        <ele>338.4</ele>
        <time>2024-11-29T14:48:10Z</time>
      </trkpt>
      <trkpt lat="45.87474" lon="1.24369">
        <ele>338.2</ele>
        <time>2024-11-29T14:48:12Z</time>
      </trkpt>
      <trkpt lat="45.87473" lon="1.24374">
        <ele>338.1</ele>
        <time>2024-11-29T14:48:13Z</time>
      </trkpt>
      <trkpt lat="45.87472" lon="1.2438">
        <ele>338</ele>
        <time>2024-11-29T14:48:14Z</time>
      </trkpt>
      <trkpt lat="45.87472" lon="1.24387">
        <ele>337.9</ele>
        <time>2024-11-29T14:48:15Z</time>
      </trkpt>
      <trkpt lat="45.87472" lon="1.24394">
        <ele>337.8</ele>
        <time>2024-11-29T14:48:16Z</time>
      </trkpt>
      <trkpt lat="45.87471" lon="1.244">
        <ele>337.7</ele>
        <time>2024-11-29T14:48:17Z</time>
      </trkpt>
      <trkpt lat="45.87468" lon="1.24407">
        <ele>337.7</ele>
        <time>2024-11-29T14:48:19Z</time>
      </trkpt>
      <trkpt lat="45.87464" lon="1.2441">
        <ele>337.6</ele>
        <time>2024-11-29T14:48:20Z</time>
      </trkpt>
      <trkpt lat="45.8746" lon="1.24414">
        <ele>337.5</ele>
        <time>2024-11-29T14:48:21Z</time>
      </trkpt>
      <trkpt lat="45.87456" lon="1.24418">
        <ele>337.4</ele>
        <time>2024-11-29T14:48:22Z</time>
      </trkpt>
      <trkpt lat="45.87452" lon="1.24423">
        <ele>337.3</ele>
        <time>2024-11-29T14:48:23Z</time>
      </trkpt>
      <trkpt lat="45.87448" lon="1.24427">
        <ele>337.2</ele>
        <time>2024-11-29T14:48:24Z</time>
      </trkpt>
      <trkpt lat="45.87443" lon="1.24431">
        <ele>337.1</ele>
        <time>2024-11-29T14:48:25Z</time>
      </trkpt>
      <trkpt lat="45.87439" lon="1.24437">
        <ele>336.9</ele>
        <time>2024-11-29T14:48:26Z</time>
      </trkpt>
      <trkpt lat="45.87435" lon="1.24444">
        <ele>336.8</ele>
        <time>2024-11-29T14:48:27Z</time>
      </trkpt>
      <trkpt lat="45.87431" lon="1.2445">
        <ele>336.7</ele>
        <time>2024-11-29T14:48:28Z</time>
      </trkpt>
      <trkpt lat="45.87427" lon="1.24457">
        <ele>336.6</ele>
        <time>2024-11-29T14:48:29Z</time>
      </trkpt>
      <trkpt lat="45.87423" lon="1.24463">
        <ele>336.5</ele>
        <time>2024-11-29T14:48:30Z</time>
      </trkpt>
      <trkpt lat="45.87418" lon="1.24469">
        <ele>336.5</ele>
        <time>2024-11-29T14:48:31Z</time>
      </trkpt>
      <trkpt lat="45.87414" lon="1.24474">
        <ele>336.4</ele>
        <time>2024-11-29T14:48:32Z</time>
      </trkpt>
      <trkpt lat="45.87411" lon="1.2448">
        <ele>336.4</ele>
        <time>2024-11-29T14:48:33Z</time>
      </trkpt>
      <trkpt lat="45.87408" lon="1.24484">
        <ele>336.4</ele>
        <time>2024-11-29T14:48:34Z</time>
      </trkpt>
      <trkpt lat="45.87405" lon="1.24488">
        <ele>336.2</ele>
        <time>2024-11-29T14:48:35Z</time>
      </trkpt>
      <trkpt lat="45.87402" lon="1.24491">
        <ele>336.1</ele>
        <time>2024-11-29T14:48:36Z</time>
      </trkpt>
      <trkpt lat="45.87398" lon="1.24495">
        <ele>335.8</ele>
        <time>2024-11-29T14:48:38Z</time>
      </trkpt>
      <trkpt lat="45.87393" lon="1.24497">
        <ele>335.5</ele>
        <time>2024-11-29T14:48:39Z</time>
      </trkpt>
      <trkpt lat="45.87388" lon="1.24497">
        <ele>335.3</ele>
        <time>2024-11-29T14:48:40Z</time>
      </trkpt>
      <trkpt lat="45.87384" lon="1.24497">
        <ele>335.1</ele>
        <time>2024-11-29T14:48:41Z</time>
      </trkpt>
      <trkpt lat="45.87379" lon="1.24497">
        <ele>334.8</ele>
        <time>2024-11-29T14:48:42Z</time>
      </trkpt>
      <trkpt lat="45.87374" lon="1.24497">
        <ele>334.6</ele>
        <time>2024-11-29T14:48:43Z</time>
      </trkpt>
      <trkpt lat="45.87369" lon="1.24497">
        <ele>334.3</ele>
        <time>2024-11-29T14:48:44Z</time>
      </trkpt>
      <trkpt lat="45.87363" lon="1.24494">
        <ele>334.1</ele>
        <time>2024-11-29T14:48:46Z</time>
      </trkpt>
      <trkpt lat="45.87357" lon="1.24494">
        <ele>333.8</ele>
        <time>2024-11-29T14:48:47Z</time>
      </trkpt>
      <trkpt lat="45.87352" lon="1.24493">
        <ele>333.6</ele>
        <time>2024-11-29T14:48:48Z</time>
      </trkpt>
      <trkpt lat="45.87347" lon="1.24493">
        <ele>333.5</ele>
        <time>2024-11-29T14:48:49Z</time>
      </trkpt>
      <trkpt lat="45.87342" lon="1.24493">
        <ele>333.4</ele>
        <time>2024-11-29T14:48:50Z</time>
      </trkpt>
      <trkpt lat="45.87337" lon="1.24493">
        <ele>333.2</ele>
        <time>2024-11-29T14:48:51Z</time>
      </trkpt>
      <trkpt lat="45.87332" lon="1.24494">
        <ele>333.1</ele>
        <time>2024-11-29T14:48:52Z</time>
      </trkpt>
      <trkpt lat="45.87327" lon="1.24496">
        <ele>333</ele>
        <time>2024-11-29T14:48:53Z</time>
      </trkpt>
      <trkpt lat="45.87323" lon="1.24497">
        <ele>332.9</ele>
        <time>2024-11-29T14:48:54Z</time>
      </trkpt>
      <trkpt lat="45.87319" lon="1.24499">
        <ele>332.9</ele>
        <time>2024-11-29T14:48:55Z</time>
      </trkpt>
      <trkpt lat="45.87314" lon="1.24502">
        <ele>332.7</ele>
        <time>2024-11-29T14:48:56Z</time>
      </trkpt>
      <trkpt lat="45.8731" lon="1.24506">
        <ele>332.6</ele>
        <time>2024-11-29T14:48:57Z</time>
      </trkpt>
      <trkpt lat="45.87307" lon="1.24508">
        <ele>332.6</ele>
        <time>2024-11-29T14:48:58Z</time>
      </trkpt>
      <trkpt lat="45.87303" lon="1.24509">
        <ele>332.5</ele>
        <time>2024-11-29T14:48:59Z</time>
      </trkpt>
      <trkpt lat="45.87299" lon="1.2451">
        <ele>332.4</ele>
        <time>2024-11-29T14:49:00Z</time>
      </trkpt>
      <trkpt lat="45.87295" lon="1.24513">
        <ele>332.4</ele>
        <time>2024-11-29T14:49:01Z</time>
      </trkpt>
      <trkpt lat="45.87291" lon="1.24515">
        <ele>332.3</ele>
        <time>2024-11-29T14:49:02Z</time>
      </trkpt>
      <trkpt lat="45.87287" lon="1.24517">
        <ele>332.3</ele>
        <time>2024-11-29T14:49:03Z</time>
      </trkpt>
      <trkpt lat="45.87283" lon="1.2452">
        <ele>332.2</ele>
        <time>2024-11-29T14:49:04Z</time>
      </trkpt>
      <trkpt lat="45.8728" lon="1.24524">
        <ele>332.2</ele>
        <time>2024-11-29T14:49:05Z</time>
      </trkpt>
      <trkpt lat="45.87279" lon="1.2453">
        <ele>332.1</ele>
        <time>2024-11-29T14:49:06Z</time>
      </trkpt>
      <trkpt lat="45.87276" lon="1.24535">
        <ele>331.9</ele>
        <time>2024-11-29T14:49:07Z</time>
      </trkpt>
      <trkpt lat="45.87272" lon="1.24538">
        <ele>331.8</ele>
        <time>2024-11-29T14:49:08Z</time>
      </trkpt>
      <trkpt lat="45.87268" lon="1.24543">
        <ele>331.6</ele>
        <time>2024-11-29T14:49:09Z</time>
      </trkpt>
      <trkpt lat="45.87264" lon="1.24549">
        <ele>331.3</ele>
        <time>2024-11-29T14:49:10Z</time>
      </trkpt>
      <trkpt lat="45.87259" lon="1.24555">
        <ele>331.1</ele>
        <time>2024-11-29T14:49:11Z</time>
      </trkpt>
      <trkpt lat="45.87255" lon="1.24561">
        <ele>330.8</ele>
        <time>2024-11-29T14:49:12Z</time>
      </trkpt>
      <trkpt lat="45.87251" lon="1.24568">
        <ele>330.6</ele>
        <time>2024-11-29T14:49:13Z</time>
      </trkpt>
      <trkpt lat="45.87248" lon="1.24574">
        <ele>330.4</ele>
        <time>2024-11-29T14:49:14Z</time>
      </trkpt>
      <trkpt lat="45.87246" lon="1.24582">
        <ele>330</ele>
        <time>2024-11-29T14:49:15Z</time>
      </trkpt>
      <trkpt lat="45.87242" lon="1.24589">
        <ele>329.6</ele>
        <time>2024-11-29T14:49:16Z</time>
      </trkpt>
      <trkpt lat="45.87237" lon="1.24596">
        <ele>329.2</ele>
        <time>2024-11-29T14:49:17Z</time>
      </trkpt>
      <trkpt lat="45.87232" lon="1.24601">
        <ele>328.8</ele>
        <time>2024-11-29T14:49:18Z</time>
      </trkpt>
      <trkpt lat="45.87227" lon="1.24605">
        <ele>328.4</ele>
        <time>2024-11-29T14:49:19Z</time>
      </trkpt>
      <trkpt lat="45.87219" lon="1.24607">
        <ele>328</ele>
        <time>2024-11-29T14:49:20Z</time>
      </trkpt>
      <trkpt lat="45.87213" lon="1.24609">
        <ele>327.7</ele>
        <time>2024-11-29T14:49:21Z</time>
      </trkpt>
      <trkpt lat="45.87207" lon="1.24611">
        <ele>327.4</ele>
        <time>2024-11-29T14:49:22Z</time>
      </trkpt>
      <trkpt lat="45.872" lon="1.24613">
        <ele>327.1</ele>
        <time>2024-11-29T14:49:23Z</time>
      </trkpt>
      <trkpt lat="45.87193" lon="1.24615">
        <ele>326.9</ele>
        <time>2024-11-29T14:49:24Z</time>
      </trkpt>
      <trkpt lat="45.87186" lon="1.24615">
        <ele>326.7</ele>
        <time>2024-11-29T14:49:25Z</time>
      </trkpt>
      <trkpt lat="45.8718" lon="1.24617">
        <ele>326.6</ele>
        <time>2024-11-29T14:49:26Z</time>
      </trkpt>
      <trkpt lat="45.87174" lon="1.24616">
        <ele>326.4</ele>
        <time>2024-11-29T14:49:27Z</time>
      </trkpt>
      <trkpt lat="45.87166" lon="1.24617">
        <ele>326.3</ele>
        <time>2024-11-29T14:49:28Z</time>
      </trkpt>
      <trkpt lat="45.8716" lon="1.24617">
        <ele>326.1</ele>
        <time>2024-11-29T14:49:29Z</time>
      </trkpt>
      <trkpt lat="45.87152" lon="1.24617">
        <ele>326</ele>
        <time>2024-11-29T14:49:30Z</time>
      </trkpt>
      <trkpt lat="45.87145" lon="1.24617">
        <ele>326</ele>
        <time>2024-11-29T14:49:31Z</time>
      </trkpt>
      <trkpt lat="45.87138" lon="1.24616">
        <ele>325.7</ele>
        <time>2024-11-29T14:49:32Z</time>
      </trkpt>
      <trkpt lat="45.87131" lon="1.24615">
        <ele>325.4</ele>
        <time>2024-11-29T14:49:33Z</time>
      </trkpt>
      <trkpt lat="45.87125" lon="1.24614">
        <ele>325.2</ele>
        <time>2024-11-29T14:49:34Z</time>
      </trkpt>
      <trkpt lat="45.87119" lon="1.24613">
        <ele>325</ele>
        <time>2024-11-29T14:49:35Z</time>
      </trkpt>
      <trkpt lat="45.87113" lon="1.2461">
        <ele>324.7</ele>
        <time>2024-11-29T14:49:36Z</time>
      </trkpt>
      <trkpt lat="45.87108" lon="1.24608">
        <ele>324.6</ele>
        <time>2024-11-29T14:49:37Z</time>
      </trkpt>
      <trkpt lat="45.87103" lon="1.24604">
        <ele>324.4</ele>
        <time>2024-11-29T14:49:38Z</time>
      </trkpt>
      <trkpt lat="45.87097" lon="1.246">
        <ele>324.2</ele>
        <time>2024-11-29T14:49:39Z</time>
      </trkpt>
      <trkpt lat="45.87091" lon="1.24597">
        <ele>323.9</ele>
        <time>2024-11-29T14:49:40Z</time>
      </trkpt>
      <trkpt lat="45.87085" lon="1.24595">
        <ele>323.7</ele>
        <time>2024-11-29T14:49:41Z</time>
      </trkpt>
      <trkpt lat="45.87077" lon="1.24593">
        <ele>323.5</ele>
        <time>2024-11-29T14:49:42Z</time>
      </trkpt>
      <trkpt lat="45.87071" lon="1.24596">
        <ele>323.2</ele>
        <time>2024-11-29T14:49:43Z</time>
      </trkpt>
      <trkpt lat="45.87065" lon="1.24598">
        <ele>323.1</ele>
        <time>2024-11-29T14:49:44Z</time>
      </trkpt>
      <trkpt lat="45.8706" lon="1.246">
        <ele>322.9</ele>
        <time>2024-11-29T14:49:45Z</time>
      </trkpt>
      <trkpt lat="45.87054" lon="1.24601">
        <ele>322.7</ele>
        <time>2024-11-29T14:49:46Z</time>
      </trkpt>
      <trkpt lat="45.87048" lon="1.24603">
        <ele>322.5</ele>
        <time>2024-11-29T14:49:47Z</time>
      </trkpt>
      <trkpt lat="45.87042" lon="1.24602">
        <ele>322.1</ele>
        <time>2024-11-29T14:49:48Z</time>
      </trkpt>
      <trkpt lat="45.87036" lon="1.24599">
        <ele>321.7</ele>
        <time>2024-11-29T14:49:49Z</time>
      </trkpt>
      <trkpt lat="45.87029" lon="1.24595">
        <ele>321.4</ele>
        <time>2024-11-29T14:49:50Z</time>
      </trkpt>
      <trkpt lat="45.87022" lon="1.24593">
        <ele>320.8</ele>
        <time>2024-11-29T14:49:51Z</time>
      </trkpt>
      <trkpt lat="45.87015" lon="1.24591">
        <ele>320.3</ele>
        <time>2024-11-29T14:49:52Z</time>
      </trkpt>
      <trkpt lat="45.87008" lon="1.24588">
        <ele>319.9</ele>
        <time>2024-11-29T14:49:53Z</time>
      </trkpt>
      <trkpt lat="45.86999" lon="1.24585">
        <ele>319.4</ele>
        <time>2024-11-29T14:49:54Z</time>
      </trkpt>
      <trkpt lat="45.86992" lon="1.24583">
        <ele>319</ele>
        <time>2024-11-29T14:49:55Z</time>
      </trkpt>
      <trkpt lat="45.86986" lon="1.24582">
        <ele>318.8</ele>
        <time>2024-11-29T14:49:56Z</time>
      </trkpt>
      <trkpt lat="45.86979" lon="1.24582">
        <ele>318.5</ele>
        <time>2024-11-29T14:49:57Z</time>
      </trkpt>
      <trkpt lat="45.86972" lon="1.24583">
        <ele>318.2</ele>
        <time>2024-11-29T14:49:58Z</time>
      </trkpt>
      <trkpt lat="45.86965" lon="1.24585">
        <ele>318</ele>
        <time>2024-11-29T14:49:59Z</time>
      </trkpt>
      <trkpt lat="45.86961" lon="1.2459">
        <ele>317.9</ele>
        <time>2024-11-29T14:50:00Z</time>
      </trkpt>
      <trkpt lat="45.86958" lon="1.24597">
        <ele>317.8</ele>
        <time>2024-11-29T14:50:01Z</time>
      </trkpt>
      <trkpt lat="45.86954" lon="1.24604">
        <ele>317.7</ele>
        <time>2024-11-29T14:50:02Z</time>
      </trkpt>
      <trkpt lat="45.8695" lon="1.2461">
        <ele>317.6</ele>
        <time>2024-11-29T14:50:03Z</time>
      </trkpt>
      <trkpt lat="45.86947" lon="1.24616">
        <ele>317.6</ele>
        <time>2024-11-29T14:50:04Z</time>
      </trkpt>
      <trkpt lat="45.86944" lon="1.24623">
        <ele>317.5</ele>
        <time>2024-11-29T14:50:05Z</time>
      </trkpt>
      <trkpt lat="45.8694" lon="1.24629">
        <ele>317.4</ele>
        <time>2024-11-29T14:50:06Z</time>
      </trkpt>
      <trkpt lat="45.86936" lon="1.24634">
        <ele>317.4</ele>
        <time>2024-11-29T14:50:07Z</time>
      </trkpt>
      <trkpt lat="45.86932" lon="1.24639">
        <ele>317.4</ele>
        <time>2024-11-29T14:50:08Z</time>
      </trkpt>
      <trkpt lat="45.86927" lon="1.24645">
        <ele>317.4</ele>
        <time>2024-11-29T14:50:09Z</time>
      </trkpt>
      <trkpt lat="45.86923" lon="1.24651">
        <ele>317.4</ele>
        <time>2024-11-29T14:50:10Z</time>
      </trkpt>
      <trkpt lat="45.86919" lon="1.24656">
        <ele>317.4</ele>
        <time>2024-11-29T14:50:11Z</time>
      </trkpt>
      <trkpt lat="45.86915" lon="1.24662">
        <ele>317.4</ele>
        <time>2024-11-29T14:50:12Z</time>
      </trkpt>
      <trkpt lat="45.86909" lon="1.24669">
        <ele>317.3</ele>
        <time>2024-11-29T14:50:13Z</time>
      </trkpt>
      <trkpt lat="45.86904" lon="1.24675">
        <ele>317.2</ele>
        <time>2024-11-29T14:50:14Z</time>
      </trkpt>
      <trkpt lat="45.86898" lon="1.2468">
        <ele>317</ele>
        <time>2024-11-29T14:50:15Z</time>
      </trkpt>
      <trkpt lat="45.86893" lon="1.24685">
        <ele>316.9</ele>
        <time>2024-11-29T14:50:16Z</time>
      </trkpt>
      <trkpt lat="45.86887" lon="1.2469">
        <ele>316.7</ele>
        <time>2024-11-29T14:50:17Z</time>
      </trkpt>
      <trkpt lat="45.86881" lon="1.24694">
        <ele>316.5</ele>
        <time>2024-11-29T14:50:18Z</time>
      </trkpt>
      <trkpt lat="45.86874" lon="1.24699">
        <ele>316.2</ele>
        <time>2024-11-29T14:50:19Z</time>
      </trkpt>
      <trkpt lat="45.86868" lon="1.24704">
        <ele>316</ele>
        <time>2024-11-29T14:50:20Z</time>
      </trkpt>
      <trkpt lat="45.86863" lon="1.2471">
        <ele>315.8</ele>
        <time>2024-11-29T14:50:21Z</time>
      </trkpt>
      <trkpt lat="45.86857" lon="1.24716">
        <ele>315.6</ele>
        <time>2024-11-29T14:50:22Z</time>
      </trkpt>
      <trkpt lat="45.86853" lon="1.24723">
        <ele>315.4</ele>
        <time>2024-11-29T14:50:23Z</time>
      </trkpt>
      <trkpt lat="45.86848" lon="1.2473">
        <ele>315.3</ele>
        <time>2024-11-29T14:50:24Z</time>
      </trkpt>
      <trkpt lat="45.86844" lon="1.24737">
        <ele>315.2</ele>
        <time>2024-11-29T14:50:25Z</time>
      </trkpt>
      <trkpt lat="45.86841" lon="1.24745">
        <ele>315.2</ele>
        <time>2024-11-29T14:50:26Z</time>
      </trkpt>
      <trkpt lat="45.86839" lon="1.24753">
        <ele>315.2</ele>
        <time>2024-11-29T14:50:27Z</time>
      </trkpt>
      <trkpt lat="45.86837" lon="1.24761">
        <ele>315.2</ele>
        <time>2024-11-29T14:50:28Z</time>
      </trkpt>
      <trkpt lat="45.86836" lon="1.24769">
        <ele>315.1</ele>
        <time>2024-11-29T14:50:29Z</time>
      </trkpt>
      <trkpt lat="45.86834" lon="1.24777">
        <ele>315.1</ele>
        <time>2024-11-29T14:50:30Z</time>
      </trkpt>
      <trkpt lat="45.86832" lon="1.24785">
        <ele>315.1</ele>
        <time>2024-11-29T14:50:31Z</time>
      </trkpt>
      <trkpt lat="45.86831" lon="1.24792">
        <ele>315.1</ele>
        <time>2024-11-29T14:50:32Z</time>
      </trkpt>
      <trkpt lat="45.86828" lon="1.24801">
        <ele>315.1</ele>
        <time>2024-11-29T14:50:33Z</time>
      </trkpt>
      <trkpt lat="45.86825" lon="1.2481">
        <ele>315.2</ele>
        <time>2024-11-29T14:50:34Z</time>
      </trkpt>
      <trkpt lat="45.86822" lon="1.24818">
        <ele>315.2</ele>
        <time>2024-11-29T14:50:35Z</time>
      </trkpt>
      <trkpt lat="45.86819" lon="1.24827">
        <ele>315.3</ele>
        <time>2024-11-29T14:50:36Z</time>
      </trkpt>
      <trkpt lat="45.86817" lon="1.24834">
        <ele>315.3</ele>
        <time>2024-11-29T14:50:37Z</time>
      </trkpt>
      <trkpt lat="45.86813" lon="1.24841">
        <ele>315.4</ele>
        <time>2024-11-29T14:50:38Z</time>
      </trkpt>
      <trkpt lat="45.86809" lon="1.24847">
        <ele>315.4</ele>
        <time>2024-11-29T14:50:39Z</time>
      </trkpt>
      <trkpt lat="45.86805" lon="1.24853">
        <ele>315.3</ele>
        <time>2024-11-29T14:50:40Z</time>
      </trkpt>
      <trkpt lat="45.86799" lon="1.24859">
        <ele>315.3</ele>
        <time>2024-11-29T14:50:41Z</time>
      </trkpt>
      <trkpt lat="45.86795" lon="1.24863">
        <ele>315.2</ele>
        <time>2024-11-29T14:50:42Z</time>
      </trkpt>
      <trkpt lat="45.86791" lon="1.24867">
        <ele>315.2</ele>
        <time>2024-11-29T14:50:43Z</time>
      </trkpt>
      <trkpt lat="45.86787" lon="1.2487">
        <ele>315.1</ele>
        <time>2024-11-29T14:50:44Z</time>
      </trkpt>
      <trkpt lat="45.86783" lon="1.24874">
        <ele>314.9</ele>
        <time>2024-11-29T14:50:45Z</time>
      </trkpt>
      <trkpt lat="45.8678" lon="1.24877">
        <ele>314.8</ele>
        <time>2024-11-29T14:50:46Z</time>
      </trkpt>
      <trkpt lat="45.86776" lon="1.24879">
        <ele>315</ele>
        <time>2024-11-29T14:50:47Z</time>
      </trkpt>
      <trkpt lat="45.86772" lon="1.24877">
        <ele>315.2</ele>
        <time>2024-11-29T14:50:49Z</time>
      </trkpt>
      <trkpt lat="45.86768" lon="1.24877">
        <ele>315.4</ele>
        <time>2024-11-29T14:50:50Z</time>
      </trkpt>
      <trkpt lat="45.86764" lon="1.24877">
        <ele>315.6</ele>
        <time>2024-11-29T14:50:51Z</time>
      </trkpt>
      <trkpt lat="45.8676" lon="1.24877">
        <ele>315.7</ele>
        <time>2024-11-29T14:50:52Z</time>
      </trkpt>
      <trkpt lat="45.86756" lon="1.24878">
        <ele>315.8</ele>
        <time>2024-11-29T14:50:53Z</time>
      </trkpt>
      <trkpt lat="45.86752" lon="1.24878">
        <ele>315.9</ele>
        <time>2024-11-29T14:50:54Z</time>
      </trkpt>
      <trkpt lat="45.86748" lon="1.24878">
        <ele>316</ele>
        <time>2024-11-29T14:50:55Z</time>
      </trkpt>
      <trkpt lat="45.86743" lon="1.24878">
        <ele>316</ele>
        <time>2024-11-29T14:50:56Z</time>
      </trkpt>
      <trkpt lat="45.86739" lon="1.24877">
        <ele>316.1</ele>
        <time>2024-11-29T14:50:57Z</time>
      </trkpt>
      <trkpt lat="45.86734" lon="1.24877">
        <ele>316.2</ele>
        <time>2024-11-29T14:50:58Z</time>
      </trkpt>
      <trkpt lat="45.86729" lon="1.24877">
        <ele>316.2</ele>
        <time>2024-11-29T14:50:59Z</time>
      </trkpt>
      <trkpt lat="45.86724" lon="1.24877">
        <ele>316.1</ele>
        <time>2024-11-29T14:51:00Z</time>
      </trkpt>
      <trkpt lat="45.86719" lon="1.24878">
        <ele>316</ele>
        <time>2024-11-29T14:51:01Z</time>
      </trkpt>
      <trkpt lat="45.86713" lon="1.24879">
        <ele>315.9</ele>
        <time>2024-11-29T14:51:02Z</time>
      </trkpt>
      <trkpt lat="45.86708" lon="1.2488">
        <ele>315.8</ele>
        <time>2024-11-29T14:51:03Z</time>
      </trkpt>
      <trkpt lat="45.86702" lon="1.24881">
        <ele>315.7</ele>
        <time>2024-11-29T14:51:04Z</time>
      </trkpt>
      <trkpt lat="45.86696" lon="1.24882">
        <ele>315.5</ele>
        <time>2024-11-29T14:51:05Z</time>
      </trkpt>
      <trkpt lat="45.8669" lon="1.24884">
        <ele>315.4</ele>
        <time>2024-11-29T14:51:06Z</time>
      </trkpt>
      <trkpt lat="45.86684" lon="1.24886">
        <ele>315.2</ele>
        <time>2024-11-29T14:51:07Z</time>
      </trkpt>
      <trkpt lat="45.86678" lon="1.24889">
        <ele>315.1</ele>
        <time>2024-11-29T14:51:08Z</time>
      </trkpt>
      <trkpt lat="45.86672" lon="1.24891">
        <ele>315.1</ele>
        <time>2024-11-29T14:51:09Z</time>
      </trkpt>
      <trkpt lat="45.86666" lon="1.24894">
        <ele>315.1</ele>
        <time>2024-11-29T14:51:10Z</time>
      </trkpt>
      <trkpt lat="45.8666" lon="1.24897">
        <ele>315.1</ele>
        <time>2024-11-29T14:51:11Z</time>
      </trkpt>
      <trkpt lat="45.86654" lon="1.24899">
        <ele>315.1</ele>
        <time>2024-11-29T14:51:12Z</time>
      </trkpt>
      <trkpt lat="45.86648" lon="1.24901">
        <ele>315.1</ele>
        <time>2024-11-29T14:51:13Z</time>
      </trkpt>
      <trkpt lat="45.86643" lon="1.24903">
        <ele>315.2</ele>
        <time>2024-11-29T14:51:14Z</time>
      </trkpt>
      <trkpt lat="45.86637" lon="1.24906">
        <ele>315.3</ele>
        <time>2024-11-29T14:51:15Z</time>
      </trkpt>
      <trkpt lat="45.86632" lon="1.24909">
        <ele>315.4</ele>
        <time>2024-11-29T14:51:16Z</time>
      </trkpt>
      <trkpt lat="45.86626" lon="1.24912">
        <ele>315.5</ele>
        <time>2024-11-29T14:51:17Z</time>
      </trkpt>
      <trkpt lat="45.86621" lon="1.24915">
        <ele>315.6</ele>
        <time>2024-11-29T14:51:18Z</time>
      </trkpt>
      <trkpt lat="45.86617" lon="1.24919">
        <ele>315.7</ele>
        <time>2024-11-29T14:51:19Z</time>
      </trkpt>
      <trkpt lat="45.86613" lon="1.24924">
        <ele>315.8</ele>
        <time>2024-11-29T14:51:20Z</time>
      </trkpt>
      <trkpt lat="45.86609" lon="1.24929">
        <ele>315.9</ele>
        <time>2024-11-29T14:51:21Z</time>
      </trkpt>
      <trkpt lat="45.86606" lon="1.24935">
        <ele>316</ele>
        <time>2024-11-29T14:51:22Z</time>
      </trkpt>
      <trkpt lat="45.86604" lon="1.24941">
        <ele>316.1</ele>
        <time>2024-11-29T14:51:23Z</time>
      </trkpt>
      <trkpt lat="45.86602" lon="1.24947">
        <ele>316.2</ele>
        <time>2024-11-29T14:51:24Z</time>
      </trkpt>
      <trkpt lat="45.86599" lon="1.24952">
        <ele>316.3</ele>
        <time>2024-11-29T14:51:25Z</time>
      </trkpt>
      <trkpt lat="45.86595" lon="1.24956">
        <ele>316.3</ele>
        <time>2024-11-29T14:51:26Z</time>
      </trkpt>
      <trkpt lat="45.86591" lon="1.24958">
        <ele>316.4</ele>
        <time>2024-11-29T14:51:27Z</time>
      </trkpt>
      <trkpt lat="45.86586" lon="1.24959">
        <ele>316.5</ele>
        <time>2024-11-29T14:51:28Z</time>
      </trkpt>
      <trkpt lat="45.86581" lon="1.24959">
        <ele>316.5</ele>
        <time>2024-11-29T14:51:29Z</time>
      </trkpt>
      <trkpt lat="45.86577" lon="1.24958">
        <ele>316.5</ele>
        <time>2024-11-29T14:51:30Z</time>
      </trkpt>
      <trkpt lat="45.86573" lon="1.24959">
        <ele>316.6</ele>
        <time>2024-11-29T14:51:31Z</time>
      </trkpt>
      <trkpt lat="45.86569" lon="1.24963">
        <ele>316.5</ele>
        <time>2024-11-29T14:51:32Z</time>
      </trkpt>
      <trkpt lat="45.86567" lon="1.24966">
        <ele>316.5</ele>
        <time>2024-11-29T14:51:33Z</time>
      </trkpt>
      <trkpt lat="45.86563" lon="1.2497">
        <ele>316.4</ele>
        <time>2024-11-29T14:51:34Z</time>
      </trkpt>
      <trkpt lat="45.86559" lon="1.24976">
        <ele>316.2</ele>
        <time>2024-11-29T14:51:35Z</time>
      </trkpt>
      <trkpt lat="45.86555" lon="1.2498">
        <ele>316.1</ele>
        <time>2024-11-29T14:51:36Z</time>
      </trkpt>
      <trkpt lat="45.86551" lon="1.24985">
        <ele>316</ele>
        <time>2024-11-29T14:51:37Z</time>
      </trkpt>
      <trkpt lat="45.86546" lon="1.24989">
        <ele>315.9</ele>
        <time>2024-11-29T14:51:38Z</time>
      </trkpt>
      <trkpt lat="45.8654" lon="1.24992">
        <ele>315.8</ele>
        <time>2024-11-29T14:51:39Z</time>
      </trkpt>
      <trkpt lat="45.86535" lon="1.24993">
        <ele>315.7</ele>
        <time>2024-11-29T14:51:40Z</time>
      </trkpt>
      <trkpt lat="45.86531" lon="1.24994">
        <ele>315.5</ele>
        <time>2024-11-29T14:51:41Z</time>
      </trkpt>
      <trkpt lat="45.86527" lon="1.24995">
        <ele>315.3</ele>
        <time>2024-11-29T14:51:43Z</time>
      </trkpt>
      <trkpt lat="45.86526" lon="1.24992">
        <ele>315.1</ele>
        <time>2024-11-29T14:53:04Z</time>
      </trkpt>
      <trkpt lat="45.86525" lon="1.24994">
        <ele>315</ele>
        <time>2024-11-29T14:53:46Z</time>
      </trkpt>
      <trkpt lat="45.86524" lon="1.24992">
        <ele>314.9</ele>
        <time>2024-11-29T14:53:56Z</time>
      </trkpt>
      <trkpt lat="45.86524" lon="1.24988">
        <ele>314.9</ele>
        <time>2024-11-29T14:54:02Z</time>
      </trkpt>
      <trkpt lat="45.86526" lon="1.24984">
        <ele>315</ele>
        <time>2024-11-29T14:54:03Z</time>
      </trkpt>
      <trkpt lat="45.86528" lon="1.2498">
        <ele>315.1</ele>
        <time>2024-11-29T14:54:04Z</time>
      </trkpt>
      <trkpt lat="45.8653" lon="1.24975">
        <ele>315.1</ele>
        <time>2024-11-29T14:54:05Z</time>
      </trkpt>
      <trkpt lat="45.86531" lon="1.2497">
        <ele>315.2</ele>
        <time>2024-11-29T14:54:06Z</time>
      </trkpt>
      <trkpt lat="45.86532" lon="1.24965">
        <ele>315.3</ele>
        <time>2024-11-29T14:54:07Z</time>
      </trkpt>
      <trkpt lat="45.86534" lon="1.24959">
        <ele>315.5</ele>
        <time>2024-11-29T14:54:08Z</time>
      </trkpt>
      <trkpt lat="45.86535" lon="1.24953">
        <ele>315.7</ele>
        <time>2024-11-29T14:54:09Z</time>
      </trkpt>
      <trkpt lat="45.86536" lon="1.24947">
        <ele>315.9</ele>
        <time>2024-11-29T14:54:10Z</time>
      </trkpt>
      <trkpt lat="45.86537" lon="1.24942">
        <ele>316.1</ele>
        <time>2024-11-29T14:54:11Z</time>
      </trkpt>
      <trkpt lat="45.86539" lon="1.24936">
        <ele>316.3</ele>
        <time>2024-11-29T14:54:12Z</time>
      </trkpt>
      <trkpt lat="45.8654" lon="1.2493">
        <ele>316.5</ele>
        <time>2024-11-29T14:54:13Z</time>
      </trkpt>
      <trkpt lat="45.8654" lon="1.24923">
        <ele>316.8</ele>
        <time>2024-11-29T14:54:14Z</time>
      </trkpt>
      <trkpt lat="45.86541" lon="1.24917">
        <ele>317</ele>
        <time>2024-11-29T14:54:15Z</time>
      </trkpt>
      <trkpt lat="45.86541" lon="1.24909">
        <ele>317.3</ele>
        <time>2024-11-29T14:54:16Z</time>
      </trkpt>
      <trkpt lat="45.86542" lon="1.24903">
        <ele>317.5</ele>
        <time>2024-11-29T14:54:17Z</time>
      </trkpt>
      <trkpt lat="45.86543" lon="1.24896">
        <ele>317.8</ele>
        <time>2024-11-29T14:54:18Z</time>
      </trkpt>
      <trkpt lat="45.86544" lon="1.2489">
        <ele>318</ele>
        <time>2024-11-29T14:54:19Z</time>
      </trkpt>
      <trkpt lat="45.86546" lon="1.24884">
        <ele>318.2</ele>
        <time>2024-11-29T14:54:20Z</time>
      </trkpt>
      <trkpt lat="45.86547" lon="1.24878">
        <ele>318.4</ele>
        <time>2024-11-29T14:54:21Z</time>
      </trkpt>
      <trkpt lat="45.86549" lon="1.24872">
        <ele>318.6</ele>
        <time>2024-11-29T14:54:22Z</time>
      </trkpt>
      <trkpt lat="45.8655" lon="1.24866">
        <ele>318.8</ele>
        <time>2024-11-29T14:54:23Z</time>
      </trkpt>
      <trkpt lat="45.86551" lon="1.2486">
        <ele>319</ele>
        <time>2024-11-29T14:54:24Z</time>
      </trkpt>
      <trkpt lat="45.86552" lon="1.24854">
        <ele>319.2</ele>
        <time>2024-11-29T14:54:25Z</time>
      </trkpt>
      <trkpt lat="45.86553" lon="1.24847">
        <ele>319.5</ele>
        <time>2024-11-29T14:54:26Z</time>
      </trkpt>
      <trkpt lat="45.86554" lon="1.24841">
        <ele>319.7</ele>
        <time>2024-11-29T14:54:27Z</time>
      </trkpt>
      <trkpt lat="45.86556" lon="1.24835">
        <ele>319.9</ele>
        <time>2024-11-29T14:54:28Z</time>
      </trkpt>
      <trkpt lat="45.86557" lon="1.24829">
        <ele>320.1</ele>
        <time>2024-11-29T14:54:29Z</time>
      </trkpt>
      <trkpt lat="45.86558" lon="1.24824">
        <ele>320.3</ele>
        <time>2024-11-29T14:54:30Z</time>
      </trkpt>
      <trkpt lat="45.8656" lon="1.24818">
        <ele>320.6</ele>
        <time>2024-11-29T14:54:31Z</time>
      </trkpt>
      <trkpt lat="45.86561" lon="1.24813">
        <ele>320.7</ele>
        <time>2024-11-29T14:54:32Z</time>
      </trkpt>
      <trkpt lat="45.86563" lon="1.24808">
        <ele>321</ele>
        <time>2024-11-29T14:54:33Z</time>
      </trkpt>
      <trkpt lat="45.86565" lon="1.24803">
        <ele>321.2</ele>
        <time>2024-11-29T14:54:34Z</time>
      </trkpt>
      <trkpt lat="45.86567" lon="1.24798">
        <ele>321.4</ele>
        <time>2024-11-29T14:54:35Z</time>
      </trkpt>
      <trkpt lat="45.86569" lon="1.24793">
        <ele>321.7</ele>
        <time>2024-11-29T14:54:36Z</time>
      </trkpt>
      <trkpt lat="45.86571" lon="1.24788">
        <ele>321.9</ele>
        <time>2024-11-29T14:54:37Z</time>
      </trkpt>
      <trkpt lat="45.86573" lon="1.24784">
        <ele>322.1</ele>
        <time>2024-11-29T14:54:38Z</time>
      </trkpt>
      <trkpt lat="45.86575" lon="1.2478">
        <ele>322.4</ele>
        <time>2024-11-29T14:54:39Z</time>
      </trkpt>
      <trkpt lat="45.86578" lon="1.24776">
        <ele>322.6</ele>
        <time>2024-11-29T14:54:40Z</time>
      </trkpt>
      <trkpt lat="45.86581" lon="1.24772">
        <ele>322.9</ele>
        <time>2024-11-29T14:54:41Z</time>
      </trkpt>
      <trkpt lat="45.86583" lon="1.24769">
        <ele>323.1</ele>
        <time>2024-11-29T14:54:42Z</time>
      </trkpt>
      <trkpt lat="45.86587" lon="1.24766">
        <ele>323.4</ele>
        <time>2024-11-29T14:54:43Z</time>
      </trkpt>
      <trkpt lat="45.8659" lon="1.24762">
        <ele>323.7</ele>
        <time>2024-11-29T14:54:44Z</time>
      </trkpt>
      <trkpt lat="45.86593" lon="1.24759">
        <ele>323.9</ele>
        <time>2024-11-29T14:54:45Z</time>
      </trkpt>
      <trkpt lat="45.86596" lon="1.24756">
        <ele>324.2</ele>
        <time>2024-11-29T14:54:46Z</time>
      </trkpt>
      <trkpt lat="45.866" lon="1.24753">
        <ele>324.5</ele>
        <time>2024-11-29T14:54:47Z</time>
      </trkpt>
      <trkpt lat="45.86603" lon="1.24749">
        <ele>324.8</ele>
        <time>2024-11-29T14:54:48Z</time>
      </trkpt>
      <trkpt lat="45.86606" lon="1.24746">
        <ele>325</ele>
        <time>2024-11-29T14:54:49Z</time>
      </trkpt>
      <trkpt lat="45.86609" lon="1.24743">
        <ele>325.3</ele>
        <time>2024-11-29T14:54:50Z</time>
      </trkpt>
      <trkpt lat="45.86613" lon="1.24739">
        <ele>325.6</ele>
        <time>2024-11-29T14:54:51Z</time>
      </trkpt>
      <trkpt lat="45.86615" lon="1.24735">
        <ele>325.8</ele>
        <time>2024-11-29T14:54:52Z</time>
      </trkpt>
      <trkpt lat="45.86618" lon="1.24731">
        <ele>326</ele>
        <time>2024-11-29T14:54:53Z</time>
      </trkpt>
      <trkpt lat="45.86621" lon="1.24728">
        <ele>326.2</ele>
        <time>2024-11-29T14:54:54Z</time>
      </trkpt>
      <trkpt lat="45.86624" lon="1.24724">
        <ele>326.5</ele>
        <time>2024-11-29T14:54:55Z</time>
      </trkpt>
      <trkpt lat="45.86627" lon="1.24721">
        <ele>326.7</ele>
        <time>2024-11-29T14:54:56Z</time>
      </trkpt>
      <trkpt lat="45.86631" lon="1.24717">
        <ele>326.9</ele>
        <time>2024-11-29T14:54:57Z</time>
      </trkpt>
      <trkpt lat="45.86634" lon="1.24714">
        <ele>327.1</ele>
        <time>2024-11-29T14:54:58Z</time>
      </trkpt>
      <trkpt lat="45.86637" lon="1.24711">
        <ele>327.3</ele>
        <time>2024-11-29T14:54:59Z</time>
      </trkpt>
      <trkpt lat="45.86641" lon="1.24708">
        <ele>327.5</ele>
        <time>2024-11-29T14:55:00Z</time>
      </trkpt>
      <trkpt lat="45.86644" lon="1.24705">
        <ele>327.7</ele>
        <time>2024-11-29T14:55:01Z</time>
      </trkpt>
      <trkpt lat="45.86647" lon="1.24702">
        <ele>327.8</ele>
        <time>2024-11-29T14:55:02Z</time>
      </trkpt>
      <trkpt lat="45.8665" lon="1.24698">
        <ele>328</ele>
        <time>2024-11-29T14:55:03Z</time>
      </trkpt>
      <trkpt lat="45.86653" lon="1.24695">
        <ele>328.2</ele>
        <time>2024-11-29T14:55:04Z</time>
      </trkpt>
      <trkpt lat="45.86657" lon="1.24692">
        <ele>328.4</ele>
        <time>2024-11-29T14:55:05Z</time>
      </trkpt>
      <trkpt lat="45.8666" lon="1.24689">
        <ele>328.5</ele>
        <time>2024-11-29T14:55:06Z</time>
      </trkpt>
      <trkpt lat="45.86663" lon="1.24686">
        <ele>328.7</ele>
        <time>2024-11-29T14:55:07Z</time>
      </trkpt>
      <trkpt lat="45.86666" lon="1.24683">
        <ele>328.8</ele>
        <time>2024-11-29T14:55:08Z</time>
      </trkpt>
      <trkpt lat="45.8667" lon="1.2468">
        <ele>329</ele>
        <time>2024-11-29T14:55:09Z</time>
      </trkpt>
      <trkpt lat="45.86673" lon="1.24677">
        <ele>329.2</ele>
        <time>2024-11-29T14:55:10Z</time>
      </trkpt>
      <trkpt lat="45.86676" lon="1.24674">
        <ele>329.3</ele>
        <time>2024-11-29T14:55:11Z</time>
      </trkpt>
      <trkpt lat="45.8668" lon="1.24671">
        <ele>329.5</ele>
        <time>2024-11-29T14:55:12Z</time>
      </trkpt>
      <trkpt lat="45.86683" lon="1.24667">
        <ele>329.7</ele>
        <time>2024-11-29T14:55:13Z</time>
      </trkpt>
      <trkpt lat="45.86686" lon="1.24664">
        <ele>329.8</ele>
        <time>2024-11-29T14:55:14Z</time>
      </trkpt>
      <trkpt lat="45.86689" lon="1.2466">
        <ele>330</ele>
        <time>2024-11-29T14:55:15Z</time>
      </trkpt>
      <trkpt lat="45.86692" lon="1.24656">
        <ele>330.1</ele>
        <time>2024-11-29T14:55:16Z</time>
      </trkpt>
      <trkpt lat="45.86695" lon="1.24653">
        <ele>330.2</ele>
        <time>2024-11-29T14:55:17Z</time>
      </trkpt>
      <trkpt lat="45.86698" lon="1.24649">
        <ele>330.3</ele>
        <time>2024-11-29T14:55:18Z</time>
      </trkpt>
      <trkpt lat="45.86701" lon="1.24645">
        <ele>330.4</ele>
        <time>2024-11-29T14:55:19Z</time>
      </trkpt>
      <trkpt lat="45.86704" lon="1.24642">
        <ele>330.5</ele>
        <time>2024-11-29T14:55:20Z</time>
      </trkpt>
      <trkpt lat="45.86706" lon="1.24638">
        <ele>330.7</ele>
        <time>2024-11-29T14:55:21Z</time>
      </trkpt>
      <trkpt lat="45.86709" lon="1.24634">
        <ele>330.8</ele>
        <time>2024-11-29T14:55:22Z</time>
      </trkpt>
      <trkpt lat="45.86711" lon="1.2463">
        <ele>330.9</ele>
        <time>2024-11-29T14:55:23Z</time>
      </trkpt>
      <trkpt lat="45.86714" lon="1.24625">
        <ele>331</ele>
        <time>2024-11-29T14:55:24Z</time>
      </trkpt>
      <trkpt lat="45.86716" lon="1.2462">
        <ele>331.2</ele>
        <time>2024-11-29T14:55:25Z</time>
      </trkpt>
      <trkpt lat="45.86718" lon="1.24615">
        <ele>331.3</ele>
        <time>2024-11-29T14:55:26Z</time>
      </trkpt>
      <trkpt lat="45.8672" lon="1.24609">
        <ele>331.4</ele>
        <time>2024-11-29T14:55:27Z</time>
      </trkpt>
      <trkpt lat="45.86722" lon="1.24604">
        <ele>331.5</ele>
        <time>2024-11-29T14:55:28Z</time>
      </trkpt>
      <trkpt lat="45.86724" lon="1.24598">
        <ele>331.7</ele>
        <time>2024-11-29T14:55:29Z</time>
      </trkpt>
      <trkpt lat="45.86726" lon="1.24592">
        <ele>331.9</ele>
        <time>2024-11-29T14:55:30Z</time>
      </trkpt>
      <trkpt lat="45.86728" lon="1.24587">
        <ele>332.1</ele>
        <time>2024-11-29T14:55:31Z</time>
      </trkpt>
      <trkpt lat="45.8673" lon="1.24581">
        <ele>332.3</ele>
        <time>2024-11-29T14:55:32Z</time>
      </trkpt>
      <trkpt lat="45.86732" lon="1.24575">
        <ele>332.4</ele>
        <time>2024-11-29T14:55:33Z</time>
      </trkpt>
      <trkpt lat="45.86734" lon="1.2457">
        <ele>332.6</ele>
        <time>2024-11-29T14:55:34Z</time>
      </trkpt>
      <trkpt lat="45.86736" lon="1.24564">
        <ele>332.7</ele>
        <time>2024-11-29T14:55:35Z</time>
      </trkpt>
      <trkpt lat="45.86737" lon="1.24559">
        <ele>332.9</ele>
        <time>2024-11-29T14:55:36Z</time>
      </trkpt>
      <trkpt lat="45.86739" lon="1.24554">
        <ele>333</ele>
        <time>2024-11-29T14:55:37Z</time>
      </trkpt>
      <trkpt lat="45.86741" lon="1.24548">
        <ele>333.2</ele>
        <time>2024-11-29T14:55:38Z</time>
      </trkpt>
      <trkpt lat="45.86742" lon="1.24542">
        <ele>333.3</ele>
        <time>2024-11-29T14:55:39Z</time>
      </trkpt>
      <trkpt lat="45.86744" lon="1.24537">
        <ele>333.5</ele>
        <time>2024-11-29T14:55:40Z</time>
      </trkpt>
      <trkpt lat="45.86746" lon="1.24531">
        <ele>333.6</ele>
        <time>2024-11-29T14:55:41Z</time>
      </trkpt>
      <trkpt lat="45.86747" lon="1.24525">
        <ele>333.7</ele>
        <time>2024-11-29T14:55:42Z</time>
      </trkpt>
      <trkpt lat="45.86748" lon="1.24519">
        <ele>333.9</ele>
        <time>2024-11-29T14:55:43Z</time>
      </trkpt>
      <trkpt lat="45.8675" lon="1.24513">
        <ele>334</ele>
        <time>2024-11-29T14:55:44Z</time>
      </trkpt>
      <trkpt lat="45.8675" lon="1.24506">
        <ele>334.1</ele>
        <time>2024-11-29T14:55:45Z</time>
      </trkpt>
      <trkpt lat="45.86751" lon="1.245">
        <ele>334.3</ele>
        <time>2024-11-29T14:55:46Z</time>
      </trkpt>
      <trkpt lat="45.86752" lon="1.24494">
        <ele>334.4</ele>
        <time>2024-11-29T14:55:47Z</time>
      </trkpt>
      <trkpt lat="45.86752" lon="1.24487">
        <ele>334.5</ele>
        <time>2024-11-29T14:55:48Z</time>
      </trkpt>
      <trkpt lat="45.86752" lon="1.2448">
        <ele>334.7</ele>
        <time>2024-11-29T14:55:49Z</time>
      </trkpt>
      <trkpt lat="45.86752" lon="1.24474">
        <ele>334.8</ele>
        <time>2024-11-29T14:55:50Z</time>
      </trkpt>
      <trkpt lat="45.86752" lon="1.24467">
        <ele>334.9</ele>
        <time>2024-11-29T14:55:51Z</time>
      </trkpt>
      <trkpt lat="45.86752" lon="1.24461">
        <ele>335</ele>
        <time>2024-11-29T14:55:52Z</time>
      </trkpt>
      <trkpt lat="45.86752" lon="1.24455">
        <ele>335.1</ele>
        <time>2024-11-29T14:55:53Z</time>
      </trkpt>
      <trkpt lat="45.86752" lon="1.24448">
        <ele>335.3</ele>
        <time>2024-11-29T14:55:54Z</time>
      </trkpt>
      <trkpt lat="45.86752" lon="1.24442">
        <ele>335.4</ele>
        <time>2024-11-29T14:55:55Z</time>
      </trkpt>
      <trkpt lat="45.86751" lon="1.24436">
        <ele>335.5</ele>
        <time>2024-11-29T14:55:56Z</time>
      </trkpt>
      <trkpt lat="45.86752" lon="1.2443">
        <ele>335.7</ele>
        <time>2024-11-29T14:55:57Z</time>
      </trkpt>
      <trkpt lat="45.86752" lon="1.24424">
        <ele>335.8</ele>
        <time>2024-11-29T14:55:58Z</time>
      </trkpt>
      <trkpt lat="45.86752" lon="1.24418">
        <ele>335.9</ele>
        <time>2024-11-29T14:55:59Z</time>
      </trkpt>
      <trkpt lat="45.86752" lon="1.24411">
        <ele>336.1</ele>
        <time>2024-11-29T14:56:00Z</time>
      </trkpt>
      <trkpt lat="45.86752" lon="1.24405">
        <ele>336.2</ele>
        <time>2024-11-29T14:56:01Z</time>
      </trkpt>
      <trkpt lat="45.86752" lon="1.24399">
        <ele>336.3</ele>
        <time>2024-11-29T14:56:02Z</time>
      </trkpt>
      <trkpt lat="45.86752" lon="1.24393">
        <ele>336.5</ele>
        <time>2024-11-29T14:56:03Z</time>
      </trkpt>
      <trkpt lat="45.86752" lon="1.24387">
        <ele>336.6</ele>
        <time>2024-11-29T14:56:04Z</time>
      </trkpt>
      <trkpt lat="45.86752" lon="1.24381">
        <ele>336.8</ele>
        <time>2024-11-29T14:56:05Z</time>
      </trkpt>
      <trkpt lat="45.86752" lon="1.24375">
        <ele>336.9</ele>
        <time>2024-11-29T14:56:06Z</time>
      </trkpt>
      <trkpt lat="45.86751" lon="1.24369">
        <ele>337.1</ele>
        <time>2024-11-29T14:56:07Z</time>
      </trkpt>
      <trkpt lat="45.86751" lon="1.24363">
        <ele>337.3</ele>
        <time>2024-11-29T14:56:08Z</time>
      </trkpt>
      <trkpt lat="45.86751" lon="1.24358">
        <ele>337.4</ele>
        <time>2024-11-29T14:56:09Z</time>
      </trkpt>
      <trkpt lat="45.8675" lon="1.24352">
        <ele>337.6</ele>
        <time>2024-11-29T14:56:10Z</time>
      </trkpt>
      <trkpt lat="45.8675" lon="1.24346">
        <ele>337.7</ele>
        <time>2024-11-29T14:56:11Z</time>
      </trkpt>
      <trkpt lat="45.8675" lon="1.24341">
        <ele>337.8</ele>
        <time>2024-11-29T14:56:12Z</time>
      </trkpt>
      <trkpt lat="45.86751" lon="1.24335">
        <ele>338</ele>
        <time>2024-11-29T14:56:13Z</time>
      </trkpt>
      <trkpt lat="45.86751" lon="1.24329">
        <ele>338.2</ele>
        <time>2024-11-29T14:56:14Z</time>
      </trkpt>
      <trkpt lat="45.86751" lon="1.24322">
        <ele>338.4</ele>
        <time>2024-11-29T14:56:15Z</time>
      </trkpt>
      <trkpt lat="45.86751" lon="1.24317">
        <ele>338.5</ele>
        <time>2024-11-29T14:56:16Z</time>
      </trkpt>
      <trkpt lat="45.86751" lon="1.24311">
        <ele>338.7</ele>
        <time>2024-11-29T14:56:17Z</time>
      </trkpt>
      <trkpt lat="45.86751" lon="1.24305">
        <ele>338.9</ele>
        <time>2024-11-29T14:56:18Z</time>
      </trkpt>
      <trkpt lat="45.86751" lon="1.243">
        <ele>339</ele>
        <time>2024-11-29T14:56:19Z</time>
      </trkpt>
      <trkpt lat="45.86751" lon="1.24294">
        <ele>339.2</ele>
        <time>2024-11-29T14:56:20Z</time>
      </trkpt>
      <trkpt lat="45.86751" lon="1.24288">
        <ele>339.4</ele>
        <time>2024-11-29T14:56:21Z</time>
      </trkpt>
      <trkpt lat="45.86751" lon="1.24282">
        <ele>339.6</ele>
        <time>2024-11-29T14:56:22Z</time>
      </trkpt>
      <trkpt lat="45.86751" lon="1.24275">
        <ele>339.8</ele>
        <time>2024-11-29T14:56:23Z</time>
      </trkpt>
      <trkpt lat="45.86751" lon="1.24269">
        <ele>340</ele>
        <time>2024-11-29T14:56:24Z</time>
      </trkpt>
      <trkpt lat="45.8675" lon="1.24263">
        <ele>340.2</ele>
        <time>2024-11-29T14:56:25Z</time>
      </trkpt>
      <trkpt lat="45.8675" lon="1.24257">
        <ele>340.4</ele>
        <time>2024-11-29T14:56:26Z</time>
      </trkpt>
      <trkpt lat="45.8675" lon="1.24251">
        <ele>340.6</ele>
        <time>2024-11-29T14:56:27Z</time>
      </trkpt>
      <trkpt lat="45.8675" lon="1.24245">
        <ele>340.8</ele>
        <time>2024-11-29T14:56:28Z</time>
      </trkpt>
      <trkpt lat="45.8675" lon="1.2424">
        <ele>340.9</ele>
        <time>2024-11-29T14:56:29Z</time>
      </trkpt>
      <trkpt lat="45.8675" lon="1.24234">
        <ele>341.1</ele>
        <time>2024-11-29T14:56:30Z</time>
      </trkpt>
      <trkpt lat="45.8675" lon="1.24228">
        <ele>341.3</ele>
        <time>2024-11-29T14:56:31Z</time>
      </trkpt>
      <trkpt lat="45.8675" lon="1.24223">
        <ele>341.5</ele>
        <time>2024-11-29T14:56:32Z</time>
      </trkpt>
      <trkpt lat="45.8675" lon="1.24217">
        <ele>341.7</ele>
        <time>2024-11-29T14:56:33Z</time>
      </trkpt>
      <trkpt lat="45.8675" lon="1.24212">
        <ele>341.8</ele>
        <time>2024-11-29T14:56:34Z</time>
      </trkpt>
      <trkpt lat="45.8675" lon="1.24206">
        <ele>342</ele>
        <time>2024-11-29T14:56:35Z</time>
      </trkpt>
      <trkpt lat="45.8675" lon="1.24201">
        <ele>342.2</ele>
        <time>2024-11-29T14:56:36Z</time>
      </trkpt>
      <trkpt lat="45.8675" lon="1.24195">
        <ele>342.4</ele>
        <time>2024-11-29T14:56:37Z</time>
      </trkpt>
      <trkpt lat="45.8675" lon="1.2419">
        <ele>342.5</ele>
        <time>2024-11-29T14:56:38Z</time>
      </trkpt>
      <trkpt lat="45.86749" lon="1.24184">
        <ele>342.7</ele>
        <time>2024-11-29T14:56:39Z</time>
      </trkpt>
      <trkpt lat="45.86749" lon="1.24178">
        <ele>342.9</ele>
        <time>2024-11-29T14:56:40Z</time>
      </trkpt>
      <trkpt lat="45.8675" lon="1.24172">
        <ele>343</ele>
        <time>2024-11-29T14:56:41Z</time>
      </trkpt>
      <trkpt lat="45.8675" lon="1.24166">
        <ele>343.2</ele>
        <time>2024-11-29T14:56:42Z</time>
      </trkpt>
      <trkpt lat="45.8675" lon="1.24161">
        <ele>343.3</ele>
        <time>2024-11-29T14:56:43Z</time>
      </trkpt>
      <trkpt lat="45.8675" lon="1.24155">
        <ele>343.5</ele>
        <time>2024-11-29T14:56:44Z</time>
      </trkpt>
      <trkpt lat="45.8675" lon="1.2415">
        <ele>343.6</ele>
        <time>2024-11-29T14:56:45Z</time>
      </trkpt>
      <trkpt lat="45.8675" lon="1.24145">
        <ele>343.7</ele>
        <time>2024-11-29T14:56:46Z</time>
      </trkpt>
      <trkpt lat="45.8675" lon="1.2414">
        <ele>343.8</ele>
        <time>2024-11-29T14:56:47Z</time>
      </trkpt>
      <trkpt lat="45.86751" lon="1.24134">
        <ele>344</ele>
        <time>2024-11-29T14:56:48Z</time>
      </trkpt>
      <trkpt lat="45.86751" lon="1.24129">
        <ele>344.1</ele>
        <time>2024-11-29T14:56:49Z</time>
      </trkpt>
      <trkpt lat="45.86751" lon="1.24124">
        <ele>344.2</ele>
        <time>2024-11-29T14:56:50Z</time>
      </trkpt>
      <trkpt lat="45.86751" lon="1.24119">
        <ele>344.3</ele>
        <time>2024-11-29T14:56:51Z</time>
      </trkpt>
      <trkpt lat="45.86751" lon="1.24113">
        <ele>344.4</ele>
        <time>2024-11-29T14:56:52Z</time>
      </trkpt>
      <trkpt lat="45.86751" lon="1.24108">
        <ele>344.4</ele>
        <time>2024-11-29T14:56:53Z</time>
      </trkpt>
      <trkpt lat="45.86751" lon="1.24102">
        <ele>344.5</ele>
        <time>2024-11-29T14:56:54Z</time>
      </trkpt>
      <trkpt lat="45.86751" lon="1.24096">
        <ele>344.6</ele>
        <time>2024-11-29T14:56:55Z</time>
      </trkpt>
      <trkpt lat="45.86751" lon="1.24091">
        <ele>344.7</ele>
        <time>2024-11-29T14:56:56Z</time>
      </trkpt>
      <trkpt lat="45.86751" lon="1.24085">
        <ele>344.8</ele>
        <time>2024-11-29T14:56:57Z</time>
      </trkpt>
      <trkpt lat="45.8675" lon="1.2408">
        <ele>344.9</ele>
        <time>2024-11-29T14:56:58Z</time>
      </trkpt>
      <trkpt lat="45.8675" lon="1.24074">
        <ele>345</ele>
        <time>2024-11-29T14:56:59Z</time>
      </trkpt>
      <trkpt lat="45.86751" lon="1.24068">
        <ele>345.1</ele>
        <time>2024-11-29T14:57:00Z</time>
      </trkpt>
      <trkpt lat="45.8675" lon="1.24063">
        <ele>345.2</ele>
        <time>2024-11-29T14:57:01Z</time>
      </trkpt>
      <trkpt lat="45.8675" lon="1.24057">
        <ele>345.3</ele>
        <time>2024-11-29T14:57:02Z</time>
      </trkpt>
      <trkpt lat="45.8675" lon="1.24052">
        <ele>345.3</ele>
        <time>2024-11-29T14:57:03Z</time>
      </trkpt>
      <trkpt lat="45.8675" lon="1.24047">
        <ele>345.4</ele>
        <time>2024-11-29T14:57:04Z</time>
      </trkpt>
      <trkpt lat="45.86749" lon="1.24042">
        <ele>345.5</ele>
        <time>2024-11-29T14:57:05Z</time>
      </trkpt>
      <trkpt lat="45.86749" lon="1.24036">
        <ele>345.5</ele>
        <time>2024-11-29T14:57:06Z</time>
      </trkpt>
      <trkpt lat="45.86749" lon="1.2403">
        <ele>345.6</ele>
        <time>2024-11-29T14:57:07Z</time>
      </trkpt>
      <trkpt lat="45.86748" lon="1.24024">
        <ele>345.6</ele>
        <time>2024-11-29T14:57:08Z</time>
      </trkpt>
      <trkpt lat="45.86748" lon="1.24018">
        <ele>345.6</ele>
        <time>2024-11-29T14:57:09Z</time>
      </trkpt>
      <trkpt lat="45.86748" lon="1.24012">
        <ele>345.7</ele>
        <time>2024-11-29T14:57:10Z</time>
      </trkpt>
      <trkpt lat="45.86746" lon="1.24007">
        <ele>345.7</ele>
        <time>2024-11-29T14:57:11Z</time>
      </trkpt>
      <trkpt lat="45.86744" lon="1.24003">
        <ele>345.7</ele>
        <time>2024-11-29T14:57:12Z</time>
      </trkpt>
      <trkpt lat="45.86741" lon="1.24">
        <ele>345.6</ele>
        <time>2024-11-29T14:57:13Z</time>
      </trkpt>
      <trkpt lat="45.86737" lon="1.23999">
        <ele>345.4</ele>
        <time>2024-11-29T14:57:14Z</time>
      </trkpt>
      <trkpt lat="45.86732" lon="1.23999">
        <ele>345.3</ele>
        <time>2024-11-29T14:57:15Z</time>
      </trkpt>
      <trkpt lat="45.86727" lon="1.23999">
        <ele>345.1</ele>
        <time>2024-11-29T14:57:16Z</time>
      </trkpt>
      <trkpt lat="45.86722" lon="1.23998">
        <ele>345</ele>
        <time>2024-11-29T14:57:17Z</time>
      </trkpt>
      <trkpt lat="45.86717" lon="1.23997">
        <ele>344.8</ele>
        <time>2024-11-29T14:57:18Z</time>
      </trkpt>
      <trkpt lat="45.86711" lon="1.23997">
        <ele>344.7</ele>
        <time>2024-11-29T14:57:19Z</time>
      </trkpt>
      <trkpt lat="45.86705" lon="1.23997">
        <ele>344.5</ele>
        <time>2024-11-29T14:57:20Z</time>
      </trkpt>
      <trkpt lat="45.867" lon="1.23996">
        <ele>344.4</ele>
        <time>2024-11-29T14:57:21Z</time>
      </trkpt>
      <trkpt lat="45.86693" lon="1.23995">
        <ele>344.2</ele>
        <time>2024-11-29T14:57:22Z</time>
      </trkpt>
      <trkpt lat="45.86687" lon="1.23995">
        <ele>344</ele>
        <time>2024-11-29T14:57:23Z</time>
      </trkpt>
      <trkpt lat="45.86681" lon="1.23994">
        <ele>343.8</ele>
        <time>2024-11-29T14:57:24Z</time>
      </trkpt>
      <trkpt lat="45.86675" lon="1.23993">
        <ele>343.7</ele>
        <time>2024-11-29T14:57:25Z</time>
      </trkpt>
      <trkpt lat="45.86668" lon="1.23992">
        <ele>343.5</ele>
        <time>2024-11-29T14:57:26Z</time>
      </trkpt>
      <trkpt lat="45.86662" lon="1.23992">
        <ele>343.3</ele>
        <time>2024-11-29T14:57:27Z</time>
      </trkpt>
      <trkpt lat="45.86655" lon="1.23992">
        <ele>343.1</ele>
        <time>2024-11-29T14:57:28Z</time>
      </trkpt>
      <trkpt lat="45.86649" lon="1.23992">
        <ele>342.9</ele>
        <time>2024-11-29T14:57:29Z</time>
      </trkpt>
      <trkpt lat="45.86642" lon="1.23992">
        <ele>342.7</ele>
        <time>2024-11-29T14:57:30Z</time>
      </trkpt>
      <trkpt lat="45.86636" lon="1.23991">
        <ele>342.6</ele>
        <time>2024-11-29T14:57:31Z</time>
      </trkpt>
      <trkpt lat="45.8663" lon="1.23991">
        <ele>342.4</ele>
        <time>2024-11-29T14:57:32Z</time>
      </trkpt>
      <trkpt lat="45.86623" lon="1.23991">
        <ele>342.2</ele>
        <time>2024-11-29T14:57:33Z</time>
      </trkpt>
      <trkpt lat="45.86617" lon="1.23991">
        <ele>342.1</ele>
        <time>2024-11-29T14:57:34Z</time>
      </trkpt>
      <trkpt lat="45.86611" lon="1.2399">
        <ele>341.9</ele>
        <time>2024-11-29T14:57:35Z</time>
      </trkpt>
      <trkpt lat="45.86605" lon="1.2399">
        <ele>341.7</ele>
        <time>2024-11-29T14:57:36Z</time>
      </trkpt>
      <trkpt lat="45.86599" lon="1.23989">
        <ele>341.6</ele>
        <time>2024-11-29T14:57:37Z</time>
      </trkpt>
      <trkpt lat="45.86593" lon="1.23988">
        <ele>341.4</ele>
        <time>2024-11-29T14:57:38Z</time>
      </trkpt>
      <trkpt lat="45.86587" lon="1.23988">
        <ele>341.3</ele>
        <time>2024-11-29T14:57:39Z</time>
      </trkpt>
      <trkpt lat="45.86581" lon="1.23987">
        <ele>341.1</ele>
        <time>2024-11-29T14:57:40Z</time>
      </trkpt>
      <trkpt lat="45.86575" lon="1.23987">
        <ele>341</ele>
        <time>2024-11-29T14:57:41Z</time>
      </trkpt>
      <trkpt lat="45.86569" lon="1.23986">
        <ele>340.9</ele>
        <time>2024-11-29T14:57:42Z</time>
      </trkpt>
      <trkpt lat="45.86563" lon="1.23986">
        <ele>340.7</ele>
        <time>2024-11-29T14:57:43Z</time>
      </trkpt>
      <trkpt lat="45.86557" lon="1.23986">
        <ele>340.6</ele>
        <time>2024-11-29T14:57:44Z</time>
      </trkpt>
      <trkpt lat="45.86551" lon="1.23985">
        <ele>340.5</ele>
        <time>2024-11-29T14:57:45Z</time>
      </trkpt>
      <trkpt lat="45.86544" lon="1.23985">
        <ele>340.4</ele>
        <time>2024-11-29T14:57:46Z</time>
      </trkpt>
      <trkpt lat="45.86538" lon="1.23985">
        <ele>340.3</ele>
        <time>2024-11-29T14:57:47Z</time>
      </trkpt>
      <trkpt lat="45.86532" lon="1.23984">
        <ele>340.2</ele>
        <time>2024-11-29T14:57:48Z</time>
      </trkpt>
      <trkpt lat="45.86526" lon="1.23984">
        <ele>340.1</ele>
        <time>2024-11-29T14:57:49Z</time>
      </trkpt>
      <trkpt lat="45.8652" lon="1.23983">
        <ele>340</ele>
        <time>2024-11-29T14:57:50Z</time>
      </trkpt>
      <trkpt lat="45.86514" lon="1.23982">
        <ele>339.9</ele>
        <time>2024-11-29T14:57:51Z</time>
      </trkpt>
      <trkpt lat="45.86507" lon="1.23981">
        <ele>339.8</ele>
        <time>2024-11-29T14:57:52Z</time>
      </trkpt>
      <trkpt lat="45.86501" lon="1.23979">
        <ele>339.7</ele>
        <time>2024-11-29T14:57:53Z</time>
      </trkpt>
      <trkpt lat="45.86495" lon="1.23977">
        <ele>339.6</ele>
        <time>2024-11-29T14:57:54Z</time>
      </trkpt>
      <trkpt lat="45.86489" lon="1.23974">
        <ele>339.5</ele>
        <time>2024-11-29T14:57:55Z</time>
      </trkpt>
      <trkpt lat="45.86483" lon="1.2397">
        <ele>339.4</ele>
        <time>2024-11-29T14:57:56Z</time>
      </trkpt>
      <trkpt lat="45.86477" lon="1.23966">
        <ele>339.2</ele>
        <time>2024-11-29T14:57:57Z</time>
      </trkpt>
      <trkpt lat="45.86471" lon="1.23962">
        <ele>339.1</ele>
        <time>2024-11-29T14:57:58Z</time>
      </trkpt>
      <trkpt lat="45.86466" lon="1.23958">
        <ele>339</ele>
        <time>2024-11-29T14:57:59Z</time>
      </trkpt>
      <trkpt lat="45.8646" lon="1.23953">
        <ele>338.8</ele>
        <time>2024-11-29T14:58:00Z</time>
      </trkpt>
      <trkpt lat="45.86455" lon="1.23949">
        <ele>338.7</ele>
        <time>2024-11-29T14:58:01Z</time>
      </trkpt>
      <trkpt lat="45.8645" lon="1.23944">
        <ele>338.6</ele>
        <time>2024-11-29T14:58:02Z</time>
      </trkpt>
      <trkpt lat="45.86445" lon="1.23938">
        <ele>338.4</ele>
        <time>2024-11-29T14:58:03Z</time>
      </trkpt>
      <trkpt lat="45.86439" lon="1.23934">
        <ele>338.3</ele>
        <time>2024-11-29T14:58:04Z</time>
      </trkpt>
      <trkpt lat="45.86434" lon="1.23929">
        <ele>338.2</ele>
        <time>2024-11-29T14:58:05Z</time>
      </trkpt>
      <trkpt lat="45.86428" lon="1.23924">
        <ele>338</ele>
        <time>2024-11-29T14:58:06Z</time>
      </trkpt>
      <trkpt lat="45.86422" lon="1.2392">
        <ele>337.9</ele>
        <time>2024-11-29T14:58:07Z</time>
      </trkpt>
      <trkpt lat="45.86417" lon="1.23916">
        <ele>337.7</ele>
        <time>2024-11-29T14:58:08Z</time>
      </trkpt>
      <trkpt lat="45.86412" lon="1.23912">
        <ele>337.6</ele>
        <time>2024-11-29T14:58:09Z</time>
      </trkpt>
      <trkpt lat="45.86406" lon="1.23907">
        <ele>337.4</ele>
        <time>2024-11-29T14:58:10Z</time>
      </trkpt>
      <trkpt lat="45.864" lon="1.23902">
        <ele>337.3</ele>
        <time>2024-11-29T14:58:11Z</time>
      </trkpt>
      <trkpt lat="45.86393" lon="1.23897">
        <ele>337.1</ele>
        <time>2024-11-29T14:58:12Z</time>
      </trkpt>
      <trkpt lat="45.86387" lon="1.23893">
        <ele>337</ele>
        <time>2024-11-29T14:58:13Z</time>
      </trkpt>
      <trkpt lat="45.86381" lon="1.23889">
        <ele>336.9</ele>
        <time>2024-11-29T14:58:14Z</time>
      </trkpt>
      <trkpt lat="45.86376" lon="1.23885">
        <ele>336.7</ele>
        <time>2024-11-29T14:58:15Z</time>
      </trkpt>
      <trkpt lat="45.8637" lon="1.2388">
        <ele>336.6</ele>
        <time>2024-11-29T14:58:16Z</time>
      </trkpt>
      <trkpt lat="45.86365" lon="1.23876">
        <ele>336.5</ele>
        <time>2024-11-29T14:58:17Z</time>
      </trkpt>
      <trkpt lat="45.86359" lon="1.23872">
        <ele>336.4</ele>
        <time>2024-11-29T14:58:18Z</time>
      </trkpt>
      <trkpt lat="45.86354" lon="1.23869">
        <ele>336.3</ele>
        <time>2024-11-29T14:58:19Z</time>
      </trkpt>
      <trkpt lat="45.86348" lon="1.23864">
        <ele>336.1</ele>
        <time>2024-11-29T14:58:20Z</time>
      </trkpt>
      <trkpt lat="45.86343" lon="1.2386">
        <ele>335.9</ele>
        <time>2024-11-29T14:58:21Z</time>
      </trkpt>
      <trkpt lat="45.86338" lon="1.23857">
        <ele>335.8</ele>
        <time>2024-11-29T14:58:22Z</time>
      </trkpt>
      <trkpt lat="45.86333" lon="1.23853">
        <ele>335.6</ele>
        <time>2024-11-29T14:58:23Z</time>
      </trkpt>
      <trkpt lat="45.86329" lon="1.2385">
        <ele>335.4</ele>
        <time>2024-11-29T14:58:24Z</time>
      </trkpt>
      <trkpt lat="45.86325" lon="1.23847">
        <ele>335.3</ele>
        <time>2024-11-29T14:58:25Z</time>
      </trkpt>
      <trkpt lat="45.86321" lon="1.23844">
        <ele>335.1</ele>
        <time>2024-11-29T14:58:26Z</time>
      </trkpt>
      <trkpt lat="45.86318" lon="1.23842">
        <ele>335.1</ele>
        <time>2024-11-29T14:58:27Z</time>
      </trkpt>
      <trkpt lat="45.86316" lon="1.23839">
        <ele>335</ele>
        <time>2024-11-29T14:58:28Z</time>
      </trkpt>
      <trkpt lat="45.86315" lon="1.23835">
        <ele>335</ele>
        <time>2024-11-29T14:58:30Z</time>
      </trkpt>
      <trkpt lat="45.86316" lon="1.2383">
        <ele>335</ele>
        <time>2024-11-29T14:58:32Z</time>
      </trkpt>
      <trkpt lat="45.86317" lon="1.23826">
        <ele>335.1</ele>
        <time>2024-11-29T14:58:33Z</time>
      </trkpt>
      <trkpt lat="45.86318" lon="1.23822">
        <ele>335.3</ele>
        <time>2024-11-29T14:58:34Z</time>
      </trkpt>
      <trkpt lat="45.8632" lon="1.23818">
        <ele>335.4</ele>
        <time>2024-11-29T14:58:35Z</time>
      </trkpt>
      <trkpt lat="45.86323" lon="1.23813">
        <ele>335.6</ele>
        <time>2024-11-29T14:58:36Z</time>
      </trkpt>
      <trkpt lat="45.86326" lon="1.23809">
        <ele>335.8</ele>
        <time>2024-11-29T14:58:37Z</time>
      </trkpt>
      <trkpt lat="45.86329" lon="1.23805">
        <ele>335.9</ele>
        <time>2024-11-29T14:58:38Z</time>
      </trkpt>
      <trkpt lat="45.86333" lon="1.23802">
        <ele>336.1</ele>
        <time>2024-11-29T14:58:39Z</time>
      </trkpt>
      <trkpt lat="45.86337" lon="1.23799">
        <ele>336.2</ele>
        <time>2024-11-29T14:58:40Z</time>
      </trkpt>
      <trkpt lat="45.8634" lon="1.23796">
        <ele>336.3</ele>
        <time>2024-11-29T14:58:41Z</time>
      </trkpt>
      <trkpt lat="45.86342" lon="1.23791">
        <ele>336.1</ele>
        <time>2024-11-29T14:58:42Z</time>
      </trkpt>
      <trkpt lat="45.86343" lon="1.23787">
        <ele>336.1</ele>
        <time>2024-11-29T14:58:43Z</time>
      </trkpt>
      <trkpt lat="45.86342" lon="1.23783">
        <ele>335.9</ele>
        <time>2024-11-29T14:58:44Z</time>
      </trkpt>
      <trkpt lat="45.8634" lon="1.2378">
        <ele>335.7</ele>
        <time>2024-11-29T14:58:45Z</time>
      </trkpt>
      <trkpt lat="45.86336" lon="1.23777">
        <ele>335.4</ele>
        <time>2024-11-29T14:58:46Z</time>
      </trkpt>
      <trkpt lat="45.86333" lon="1.23773">
        <ele>335.1</ele>
        <time>2024-11-29T14:58:47Z</time>
      </trkpt>
      <trkpt lat="45.86328" lon="1.23771">
        <ele>335.1</ele>
        <time>2024-11-29T14:58:48Z</time>
      </trkpt>
      <trkpt lat="45.86324" lon="1.23768">
        <ele>335</ele>
        <time>2024-11-29T14:58:49Z</time>
      </trkpt>
      <trkpt lat="45.86319" lon="1.23765">
        <ele>335</ele>
        <time>2024-11-29T14:58:50Z</time>
      </trkpt>
      <trkpt lat="45.86314" lon="1.23763">
        <ele>335</ele>
        <time>2024-11-29T14:58:51Z</time>
      </trkpt>
      <trkpt lat="45.86309" lon="1.2376">
        <ele>335</ele>
        <time>2024-11-29T14:58:52Z</time>
      </trkpt>
      <trkpt lat="45.86303" lon="1.23757">
        <ele>335</ele>
        <time>2024-11-29T14:58:53Z</time>
      </trkpt>
      <trkpt lat="45.86298" lon="1.23754">
        <ele>335</ele>
        <time>2024-11-29T14:58:54Z</time>
      </trkpt>
      <trkpt lat="45.86292" lon="1.23751">
        <ele>335</ele>
        <time>2024-11-29T14:58:55Z</time>
      </trkpt>
      <trkpt lat="45.86287" lon="1.23748">
        <ele>335</ele>
        <time>2024-11-29T14:58:56Z</time>
      </trkpt>
      <trkpt lat="45.86281" lon="1.23745">
        <ele>335</ele>
        <time>2024-11-29T14:58:57Z</time>
      </trkpt>
      <trkpt lat="45.86275" lon="1.23742">
        <ele>335</ele>
        <time>2024-11-29T14:58:58Z</time>
      </trkpt>
      <trkpt lat="45.86269" lon="1.23739">
        <ele>335</ele>
        <time>2024-11-29T14:58:59Z</time>
      </trkpt>
      <trkpt lat="45.86263" lon="1.23737">
        <ele>335</ele>
        <time>2024-11-29T14:59:00Z</time>
      </trkpt>
      <trkpt lat="45.86258" lon="1.23734">
        <ele>335</ele>
        <time>2024-11-29T14:59:01Z</time>
      </trkpt>
      <trkpt lat="45.86252" lon="1.23732">
        <ele>335</ele>
        <time>2024-11-29T14:59:02Z</time>
      </trkpt>
      <trkpt lat="45.86246" lon="1.23728">
        <ele>335</ele>
        <time>2024-11-29T14:59:03Z</time>
      </trkpt>
      <trkpt lat="45.8624" lon="1.23726">
        <ele>334.9</ele>
        <time>2024-11-29T14:59:04Z</time>
      </trkpt>
      <trkpt lat="45.86234" lon="1.23723">
        <ele>334.9</ele>
        <time>2024-11-29T14:59:05Z</time>
      </trkpt>
      <trkpt lat="45.86228" lon="1.2372">
        <ele>334.8</ele>
        <time>2024-11-29T14:59:06Z</time>
      </trkpt>
      <trkpt lat="45.86222" lon="1.23717">
        <ele>334.7</ele>
        <time>2024-11-29T14:59:07Z</time>
      </trkpt>
      <trkpt lat="45.86216" lon="1.23714">
        <ele>334.6</ele>
        <time>2024-11-29T14:59:08Z</time>
      </trkpt>
      <trkpt lat="45.8621" lon="1.2371">
        <ele>334.5</ele>
        <time>2024-11-29T14:59:09Z</time>
      </trkpt>
      <trkpt lat="45.86204" lon="1.23707">
        <ele>334.3</ele>
        <time>2024-11-29T14:59:10Z</time>
      </trkpt>
      <trkpt lat="45.86197" lon="1.23703">
        <ele>334.1</ele>
        <time>2024-11-29T14:59:11Z</time>
      </trkpt>
      <trkpt lat="45.86191" lon="1.237">
        <ele>333.9</ele>
        <time>2024-11-29T14:59:12Z</time>
      </trkpt>
      <trkpt lat="45.86185" lon="1.23697">
        <ele>333.7</ele>
        <time>2024-11-29T14:59:13Z</time>
      </trkpt>
      <trkpt lat="45.86178" lon="1.23694">
        <ele>333.5</ele>
        <time>2024-11-29T14:59:14Z</time>
      </trkpt>
      <trkpt lat="45.86171" lon="1.2369">
        <ele>333.2</ele>
        <time>2024-11-29T14:59:15Z</time>
      </trkpt>
      <trkpt lat="45.86165" lon="1.23687">
        <ele>332.9</ele>
        <time>2024-11-29T14:59:16Z</time>
      </trkpt>
      <trkpt lat="45.86158" lon="1.23683">
        <ele>332.5</ele>
        <time>2024-11-29T14:59:17Z</time>
      </trkpt>
      <trkpt lat="45.86152" lon="1.2368">
        <ele>332.2</ele>
        <time>2024-11-29T14:59:18Z</time>
      </trkpt>
      <trkpt lat="45.86145" lon="1.23676">
        <ele>331.8</ele>
        <time>2024-11-29T14:59:19Z</time>
      </trkpt>
      <trkpt lat="45.86138" lon="1.23673">
        <ele>331.4</ele>
        <time>2024-11-29T14:59:20Z</time>
      </trkpt>
      <trkpt lat="45.86131" lon="1.23669">
        <ele>331</ele>
        <time>2024-11-29T14:59:21Z</time>
      </trkpt>
      <trkpt lat="45.86124" lon="1.23666">
        <ele>330.7</ele>
        <time>2024-11-29T14:59:22Z</time>
      </trkpt>
      <trkpt lat="45.86116" lon="1.23663">
        <ele>330.5</ele>
        <time>2024-11-29T14:59:23Z</time>
      </trkpt>
      <trkpt lat="45.86109" lon="1.2366">
        <ele>330.2</ele>
        <time>2024-11-29T14:59:24Z</time>
      </trkpt>
      <trkpt lat="45.86101" lon="1.23657">
        <ele>330</ele>
        <time>2024-11-29T14:59:25Z</time>
      </trkpt>
      <trkpt lat="45.86094" lon="1.23654">
        <ele>329.8</ele>
        <time>2024-11-29T14:59:26Z</time>
      </trkpt>
      <trkpt lat="45.86087" lon="1.23651">
        <ele>329.6</ele>
        <time>2024-11-29T14:59:27Z</time>
      </trkpt>
      <trkpt lat="45.8608" lon="1.23647">
        <ele>329.4</ele>
        <time>2024-11-29T14:59:28Z</time>
      </trkpt>
      <trkpt lat="45.86073" lon="1.23643">
        <ele>329.3</ele>
        <time>2024-11-29T14:59:29Z</time>
      </trkpt>
      <trkpt lat="45.86067" lon="1.23639">
        <ele>329.1</ele>
        <time>2024-11-29T14:59:30Z</time>
      </trkpt>
      <trkpt lat="45.8606" lon="1.23635">
        <ele>329</ele>
        <time>2024-11-29T14:59:31Z</time>
      </trkpt>
      <trkpt lat="45.86053" lon="1.23631">
        <ele>328.9</ele>
        <time>2024-11-29T14:59:32Z</time>
      </trkpt>
      <trkpt lat="45.86047" lon="1.23628">
        <ele>328.7</ele>
        <time>2024-11-29T14:59:33Z</time>
      </trkpt>
      <trkpt lat="45.8604" lon="1.23625">
        <ele>328.6</ele>
        <time>2024-11-29T14:59:34Z</time>
      </trkpt>
      <trkpt lat="45.86033" lon="1.23622">
        <ele>328.4</ele>
        <time>2024-11-29T14:59:35Z</time>
      </trkpt>
      <trkpt lat="45.86027" lon="1.23619">
        <ele>328.3</ele>
        <time>2024-11-29T14:59:36Z</time>
      </trkpt>
      <trkpt lat="45.8602" lon="1.23615">
        <ele>328.1</ele>
        <time>2024-11-29T14:59:37Z</time>
      </trkpt>
      <trkpt lat="45.86014" lon="1.23612">
        <ele>328</ele>
        <time>2024-11-29T14:59:38Z</time>
      </trkpt>
      <trkpt lat="45.86008" lon="1.23609">
        <ele>327.8</ele>
        <time>2024-11-29T14:59:39Z</time>
      </trkpt>
      <trkpt lat="45.86002" lon="1.23605">
        <ele>327.7</ele>
        <time>2024-11-29T14:59:40Z</time>
      </trkpt>
      <trkpt lat="45.85996" lon="1.23602">
        <ele>327.5</ele>
        <time>2024-11-29T14:59:41Z</time>
      </trkpt>
      <trkpt lat="45.8599" lon="1.23598">
        <ele>327.3</ele>
        <time>2024-11-29T14:59:42Z</time>
      </trkpt>
      <trkpt lat="45.85985" lon="1.23595">
        <ele>327.2</ele>
        <time>2024-11-29T14:59:43Z</time>
      </trkpt>
      <trkpt lat="45.85979" lon="1.23591">
        <ele>327.1</ele>
        <time>2024-11-29T14:59:44Z</time>
      </trkpt>
      <trkpt lat="45.85973" lon="1.23588">
        <ele>327</ele>
        <time>2024-11-29T14:59:45Z</time>
      </trkpt>
      <trkpt lat="45.85968" lon="1.23584">
        <ele>326.9</ele>
        <time>2024-11-29T14:59:46Z</time>
      </trkpt>
      <trkpt lat="45.85962" lon="1.23581">
        <ele>326.7</ele>
        <time>2024-11-29T14:59:47Z</time>
      </trkpt>
      <trkpt lat="45.85956" lon="1.23578">
        <ele>326.6</ele>
        <time>2024-11-29T14:59:48Z</time>
      </trkpt>
      <trkpt lat="45.8595" lon="1.23574">
        <ele>326.5</ele>
        <time>2024-11-29T14:59:49Z</time>
      </trkpt>
      <trkpt lat="45.85945" lon="1.23571">
        <ele>326.4</ele>
        <time>2024-11-29T14:59:50Z</time>
      </trkpt>
      <trkpt lat="45.8594" lon="1.23569">
        <ele>326.4</ele>
        <time>2024-11-29T14:59:51Z</time>
      </trkpt>
      <trkpt lat="45.85936" lon="1.23567">
        <ele>326.3</ele>
        <time>2024-11-29T14:59:52Z</time>
      </trkpt>
      <trkpt lat="45.85933" lon="1.23565">
        <ele>326</ele>
        <time>2024-11-29T14:59:53Z</time>
      </trkpt>
      <trkpt lat="45.8593" lon="1.23562">
        <ele>326</ele>
        <time>2024-11-29T14:59:54Z</time>
      </trkpt>
      <trkpt lat="45.85927" lon="1.23561">
        <ele>325.9</ele>
        <time>2024-11-29T14:59:55Z</time>
      </trkpt>
      <trkpt lat="45.85924" lon="1.23559">
        <ele>325.9</ele>
        <time>2024-11-29T14:59:56Z</time>
      </trkpt>
      <trkpt lat="45.8592" lon="1.23558">
        <ele>325.9</ele>
        <time>2024-11-29T14:59:57Z</time>
      </trkpt>
      <trkpt lat="45.85916" lon="1.23557">
        <ele>325.9</ele>
        <time>2024-11-29T14:59:58Z</time>
      </trkpt>
      <trkpt lat="45.85911" lon="1.23556">
        <ele>325.9</ele>
        <time>2024-11-29T14:59:59Z</time>
      </trkpt>
      <trkpt lat="45.85906" lon="1.23554">
        <ele>325.8</ele>
        <time>2024-11-29T15:00:00Z</time>
      </trkpt>
      <trkpt lat="45.859" lon="1.23552">
        <ele>325.7</ele>
        <time>2024-11-29T15:00:01Z</time>
      </trkpt>
      <trkpt lat="45.85895" lon="1.2355">
        <ele>325.7</ele>
        <time>2024-11-29T15:00:02Z</time>
      </trkpt>
      <trkpt lat="45.85889" lon="1.23549">
        <ele>325.6</ele>
        <time>2024-11-29T15:00:03Z</time>
      </trkpt>
      <trkpt lat="45.85883" lon="1.23549">
        <ele>325.4</ele>
        <time>2024-11-29T15:00:04Z</time>
      </trkpt>
      <trkpt lat="45.85877" lon="1.23551">
        <ele>325.3</ele>
        <time>2024-11-29T15:00:05Z</time>
      </trkpt>
      <trkpt lat="45.85871" lon="1.23554">
        <ele>325.1</ele>
        <time>2024-11-29T15:00:06Z</time>
      </trkpt>
      <trkpt lat="45.85865" lon="1.23557">
        <ele>324.8</ele>
        <time>2024-11-29T15:00:07Z</time>
      </trkpt>
      <trkpt lat="45.85859" lon="1.23562">
        <ele>324.4</ele>
        <time>2024-11-29T15:00:08Z</time>
      </trkpt>
      <trkpt lat="45.85852" lon="1.23566">
        <ele>324</ele>
        <time>2024-11-29T15:00:09Z</time>
      </trkpt>
      <trkpt lat="45.85846" lon="1.2357">
        <ele>323.6</ele>
        <time>2024-11-29T15:00:10Z</time>
      </trkpt>
      <trkpt lat="45.8584" lon="1.23575">
        <ele>323.2</ele>
        <time>2024-11-29T15:00:11Z</time>
      </trkpt>
      <trkpt lat="45.85833" lon="1.2358">
        <ele>322.7</ele>
        <time>2024-11-29T15:00:12Z</time>
      </trkpt>
      <trkpt lat="45.85826" lon="1.23585">
        <ele>322.3</ele>
        <time>2024-11-29T15:00:13Z</time>
      </trkpt>
      <trkpt lat="45.85819" lon="1.23589">
        <ele>321.8</ele>
        <time>2024-11-29T15:00:14Z</time>
      </trkpt>
      <trkpt lat="45.85812" lon="1.23594">
        <ele>321.3</ele>
        <time>2024-11-29T15:00:15Z</time>
      </trkpt>
      <trkpt lat="45.85804" lon="1.23599">
        <ele>320.8</ele>
        <time>2024-11-29T15:00:16Z</time>
      </trkpt>
      <trkpt lat="45.85797" lon="1.23604">
        <ele>320.4</ele>
        <time>2024-11-29T15:00:17Z</time>
      </trkpt>
      <trkpt lat="45.85789" lon="1.23609">
        <ele>319.8</ele>
        <time>2024-11-29T15:00:18Z</time>
      </trkpt>
      <trkpt lat="45.85781" lon="1.23615">
        <ele>319.3</ele>
        <time>2024-11-29T15:00:19Z</time>
      </trkpt>
      <trkpt lat="45.85774" lon="1.2362">
        <ele>318.8</ele>
        <time>2024-11-29T15:00:20Z</time>
      </trkpt>
      <trkpt lat="45.85766" lon="1.23625">
        <ele>318.3</ele>
        <time>2024-11-29T15:00:21Z</time>
      </trkpt>
      <trkpt lat="45.85758" lon="1.2363">
        <ele>317.8</ele>
        <time>2024-11-29T15:00:22Z</time>
      </trkpt>
      <trkpt lat="45.8575" lon="1.23635">
        <ele>317.5</ele>
        <time>2024-11-29T15:00:23Z</time>
      </trkpt>
      <trkpt lat="45.85742" lon="1.23639">
        <ele>317.2</ele>
        <time>2024-11-29T15:00:24Z</time>
      </trkpt>
      <trkpt lat="45.85734" lon="1.23643">
        <ele>316.8</ele>
        <time>2024-11-29T15:00:25Z</time>
      </trkpt>
      <trkpt lat="45.85728" lon="1.23646">
        <ele>316.4</ele>
        <time>2024-11-29T15:00:26Z</time>
      </trkpt>
      <trkpt lat="45.85721" lon="1.2365">
        <ele>315.8</ele>
        <time>2024-11-29T15:00:27Z</time>
      </trkpt>
      <trkpt lat="45.85714" lon="1.23654">
        <ele>315.2</ele>
        <time>2024-11-29T15:00:28Z</time>
      </trkpt>
      <trkpt lat="45.85707" lon="1.23658">
        <ele>314.6</ele>
        <time>2024-11-29T15:00:29Z</time>
      </trkpt>
      <trkpt lat="45.857" lon="1.23662">
        <ele>314</ele>
        <time>2024-11-29T15:00:30Z</time>
      </trkpt>
      <trkpt lat="45.85693" lon="1.23667">
        <ele>313.5</ele>
        <time>2024-11-29T15:00:31Z</time>
      </trkpt>
      <trkpt lat="45.85686" lon="1.23673">
        <ele>313.1</ele>
        <time>2024-11-29T15:00:32Z</time>
      </trkpt>
      <trkpt lat="45.85678" lon="1.23678">
        <ele>312.6</ele>
        <time>2024-11-29T15:00:33Z</time>
      </trkpt>
      <trkpt lat="45.85671" lon="1.23683">
        <ele>312.3</ele>
        <time>2024-11-29T15:00:34Z</time>
      </trkpt>
      <trkpt lat="45.85664" lon="1.23688">
        <ele>312</ele>
        <time>2024-11-29T15:00:35Z</time>
      </trkpt>
      <trkpt lat="45.85656" lon="1.23693">
        <ele>311.7</ele>
        <time>2024-11-29T15:00:36Z</time>
      </trkpt>
      <trkpt lat="45.85649" lon="1.23698">
        <ele>311.4</ele>
        <time>2024-11-29T15:00:37Z</time>
      </trkpt>
      <trkpt lat="45.85643" lon="1.23703">
        <ele>311.2</ele>
        <time>2024-11-29T15:00:38Z</time>
      </trkpt>
      <trkpt lat="45.85636" lon="1.23708">
        <ele>310.9</ele>
        <time>2024-11-29T15:00:39Z</time>
      </trkpt>
      <trkpt lat="45.85629" lon="1.23712">
        <ele>310.6</ele>
        <time>2024-11-29T15:00:40Z</time>
      </trkpt>
      <trkpt lat="45.85622" lon="1.23715">
        <ele>310.2</ele>
        <time>2024-11-29T15:00:41Z</time>
      </trkpt>
      <trkpt lat="45.85615" lon="1.23718">
        <ele>309.9</ele>
        <time>2024-11-29T15:00:42Z</time>
      </trkpt>
      <trkpt lat="45.85608" lon="1.2372">
        <ele>309.5</ele>
        <time>2024-11-29T15:00:43Z</time>
      </trkpt>
      <trkpt lat="45.85601" lon="1.23723">
        <ele>309.2</ele>
        <time>2024-11-29T15:00:44Z</time>
      </trkpt>
      <trkpt lat="45.85594" lon="1.23725">
        <ele>308.8</ele>
        <time>2024-11-29T15:00:45Z</time>
      </trkpt>
      <trkpt lat="45.85587" lon="1.23728">
        <ele>308.4</ele>
        <time>2024-11-29T15:00:46Z</time>
      </trkpt>
      <trkpt lat="45.8558" lon="1.23732">
        <ele>308.1</ele>
        <time>2024-11-29T15:00:47Z</time>
      </trkpt>
      <trkpt lat="45.85574" lon="1.23736">
        <ele>307.8</ele>
        <time>2024-11-29T15:00:48Z</time>
      </trkpt>
      <trkpt lat="45.85568" lon="1.2374">
        <ele>307.5</ele>
        <time>2024-11-29T15:00:49Z</time>
      </trkpt>
      <trkpt lat="45.85561" lon="1.23744">
        <ele>307.2</ele>
        <time>2024-11-29T15:00:50Z</time>
      </trkpt>
      <trkpt lat="45.85554" lon="1.23748">
        <ele>306.9</ele>
        <time>2024-11-29T15:00:51Z</time>
      </trkpt>
      <trkpt lat="45.85548" lon="1.23754">
        <ele>306.6</ele>
        <time>2024-11-29T15:00:52Z</time>
      </trkpt>
      <trkpt lat="45.85542" lon="1.23758">
        <ele>306.3</ele>
        <time>2024-11-29T15:00:53Z</time>
      </trkpt>
      <trkpt lat="45.85536" lon="1.23763">
        <ele>306</ele>
        <time>2024-11-29T15:00:54Z</time>
      </trkpt>
      <trkpt lat="45.8553" lon="1.23768">
        <ele>305.6</ele>
        <time>2024-11-29T15:00:55Z</time>
      </trkpt>
      <trkpt lat="45.85524" lon="1.23773">
        <ele>305.2</ele>
        <time>2024-11-29T15:00:56Z</time>
      </trkpt>
      <trkpt lat="45.85517" lon="1.23776">
        <ele>304.8</ele>
        <time>2024-11-29T15:00:57Z</time>
      </trkpt>
      <trkpt lat="45.8551" lon="1.2378">
        <ele>304.3</ele>
        <time>2024-11-29T15:00:58Z</time>
      </trkpt>
      <trkpt lat="45.85503" lon="1.23784">
        <ele>303.9</ele>
        <time>2024-11-29T15:00:59Z</time>
      </trkpt>
      <trkpt lat="45.85496" lon="1.23786">
        <ele>303.5</ele>
        <time>2024-11-29T15:01:00Z</time>
      </trkpt>
      <trkpt lat="45.85489" lon="1.23787">
        <ele>303.1</ele>
        <time>2024-11-29T15:01:01Z</time>
      </trkpt>
      <trkpt lat="45.85481" lon="1.23789">
        <ele>302.6</ele>
        <time>2024-11-29T15:01:02Z</time>
      </trkpt>
      <trkpt lat="45.85474" lon="1.23791">
        <ele>302.2</ele>
        <time>2024-11-29T15:01:03Z</time>
      </trkpt>
      <trkpt lat="45.85466" lon="1.23793">
        <ele>301.8</ele>
        <time>2024-11-29T15:01:04Z</time>
      </trkpt>
      <trkpt lat="45.85459" lon="1.23794">
        <ele>301.5</ele>
        <time>2024-11-29T15:01:05Z</time>
      </trkpt>
      <trkpt lat="45.85451" lon="1.23795">
        <ele>301.2</ele>
        <time>2024-11-29T15:01:06Z</time>
      </trkpt>
      <trkpt lat="45.85444" lon="1.23797">
        <ele>301</ele>
        <time>2024-11-29T15:01:07Z</time>
      </trkpt>
      <trkpt lat="45.85438" lon="1.23798">
        <ele>300.9</ele>
        <time>2024-11-29T15:01:08Z</time>
      </trkpt>
      <trkpt lat="45.85431" lon="1.23798">
        <ele>300.9</ele>
        <time>2024-11-29T15:01:09Z</time>
      </trkpt>
      <trkpt lat="45.85424" lon="1.23798">
        <ele>300.9</ele>
        <time>2024-11-29T15:01:10Z</time>
      </trkpt>
      <trkpt lat="45.85418" lon="1.23796">
        <ele>301</ele>
        <time>2024-11-29T15:01:11Z</time>
      </trkpt>
      <trkpt lat="45.85414" lon="1.23792">
        <ele>301.1</ele>
        <time>2024-11-29T15:01:12Z</time>
      </trkpt>
      <trkpt lat="45.8541" lon="1.23788">
        <ele>301.3</ele>
        <time>2024-11-29T15:01:13Z</time>
      </trkpt>
      <trkpt lat="45.85407" lon="1.23782">
        <ele>301.6</ele>
        <time>2024-11-29T15:01:14Z</time>
      </trkpt>
      <trkpt lat="45.85405" lon="1.23777">
        <ele>301.8</ele>
        <time>2024-11-29T15:01:15Z</time>
      </trkpt>
      <trkpt lat="45.85402" lon="1.23772">
        <ele>302.1</ele>
        <time>2024-11-29T15:01:16Z</time>
      </trkpt>
      <trkpt lat="45.854" lon="1.23766">
        <ele>302.3</ele>
        <time>2024-11-29T15:01:17Z</time>
      </trkpt>
      <trkpt lat="45.85398" lon="1.23761">
        <ele>302.5</ele>
        <time>2024-11-29T15:01:18Z</time>
      </trkpt>
      <trkpt lat="45.85395" lon="1.23756">
        <ele>302.7</ele>
        <time>2024-11-29T15:01:19Z</time>
      </trkpt>
      <trkpt lat="45.85394" lon="1.2375">
        <ele>302.8</ele>
        <time>2024-11-29T15:01:20Z</time>
      </trkpt>
      <trkpt lat="45.85391" lon="1.23744">
        <ele>302.9</ele>
        <time>2024-11-29T15:01:21Z</time>
      </trkpt>
      <trkpt lat="45.85389" lon="1.23738">
        <ele>302.9</ele>
        <time>2024-11-29T15:01:22Z</time>
      </trkpt>
      <trkpt lat="45.85387" lon="1.23733">
        <ele>302.8</ele>
        <time>2024-11-29T15:01:23Z</time>
      </trkpt>
      <trkpt lat="45.85385" lon="1.23726">
        <ele>302.7</ele>
        <time>2024-11-29T15:01:24Z</time>
      </trkpt>
      <trkpt lat="45.85382" lon="1.23718">
        <ele>302.4</ele>
        <time>2024-11-29T15:01:25Z</time>
      </trkpt>
      <trkpt lat="45.85379" lon="1.2371">
        <ele>301.9</ele>
        <time>2024-11-29T15:01:26Z</time>
      </trkpt>
      <trkpt lat="45.85376" lon="1.237">
        <ele>301.3</ele>
        <time>2024-11-29T15:01:27Z</time>
      </trkpt>
      <trkpt lat="45.85372" lon="1.23691">
        <ele>300.7</ele>
        <time>2024-11-29T15:01:28Z</time>
      </trkpt>
      <trkpt lat="45.85369" lon="1.23682">
        <ele>300</ele>
        <time>2024-11-29T15:01:29Z</time>
      </trkpt>
      <trkpt lat="45.85366" lon="1.23673">
        <ele>299.4</ele>
        <time>2024-11-29T15:01:30Z</time>
      </trkpt>
      <trkpt lat="45.85362" lon="1.23664">
        <ele>298.7</ele>
        <time>2024-11-29T15:01:31Z</time>
      </trkpt>
      <trkpt lat="45.85358" lon="1.23654">
        <ele>298.2</ele>
        <time>2024-11-29T15:01:32Z</time>
      </trkpt>
      <trkpt lat="45.85354" lon="1.23644">
        <ele>297.7</ele>
        <time>2024-11-29T15:01:33Z</time>
      </trkpt>
      <trkpt lat="45.8535" lon="1.23634">
        <ele>297.3</ele>
        <time>2024-11-29T15:01:34Z</time>
      </trkpt>
      <trkpt lat="45.85346" lon="1.23625">
        <ele>297</ele>
        <time>2024-11-29T15:01:35Z</time>
      </trkpt>
      <trkpt lat="45.85341" lon="1.23616">
        <ele>296.7</ele>
        <time>2024-11-29T15:01:36Z</time>
      </trkpt>
      <trkpt lat="45.85338" lon="1.23607">
        <ele>296.5</ele>
        <time>2024-11-29T15:01:37Z</time>
      </trkpt>
      <trkpt lat="45.85334" lon="1.23598">
        <ele>296.3</ele>
        <time>2024-11-29T15:01:38Z</time>
      </trkpt>
      <trkpt lat="45.85331" lon="1.2359">
        <ele>296.1</ele>
        <time>2024-11-29T15:01:39Z</time>
      </trkpt>
      <trkpt lat="45.85327" lon="1.23582">
        <ele>296</ele>
        <time>2024-11-29T15:01:40Z</time>
      </trkpt>
      <trkpt lat="45.85323" lon="1.23574">
        <ele>295.8</ele>
        <time>2024-11-29T15:01:41Z</time>
      </trkpt>
      <trkpt lat="45.85321" lon="1.23566">
        <ele>295.8</ele>
        <time>2024-11-29T15:01:42Z</time>
      </trkpt>
      <trkpt lat="45.85318" lon="1.23558">
        <ele>295.7</ele>
        <time>2024-11-29T15:01:43Z</time>
      </trkpt>
      <trkpt lat="45.85315" lon="1.2355">
        <ele>295.6</ele>
        <time>2024-11-29T15:01:44Z</time>
      </trkpt>
      <trkpt lat="45.85313" lon="1.23544">
        <ele>295.6</ele>
        <time>2024-11-29T15:01:45Z</time>
      </trkpt>
      <trkpt lat="45.85309" lon="1.2354">
        <ele>295.5</ele>
        <time>2024-11-29T15:01:46Z</time>
      </trkpt>
      <trkpt lat="45.85305" lon="1.23538">
        <ele>295.5</ele>
        <time>2024-11-29T15:01:47Z</time>
      </trkpt>
      <trkpt lat="45.853" lon="1.23534">
        <ele>295.4</ele>
        <time>2024-11-29T15:01:48Z</time>
      </trkpt>
      <trkpt lat="45.85296" lon="1.2353">
        <ele>295.4</ele>
        <time>2024-11-29T15:01:49Z</time>
      </trkpt>
      <trkpt lat="45.85294" lon="1.23524">
        <ele>295.4</ele>
        <time>2024-11-29T15:01:50Z</time>
      </trkpt>
      <trkpt lat="45.85291" lon="1.23517">
        <ele>295.3</ele>
        <time>2024-11-29T15:01:51Z</time>
      </trkpt>
      <trkpt lat="45.85288" lon="1.23512">
        <ele>295.1</ele>
        <time>2024-11-29T15:01:52Z</time>
      </trkpt>
      <trkpt lat="45.85285" lon="1.23509">
        <ele>295</ele>
        <time>2024-11-29T15:01:53Z</time>
      </trkpt>
      <trkpt lat="45.85282" lon="1.2351">
        <ele>294.8</ele>
        <time>2024-11-29T15:01:54Z</time>
      </trkpt>
      <trkpt lat="45.85278" lon="1.2351">
        <ele>294.7</ele>
        <time>2024-11-29T15:01:55Z</time>
      </trkpt>
      <trkpt lat="45.85273" lon="1.23513">
        <ele>294.4</ele>
        <time>2024-11-29T15:01:56Z</time>
      </trkpt>
      <trkpt lat="45.85268" lon="1.23516">
        <ele>294</ele>
        <time>2024-11-29T15:01:57Z</time>
      </trkpt>
      <trkpt lat="45.85263" lon="1.23519">
        <ele>293.6</ele>
        <time>2024-11-29T15:01:58Z</time>
      </trkpt>
      <trkpt lat="45.85258" lon="1.23519">
        <ele>293.1</ele>
        <time>2024-11-29T15:01:59Z</time>
      </trkpt>
      <trkpt lat="45.85252" lon="1.23522">
        <ele>292.6</ele>
        <time>2024-11-29T15:02:00Z</time>
      </trkpt>
      <trkpt lat="45.85245" lon="1.23523">
        <ele>291.9</ele>
        <time>2024-11-29T15:02:01Z</time>
      </trkpt>
      <trkpt lat="45.85237" lon="1.23525">
        <ele>291.2</ele>
        <time>2024-11-29T15:02:02Z</time>
      </trkpt>
      <trkpt lat="45.8523" lon="1.23526">
        <ele>290.6</ele>
        <time>2024-11-29T15:02:03Z</time>
      </trkpt>
      <trkpt lat="45.85222" lon="1.23526">
        <ele>290</ele>
        <time>2024-11-29T15:02:04Z</time>
      </trkpt>
      <trkpt lat="45.85215" lon="1.23525">
        <ele>289.6</ele>
        <time>2024-11-29T15:02:05Z</time>
      </trkpt>
      <trkpt lat="45.85208" lon="1.23523">
        <ele>289.2</ele>
        <time>2024-11-29T15:02:06Z</time>
      </trkpt>
      <trkpt lat="45.852" lon="1.2352">
        <ele>288.8</ele>
        <time>2024-11-29T15:02:07Z</time>
      </trkpt>
      <trkpt lat="45.85192" lon="1.23518">
        <ele>288.5</ele>
        <time>2024-11-29T15:02:08Z</time>
      </trkpt>
      <trkpt lat="45.85185" lon="1.23517">
        <ele>288.2</ele>
        <time>2024-11-29T15:02:09Z</time>
      </trkpt>
      <trkpt lat="45.85177" lon="1.23518">
        <ele>287.9</ele>
        <time>2024-11-29T15:02:10Z</time>
      </trkpt>
      <trkpt lat="45.8517" lon="1.2352">
        <ele>287.5</ele>
        <time>2024-11-29T15:02:11Z</time>
      </trkpt>
      <trkpt lat="45.85164" lon="1.23523">
        <ele>287.2</ele>
        <time>2024-11-29T15:02:12Z</time>
      </trkpt>
      <trkpt lat="45.85158" lon="1.23525">
        <ele>286.8</ele>
        <time>2024-11-29T15:02:13Z</time>
      </trkpt>
      <trkpt lat="45.85152" lon="1.23524">
        <ele>286.7</ele>
        <time>2024-11-29T15:02:14Z</time>
      </trkpt>
      <trkpt lat="45.85146" lon="1.23522">
        <ele>286.6</ele>
        <time>2024-11-29T15:02:15Z</time>
      </trkpt>
      <trkpt lat="45.8514" lon="1.23518">
        <ele>286.4</ele>
        <time>2024-11-29T15:02:16Z</time>
      </trkpt>
      <trkpt lat="45.85135" lon="1.23513">
        <ele>286.2</ele>
        <time>2024-11-29T15:02:17Z</time>
      </trkpt>
      <trkpt lat="45.85129" lon="1.23507">
        <ele>285.9</ele>
        <time>2024-11-29T15:02:18Z</time>
      </trkpt>
      <trkpt lat="45.85123" lon="1.23501">
        <ele>285.6</ele>
        <time>2024-11-29T15:02:19Z</time>
      </trkpt>
      <trkpt lat="45.85118" lon="1.23494">
        <ele>285.4</ele>
        <time>2024-11-29T15:02:20Z</time>
      </trkpt>
      <trkpt lat="45.85112" lon="1.23488">
        <ele>285.2</ele>
        <time>2024-11-29T15:02:21Z</time>
      </trkpt>
      <trkpt lat="45.85106" lon="1.23483">
        <ele>284.9</ele>
        <time>2024-11-29T15:02:22Z</time>
      </trkpt>
      <trkpt lat="45.851" lon="1.23477">
        <ele>284.7</ele>
        <time>2024-11-29T15:02:23Z</time>
      </trkpt>
      <trkpt lat="45.85094" lon="1.23471">
        <ele>284.4</ele>
        <time>2024-11-29T15:02:24Z</time>
      </trkpt>
      <trkpt lat="45.85088" lon="1.23465">
        <ele>284.2</ele>
        <time>2024-11-29T15:02:25Z</time>
      </trkpt>
      <trkpt lat="45.85082" lon="1.23458">
        <ele>283.9</ele>
        <time>2024-11-29T15:02:26Z</time>
      </trkpt>
      <trkpt lat="45.85077" lon="1.23453">
        <ele>283.7</ele>
        <time>2024-11-29T15:02:27Z</time>
      </trkpt>
      <trkpt lat="45.85072" lon="1.23446">
        <ele>283.5</ele>
        <time>2024-11-29T15:02:28Z</time>
      </trkpt>
      <trkpt lat="45.85066" lon="1.2344">
        <ele>283.3</ele>
        <time>2024-11-29T15:02:29Z</time>
      </trkpt>
      <trkpt lat="45.85061" lon="1.23433">
        <ele>283</ele>
        <time>2024-11-29T15:02:30Z</time>
      </trkpt>
      <trkpt lat="45.85056" lon="1.23425">
        <ele>282.8</ele>
        <time>2024-11-29T15:02:31Z</time>
      </trkpt>
      <trkpt lat="45.85051" lon="1.23418">
        <ele>282.6</ele>
        <time>2024-11-29T15:02:32Z</time>
      </trkpt>
      <trkpt lat="45.85046" lon="1.2341">
        <ele>282.3</ele>
        <time>2024-11-29T15:02:33Z</time>
      </trkpt>
      <trkpt lat="45.85041" lon="1.23403">
        <ele>282.1</ele>
        <time>2024-11-29T15:02:34Z</time>
      </trkpt>
      <trkpt lat="45.85036" lon="1.23397">
        <ele>281.9</ele>
        <time>2024-11-29T15:02:35Z</time>
      </trkpt>
      <trkpt lat="45.85031" lon="1.2339">
        <ele>281.7</ele>
        <time>2024-11-29T15:02:36Z</time>
      </trkpt>
      <trkpt lat="45.85025" lon="1.23382">
        <ele>281.4</ele>
        <time>2024-11-29T15:02:37Z</time>
      </trkpt>
      <trkpt lat="45.8502" lon="1.23375">
        <ele>281.1</ele>
        <time>2024-11-29T15:02:38Z</time>
      </trkpt>
      <trkpt lat="45.85015" lon="1.23368">
        <ele>280.8</ele>
        <time>2024-11-29T15:02:39Z</time>
      </trkpt>
      <trkpt lat="45.8501" lon="1.23361">
        <ele>280.5</ele>
        <time>2024-11-29T15:02:40Z</time>
      </trkpt>
      <trkpt lat="45.85005" lon="1.23353">
        <ele>280.1</ele>
        <time>2024-11-29T15:02:41Z</time>
      </trkpt>
      <trkpt lat="45.84999" lon="1.23346">
        <ele>279.7</ele>
        <time>2024-11-29T15:02:42Z</time>
      </trkpt>
      <trkpt lat="45.84994" lon="1.2334">
        <ele>279.4</ele>
        <time>2024-11-29T15:02:43Z</time>
      </trkpt>
      <trkpt lat="45.84987" lon="1.23334">
        <ele>279</ele>
        <time>2024-11-29T15:02:44Z</time>
      </trkpt>
      <trkpt lat="45.8498" lon="1.2333">
        <ele>278.5</ele>
        <time>2024-11-29T15:02:45Z</time>
      </trkpt>
      <trkpt lat="45.84972" lon="1.23327">
        <ele>277.9</ele>
        <time>2024-11-29T15:02:46Z</time>
      </trkpt>
      <trkpt lat="45.84964" lon="1.23324">
        <ele>277.3</ele>
        <time>2024-11-29T15:02:47Z</time>
      </trkpt>
      <trkpt lat="45.84955" lon="1.23322">
        <ele>276.6</ele>
        <time>2024-11-29T15:02:48Z</time>
      </trkpt>
      <trkpt lat="45.84946" lon="1.2332">
        <ele>275.8</ele>
        <time>2024-11-29T15:02:49Z</time>
      </trkpt>
      <trkpt lat="45.84937" lon="1.23318">
        <ele>275.1</ele>
        <time>2024-11-29T15:02:50Z</time>
      </trkpt>
      <trkpt lat="45.84929" lon="1.23315">
        <ele>274.4</ele>
        <time>2024-11-29T15:02:51Z</time>
      </trkpt>
      <trkpt lat="45.8492" lon="1.23312">
        <ele>273.5</ele>
        <time>2024-11-29T15:02:52Z</time>
      </trkpt>
      <trkpt lat="45.84912" lon="1.23307">
        <ele>272.6</ele>
        <time>2024-11-29T15:02:53Z</time>
      </trkpt>
      <trkpt lat="45.84904" lon="1.23301">
        <ele>271.5</ele>
        <time>2024-11-29T15:02:54Z</time>
      </trkpt>
      <trkpt lat="45.84896" lon="1.23294">
        <ele>270.3</ele>
        <time>2024-11-29T15:02:55Z</time>
      </trkpt>
      <trkpt lat="45.84888" lon="1.23288">
        <ele>269.2</ele>
        <time>2024-11-29T15:02:56Z</time>
      </trkpt>
      <trkpt lat="45.8488" lon="1.23282">
        <ele>267.9</ele>
        <time>2024-11-29T15:02:57Z</time>
      </trkpt>
      <trkpt lat="45.84872" lon="1.23276">
        <ele>266.9</ele>
        <time>2024-11-29T15:02:58Z</time>
      </trkpt>
      <trkpt lat="45.84864" lon="1.23269">
        <ele>265.9</ele>
        <time>2024-11-29T15:02:59Z</time>
      </trkpt>
      <trkpt lat="45.84856" lon="1.23262">
        <ele>265</ele>
        <time>2024-11-29T15:03:00Z</time>
      </trkpt>
      <trkpt lat="45.84849" lon="1.23256">
        <ele>264.4</ele>
        <time>2024-11-29T15:03:01Z</time>
      </trkpt>
      <trkpt lat="45.84842" lon="1.2325">
        <ele>264</ele>
        <time>2024-11-29T15:03:02Z</time>
      </trkpt>
      <trkpt lat="45.84836" lon="1.23243">
        <ele>263.8</ele>
        <time>2024-11-29T15:03:03Z</time>
      </trkpt>
      <trkpt lat="45.84832" lon="1.23235">
        <ele>263.8</ele>
        <time>2024-11-29T15:03:04Z</time>
      </trkpt>
      <trkpt lat="45.8483" lon="1.23228">
        <ele>263.8</ele>
        <time>2024-11-29T15:03:05Z</time>
      </trkpt>
      <trkpt lat="45.84829" lon="1.2322">
        <ele>263.9</ele>
        <time>2024-11-29T15:03:06Z</time>
      </trkpt>
      <trkpt lat="45.84829" lon="1.23213">
        <ele>263.9</ele>
        <time>2024-11-29T15:03:07Z</time>
      </trkpt>
      <trkpt lat="45.84832" lon="1.23207">
        <ele>264</ele>
        <time>2024-11-29T15:03:08Z</time>
      </trkpt>
      <trkpt lat="45.84836" lon="1.23201">
        <ele>263.9</ele>
        <time>2024-11-29T15:03:09Z</time>
      </trkpt>
      <trkpt lat="45.8484" lon="1.23196">
        <ele>263.9</ele>
        <time>2024-11-29T15:03:10Z</time>
      </trkpt>
      <trkpt lat="45.84845" lon="1.23191">
        <ele>263.9</ele>
        <time>2024-11-29T15:03:11Z</time>
      </trkpt>
      <trkpt lat="45.8485" lon="1.23185">
        <ele>263.9</ele>
        <time>2024-11-29T15:03:12Z</time>
      </trkpt>
      <trkpt lat="45.84855" lon="1.23179">
        <ele>264</ele>
        <time>2024-11-29T15:03:13Z</time>
      </trkpt>
      <trkpt lat="45.84859" lon="1.23173">
        <ele>264.1</ele>
        <time>2024-11-29T15:03:14Z</time>
      </trkpt>
      <trkpt lat="45.84864" lon="1.23167">
        <ele>264.3</ele>
        <time>2024-11-29T15:03:15Z</time>
      </trkpt>
      <trkpt lat="45.84868" lon="1.23161">
        <ele>264.5</ele>
        <time>2024-11-29T15:03:16Z</time>
      </trkpt>
      <trkpt lat="45.84872" lon="1.23155">
        <ele>264.7</ele>
        <time>2024-11-29T15:03:17Z</time>
      </trkpt>
      <trkpt lat="45.84876" lon="1.23148">
        <ele>264.9</ele>
        <time>2024-11-29T15:03:18Z</time>
      </trkpt>
      <trkpt lat="45.8488" lon="1.23142">
        <ele>265.2</ele>
        <time>2024-11-29T15:03:19Z</time>
      </trkpt>
      <trkpt lat="45.84884" lon="1.23136">
        <ele>265.5</ele>
        <time>2024-11-29T15:03:20Z</time>
      </trkpt>
      <trkpt lat="45.84888" lon="1.23129">
        <ele>265.9</ele>
        <time>2024-11-29T15:03:21Z</time>
      </trkpt>
      <trkpt lat="45.84891" lon="1.23122">
        <ele>266.2</ele>
        <time>2024-11-29T15:03:22Z</time>
      </trkpt>
      <trkpt lat="45.84894" lon="1.23115">
        <ele>266.6</ele>
        <time>2024-11-29T15:03:23Z</time>
      </trkpt>
      <trkpt lat="45.84898" lon="1.23108">
        <ele>267.1</ele>
        <time>2024-11-29T15:03:24Z</time>
      </trkpt>
      <trkpt lat="45.84901" lon="1.23101">
        <ele>267.6</ele>
        <time>2024-11-29T15:03:25Z</time>
      </trkpt>
      <trkpt lat="45.84904" lon="1.23094">
        <ele>268.1</ele>
        <time>2024-11-29T15:03:26Z</time>
      </trkpt>
      <trkpt lat="45.84906" lon="1.23086">
        <ele>268.6</ele>
        <time>2024-11-29T15:03:27Z</time>
      </trkpt>
      <trkpt lat="45.84909" lon="1.2308">
        <ele>269.1</ele>
        <time>2024-11-29T15:03:28Z</time>
      </trkpt>
      <trkpt lat="45.84911" lon="1.23073">
        <ele>269.6</ele>
        <time>2024-11-29T15:03:29Z</time>
      </trkpt>
      <trkpt lat="45.84914" lon="1.23067">
        <ele>270</ele>
        <time>2024-11-29T15:03:30Z</time>
      </trkpt>
      <trkpt lat="45.84916" lon="1.2306">
        <ele>270.5</ele>
        <time>2024-11-29T15:03:31Z</time>
      </trkpt>
      <trkpt lat="45.84918" lon="1.23054">
        <ele>271</ele>
        <time>2024-11-29T15:03:32Z</time>
      </trkpt>
      <trkpt lat="45.8492" lon="1.23047">
        <ele>271.4</ele>
        <time>2024-11-29T15:03:33Z</time>
      </trkpt>
      <trkpt lat="45.84922" lon="1.23041">
        <ele>271.8</ele>
        <time>2024-11-29T15:03:34Z</time>
      </trkpt>
      <trkpt lat="45.84925" lon="1.23034">
        <ele>272.3</ele>
        <time>2024-11-29T15:03:35Z</time>
      </trkpt>
      <trkpt lat="45.84927" lon="1.23027">
        <ele>272.7</ele>
        <time>2024-11-29T15:03:36Z</time>
      </trkpt>
      <trkpt lat="45.84928" lon="1.23021">
        <ele>273.1</ele>
        <time>2024-11-29T15:03:37Z</time>
      </trkpt>
      <trkpt lat="45.8493" lon="1.23014">
        <ele>273.5</ele>
        <time>2024-11-29T15:03:38Z</time>
      </trkpt>
      <trkpt lat="45.84932" lon="1.23008">
        <ele>273.8</ele>
        <time>2024-11-29T15:03:39Z</time>
      </trkpt>
      <trkpt lat="45.84934" lon="1.23001">
        <ele>274.3</ele>
        <time>2024-11-29T15:03:40Z</time>
      </trkpt>
      <trkpt lat="45.84935" lon="1.22995">
        <ele>274.6</ele>
        <time>2024-11-29T15:03:41Z</time>
      </trkpt>
      <trkpt lat="45.84937" lon="1.22988">
        <ele>275</ele>
        <time>2024-11-29T15:03:42Z</time>
      </trkpt>
      <trkpt lat="45.84937" lon="1.22981">
        <ele>275.3</ele>
        <time>2024-11-29T15:03:43Z</time>
      </trkpt>
      <trkpt lat="45.84938" lon="1.22974">
        <ele>275.6</ele>
        <time>2024-11-29T15:03:44Z</time>
      </trkpt>
      <trkpt lat="45.84939" lon="1.22967">
        <ele>275.9</ele>
        <time>2024-11-29T15:03:45Z</time>
      </trkpt>
      <trkpt lat="45.84939" lon="1.2296">
        <ele>276.1</ele>
        <time>2024-11-29T15:03:46Z</time>
      </trkpt>
      <trkpt lat="45.8494" lon="1.22952">
        <ele>276.2</ele>
        <time>2024-11-29T15:03:47Z</time>
      </trkpt>
      <trkpt lat="45.84941" lon="1.22944">
        <ele>276.4</ele>
        <time>2024-11-29T15:03:48Z</time>
      </trkpt>
      <trkpt lat="45.84941" lon="1.22936">
        <ele>276.7</ele>
        <time>2024-11-29T15:03:49Z</time>
      </trkpt>
      <trkpt lat="45.84941" lon="1.22929">
        <ele>277</ele>
        <time>2024-11-29T15:03:50Z</time>
      </trkpt>
      <trkpt lat="45.84941" lon="1.22921">
        <ele>277.3</ele>
        <time>2024-11-29T15:03:51Z</time>
      </trkpt>
      <trkpt lat="45.8494" lon="1.22912">
        <ele>277.7</ele>
        <time>2024-11-29T15:03:52Z</time>
      </trkpt>
      <trkpt lat="45.84939" lon="1.22904">
        <ele>278</ele>
        <time>2024-11-29T15:03:53Z</time>
      </trkpt>
      <trkpt lat="45.84938" lon="1.22896">
        <ele>278.3</ele>
        <time>2024-11-29T15:03:54Z</time>
      </trkpt>
      <trkpt lat="45.84937" lon="1.22887">
        <ele>278.7</ele>
        <time>2024-11-29T15:03:55Z</time>
      </trkpt>
      <trkpt lat="45.84937" lon="1.22879">
        <ele>279</ele>
        <time>2024-11-29T15:03:56Z</time>
      </trkpt>
      <trkpt lat="45.84935" lon="1.22871">
        <ele>279.3</ele>
        <time>2024-11-29T15:03:57Z</time>
      </trkpt>
      <trkpt lat="45.84935" lon="1.22863">
        <ele>279.7</ele>
        <time>2024-11-29T15:03:58Z</time>
      </trkpt>
      <trkpt lat="45.84934" lon="1.22855">
        <ele>280</ele>
        <time>2024-11-29T15:03:59Z</time>
      </trkpt>
      <trkpt lat="45.84934" lon="1.22847">
        <ele>280.3</ele>
        <time>2024-11-29T15:04:00Z</time>
      </trkpt>
      <trkpt lat="45.84933" lon="1.22839">
        <ele>280.7</ele>
        <time>2024-11-29T15:04:01Z</time>
      </trkpt>
      <trkpt lat="45.84932" lon="1.22831">
        <ele>281</ele>
        <time>2024-11-29T15:04:02Z</time>
      </trkpt>
      <trkpt lat="45.84932" lon="1.22823">
        <ele>281.3</ele>
        <time>2024-11-29T15:04:03Z</time>
      </trkpt>
      <trkpt lat="45.84931" lon="1.22815">
        <ele>281.7</ele>
        <time>2024-11-29T15:04:04Z</time>
      </trkpt>
      <trkpt lat="45.84931" lon="1.22807">
        <ele>282</ele>
        <time>2024-11-29T15:04:05Z</time>
      </trkpt>
      <trkpt lat="45.84931" lon="1.22799">
        <ele>282.4</ele>
        <time>2024-11-29T15:04:06Z</time>
      </trkpt>
      <trkpt lat="45.84931" lon="1.22791">
        <ele>282.7</ele>
        <time>2024-11-29T15:04:07Z</time>
      </trkpt>
      <trkpt lat="45.84932" lon="1.22784">
        <ele>283.1</ele>
        <time>2024-11-29T15:04:08Z</time>
      </trkpt>
      <trkpt lat="45.84932" lon="1.22777">
        <ele>283.4</ele>
        <time>2024-11-29T15:04:09Z</time>
      </trkpt>
      <trkpt lat="45.84932" lon="1.22771">
        <ele>283.6</ele>
        <time>2024-11-29T15:04:10Z</time>
      </trkpt>
      <trkpt lat="45.84933" lon="1.22765">
        <ele>283.9</ele>
        <time>2024-11-29T15:04:11Z</time>
      </trkpt>
      <trkpt lat="45.84932" lon="1.2276">
        <ele>284.1</ele>
        <time>2024-11-29T15:04:12Z</time>
      </trkpt>
      <trkpt lat="45.8493" lon="1.22755">
        <ele>284.2</ele>
        <time>2024-11-29T15:04:13Z</time>
      </trkpt>
      <trkpt lat="45.84926" lon="1.22754">
        <ele>284.3</ele>
        <time>2024-11-29T15:04:14Z</time>
      </trkpt>
      <trkpt lat="45.84922" lon="1.22755">
        <ele>284.3</ele>
        <time>2024-11-29T15:04:15Z</time>
      </trkpt>
      <trkpt lat="45.84917" lon="1.22757">
        <ele>284.3</ele>
        <time>2024-11-29T15:04:16Z</time>
      </trkpt>
      <trkpt lat="45.84911" lon="1.22759">
        <ele>284.3</ele>
        <time>2024-11-29T15:04:17Z</time>
      </trkpt>
      <trkpt lat="45.84906" lon="1.22762">
        <ele>284.2</ele>
        <time>2024-11-29T15:04:18Z</time>
      </trkpt>
      <trkpt lat="45.849" lon="1.22766">
        <ele>284.2</ele>
        <time>2024-11-29T15:04:19Z</time>
      </trkpt>
      <trkpt lat="45.84894" lon="1.22769">
        <ele>284.1</ele>
        <time>2024-11-29T15:04:20Z</time>
      </trkpt>
      <trkpt lat="45.84889" lon="1.22773">
        <ele>284.1</ele>
        <time>2024-11-29T15:04:21Z</time>
      </trkpt>
      <trkpt lat="45.84883" lon="1.22777">
        <ele>284</ele>
        <time>2024-11-29T15:04:22Z</time>
      </trkpt>
      <trkpt lat="45.84878" lon="1.22782">
        <ele>283.9</ele>
        <time>2024-11-29T15:04:23Z</time>
      </trkpt>
      <trkpt lat="45.84872" lon="1.22786">
        <ele>283.9</ele>
        <time>2024-11-29T15:04:24Z</time>
      </trkpt>
      <trkpt lat="45.84867" lon="1.22791">
        <ele>283.8</ele>
        <time>2024-11-29T15:04:25Z</time>
      </trkpt>
      <trkpt lat="45.84861" lon="1.22795">
        <ele>283.7</ele>
        <time>2024-11-29T15:04:26Z</time>
      </trkpt>
      <trkpt lat="45.84855" lon="1.22799">
        <ele>283.5</ele>
        <time>2024-11-29T15:04:27Z</time>
      </trkpt>
      <trkpt lat="45.84849" lon="1.22804">
        <ele>283.4</ele>
        <time>2024-11-29T15:04:28Z</time>
      </trkpt>
      <trkpt lat="45.84843" lon="1.22808">
        <ele>283.2</ele>
        <time>2024-11-29T15:04:29Z</time>
      </trkpt>
      <trkpt lat="45.84837" lon="1.22812">
        <ele>283.1</ele>
        <time>2024-11-29T15:04:30Z</time>
      </trkpt>
      <trkpt lat="45.84832" lon="1.22816">
        <ele>283</ele>
        <time>2024-11-29T15:04:31Z</time>
      </trkpt>
      <trkpt lat="45.84826" lon="1.22821">
        <ele>282.9</ele>
        <time>2024-11-29T15:04:32Z</time>
      </trkpt>
      <trkpt lat="45.8482" lon="1.22825">
        <ele>282.7</ele>
        <time>2024-11-29T15:04:33Z</time>
      </trkpt>
      <trkpt lat="45.84814" lon="1.22829">
        <ele>282.6</ele>
        <time>2024-11-29T15:04:34Z</time>
      </trkpt>
      <trkpt lat="45.84807" lon="1.22831">
        <ele>282.4</ele>
        <time>2024-11-29T15:04:35Z</time>
      </trkpt>
      <trkpt lat="45.84802" lon="1.22831">
        <ele>282.3</ele>
        <time>2024-11-29T15:04:36Z</time>
      </trkpt>
      <trkpt lat="45.84796" lon="1.2283">
        <ele>282</ele>
        <time>2024-11-29T15:04:37Z</time>
      </trkpt>
      <trkpt lat="45.8479" lon="1.22825">
        <ele>281.5</ele>
        <time>2024-11-29T15:04:38Z</time>
      </trkpt>
      <trkpt lat="45.84785" lon="1.22818">
        <ele>280.9</ele>
        <time>2024-11-29T15:04:39Z</time>
      </trkpt>
      <trkpt lat="45.8478" lon="1.2281">
        <ele>280.2</ele>
        <time>2024-11-29T15:04:40Z</time>
      </trkpt>
      <trkpt lat="45.84776" lon="1.22801">
        <ele>279.6</ele>
        <time>2024-11-29T15:04:41Z</time>
      </trkpt>
      <trkpt lat="45.84772" lon="1.22791">
        <ele>278.9</ele>
        <time>2024-11-29T15:04:42Z</time>
      </trkpt>
      <trkpt lat="45.84768" lon="1.22781">
        <ele>278.2</ele>
        <time>2024-11-29T15:04:43Z</time>
      </trkpt>
      <trkpt lat="45.84765" lon="1.22771">
        <ele>277.5</ele>
        <time>2024-11-29T15:04:44Z</time>
      </trkpt>
      <trkpt lat="45.84761" lon="1.2276">
        <ele>276.9</ele>
        <time>2024-11-29T15:04:45Z</time>
      </trkpt>
      <trkpt lat="45.84758" lon="1.22749">
        <ele>276.4</ele>
        <time>2024-11-29T15:04:46Z</time>
      </trkpt>
      <trkpt lat="45.84754" lon="1.2274">
        <ele>275.9</ele>
        <time>2024-11-29T15:04:47Z</time>
      </trkpt>
      <trkpt lat="45.84751" lon="1.22732">
        <ele>275.5</ele>
        <time>2024-11-29T15:04:48Z</time>
      </trkpt>
      <trkpt lat="45.84749" lon="1.22724">
        <ele>275.1</ele>
        <time>2024-11-29T15:04:49Z</time>
      </trkpt>
      <trkpt lat="45.84746" lon="1.22718">
        <ele>274.8</ele>
        <time>2024-11-29T15:04:50Z</time>
      </trkpt>
      <trkpt lat="45.84743" lon="1.22715">
        <ele>274.1</ele>
        <time>2024-11-29T15:04:51Z</time>
      </trkpt>
      <trkpt lat="45.8474" lon="1.22715">
        <ele>273.9</ele>
        <time>2024-11-29T15:04:52Z</time>
      </trkpt>
      <trkpt lat="45.84737" lon="1.22719">
        <ele>273.5</ele>
        <time>2024-11-29T15:04:53Z</time>
      </trkpt>
      <trkpt lat="45.84734" lon="1.22725">
        <ele>272.9</ele>
        <time>2024-11-29T15:04:54Z</time>
      </trkpt>
      <trkpt lat="45.84732" lon="1.22732">
        <ele>272.4</ele>
        <time>2024-11-29T15:04:55Z</time>
      </trkpt>
      <trkpt lat="45.8473" lon="1.22738">
        <ele>271.8</ele>
        <time>2024-11-29T15:04:56Z</time>
      </trkpt>
      <trkpt lat="45.84726" lon="1.22743">
        <ele>271.2</ele>
        <time>2024-11-29T15:04:57Z</time>
      </trkpt>
      <trkpt lat="45.84722" lon="1.22745">
        <ele>270.7</ele>
        <time>2024-11-29T15:04:58Z</time>
      </trkpt>
      <trkpt lat="45.84716" lon="1.22745">
        <ele>270</ele>
        <time>2024-11-29T15:04:59Z</time>
      </trkpt>
      <trkpt lat="45.84711" lon="1.22743">
        <ele>269.4</ele>
        <time>2024-11-29T15:05:00Z</time>
      </trkpt>
      <trkpt lat="45.84703" lon="1.2274">
        <ele>268.5</ele>
        <time>2024-11-29T15:05:01Z</time>
      </trkpt>
      <trkpt lat="45.84696" lon="1.22737">
        <ele>267.7</ele>
        <time>2024-11-29T15:05:02Z</time>
      </trkpt>
      <trkpt lat="45.84688" lon="1.22736">
        <ele>266.7</ele>
        <time>2024-11-29T15:05:03Z</time>
      </trkpt>
      <trkpt lat="45.84681" lon="1.22738">
        <ele>265.8</ele>
        <time>2024-11-29T15:05:04Z</time>
      </trkpt>
      <trkpt lat="45.84674" lon="1.22741">
        <ele>265</ele>
        <time>2024-11-29T15:05:05Z</time>
      </trkpt>
      <trkpt lat="45.84668" lon="1.22743">
        <ele>264.2</ele>
        <time>2024-11-29T15:05:06Z</time>
      </trkpt>
      <trkpt lat="45.84661" lon="1.22744">
        <ele>263.5</ele>
        <time>2024-11-29T15:05:07Z</time>
      </trkpt>
      <trkpt lat="45.84656" lon="1.22742">
        <ele>263.2</ele>
        <time>2024-11-29T15:05:08Z</time>
      </trkpt>
      <trkpt lat="45.8465" lon="1.22739">
        <ele>262.9</ele>
        <time>2024-11-29T15:05:09Z</time>
      </trkpt>
      <trkpt lat="45.84646" lon="1.22735">
        <ele>262.7</ele>
        <time>2024-11-29T15:05:10Z</time>
      </trkpt>
      <trkpt lat="45.84641" lon="1.2273">
        <ele>262.3</ele>
        <time>2024-11-29T15:05:11Z</time>
      </trkpt>
      <trkpt lat="45.84636" lon="1.22726">
        <ele>261.9</ele>
        <time>2024-11-29T15:05:12Z</time>
      </trkpt>
      <trkpt lat="45.8463" lon="1.22724">
        <ele>261.4</ele>
        <time>2024-11-29T15:05:13Z</time>
      </trkpt>
      <trkpt lat="45.84624" lon="1.22723">
        <ele>261</ele>
        <time>2024-11-29T15:05:14Z</time>
      </trkpt>
      <trkpt lat="45.84618" lon="1.22722">
        <ele>260.6</ele>
        <time>2024-11-29T15:05:15Z</time>
      </trkpt>
      <trkpt lat="45.84611" lon="1.22722">
        <ele>260.1</ele>
        <time>2024-11-29T15:05:16Z</time>
      </trkpt>
      <trkpt lat="45.84606" lon="1.22723">
        <ele>259.8</ele>
        <time>2024-11-29T15:05:17Z</time>
      </trkpt>
      <trkpt lat="45.84599" lon="1.22725">
        <ele>259.4</ele>
        <time>2024-11-29T15:05:18Z</time>
      </trkpt>
      <trkpt lat="45.84593" lon="1.22727">
        <ele>259.1</ele>
        <time>2024-11-29T15:05:19Z</time>
      </trkpt>
      <trkpt lat="45.84586" lon="1.22729">
        <ele>258.8</ele>
        <time>2024-11-29T15:05:20Z</time>
      </trkpt>
      <trkpt lat="45.84579" lon="1.22731">
        <ele>258.6</ele>
        <time>2024-11-29T15:05:21Z</time>
      </trkpt>
      <trkpt lat="45.84572" lon="1.22733">
        <ele>258.3</ele>
        <time>2024-11-29T15:05:22Z</time>
      </trkpt>
      <trkpt lat="45.84566" lon="1.22735">
        <ele>258.1</ele>
        <time>2024-11-29T15:05:23Z</time>
      </trkpt>
      <trkpt lat="45.84559" lon="1.22734">
        <ele>258</ele>
        <time>2024-11-29T15:05:24Z</time>
      </trkpt>
      <trkpt lat="45.84551" lon="1.22731">
        <ele>257.9</ele>
        <time>2024-11-29T15:05:25Z</time>
      </trkpt>
      <trkpt lat="45.84545" lon="1.22729">
        <ele>257.9</ele>
        <time>2024-11-29T15:05:26Z</time>
      </trkpt>
      <trkpt lat="45.84539" lon="1.22727">
        <ele>257.9</ele>
        <time>2024-11-29T15:05:27Z</time>
      </trkpt>
      <trkpt lat="45.84534" lon="1.22725">
        <ele>258</ele>
        <time>2024-11-29T15:05:28Z</time>
      </trkpt>
      <trkpt lat="45.8453" lon="1.22723">
        <ele>258.1</ele>
        <time>2024-11-29T15:05:29Z</time>
      </trkpt>
      <trkpt lat="45.84527" lon="1.22722">
        <ele>258.1</ele>
        <time>2024-11-29T15:05:30Z</time>
      </trkpt>
      <trkpt lat="45.84523" lon="1.2272">
        <ele>258.1</ele>
        <time>2024-11-29T15:05:31Z</time>
      </trkpt>
      <trkpt lat="45.84519" lon="1.22718">
        <ele>258.1</ele>
        <time>2024-11-29T15:05:32Z</time>
      </trkpt>
      <trkpt lat="45.84514" lon="1.22717">
        <ele>258.1</ele>
        <time>2024-11-29T15:05:33Z</time>
      </trkpt>
      <trkpt lat="45.84511" lon="1.22713">
        <ele>258.1</ele>
        <time>2024-11-29T15:05:34Z</time>
      </trkpt>
      <trkpt lat="45.84507" lon="1.22709">
        <ele>258.1</ele>
        <time>2024-11-29T15:05:35Z</time>
      </trkpt>
      <trkpt lat="45.84503" lon="1.22704">
        <ele>258</ele>
        <time>2024-11-29T15:05:36Z</time>
      </trkpt>
      <trkpt lat="45.84497" lon="1.22699">
        <ele>257.9</ele>
        <time>2024-11-29T15:05:37Z</time>
      </trkpt>
      <trkpt lat="45.84492" lon="1.22694">
        <ele>257.8</ele>
        <time>2024-11-29T15:05:38Z</time>
      </trkpt>
      <trkpt lat="45.84486" lon="1.2269">
        <ele>257.8</ele>
        <time>2024-11-29T15:05:39Z</time>
      </trkpt>
      <trkpt lat="45.8448" lon="1.22687">
        <ele>257.7</ele>
        <time>2024-11-29T15:05:40Z</time>
      </trkpt>
      <trkpt lat="45.84474" lon="1.22685">
        <ele>257.7</ele>
        <time>2024-11-29T15:05:41Z</time>
      </trkpt>
      <trkpt lat="45.84468" lon="1.22683">
        <ele>257.7</ele>
        <time>2024-11-29T15:05:42Z</time>
      </trkpt>
      <trkpt lat="45.84462" lon="1.22682">
        <ele>257.7</ele>
        <time>2024-11-29T15:05:43Z</time>
      </trkpt>
      <trkpt lat="45.84456" lon="1.22682">
        <ele>257.7</ele>
        <time>2024-11-29T15:05:44Z</time>
      </trkpt>
      <trkpt lat="45.8445" lon="1.22682">
        <ele>257.7</ele>
        <time>2024-11-29T15:05:45Z</time>
      </trkpt>
      <trkpt lat="45.84444" lon="1.22682">
        <ele>257.7</ele>
        <time>2024-11-29T15:05:46Z</time>
      </trkpt>
      <trkpt lat="45.84438" lon="1.22683">
        <ele>257.6</ele>
        <time>2024-11-29T15:05:47Z</time>
      </trkpt>
      <trkpt lat="45.84432" lon="1.22683">
        <ele>257.6</ele>
        <time>2024-11-29T15:05:48Z</time>
      </trkpt>
      <trkpt lat="45.84425" lon="1.22685">
        <ele>257.4</ele>
        <time>2024-11-29T15:05:49Z</time>
      </trkpt>
      <trkpt lat="45.84419" lon="1.22686">
        <ele>257.3</ele>
        <time>2024-11-29T15:05:50Z</time>
      </trkpt>
      <trkpt lat="45.84413" lon="1.22684">
        <ele>257.2</ele>
        <time>2024-11-29T15:05:51Z</time>
      </trkpt>
      <trkpt lat="45.84408" lon="1.22679">
        <ele>257.1</ele>
        <time>2024-11-29T15:05:52Z</time>
      </trkpt>
      <trkpt lat="45.84404" lon="1.22674">
        <ele>257</ele>
        <time>2024-11-29T15:05:53Z</time>
      </trkpt>
      <trkpt lat="45.844" lon="1.22669">
        <ele>256.8</ele>
        <time>2024-11-29T15:05:54Z</time>
      </trkpt>
      <trkpt lat="45.84396" lon="1.22663">
        <ele>256.7</ele>
        <time>2024-11-29T15:05:55Z</time>
      </trkpt>
      <trkpt lat="45.84393" lon="1.22656">
        <ele>256.6</ele>
        <time>2024-11-29T15:05:56Z</time>
      </trkpt>
      <trkpt lat="45.84389" lon="1.22648">
        <ele>256.5</ele>
        <time>2024-11-29T15:05:57Z</time>
      </trkpt>
      <trkpt lat="45.84386" lon="1.22641">
        <ele>256.4</ele>
        <time>2024-11-29T15:05:58Z</time>
      </trkpt>
      <trkpt lat="45.84383" lon="1.22633">
        <ele>256.3</ele>
        <time>2024-11-29T15:05:59Z</time>
      </trkpt>
      <trkpt lat="45.84378" lon="1.22626">
        <ele>256.3</ele>
        <time>2024-11-29T15:06:00Z</time>
      </trkpt>
      <trkpt lat="45.84373" lon="1.22622">
        <ele>256.2</ele>
        <time>2024-11-29T15:06:01Z</time>
      </trkpt>
      <trkpt lat="45.84367" lon="1.2262">
        <ele>256.2</ele>
        <time>2024-11-29T15:06:02Z</time>
      </trkpt>
      <trkpt lat="45.84361" lon="1.22621">
        <ele>256.2</ele>
        <time>2024-11-29T15:06:03Z</time>
      </trkpt>
      <trkpt lat="45.84355" lon="1.22623">
        <ele>256.1</ele>
        <time>2024-11-29T15:06:04Z</time>
      </trkpt>
      <trkpt lat="45.84349" lon="1.22625">
        <ele>256</ele>
        <time>2024-11-29T15:06:05Z</time>
      </trkpt>
      <trkpt lat="45.84342" lon="1.22625">
        <ele>256</ele>
        <time>2024-11-29T15:06:06Z</time>
      </trkpt>
      <trkpt lat="45.84336" lon="1.22625">
        <ele>255.9</ele>
        <time>2024-11-29T15:06:07Z</time>
      </trkpt>
      <trkpt lat="45.84329" lon="1.22623">
        <ele>255.8</ele>
        <time>2024-11-29T15:06:08Z</time>
      </trkpt>
      <trkpt lat="45.84323" lon="1.2262">
        <ele>255.8</ele>
        <time>2024-11-29T15:06:09Z</time>
      </trkpt>
      <trkpt lat="45.84318" lon="1.22616">
        <ele>255.7</ele>
        <time>2024-11-29T15:06:10Z</time>
      </trkpt>
      <trkpt lat="45.84313" lon="1.22611">
        <ele>255.7</ele>
        <time>2024-11-29T15:06:11Z</time>
      </trkpt>
      <trkpt lat="45.84309" lon="1.22604">
        <ele>255.6</ele>
        <time>2024-11-29T15:06:12Z</time>
      </trkpt>
      <trkpt lat="45.84305" lon="1.22597">
        <ele>255.5</ele>
        <time>2024-11-29T15:06:13Z</time>
      </trkpt>
      <trkpt lat="45.84301" lon="1.2259">
        <ele>255.5</ele>
        <time>2024-11-29T15:06:14Z</time>
      </trkpt>
      <trkpt lat="45.84296" lon="1.22584">
        <ele>255.4</ele>
        <time>2024-11-29T15:06:15Z</time>
      </trkpt>
      <trkpt lat="45.8429" lon="1.2258">
        <ele>255.4</ele>
        <time>2024-11-29T15:06:16Z</time>
      </trkpt>
      <trkpt lat="45.84284" lon="1.22579">
        <ele>255.3</ele>
        <time>2024-11-29T15:06:17Z</time>
      </trkpt>
      <trkpt lat="45.84278" lon="1.22582">
        <ele>255.2</ele>
        <time>2024-11-29T15:06:18Z</time>
      </trkpt>
      <trkpt lat="45.84273" lon="1.22586">
        <ele>255.1</ele>
        <time>2024-11-29T15:06:19Z</time>
      </trkpt>
      <trkpt lat="45.84269" lon="1.22592">
        <ele>255</ele>
        <time>2024-11-29T15:06:20Z</time>
      </trkpt>
      <trkpt lat="45.84264" lon="1.22598">
        <ele>255</ele>
        <time>2024-11-29T15:06:21Z</time>
      </trkpt>
      <trkpt lat="45.84259" lon="1.22603">
        <ele>254.9</ele>
        <time>2024-11-29T15:06:22Z</time>
      </trkpt>
      <trkpt lat="45.84254" lon="1.22609">
        <ele>254.8</ele>
        <time>2024-11-29T15:06:23Z</time>
      </trkpt>
      <trkpt lat="45.84249" lon="1.22614">
        <ele>254.7</ele>
        <time>2024-11-29T15:06:24Z</time>
      </trkpt>
      <trkpt lat="45.84243" lon="1.22618">
        <ele>254.7</ele>
        <time>2024-11-29T15:06:25Z</time>
      </trkpt>
      <trkpt lat="45.84237" lon="1.22621">
        <ele>254.6</ele>
        <time>2024-11-29T15:06:26Z</time>
      </trkpt>
      <trkpt lat="45.8423" lon="1.22622">
        <ele>254.6</ele>
        <time>2024-11-29T15:06:27Z</time>
      </trkpt>
      <trkpt lat="45.84224" lon="1.22622">
        <ele>254.5</ele>
        <time>2024-11-29T15:06:28Z</time>
      </trkpt>
      <trkpt lat="45.84218" lon="1.22622">
        <ele>254.5</ele>
        <time>2024-11-29T15:06:29Z</time>
      </trkpt>
      <trkpt lat="45.84212" lon="1.2262">
        <ele>254.5</ele>
        <time>2024-11-29T15:06:30Z</time>
      </trkpt>
      <trkpt lat="45.84206" lon="1.22619">
        <ele>254.5</ele>
        <time>2024-11-29T15:06:31Z</time>
      </trkpt>
      <trkpt lat="45.84201" lon="1.22618">
        <ele>254.5</ele>
        <time>2024-11-29T15:06:32Z</time>
      </trkpt>
      <trkpt lat="45.84195" lon="1.22617">
        <ele>254.5</ele>
        <time>2024-11-29T15:06:33Z</time>
      </trkpt>
      <trkpt lat="45.8419" lon="1.22617">
        <ele>254.5</ele>
        <time>2024-11-29T15:06:34Z</time>
      </trkpt>
      <trkpt lat="45.84184" lon="1.22617">
        <ele>254.5</ele>
        <time>2024-11-29T15:06:35Z</time>
      </trkpt>
      <trkpt lat="45.84178" lon="1.22615">
        <ele>254.5</ele>
        <time>2024-11-29T15:06:36Z</time>
      </trkpt>
      <trkpt lat="45.84172" lon="1.22613">
        <ele>254.5</ele>
        <time>2024-11-29T15:06:37Z</time>
      </trkpt>
      <trkpt lat="45.84167" lon="1.22611">
        <ele>254.5</ele>
        <time>2024-11-29T15:06:38Z</time>
      </trkpt>
      <trkpt lat="45.8416" lon="1.2261">
        <ele>254.5</ele>
        <time>2024-11-29T15:06:39Z</time>
      </trkpt>
      <trkpt lat="45.84154" lon="1.22607">
        <ele>254.5</ele>
        <time>2024-11-29T15:06:40Z</time>
      </trkpt>
      <trkpt lat="45.84148" lon="1.22606">
        <ele>254.6</ele>
        <time>2024-11-29T15:06:41Z</time>
      </trkpt>
      <trkpt lat="45.84141" lon="1.22604">
        <ele>254.6</ele>
        <time>2024-11-29T15:06:42Z</time>
      </trkpt>
      <trkpt lat="45.84135" lon="1.22602">
        <ele>254.6</ele>
        <time>2024-11-29T15:06:43Z</time>
      </trkpt>
      <trkpt lat="45.84129" lon="1.226">
        <ele>254.7</ele>
        <time>2024-11-29T15:06:44Z</time>
      </trkpt>
      <trkpt lat="45.84124" lon="1.22599">
        <ele>254.7</ele>
        <time>2024-11-29T15:06:45Z</time>
      </trkpt>
      <trkpt lat="45.84118" lon="1.226">
        <ele>254.8</ele>
        <time>2024-11-29T15:06:46Z</time>
      </trkpt>
      <trkpt lat="45.84112" lon="1.22603">
        <ele>255.3</ele>
        <time>2024-11-29T15:06:47Z</time>
      </trkpt>
      <trkpt lat="45.84106" lon="1.22608">
        <ele>256.2</ele>
        <time>2024-11-29T15:06:48Z</time>
      </trkpt>
      <trkpt lat="45.84101" lon="1.2261">
        <ele>256.9</ele>
        <time>2024-11-29T15:06:50Z</time>
      </trkpt>
      <trkpt lat="45.84097" lon="1.22611">
        <ele>257.5</ele>
        <time>2024-11-29T15:06:51Z</time>
      </trkpt>
      <trkpt lat="45.84094" lon="1.2261">
        <ele>258</ele>
        <time>2024-11-29T15:06:52Z</time>
      </trkpt>
      <trkpt lat="45.84091" lon="1.22609">
        <ele>258.5</ele>
        <time>2024-11-29T15:06:53Z</time>
      </trkpt>
      <trkpt lat="45.84088" lon="1.22607">
        <ele>259</ele>
        <time>2024-11-29T15:06:55Z</time>
      </trkpt>
      <trkpt lat="45.84085" lon="1.22605">
        <ele>259.5</ele>
        <time>2024-11-29T15:06:56Z</time>
      </trkpt>
      <trkpt lat="45.84081" lon="1.22603">
        <ele>260.2</ele>
        <time>2024-11-29T15:06:57Z</time>
      </trkpt>
      <trkpt lat="45.84078" lon="1.22602">
        <ele>260.7</ele>
        <time>2024-11-29T15:06:58Z</time>
      </trkpt>
      <trkpt lat="45.84074" lon="1.226">
        <ele>261.4</ele>
        <time>2024-11-29T15:06:59Z</time>
      </trkpt>
      <trkpt lat="45.84071" lon="1.22597">
        <ele>262</ele>
        <time>2024-11-29T15:07:00Z</time>
      </trkpt>
      <trkpt lat="45.84068" lon="1.22596">
        <ele>262.5</ele>
        <time>2024-11-29T15:07:01Z</time>
      </trkpt>
      <trkpt lat="45.84064" lon="1.22594">
        <ele>263.1</ele>
        <time>2024-11-29T15:07:03Z</time>
      </trkpt>
      <trkpt lat="45.84061" lon="1.22592">
        <ele>263.7</ele>
        <time>2024-11-29T15:07:04Z</time>
      </trkpt>
      <trkpt lat="45.84058" lon="1.2259">
        <ele>264.2</ele>
        <time>2024-11-29T15:07:05Z</time>
      </trkpt>
      <trkpt lat="45.84053" lon="1.22588">
        <ele>264.9</ele>
        <time>2024-11-29T15:07:07Z</time>
      </trkpt>
      <trkpt lat="45.8405" lon="1.22586">
        <ele>265.3</ele>
        <time>2024-11-29T15:07:08Z</time>
      </trkpt>
      <trkpt lat="45.84046" lon="1.22583">
        <ele>265.8</ele>
        <time>2024-11-29T15:07:09Z</time>
      </trkpt>
      <trkpt lat="45.84043" lon="1.2258">
        <ele>266.1</ele>
        <time>2024-11-29T15:07:10Z</time>
      </trkpt>
      <trkpt lat="45.84039" lon="1.22577">
        <ele>266.5</ele>
        <time>2024-11-29T15:07:11Z</time>
      </trkpt>
      <trkpt lat="45.84035" lon="1.22573">
        <ele>266.7</ele>
        <time>2024-11-29T15:07:12Z</time>
      </trkpt>
      <trkpt lat="45.84032" lon="1.2257">
        <ele>266.9</ele>
        <time>2024-11-29T15:07:13Z</time>
      </trkpt>
      <trkpt lat="45.84028" lon="1.22567">
        <ele>267.1</ele>
        <time>2024-11-29T15:07:14Z</time>
      </trkpt>
      <trkpt lat="45.84024" lon="1.22565">
        <ele>267.2</ele>
        <time>2024-11-29T15:07:15Z</time>
      </trkpt>
      <trkpt lat="45.8402" lon="1.22562">
        <ele>267.3</ele>
        <time>2024-11-29T15:07:16Z</time>
      </trkpt>
      <trkpt lat="45.84016" lon="1.2256">
        <ele>267.4</ele>
        <time>2024-11-29T15:07:17Z</time>
      </trkpt>
      <trkpt lat="45.84012" lon="1.22556">
        <ele>267.5</ele>
        <time>2024-11-29T15:07:18Z</time>
      </trkpt>
      <trkpt lat="45.84007" lon="1.22554">
        <ele>267.7</ele>
        <time>2024-11-29T15:07:19Z</time>
      </trkpt>
      <trkpt lat="45.84003" lon="1.22552">
        <ele>267.8</ele>
        <time>2024-11-29T15:07:20Z</time>
      </trkpt>
      <trkpt lat="45.83999" lon="1.2255">
        <ele>268</ele>
        <time>2024-11-29T15:07:21Z</time>
      </trkpt>
      <trkpt lat="45.83995" lon="1.22548">
        <ele>268.3</ele>
        <time>2024-11-29T15:07:22Z</time>
      </trkpt>
      <trkpt lat="45.83992" lon="1.22547">
        <ele>268.5</ele>
        <time>2024-11-29T15:07:23Z</time>
      </trkpt>
      <trkpt lat="45.83988" lon="1.22547">
        <ele>268.8</ele>
        <time>2024-11-29T15:07:24Z</time>
      </trkpt>
      <trkpt lat="45.83985" lon="1.22548">
        <ele>269</ele>
        <time>2024-11-29T15:07:25Z</time>
      </trkpt>
      <trkpt lat="45.83982" lon="1.22548">
        <ele>269.3</ele>
        <time>2024-11-29T15:07:26Z</time>
      </trkpt>
      <trkpt lat="45.83978" lon="1.22549">
        <ele>269.6</ele>
        <time>2024-11-29T15:07:28Z</time>
      </trkpt>
      <trkpt lat="45.83974" lon="1.22549">
        <ele>269.9</ele>
        <time>2024-11-29T15:07:30Z</time>
      </trkpt>
      <trkpt lat="45.8397" lon="1.22548">
        <ele>270.2</ele>
        <time>2024-11-29T15:07:32Z</time>
      </trkpt>
      <trkpt lat="45.83966" lon="1.22544">
        <ele>269.8</ele>
        <time>2024-11-29T15:07:34Z</time>
      </trkpt>
      <trkpt lat="45.83963" lon="1.22539">
        <ele>269.4</ele>
        <time>2024-11-29T15:07:35Z</time>
      </trkpt>
      <trkpt lat="45.83961" lon="1.22533">
        <ele>268.9</ele>
        <time>2024-11-29T15:07:36Z</time>
      </trkpt>
      <trkpt lat="45.83958" lon="1.22527">
        <ele>268.4</ele>
        <time>2024-11-29T15:07:37Z</time>
      </trkpt>
      <trkpt lat="45.83955" lon="1.2252">
        <ele>267.9</ele>
        <time>2024-11-29T15:07:38Z</time>
      </trkpt>
      <trkpt lat="45.83952" lon="1.22513">
        <ele>267.4</ele>
        <time>2024-11-29T15:07:39Z</time>
      </trkpt>
      <trkpt lat="45.83948" lon="1.22506">
        <ele>266.8</ele>
        <time>2024-11-29T15:07:40Z</time>
      </trkpt>
      <trkpt lat="45.83945" lon="1.22499">
        <ele>266.3</ele>
        <time>2024-11-29T15:07:41Z</time>
      </trkpt>
      <trkpt lat="45.83941" lon="1.22493">
        <ele>265.8</ele>
        <time>2024-11-29T15:07:42Z</time>
      </trkpt>
      <trkpt lat="45.83936" lon="1.22487">
        <ele>265.3</ele>
        <time>2024-11-29T15:07:43Z</time>
      </trkpt>
      <trkpt lat="45.83932" lon="1.22482">
        <ele>264.9</ele>
        <time>2024-11-29T15:07:44Z</time>
      </trkpt>
      <trkpt lat="45.83928" lon="1.22478">
        <ele>264.5</ele>
        <time>2024-11-29T15:07:45Z</time>
      </trkpt>
      <trkpt lat="45.83923" lon="1.22475">
        <ele>264</ele>
        <time>2024-11-29T15:07:46Z</time>
      </trkpt>
      <trkpt lat="45.83918" lon="1.22472">
        <ele>263.6</ele>
        <time>2024-11-29T15:07:47Z</time>
      </trkpt>
      <trkpt lat="45.83912" lon="1.22469">
        <ele>263</ele>
        <time>2024-11-29T15:07:48Z</time>
      </trkpt>
      <trkpt lat="45.83905" lon="1.22466">
        <ele>262.3</ele>
        <time>2024-11-29T15:07:49Z</time>
      </trkpt>
      <trkpt lat="45.83898" lon="1.22463">
        <ele>261.7</ele>
        <time>2024-11-29T15:07:50Z</time>
      </trkpt>
      <trkpt lat="45.83891" lon="1.22461">
        <ele>261.1</ele>
        <time>2024-11-29T15:07:51Z</time>
      </trkpt>
      <trkpt lat="45.83884" lon="1.2246">
        <ele>260.5</ele>
        <time>2024-11-29T15:07:52Z</time>
      </trkpt>
      <trkpt lat="45.83877" lon="1.22459">
        <ele>260</ele>
        <time>2024-11-29T15:07:53Z</time>
      </trkpt>
      <trkpt lat="45.83869" lon="1.22458">
        <ele>259.4</ele>
        <time>2024-11-29T15:07:54Z</time>
      </trkpt>
      <trkpt lat="45.83862" lon="1.22458">
        <ele>258.9</ele>
        <time>2024-11-29T15:07:55Z</time>
      </trkpt>
      <trkpt lat="45.83854" lon="1.22457">
        <ele>258.6</ele>
        <time>2024-11-29T15:07:56Z</time>
      </trkpt>
      <trkpt lat="45.83847" lon="1.22456">
        <ele>258.4</ele>
        <time>2024-11-29T15:07:57Z</time>
      </trkpt>
      <trkpt lat="45.83839" lon="1.22456">
        <ele>258.1</ele>
        <time>2024-11-29T15:07:58Z</time>
      </trkpt>
      <trkpt lat="45.83832" lon="1.22455">
        <ele>257.9</ele>
        <time>2024-11-29T15:07:59Z</time>
      </trkpt>
      <trkpt lat="45.83825" lon="1.22455">
        <ele>257.7</ele>
        <time>2024-11-29T15:08:00Z</time>
      </trkpt>
      <trkpt lat="45.83819" lon="1.22455">
        <ele>257.6</ele>
        <time>2024-11-29T15:08:01Z</time>
      </trkpt>
      <trkpt lat="45.83812" lon="1.22454">
        <ele>257.4</ele>
        <time>2024-11-29T15:08:02Z</time>
      </trkpt>
      <trkpt lat="45.83806" lon="1.22454">
        <ele>257.2</ele>
        <time>2024-11-29T15:08:03Z</time>
      </trkpt>
      <trkpt lat="45.838" lon="1.22453">
        <ele>257.1</ele>
        <time>2024-11-29T15:08:04Z</time>
      </trkpt>
      <trkpt lat="45.83795" lon="1.22451">
        <ele>257</ele>
        <time>2024-11-29T15:08:05Z</time>
      </trkpt>
      <trkpt lat="45.83789" lon="1.22449">
        <ele>257</ele>
        <time>2024-11-29T15:08:06Z</time>
      </trkpt>
      <trkpt lat="45.83783" lon="1.22449">
        <ele>257</ele>
        <time>2024-11-29T15:08:07Z</time>
      </trkpt>
      <trkpt lat="45.83778" lon="1.2245">
        <ele>257</ele>
        <time>2024-11-29T15:08:08Z</time>
      </trkpt>
      <trkpt lat="45.83774" lon="1.22452">
        <ele>256.9</ele>
        <time>2024-11-29T15:08:09Z</time>
      </trkpt>
      <trkpt lat="45.83769" lon="1.22452">
        <ele>256.9</ele>
        <time>2024-11-29T15:08:10Z</time>
      </trkpt>
      <trkpt lat="45.83766" lon="1.22453">
        <ele>256.9</ele>
        <time>2024-11-29T15:08:11Z</time>
      </trkpt>
      <trkpt lat="45.83762" lon="1.22453">
        <ele>256.7</ele>
        <time>2024-11-29T15:08:12Z</time>
      </trkpt>
      <trkpt lat="45.83759" lon="1.22451">
        <ele>256.6</ele>
        <time>2024-11-29T15:08:13Z</time>
      </trkpt>
      <trkpt lat="45.83755" lon="1.2245">
        <ele>256.3</ele>
        <time>2024-11-29T15:08:14Z</time>
      </trkpt>
      <trkpt lat="45.83751" lon="1.22448">
        <ele>256.1</ele>
        <time>2024-11-29T15:08:15Z</time>
      </trkpt>
      <trkpt lat="45.83747" lon="1.22447">
        <ele>256.3</ele>
        <time>2024-11-29T15:08:16Z</time>
      </trkpt>
      <trkpt lat="45.83743" lon="1.22446">
        <ele>256.6</ele>
        <time>2024-11-29T15:08:17Z</time>
      </trkpt>
      <trkpt lat="45.83739" lon="1.22447">
        <ele>256.8</ele>
        <time>2024-11-29T15:08:18Z</time>
      </trkpt>
      <trkpt lat="45.83736" lon="1.2245">
        <ele>257.1</ele>
        <time>2024-11-29T15:08:20Z</time>
      </trkpt>
      <trkpt lat="45.83733" lon="1.22455">
        <ele>257.3</ele>
        <time>2024-11-29T15:08:22Z</time>
      </trkpt>
      <trkpt lat="45.83731" lon="1.22458">
        <ele>257.5</ele>
        <time>2024-11-29T15:08:23Z</time>
      </trkpt>
      <trkpt lat="45.83728" lon="1.2246">
        <ele>258.4</ele>
        <time>2024-11-29T15:08:24Z</time>
      </trkpt>
      <trkpt lat="45.83724" lon="1.22461">
        <ele>259</ele>
        <time>2024-11-29T15:08:25Z</time>
      </trkpt>
      <trkpt lat="45.8372" lon="1.22463">
        <ele>259.9</ele>
        <time>2024-11-29T15:08:26Z</time>
      </trkpt>
      <trkpt lat="45.83716" lon="1.22465">
        <ele>260.8</ele>
        <time>2024-11-29T15:08:27Z</time>
      </trkpt>
      <trkpt lat="45.83711" lon="1.22466">
        <ele>261.7</ele>
        <time>2024-11-29T15:08:28Z</time>
      </trkpt>
      <trkpt lat="45.83705" lon="1.22467">
        <ele>262.5</ele>
        <time>2024-11-29T15:08:29Z</time>
      </trkpt>
      <trkpt lat="45.837" lon="1.22468">
        <ele>263.2</ele>
        <time>2024-11-29T15:08:30Z</time>
      </trkpt>
      <trkpt lat="45.83695" lon="1.22469">
        <ele>264.1</ele>
        <time>2024-11-29T15:08:31Z</time>
      </trkpt>
      <trkpt lat="45.83689" lon="1.22469">
        <ele>264.9</ele>
        <time>2024-11-29T15:08:32Z</time>
      </trkpt>
      <trkpt lat="45.83684" lon="1.2247">
        <ele>265.7</ele>
        <time>2024-11-29T15:08:33Z</time>
      </trkpt>
      <trkpt lat="45.83679" lon="1.2247">
        <ele>265.7</ele>
        <time>2024-11-29T15:08:34Z</time>
      </trkpt>
      <trkpt lat="45.83675" lon="1.2247">
        <ele>265.7</ele>
        <time>2024-11-29T15:08:35Z</time>
      </trkpt>
      <trkpt lat="45.83669" lon="1.2247">
        <ele>265.7</ele>
        <time>2024-11-29T15:08:36Z</time>
      </trkpt>
      <trkpt lat="45.83664" lon="1.22471">
        <ele>265.7</ele>
        <time>2024-11-29T15:08:37Z</time>
      </trkpt>
      <trkpt lat="45.83659" lon="1.22471">
        <ele>265.9</ele>
        <time>2024-11-29T15:08:38Z</time>
      </trkpt>
      <trkpt lat="45.83655" lon="1.22471">
        <ele>266.1</ele>
        <time>2024-11-29T15:08:39Z</time>
      </trkpt>
      <trkpt lat="45.8365" lon="1.2247">
        <ele>266.3</ele>
        <time>2024-11-29T15:08:40Z</time>
      </trkpt>
      <trkpt lat="45.83646" lon="1.2247">
        <ele>266.5</ele>
        <time>2024-11-29T15:08:41Z</time>
      </trkpt>
      <trkpt lat="45.83641" lon="1.22471">
        <ele>266.8</ele>
        <time>2024-11-29T15:08:42Z</time>
      </trkpt>
      <trkpt lat="45.83637" lon="1.22472">
        <ele>267</ele>
        <time>2024-11-29T15:08:43Z</time>
      </trkpt>
      <trkpt lat="45.83633" lon="1.22473">
        <ele>267.3</ele>
        <time>2024-11-29T15:08:44Z</time>
      </trkpt>
      <trkpt lat="45.83629" lon="1.22475">
        <ele>267.5</ele>
        <time>2024-11-29T15:08:45Z</time>
      </trkpt>
      <trkpt lat="45.83623" lon="1.22476">
        <ele>267.9</ele>
        <time>2024-11-29T15:08:46Z</time>
      </trkpt>
      <trkpt lat="45.83618" lon="1.22478">
        <ele>268.2</ele>
        <time>2024-11-29T15:08:47Z</time>
      </trkpt>
      <trkpt lat="45.83612" lon="1.22479">
        <ele>268.5</ele>
        <time>2024-11-29T15:08:48Z</time>
      </trkpt>
      <trkpt lat="45.83607" lon="1.22478">
        <ele>268.8</ele>
        <time>2024-11-29T15:08:49Z</time>
      </trkpt>
      <trkpt lat="45.83603" lon="1.22478">
        <ele>269.1</ele>
        <time>2024-11-29T15:08:50Z</time>
      </trkpt>
      <trkpt lat="45.83599" lon="1.22479">
        <ele>269.2</ele>
        <time>2024-11-29T15:08:51Z</time>
      </trkpt>
      <trkpt lat="45.83595" lon="1.22479">
        <ele>269.4</ele>
        <time>2024-11-29T15:08:52Z</time>
      </trkpt>
      <trkpt lat="45.8359" lon="1.22479">
        <ele>269.5</ele>
        <time>2024-11-29T15:08:53Z</time>
      </trkpt>
      <trkpt lat="45.83585" lon="1.2248">
        <ele>269.7</ele>
        <time>2024-11-29T15:08:54Z</time>
      </trkpt>
      <trkpt lat="45.83581" lon="1.22481">
        <ele>269.8</ele>
        <time>2024-11-29T15:08:55Z</time>
      </trkpt>
      <trkpt lat="45.83576" lon="1.22481">
        <ele>270</ele>
        <time>2024-11-29T15:08:56Z</time>
      </trkpt>
      <trkpt lat="45.83573" lon="1.22482">
        <ele>270.1</ele>
        <time>2024-11-29T15:08:57Z</time>
      </trkpt>
      <trkpt lat="45.83569" lon="1.22483">
        <ele>270.2</ele>
        <time>2024-11-29T15:08:58Z</time>
      </trkpt>
      <trkpt lat="45.83565" lon="1.22483">
        <ele>270.3</ele>
        <time>2024-11-29T15:08:59Z</time>
      </trkpt>
      <trkpt lat="45.83561" lon="1.22485">
        <ele>270.7</ele>
        <time>2024-11-29T15:09:01Z</time>
      </trkpt>
      <trkpt lat="45.8356" lon="1.2249">
        <ele>270.7</ele>
        <time>2024-11-29T15:09:03Z</time>
      </trkpt>
      <trkpt lat="45.83558" lon="1.22494">
        <ele>270.7</ele>
        <time>2024-11-29T15:09:04Z</time>
      </trkpt>
      <trkpt lat="45.83557" lon="1.22497">
        <ele>270.7</ele>
        <time>2024-11-29T15:09:05Z</time>
      </trkpt>
      <trkpt lat="45.83554" lon="1.22501">
        <ele>270.7</ele>
        <time>2024-11-29T15:09:06Z</time>
      </trkpt>
      <trkpt lat="45.83551" lon="1.22504">
        <ele>270.7</ele>
        <time>2024-11-29T15:09:07Z</time>
      </trkpt>
      <trkpt lat="45.83549" lon="1.22509">
        <ele>270.7</ele>
        <time>2024-11-29T15:09:08Z</time>
      </trkpt>
      <trkpt lat="45.83549" lon="1.22515">
        <ele>270.7</ele>
        <time>2024-11-29T15:09:09Z</time>
      </trkpt>
      <trkpt lat="45.8355" lon="1.22522">
        <ele>270.7</ele>
        <time>2024-11-29T15:09:10Z</time>
      </trkpt>
      <trkpt lat="45.8355" lon="1.22528">
        <ele>270.7</ele>
        <time>2024-11-29T15:09:11Z</time>
      </trkpt>
      <trkpt lat="45.83548" lon="1.22533">
        <ele>270.7</ele>
        <time>2024-11-29T15:09:12Z</time>
      </trkpt>
      <trkpt lat="45.83546" lon="1.22534">
        <ele>270.7</ele>
        <time>2024-11-29T15:09:13Z</time>
      </trkpt>
      <trkpt lat="45.83543" lon="1.22534">
        <ele>270.7</ele>
        <time>2024-11-29T15:09:14Z</time>
      </trkpt>
      <trkpt lat="45.83539" lon="1.22534">
        <ele>270.7</ele>
        <time>2024-11-29T15:09:15Z</time>
      </trkpt>
      <trkpt lat="45.83535" lon="1.22534">
        <ele>270.7</ele>
        <time>2024-11-29T15:09:16Z</time>
      </trkpt>
      <trkpt lat="45.83532" lon="1.22534">
        <ele>270.7</ele>
        <time>2024-11-29T15:09:17Z</time>
      </trkpt>
      <trkpt lat="45.83528" lon="1.22534">
        <ele>270.7</ele>
        <time>2024-11-29T15:09:18Z</time>
      </trkpt>
      <trkpt lat="45.83525" lon="1.22535">
        <ele>270.7</ele>
        <time>2024-11-29T15:09:19Z</time>
      </trkpt>
      <trkpt lat="45.83523" lon="1.22537">
        <ele>270.7</ele>
        <time>2024-11-29T15:09:20Z</time>
      </trkpt>
      <trkpt lat="45.8352" lon="1.22541">
        <ele>270.7</ele>
        <time>2024-11-29T15:09:22Z</time>
      </trkpt>
      <trkpt lat="45.83518" lon="1.22543">
        <ele>270.6</ele>
        <time>2024-11-29T15:09:24Z</time>
      </trkpt>
      <trkpt lat="45.83515" lon="1.22545">
        <ele>270.6</ele>
        <time>2024-11-29T15:09:27Z</time>
      </trkpt>
      <trkpt lat="45.83515" lon="1.22547">
        <ele>270.6</ele>
        <time>2024-11-29T15:09:47Z</time>
      </trkpt>
      <trkpt lat="45.83517" lon="1.22543">
        <ele>270.6</ele>
        <time>2024-11-29T15:10:29Z</time>
      </trkpt>
      <trkpt lat="45.83518" lon="1.22539">
        <ele>270.6</ele>
        <time>2024-11-29T15:10:30Z</time>
      </trkpt>
      <trkpt lat="45.83519" lon="1.22534">
        <ele>270.6</ele>
        <time>2024-11-29T15:10:32Z</time>
      </trkpt>
      <trkpt lat="45.8352" lon="1.22528">
        <ele>270.6</ele>
        <time>2024-11-29T15:10:34Z</time>
      </trkpt>
      <trkpt lat="45.83522" lon="1.22522">
        <ele>270.6</ele>
        <time>2024-11-29T15:10:35Z</time>
      </trkpt>
    </trkseg>
  </trk>
</gpx>